<?xml version='1.0' encoding='UTF-8'?><gpx version="1.1" creator="JPX - https://github.com/jenetics/jpx" xmlns="http://www.topografix.com/GPX/1/1"><trk><trkseg><trkpt lat="45.79460385060187" lon="9.41363873509068"><ele>212.00000000000003</ele><time>2026-04-25T06:09:03.999Z</time></trkpt><trkpt lat="45.79459084198373" lon="9.413789472327055"><ele>212.0</ele><time>2026-04-25T06:10:28Z</time></trkpt><trkpt lat="45.794636423768324" lon="9.413867405796076"><ele>212.0</ele><time>2026-04-25T06:10:30Z</time></trkpt><trkpt lat="45.79470942457633" lon="9.413848549109153"><ele>212.0</ele><time>2026-04-25T06:10:32Z</time></trkpt><trkpt lat="45.79477541260542" lon="9.413801730477408"><ele>212.00000000000003</ele><time>2026-04-25T06:10:34Z</time></trkpt><trkpt lat="45.79485575519302" lon="9.413811379726216"><ele>212.0</ele><time>2026-04-25T06:10:37Z</time></trkpt><trkpt lat="45.79488430934585" lon="9.4139290714049"><ele>212.0</ele><time>2026-04-25T06:10:39.001Z</time></trkpt><trkpt lat="45.79490230360164" lon="9.414067700800516"><ele>212.0</ele><time>2026-04-25T06:10:41.001Z</time></trkpt><trkpt lat="45.79497857257999" lon="9.414132379125085"><ele>212.0</ele><time>2026-04-25T06:10:43.001Z</time></trkpt><trkpt lat="45.795081637659905" lon="9.414058246752672"><ele>212.0</ele><time>2026-04-25T06:10:45.001Z</time></trkpt><trkpt lat="45.795197363070315" lon="9.413997514612344"><ele>212.0</ele><time>2026-04-25T06:10:47.001Z</time></trkpt><trkpt lat="45.79531713266198" lon="9.413945947244692"><ele>212.00000000000003</ele><time>2026-04-25T06:10:49.001Z</time></trkpt><trkpt lat="45.79537883808812" lon="9.413910644738953"><ele>212.0</ele><time>2026-04-25T06:10:50.001Z</time></trkpt><trkpt lat="45.79547316557566" lon="9.413859462253564"><ele>212.0</ele><time>2026-04-25T06:10:52.001Z</time></trkpt><trkpt lat="45.795540874038764" lon="9.41389377792242"><ele>212.0</ele><time>2026-04-25T06:10:54.001Z</time></trkpt><trkpt lat="45.795569372437754" lon="9.413979612538032"><ele>212.00000000000003</ele><time>2026-04-25T06:10:55.001Z</time></trkpt><trkpt lat="45.7956018755356" lon="9.414077189442036"><ele>212.0</ele><time>2026-04-25T06:10:56.001Z</time></trkpt><trkpt lat="45.79563364986212" lon="9.4141865756615"><ele>212.0</ele><time>2026-04-25T06:10:57.001Z</time></trkpt><trkpt lat="45.795679176205006" lon="9.414306572268687"><ele>212.0</ele><time>2026-04-25T06:10:58.001Z</time></trkpt><trkpt lat="45.795724367546555" lon="9.414420923949105"><ele>212.0</ele><time>2026-04-25T06:10:59.001Z</time></trkpt><trkpt lat="45.795774308488376" lon="9.41454299832417"><ele>212.0</ele><time>2026-04-25T06:11:00.001Z</time></trkpt><trkpt lat="45.79581764473004" lon="9.414671972914771"><ele>212.0</ele><time>2026-04-25T06:11:01.001Z</time></trkpt><trkpt lat="45.79585425576252" lon="9.414792349927389"><ele>210.8</ele><time>2026-04-25T06:11:02.001Z</time></trkpt><trkpt lat="45.79589108552635" lon="9.414903267517856"><ele>209.6</ele><time>2026-04-25T06:11:03.001Z</time></trkpt><trkpt lat="45.7959541131887" lon="9.415006527351144"><ele>208.4</ele><time>2026-04-25T06:11:04.001Z</time></trkpt><trkpt lat="45.79598532621139" lon="9.415088242803819"><ele>207.20000000000002</ele><time>2026-04-25T06:11:05.001Z</time></trkpt><trkpt lat="45.79602425187858" lon="9.415189925660982"><ele>206.0</ele><time>2026-04-25T06:11:07.001Z</time></trkpt><trkpt lat="45.795911839637576" lon="9.415298394197798"><ele>206.0</ele><time>2026-04-25T06:11:11Z</time></trkpt><trkpt lat="45.795829803686324" lon="9.415326350506405"><ele>206.0</ele><time>2026-04-25T06:11:12Z</time></trkpt><trkpt lat="45.79574397333011" lon="9.415360318518728"><ele>206.0</ele><time>2026-04-25T06:11:13Z</time></trkpt><trkpt lat="45.79565317650195" lon="9.41539479545698"><ele>206.0</ele><time>2026-04-25T06:11:14Z</time></trkpt><trkpt lat="45.79556088140058" lon="9.415431023269013"><ele>206.0</ele><time>2026-04-25T06:11:15Z</time></trkpt><trkpt lat="45.795466702545625" lon="9.415464681239106"><ele>205.60000000000002</ele><time>2026-04-25T06:11:16Z</time></trkpt><trkpt lat="45.79536753020133" lon="9.415502495619227"><ele>205.2</ele><time>2026-04-25T06:11:17Z</time></trkpt><trkpt lat="45.79526589587473" lon="9.415540681837623"><ele>204.8</ele><time>2026-04-25T06:11:18Z</time></trkpt><trkpt lat="45.795164332003694" lon="9.41558672558138"><ele>204.39999999999998</ele><time>2026-04-25T06:11:19Z</time></trkpt><trkpt lat="45.79506007566986" lon="9.415628528362944"><ele>204.0</ele><time>2026-04-25T06:11:20Z</time></trkpt><trkpt lat="45.79495298705684" lon="9.41567657351478"><ele>204.0</ele><time>2026-04-25T06:11:21Z</time></trkpt><trkpt lat="45.794843779609835" lon="9.415721864416673"><ele>204.0</ele><time>2026-04-25T06:11:22Z</time></trkpt><trkpt lat="45.7947316852854" lon="9.41576812114325"><ele>204.0</ele><time>2026-04-25T06:11:23Z</time></trkpt><trkpt lat="45.79462193868537" lon="9.415815650076377"><ele>204.0</ele><time>2026-04-25T06:11:24Z</time></trkpt><trkpt lat="45.79450955964945" lon="9.415860861686369"><ele>204.0</ele><time>2026-04-25T06:11:25Z</time></trkpt><trkpt lat="45.79439659284986" lon="9.415910888532666"><ele>204.0</ele><time>2026-04-25T06:11:26Z</time></trkpt><trkpt lat="45.79428325371033" lon="9.415958388265713"><ele>204.0</ele><time>2026-04-25T06:11:27Z</time></trkpt><trkpt lat="45.79416630718604" lon="9.4160060877341"><ele>204.0</ele><time>2026-04-25T06:11:28Z</time></trkpt><trkpt lat="45.79404972355817" lon="9.416055407617296"><ele>204.5</ele><time>2026-04-25T06:11:29Z</time></trkpt><trkpt lat="45.79393555295074" lon="9.416111000759681"><ele>205.0</ele><time>2026-04-25T06:11:30Z</time></trkpt><trkpt lat="45.793814674303526" lon="9.416157572153901"><ele>205.5</ele><time>2026-04-25T06:11:31Z</time></trkpt><trkpt lat="45.793699030854185" lon="9.416208988342095"><ele>206.0</ele><time>2026-04-25T06:11:32Z</time></trkpt><trkpt lat="45.7935862649294" lon="9.416255631223121"><ele>206.0</ele><time>2026-04-25T06:11:33Z</time></trkpt><trkpt lat="45.79348021392841" lon="9.416298536439895"><ele>206.0</ele><time>2026-04-25T06:11:34Z</time></trkpt><trkpt lat="45.79337554029595" lon="9.41633816514294"><ele>206.0</ele><time>2026-04-25T06:11:35Z</time></trkpt><trkpt lat="45.79327899356499" lon="9.41637414215032"><ele>206.0</ele><time>2026-04-25T06:11:36Z</time></trkpt><trkpt lat="45.7931894617265" lon="9.41641198703232"><ele>206.0</ele><time>2026-04-25T06:11:37Z</time></trkpt><trkpt lat="45.79309761810002" lon="9.416454167744018"><ele>206.0</ele><time>2026-04-25T06:11:38Z</time></trkpt><trkpt lat="45.79299841350807" lon="9.416489595542329"><ele>206.0</ele><time>2026-04-25T06:11:39Z</time></trkpt><trkpt lat="45.79289684375319" lon="9.416531248153108"><ele>206.0</ele><time>2026-04-25T06:11:40Z</time></trkpt><trkpt lat="45.792791690813345" lon="9.416575216908868"><ele>206.0</ele><time>2026-04-25T06:11:41Z</time></trkpt><trkpt lat="45.79268520345407" lon="9.416618452267931"><ele>206.0</ele><time>2026-04-25T06:11:42Z</time></trkpt><trkpt lat="45.79257692697778" lon="9.416659742003421"><ele>206.0</ele><time>2026-04-25T06:11:43Z</time></trkpt><trkpt lat="45.79246946544479" lon="9.416698716621454"><ele>206.0</ele><time>2026-04-25T06:11:44Z</time></trkpt><trkpt lat="45.792364988210124" lon="9.416742204585505"><ele>206.0</ele><time>2026-04-25T06:11:45Z</time></trkpt><trkpt lat="45.79226215223299" lon="9.416788588671405"><ele>206.0</ele><time>2026-04-25T06:11:46Z</time></trkpt><trkpt lat="45.79215996331907" lon="9.416836894778465"><ele>206.0</ele><time>2026-04-25T06:11:47Z</time></trkpt><trkpt lat="45.79205835175253" lon="9.416889718887179"><ele>206.0</ele><time>2026-04-25T06:11:48Z</time></trkpt><trkpt lat="45.791957451664516" lon="9.416948221165503"><ele>206.0</ele><time>2026-04-25T06:11:49Z</time></trkpt><trkpt lat="45.79185864983988" lon="9.41700937126114"><ele>206.0</ele><time>2026-04-25T06:11:50Z</time></trkpt><trkpt lat="45.79175684067853" lon="9.417076501221628"><ele>206.0</ele><time>2026-04-25T06:11:51Z</time></trkpt><trkpt lat="45.7916552863249" lon="9.417149965590086"><ele>206.0</ele><time>2026-04-25T06:11:52Z</time></trkpt><trkpt lat="45.79155450048982" lon="9.417230300756152"><ele>205.75</ele><time>2026-04-25T06:11:53Z</time></trkpt><trkpt lat="45.79145420102195" lon="9.417314351169502"><ele>205.5</ele><time>2026-04-25T06:11:54Z</time></trkpt><trkpt lat="45.7913531340885" lon="9.417399321808166"><ele>205.25</ele><time>2026-04-25T06:11:55Z</time></trkpt><trkpt lat="45.79125018008999" lon="9.417486718578456"><ele>205.0</ele><time>2026-04-25T06:11:56Z</time></trkpt><trkpt lat="45.79114721088193" lon="9.417572206031762"><ele>205.0</ele><time>2026-04-25T06:11:57Z</time></trkpt><trkpt lat="45.79104189843683" lon="9.41765561365064"><ele>205.0</ele><time>2026-04-25T06:11:58Z</time></trkpt><trkpt lat="45.79093527301871" lon="9.417741401079727"><ele>205.0</ele><time>2026-04-25T06:11:59Z</time></trkpt><trkpt lat="45.79082949671621" lon="9.417828699798873"><ele>205.0</ele><time>2026-04-25T06:12:00Z</time></trkpt><trkpt lat="45.790724662176274" lon="9.417917935148093"><ele>205.5</ele><time>2026-04-25T06:12:01Z</time></trkpt><trkpt lat="45.79061731520839" lon="9.418003186371346"><ele>206.0</ele><time>2026-04-25T06:12:02Z</time></trkpt><trkpt lat="45.790511749466354" lon="9.418091555959585"><ele>206.5</ele><time>2026-04-25T06:12:03Z</time></trkpt><trkpt lat="45.79040563354241" lon="9.418176701111895"><ele>207.0</ele><time>2026-04-25T06:12:04Z</time></trkpt><trkpt lat="45.790304146312266" lon="9.418259821739628"><ele>207.0</ele><time>2026-04-25T06:12:05Z</time></trkpt><trkpt lat="45.790209467322" lon="9.418340820286193"><ele>207.0</ele><time>2026-04-25T06:12:06Z</time></trkpt><trkpt lat="45.79012259998139" lon="9.418413656270713"><ele>207.0</ele><time>2026-04-25T06:12:07Z</time></trkpt><trkpt lat="45.790038213861294" lon="9.41848070162898"><ele>207.0</ele><time>2026-04-25T06:12:08Z</time></trkpt><trkpt lat="45.78996142978594" lon="9.418539098440847"><ele>207.0</ele><time>2026-04-25T06:12:09Z</time></trkpt><trkpt lat="45.78989085268491" lon="9.418570136567086"><ele>207.5</ele><time>2026-04-25T06:12:10Z</time></trkpt><trkpt lat="45.789817690938314" lon="9.418578054594462"><ele>208.0</ele><time>2026-04-25T06:12:11Z</time></trkpt><trkpt lat="45.78974802802952" lon="9.418545620189256"><ele>208.5</ele><time>2026-04-25T06:12:12Z</time></trkpt><trkpt lat="45.78969259784064" lon="9.418473701415817"><ele>209.0</ele><time>2026-04-25T06:12:13Z</time></trkpt><trkpt lat="45.789643643351624" lon="9.41839576530552"><ele>209.5</ele><time>2026-04-25T06:12:14Z</time></trkpt><trkpt lat="45.78957565653761" lon="9.41835889348253"><ele>210.0</ele><time>2026-04-25T06:12:15Z</time></trkpt><trkpt lat="45.78949410418675" lon="9.418387027945984"><ele>210.0</ele><time>2026-04-25T06:12:16Z</time></trkpt><trkpt lat="45.78942463130867" lon="9.418477509257597"><ele>210.0</ele><time>2026-04-25T06:12:17Z</time></trkpt><trkpt lat="45.7893752290931" lon="9.418601795638398"><ele>210.0</ele><time>2026-04-25T06:12:18Z</time></trkpt><trkpt lat="45.78932141635496" lon="9.41872770585062"><ele>210.0</ele><time>2026-04-25T06:12:19Z</time></trkpt><trkpt lat="45.789244760450885" lon="9.41883430004362"><ele>210.0</ele><time>2026-04-25T06:12:20Z</time></trkpt><trkpt lat="45.78915017267486" lon="9.418924537246234"><ele>210.5</ele><time>2026-04-25T06:12:21Z</time></trkpt><trkpt lat="45.78905498398507" lon="9.419025430541932"><ele>211.0</ele><time>2026-04-25T06:12:22Z</time></trkpt><trkpt lat="45.78896260799394" lon="9.41914260579978"><ele>211.5</ele><time>2026-04-25T06:12:23Z</time></trkpt><trkpt lat="45.788868557822475" lon="9.41926638590037"><ele>212.0</ele><time>2026-04-25T06:12:24Z</time></trkpt><trkpt lat="45.78877655822068" lon="9.419381048922794"><ele>212.0</ele><time>2026-04-25T06:12:25Z</time></trkpt><trkpt lat="45.78868614722601" lon="9.419494451822414"><ele>212.0</ele><time>2026-04-25T06:12:26Z</time></trkpt><trkpt lat="45.78858625486056" lon="9.419598337691703"><ele>212.0</ele><time>2026-04-25T06:12:27Z</time></trkpt><trkpt lat="45.78848260381526" lon="9.419700893410802"><ele>212.0</ele><time>2026-04-25T06:12:28Z</time></trkpt><trkpt lat="45.78837394275918" lon="9.419798308035544"><ele>212.5</ele><time>2026-04-25T06:12:29Z</time></trkpt><trkpt lat="45.78826323239903" lon="9.419892743912149"><ele>213.0</ele><time>2026-04-25T06:12:30Z</time></trkpt><trkpt lat="45.788151935062075" lon="9.419989438371354"><ele>213.5</ele><time>2026-04-25T06:12:31Z</time></trkpt><trkpt lat="45.788040892394804" lon="9.420089539120575"><ele>214.0</ele><time>2026-04-25T06:12:32Z</time></trkpt><trkpt lat="45.78792791365659" lon="9.420189939590358"><ele>214.0</ele><time>2026-04-25T06:12:33Z</time></trkpt><trkpt lat="45.78781468295071" lon="9.420289353123477"><ele>214.0</ele><time>2026-04-25T06:12:34Z</time></trkpt><trkpt lat="45.78769830074109" lon="9.420387872986225"><ele>214.0</ele><time>2026-04-25T06:12:35Z</time></trkpt><trkpt lat="45.78758157015323" lon="9.420486136213807"><ele>214.0</ele><time>2026-04-25T06:12:36Z</time></trkpt><trkpt lat="45.7874660287419" lon="9.420583119368072"><ele>214.0</ele><time>2026-04-25T06:12:37Z</time></trkpt><trkpt lat="45.7873469507601" lon="9.420679784666074"><ele>214.0</ele><time>2026-04-25T06:12:38Z</time></trkpt><trkpt lat="45.78722707916165" lon="9.420776959349618"><ele>214.0</ele><time>2026-04-25T06:12:39Z</time></trkpt><trkpt lat="45.787106617276145" lon="9.420871808445344"><ele>214.0</ele><time>2026-04-25T06:12:40Z</time></trkpt><trkpt lat="45.786983599628726" lon="9.420966618825547"><ele>214.0</ele><time>2026-04-25T06:12:41Z</time></trkpt><trkpt lat="45.786862240265044" lon="9.42106173322988"><ele>214.0</ele><time>2026-04-25T06:12:42Z</time></trkpt><trkpt lat="45.786742059278275" lon="9.421161790174173"><ele>214.0</ele><time>2026-04-25T06:12:43Z</time></trkpt><trkpt lat="45.786619854428274" lon="9.4212623198239"><ele>214.0</ele><time>2026-04-25T06:12:44Z</time></trkpt><trkpt lat="45.786498239850324" lon="9.421360992244578"><ele>214.25</ele><time>2026-04-25T06:12:45.001Z</time></trkpt><trkpt lat="45.78637605494116" lon="9.421461317229962"><ele>214.5</ele><time>2026-04-25T06:12:46.001Z</time></trkpt><trkpt lat="45.786254483664564" lon="9.421562149773681"><ele>214.75</ele><time>2026-04-25T06:12:47.001Z</time></trkpt><trkpt lat="45.78613245818508" lon="9.421664134701935"><ele>215.0</ele><time>2026-04-25T06:12:48.001Z</time></trkpt><trkpt lat="45.78600873002608" lon="9.421766231617548"><ele>215.5</ele><time>2026-04-25T06:12:49.001Z</time></trkpt><trkpt lat="45.78588692746186" lon="9.421868123977882"><ele>216.0</ele><time>2026-04-25T06:12:50.001Z</time></trkpt><trkpt lat="45.78576324578469" lon="9.421967405446722"><ele>216.5</ele><time>2026-04-25T06:12:51.001Z</time></trkpt><trkpt lat="45.785641023342365" lon="9.42206745648327"><ele>217.0</ele><time>2026-04-25T06:12:52.001Z</time></trkpt><trkpt lat="45.78551932515663" lon="9.422163968040413"><ele>217.0</ele><time>2026-04-25T06:12:53.001Z</time></trkpt><trkpt lat="45.785402311694355" lon="9.422261623965646"><ele>217.0</ele><time>2026-04-25T06:12:54.001Z</time></trkpt><trkpt lat="45.78529061043552" lon="9.422359921618895"><ele>217.0</ele><time>2026-04-25T06:12:55.001Z</time></trkpt><trkpt lat="45.78518179735969" lon="9.422453131717322"><ele>217.0</ele><time>2026-04-25T06:12:56.001Z</time></trkpt><trkpt lat="45.78507175676535" lon="9.422545782482988"><ele>217.8</ele><time>2026-04-25T06:12:57.001Z</time></trkpt><trkpt lat="45.78497238696784" lon="9.422629853345633"><ele>218.6</ele><time>2026-04-25T06:12:58.001Z</time></trkpt><trkpt lat="45.784880050644" lon="9.422697142698192"><ele>219.40000000000003</ele><time>2026-04-25T06:12:59.001Z</time></trkpt><trkpt lat="45.78479421644446" lon="9.422734229441915"><ele>220.20000000000002</ele><time>2026-04-25T06:13:00.001Z</time></trkpt><trkpt lat="45.78471289477269" lon="9.422749495772752"><ele>221.0</ele><time>2026-04-25T06:13:01.001Z</time></trkpt><trkpt lat="45.784642950920116" lon="9.422725783834938"><ele>221.00000000000003</ele><time>2026-04-25T06:13:02.001Z</time></trkpt><trkpt lat="45.78457346017643" lon="9.422719373247626"><ele>221.0</ele><time>2026-04-25T06:13:03.001Z</time></trkpt><trkpt lat="45.7845137698642" lon="9.422784451330275"><ele>221.0</ele><time>2026-04-25T06:13:04.001Z</time></trkpt><trkpt lat="45.78447150016814" lon="9.422902033251773"><ele>221.0</ele><time>2026-04-25T06:13:05.001Z</time></trkpt><trkpt lat="45.78443343394418" lon="9.423040068539104"><ele>221.00000000000003</ele><time>2026-04-25T06:13:06.001Z</time></trkpt><trkpt lat="45.78436455153172" lon="9.423140958693804"><ele>221.0</ele><time>2026-04-25T06:13:07.001Z</time></trkpt><trkpt lat="45.78427116326851" lon="9.423218109878016"><ele>220.75</ele><time>2026-04-25T06:13:08Z</time></trkpt><trkpt lat="45.784171300539846" lon="9.423288225334305"><ele>220.5</ele><time>2026-04-25T06:13:09Z</time></trkpt><trkpt lat="45.784066396433055" lon="9.423362467339523"><ele>220.25</ele><time>2026-04-25T06:13:10Z</time></trkpt><trkpt lat="45.783957146461425" lon="9.423439805642284"><ele>220.0</ele><time>2026-04-25T06:13:11Z</time></trkpt><trkpt lat="45.78384193119605" lon="9.423515989964077"><ele>220.0</ele><time>2026-04-25T06:13:12Z</time></trkpt><trkpt lat="45.783723173502175" lon="9.423585314243018"><ele>220.0</ele><time>2026-04-25T06:13:13Z</time></trkpt><trkpt lat="45.78359718434096" lon="9.42365329947912"><ele>220.0</ele><time>2026-04-25T06:13:14Z</time></trkpt><trkpt lat="45.78346765753578" lon="9.423716260712817"><ele>220.0</ele><time>2026-04-25T06:13:15Z</time></trkpt><trkpt lat="45.78333218194107" lon="9.423771411961122"><ele>220.75</ele><time>2026-04-25T06:13:16Z</time></trkpt><trkpt lat="45.78319338696866" lon="9.423817767170156"><ele>221.5</ele><time>2026-04-25T06:13:17Z</time></trkpt><trkpt lat="45.78304893071867" lon="9.423855488642836"><ele>222.25</ele><time>2026-04-25T06:13:18Z</time></trkpt><trkpt lat="45.78290507699035" lon="9.423892325953956"><ele>223.0</ele><time>2026-04-25T06:13:19Z</time></trkpt><trkpt lat="45.782759869064044" lon="9.423933045719119"><ele>223.0</ele><time>2026-04-25T06:13:20Z</time></trkpt><trkpt lat="45.78261533566" lon="9.423971289431881"><ele>223.0</ele><time>2026-04-25T06:13:21Z</time></trkpt><trkpt lat="45.78247392183309" lon="9.42400961578187"><ele>223.0</ele><time>2026-04-25T06:13:22Z</time></trkpt><trkpt lat="45.782340917487915" lon="9.424042658510427"><ele>223.0</ele><time>2026-04-25T06:13:23Z</time></trkpt><trkpt lat="45.78221715571068" lon="9.424069132550834"><ele>223.0</ele><time>2026-04-25T06:13:24Z</time></trkpt><trkpt lat="45.78209930036771" lon="9.424079904733267"><ele>223.0</ele><time>2026-04-25T06:13:25Z</time></trkpt><trkpt lat="45.78198679123654" lon="9.424076016943948"><ele>223.0</ele><time>2026-04-25T06:13:26Z</time></trkpt><trkpt lat="45.781881354953136" lon="9.42407398972387"><ele>223.0</ele><time>2026-04-25T06:13:27Z</time></trkpt><trkpt lat="45.781776604859346" lon="9.424122094665123"><ele>223.0</ele><time>2026-04-25T06:13:28Z</time></trkpt><trkpt lat="45.78166626593295" lon="9.424183761111367"><ele>222.25</ele><time>2026-04-25T06:13:29Z</time></trkpt><trkpt lat="45.781544788068196" lon="9.424232251134674"><ele>221.5</ele><time>2026-04-25T06:13:30Z</time></trkpt><trkpt lat="45.78141552896893" lon="9.424274450866896"><ele>220.75</ele><time>2026-04-25T06:13:31Z</time></trkpt><trkpt lat="45.78128129333515" lon="9.424314843074145"><ele>220.0</ele><time>2026-04-25T06:13:32Z</time></trkpt><trkpt lat="45.78114097867405" lon="9.42435622848074"><ele>220.33333333333331</ele><time>2026-04-25T06:13:33Z</time></trkpt><trkpt lat="45.780996289805195" lon="9.424398062336534"><ele>220.66666666666669</ele><time>2026-04-25T06:13:34Z</time></trkpt><trkpt lat="45.78084826951002" lon="9.424438824291315"><ele>221.0</ele><time>2026-04-25T06:13:35Z</time></trkpt><trkpt lat="45.78069590295274" lon="9.424480307161605"><ele>221.0</ele><time>2026-04-25T06:13:36Z</time></trkpt><trkpt lat="45.78053864327675" lon="9.424523335417406"><ele>221.0</ele><time>2026-04-25T06:13:37Z</time></trkpt><trkpt lat="45.780375659540226" lon="9.42456693525865"><ele>221.0</ele><time>2026-04-25T06:13:38Z</time></trkpt><trkpt lat="45.780208941624004" lon="9.424608357978668"><ele>220.33333333333334</ele><time>2026-04-25T06:13:39Z</time></trkpt><trkpt lat="45.78004023581604" lon="9.42464912665212"><ele>219.66666666666669</ele><time>2026-04-25T06:13:40Z</time></trkpt><trkpt lat="45.779868355514076" lon="9.42469368072536"><ele>219.0</ele><time>2026-04-25T06:13:41Z</time></trkpt><trkpt lat="45.77969309953037" lon="9.424743008583604"><ele>219.0</ele><time>2026-04-25T06:13:42Z</time></trkpt><trkpt lat="45.77951575212795" lon="9.424790818337053"><ele>219.0</ele><time>2026-04-25T06:13:43Z</time></trkpt><trkpt lat="45.77933676768779" lon="9.424841995577161"><ele>219.0</ele><time>2026-04-25T06:13:44Z</time></trkpt><trkpt lat="45.77915802858795" lon="9.42489985391243"><ele>219.66666666666669</ele><time>2026-04-25T06:13:45Z</time></trkpt><trkpt lat="45.77897799228461" lon="9.42496683667559"><ele>220.33333333333334</ele><time>2026-04-25T06:13:46Z</time></trkpt><trkpt lat="45.778799222929614" lon="9.42504065928029"><ele>221.0</ele><time>2026-04-25T06:13:47Z</time></trkpt><trkpt lat="45.77862365499962" lon="9.425121197702914"><ele>223.66666666666669</ele><time>2026-04-25T06:13:48Z</time></trkpt><trkpt lat="45.778449710364626" lon="9.425200858558052"><ele>226.33333333333331</ele><time>2026-04-25T06:13:49Z</time></trkpt><trkpt lat="45.77827853567722" lon="9.425282510095272"><ele>229.0</ele><time>2026-04-25T06:13:50Z</time></trkpt><trkpt lat="45.778111125159526" lon="9.425361020722395"><ele>229.0</ele><time>2026-04-25T06:13:51Z</time></trkpt><trkpt lat="45.777942795838" lon="9.425439043655546"><ele>229.0</ele><time>2026-04-25T06:13:52Z</time></trkpt><trkpt lat="45.777777255836426" lon="9.425513677730589"><ele>229.0</ele><time>2026-04-25T06:13:53Z</time></trkpt><trkpt lat="45.77761590301926" lon="9.42559081961248"><ele>223.66666666666666</ele><time>2026-04-25T06:13:54Z</time></trkpt><trkpt lat="45.77745419460055" lon="9.425660549519915"><ele>218.33333333333331</ele><time>2026-04-25T06:13:55Z</time></trkpt><trkpt lat="45.77729354243248" lon="9.425720450296202"><ele>213.0</ele><time>2026-04-25T06:13:56Z</time></trkpt><trkpt lat="45.77713150883346" lon="9.425768919533585"><ele>213.0</ele><time>2026-04-25T06:13:57Z</time></trkpt><trkpt lat="45.776970337128276" lon="9.425796011515484"><ele>213.0</ele><time>2026-04-25T06:13:58Z</time></trkpt><trkpt lat="45.77681149186237" lon="9.42580536629367"><ele>213.0</ele><time>2026-04-25T06:13:59Z</time></trkpt><trkpt lat="45.77666019414978" lon="9.425803082662814"><ele>212.5</ele><time>2026-04-25T06:14:00Z</time></trkpt><trkpt lat="45.77651905275576" lon="9.425792074734012"><ele>212.0</ele><time>2026-04-25T06:14:01Z</time></trkpt><trkpt lat="45.77638708266031" lon="9.42576939197503"><ele>211.5</ele><time>2026-04-25T06:14:02Z</time></trkpt><trkpt lat="45.77626400218333" lon="9.425727821537913"><ele>211.0</ele><time>2026-04-25T06:14:03Z</time></trkpt><trkpt lat="45.776147925878355" lon="9.425656892140383"><ele>211.0</ele><time>2026-04-25T06:14:04Z</time></trkpt><trkpt lat="45.77603322640707" lon="9.425562376677371"><ele>211.0</ele><time>2026-04-25T06:14:05Z</time></trkpt><trkpt lat="45.77591706729302" lon="9.425471338041788"><ele>211.0</ele><time>2026-04-25T06:14:06Z</time></trkpt><trkpt lat="45.77577741961853" lon="9.425435223542557"><ele>211.0</ele><time>2026-04-25T06:14:07Z</time></trkpt><trkpt lat="45.7756223824382" lon="9.42541979988222"><ele>211.0</ele><time>2026-04-25T06:14:08Z</time></trkpt><trkpt lat="45.775457750612645" lon="9.425386174476653"><ele>211.0</ele><time>2026-04-25T06:14:09Z</time></trkpt><trkpt lat="45.77528589965912" lon="9.425342788055987"><ele>211.0</ele><time>2026-04-25T06:14:10Z</time></trkpt><trkpt lat="45.77510955869313" lon="9.425311454173094"><ele>210.33333333333331</ele><time>2026-04-25T06:14:11Z</time></trkpt><trkpt lat="45.774926095036456" lon="9.425286443581482"><ele>209.66666666666669</ele><time>2026-04-25T06:14:12Z</time></trkpt><trkpt lat="45.77473764331858" lon="9.425269634028428"><ele>209.0</ele><time>2026-04-25T06:14:13Z</time></trkpt><trkpt lat="45.77454375551541" lon="9.425250320883405"><ele>208.66666666666669</ele><time>2026-04-25T06:14:14Z</time></trkpt><trkpt lat="45.77434635265811" lon="9.425229126791368"><ele>208.33333333333331</ele><time>2026-04-25T06:14:15Z</time></trkpt><trkpt lat="45.774150601185845" lon="9.425210357536443"><ele>208.0</ele><time>2026-04-25T06:14:16Z</time></trkpt><trkpt lat="45.77395254108699" lon="9.425194946966974"><ele>208.0</ele><time>2026-04-25T06:14:17Z</time></trkpt><trkpt lat="45.773752990604564" lon="9.425177177874351"><ele>208.0</ele><time>2026-04-25T06:14:18Z</time></trkpt><trkpt lat="45.773557546836145" lon="9.425162007957349"><ele>208.0</ele><time>2026-04-25T06:14:19Z</time></trkpt><trkpt lat="45.77335930025313" lon="9.425147992822232"><ele>207.0</ele><time>2026-04-25T06:14:20Z</time></trkpt><trkpt lat="45.77316425961475" lon="9.425134294600252"><ele>206.0</ele><time>2026-04-25T06:14:21Z</time></trkpt><trkpt lat="45.77296894895009" lon="9.425119737206598"><ele>205.0</ele><time>2026-04-25T06:14:22Z</time></trkpt><trkpt lat="45.77277453728553" lon="9.425105169287328"><ele>205.0</ele><time>2026-04-25T06:14:23Z</time></trkpt><trkpt lat="45.77257959541629" lon="9.425091658223405"><ele>205.0</ele><time>2026-04-25T06:14:24Z</time></trkpt><trkpt lat="45.77238563391375" lon="9.425078984063743"><ele>205.0</ele><time>2026-04-25T06:14:25Z</time></trkpt><trkpt lat="45.77219265136511" lon="9.425063077262722"><ele>205.0</ele><time>2026-04-25T06:14:26Z</time></trkpt><trkpt lat="45.77199919729428" lon="9.425046277169105"><ele>205.0</ele><time>2026-04-25T06:14:27Z</time></trkpt><trkpt lat="45.771806372195485" lon="9.425032217229498"><ele>205.0</ele><time>2026-04-25T06:14:28Z</time></trkpt><trkpt lat="45.77161517298486" lon="9.425020433842294"><ele>204.0</ele><time>2026-04-25T06:14:29Z</time></trkpt><trkpt lat="45.77142486348921" lon="9.425006744238026"><ele>203.0</ele><time>2026-04-25T06:14:30Z</time></trkpt><trkpt lat="45.77123696607299" lon="9.424990879645792"><ele>202.0</ele><time>2026-04-25T06:14:31Z</time></trkpt><trkpt lat="45.7710490500591" lon="9.424976638514078"><ele>201.33333333333331</ele><time>2026-04-25T06:14:32Z</time></trkpt><trkpt lat="45.77086200605125" lon="9.424962161883014"><ele>200.66666666666669</ele><time>2026-04-25T06:14:33Z</time></trkpt><trkpt lat="45.77067760888002" lon="9.424952508087959"><ele>200.0</ele><time>2026-04-25T06:14:34Z</time></trkpt><trkpt lat="45.770492909916584" lon="9.424943274148042"><ele>200.0</ele><time>2026-04-25T06:14:35Z</time></trkpt><trkpt lat="45.770307721733566" lon="9.42492671353241"><ele>200.0</ele><time>2026-04-25T06:14:35.999Z</time></trkpt><trkpt lat="45.77012700253796" lon="9.424907311227605"><ele>200.0</ele><time>2026-04-25T06:14:36.999Z</time></trkpt><trkpt lat="45.76994522731105" lon="9.424892878082485"><ele>201.0</ele><time>2026-04-25T06:14:37.999Z</time></trkpt><trkpt lat="45.76976408371296" lon="9.424876542785322"><ele>202.0</ele><time>2026-04-25T06:14:38.999Z</time></trkpt><trkpt lat="45.76958451557221" lon="9.424859699327847"><ele>203.0</ele><time>2026-04-25T06:14:39.999Z</time></trkpt><trkpt lat="45.769406191823506" lon="9.42484859670992"><ele>202.66666666666669</ele><time>2026-04-25T06:14:40.999Z</time></trkpt><trkpt lat="45.76922540923342" lon="9.424840854175534"><ele>202.33333333333331</ele><time>2026-04-25T06:14:41.999Z</time></trkpt><trkpt lat="45.769046513335304" lon="9.424824305289953"><ele>202.0</ele><time>2026-04-25T06:14:42.999Z</time></trkpt><trkpt lat="45.76886517764672" lon="9.424806805604597"><ele>202.0</ele><time>2026-04-25T06:14:43.999Z</time></trkpt><trkpt lat="45.76868585004603" lon="9.424794195111158"><ele>202.0</ele><time>2026-04-25T06:14:44.999Z</time></trkpt><trkpt lat="45.768507873313276" lon="9.424777203175012"><ele>202.0</ele><time>2026-04-25T06:14:45.999Z</time></trkpt><trkpt lat="45.76832893198893" lon="9.424761905325617"><ele>201.66666666666666</ele><time>2026-04-25T06:14:46.999Z</time></trkpt><trkpt lat="45.7681478701926" lon="9.424748404430876"><ele>201.33333333333331</ele><time>2026-04-25T06:14:47.999Z</time></trkpt><trkpt lat="45.76796545907435" lon="9.424738497717572"><ele>201.0</ele><time>2026-04-25T06:14:48.999Z</time></trkpt><trkpt lat="45.767781104075276" lon="9.424731297236763"><ele>201.66666666666669</ele><time>2026-04-25T06:14:50Z</time></trkpt><trkpt lat="45.767597775489925" lon="9.424730376970158"><ele>202.33333333333334</ele><time>2026-04-25T06:14:51Z</time></trkpt><trkpt lat="45.76741414058386" lon="9.424740639384973"><ele>203.0</ele><time>2026-04-25T06:14:52Z</time></trkpt><trkpt lat="45.76723261993435" lon="9.424768152671993"><ele>203.0</ele><time>2026-04-25T06:14:53Z</time></trkpt><trkpt lat="45.767053000238135" lon="9.424811650556727"><ele>203.0</ele><time>2026-04-25T06:14:54Z</time></trkpt><trkpt lat="45.76687350904608" lon="9.424866955711128"><ele>203.0</ele><time>2026-04-25T06:14:55Z</time></trkpt><trkpt lat="45.76669573283805" lon="9.424928658126074"><ele>204.0</ele><time>2026-04-25T06:14:56Z</time></trkpt><trkpt lat="45.76652071951083" lon="9.42499795952303"><ele>205.0</ele><time>2026-04-25T06:14:57Z</time></trkpt><trkpt lat="45.76634541718442" lon="9.425070423914299"><ele>206.0</ele><time>2026-04-25T06:14:58Z</time></trkpt><trkpt lat="45.76617090809178" lon="9.425142925675047"><ele>208.66666666666669</ele><time>2026-04-25T06:14:59Z</time></trkpt><trkpt lat="45.76599805327615" lon="9.425216241698395"><ele>211.33333333333331</ele><time>2026-04-25T06:15:00Z</time></trkpt><trkpt lat="45.76582450230411" lon="9.425291674336416"><ele>214.0</ele><time>2026-04-25T06:15:01Z</time></trkpt><trkpt lat="45.76565239728303" lon="9.425358191676768"><ele>214.0</ele><time>2026-04-25T06:15:02Z</time></trkpt><trkpt lat="45.76547811305611" lon="9.425432307001891"><ele>214.0</ele><time>2026-04-25T06:15:03Z</time></trkpt><trkpt lat="45.76530424237436" lon="9.42549903097566"><ele>214.0</ele><time>2026-04-25T06:15:04Z</time></trkpt><trkpt lat="45.76513081050793" lon="9.425569040127456"><ele>210.33333333333331</ele><time>2026-04-25T06:15:05Z</time></trkpt><trkpt lat="45.76495731370574" lon="9.425639029414254"><ele>206.66666666666669</ele><time>2026-04-25T06:15:06Z</time></trkpt><trkpt lat="45.76478425991001" lon="9.425708583002944"><ele>203.0</ele><time>2026-04-25T06:15:07Z</time></trkpt><trkpt lat="45.764613183199224" lon="9.425779684272836"><ele>203.0</ele><time>2026-04-25T06:15:08Z</time></trkpt><trkpt lat="45.764440195884504" lon="9.425848262607536"><ele>203.0</ele><time>2026-04-25T06:15:09Z</time></trkpt><trkpt lat="45.76426986177711" lon="9.425922939210635"><ele>203.0</ele><time>2026-04-25T06:15:10Z</time></trkpt><trkpt lat="45.764097823551005" lon="9.42599442418532"><ele>206.33333333333334</ele><time>2026-04-25T06:15:11Z</time></trkpt><trkpt lat="45.7639259519291" lon="9.426064204365813"><ele>209.66666666666669</ele><time>2026-04-25T06:15:12Z</time></trkpt><trkpt lat="45.76375459439341" lon="9.426133431575977"><ele>213.0</ele><time>2026-04-25T06:15:13Z</time></trkpt><trkpt lat="45.76358295175077" lon="9.426200189635928"><ele>210.33333333333331</ele><time>2026-04-25T06:15:14Z</time></trkpt><trkpt lat="45.76340943029903" lon="9.426266901581355"><ele>207.66666666666666</ele><time>2026-04-25T06:15:15Z</time></trkpt><trkpt lat="45.763234703481594" lon="9.426330092121558"><ele>205.0</ele><time>2026-04-25T06:15:16Z</time></trkpt><trkpt lat="45.76306124162782" lon="9.426385346266562"><ele>205.0</ele><time>2026-04-25T06:15:17Z</time></trkpt><trkpt lat="45.76288618860906" lon="9.426427992044266"><ele>205.0</ele><time>2026-04-25T06:15:18Z</time></trkpt><trkpt lat="45.7627098847714" lon="9.426467337327296"><ele>205.0</ele><time>2026-04-25T06:15:19Z</time></trkpt><trkpt lat="45.76253207466034" lon="9.426494964142462"><ele>208.33333333333331</ele><time>2026-04-25T06:15:20Z</time></trkpt><trkpt lat="45.76235562995349" lon="9.42651610445637"><ele>211.66666666666669</ele><time>2026-04-25T06:15:21Z</time></trkpt><trkpt lat="45.762179170392045" lon="9.426538106101825"><ele>215.0</ele><time>2026-04-25T06:15:22Z</time></trkpt><trkpt lat="45.762002459840076" lon="9.426558807122776"><ele>213.66666666666669</ele><time>2026-04-25T06:15:23Z</time></trkpt><trkpt lat="45.761824767103356" lon="9.426573844684322"><ele>212.33333333333331</ele><time>2026-04-25T06:15:24Z</time></trkpt><trkpt lat="45.761644081778094" lon="9.426584024293618"><ele>211.0</ele><time>2026-04-25T06:15:25Z</time></trkpt><trkpt lat="45.761460460408" lon="9.42660185743234"><ele>211.0</ele><time>2026-04-25T06:15:26Z</time></trkpt><trkpt lat="45.7612737970055" lon="9.426613192377346"><ele>211.0</ele><time>2026-04-25T06:15:27Z</time></trkpt><trkpt lat="45.76108784633137" lon="9.426629511315296"><ele>211.0</ele><time>2026-04-25T06:15:28Z</time></trkpt><trkpt lat="45.76090166666251" lon="9.426643273169464"><ele>210.66666666666666</ele><time>2026-04-25T06:15:29Z</time></trkpt><trkpt lat="45.7607122319627" lon="9.42665850726312"><ele>210.33333333333331</ele><time>2026-04-25T06:15:30Z</time></trkpt><trkpt lat="45.76052185878243" lon="9.426675164225953"><ele>210.0</ele><time>2026-04-25T06:15:31Z</time></trkpt><trkpt lat="45.76033178219189" lon="9.426692777434392"><ele>211.33333333333331</ele><time>2026-04-25T06:15:32Z</time></trkpt><trkpt lat="45.76014215556008" lon="9.426707336158172"><ele>212.66666666666666</ele><time>2026-04-25T06:15:33Z</time></trkpt><trkpt lat="45.75995081543982" lon="9.426719624687669"><ele>214.0</ele><time>2026-04-25T06:15:34Z</time></trkpt><trkpt lat="45.759760860486665" lon="9.426734060272416"><ele>214.0</ele><time>2026-04-25T06:15:35Z</time></trkpt><trkpt lat="45.759569119054724" lon="9.426751000221243"><ele>214.0</ele><time>2026-04-25T06:15:36Z</time></trkpt><trkpt lat="45.75937713159461" lon="9.426768303263549"><ele>214.0</ele><time>2026-04-25T06:15:37Z</time></trkpt><trkpt lat="45.75918605888435" lon="9.426780814148433"><ele>216.66666666666666</ele><time>2026-04-25T06:15:38Z</time></trkpt><trkpt lat="45.75899622818789" lon="9.426784144018713"><ele>219.33333333333331</ele><time>2026-04-25T06:15:39Z</time></trkpt><trkpt lat="45.75880437445924" lon="9.426782217542325"><ele>222.0</ele><time>2026-04-25T06:15:40Z</time></trkpt><trkpt lat="45.758616313298496" lon="9.426777022760286"><ele>218.66666666666669</ele><time>2026-04-25T06:15:41Z</time></trkpt><trkpt lat="45.758429533164914" lon="9.426770827629914"><ele>215.33333333333334</ele><time>2026-04-25T06:15:42Z</time></trkpt><trkpt lat="45.758246243757384" lon="9.426765337061804"><ele>212.0</ele><time>2026-04-25T06:15:43Z</time></trkpt><trkpt lat="45.75806304488753" lon="9.426761779583916"><ele>212.0</ele><time>2026-04-25T06:15:44Z</time></trkpt><trkpt lat="45.75788035670695" lon="9.426755498690621"><ele>212.0</ele><time>2026-04-25T06:15:45Z</time></trkpt><trkpt lat="45.75769541672709" lon="9.426749710666696"><ele>212.0</ele><time>2026-04-25T06:15:46Z</time></trkpt><trkpt lat="45.757513310402864" lon="9.426743724226384"><ele>212.0</ele><time>2026-04-25T06:15:47Z</time></trkpt><trkpt lat="45.75733287594669" lon="9.426736486269157"><ele>212.0</ele><time>2026-04-25T06:15:48Z</time></trkpt><trkpt lat="45.75715057438585" lon="9.426728308391722"><ele>212.0</ele><time>2026-04-25T06:15:49Z</time></trkpt><trkpt lat="45.75697083280547" lon="9.426720899854498"><ele>214.0</ele><time>2026-04-25T06:15:50Z</time></trkpt><trkpt lat="45.75679337291197" lon="9.426712814115584"><ele>216.0</ele><time>2026-04-25T06:15:51Z</time></trkpt><trkpt lat="45.7566239538657" lon="9.426706903286657"><ele>218.0</ele><time>2026-04-25T06:15:52Z</time></trkpt><trkpt lat="45.75646711329397" lon="9.426709969731533"><ele>218.0</ele><time>2026-04-25T06:15:53Z</time></trkpt><trkpt lat="45.756320220393775" lon="9.426718319973348"><ele>218.0</ele><time>2026-04-25T06:15:54Z</time></trkpt><trkpt lat="45.756187198560866" lon="9.42672117590945"><ele>218.0</ele><time>2026-04-25T06:15:55Z</time></trkpt><trkpt lat="45.75607395074054" lon="9.426710051302939"><ele>218.0</ele><time>2026-04-25T06:15:56Z</time></trkpt><trkpt lat="45.75596771256035" lon="9.426687460311197"><ele>218.0</ele><time>2026-04-25T06:15:57Z</time></trkpt><trkpt lat="45.7558648800215" lon="9.426674870865101"><ele>218.0</ele><time>2026-04-25T06:15:58Z</time></trkpt><trkpt lat="45.75577909929733" lon="9.426674472681576"><ele>218.0</ele><time>2026-04-25T06:15:59Z</time></trkpt><trkpt lat="45.75565395448508" lon="9.426678130019287"><ele>218.0</ele><time>2026-04-25T06:16:01Z</time></trkpt><trkpt lat="45.7555831370297" lon="9.426669523603081"><ele>218.0</ele><time>2026-04-25T06:16:02Z</time></trkpt><trkpt lat="45.75549746113412" lon="9.426665575701183"><ele>218.0</ele><time>2026-04-25T06:16:03Z</time></trkpt><trkpt lat="45.75540530801142" lon="9.426657292769232"><ele>218.0</ele><time>2026-04-25T06:16:04Z</time></trkpt><trkpt lat="45.75530798047478" lon="9.426651177546018"><ele>218.0</ele><time>2026-04-25T06:16:05Z</time></trkpt><trkpt lat="45.75521152238439" lon="9.426646464786494"><ele>218.0</ele><time>2026-04-25T06:16:06Z</time></trkpt><trkpt lat="45.75512103292074" lon="9.426637281887404"><ele>218.0</ele><time>2026-04-25T06:16:07Z</time></trkpt><trkpt lat="45.755038976095065" lon="9.426631254872474"><ele>217.83333333333334</ele><time>2026-04-25T06:16:08Z</time></trkpt><trkpt lat="45.754968109480615" lon="9.426644483727744"><ele>217.66666666666669</ele><time>2026-04-25T06:16:09Z</time></trkpt><trkpt lat="45.754915370409904" lon="9.426708758692007"><ele>217.5</ele><time>2026-04-25T06:16:10Z</time></trkpt><trkpt lat="45.75487972399216" lon="9.42682423891191"><ele>217.33333333333331</ele><time>2026-04-25T06:16:11Z</time></trkpt><trkpt lat="45.754846566237084" lon="9.426964710777058"><ele>217.16666666666666</ele><time>2026-04-25T06:16:12Z</time></trkpt><trkpt lat="45.75479906259653" lon="9.427117076958405"><ele>217.0</ele><time>2026-04-25T06:16:13Z</time></trkpt><trkpt lat="45.75473977081623" lon="9.427279616010352"><ele>217.0</ele><time>2026-04-25T06:16:14Z</time></trkpt><trkpt lat="45.754673751705056" lon="9.427453214215785"><ele>217.0</ele><time>2026-04-25T06:16:15Z</time></trkpt><trkpt lat="45.75460183199516" lon="9.427637940905703"><ele>217.0</ele><time>2026-04-25T06:16:16Z</time></trkpt><trkpt lat="45.754529254242385" lon="9.427824563659078"><ele>217.0</ele><time>2026-04-25T06:16:17Z</time></trkpt><trkpt lat="45.754455272313834" lon="9.428021194028805"><ele>215.66666666666666</ele><time>2026-04-25T06:16:18Z</time></trkpt><trkpt lat="45.75437980916874" lon="9.428222329431117"><ele>214.33333333333331</ele><time>2026-04-25T06:16:19Z</time></trkpt><trkpt lat="45.754299176796614" lon="9.428431961107094"><ele>213.0</ele><time>2026-04-25T06:16:20Z</time></trkpt><trkpt lat="45.75421418847472" lon="9.42863926871727"><ele>211.66666666666669</ele><time>2026-04-25T06:16:21Z</time></trkpt><trkpt lat="45.754122205506185" lon="9.428844472134408"><ele>210.33333333333334</ele><time>2026-04-25T06:16:22Z</time></trkpt><trkpt lat="45.754031348905556" lon="9.429041295169489"><ele>209.0</ele><time>2026-04-25T06:16:23Z</time></trkpt><trkpt lat="45.75394410066048" lon="9.429233570865605"><ele>209.0</ele><time>2026-04-25T06:16:24Z</time></trkpt><trkpt lat="45.753859068809156" lon="9.42942665541568"><ele>209.0</ele><time>2026-04-25T06:16:25Z</time></trkpt><trkpt lat="45.75373035826937" lon="9.429703128641039"><ele>209.0</ele><time>2026-04-25T06:16:26Z</time></trkpt><trkpt lat="45.753648176471685" lon="9.429936535069224"><ele>209.0</ele><time>2026-04-25T06:16:26.999Z</time></trkpt><trkpt lat="45.75357513372833" lon="9.43018255394324"><ele>209.0</ele><time>2026-04-25T06:16:27.999Z</time></trkpt><trkpt lat="45.75352568662967" lon="9.43044363018534"><ele>209.0</ele><time>2026-04-25T06:16:28.999Z</time></trkpt><trkpt lat="45.75348613005435" lon="9.430716654857719"><ele>208.0</ele><time>2026-04-25T06:16:29.999Z</time></trkpt><trkpt lat="45.753458897777875" lon="9.43099707182611"><ele>207.0</ele><time>2026-04-25T06:16:30.999Z</time></trkpt><trkpt lat="45.75343450829286" lon="9.431282970477756"><ele>206.0</ele><time>2026-04-25T06:16:31.999Z</time></trkpt><trkpt lat="45.75340267904092" lon="9.431563820807005"><ele>205.33333333333334</ele><time>2026-04-25T06:16:32.999Z</time></trkpt><trkpt lat="45.75336724220162" lon="9.431842743868037"><ele>204.66666666666669</ele><time>2026-04-25T06:16:33.999Z</time></trkpt><trkpt lat="45.75332989999827" lon="9.432128439727121"><ele>204.0</ele><time>2026-04-25T06:16:34.999Z</time></trkpt><trkpt lat="45.753282725744675" lon="9.432405982241217"><ele>203.66666666666669</ele><time>2026-04-25T06:16:35.999Z</time></trkpt><trkpt lat="45.75320711737293" lon="9.432667505375054"><ele>203.33333333333334</ele><time>2026-04-25T06:16:36.999Z</time></trkpt><trkpt lat="45.753127777599076" lon="9.432916067954144"><ele>203.0</ele><time>2026-04-25T06:16:37.999Z</time></trkpt><trkpt lat="45.75303870710486" lon="9.433151529777343"><ele>203.0</ele><time>2026-04-25T06:16:38.999Z</time></trkpt><trkpt lat="45.752956162157176" lon="9.433368010378551"><ele>203.0</ele><time>2026-04-25T06:16:39.999Z</time></trkpt><trkpt lat="45.752856591317396" lon="9.433519231083897"><ele>203.0</ele><time>2026-04-25T06:16:40.999Z</time></trkpt><trkpt lat="45.75275658875529" lon="9.433632707465543"><ele>203.0</ele><time>2026-04-25T06:16:41.999Z</time></trkpt><trkpt lat="45.75267733200643" lon="9.433756641310675"><ele>201.75</ele><time>2026-04-25T06:16:42.999Z</time></trkpt><trkpt lat="45.7526488928402" lon="9.433928824647019"><ele>200.5</ele><time>2026-04-25T06:16:43.999Z</time></trkpt><trkpt lat="45.75265997871463" lon="9.434139608014249"><ele>199.25</ele><time>2026-04-25T06:16:44.999Z</time></trkpt><trkpt lat="45.7526596425622" lon="9.434364977871061"><ele>198.0</ele><time>2026-04-25T06:16:45.999Z</time></trkpt><trkpt lat="45.75262461658875" lon="9.434603673029118"><ele>198.0</ele><time>2026-04-25T06:16:46.999Z</time></trkpt><trkpt lat="45.75259117774206" lon="9.434859336239068"><ele>198.0</ele><time>2026-04-25T06:16:47.999Z</time></trkpt><trkpt lat="45.75256670380104" lon="9.435118575851948"><ele>198.0</ele><time>2026-04-25T06:16:48.999Z</time></trkpt><trkpt lat="45.75256075271545" lon="9.435386020262973"><ele>198.66666666666669</ele><time>2026-04-25T06:16:49.999Z</time></trkpt><trkpt lat="45.752571875403156" lon="9.43566193978965"><ele>199.33333333333334</ele><time>2026-04-25T06:16:50.999Z</time></trkpt><trkpt lat="45.752591424130934" lon="9.435939193044868"><ele>200.0</ele><time>2026-04-25T06:16:51.999Z</time></trkpt><trkpt lat="45.752601047694576" lon="9.436219917746959"><ele>199.66666666666669</ele><time>2026-04-25T06:16:52.999Z</time></trkpt><trkpt lat="45.75258975123109" lon="9.436507766772866"><ele>199.33333333333331</ele><time>2026-04-25T06:16:53.999Z</time></trkpt><trkpt lat="45.75255634597412" lon="9.436794311212184"><ele>199.0</ele><time>2026-04-25T06:16:55Z</time></trkpt><trkpt lat="45.75251616091287" lon="9.437073535200723"><ele>199.0</ele><time>2026-04-25T06:16:56Z</time></trkpt><trkpt lat="45.752473246284666" lon="9.437360478015535"><ele>199.0</ele><time>2026-04-25T06:16:57Z</time></trkpt><trkpt lat="45.752433018244616" lon="9.437647212485391"><ele>199.0</ele><time>2026-04-25T06:16:58Z</time></trkpt><trkpt lat="45.752396688503346" lon="9.437934434726982"><ele>199.66666666666666</ele><time>2026-04-25T06:16:59Z</time></trkpt><trkpt lat="45.75236191067088" lon="9.438217170273507"><ele>200.33333333333331</ele><time>2026-04-25T06:17:00Z</time></trkpt><trkpt lat="45.75232767367397" lon="9.438493045608729"><ele>201.0</ele><time>2026-04-25T06:17:01Z</time></trkpt><trkpt lat="45.752254315653694" lon="9.438737083620847"><ele>201.33333333333331</ele><time>2026-04-25T06:17:02Z</time></trkpt><trkpt lat="45.75215623757119" lon="9.438936675211643"><ele>201.66666666666666</ele><time>2026-04-25T06:17:03Z</time></trkpt><trkpt lat="45.75202057377081" lon="9.439087584350684"><ele>202.0</ele><time>2026-04-25T06:17:04Z</time></trkpt><trkpt lat="45.75185401640108" lon="9.439174908602135"><ele>202.0</ele><time>2026-04-25T06:17:05Z</time></trkpt><trkpt lat="45.75167129615798" lon="9.439248946695267"><ele>202.0</ele><time>2026-04-25T06:17:06Z</time></trkpt><trkpt lat="45.75148547224565" lon="9.43933664933985"><ele>202.0</ele><time>2026-04-25T06:17:07Z</time></trkpt><trkpt lat="45.751291179406515" lon="9.439396605744161"><ele>202.0</ele><time>2026-04-25T06:17:08Z</time></trkpt><trkpt lat="45.75109821807466" lon="9.439470019091551"><ele>202.0</ele><time>2026-04-25T06:17:09Z</time></trkpt><trkpt lat="45.75090723086082" lon="9.43955177726943"><ele>202.0</ele><time>2026-04-25T06:17:10Z</time></trkpt><trkpt lat="45.7507138580065" lon="9.43962937636628"><ele>204.33333333333331</ele><time>2026-04-25T06:17:11Z</time></trkpt><trkpt lat="45.75051472287649" lon="9.439710053519349"><ele>206.66666666666669</ele><time>2026-04-25T06:17:12Z</time></trkpt><trkpt lat="45.750320233507296" lon="9.439788933004236"><ele>209.0</ele><time>2026-04-25T06:17:13Z</time></trkpt><trkpt lat="45.750125312390864" lon="9.439867483019862"><ele>209.33333333333334</ele><time>2026-04-25T06:17:14Z</time></trkpt><trkpt lat="45.74992992303161" lon="9.43994709449439"><ele>209.66666666666669</ele><time>2026-04-25T06:17:15Z</time></trkpt><trkpt lat="45.749737812591086" lon="9.440027030538664"><ele>210.0</ele><time>2026-04-25T06:17:16Z</time></trkpt><trkpt lat="45.749548115679254" lon="9.44010997060788"><ele>210.0</ele><time>2026-04-25T06:17:17Z</time></trkpt><trkpt lat="45.749361924006706" lon="9.440194706553113"><ele>210.0</ele><time>2026-04-25T06:17:18Z</time></trkpt><trkpt lat="45.74917794268112" lon="9.440276039565163"><ele>210.0</ele><time>2026-04-25T06:17:19Z</time></trkpt><trkpt lat="45.748993958336634" lon="9.440347265751683"><ele>210.0</ele><time>2026-04-25T06:17:20Z</time></trkpt><trkpt lat="45.748808286020996" lon="9.440406585124611"><ele>210.0</ele><time>2026-04-25T06:17:21Z</time></trkpt><trkpt lat="45.748623450757044" lon="9.440450345149712"><ele>210.0</ele><time>2026-04-25T06:17:22Z</time></trkpt><trkpt lat="45.74843218000785" lon="9.440481759322486"><ele>214.66666666666669</ele><time>2026-04-25T06:17:23Z</time></trkpt><trkpt lat="45.748243470018096" lon="9.440521947220224"><ele>219.33333333333334</ele><time>2026-04-25T06:17:24Z</time></trkpt><trkpt lat="45.748049717936894" lon="9.440585679824506"><ele>224.0</ele><time>2026-04-25T06:17:25Z</time></trkpt><trkpt lat="45.74785771210615" lon="9.440675750497252"><ele>224.0</ele><time>2026-04-25T06:17:26Z</time></trkpt><trkpt lat="45.74766996505965" lon="9.440779698839611"><ele>224.0</ele><time>2026-04-25T06:17:27Z</time></trkpt><trkpt lat="45.74748644023147" lon="9.440891312658422"><ele>224.0</ele><time>2026-04-25T06:17:28Z</time></trkpt><trkpt lat="45.74730569981907" lon="9.441017049825344"><ele>224.0</ele><time>2026-04-25T06:17:29Z</time></trkpt><trkpt lat="45.74713182941313" lon="9.441158994767948"><ele>224.0</ele><time>2026-04-25T06:17:30Z</time></trkpt><trkpt lat="45.746965069781346" lon="9.44131920115258"><ele>224.0</ele><time>2026-04-25T06:17:31Z</time></trkpt><trkpt lat="45.746802303402184" lon="9.441490633215665"><ele>226.66666666666669</ele><time>2026-04-25T06:17:32Z</time></trkpt><trkpt lat="45.74664181146429" lon="9.4416641498675"><ele>229.33333333333331</ele><time>2026-04-25T06:17:33Z</time></trkpt><trkpt lat="45.74648650576696" lon="9.441837074616348"><ele>232.0</ele><time>2026-04-25T06:17:34Z</time></trkpt><trkpt lat="45.746331732276005" lon="9.442013731950523"><ele>231.66666666666666</ele><time>2026-04-25T06:17:35Z</time></trkpt><trkpt lat="45.746180254210024" lon="9.442189252062082"><ele>231.33333333333331</ele><time>2026-04-25T06:17:36Z</time></trkpt><trkpt lat="45.746025366285146" lon="9.442352792770318"><ele>231.0</ele><time>2026-04-25T06:17:37Z</time></trkpt><trkpt lat="45.74586626072102" lon="9.44250122807697"><ele>231.0</ele><time>2026-04-25T06:17:38Z</time></trkpt><trkpt lat="45.74570991203009" lon="9.442636975917527"><ele>231.0</ele><time>2026-04-25T06:17:39Z</time></trkpt><trkpt lat="45.7455400360189" lon="9.442734639581644"><ele>231.0</ele><time>2026-04-25T06:17:40Z</time></trkpt><trkpt lat="45.74536071474498" lon="9.442797019465308"><ele>230.66666666666669</ele><time>2026-04-25T06:17:41Z</time></trkpt><trkpt lat="45.745181742418914" lon="9.44284886988185"><ele>230.33333333333334</ele><time>2026-04-25T06:17:42Z</time></trkpt><trkpt lat="45.7450133845377" lon="9.442909268887888"><ele>230.0</ele><time>2026-04-25T06:17:43Z</time></trkpt><trkpt lat="45.744853290691275" lon="9.442964082499731"><ele>230.0</ele><time>2026-04-25T06:17:44Z</time></trkpt><trkpt lat="45.74469684165944" lon="9.442980758009227"><ele>230.0</ele><time>2026-04-25T06:17:45Z</time></trkpt><trkpt lat="45.74454608147668" lon="9.442949399603307"><ele>230.0</ele><time>2026-04-25T06:17:46Z</time></trkpt><trkpt lat="45.74440366899397" lon="9.442921679230686"><ele>229.25</ele><time>2026-04-25T06:17:47Z</time></trkpt><trkpt lat="45.744268792311416" lon="9.442938149256227"><ele>228.5</ele><time>2026-04-25T06:17:48Z</time></trkpt><trkpt lat="45.74415377079823" lon="9.443024774368112"><ele>227.75</ele><time>2026-04-25T06:17:49Z</time></trkpt><trkpt lat="45.74406024898947" lon="9.443143058552376"><ele>227.0</ele><time>2026-04-25T06:17:50Z</time></trkpt><trkpt lat="45.74398520712737" lon="9.443270669120738"><ele>225.83333333333334</ele><time>2026-04-25T06:17:51Z</time></trkpt><trkpt lat="45.743919583215764" lon="9.443385620415263"><ele>224.66666666666669</ele><time>2026-04-25T06:17:52Z</time></trkpt><trkpt lat="45.743862610403525" lon="9.443486595999799"><ele>223.5</ele><time>2026-04-25T06:17:53Z</time></trkpt><trkpt lat="45.74381034422388" lon="9.443562604995547"><ele>222.33333333333331</ele><time>2026-04-25T06:17:54Z</time></trkpt><trkpt lat="45.743726109577956" lon="9.44363745019607"><ele>221.16666666666666</ele><time>2026-04-25T06:17:56Z</time></trkpt><trkpt lat="45.74365833784858" lon="9.443655430428763"><ele>220.0</ele><time>2026-04-25T06:17:58Z</time></trkpt><trkpt lat="45.743551471783455" lon="9.443678287136015"><ele>219.25</ele><time>2026-04-25T06:18:00Z</time></trkpt><trkpt lat="45.74350152205701" lon="9.443865798314413"><ele>218.5</ele><time>2026-04-25T06:18:01Z</time></trkpt><trkpt lat="45.7434384421177" lon="9.443991313492107"><ele>217.75</ele><time>2026-04-25T06:18:02Z</time></trkpt><trkpt lat="45.74336113728588" lon="9.444135347690404"><ele>217.0</ele><time>2026-04-25T06:18:03Z</time></trkpt><trkpt lat="45.74327569354817" lon="9.444294992286592"><ele>217.0</ele><time>2026-04-25T06:18:04Z</time></trkpt><trkpt lat="45.74318014293735" lon="9.4444661330801"><ele>217.0</ele><time>2026-04-25T06:18:05Z</time></trkpt><trkpt lat="45.7430825067603" lon="9.44464267144614"><ele>217.0</ele><time>2026-04-25T06:18:06Z</time></trkpt><trkpt lat="45.742986216673096" lon="9.444818927717371"><ele>216.25</ele><time>2026-04-25T06:18:07Z</time></trkpt><trkpt lat="45.74289505048423" lon="9.44498333446118"><ele>215.5</ele><time>2026-04-25T06:18:08Z</time></trkpt><trkpt lat="45.74280808707417" lon="9.44513737268706"><ele>214.75</ele><time>2026-04-25T06:18:09Z</time></trkpt><trkpt lat="45.74272035931879" lon="9.445278795047322"><ele>214.0</ele><time>2026-04-25T06:18:10Z</time></trkpt><trkpt lat="45.742624965584625" lon="9.445399503901438"><ele>213.2</ele><time>2026-04-25T06:18:11Z</time></trkpt><trkpt lat="45.74252579912795" lon="9.445491537086623"><ele>212.39999999999998</ele><time>2026-04-25T06:18:12Z</time></trkpt><trkpt lat="45.74242783419403" lon="9.445553239546351"><ele>211.6</ele><time>2026-04-25T06:18:13Z</time></trkpt><trkpt lat="45.74233119631106" lon="9.445579172677416"><ele>210.8</ele><time>2026-04-25T06:18:14Z</time></trkpt><trkpt lat="45.74224051136676" lon="9.445569572239165"><ele>210.0</ele><time>2026-04-25T06:18:15Z</time></trkpt><trkpt lat="45.742157795714824" lon="9.445534485939291"><ele>210.0</ele><time>2026-04-25T06:18:16Z</time></trkpt><trkpt lat="45.74208648564954" lon="9.445505373049626"><ele>210.0</ele><time>2026-04-25T06:18:17Z</time></trkpt><trkpt lat="45.742012242693264" lon="9.445520846588293"><ele>210.0</ele><time>2026-04-25T06:18:18Z</time></trkpt><trkpt lat="45.74193339063737" lon="9.445576765278847"><ele>210.0</ele><time>2026-04-25T06:18:18.999Z</time></trkpt><trkpt lat="45.74185221965286" lon="9.445642813564731"><ele>210.0</ele><time>2026-04-25T06:18:19.999Z</time></trkpt><trkpt lat="45.741762362045954" lon="9.44568502342818"><ele>210.0</ele><time>2026-04-25T06:18:20.999Z</time></trkpt><trkpt lat="45.74166445982763" lon="9.445698786771002"><ele>209.4</ele><time>2026-04-25T06:18:21.999Z</time></trkpt><trkpt lat="45.74156152624941" lon="9.445710654825783"><ele>208.8</ele><time>2026-04-25T06:18:22.999Z</time></trkpt><trkpt lat="45.74145607188046" lon="9.445725120199695"><ele>208.2</ele><time>2026-04-25T06:18:23.999Z</time></trkpt><trkpt lat="45.741347232051666" lon="9.445742513302118"><ele>207.6</ele><time>2026-04-25T06:18:24.999Z</time></trkpt><trkpt lat="45.741234287115645" lon="9.44575841996817"><ele>207.0</ele><time>2026-04-25T06:18:25.999Z</time></trkpt><trkpt lat="45.741119837379955" lon="9.445780691378367"><ele>208.25</ele><time>2026-04-25T06:18:26.999Z</time></trkpt><trkpt lat="45.74100550768369" lon="9.445817644562272"><ele>209.5</ele><time>2026-04-25T06:18:27.999Z</time></trkpt><trkpt lat="45.74088732412153" lon="9.445869421932692"><ele>210.75</ele><time>2026-04-25T06:18:28.999Z</time></trkpt><trkpt lat="45.740773365835" lon="9.44593260466883"><ele>212.0</ele><time>2026-04-25T06:18:29.999Z</time></trkpt><trkpt lat="45.740656337637304" lon="9.44599769749028"><ele>212.0</ele><time>2026-04-25T06:18:30.999Z</time></trkpt><trkpt lat="45.74053662029951" lon="9.446064022224641"><ele>212.0</ele><time>2026-04-25T06:18:31.999Z</time></trkpt><trkpt lat="45.74041282960759" lon="9.446128334226493"><ele>212.0</ele><time>2026-04-25T06:18:32.999Z</time></trkpt><trkpt lat="45.74029059398377" lon="9.446193424504074"><ele>212.0</ele><time>2026-04-25T06:18:33.999Z</time></trkpt><trkpt lat="45.74017421492169" lon="9.446250419390642"><ele>211.0</ele><time>2026-04-25T06:18:34.999Z</time></trkpt><trkpt lat="45.74006538851641" lon="9.446308049225532"><ele>210.0</ele><time>2026-04-25T06:18:35.999Z</time></trkpt><trkpt lat="45.73996240896537" lon="9.446366697377671"><ele>209.0</ele><time>2026-04-25T06:18:36.999Z</time></trkpt><trkpt lat="45.7398614465562" lon="9.446436792293433"><ele>208.0</ele><time>2026-04-25T06:18:37.999Z</time></trkpt><trkpt lat="45.7397601931383" lon="9.446518838359577"><ele>208.0</ele><time>2026-04-25T06:18:38.999Z</time></trkpt><trkpt lat="45.73966660506166" lon="9.446622862370555"><ele>208.0</ele><time>2026-04-25T06:18:39.999Z</time></trkpt><trkpt lat="45.73958423403687" lon="9.446746859903946"><ele>208.0</ele><time>2026-04-25T06:18:40.999Z</time></trkpt><trkpt lat="45.739525027863706" lon="9.446875493412184"><ele>208.0</ele><time>2026-04-25T06:18:41.999Z</time></trkpt><trkpt lat="45.73947789285401" lon="9.447007781271651"><ele>208.0</ele><time>2026-04-25T06:18:42.999Z</time></trkpt><trkpt lat="45.7394425461973" lon="9.447140179545876"><ele>207.60000000000002</ele><time>2026-04-25T06:18:43.999Z</time></trkpt><trkpt lat="45.73941174666575" lon="9.44727496435089"><ele>207.20000000000002</ele><time>2026-04-25T06:18:44.999Z</time></trkpt><trkpt lat="45.73938693313588" lon="9.447417859526114"><ele>206.8</ele><time>2026-04-25T06:18:45.999Z</time></trkpt><trkpt lat="45.7393750138714" lon="9.447570119375602"><ele>206.4</ele><time>2026-04-25T06:18:46.999Z</time></trkpt><trkpt lat="45.7393785065081" lon="9.44773217740674"><ele>206.0</ele><time>2026-04-25T06:18:47.999Z</time></trkpt><trkpt lat="45.73937729292674" lon="9.447893650925419"><ele>203.0</ele><time>2026-04-25T06:18:48.999Z</time></trkpt><trkpt lat="45.73935940492326" lon="9.448062988070607"><ele>200.0</ele><time>2026-04-25T06:18:49.999Z</time></trkpt><trkpt lat="45.73934201931139" lon="9.448236319779031"><ele>197.0</ele><time>2026-04-25T06:18:50.999Z</time></trkpt><trkpt lat="45.73933105745351" lon="9.448404129140185"><ele>194.0</ele><time>2026-04-25T06:18:51.999Z</time></trkpt><trkpt lat="45.73931567970289" lon="9.448583504956948"><ele>194.0</ele><time>2026-04-25T06:18:52.999Z</time></trkpt><trkpt lat="45.73930384173413" lon="9.448755551316669"><ele>194.0</ele><time>2026-04-25T06:18:53.999Z</time></trkpt><trkpt lat="45.73929207795594" lon="9.448914497821612"><ele>194.0</ele><time>2026-04-25T06:18:54.999Z</time></trkpt><trkpt lat="45.73928495607949" lon="9.44905666548676"><ele>194.0</ele><time>2026-04-25T06:18:55.999Z</time></trkpt><trkpt lat="45.73927272813464" lon="9.449209900863012"><ele>194.0</ele><time>2026-04-25T06:18:56.999Z</time></trkpt><trkpt lat="45.73926049634315" lon="9.449361131715726"><ele>194.39999999999998</ele><time>2026-04-25T06:18:57.999Z</time></trkpt><trkpt lat="45.739245997863016" lon="9.449506843576597"><ele>194.8</ele><time>2026-04-25T06:18:58.999Z</time></trkpt><trkpt lat="45.73924301846989" lon="9.44966396702572"><ele>195.2</ele><time>2026-04-25T06:18:59.999Z</time></trkpt><trkpt lat="45.73924055238729" lon="9.449809859307582"><ele>195.60000000000002</ele><time>2026-04-25T06:19:01Z</time></trkpt><trkpt lat="45.739242412178285" lon="9.449944446870413"><ele>196.0</ele><time>2026-04-25T06:19:02Z</time></trkpt><trkpt lat="45.739246176182014" lon="9.450065486190642"><ele>196.49999999999997</ele><time>2026-04-25T06:19:03Z</time></trkpt><trkpt lat="45.73924590151774" lon="9.450177468372877"><ele>197.0</ele><time>2026-04-25T06:19:04Z</time></trkpt><trkpt lat="45.73923313787344" lon="9.45028170926486"><ele>197.5</ele><time>2026-04-25T06:19:05Z</time></trkpt><trkpt lat="45.739203052061605" lon="9.450383167074657"><ele>198.0</ele><time>2026-04-25T06:19:06Z</time></trkpt><trkpt lat="45.73917097840172" lon="9.45049409018903"><ele>198.49999999999997</ele><time>2026-04-25T06:19:07Z</time></trkpt><trkpt lat="45.739167712524" lon="9.45061271782859"><ele>199.0</ele><time>2026-04-25T06:19:08Z</time></trkpt><trkpt lat="45.739213919959845" lon="9.450720922959931"><ele>199.0</ele><time>2026-04-25T06:19:09Z</time></trkpt><trkpt lat="45.73930469474914" lon="9.450779727418082"><ele>199.0</ele><time>2026-04-25T06:19:10Z</time></trkpt><trkpt lat="45.739410215460616" lon="9.450811925268972"><ele>199.0</ele><time>2026-04-25T06:19:11Z</time></trkpt><trkpt lat="45.739509806938464" lon="9.450897467383598"><ele>199.0</ele><time>2026-04-25T06:19:12Z</time></trkpt><trkpt lat="45.73961274397883" lon="9.451026597115858"><ele>199.0</ele><time>2026-04-25T06:19:13Z</time></trkpt><trkpt lat="45.7397176489101" lon="9.451162046140404"><ele>199.0</ele><time>2026-04-25T06:19:14Z</time></trkpt><trkpt lat="45.739829388477965" lon="9.451293277979898"><ele>199.0</ele><time>2026-04-25T06:19:15Z</time></trkpt><trkpt lat="45.739947615804944" lon="9.45142493443762"><ele>199.0</ele><time>2026-04-25T06:19:16Z</time></trkpt><trkpt lat="45.74006931919229" lon="9.451563725030814"><ele>199.0</ele><time>2026-04-25T06:19:17Z</time></trkpt><trkpt lat="45.740195190163796" lon="9.45170842406452"><ele>199.0</ele><time>2026-04-25T06:19:18Z</time></trkpt><trkpt lat="45.74032534781816" lon="9.451857401120156"><ele>199.0</ele><time>2026-04-25T06:19:19Z</time></trkpt><trkpt lat="45.740462299509225" lon="9.452006712266714"><ele>200.0</ele><time>2026-04-25T06:19:20Z</time></trkpt><trkpt lat="45.74060151073093" lon="9.452150478359076"><ele>201.0</ele><time>2026-04-25T06:19:21Z</time></trkpt><trkpt lat="45.74073712838258" lon="9.45231946010813"><ele>202.0</ele><time>2026-04-25T06:19:22Z</time></trkpt><trkpt lat="45.740860652329616" lon="9.452517640824635"><ele>202.0</ele><time>2026-04-25T06:19:23Z</time></trkpt><trkpt lat="45.740955571512" lon="9.452731164960802"><ele>202.0</ele><time>2026-04-25T06:19:24Z</time></trkpt><trkpt lat="45.741024023298706" lon="9.452961384899982"><ele>202.0</ele><time>2026-04-25T06:19:25Z</time></trkpt><trkpt lat="45.741060127677066" lon="9.453202143893494"><ele>202.33333333333331</ele><time>2026-04-25T06:19:26Z</time></trkpt><trkpt lat="45.74107927531288" lon="9.45345512875919"><ele>202.66666666666669</ele><time>2026-04-25T06:19:27Z</time></trkpt><trkpt lat="45.741092049709884" lon="9.453699777583065"><ele>203.0</ele><time>2026-04-25T06:19:28Z</time></trkpt><trkpt lat="45.74110216314967" lon="9.45392776722525"><ele>204.0</ele><time>2026-04-25T06:19:29Z</time></trkpt><trkpt lat="45.741107275803046" lon="9.454130815882175"><ele>205.0</ele><time>2026-04-25T06:19:30Z</time></trkpt><trkpt lat="45.74109648181481" lon="9.454315758395886"><ele>206.0</ele><time>2026-04-25T06:19:31Z</time></trkpt><trkpt lat="45.7410556079913" lon="9.45449544081876"><ele>207.0</ele><time>2026-04-25T06:19:32Z</time></trkpt><trkpt lat="45.74099285366614" lon="9.454670493413103"><ele>206.75</ele><time>2026-04-25T06:19:33Z</time></trkpt><trkpt lat="45.74096690605072" lon="9.45486354539059"><ele>206.5</ele><time>2026-04-25T06:19:34Z</time></trkpt><trkpt lat="45.74099082640182" lon="9.455065470075404"><ele>206.25</ele><time>2026-04-25T06:19:35Z</time></trkpt><trkpt lat="45.741058853678574" lon="9.455247693343694"><ele>206.0</ele><time>2026-04-25T06:19:36Z</time></trkpt><trkpt lat="45.7411365891834" lon="9.45543897596789"><ele>206.66666666666669</ele><time>2026-04-25T06:19:37Z</time></trkpt><trkpt lat="45.741176925946164" lon="9.455661367276589"><ele>207.33333333333331</ele><time>2026-04-25T06:19:38Z</time></trkpt><trkpt lat="45.74118802225185" lon="9.455911387451522"><ele>208.0</ele><time>2026-04-25T06:19:39Z</time></trkpt><trkpt lat="45.74119580528903" lon="9.456149761700592"><ele>209.0</ele><time>2026-04-25T06:19:40Z</time></trkpt><trkpt lat="45.74120648870282" lon="9.456389445818159"><ele>210.0</ele><time>2026-04-25T06:19:41Z</time></trkpt><trkpt lat="45.74121830713664" lon="9.45663477201295"><ele>211.0</ele><time>2026-04-25T06:19:42Z</time></trkpt><trkpt lat="45.74122985841958" lon="9.456885139996658"><ele>211.0</ele><time>2026-04-25T06:19:43Z</time></trkpt><trkpt lat="45.74124237447667" lon="9.457056327727118"><ele>211.0</ele><time>2026-04-25T06:19:44Z</time></trkpt><trkpt lat="45.74125988762908" lon="9.45728528279957"><ele>211.0</ele><time>2026-04-25T06:19:45Z</time></trkpt><trkpt lat="45.74127379533412" lon="9.457517414684578"><ele>211.0</ele><time>2026-04-25T06:19:46Z</time></trkpt><trkpt lat="45.74128995673151" lon="9.457755667139818"><ele>213.66666666666666</ele><time>2026-04-25T06:19:47Z</time></trkpt><trkpt lat="45.74130355938141" lon="9.457994595394915"><ele>216.33333333333331</ele><time>2026-04-25T06:19:48Z</time></trkpt><trkpt lat="45.74130616051225" lon="9.458226836939179"><ele>219.0</ele><time>2026-04-25T06:19:49Z</time></trkpt><trkpt lat="45.74130752338512" lon="9.458449767002111"><ele>219.0</ele><time>2026-04-25T06:19:50Z</time></trkpt><trkpt lat="45.741323105211066" lon="9.458658061120445"><ele>219.0</ele><time>2026-04-25T06:19:51Z</time></trkpt><trkpt lat="45.741347764200114" lon="9.458858343176235"><ele>219.0</ele><time>2026-04-25T06:19:52Z</time></trkpt><trkpt lat="45.74135363843449" lon="9.459046968222882"><ele>219.0</ele><time>2026-04-25T06:19:53Z</time></trkpt><trkpt lat="45.74131055227932" lon="9.459241488188523"><ele>219.6</ele><time>2026-04-25T06:19:54Z</time></trkpt><trkpt lat="45.741293895305475" lon="9.459406914281653"><ele>220.2</ele><time>2026-04-25T06:19:55Z</time></trkpt><trkpt lat="45.7413025795621" lon="9.45955251798842"><ele>220.79999999999998</ele><time>2026-04-25T06:19:56Z</time></trkpt><trkpt lat="45.74130401363865" lon="9.45969892674051"><ele>221.39999999999998</ele><time>2026-04-25T06:19:57Z</time></trkpt><trkpt lat="45.74130159854998" lon="9.459842670500105"><ele>222.0</ele><time>2026-04-25T06:19:58Z</time></trkpt><trkpt lat="45.74131976827958" lon="9.46000311247391"><ele>222.5</ele><time>2026-04-25T06:19:59Z</time></trkpt><trkpt lat="45.74133976934626" lon="9.460176058254838"><ele>223.0</ele><time>2026-04-25T06:20:00Z</time></trkpt><trkpt lat="45.74135041053408" lon="9.460370107405284"><ele>223.5</ele><time>2026-04-25T06:20:01Z</time></trkpt><trkpt lat="45.74135613476144" lon="9.460549270616415"><ele>224.0</ele><time>2026-04-25T06:20:02Z</time></trkpt><trkpt lat="45.74135693516163" lon="9.460677099266789"><ele>224.79999999999998</ele><time>2026-04-25T06:20:03Z</time></trkpt><trkpt lat="45.74135011834731" lon="9.46085097488594"><ele>225.59999999999997</ele><time>2026-04-25T06:20:05Z</time></trkpt><trkpt lat="45.741385905700724" lon="9.46097077375515"><ele>226.4</ele><time>2026-04-25T06:20:06Z</time></trkpt><trkpt lat="45.741388169267736" lon="9.461112768113935"><ele>227.2</ele><time>2026-04-25T06:20:07Z</time></trkpt><trkpt lat="45.74136306690815" lon="9.46126198513276"><ele>228.0</ele><time>2026-04-25T06:20:08Z</time></trkpt><trkpt lat="45.741315860252016" lon="9.46141591049365"><ele>229.75</ele><time>2026-04-25T06:20:09Z</time></trkpt><trkpt lat="45.74126066883389" lon="9.461576589659353"><ele>231.5</ele><time>2026-04-25T06:20:10Z</time></trkpt><trkpt lat="45.741214476114195" lon="9.46176681660233"><ele>233.25</ele><time>2026-04-25T06:20:10.999Z</time></trkpt><trkpt lat="45.741165619595364" lon="9.461975322286355"><ele>235.0</ele><time>2026-04-25T06:20:11.999Z</time></trkpt><trkpt lat="45.7411102584748" lon="9.462185609576656"><ele>234.75</ele><time>2026-04-25T06:20:12.999Z</time></trkpt><trkpt lat="45.741059228374034" lon="9.462385539156255"><ele>234.5</ele><time>2026-04-25T06:20:13.999Z</time></trkpt><trkpt lat="45.74101359611287" lon="9.462590168302281"><ele>234.25</ele><time>2026-04-25T06:20:14.999Z</time></trkpt><trkpt lat="45.74096262746259" lon="9.462788935789268"><ele>234.0</ele><time>2026-04-25T06:20:15.999Z</time></trkpt><trkpt lat="45.740934851630406" lon="9.463000867850898"><ele>234.0</ele><time>2026-04-25T06:20:16.999Z</time></trkpt><trkpt lat="45.74093232975219" lon="9.46321779569216"><ele>234.0</ele><time>2026-04-25T06:20:17.999Z</time></trkpt><trkpt lat="45.74096037001857" lon="9.46343524082516"><ele>234.0</ele><time>2026-04-25T06:20:18.999Z</time></trkpt><trkpt lat="45.74101155521626" lon="9.463642829833354"><ele>234.79999999999998</ele><time>2026-04-25T06:20:19.999Z</time></trkpt><trkpt lat="45.74104681388667" lon="9.46382559841225"><ele>235.59999999999997</ele><time>2026-04-25T06:20:20.999Z</time></trkpt><trkpt lat="45.74106815911625" lon="9.463993868797026"><ele>236.4</ele><time>2026-04-25T06:20:21.999Z</time></trkpt><trkpt lat="45.74109223281661" lon="9.464135671567552"><ele>237.2</ele><time>2026-04-25T06:20:22.999Z</time></trkpt><trkpt lat="45.74111434037625" lon="9.464250444198846"><ele>238.0</ele><time>2026-04-25T06:20:23.999Z</time></trkpt><trkpt lat="45.74111739246698" lon="9.464356930203879"><ele>239.66666666666666</ele><time>2026-04-25T06:20:24.999Z</time></trkpt><trkpt lat="45.74110062552778" lon="9.464468278276234"><ele>241.33333333333331</ele><time>2026-04-25T06:20:25.999Z</time></trkpt><trkpt lat="45.741067509198274" lon="9.464580172804084"><ele>243.0</ele><time>2026-04-25T06:20:26.999Z</time></trkpt><trkpt lat="45.741020000980626" lon="9.464682525927952"><ele>244.66666666666669</ele><time>2026-04-25T06:20:27.999Z</time></trkpt><trkpt lat="45.74095810577372" lon="9.464774331521975"><ele>246.33333333333334</ele><time>2026-04-25T06:20:28.999Z</time></trkpt><trkpt lat="45.740887004038974" lon="9.46485494255108"><ele>248.0</ele><time>2026-04-25T06:20:29.999Z</time></trkpt><trkpt lat="45.74080897935443" lon="9.464926701829443"><ele>248.0</ele><time>2026-04-25T06:20:30.999Z</time></trkpt><trkpt lat="45.740723541373875" lon="9.46498953584341"><ele>248.0</ele><time>2026-04-25T06:20:31.999Z</time></trkpt><trkpt lat="45.74063612642048" lon="9.465050493047658"><ele>248.0</ele><time>2026-04-25T06:20:32.999Z</time></trkpt><trkpt lat="45.74055126789645" lon="9.465117647446148"><ele>248.0</ele><time>2026-04-25T06:20:33.999Z</time></trkpt><trkpt lat="45.74047423219344" lon="9.465184451816107"><ele>248.0</ele><time>2026-04-25T06:20:34.999Z</time></trkpt><trkpt lat="45.74040861663313" lon="9.46524870064267"><ele>248.0</ele><time>2026-04-25T06:20:35.999Z</time></trkpt><trkpt lat="45.740348803243606" lon="9.465330543740416"><ele>248.0</ele><time>2026-04-25T06:20:36.999Z</time></trkpt><trkpt lat="45.74029725818917" lon="9.465436416066765"><ele>248.0</ele><time>2026-04-25T06:20:37.999Z</time></trkpt><trkpt lat="45.74026013016031" lon="9.465563544052534"><ele>248.0</ele><time>2026-04-25T06:20:38.999Z</time></trkpt><trkpt lat="45.74023604083478" lon="9.465697012410393"><ele>248.0</ele><time>2026-04-25T06:20:39.999Z</time></trkpt><trkpt lat="45.74023301119864" lon="9.465840404873854"><ele>249.25</ele><time>2026-04-25T06:20:40.999Z</time></trkpt><trkpt lat="45.74024590610946" lon="9.465988489094004"><ele>250.5</ele><time>2026-04-25T06:20:41.999Z</time></trkpt><trkpt lat="45.74026612842186" lon="9.466145150757683"><ele>251.75</ele><time>2026-04-25T06:20:42.999Z</time></trkpt><trkpt lat="45.740290332493764" lon="9.466310377619498"><ele>253.0</ele><time>2026-04-25T06:20:43.999Z</time></trkpt><trkpt lat="45.740315798293985" lon="9.466481730950132"><ele>253.0</ele><time>2026-04-25T06:20:44.999Z</time></trkpt><trkpt lat="45.7403428302819" lon="9.466663055578193"><ele>253.0</ele><time>2026-04-25T06:20:45.999Z</time></trkpt><trkpt lat="45.74037417874501" lon="9.466855928328535"><ele>253.0</ele><time>2026-04-25T06:20:46.999Z</time></trkpt><trkpt lat="45.740387540615515" lon="9.467066563375491"><ele>253.0</ele><time>2026-04-25T06:20:47.999Z</time></trkpt><trkpt lat="45.740416487713425" lon="9.467278975238706"><ele>254.0</ele><time>2026-04-25T06:20:48.999Z</time></trkpt><trkpt lat="45.740456919828944" lon="9.467492590693524"><ele>255.0</ele><time>2026-04-25T06:20:49.999Z</time></trkpt><trkpt lat="45.74047989852959" lon="9.467717514935025"><ele>256.0</ele><time>2026-04-25T06:20:50.999Z</time></trkpt><trkpt lat="45.74050460005441" lon="9.46794898141655"><ele>256.66666666666663</ele><time>2026-04-25T06:20:51.999Z</time></trkpt><trkpt lat="45.74053619926788" lon="9.468183981187844"><ele>257.3333333333333</ele><time>2026-04-25T06:20:52.999Z</time></trkpt><trkpt lat="45.740569274411776" lon="9.46841865543989"><ele>258.0</ele><time>2026-04-25T06:20:53.999Z</time></trkpt><trkpt lat="45.740604724926115" lon="9.46865408167131"><ele>259.0</ele><time>2026-04-25T06:20:54.999Z</time></trkpt><trkpt lat="45.74064070765705" lon="9.468882981183762"><ele>260.0</ele><time>2026-04-25T06:20:55.999Z</time></trkpt><trkpt lat="45.74067311731672" lon="9.469114797174011"><ele>261.0</ele><time>2026-04-25T06:20:56.999Z</time></trkpt><trkpt lat="45.74070641215886" lon="9.469347958869209"><ele>261.0</ele><time>2026-04-25T06:20:57.999Z</time></trkpt><trkpt lat="45.74073885114315" lon="9.469577840884128"><ele>261.0</ele><time>2026-04-25T06:20:58.999Z</time></trkpt><trkpt lat="45.74076198875166" lon="9.469797587879611"><ele>261.0</ele><time>2026-04-25T06:20:59.999Z</time></trkpt><trkpt lat="45.740781349353945" lon="9.470015781236038"><ele>261.25</ele><time>2026-04-25T06:21:00.999Z</time></trkpt><trkpt lat="45.74079356287977" lon="9.47022007332882"><ele>261.5</ele><time>2026-04-25T06:21:01.999Z</time></trkpt><trkpt lat="45.74079637031281" lon="9.470409416628913"><ele>261.75</ele><time>2026-04-25T06:21:02.999Z</time></trkpt><trkpt lat="45.740792399229754" lon="9.470580248430366"><ele>262.0</ele><time>2026-04-25T06:21:03.999Z</time></trkpt><trkpt lat="45.74077915928421" lon="9.470721857624158"><ele>262.16666666666663</ele><time>2026-04-25T06:21:04.999Z</time></trkpt><trkpt lat="45.74075504002103" lon="9.47083910983827"><ele>262.3333333333333</ele><time>2026-04-25T06:21:05.999Z</time></trkpt><trkpt lat="45.74072407262452" lon="9.470935794021827"><ele>262.5</ele><time>2026-04-25T06:21:07Z</time></trkpt><trkpt lat="45.74070407343064" lon="9.471032961555117"><ele>262.6666666666667</ele><time>2026-04-25T06:21:08Z</time></trkpt><trkpt lat="45.740711663469106" lon="9.47113371053896"><ele>262.83333333333337</ele><time>2026-04-25T06:21:09Z</time></trkpt><trkpt lat="45.740758916329476" lon="9.471214953344246"><ele>263.0</ele><time>2026-04-25T06:21:10Z</time></trkpt><trkpt lat="45.740838194333186" lon="9.471228708446509"><ele>263.0</ele><time>2026-04-25T06:21:11Z</time></trkpt><trkpt lat="45.74091777975197" lon="9.471166212059178"><ele>263.0</ele><time>2026-04-25T06:21:12Z</time></trkpt><trkpt lat="45.740961564825724" lon="9.47104436511904"><ele>263.0</ele><time>2026-04-25T06:21:13Z</time></trkpt><trkpt lat="45.74099411103709" lon="9.470910362757213"><ele>263.0</ele><time>2026-04-25T06:21:14Z</time></trkpt><trkpt lat="45.74105491376603" lon="9.470797196389643"><ele>263.0</ele><time>2026-04-25T06:21:15Z</time></trkpt><trkpt lat="45.7411389283593" lon="9.470711757913731"><ele>263.2</ele><time>2026-04-25T06:21:16Z</time></trkpt><trkpt lat="45.74122101566291" lon="9.470641394036779"><ele>263.4</ele><time>2026-04-25T06:21:17Z</time></trkpt><trkpt lat="45.74130366840488" lon="9.470575352741006"><ele>263.59999999999997</ele><time>2026-04-25T06:21:18Z</time></trkpt><trkpt lat="45.74139281473049" lon="9.470504271744558"><ele>263.8</ele><time>2026-04-25T06:21:19Z</time></trkpt><trkpt lat="45.74148350372183" lon="9.47043194522669"><ele>264.0</ele><time>2026-04-25T06:21:20Z</time></trkpt><trkpt lat="45.74157829479715" lon="9.470365091179296"><ele>264.2</ele><time>2026-04-25T06:21:21Z</time></trkpt><trkpt lat="45.74167792823199" lon="9.470297210891172"><ele>264.4</ele><time>2026-04-25T06:21:22Z</time></trkpt><trkpt lat="45.74177774461716" lon="9.470228151359226"><ele>264.6</ele><time>2026-04-25T06:21:23Z</time></trkpt><trkpt lat="45.74187886440303" lon="9.470160910114998"><ele>264.8</ele><time>2026-04-25T06:21:24Z</time></trkpt><trkpt lat="45.741977088045886" lon="9.47008754841949"><ele>265.0</ele><time>2026-04-25T06:21:25Z</time></trkpt><trkpt lat="45.74207619253997" lon="9.47001668326821"><ele>265.0</ele><time>2026-04-25T06:21:26Z</time></trkpt><trkpt lat="45.742173870851424" lon="9.469945266038058"><ele>265.0</ele><time>2026-04-25T06:21:27Z</time></trkpt><trkpt lat="45.742269910086115" lon="9.469876011725951"><ele>265.0</ele><time>2026-04-25T06:21:28Z</time></trkpt><trkpt lat="45.74236390776205" lon="9.469804670742315"><ele>265.0</ele><time>2026-04-25T06:21:29Z</time></trkpt><trkpt lat="45.74245325353158" lon="9.469738960249503"><ele>265.0</ele><time>2026-04-25T06:21:30Z</time></trkpt><trkpt lat="45.74253586677356" lon="9.469682160954356"><ele>265.0</ele><time>2026-04-25T06:21:31Z</time></trkpt><trkpt lat="45.74261647422536" lon="9.469642704905176"><ele>265.0</ele><time>2026-04-25T06:21:32Z</time></trkpt><trkpt lat="45.74270490101416" lon="9.469649105026111"><ele>265.0</ele><time>2026-04-25T06:21:33Z</time></trkpt><trkpt lat="45.7427935633594" lon="9.469708269948354"><ele>265.0</ele><time>2026-04-25T06:21:34Z</time></trkpt><trkpt lat="45.7428826037568" lon="9.469788972238222"><ele>265.0</ele><time>2026-04-25T06:21:35Z</time></trkpt><trkpt lat="45.74297496127953" lon="9.469871327124201"><ele>265.4</ele><time>2026-04-25T06:21:36Z</time></trkpt><trkpt lat="45.74307527201716" lon="9.469938525751289"><ele>265.8</ele><time>2026-04-25T06:21:37Z</time></trkpt><trkpt lat="45.74317732911215" lon="9.46999816103187"><ele>266.2</ele><time>2026-04-25T06:21:38Z</time></trkpt><trkpt lat="45.74327147881258" lon="9.470056460657169"><ele>266.6</ele><time>2026-04-25T06:21:39Z</time></trkpt><trkpt lat="45.74334967367783" lon="9.47011427068698"><ele>267.0</ele><time>2026-04-25T06:21:40Z</time></trkpt><trkpt lat="45.74340953727213" lon="9.470195755781777"><ele>267.0</ele><time>2026-04-25T06:21:41Z</time></trkpt><trkpt lat="45.74343729861844" lon="9.470308067348137"><ele>267.0</ele><time>2026-04-25T06:21:42Z</time></trkpt><trkpt lat="45.743439254366145" lon="9.470432715700131"><ele>267.0</ele><time>2026-04-25T06:21:43Z</time></trkpt><trkpt lat="45.743435376848076" lon="9.470577310314404"><ele>267.0</ele><time>2026-04-25T06:21:44Z</time></trkpt><trkpt lat="45.743430530198474" lon="9.470733237193663"><ele>267.0</ele><time>2026-04-25T06:21:45Z</time></trkpt><trkpt lat="45.74342988022767" lon="9.470894802139812"><ele>267.0</ele><time>2026-04-25T06:21:46Z</time></trkpt><trkpt lat="45.743430122316994" lon="9.47105946374286"><ele>267.0</ele><time>2026-04-25T06:21:47Z</time></trkpt><trkpt lat="45.74343453907939" lon="9.471221275634337"><ele>267.0</ele><time>2026-04-25T06:21:48Z</time></trkpt><trkpt lat="45.74344928279631" lon="9.471386367367261"><ele>267.0</ele><time>2026-04-25T06:21:49Z</time></trkpt><trkpt lat="45.743460778051414" lon="9.471551535044895"><ele>267.25</ele><time>2026-04-25T06:21:50Z</time></trkpt><trkpt lat="45.74346309884912" lon="9.471721505493143"><ele>267.5</ele><time>2026-04-25T06:21:51Z</time></trkpt><trkpt lat="45.743443569436714" lon="9.471887582861033"><ele>267.75</ele><time>2026-04-25T06:21:52Z</time></trkpt><trkpt lat="45.74341220252328" lon="9.472051623117247"><ele>268.0</ele><time>2026-04-25T06:21:53Z</time></trkpt><trkpt lat="45.74337805628298" lon="9.472203816979281"><ele>269.2</ele><time>2026-04-25T06:21:54Z</time></trkpt><trkpt lat="45.743346128703614" lon="9.472347740815655"><ele>270.4</ele><time>2026-04-25T06:21:55Z</time></trkpt><trkpt lat="45.74331031951415" lon="9.47248692627679"><ele>271.59999999999997</ele><time>2026-04-25T06:21:56Z</time></trkpt><trkpt lat="45.743261940657426" lon="9.472612775296989"><ele>272.8</ele><time>2026-04-25T06:21:57Z</time></trkpt><trkpt lat="45.743208559790475" lon="9.472730796994338"><ele>274.0</ele><time>2026-04-25T06:21:58Z</time></trkpt><trkpt lat="45.743156979538334" lon="9.472842367796149"><ele>273.8333333333333</ele><time>2026-04-25T06:21:59Z</time></trkpt><trkpt lat="45.7431246902763" lon="9.472963291826565"><ele>273.66666666666663</ele><time>2026-04-25T06:22:00Z</time></trkpt><trkpt lat="45.74309345089415" lon="9.473077314100273"><ele>273.5</ele><time>2026-04-25T06:22:01Z</time></trkpt><trkpt lat="45.743061765194604" lon="9.473184308760503"><ele>273.3333333333333</ele><time>2026-04-25T06:22:02Z</time></trkpt><trkpt lat="45.74303122777849" lon="9.473284291888179"><ele>273.1666666666667</ele><time>2026-04-25T06:22:03Z</time></trkpt><trkpt lat="45.74299618192357" lon="9.473371477263207"><ele>273.0</ele><time>2026-04-25T06:22:04Z</time></trkpt><trkpt lat="45.74311198408465" lon="9.473501169600429"><ele>273.0</ele><time>2026-04-25T06:22:06Z</time></trkpt><trkpt lat="45.74317750416681" lon="9.473510126526824"><ele>273.0</ele><time>2026-04-25T06:22:07Z</time></trkpt><trkpt lat="45.74324718329417" lon="9.473553163435772"><ele>273.0</ele><time>2026-04-25T06:22:09Z</time></trkpt><trkpt lat="45.743311250887935" lon="9.473596547580156"><ele>273.0</ele><time>2026-04-25T06:22:12Z</time></trkpt><trkpt lat="45.74334469483762" lon="9.473692469372502"><ele>273.0</ele><time>2026-04-25T06:22:14Z</time></trkpt><trkpt lat="45.743299880169474" lon="9.473766507728575"><ele>273.0</ele><time>2026-04-25T06:22:16.999Z</time></trkpt><trkpt lat="45.743481997719805" lon="9.473622080011"><ele>273.0</ele><time>2026-04-25T06:23:34Z</time></trkpt><trkpt lat="45.74354350923286" lon="9.473588381172227"><ele>273.0</ele><time>2026-04-25T06:23:37Z</time></trkpt><trkpt lat="45.74365884689862" lon="9.47391268253633"><ele>273.0</ele><time>2026-04-25T06:23:40Z</time></trkpt><trkpt lat="45.74395034124419" lon="9.474010938401454"><ele>280.0</ele><time>2026-04-25T06:23:44Z</time></trkpt><trkpt lat="45.74395374323633" lon="9.474144103872506"><ele>287.0</ele><time>2026-04-25T06:23:45Z</time></trkpt><trkpt lat="45.74425061993327" lon="9.47440440622194"><ele>294.0</ele><time>2026-04-25T06:23:48Z</time></trkpt><trkpt lat="45.744162681994666" lon="9.474282990050714"><ele>294.0</ele><time>2026-04-25T06:23:52Z</time></trkpt><trkpt lat="45.744067389547425" lon="9.474214098025348"><ele>294.0</ele><time>2026-04-25T06:23:53Z</time></trkpt><trkpt lat="45.743975247175634" lon="9.47419953777748"><ele>294.0</ele><time>2026-04-25T06:23:54Z</time></trkpt><trkpt lat="45.74386583124549" lon="9.47418212395621"><ele>294.0</ele><time>2026-04-25T06:23:57Z</time></trkpt><trkpt lat="45.743514168426834" lon="9.473991061797925"><ele>289.8</ele><time>2026-04-25T06:23:58Z</time></trkpt><trkpt lat="45.743393388386586" lon="9.473806365676614"><ele>285.59999999999997</ele><time>2026-04-25T06:24:28.453Z</time></trkpt><trkpt lat="45.74333079667572" lon="9.47376819925309"><ele>281.4</ele><time>2026-04-25T06:28:11Z</time></trkpt><trkpt lat="45.74332852544151" lon="9.47364944712765"><ele>277.2</ele><time>2026-04-25T06:30:49Z</time></trkpt><trkpt lat="45.74327599709405" lon="9.473516473341025"><ele>273.0</ele><time>2026-04-25T06:30:55Z</time></trkpt><trkpt lat="45.74321661671327" lon="9.473458070192414"><ele>273.0</ele><time>2026-04-25T06:30:56Z</time></trkpt><trkpt lat="45.74316438679781" lon="9.47340593258615"><ele>273.0</ele><time>2026-04-25T06:30:57Z</time></trkpt><trkpt lat="45.743100744378395" lon="9.473329763528207"><ele>273.0</ele><time>2026-04-25T06:30:59Z</time></trkpt><trkpt lat="45.74296340781719" lon="9.473524845843826"><ele>273.0</ele><time>2026-04-25T06:31:12Z</time></trkpt><trkpt lat="45.74295780525479" lon="9.473663600061343"><ele>273.0</ele><time>2026-04-25T06:31:13Z</time></trkpt><trkpt lat="45.74296605080295" lon="9.473813549150556"><ele>272.8</ele><time>2026-04-25T06:31:14Z</time></trkpt><trkpt lat="45.74296997846357" lon="9.47396991624724"><ele>272.6</ele><time>2026-04-25T06:31:15Z</time></trkpt><trkpt lat="45.742954974919606" lon="9.474126616155004"><ele>272.4</ele><time>2026-04-25T06:31:16Z</time></trkpt><trkpt lat="45.7429069899179" lon="9.47427247102228"><ele>272.2</ele><time>2026-04-25T06:31:17Z</time></trkpt><trkpt lat="45.74281157108645" lon="9.474364710704505"><ele>272.0</ele><time>2026-04-25T06:31:18Z</time></trkpt><trkpt lat="45.74271049661909" lon="9.474472241659344"><ele>271.25</ele><time>2026-04-25T06:31:19Z</time></trkpt><trkpt lat="45.74260181292237" lon="9.474576563052201"><ele>270.5</ele><time>2026-04-25T06:31:20Z</time></trkpt><trkpt lat="45.742499985955256" lon="9.47470769014126"><ele>269.75</ele><time>2026-04-25T06:31:21Z</time></trkpt><trkpt lat="45.74239785873579" lon="9.474845711865251"><ele>269.0</ele><time>2026-04-25T06:31:22Z</time></trkpt><trkpt lat="45.74230221785994" lon="9.474972404216496"><ele>269.0</ele><time>2026-04-25T06:31:23Z</time></trkpt><trkpt lat="45.74221656081441" lon="9.475085876498095"><ele>269.0</ele><time>2026-04-25T06:31:24Z</time></trkpt><trkpt lat="45.742137894908446" lon="9.475188274490604"><ele>269.0</ele><time>2026-04-25T06:31:25Z</time></trkpt><trkpt lat="45.74206529827732" lon="9.475290381322774"><ele>269.0</ele><time>2026-04-25T06:31:26Z</time></trkpt><trkpt lat="45.741965834373055" lon="9.475433978563464"><ele>269.2</ele><time>2026-04-25T06:31:27Z</time></trkpt><trkpt lat="45.74188846266856" lon="9.475550215574115"><ele>269.4</ele><time>2026-04-25T06:31:28Z</time></trkpt><trkpt lat="45.741825096708936" lon="9.475654514889866"><ele>269.6</ele><time>2026-04-25T06:31:29Z</time></trkpt><trkpt lat="45.74176787685086" lon="9.475748712670558"><ele>269.8</ele><time>2026-04-25T06:31:30Z</time></trkpt><trkpt lat="45.74170892603878" lon="9.475830613220355"><ele>270.0</ele><time>2026-04-25T06:31:31Z</time></trkpt><trkpt lat="45.741628784082465" lon="9.475835150691267"><ele>269.4</ele><time>2026-04-25T06:31:32Z</time></trkpt><trkpt lat="45.74154768543913" lon="9.475781277054553"><ele>268.8</ele><time>2026-04-25T06:31:33Z</time></trkpt><trkpt lat="45.74145027882402" lon="9.47574300032155"><ele>268.2</ele><time>2026-04-25T06:31:34Z</time></trkpt><trkpt lat="45.74135015117894" lon="9.475683289936192"><ele>267.6</ele><time>2026-04-25T06:31:34.999Z</time></trkpt><trkpt lat="45.74124998606388" lon="9.475618389277571"><ele>267.0</ele><time>2026-04-25T06:31:35.999Z</time></trkpt><trkpt lat="45.74115113901754" lon="9.475558564952957"><ele>267.0</ele><time>2026-04-25T06:31:36.999Z</time></trkpt><trkpt lat="45.7410630059139" lon="9.47550445936881"><ele>267.0</ele><time>2026-04-25T06:31:37.999Z</time></trkpt><trkpt lat="45.74099028662642" lon="9.475462243467394"><ele>267.0</ele><time>2026-04-25T06:31:38.999Z</time></trkpt><trkpt lat="45.740913597090874" lon="9.475420183746564"><ele>267.0</ele><time>2026-04-25T06:31:39.999Z</time></trkpt><trkpt lat="45.74082584729613" lon="9.475371879707726"><ele>267.0</ele><time>2026-04-25T06:31:40.999Z</time></trkpt><trkpt lat="45.74073326590075" lon="9.475317879182526"><ele>266.6</ele><time>2026-04-25T06:31:41.999Z</time></trkpt><trkpt lat="45.74063774876618" lon="9.475263347002981"><ele>266.2</ele><time>2026-04-25T06:31:42.999Z</time></trkpt><trkpt lat="45.74054275387629" lon="9.475184334742755"><ele>265.8</ele><time>2026-04-25T06:31:43.999Z</time></trkpt><trkpt lat="45.74044971160642" lon="9.475124663141175"><ele>265.4</ele><time>2026-04-25T06:31:44.999Z</time></trkpt><trkpt lat="45.74036146203472" lon="9.475071244702773"><ele>265.0</ele><time>2026-04-25T06:31:45.999Z</time></trkpt><trkpt lat="45.74028017215617" lon="9.475029673496243"><ele>265.0</ele><time>2026-04-25T06:31:46.999Z</time></trkpt><trkpt lat="45.74019004814671" lon="9.474984935514462"><ele>265.0</ele><time>2026-04-25T06:31:48.999Z</time></trkpt><trkpt lat="45.740113028902734" lon="9.4752196319529"><ele>265.0</ele><time>2026-04-25T06:31:54.999Z</time></trkpt><trkpt lat="45.74009555581726" lon="9.47540410747446"><ele>265.0</ele><time>2026-04-25T06:31:55.999Z</time></trkpt><trkpt lat="45.74007572634425" lon="9.47559398205748"><ele>265.0</ele><time>2026-04-25T06:31:56.999Z</time></trkpt><trkpt lat="45.74004875098563" lon="9.475786582094468"><ele>265.0</ele><time>2026-04-25T06:31:57.999Z</time></trkpt><trkpt lat="45.74002196482536" lon="9.47598305420188"><ele>265.0</ele><time>2026-04-25T06:31:58.999Z</time></trkpt><trkpt lat="45.73998379046914" lon="9.47618395225387"><ele>265.0</ele><time>2026-04-25T06:31:59.999Z</time></trkpt><trkpt lat="45.739946839775335" lon="9.476381380500632"><ele>265.25</ele><time>2026-04-25T06:32:00.999Z</time></trkpt><trkpt lat="45.73991402053945" lon="9.47657440567715"><ele>265.5</ele><time>2026-04-25T06:32:01.999Z</time></trkpt><trkpt lat="45.739885262232775" lon="9.47676828691699"><ele>265.75</ele><time>2026-04-25T06:32:02.999Z</time></trkpt><trkpt lat="45.7398696726738" lon="9.476968902064142"><ele>266.0</ele><time>2026-04-25T06:32:03.999Z</time></trkpt><trkpt lat="45.73984259295627" lon="9.477162210294647"><ele>266.5</ele><time>2026-04-25T06:32:04.999Z</time></trkpt><trkpt lat="45.73981006989577" lon="9.477355381355144"><ele>267.0</ele><time>2026-04-25T06:32:05.999Z</time></trkpt><trkpt lat="45.739775400334175" lon="9.477551404674465"><ele>267.5</ele><time>2026-04-25T06:32:06.999Z</time></trkpt><trkpt lat="45.73974584582847" lon="9.477750393828742"><ele>268.0</ele><time>2026-04-25T06:32:07.999Z</time></trkpt><trkpt lat="45.73971526569549" lon="9.477951243362567"><ele>268.0</ele><time>2026-04-25T06:32:08.999Z</time></trkpt><trkpt lat="45.73968447961206" lon="9.47815385804686"><ele>268.0</ele><time>2026-04-25T06:32:09.999Z</time></trkpt><trkpt lat="45.73965267058512" lon="9.478358646986047"><ele>268.0</ele><time>2026-04-25T06:32:10.999Z</time></trkpt><trkpt lat="45.73962632529025" lon="9.478569385868207"><ele>268.0</ele><time>2026-04-25T06:32:11.999Z</time></trkpt><trkpt lat="45.73959012038171" lon="9.478776057407865"><ele>268.0</ele><time>2026-04-25T06:32:12.999Z</time></trkpt><trkpt lat="45.73955990319001" lon="9.478985642903243"><ele>268.0</ele><time>2026-04-25T06:32:13.999Z</time></trkpt><trkpt lat="45.73953186361446" lon="9.479194949857737"><ele>268.0</ele><time>2026-04-25T06:32:14.999Z</time></trkpt><trkpt lat="45.73949884069152" lon="9.479400049511495"><ele>268.0</ele><time>2026-04-25T06:32:15.999Z</time></trkpt><trkpt lat="45.73946838399456" lon="9.479602473614118"><ele>268.25</ele><time>2026-04-25T06:32:16.999Z</time></trkpt><trkpt lat="45.73943978133235" lon="9.47980199392828"><ele>268.5</ele><time>2026-04-25T06:32:18Z</time></trkpt><trkpt lat="45.73940194882825" lon="9.479995619503255"><ele>268.75</ele><time>2026-04-25T06:32:19Z</time></trkpt><trkpt lat="45.739334498808205" lon="9.480171852837406"><ele>269.0</ele><time>2026-04-25T06:32:20Z</time></trkpt><trkpt lat="45.739242106784715" lon="9.480339215729794"><ele>267.25</ele><time>2026-04-25T06:32:21Z</time></trkpt><trkpt lat="45.739122444004174" lon="9.480479093021719"><ele>265.5</ele><time>2026-04-25T06:32:22Z</time></trkpt><trkpt lat="45.73902247624971" lon="9.480641150840665"><ele>263.75</ele><time>2026-04-25T06:32:23Z</time></trkpt><trkpt lat="45.73891280193161" lon="9.480762915616664"><ele>262.0</ele><time>2026-04-25T06:32:24Z</time></trkpt><trkpt lat="45.73882103467452" lon="9.48087466055452"><ele>262.0</ele><time>2026-04-25T06:32:25Z</time></trkpt><trkpt lat="45.73877126348393" lon="9.480999943095293"><ele>262.0</ele><time>2026-04-25T06:32:26Z</time></trkpt><trkpt lat="45.738767518611105" lon="9.481137488415943"><ele>262.0</ele><time>2026-04-25T06:32:27Z</time></trkpt><trkpt lat="45.73881342405477" lon="9.481257658597862"><ele>262.0</ele><time>2026-04-25T06:32:28Z</time></trkpt><trkpt lat="45.73890534687099" lon="9.481337015298193"><ele>262.0</ele><time>2026-04-25T06:32:29Z</time></trkpt><trkpt lat="45.73901974776759" lon="9.481356795877527"><ele>262.0</ele><time>2026-04-25T06:32:30Z</time></trkpt><trkpt lat="45.73913022584362" lon="9.48127447660937"><ele>262.0</ele><time>2026-04-25T06:32:31Z</time></trkpt><trkpt lat="45.73922650547756" lon="9.481154861825182"><ele>262.0</ele><time>2026-04-25T06:32:32Z</time></trkpt><trkpt lat="45.7393129568685" lon="9.48101830473888"><ele>262.0</ele><time>2026-04-25T06:32:33Z</time></trkpt><trkpt lat="45.73940142787065" lon="9.480905212513196"><ele>261.8</ele><time>2026-04-25T06:32:34Z</time></trkpt><trkpt lat="45.73949911665564" lon="9.48080931237488"><ele>261.6</ele><time>2026-04-25T06:32:35Z</time></trkpt><trkpt lat="45.73960133699425" lon="9.480739074034785"><ele>261.40000000000003</ele><time>2026-04-25T06:32:36Z</time></trkpt><trkpt lat="45.739707135444064" lon="9.48072290507009"><ele>261.2</ele><time>2026-04-25T06:32:37Z</time></trkpt><trkpt lat="45.73980655897395" lon="9.480770063967912"><ele>261.0</ele><time>2026-04-25T06:32:38Z</time></trkpt><trkpt lat="45.73987627632985" lon="9.480876292075218"><ele>261.0</ele><time>2026-04-25T06:32:39Z</time></trkpt><trkpt lat="45.7399069426806" lon="9.481015896891625"><ele>261.0</ele><time>2026-04-25T06:32:40Z</time></trkpt><trkpt lat="45.73989919268159" lon="9.481173895080873"><ele>261.0</ele><time>2026-04-25T06:32:41Z</time></trkpt><trkpt lat="45.73984633589314" lon="9.481338555129991"><ele>261.0</ele><time>2026-04-25T06:32:42Z</time></trkpt><trkpt lat="45.73978635031918" lon="9.481512296698128"><ele>261.0</ele><time>2026-04-25T06:32:43Z</time></trkpt><trkpt lat="45.739727538374204" lon="9.481687845976147"><ele>261.0</ele><time>2026-04-25T06:32:44Z</time></trkpt><trkpt lat="45.73966854336976" lon="9.481858506942526"><ele>261.0</ele><time>2026-04-25T06:32:45Z</time></trkpt><trkpt lat="45.739604555803645" lon="9.482022250851907"><ele>261.0</ele><time>2026-04-25T06:32:46Z</time></trkpt><trkpt lat="45.73952218874333" lon="9.482165776103312"><ele>261.0</ele><time>2026-04-25T06:32:47Z</time></trkpt><trkpt lat="45.73941793705433" lon="9.482290315165033"><ele>261.0</ele><time>2026-04-25T06:32:48Z</time></trkpt><trkpt lat="45.73929605348716" lon="9.482391152429072"><ele>261.0</ele><time>2026-04-25T06:32:49Z</time></trkpt><trkpt lat="45.73918542249752" lon="9.48249376665331"><ele>261.0</ele><time>2026-04-25T06:32:50Z</time></trkpt><trkpt lat="45.739089360012535" lon="9.48261380546003"><ele>261.25</ele><time>2026-04-25T06:32:51Z</time></trkpt><trkpt lat="45.739013549418594" lon="9.482760133385034"><ele>261.5</ele><time>2026-04-25T06:32:52Z</time></trkpt><trkpt lat="45.73895976817253" lon="9.482926353766894"><ele>261.75</ele><time>2026-04-25T06:32:53Z</time></trkpt><trkpt lat="45.738915352651105" lon="9.483102998630203"><ele>262.0</ele><time>2026-04-25T06:32:54Z</time></trkpt><trkpt lat="45.7388749929121" lon="9.483284911325965"><ele>262.0</ele><time>2026-04-25T06:32:55Z</time></trkpt><trkpt lat="45.73883980572619" lon="9.483476263329523"><ele>262.0</ele><time>2026-04-25T06:32:56Z</time></trkpt><trkpt lat="45.73880992087547" lon="9.483668809048323"><ele>262.0</ele><time>2026-04-25T06:32:57Z</time></trkpt><trkpt lat="45.73878419968722" lon="9.483856626853216"><ele>262.0</ele><time>2026-04-25T06:32:58Z</time></trkpt><trkpt lat="45.73876560048221" lon="9.484046567304516"><ele>263.75</ele><time>2026-04-25T06:32:59Z</time></trkpt><trkpt lat="45.738754834121885" lon="9.484243228459462"><ele>265.5</ele><time>2026-04-25T06:33:00Z</time></trkpt><trkpt lat="45.73872963812652" lon="9.484442528410401"><ele>267.25</ele><time>2026-04-25T06:33:01Z</time></trkpt><trkpt lat="45.73870028764872" lon="9.484640230949651"><ele>269.0</ele><time>2026-04-25T06:33:02Z</time></trkpt><trkpt lat="45.73865620243391" lon="9.484839848933778"><ele>269.33333333333337</ele><time>2026-04-25T06:33:03Z</time></trkpt><trkpt lat="45.73860213068594" lon="9.485037245237447"><ele>269.6666666666667</ele><time>2026-04-25T06:33:04Z</time></trkpt><trkpt lat="45.73854021326973" lon="9.485235886260519"><ele>270.0</ele><time>2026-04-25T06:33:05Z</time></trkpt><trkpt lat="45.73848841464863" lon="9.4854404391965"><ele>267.25</ele><time>2026-04-25T06:33:06Z</time></trkpt><trkpt lat="45.73845344761693" lon="9.485651940918208"><ele>264.5</ele><time>2026-04-25T06:33:07Z</time></trkpt><trkpt lat="45.738427041532944" lon="9.48586408559803"><ele>261.75</ele><time>2026-04-25T06:33:08Z</time></trkpt><trkpt lat="45.738403528749124" lon="9.48606894722074"><ele>259.0</ele><time>2026-04-25T06:33:09Z</time></trkpt><trkpt lat="45.73836715264968" lon="9.486250403865366"><ele>259.75</ele><time>2026-04-25T06:33:10Z</time></trkpt><trkpt lat="45.73830056270892" lon="9.486407657151366"><ele>260.5</ele><time>2026-04-25T06:33:11Z</time></trkpt><trkpt lat="45.73819777266978" lon="9.48652460305167"><ele>261.25</ele><time>2026-04-25T06:33:12Z</time></trkpt><trkpt lat="45.73807245162352" lon="9.486579581090437"><ele>262.0</ele><time>2026-04-25T06:33:13Z</time></trkpt><trkpt lat="45.73794121912511" lon="9.486567967271684"><ele>262.0</ele><time>2026-04-25T06:33:14Z</time></trkpt><trkpt lat="45.73782677917139" lon="9.486470892347842"><ele>262.0</ele><time>2026-04-25T06:33:15Z</time></trkpt><trkpt lat="45.73774724535525" lon="9.486323737793324"><ele>262.0</ele><time>2026-04-25T06:33:16Z</time></trkpt><trkpt lat="45.7376587542891" lon="9.48617609709895"><ele>262.0</ele><time>2026-04-25T06:33:17Z</time></trkpt><trkpt lat="45.73757656423724" lon="9.48603494034098"><ele>262.2</ele><time>2026-04-25T06:33:18Z</time></trkpt><trkpt lat="45.737506859569706" lon="9.485917638329132"><ele>262.4</ele><time>2026-04-25T06:33:19Z</time></trkpt><trkpt lat="45.73743087617335" lon="9.485835555690825"><ele>262.6</ele><time>2026-04-25T06:33:20Z</time></trkpt><trkpt lat="45.73735139261347" lon="9.48578136187238"><ele>262.8</ele><time>2026-04-25T06:33:21Z</time></trkpt><trkpt lat="45.737274395675364" lon="9.485745518303979"><ele>263.0</ele><time>2026-04-25T06:33:22Z</time></trkpt><trkpt lat="45.73720111361623" lon="9.485706616793413"><ele>263.0</ele><time>2026-04-25T06:33:23Z</time></trkpt><trkpt lat="45.73714334756364" lon="9.485647550788098"><ele>263.0</ele><time>2026-04-25T06:33:24Z</time></trkpt><trkpt lat="45.737090775591724" lon="9.485578398066808"><ele>263.0</ele><time>2026-04-25T06:33:25Z</time></trkpt><trkpt lat="45.73702259556609" lon="9.485520567386494"><ele>263.0</ele><time>2026-04-25T06:33:26Z</time></trkpt><trkpt lat="45.73693579168826" lon="9.48550712342628"><ele>263.0</ele><time>2026-04-25T06:33:27Z</time></trkpt><trkpt lat="45.73684974168392" lon="9.485542129118134"><ele>263.0</ele><time>2026-04-25T06:33:28Z</time></trkpt><trkpt lat="45.73677736528229" lon="9.48562458693221"><ele>263.6</ele><time>2026-04-25T06:33:29Z</time></trkpt><trkpt lat="45.73670287878315" lon="9.48570935842173"><ele>264.20000000000005</ele><time>2026-04-25T06:33:30Z</time></trkpt><trkpt lat="45.736607705955265" lon="9.485764614007646"><ele>264.8</ele><time>2026-04-25T06:33:31Z</time></trkpt><trkpt lat="45.736504464201566" lon="9.485801782200062"><ele>265.40000000000003</ele><time>2026-04-25T06:33:31.999Z</time></trkpt><trkpt lat="45.73640174743354" lon="9.485847226504848"><ele>266.0</ele><time>2026-04-25T06:33:32.999Z</time></trkpt><trkpt lat="45.73630598822619" lon="9.485916232659674"><ele>266.0</ele><time>2026-04-25T06:33:33.999Z</time></trkpt><trkpt lat="45.73621564813732" lon="9.486010717464037"><ele>266.0</ele><time>2026-04-25T06:33:34.999Z</time></trkpt><trkpt lat="45.73612438136918" lon="9.486106193302414"><ele>266.0</ele><time>2026-04-25T06:33:35.999Z</time></trkpt><trkpt lat="45.73602894043587" lon="9.486196656183857"><ele>266.0</ele><time>2026-04-25T06:33:36.999Z</time></trkpt><trkpt lat="45.73593489550223" lon="9.48628586995758"><ele>266.75</ele><time>2026-04-25T06:33:37.999Z</time></trkpt><trkpt lat="45.7358393163386" lon="9.48637641917319"><ele>267.5</ele><time>2026-04-25T06:33:38.999Z</time></trkpt><trkpt lat="45.735744657148736" lon="9.486467561208723"><ele>268.25</ele><time>2026-04-25T06:33:39.999Z</time></trkpt><trkpt lat="45.73564167310095" lon="9.486559245353028"><ele>269.0</ele><time>2026-04-25T06:33:40.999Z</time></trkpt><trkpt lat="45.735533668031536" lon="9.486658813152"><ele>269.0</ele><time>2026-04-25T06:33:41.999Z</time></trkpt><trkpt lat="45.73542051270517" lon="9.48677779790852"><ele>269.0</ele><time>2026-04-25T06:33:42.999Z</time></trkpt><trkpt lat="45.73528329392575" lon="9.486885329266693"><ele>269.0</ele><time>2026-04-25T06:33:43.999Z</time></trkpt><trkpt lat="45.735155523737205" lon="9.487029498452276"><ele>268.6666666666667</ele><time>2026-04-25T06:33:44.999Z</time></trkpt><trkpt lat="45.73503091851122" lon="9.487181112283217"><ele>268.3333333333333</ele><time>2026-04-25T06:33:45.999Z</time></trkpt><trkpt lat="45.73491496133599" lon="9.48736476920943"><ele>268.0</ele><time>2026-04-25T06:33:46.999Z</time></trkpt><trkpt lat="45.734780829488216" lon="9.48754827523844"><ele>268.0</ele><time>2026-04-25T06:33:47.999Z</time></trkpt><trkpt lat="45.73465472461813" lon="9.487761096687587"><ele>268.0</ele><time>2026-04-25T06:33:48.999Z</time></trkpt><trkpt lat="45.734539431803604" lon="9.487984152228918"><ele>268.0</ele><time>2026-04-25T06:33:49.999Z</time></trkpt><trkpt lat="45.7344358497259" lon="9.488216901807052"><ele>268.66666666666663</ele><time>2026-04-25T06:33:50.999Z</time></trkpt><trkpt lat="45.73433866029338" lon="9.488456779937188"><ele>269.3333333333333</ele><time>2026-04-25T06:33:51.999Z</time></trkpt><trkpt lat="45.7342531978247" lon="9.48871011613134"><ele>270.0</ele><time>2026-04-25T06:33:52.999Z</time></trkpt><trkpt lat="45.73417631646062" lon="9.488971512471638"><ele>270.0</ele><time>2026-04-25T06:33:53.999Z</time></trkpt><trkpt lat="45.73410458860655" lon="9.48923767791366"><ele>270.0</ele><time>2026-04-25T06:33:54.999Z</time></trkpt><trkpt lat="45.734029254686156" lon="9.489508642315768"><ele>270.0</ele><time>2026-04-25T06:33:55.999Z</time></trkpt><trkpt lat="45.73395496401631" lon="9.48977961521721"><ele>270.6666666666667</ele><time>2026-04-25T06:33:56.999Z</time></trkpt><trkpt lat="45.73387975225004" lon="9.490047583810936"><ele>271.33333333333337</ele><time>2026-04-25T06:33:57.999Z</time></trkpt><trkpt lat="45.733803807240115" lon="9.49032306852209"><ele>272.0</ele><time>2026-04-25T06:33:58.999Z</time></trkpt><trkpt lat="45.73372306021502" lon="9.490597522980247"><ele>273.0</ele><time>2026-04-25T06:33:59.999Z</time></trkpt><trkpt lat="45.73364240764714" lon="9.490882518623025"><ele>274.0</ele><time>2026-04-25T06:34:00.999Z</time></trkpt><trkpt lat="45.73356815523286" lon="9.491151390536972"><ele>275.0</ele><time>2026-04-25T06:34:01.999Z</time></trkpt><trkpt lat="45.73349002566619" lon="9.49143229173815"><ele>276.6666666666667</ele><time>2026-04-25T06:34:02.999Z</time></trkpt><trkpt lat="45.73341527029345" lon="9.49171403111142"><ele>278.3333333333333</ele><time>2026-04-25T06:34:03.999Z</time></trkpt><trkpt lat="45.73333891832421" lon="9.491986693835614"><ele>280.0</ele><time>2026-04-25T06:34:04.999Z</time></trkpt><trkpt lat="45.7332667478766" lon="9.492246105634193"><ele>282.3333333333333</ele><time>2026-04-25T06:34:05.999Z</time></trkpt><trkpt lat="45.7331989347759" lon="9.492484999483759"><ele>284.6666666666667</ele><time>2026-04-25T06:34:06.999Z</time></trkpt><trkpt lat="45.733140697044" lon="9.492703657242437"><ele>287.0</ele><time>2026-04-25T06:34:07.999Z</time></trkpt><trkpt lat="45.73308592558117" lon="9.492921515970641"><ele>288.25</ele><time>2026-04-25T06:34:08.999Z</time></trkpt><trkpt lat="45.73303642687808" lon="9.493100233287953"><ele>289.5</ele><time>2026-04-25T06:34:09.999Z</time></trkpt><trkpt lat="45.73297281864898" lon="9.4932383222898"><ele>290.75</ele><time>2026-04-25T06:34:10.999Z</time></trkpt><trkpt lat="45.73289188866805" lon="9.493325952166828"><ele>292.0</ele><time>2026-04-25T06:34:11.999Z</time></trkpt><trkpt lat="45.7327870334718" lon="9.493386513028119"><ele>292.2</ele><time>2026-04-25T06:34:12.999Z</time></trkpt><trkpt lat="45.732695113447654" lon="9.493435014037107"><ele>292.4</ele><time>2026-04-25T06:34:13.999Z</time></trkpt><trkpt lat="45.73264495100931" lon="9.493542440397766"><ele>292.6</ele><time>2026-04-25T06:34:14.999Z</time></trkpt><trkpt lat="45.732658601924086" lon="9.493708893339209"><ele>292.8</ele><time>2026-04-25T06:34:15.999Z</time></trkpt><trkpt lat="45.73270509487887" lon="9.493879415770756"><ele>293.0</ele><time>2026-04-25T06:34:16.999Z</time></trkpt><trkpt lat="45.73273572959024" lon="9.494075934939737"><ele>292.25</ele><time>2026-04-25T06:34:17.999Z</time></trkpt><trkpt lat="45.732719850738164" lon="9.494276529301706"><ele>291.5</ele><time>2026-04-25T06:34:18.999Z</time></trkpt><trkpt lat="45.732645413928445" lon="9.494464119922322"><ele>290.75</ele><time>2026-04-25T06:34:19.999Z</time></trkpt><trkpt lat="45.732601376796985" lon="9.494666958502956"><ele>290.0</ele><time>2026-04-25T06:34:20.999Z</time></trkpt><trkpt lat="45.73253538318076" lon="9.494873691315988"><ele>289.33333333333337</ele><time>2026-04-25T06:34:21.999Z</time></trkpt><trkpt lat="45.7324704625525" lon="9.495084724098565"><ele>288.6666666666667</ele><time>2026-04-25T06:34:22.999Z</time></trkpt><trkpt lat="45.73240867979436" lon="9.495306958046074"><ele>288.0</ele><time>2026-04-25T06:34:24Z</time></trkpt><trkpt lat="45.73235641865139" lon="9.495543637771712"><ele>288.0</ele><time>2026-04-25T06:34:25Z</time></trkpt><trkpt lat="45.73231572419066" lon="9.495785165032911"><ele>288.0</ele><time>2026-04-25T06:34:26Z</time></trkpt><trkpt lat="45.73227870161546" lon="9.496033005187815"><ele>288.0</ele><time>2026-04-25T06:34:27Z</time></trkpt><trkpt lat="45.73223759920589" lon="9.496282009389132"><ele>290.3333333333333</ele><time>2026-04-25T06:34:28Z</time></trkpt><trkpt lat="45.73219688119188" lon="9.496535945457234"><ele>292.66666666666663</ele><time>2026-04-25T06:34:29Z</time></trkpt><trkpt lat="45.73215765166927" lon="9.496786199612893"><ele>295.0</ele><time>2026-04-25T06:34:30Z</time></trkpt><trkpt lat="45.73211998952784" lon="9.497037359447386"><ele>296.66666666666663</ele><time>2026-04-25T06:34:31Z</time></trkpt><trkpt lat="45.73208075747603" lon="9.497293882729918"><ele>298.3333333333333</ele><time>2026-04-25T06:34:32Z</time></trkpt><trkpt lat="45.73203943981281" lon="9.497552647070881"><ele>300.0</ele><time>2026-04-25T06:34:33Z</time></trkpt><trkpt lat="45.731998478699126" lon="9.497815472371375"><ele>301.0</ele><time>2026-04-25T06:34:34Z</time></trkpt><trkpt lat="45.73195693581507" lon="9.49807945651509"><ele>302.0</ele><time>2026-04-25T06:34:35Z</time></trkpt><trkpt lat="45.73191425752667" lon="9.498345629022902"><ele>303.0</ele><time>2026-04-25T06:34:36Z</time></trkpt><trkpt lat="45.73187219227469" lon="9.498612552672798"><ele>300.3333333333333</ele><time>2026-04-25T06:34:37Z</time></trkpt><trkpt lat="45.7318303387255" lon="9.498884156346774"><ele>297.66666666666663</ele><time>2026-04-25T06:34:38Z</time></trkpt><trkpt lat="45.73178918540009" lon="9.49915395457055"><ele>295.0</ele><time>2026-04-25T06:34:39Z</time></trkpt><trkpt lat="45.73174612523002" lon="9.499422800707494"><ele>296.66666666666663</ele><time>2026-04-25T06:34:40Z</time></trkpt><trkpt lat="45.73170046670262" lon="9.499693464601476"><ele>298.3333333333333</ele><time>2026-04-25T06:34:41Z</time></trkpt><trkpt lat="45.73165795096382" lon="9.499962279075717"><ele>300.0</ele><time>2026-04-25T06:34:42Z</time></trkpt><trkpt lat="45.73161606374599" lon="9.500231418047365"><ele>301.0</ele><time>2026-04-25T06:34:43Z</time></trkpt><trkpt lat="45.73157341931539" lon="9.500502551890376"><ele>302.0</ele><time>2026-04-25T06:34:44Z</time></trkpt><trkpt lat="45.73152869357054" lon="9.500774157830222"><ele>303.0</ele><time>2026-04-25T06:34:45Z</time></trkpt><trkpt lat="45.731483068672006" lon="9.501046886277342"><ele>303.3333333333333</ele><time>2026-04-25T06:34:46Z</time></trkpt><trkpt lat="45.73144159907487" lon="9.501321509933717"><ele>303.66666666666663</ele><time>2026-04-25T06:34:47Z</time></trkpt><trkpt lat="45.73140970854692" lon="9.50159945677696"><ele>304.0</ele><time>2026-04-25T06:34:48Z</time></trkpt><trkpt lat="45.73139043584862" lon="9.50187935853195"><ele>304.66666666666663</ele><time>2026-04-25T06:34:49Z</time></trkpt><trkpt lat="45.731383050398286" lon="9.50216241443373"><ele>305.3333333333333</ele><time>2026-04-25T06:34:50Z</time></trkpt><trkpt lat="45.731389424532956" lon="9.502444626470256"><ele>306.0</ele><time>2026-04-25T06:34:51Z</time></trkpt><trkpt lat="45.73141119182249" lon="9.502727058649937"><ele>306.0</ele><time>2026-04-25T06:34:52Z</time></trkpt><trkpt lat="45.73144205887256" lon="9.503008697130035"><ele>306.0</ele><time>2026-04-25T06:34:53Z</time></trkpt><trkpt lat="45.73147214192057" lon="9.503289761993756"><ele>306.0</ele><time>2026-04-25T06:34:54Z</time></trkpt><trkpt lat="45.731500496522486" lon="9.503568809825236"><ele>306.6666666666667</ele><time>2026-04-25T06:34:55Z</time></trkpt><trkpt lat="45.73152970631801" lon="9.503853391739026"><ele>307.33333333333337</ele><time>2026-04-25T06:34:56Z</time></trkpt><trkpt lat="45.73155795500874" lon="9.50413980495085"><ele>308.0</ele><time>2026-04-25T06:34:57Z</time></trkpt><trkpt lat="45.73158205298858" lon="9.504424865342708"><ele>308.33333333333337</ele><time>2026-04-25T06:34:58Z</time></trkpt><trkpt lat="45.73159805868168" lon="9.504705856356182"><ele>308.6666666666667</ele><time>2026-04-25T06:34:59Z</time></trkpt><trkpt lat="45.731604825579865" lon="9.504998465956428"><ele>309.0</ele><time>2026-04-25T06:35:00Z</time></trkpt><trkpt lat="45.73160414356855" lon="9.505287746005926"><ele>309.6666666666667</ele><time>2026-04-25T06:35:01Z</time></trkpt><trkpt lat="45.7316031509392" lon="9.505579277053755"><ele>310.33333333333337</ele><time>2026-04-25T06:35:02Z</time></trkpt><trkpt lat="45.7315983923292" lon="9.505869478291599"><ele>311.0</ele><time>2026-04-25T06:35:03Z</time></trkpt><trkpt lat="45.73159253534193" lon="9.506162788850494"><ele>313.0</ele><time>2026-04-25T06:35:04Z</time></trkpt><trkpt lat="45.731582139644125" lon="9.506453082791015"><ele>315.0</ele><time>2026-04-25T06:35:05Z</time></trkpt><trkpt lat="45.73156394041569" lon="9.506748673694378"><ele>317.0</ele><time>2026-04-25T06:35:06Z</time></trkpt><trkpt lat="45.731535671070425" lon="9.507041555808682"><ele>316.33333333333337</ele><time>2026-04-25T06:35:07Z</time></trkpt><trkpt lat="45.73149861243984" lon="9.507337879509139"><ele>315.6666666666667</ele><time>2026-04-25T06:35:08Z</time></trkpt><trkpt lat="45.73145599544633" lon="9.507633715734611"><ele>315.0</ele><time>2026-04-25T06:35:09Z</time></trkpt><trkpt lat="45.73141318482253" lon="9.507928818155799"><ele>313.3333333333333</ele><time>2026-04-25T06:35:10Z</time></trkpt><trkpt lat="45.73137122273365" lon="9.508225033289822"><ele>311.66666666666663</ele><time>2026-04-25T06:35:11Z</time></trkpt><trkpt lat="45.7313286473275" lon="9.508523181552272"><ele>310.0</ele><time>2026-04-25T06:35:12Z</time></trkpt><trkpt lat="45.731285360771146" lon="9.508820174135522"><ele>309.66666666666663</ele><time>2026-04-25T06:35:13Z</time></trkpt><trkpt lat="45.731238613580466" lon="9.509115217964451"><ele>309.3333333333333</ele><time>2026-04-25T06:35:14Z</time></trkpt><trkpt lat="45.731191831214254" lon="9.509410711851892"><ele>309.0</ele><time>2026-04-25T06:35:15Z</time></trkpt><trkpt lat="45.73114587166121" lon="9.509709009446555"><ele>309.0</ele><time>2026-04-25T06:35:16Z</time></trkpt><trkpt lat="45.73110248908582" lon="9.51001264440281"><ele>309.0</ele><time>2026-04-25T06:35:17Z</time></trkpt><trkpt lat="45.7310598979277" lon="9.51032259490948"><ele>309.0</ele><time>2026-04-25T06:35:18Z</time></trkpt><trkpt lat="45.73101629103829" lon="9.510636076497983"><ele>305.0</ele><time>2026-04-25T06:35:19Z</time></trkpt><trkpt lat="45.73097152504536" lon="9.51095132763838"><ele>301.0</ele><time>2026-04-25T06:35:20Z</time></trkpt><trkpt lat="45.730926062848056" lon="9.511271147797125"><ele>299.5</ele><time>2026-04-25T06:35:21Z</time></trkpt><trkpt lat="45.73088130431788" lon="9.511588194669882"><ele>298.0</ele><time>2026-04-25T06:35:22Z</time></trkpt><trkpt lat="45.73083374711559" lon="9.511910454224942"><ele>297.0</ele><time>2026-04-25T06:35:23Z</time></trkpt><trkpt lat="45.73078529210225" lon="9.512228625136176"><ele>296.0</ele><time>2026-04-25T06:35:24Z</time></trkpt><trkpt lat="45.73073555892253" lon="9.512546956475783"><ele>296.0</ele><time>2026-04-25T06:35:25Z</time></trkpt><trkpt lat="45.730689138900495" lon="9.512863929578081"><ele>296.0</ele><time>2026-04-25T06:35:26Z</time></trkpt><trkpt lat="45.730643614292205" lon="9.513184419793408"><ele>295.5</ele><time>2026-04-25T06:35:27Z</time></trkpt><trkpt lat="45.73059806417856" lon="9.513505690707472"><ele>295.0</ele><time>2026-04-25T06:35:28Z</time></trkpt><trkpt lat="45.73055117286531" lon="9.513824314848225"><ele>295.0</ele><time>2026-04-25T06:35:29Z</time></trkpt><trkpt lat="45.73050449027214" lon="9.514140091962373"><ele>295.0</ele><time>2026-04-25T06:35:30Z</time></trkpt><trkpt lat="45.73045649027334" lon="9.514461320512538"><ele>295.0</ele><time>2026-04-25T06:35:31Z</time></trkpt><trkpt lat="45.73040779278558" lon="9.514775066374089"><ele>295.0</ele><time>2026-04-25T06:35:31.999Z</time></trkpt><trkpt lat="45.73036002960494" lon="9.515097264984647"><ele>295.0</ele><time>2026-04-25T06:35:32.999Z</time></trkpt><trkpt lat="45.73031356887595" lon="9.515414566127864"><ele>295.0</ele><time>2026-04-25T06:35:33.999Z</time></trkpt><trkpt lat="45.73026786789191" lon="9.515735602068089"><ele>294.5</ele><time>2026-04-25T06:35:34.999Z</time></trkpt><trkpt lat="45.73022240198449" lon="9.516056370732715"><ele>294.0</ele><time>2026-04-25T06:35:35.999Z</time></trkpt><trkpt lat="45.73017574788781" lon="9.516380555497127"><ele>294.0</ele><time>2026-04-25T06:35:36.999Z</time></trkpt><trkpt lat="45.730128607941516" lon="9.51670634617377"><ele>294.0</ele><time>2026-04-25T06:35:37.999Z</time></trkpt><trkpt lat="45.730080327570555" lon="9.5170316817133"><ele>294.5</ele><time>2026-04-25T06:35:38.999Z</time></trkpt><trkpt lat="45.73003474071984" lon="9.51735792220809"><ele>295.0</ele><time>2026-04-25T06:35:39.999Z</time></trkpt><trkpt lat="45.72999259930108" lon="9.517684442598208"><ele>295.0</ele><time>2026-04-25T06:35:40.999Z</time></trkpt><trkpt lat="45.72996059403596" lon="9.518015151292582"><ele>295.0</ele><time>2026-04-25T06:35:41.999Z</time></trkpt><trkpt lat="45.72994332361085" lon="9.518349580390495"><ele>295.0</ele><time>2026-04-25T06:35:42.999Z</time></trkpt><trkpt lat="45.72994499218026" lon="9.518684121470269"><ele>295.0</ele><time>2026-04-25T06:35:43.999Z</time></trkpt><trkpt lat="45.72996247770158" lon="9.51901547073796"><ele>294.5</ele><time>2026-04-25T06:35:44.999Z</time></trkpt><trkpt lat="45.72998971631533" lon="9.51934283726894"><ele>294.0</ele><time>2026-04-25T06:35:45.999Z</time></trkpt><trkpt lat="45.730019242514516" lon="9.519670043971383"><ele>293.5</ele><time>2026-04-25T06:35:46.999Z</time></trkpt><trkpt lat="45.73004342763218" lon="9.51999579901799"><ele>293.0</ele><time>2026-04-25T06:35:47.999Z</time></trkpt><trkpt lat="45.73006454059418" lon="9.520323087048714"><ele>293.0</ele><time>2026-04-25T06:35:48.999Z</time></trkpt><trkpt lat="45.730086967464935" lon="9.520648552224541"><ele>293.0</ele><time>2026-04-25T06:35:49.999Z</time></trkpt><trkpt lat="45.73011368301347" lon="9.520970509090315"><ele>293.5</ele><time>2026-04-25T06:35:50.999Z</time></trkpt><trkpt lat="45.730141728850626" lon="9.521295709398379"><ele>294.0</ele><time>2026-04-25T06:35:51.999Z</time></trkpt><trkpt lat="45.730166429071524" lon="9.521613646680564"><ele>294.0</ele><time>2026-04-25T06:35:52.999Z</time></trkpt><trkpt lat="45.73019142206898" lon="9.521931134297501"><ele>294.0</ele><time>2026-04-25T06:35:53.999Z</time></trkpt><trkpt lat="45.73021612491168" lon="9.522253550644194"><ele>294.0</ele><time>2026-04-25T06:35:54.999Z</time></trkpt><trkpt lat="45.73023970764279" lon="9.522580882076207"><ele>294.3333333333333</ele><time>2026-04-25T06:35:55.999Z</time></trkpt><trkpt lat="45.7302626427005" lon="9.522897163567114"><ele>294.66666666666663</ele><time>2026-04-25T06:35:56.999Z</time></trkpt><trkpt lat="45.73028495895061" lon="9.5232160787751"><ele>295.0</ele><time>2026-04-25T06:35:57.999Z</time></trkpt><trkpt lat="45.73030891360845" lon="9.523532831756473"><ele>295.66666666666663</ele><time>2026-04-25T06:35:58.999Z</time></trkpt><trkpt lat="45.73032719384244" lon="9.523850519628516"><ele>296.3333333333333</ele><time>2026-04-25T06:35:59.999Z</time></trkpt><trkpt lat="45.730331318860365" lon="9.524169545699646"><ele>297.0</ele><time>2026-04-25T06:36:00.999Z</time></trkpt><trkpt lat="45.73031701766119" lon="9.524486664664211"><ele>298.0</ele><time>2026-04-25T06:36:01.999Z</time></trkpt><trkpt lat="45.73028392221398" lon="9.52480274430967"><ele>299.0</ele><time>2026-04-25T06:36:02.999Z</time></trkpt><trkpt lat="45.73023429061369" lon="9.525113559585806"><ele>300.0</ele><time>2026-04-25T06:36:03.999Z</time></trkpt><trkpt lat="45.73017417202178" lon="9.525416607248689"><ele>296.6666666666667</ele><time>2026-04-25T06:36:04.999Z</time></trkpt><trkpt lat="45.73010730097693" lon="9.525715150007354"><ele>293.33333333333337</ele><time>2026-04-25T06:36:05.999Z</time></trkpt><trkpt lat="45.73003874204134" lon="9.526012987947237"><ele>290.0</ele><time>2026-04-25T06:36:06.999Z</time></trkpt><trkpt lat="45.72997410117057" lon="9.526311439060851"><ele>290.0</ele><time>2026-04-25T06:36:07.999Z</time></trkpt><trkpt lat="45.729911253795315" lon="9.526609390818045"><ele>290.0</ele><time>2026-04-25T06:36:08.999Z</time></trkpt><trkpt lat="45.72985014198985" lon="9.526909783040054"><ele>290.0</ele><time>2026-04-25T06:36:09.999Z</time></trkpt><trkpt lat="45.729790491514734" lon="9.527213293084738"><ele>290.0</ele><time>2026-04-25T06:36:10.999Z</time></trkpt><trkpt lat="45.72972941495841" lon="9.527516220523303"><ele>290.0</ele><time>2026-04-25T06:36:11.999Z</time></trkpt><trkpt lat="45.729670481701106" lon="9.527817951443728"><ele>290.0</ele><time>2026-04-25T06:36:12.999Z</time></trkpt><trkpt lat="45.72960884875425" lon="9.528120518865961"><ele>290.0</ele><time>2026-04-25T06:36:13.999Z</time></trkpt><trkpt lat="45.72954459595081" lon="9.528424297290234"><ele>290.0</ele><time>2026-04-25T06:36:14.999Z</time></trkpt><trkpt lat="45.72947957946195" lon="9.52872385255643"><ele>290.0</ele><time>2026-04-25T06:36:15.999Z</time></trkpt><trkpt lat="45.72940862550821" lon="9.529016363933941"><ele>289.33333333333337</ele><time>2026-04-25T06:36:16.999Z</time></trkpt><trkpt lat="45.72933081421126" lon="9.529305087692922"><ele>288.6666666666667</ele><time>2026-04-25T06:36:17.999Z</time></trkpt><trkpt lat="45.72924858120582" lon="9.529588375089187"><ele>288.0</ele><time>2026-04-25T06:36:18.999Z</time></trkpt><trkpt lat="45.72915743201781" lon="9.529861555532793"><ele>288.0</ele><time>2026-04-25T06:36:19.999Z</time></trkpt><trkpt lat="45.729066179042235" lon="9.530115722858303"><ele>288.0</ele><time>2026-04-25T06:36:20.999Z</time></trkpt><trkpt lat="45.72897213691154" lon="9.530354099381501"><ele>288.0</ele><time>2026-04-25T06:36:21.999Z</time></trkpt><trkpt lat="45.72887746325815" lon="9.530579904073884"><ele>288.0</ele><time>2026-04-25T06:36:22.999Z</time></trkpt><trkpt lat="45.72878023976496" lon="9.530807546957076"><ele>288.0</ele><time>2026-04-25T06:36:23.999Z</time></trkpt><trkpt lat="45.728686658022895" lon="9.531036605488389"><ele>288.0</ele><time>2026-04-25T06:36:24.999Z</time></trkpt><trkpt lat="45.72859315463876" lon="9.531268086086595"><ele>287.6666666666667</ele><time>2026-04-25T06:36:25.999Z</time></trkpt><trkpt lat="45.72850288075384" lon="9.531507888231605"><ele>287.33333333333337</ele><time>2026-04-25T06:36:26.999Z</time></trkpt><trkpt lat="45.728407840971514" lon="9.531744557270198"><ele>287.0</ele><time>2026-04-25T06:36:27.999Z</time></trkpt><trkpt lat="45.728303221397915" lon="9.531976847401133"><ele>286.33333333333337</ele><time>2026-04-25T06:36:28.999Z</time></trkpt><trkpt lat="45.72819528611274" lon="9.532210789995656"><ele>285.6666666666667</ele><time>2026-04-25T06:36:30Z</time></trkpt><trkpt lat="45.72809031802356" lon="9.53245199970328"><ele>285.0</ele><time>2026-04-25T06:36:31Z</time></trkpt><trkpt lat="45.72798823735824" lon="9.532697726984805"><ele>285.0</ele><time>2026-04-25T06:36:32Z</time></trkpt><trkpt lat="45.727883772662985" lon="9.532944993023161"><ele>285.0</ele><time>2026-04-25T06:36:33Z</time></trkpt><trkpt lat="45.727775981866145" lon="9.53319557634313"><ele>285.0</ele><time>2026-04-25T06:36:34Z</time></trkpt><trkpt lat="45.72766743452521" lon="9.533448772407318"><ele>284.3333333333333</ele><time>2026-04-25T06:36:35Z</time></trkpt><trkpt lat="45.7275607031054" lon="9.533705406053304"><ele>283.66666666666663</ele><time>2026-04-25T06:36:36Z</time></trkpt><trkpt lat="45.72745657567565" lon="9.533965786089652"><ele>283.0</ele><time>2026-04-25T06:36:37Z</time></trkpt><trkpt lat="45.7273578231031" lon="9.53422905123705"><ele>283.0</ele><time>2026-04-25T06:36:38Z</time></trkpt><trkpt lat="45.72726890290209" lon="9.534500426355052"><ele>283.0</ele><time>2026-04-25T06:36:39Z</time></trkpt><trkpt lat="45.727190878623325" lon="9.534782276346167"><ele>283.0</ele><time>2026-04-25T06:36:40Z</time></trkpt><trkpt lat="45.72712813036712" lon="9.535073587158779"><ele>282.66666666666663</ele><time>2026-04-25T06:36:41Z</time></trkpt><trkpt lat="45.72708620547408" lon="9.53537422258644"><ele>282.3333333333333</ele><time>2026-04-25T06:36:42Z</time></trkpt><trkpt lat="45.727059740656316" lon="9.535676143051097"><ele>282.0</ele><time>2026-04-25T06:36:43Z</time></trkpt><trkpt lat="45.727052053310054" lon="9.535981840449002"><ele>281.3333333333333</ele><time>2026-04-25T06:36:44Z</time></trkpt><trkpt lat="45.72706305137769" lon="9.536284480627153"><ele>280.66666666666663</ele><time>2026-04-25T06:36:45Z</time></trkpt><trkpt lat="45.72708288713337" lon="9.536587875871557"><ele>280.0</ele><time>2026-04-25T06:36:46Z</time></trkpt><trkpt lat="45.72710407653427" lon="9.536890971074182"><ele>279.3333333333333</ele><time>2026-04-25T06:36:47Z</time></trkpt><trkpt lat="45.72712594534425" lon="9.537195449782695"><ele>278.6666666666667</ele><time>2026-04-25T06:36:48Z</time></trkpt><trkpt lat="45.727149188176135" lon="9.53750034852586"><ele>278.0</ele><time>2026-04-25T06:36:49Z</time></trkpt><trkpt lat="45.72717215721309" lon="9.537800044356297"><ele>278.33333333333337</ele><time>2026-04-25T06:36:50Z</time></trkpt><trkpt lat="45.72719198298291" lon="9.538103682102353"><ele>278.6666666666667</ele><time>2026-04-25T06:36:51Z</time></trkpt><trkpt lat="45.72721084423545" lon="9.538404324445397"><ele>279.0</ele><time>2026-04-25T06:36:52Z</time></trkpt><trkpt lat="45.72722756448385" lon="9.538703626934115"><ele>279.0</ele><time>2026-04-25T06:36:53Z</time></trkpt><trkpt lat="45.72724588872377" lon="9.539001056822165"><ele>279.0</ele><time>2026-04-25T06:36:54Z</time></trkpt><trkpt lat="45.72726463670135" lon="9.539297292739219"><ele>279.0</ele><time>2026-04-25T06:36:55Z</time></trkpt><trkpt lat="45.727284865672914" lon="9.539595787902833"><ele>278.3333333333333</ele><time>2026-04-25T06:36:56Z</time></trkpt><trkpt lat="45.72730440708635" lon="9.53989400040392"><ele>277.66666666666663</ele><time>2026-04-25T06:36:57Z</time></trkpt><trkpt lat="45.727324214097976" lon="9.540191024537327"><ele>277.0</ele><time>2026-04-25T06:36:58Z</time></trkpt><trkpt lat="45.72734236237669" lon="9.54048696909204"><ele>277.0</ele><time>2026-04-25T06:36:59Z</time></trkpt><trkpt lat="45.72736069476328" lon="9.540782806971928"><ele>277.0</ele><time>2026-04-25T06:37:00Z</time></trkpt><trkpt lat="45.72738008648416" lon="9.541076805753889"><ele>277.0</ele><time>2026-04-25T06:37:01Z</time></trkpt><trkpt lat="45.72739657649672" lon="9.541370877992074"><ele>276.3333333333333</ele><time>2026-04-25T06:37:02Z</time></trkpt><trkpt lat="45.727404935802184" lon="9.541666429161925"><ele>275.6666666666667</ele><time>2026-04-25T06:37:03Z</time></trkpt><trkpt lat="45.72740777786283" lon="9.541961712267339"><ele>275.0</ele><time>2026-04-25T06:37:04Z</time></trkpt><trkpt lat="45.72740830413116" lon="9.542256931763667"><ele>274.6666666666667</ele><time>2026-04-25T06:37:05Z</time></trkpt><trkpt lat="45.72740491140944" lon="9.54255537670042"><ele>274.3333333333333</ele><time>2026-04-25T06:37:06Z</time></trkpt><trkpt lat="45.72739665554438" lon="9.542854517015064"><ele>274.0</ele><time>2026-04-25T06:37:07Z</time></trkpt><trkpt lat="45.72738473192153" lon="9.543154115840847"><ele>273.66666666666663</ele><time>2026-04-25T06:37:08Z</time></trkpt><trkpt lat="45.72736721741629" lon="9.543452854277849"><ele>273.3333333333333</ele><time>2026-04-25T06:37:09Z</time></trkpt><trkpt lat="45.727342587998" lon="9.543749723763774"><ele>273.0</ele><time>2026-04-25T06:37:10Z</time></trkpt><trkpt lat="45.72731695719577" lon="9.54404505825318"><ele>273.0</ele><time>2026-04-25T06:37:11Z</time></trkpt><trkpt lat="45.72729079603488" lon="9.544340642491852"><ele>273.0</ele><time>2026-04-25T06:37:12Z</time></trkpt><trkpt lat="45.72726341263268" lon="9.544635868577274"><ele>273.0</ele><time>2026-04-25T06:37:13Z</time></trkpt><trkpt lat="45.727237447001606" lon="9.544928339159897"><ele>273.0</ele><time>2026-04-25T06:37:14Z</time></trkpt><trkpt lat="45.72721245552039" lon="9.54521984013016"><ele>273.0</ele><time>2026-04-25T06:37:15Z</time></trkpt><trkpt lat="45.72718714225265" lon="9.545511794823744"><ele>273.0</ele><time>2026-04-25T06:37:16Z</time></trkpt><trkpt lat="45.727162836625695" lon="9.545803760487066"><ele>273.0</ele><time>2026-04-25T06:37:17Z</time></trkpt><trkpt lat="45.727142026438166" lon="9.546093882309732"><ele>273.0</ele><time>2026-04-25T06:37:18Z</time></trkpt><trkpt lat="45.7271223994806" lon="9.546384128998739"><ele>273.0</ele><time>2026-04-25T06:37:19Z</time></trkpt><trkpt lat="45.72710491945877" lon="9.54667279244169"><ele>273.0</ele><time>2026-04-25T06:37:20Z</time></trkpt><trkpt lat="45.72708548623568" lon="9.546959028645297"><ele>273.0</ele><time>2026-04-25T06:37:21Z</time></trkpt><trkpt lat="45.72706022488859" lon="9.547242782107777"><ele>273.0</ele><time>2026-04-25T06:37:22Z</time></trkpt><trkpt lat="45.72702663269282" lon="9.547521830176633"><ele>273.6666666666667</ele><time>2026-04-25T06:37:22.999Z</time></trkpt><trkpt lat="45.72698237978334" lon="9.547800485842856"><ele>274.33333333333337</ele><time>2026-04-25T06:37:23.999Z</time></trkpt><trkpt lat="45.72692915031444" lon="9.548072991470491"><ele>275.0</ele><time>2026-04-25T06:37:24.999Z</time></trkpt><trkpt lat="45.7268695229167" lon="9.548340608170873"><ele>274.0</ele><time>2026-04-25T06:37:25.999Z</time></trkpt><trkpt lat="45.72680011787985" lon="9.548592724012941"><ele>273.0</ele><time>2026-04-25T06:37:26.999Z</time></trkpt><trkpt lat="45.72672210275822" lon="9.548828124171814"><ele>272.0</ele><time>2026-04-25T06:37:27.999Z</time></trkpt><trkpt lat="45.72662424849688" lon="9.54903435654546"><ele>272.0</ele><time>2026-04-25T06:37:28.999Z</time></trkpt><trkpt lat="45.726513890900954" lon="9.549232347809584"><ele>272.0</ele><time>2026-04-25T06:37:29.999Z</time></trkpt><trkpt lat="45.726397221776196" lon="9.549426021055146"><ele>272.0</ele><time>2026-04-25T06:37:30.999Z</time></trkpt><trkpt lat="45.72627636274411" lon="9.549616391201068"><ele>271.6666666666667</ele><time>2026-04-25T06:37:31.999Z</time></trkpt><trkpt lat="45.72615208635758" lon="9.549803930477701"><ele>271.3333333333333</ele><time>2026-04-25T06:37:32.999Z</time></trkpt><trkpt lat="45.72602713639262" lon="9.549984509142476"><ele>271.0</ele><time>2026-04-25T06:37:33.999Z</time></trkpt><trkpt lat="45.72590413300797" lon="9.550160634867492"><ele>270.66666666666663</ele><time>2026-04-25T06:37:34.999Z</time></trkpt><trkpt lat="45.72578448472285" lon="9.550334334717983"><ele>270.3333333333333</ele><time>2026-04-25T06:37:35.999Z</time></trkpt><trkpt lat="45.725668972910746" lon="9.550502831149112"><ele>270.0</ele><time>2026-04-25T06:37:36.999Z</time></trkpt><trkpt lat="45.725558784717634" lon="9.550665447534211"><ele>270.0</ele><time>2026-04-25T06:37:37.999Z</time></trkpt><trkpt lat="45.72545434276663" lon="9.550817765116282"><ele>270.0</ele><time>2026-04-25T06:37:38.999Z</time></trkpt><trkpt lat="45.72535355508389" lon="9.55096467995959"><ele>270.0</ele><time>2026-04-25T06:37:39.999Z</time></trkpt><trkpt lat="45.72525924291056" lon="9.551104671908588"><ele>270.0</ele><time>2026-04-25T06:37:40.999Z</time></trkpt><trkpt lat="45.72517724470673" lon="9.551224950303318"><ele>270.0</ele><time>2026-04-25T06:37:41.999Z</time></trkpt><trkpt lat="45.72510623846213" lon="9.55133530213516"><ele>270.0</ele><time>2026-04-25T06:37:42.999Z</time></trkpt><trkpt lat="45.72503489603847" lon="9.551425268221227"><ele>270.0</ele><time>2026-04-25T06:37:43.999Z</time></trkpt><trkpt lat="45.72495413363266" lon="9.551484736545694"><ele>270.0</ele><time>2026-04-25T06:37:44.999Z</time></trkpt><trkpt lat="45.724871000585274" lon="9.551510385688939"><ele>270.0</ele><time>2026-04-25T06:37:45.999Z</time></trkpt><trkpt lat="45.724788042434405" lon="9.551527102684465"><ele>270.0</ele><time>2026-04-25T06:37:46.999Z</time></trkpt><trkpt lat="45.72471000619205" lon="9.551575679472213"><ele>270.0</ele><time>2026-04-25T06:37:47.999Z</time></trkpt><trkpt lat="45.72465255055244" lon="9.551670549894455"><ele>270.0</ele><time>2026-04-25T06:37:48.999Z</time></trkpt><trkpt lat="45.72462070242803" lon="9.551797830060734"><ele>270.0</ele><time>2026-04-25T06:37:49.999Z</time></trkpt><trkpt lat="45.72459368879492" lon="9.55193082442336"><ele>270.0</ele><time>2026-04-25T06:37:50.999Z</time></trkpt><trkpt lat="45.72454803888235" lon="9.55206238614378"><ele>269.75</ele><time>2026-04-25T06:37:51.999Z</time></trkpt><trkpt lat="45.72448152525635" lon="9.552188017490062"><ele>269.5</ele><time>2026-04-25T06:37:52.999Z</time></trkpt><trkpt lat="45.724396700697994" lon="9.552304726875697"><ele>269.25</ele><time>2026-04-25T06:37:53.999Z</time></trkpt><trkpt lat="45.72430737597731" lon="9.552428264379891"><ele>269.0</ele><time>2026-04-25T06:37:54.999Z</time></trkpt><trkpt lat="45.724216081534124" lon="9.552564552268967"><ele>269.0</ele><time>2026-04-25T06:37:55.999Z</time></trkpt><trkpt lat="45.724116644920116" lon="9.552707435634616"><ele>269.0</ele><time>2026-04-25T06:37:56.999Z</time></trkpt><trkpt lat="45.72400992130373" lon="9.552855211980294"><ele>269.0</ele><time>2026-04-25T06:37:57.999Z</time></trkpt><trkpt lat="45.72390062749221" lon="9.5530106556877"><ele>269.0</ele><time>2026-04-25T06:37:58.999Z</time></trkpt><trkpt lat="45.72378966342137" lon="9.553171022893986"><ele>269.0</ele><time>2026-04-25T06:37:59.999Z</time></trkpt><trkpt lat="45.72367636783783" lon="9.553335187681308"><ele>269.0</ele><time>2026-04-25T06:38:00.999Z</time></trkpt><trkpt lat="45.72355931844434" lon="9.553499878022018"><ele>269.0</ele><time>2026-04-25T06:38:01.999Z</time></trkpt><trkpt lat="45.72343837781802" lon="9.55366572618669"><ele>269.0</ele><time>2026-04-25T06:38:02.999Z</time></trkpt><trkpt lat="45.7233156704834" lon="9.553837398051966"><ele>269.0</ele><time>2026-04-25T06:38:03.999Z</time></trkpt><trkpt lat="45.72319053609645" lon="9.55401043099861"><ele>269.0</ele><time>2026-04-25T06:38:04.999Z</time></trkpt><trkpt lat="45.723061018223966" lon="9.554181380791183"><ele>269.0</ele><time>2026-04-25T06:38:05.999Z</time></trkpt><trkpt lat="45.72292709143262" lon="9.554348992831237"><ele>269.0</ele><time>2026-04-25T06:38:06.999Z</time></trkpt><trkpt lat="45.722787220355166" lon="9.554505334310525"><ele>269.0</ele><time>2026-04-25T06:38:07.999Z</time></trkpt><trkpt lat="45.722640972827854" lon="9.5546481037042"><ele>268.6666666666667</ele><time>2026-04-25T06:38:08.999Z</time></trkpt><trkpt lat="45.72248819047105" lon="9.554778909887466"><ele>268.3333333333333</ele><time>2026-04-25T06:38:09.999Z</time></trkpt><trkpt lat="45.72232883435613" lon="9.554899421143848"><ele>268.0</ele><time>2026-04-25T06:38:10.999Z</time></trkpt><trkpt lat="45.72216911885632" lon="9.55500538806344"><ele>268.0</ele><time>2026-04-25T06:38:11.999Z</time></trkpt><trkpt lat="45.72201099216626" lon="9.555096495635615"><ele>268.0</ele><time>2026-04-25T06:38:12.999Z</time></trkpt><trkpt lat="45.721850529104465" lon="9.555175736594657"><ele>268.0</ele><time>2026-04-25T06:38:13.999Z</time></trkpt><trkpt lat="45.72168730518692" lon="9.555244020556614"><ele>268.0</ele><time>2026-04-25T06:38:14.999Z</time></trkpt><trkpt lat="45.721522999062806" lon="9.555304321550922"><ele>268.0</ele><time>2026-04-25T06:38:15.999Z</time></trkpt><trkpt lat="45.72135883036444" lon="9.555360125381435"><ele>268.0</ele><time>2026-04-25T06:38:16.999Z</time></trkpt><trkpt lat="45.721195966216506" lon="9.555415941178216"><ele>267.0</ele><time>2026-04-25T06:38:17.999Z</time></trkpt><trkpt lat="45.7210356436128" lon="9.55547445691183"><ele>266.0</ele><time>2026-04-25T06:38:18.999Z</time></trkpt><trkpt lat="45.72087630679801" lon="9.555535468417936"><ele>265.0</ele><time>2026-04-25T06:38:19.999Z</time></trkpt><trkpt lat="45.720713008388515" lon="9.555563513260424"><ele>265.0</ele><time>2026-04-25T06:38:20.999Z</time></trkpt><trkpt lat="45.72055032663794" lon="9.555607926097741"><ele>265.0</ele><time>2026-04-25T06:38:21.999Z</time></trkpt><trkpt lat="45.720388804173005" lon="9.555649261449602"><ele>265.0</ele><time>2026-04-25T06:38:22.999Z</time></trkpt><trkpt lat="45.72023656686356" lon="9.55567984879679"><ele>265.5</ele><time>2026-04-25T06:38:23.999Z</time></trkpt><trkpt lat="45.72008892619092" lon="9.555704551446814"><ele>266.0</ele><time>2026-04-25T06:38:24.999Z</time></trkpt><trkpt lat="45.71995303372061" lon="9.555727288465532"><ele>266.5</ele><time>2026-04-25T06:38:25.999Z</time></trkpt><trkpt lat="45.719844209969764" lon="9.55576234425357"><ele>267.0</ele><time>2026-04-25T06:38:26.999Z</time></trkpt><trkpt lat="45.7197676860494" lon="9.555745245521225"><ele>267.0</ele><time>2026-04-25T06:38:27.999Z</time></trkpt><trkpt lat="45.71970049083135" lon="9.555720359012849"><ele>267.0</ele><time>2026-04-25T06:38:29.999Z</time></trkpt><trkpt lat="45.719617245969204" lon="9.555626340739865"><ele>267.0</ele><time>2026-04-25T06:38:31.999Z</time></trkpt><trkpt lat="45.719551755805796" lon="9.55558617625849"><ele>267.0</ele><time>2026-04-25T06:38:32.999Z</time></trkpt><trkpt lat="45.71946473197935" lon="9.555610268997542"><ele>267.0</ele><time>2026-04-25T06:38:33.999Z</time></trkpt><trkpt lat="45.719393592693116" lon="9.555704808822302"><ele>267.0</ele><time>2026-04-25T06:38:34.999Z</time></trkpt><trkpt lat="45.71933878308613" lon="9.555829650593564"><ele>266.5</ele><time>2026-04-25T06:38:36Z</time></trkpt><trkpt lat="45.71925460231795" lon="9.555934279078405"><ele>266.0</ele><time>2026-04-25T06:38:37Z</time></trkpt><trkpt lat="45.71913419590338" lon="9.556006407205356"><ele>265.5</ele><time>2026-04-25T06:38:38Z</time></trkpt><trkpt lat="45.719003529415815" lon="9.556065753185196"><ele>265.0</ele><time>2026-04-25T06:38:39Z</time></trkpt><trkpt lat="45.718867254279324" lon="9.556117128265278"><ele>265.0</ele><time>2026-04-25T06:38:40Z</time></trkpt><trkpt lat="45.71872638733122" lon="9.556170149752017"><ele>265.0</ele><time>2026-04-25T06:38:41Z</time></trkpt><trkpt lat="45.71857781150788" lon="9.55622153674525"><ele>265.0</ele><time>2026-04-25T06:38:42Z</time></trkpt><trkpt lat="45.71842348270052" lon="9.5562732218356"><ele>264.66666666666663</ele><time>2026-04-25T06:38:43Z</time></trkpt><trkpt lat="45.718264983546746" lon="9.556325341215926"><ele>264.3333333333333</ele><time>2026-04-25T06:38:44Z</time></trkpt><trkpt lat="45.71810244508015" lon="9.556376744995537"><ele>264.0</ele><time>2026-04-25T06:38:45Z</time></trkpt><trkpt lat="45.71794254661425" lon="9.556429954050792"><ele>264.0</ele><time>2026-04-25T06:38:46Z</time></trkpt><trkpt lat="45.71777990432524" lon="9.55648660325204"><ele>264.0</ele><time>2026-04-25T06:38:47Z</time></trkpt><trkpt lat="45.717614189329055" lon="9.556546527699112"><ele>264.0</ele><time>2026-04-25T06:38:48Z</time></trkpt><trkpt lat="45.717447842726024" lon="9.55660690111354"><ele>264.0</ele><time>2026-04-25T06:38:49Z</time></trkpt><trkpt lat="45.7172827939898" lon="9.556674801866713"><ele>264.0</ele><time>2026-04-25T06:38:50Z</time></trkpt><trkpt lat="45.71712332223565" lon="9.556761774916318"><ele>264.0</ele><time>2026-04-25T06:38:51Z</time></trkpt><trkpt lat="45.716969444326004" lon="9.556867911111194"><ele>263.6666666666667</ele><time>2026-04-25T06:38:52Z</time></trkpt><trkpt lat="45.71682396981276" lon="9.556993764916895"><ele>263.33333333333337</ele><time>2026-04-25T06:38:53Z</time></trkpt><trkpt lat="45.716688685241735" lon="9.557141680634743"><ele>263.0</ele><time>2026-04-25T06:38:54Z</time></trkpt><trkpt lat="45.71655715461469" lon="9.557301475960717"><ele>262.6666666666667</ele><time>2026-04-25T06:38:55Z</time></trkpt><trkpt lat="45.71642508918934" lon="9.557462528136263"><ele>262.3333333333333</ele><time>2026-04-25T06:38:56Z</time></trkpt><trkpt lat="45.716293744876246" lon="9.557620975564262"><ele>262.0</ele><time>2026-04-25T06:38:57Z</time></trkpt><trkpt lat="45.716165700325156" lon="9.557776758059735"><ele>262.0</ele><time>2026-04-25T06:38:58Z</time></trkpt><trkpt lat="45.716038060702026" lon="9.5579300514294"><ele>262.0</ele><time>2026-04-25T06:38:59Z</time></trkpt><trkpt lat="45.71591170906943" lon="9.558079092009734"><ele>262.0</ele><time>2026-04-25T06:39:00Z</time></trkpt><trkpt lat="45.71578721537949" lon="9.558226674557492"><ele>262.0</ele><time>2026-04-25T06:39:01Z</time></trkpt><trkpt lat="45.715665303415875" lon="9.558369786400865"><ele>262.0</ele><time>2026-04-25T06:39:02Z</time></trkpt><trkpt lat="45.715544260390814" lon="9.558510297974822"><ele>262.0</ele><time>2026-04-25T06:39:03Z</time></trkpt><trkpt lat="45.71542418452445" lon="9.558650732580164"><ele>261.75</ele><time>2026-04-25T06:39:04Z</time></trkpt><trkpt lat="45.71530891278946" lon="9.558785814487543"><ele>261.5</ele><time>2026-04-25T06:39:05Z</time></trkpt><trkpt lat="45.71519982739962" lon="9.558912833137281"><ele>261.25</ele><time>2026-04-25T06:39:06Z</time></trkpt><trkpt lat="45.715097789277785" lon="9.559032614480293"><ele>261.0</ele><time>2026-04-25T06:39:07Z</time></trkpt><trkpt lat="45.71500148104204" lon="9.559147477582515"><ele>260.75</ele><time>2026-04-25T06:39:08Z</time></trkpt><trkpt lat="45.714912534095966" lon="9.559256514666027"><ele>260.5</ele><time>2026-04-25T06:39:09Z</time></trkpt><trkpt lat="45.71482704608535" lon="9.559367754151912"><ele>260.25</ele><time>2026-04-25T06:39:10Z</time></trkpt><trkpt lat="45.71474474259802" lon="9.559483569732667"><ele>260.0</ele><time>2026-04-25T06:39:11Z</time></trkpt><trkpt lat="45.71467381575383" lon="9.559592083690378"><ele>260.0</ele><time>2026-04-25T06:39:12Z</time></trkpt><trkpt lat="45.71461732896648" lon="9.559684778573896"><ele>260.0</ele><time>2026-04-25T06:39:13Z</time></trkpt><trkpt lat="45.714571252546435" lon="9.559757650583839"><ele>260.0</ele><time>2026-04-25T06:39:14Z</time></trkpt><trkpt lat="45.714469875552325" lon="9.559864914308784"><ele>260.0</ele><time>2026-04-25T06:39:16Z</time></trkpt><trkpt lat="45.714406307642584" lon="9.559918132858838"><ele>260.0</ele><time>2026-04-25T06:39:17Z</time></trkpt><trkpt lat="45.714336262629274" lon="9.559974823509618"><ele>260.0</ele><time>2026-04-25T06:39:18Z</time></trkpt><trkpt lat="45.714269123548526" lon="9.560055773947612"><ele>259.6</ele><time>2026-04-25T06:39:18.999Z</time></trkpt><trkpt lat="45.71420772445815" lon="9.560164725380668"><ele>259.2</ele><time>2026-04-25T06:39:19.999Z</time></trkpt><trkpt lat="45.714143116786" lon="9.560273875165121"><ele>258.8</ele><time>2026-04-25T06:39:20.999Z</time></trkpt><trkpt lat="45.7140563442239" lon="9.560371255669235"><ele>258.4</ele><time>2026-04-25T06:39:21.999Z</time></trkpt><trkpt lat="45.71395393148907" lon="9.560462466448788"><ele>258.0</ele><time>2026-04-25T06:39:22.999Z</time></trkpt><trkpt lat="45.71384071018375" lon="9.560560216256663"><ele>258.0</ele><time>2026-04-25T06:39:23.999Z</time></trkpt><trkpt lat="45.71371948258814" lon="9.560674709323978"><ele>258.0</ele><time>2026-04-25T06:39:24.999Z</time></trkpt><trkpt lat="45.713586626584465" lon="9.560815978034732"><ele>258.0</ele><time>2026-04-25T06:39:25.999Z</time></trkpt><trkpt lat="45.71345843649354" lon="9.560963699954788"><ele>257.3333333333333</ele><time>2026-04-25T06:39:26.999Z</time></trkpt><trkpt lat="45.71332501408341" lon="9.56111708662921"><ele>256.66666666666663</ele><time>2026-04-25T06:39:27.999Z</time></trkpt><trkpt lat="45.713189339184076" lon="9.561275535187557"><ele>256.0</ele><time>2026-04-25T06:39:28.999Z</time></trkpt><trkpt lat="45.71305138269737" lon="9.561438298306278"><ele>256.0</ele><time>2026-04-25T06:39:29.999Z</time></trkpt><trkpt lat="45.71291135696295" lon="9.561605070562644"><ele>256.0</ele><time>2026-04-25T06:39:30.999Z</time></trkpt><trkpt lat="45.712768980076504" lon="9.561771825389378"><ele>256.0</ele><time>2026-04-25T06:39:31.999Z</time></trkpt><trkpt lat="45.712627919716425" lon="9.561936829016794"><ele>255.33333333333331</ele><time>2026-04-25T06:39:32.999Z</time></trkpt><trkpt lat="45.712485413300065" lon="9.562104145123332"><ele>254.66666666666669</ele><time>2026-04-25T06:39:33.999Z</time></trkpt><trkpt lat="45.71234188270137" lon="9.562272721354615"><ele>254.0</ele><time>2026-04-25T06:39:34.999Z</time></trkpt><trkpt lat="45.712196962053824" lon="9.56244418193141"><ele>254.0</ele><time>2026-04-25T06:39:35.999Z</time></trkpt><trkpt lat="45.71205286140622" lon="9.56261894309625"><ele>254.0</ele><time>2026-04-25T06:39:36.999Z</time></trkpt><trkpt lat="45.71190881651553" lon="9.562798739836593"><ele>254.0</ele><time>2026-04-25T06:39:37.999Z</time></trkpt><trkpt lat="45.71176685285342" lon="9.562982781763683"><ele>253.66666666666669</ele><time>2026-04-25T06:39:38.999Z</time></trkpt><trkpt lat="45.71162553675915" lon="9.56316933662952"><ele>253.33333333333331</ele><time>2026-04-25T06:39:39.999Z</time></trkpt><trkpt lat="45.71148492974917" lon="9.563357566961827"><ele>253.0</ele><time>2026-04-25T06:39:40.999Z</time></trkpt><trkpt lat="45.711340694676046" lon="9.563552666924231"><ele>253.0</ele><time>2026-04-25T06:39:41.999Z</time></trkpt><trkpt lat="45.711194267598714" lon="9.563756812425238"><ele>253.0</ele><time>2026-04-25T06:39:42.999Z</time></trkpt><trkpt lat="45.71104342520125" lon="9.563966539540464"><ele>253.0</ele><time>2026-04-25T06:39:43.999Z</time></trkpt><trkpt lat="45.71088444941019" lon="9.564181730081339"><ele>253.0</ele><time>2026-04-25T06:39:44.999Z</time></trkpt><trkpt lat="45.710759313794334" lon="9.564363487820719"><ele>253.0</ele><time>2026-04-25T06:39:45.999Z</time></trkpt><trkpt lat="45.710604176095785" lon="9.564548198918656"><ele>253.0</ele><time>2026-04-25T06:39:46.999Z</time></trkpt><trkpt lat="45.71043850626296" lon="9.564715949916488"><ele>253.33333333333331</ele><time>2026-04-25T06:39:47.999Z</time></trkpt><trkpt lat="45.710272445300994" lon="9.564858225873587"><ele>253.66666666666669</ele><time>2026-04-25T06:39:48.999Z</time></trkpt><trkpt lat="45.710090394205345" lon="9.564930558583189"><ele>254.0</ele><time>2026-04-25T06:39:49.999Z</time></trkpt><trkpt lat="45.70990521957139" lon="9.565083546494682"><ele>253.33333333333334</ele><time>2026-04-25T06:39:50.999Z</time></trkpt><trkpt lat="45.70974325843994" lon="9.565194638962726"><ele>252.66666666666669</ele><time>2026-04-25T06:39:51.999Z</time></trkpt><trkpt lat="45.709603125937804" lon="9.565371438596548"><ele>252.0</ele><time>2026-04-25T06:39:52.999Z</time></trkpt><trkpt lat="45.70949324751481" lon="9.565379413195348"><ele>251.5</ele><time>2026-04-25T06:39:53.999Z</time></trkpt><trkpt lat="45.70929235725297" lon="9.565396108715724"><ele>251.0</ele><time>2026-04-25T06:39:54.999Z</time></trkpt><trkpt lat="45.70917541468326" lon="9.565774934968621"><ele>249.0</ele><time>2026-04-25T06:39:55.999Z</time></trkpt><trkpt lat="45.708617878331964" lon="9.564435180775066"><ele>249.5</ele><time>2026-04-25T06:39:56.999Z</time></trkpt><trkpt lat="45.70844497581441" lon="9.564207161186014"><ele>250.0</ele><time>2026-04-25T06:39:57.999Z</time></trkpt><trkpt lat="45.7082833188099" lon="9.563954146390003"><ele>250.0</ele><time>2026-04-25T06:39:58.999Z</time></trkpt><trkpt lat="45.708134059803726" lon="9.563690954295788"><ele>250.0</ele><time>2026-04-25T06:39:59.999Z</time></trkpt><trkpt lat="45.707990477979706" lon="9.563428948860574"><ele>250.0</ele><time>2026-04-25T06:40:00.999Z</time></trkpt><trkpt lat="45.70784155838776" lon="9.563155095413057"><ele>250.0</ele><time>2026-04-25T06:40:01.999Z</time></trkpt><trkpt lat="45.707701596775244" lon="9.562873533202232"><ele>248.0</ele><time>2026-04-25T06:40:02.999Z</time></trkpt><trkpt lat="45.707568968999006" lon="9.562584891866116"><ele>246.0</ele><time>2026-04-25T06:40:03.999Z</time></trkpt><trkpt lat="45.70742496156081" lon="9.562288962913255"><ele>247.0</ele><time>2026-04-25T06:40:04.999Z</time></trkpt><trkpt lat="45.70728917522177" lon="9.562000631824663"><ele>248.0</ele><time>2026-04-25T06:40:05.999Z</time></trkpt><trkpt lat="45.707158297489315" lon="9.561715406509151"><ele>248.0</ele><time>2026-04-25T06:40:06.999Z</time></trkpt><trkpt lat="45.70701782480611" lon="9.561431056188047"><ele>248.0</ele><time>2026-04-25T06:40:07.999Z</time></trkpt><trkpt lat="45.70687893871054" lon="9.561133885580581"><ele>249.5</ele><time>2026-04-25T06:40:08.999Z</time></trkpt><trkpt lat="45.706739848435" lon="9.56084756883464"><ele>251.0</ele><time>2026-04-25T06:40:09.999Z</time></trkpt><trkpt lat="45.7065869869523" lon="9.560565423110758"><ele>250.5</ele><time>2026-04-25T06:40:10.999Z</time></trkpt><trkpt lat="45.70641691616559" lon="9.560306619286303"><ele>250.0</ele><time>2026-04-25T06:40:11.999Z</time></trkpt><trkpt lat="45.70622984840662" lon="9.560071673812452"><ele>250.0</ele><time>2026-04-25T06:40:12.999Z</time></trkpt><trkpt lat="45.70603288534779" lon="9.559858770646365"><ele>250.0</ele><time>2026-04-25T06:40:13.999Z</time></trkpt><trkpt lat="45.705821690184706" lon="9.559670404609493"><ele>251.0</ele><time>2026-04-25T06:40:14.999Z</time></trkpt><trkpt lat="45.70560077865822" lon="9.559514371565736"><ele>252.0</ele><time>2026-04-25T06:40:15.999Z</time></trkpt><trkpt lat="45.70536907677672" lon="9.559392634224032"><ele>251.0</ele><time>2026-04-25T06:40:16.999Z</time></trkpt><trkpt lat="45.7051332120393" lon="9.559302197913553"><ele>250.0</ele><time>2026-04-25T06:40:17.999Z</time></trkpt><trkpt lat="45.704897095269985" lon="9.559242803628692"><ele>250.0</ele><time>2026-04-25T06:40:18.999Z</time></trkpt><trkpt lat="45.70465384945381" lon="9.559207160974246"><ele>250.0</ele><time>2026-04-25T06:40:19.999Z</time></trkpt><trkpt lat="45.70440877923834" lon="9.559199931944693"><ele>249.5</ele><time>2026-04-25T06:40:20.999Z</time></trkpt><trkpt lat="45.704165913268376" lon="9.559221697680577"><ele>249.0</ele><time>2026-04-25T06:40:21.999Z</time></trkpt><trkpt lat="45.70392405601652" lon="9.559274958937628"><ele>249.0</ele><time>2026-04-25T06:40:22.999Z</time></trkpt><trkpt lat="45.70368275598474" lon="9.559338078570928"><ele>249.0</ele><time>2026-04-25T06:40:23.999Z</time></trkpt><trkpt lat="45.703444450129254" lon="9.559399427635359"><ele>248.5</ele><time>2026-04-25T06:40:24.999Z</time></trkpt><trkpt lat="45.703203835521194" lon="9.559457349208188"><ele>248.0</ele><time>2026-04-25T06:40:25.999Z</time></trkpt><trkpt lat="45.70296419481676" lon="9.559518955717017"><ele>248.0</ele><time>2026-04-25T06:40:26.999Z</time></trkpt><trkpt lat="45.70272673413986" lon="9.559572971945641"><ele>248.0</ele><time>2026-04-25T06:40:27.999Z</time></trkpt><trkpt lat="45.702490793291794" lon="9.55962886206946"><ele>248.0</ele><time>2026-04-25T06:40:28.999Z</time></trkpt><trkpt lat="45.70225782322722" lon="9.55968617668829"><ele>248.0</ele><time>2026-04-25T06:40:29.999Z</time></trkpt><trkpt lat="45.70202581126602" lon="9.55973939840551"><ele>247.5</ele><time>2026-04-25T06:40:30.999Z</time></trkpt><trkpt lat="45.701793494743214" lon="9.559796038253925"><ele>247.0</ele><time>2026-04-25T06:40:31.999Z</time></trkpt><trkpt lat="45.701563207791835" lon="9.559855934219733"><ele>247.0</ele><time>2026-04-25T06:40:32.999Z</time></trkpt><trkpt lat="45.701329335044626" lon="9.559908929551629"><ele>247.0</ele><time>2026-04-25T06:40:33.999Z</time></trkpt><trkpt lat="45.701097058593085" lon="9.559956252933512"><ele>245.0</ele><time>2026-04-25T06:40:34.999Z</time></trkpt><trkpt lat="45.70086563025974" lon="9.560019990238777"><ele>243.0</ele><time>2026-04-25T06:40:35.999Z</time></trkpt><trkpt lat="45.70063392835683" lon="9.560073735458563"><ele>243.0</ele><time>2026-04-25T06:40:36.999Z</time></trkpt><trkpt lat="45.70039938378798" lon="9.560128328268355"><ele>243.0</ele><time>2026-04-25T06:40:37.999Z</time></trkpt><trkpt lat="45.70016623354907" lon="9.560177245796075"><ele>243.5</ele><time>2026-04-25T06:40:38.999Z</time></trkpt><trkpt lat="45.69993333094022" lon="9.560221820871659"><ele>244.0</ele><time>2026-04-25T06:40:39.999Z</time></trkpt><trkpt lat="45.699700349043425" lon="9.560258271487417"><ele>244.0</ele><time>2026-04-25T06:40:40.999Z</time></trkpt><trkpt lat="45.69946691124751" lon="9.560266605019184"><ele>244.0</ele><time>2026-04-25T06:40:42Z</time></trkpt><trkpt lat="45.69923304459546" lon="9.560260694287992"><ele>243.5</ele><time>2026-04-25T06:40:43Z</time></trkpt><trkpt lat="45.69900125699175" lon="9.560228828123401"><ele>243.0</ele><time>2026-04-25T06:40:44Z</time></trkpt><trkpt lat="45.698774169381224" lon="9.560170661100253"><ele>242.0</ele><time>2026-04-25T06:40:45Z</time></trkpt><trkpt lat="45.698549073788115" lon="9.56009830340433"><ele>241.0</ele><time>2026-04-25T06:40:46Z</time></trkpt><trkpt lat="45.69832456638654" lon="9.560007652629297"><ele>241.0</ele><time>2026-04-25T06:40:47Z</time></trkpt><trkpt lat="45.69810219226826" lon="9.559892268950511"><ele>241.0</ele><time>2026-04-25T06:40:48Z</time></trkpt><trkpt lat="45.69788712217412" lon="9.559759310454979"><ele>241.0</ele><time>2026-04-25T06:40:49Z</time></trkpt><trkpt lat="45.69767753734101" lon="9.559600681732682"><ele>241.0</ele><time>2026-04-25T06:40:50Z</time></trkpt><trkpt lat="45.69747530761042" lon="9.559430885353349"><ele>240.5</ele><time>2026-04-25T06:40:51Z</time></trkpt><trkpt lat="45.697277932340484" lon="9.559242835736818"><ele>240.0</ele><time>2026-04-25T06:40:52Z</time></trkpt><trkpt lat="45.6970923018077" lon="9.55903273360475"><ele>240.5</ele><time>2026-04-25T06:40:53Z</time></trkpt><trkpt lat="45.6969183102502" lon="9.55880625953111"><ele>241.0</ele><time>2026-04-25T06:40:54Z</time></trkpt><trkpt lat="45.696746022952766" lon="9.558572918815226"><ele>241.0</ele><time>2026-04-25T06:40:55Z</time></trkpt><trkpt lat="45.69657113494217" lon="9.558337682560184"><ele>241.0</ele><time>2026-04-25T06:40:56Z</time></trkpt><trkpt lat="45.69639910477769" lon="9.558111327407506"><ele>241.0</ele><time>2026-04-25T06:40:57Z</time></trkpt><trkpt lat="45.69622577101041" lon="9.557888989040793"><ele>241.0</ele><time>2026-04-25T06:40:58Z</time></trkpt><trkpt lat="45.69605149621655" lon="9.557674153959537"><ele>240.5</ele><time>2026-04-25T06:40:59Z</time></trkpt><trkpt lat="45.69587444993722" lon="9.557465184530773"><ele>240.0</ele><time>2026-04-25T06:41:00Z</time></trkpt><trkpt lat="45.69569477678602" lon="9.557262435237485"><ele>240.0</ele><time>2026-04-25T06:41:01Z</time></trkpt><trkpt lat="45.69551039940405" lon="9.557069129292625"><ele>240.0</ele><time>2026-04-25T06:41:02Z</time></trkpt><trkpt lat="45.69531590505443" lon="9.556897538566329"><ele>239.66666666666669</ele><time>2026-04-25T06:41:03Z</time></trkpt><trkpt lat="45.695119800278796" lon="9.55675004025946"><ele>239.33333333333334</ele><time>2026-04-25T06:41:04Z</time></trkpt><trkpt lat="45.69492782507668" lon="9.556619305724391"><ele>239.0</ele><time>2026-04-25T06:41:05Z</time></trkpt><trkpt lat="45.69472874916328" lon="9.556508621426323"><ele>239.0</ele><time>2026-04-25T06:41:06Z</time></trkpt><trkpt lat="45.69453312107678" lon="9.556401605876257"><ele>239.0</ele><time>2026-04-25T06:41:07Z</time></trkpt><trkpt lat="45.6943375795024" lon="9.556317702194741"><ele>239.0</ele><time>2026-04-25T06:41:08Z</time></trkpt><trkpt lat="45.69413683922236" lon="9.55624272220652"><ele>239.0</ele><time>2026-04-25T06:41:09Z</time></trkpt><trkpt lat="45.6939361026019" lon="9.556179464906656"><ele>239.0</ele><time>2026-04-25T06:41:10Z</time></trkpt><trkpt lat="45.693724146012634" lon="9.55612860591523"><ele>239.0</ele><time>2026-04-25T06:41:11Z</time></trkpt><trkpt lat="45.69351953788863" lon="9.556107511935124"><ele>238.66666666666669</ele><time>2026-04-25T06:41:12Z</time></trkpt><trkpt lat="45.69330220207845" lon="9.556097375506825"><ele>238.33333333333331</ele><time>2026-04-25T06:41:12.999Z</time></trkpt><trkpt lat="45.69309322376401" lon="9.556099539624462"><ele>238.0</ele><time>2026-04-25T06:41:13.999Z</time></trkpt><trkpt lat="45.692884443539555" lon="9.556117359426183"><ele>238.33333333333331</ele><time>2026-04-25T06:41:14.999Z</time></trkpt><trkpt lat="45.69268779249294" lon="9.556147653427942"><ele>238.66666666666669</ele><time>2026-04-25T06:41:15.999Z</time></trkpt><trkpt lat="45.692498239965296" lon="9.55619218462014"><ele>239.0</ele><time>2026-04-25T06:41:16.999Z</time></trkpt><trkpt lat="45.69231208337932" lon="9.556245508964274"><ele>238.33333333333334</ele><time>2026-04-25T06:41:17.999Z</time></trkpt><trkpt lat="45.69212961853728" lon="9.556305872312828"><ele>237.66666666666669</ele><time>2026-04-25T06:41:18.999Z</time></trkpt><trkpt lat="45.69194909571884" lon="9.556382586426603"><ele>237.0</ele><time>2026-04-25T06:41:19.999Z</time></trkpt><trkpt lat="45.69176542561405" lon="9.556472606341677"><ele>236.66666666666669</ele><time>2026-04-25T06:41:20.999Z</time></trkpt><trkpt lat="45.69158441240501" lon="9.556577151576873"><ele>236.33333333333334</ele><time>2026-04-25T06:41:21.999Z</time></trkpt><trkpt lat="45.6914022013038" lon="9.556692615997227"><ele>236.0</ele><time>2026-04-25T06:41:22.999Z</time></trkpt><trkpt lat="45.69121796366741" lon="9.556815699169572"><ele>235.66666666666669</ele><time>2026-04-25T06:41:23.999Z</time></trkpt><trkpt lat="45.691031141579344" lon="9.556943022136673"><ele>235.33333333333331</ele><time>2026-04-25T06:41:24.999Z</time></trkpt><trkpt lat="45.69083788818779" lon="9.557059612008677"><ele>235.0</ele><time>2026-04-25T06:41:25.999Z</time></trkpt><trkpt lat="45.69064040067431" lon="9.557169248937061"><ele>235.0</ele><time>2026-04-25T06:41:26.999Z</time></trkpt><trkpt lat="45.690446726076935" lon="9.557281656477556"><ele>235.0</ele><time>2026-04-25T06:41:27.999Z</time></trkpt><trkpt lat="45.69024940540742" lon="9.557386487181686"><ele>235.0</ele><time>2026-04-25T06:41:28.999Z</time></trkpt><trkpt lat="45.69005246398089" lon="9.557494745358103"><ele>235.0</ele><time>2026-04-25T06:41:29.999Z</time></trkpt><trkpt lat="45.689863443093664" lon="9.557632435193556"><ele>235.0</ele><time>2026-04-25T06:41:30.999Z</time></trkpt><trkpt lat="45.689673946894644" lon="9.557764848671257"><ele>235.0</ele><time>2026-04-25T06:41:31.999Z</time></trkpt><trkpt lat="45.68947186602126" lon="9.557989221734566"><ele>234.66666666666666</ele><time>2026-04-25T06:41:32.999Z</time></trkpt><trkpt lat="45.6892829134757" lon="9.55814688602333"><ele>234.33333333333331</ele><time>2026-04-25T06:41:33.999Z</time></trkpt><trkpt lat="45.68910150247067" lon="9.558315956833468"><ele>234.0</ele><time>2026-04-25T06:41:34.999Z</time></trkpt><trkpt lat="45.68891131160896" lon="9.55847261337331"><ele>234.0</ele><time>2026-04-25T06:41:35.999Z</time></trkpt><trkpt lat="45.688735891393485" lon="9.558655800124537"><ele>234.0</ele><time>2026-04-25T06:41:36.999Z</time></trkpt><trkpt lat="45.68856420590878" lon="9.558854940399288"><ele>234.0</ele><time>2026-04-25T06:41:37.999Z</time></trkpt><trkpt lat="45.688403074122654" lon="9.55907146414322"><ele>233.66666666666669</ele><time>2026-04-25T06:41:38.999Z</time></trkpt><trkpt lat="45.688251948464305" lon="9.559303798385027"><ele>233.33333333333334</ele><time>2026-04-25T06:41:39.999Z</time></trkpt><trkpt lat="45.688116272585624" lon="9.559548084583577"><ele>233.0</ele><time>2026-04-25T06:41:40.999Z</time></trkpt><trkpt lat="45.6879816758217" lon="9.559767825952857"><ele>233.0</ele><time>2026-04-25T06:41:41.999Z</time></trkpt><trkpt lat="45.68787634070736" lon="9.560026539325507"><ele>233.0</ele><time>2026-04-25T06:41:42.999Z</time></trkpt><trkpt lat="45.68776839192046" lon="9.560288192001018"><ele>233.0</ele><time>2026-04-25T06:41:43.999Z</time></trkpt><trkpt lat="45.687672289807686" lon="9.56055594097452"><ele>232.0</ele><time>2026-04-25T06:41:44.999Z</time></trkpt><trkpt lat="45.687590305067275" lon="9.5608391076636"><ele>231.0</ele><time>2026-04-25T06:41:45.999Z</time></trkpt><trkpt lat="45.68750898393332" lon="9.561117177029203"><ele>230.0</ele><time>2026-04-25T06:41:46.999Z</time></trkpt><trkpt lat="45.687434813128355" lon="9.561408378225899"><ele>229.66666666666669</ele><time>2026-04-25T06:41:47.999Z</time></trkpt><trkpt lat="45.687357995346034" lon="9.561696836435727"><ele>229.33333333333331</ele><time>2026-04-25T06:41:48.999Z</time></trkpt><trkpt lat="45.687281611901334" lon="9.561980911788392"><ele>229.0</ele><time>2026-04-25T06:41:49.999Z</time></trkpt><trkpt lat="45.68720645329357" lon="9.562269361183379"><ele>229.0</ele><time>2026-04-25T06:41:50.999Z</time></trkpt><trkpt lat="45.68712927008413" lon="9.562555701844571"><ele>229.0</ele><time>2026-04-25T06:41:51.999Z</time></trkpt><trkpt lat="45.687053866891105" lon="9.562840831730002"><ele>229.0</ele><time>2026-04-25T06:41:52.999Z</time></trkpt><trkpt lat="45.6869781509563" lon="9.563126336654305"><ele>229.0</ele><time>2026-04-25T06:41:53.999Z</time></trkpt><trkpt lat="45.68690370454921" lon="9.563410353073733"><ele>229.0</ele><time>2026-04-25T06:41:54.999Z</time></trkpt><trkpt lat="45.68682925820312" lon="9.56369361164975"><ele>229.0</ele><time>2026-04-25T06:41:55.999Z</time></trkpt><trkpt lat="45.686752953921356" lon="9.563976145282933"><ele>229.0</ele><time>2026-04-25T06:41:56.999Z</time></trkpt><trkpt lat="45.68667776652375" lon="9.5642584180396"><ele>229.0</ele><time>2026-04-25T06:41:57.999Z</time></trkpt><trkpt lat="45.686606758615135" lon="9.564541729145166"><ele>229.0</ele><time>2026-04-25T06:41:58.999Z</time></trkpt><trkpt lat="45.68652901358774" lon="9.564812771070676"><ele>229.0</ele><time>2026-04-25T06:41:59.999Z</time></trkpt><trkpt lat="45.6864505775755" lon="9.565087264534494"><ele>229.0</ele><time>2026-04-25T06:42:00.999Z</time></trkpt><trkpt lat="45.68637559371287" lon="9.565360449293218"><ele>229.0</ele><time>2026-04-25T06:42:01.999Z</time></trkpt><trkpt lat="45.686299762130744" lon="9.565635313022554"><ele>229.0</ele><time>2026-04-25T06:42:02.999Z</time></trkpt><trkpt lat="45.68622521347684" lon="9.565910407603502"><ele>229.0</ele><time>2026-04-25T06:42:03.999Z</time></trkpt><trkpt lat="45.6861508486164" lon="9.56618761813143"><ele>229.0</ele><time>2026-04-25T06:42:04.999Z</time></trkpt><trkpt lat="45.68607507034974" lon="9.566461889783975"><ele>229.0</ele><time>2026-04-25T06:42:05.999Z</time></trkpt><trkpt lat="45.68599764975164" lon="9.56673714297142"><ele>229.0</ele><time>2026-04-25T06:42:06.999Z</time></trkpt><trkpt lat="45.685920229315464" lon="9.567012844584397"><ele>229.0</ele><time>2026-04-25T06:42:07.999Z</time></trkpt><trkpt lat="45.68583844845398" lon="9.56728976132218"><ele>229.0</ele><time>2026-04-25T06:42:08.999Z</time></trkpt><trkpt lat="45.68576177858623" lon="9.56757199334332"><ele>229.0</ele><time>2026-04-25T06:42:09.999Z</time></trkpt><trkpt lat="45.685682946020144" lon="9.567843441446414"><ele>229.0</ele><time>2026-04-25T06:42:10.999Z</time></trkpt><trkpt lat="45.68560328728394" lon="9.568122712548952"><ele>229.0</ele><time>2026-04-25T06:42:11.999Z</time></trkpt><trkpt lat="45.68551296371663" lon="9.568421613397067"><ele>229.0</ele><time>2026-04-25T06:42:12.999Z</time></trkpt><trkpt lat="45.68542548193671" lon="9.56870819859114"><ele>229.0</ele><time>2026-04-25T06:42:13.999Z</time></trkpt><trkpt lat="45.68536994399089" lon="9.568948449667309"><ele>229.0</ele><time>2026-04-25T06:42:14.999Z</time></trkpt><trkpt lat="45.685282821534585" lon="9.569225122635247"><ele>229.0</ele><time>2026-04-25T06:42:15.999Z</time></trkpt><trkpt lat="45.68520493302993" lon="9.569511745815218"><ele>229.0</ele><time>2026-04-25T06:42:16.999Z</time></trkpt><trkpt lat="45.68511457047974" lon="9.56977897406087"><ele>228.66666666666666</ele><time>2026-04-25T06:42:17.999Z</time></trkpt><trkpt lat="45.68501822697593" lon="9.570041677410812"><ele>228.33333333333331</ele><time>2026-04-25T06:42:18.999Z</time></trkpt><trkpt lat="45.68491200420583" lon="9.570299011917465"><ele>228.0</ele><time>2026-04-25T06:42:19.999Z</time></trkpt><trkpt lat="45.68478786139595" lon="9.570542349327756"><ele>228.0</ele><time>2026-04-25T06:42:20.999Z</time></trkpt><trkpt lat="45.68466368217184" lon="9.570773123767964"><ele>228.0</ele><time>2026-04-25T06:42:21.999Z</time></trkpt><trkpt lat="45.68453294043094" lon="9.57101870529439"><ele>228.0</ele><time>2026-04-25T06:42:22.999Z</time></trkpt><trkpt lat="45.68443510961024" lon="9.571260328048053"><ele>228.33333333333331</ele><time>2026-04-25T06:42:23.999Z</time></trkpt><trkpt lat="45.68426786131005" lon="9.571444128981511"><ele>228.66666666666666</ele><time>2026-04-25T06:42:24.999Z</time></trkpt><trkpt lat="45.6841082218386" lon="9.571635519119324"><ele>229.0</ele><time>2026-04-25T06:42:25.999Z</time></trkpt><trkpt lat="45.68394518587314" lon="9.57181305488758"><ele>229.0</ele><time>2026-04-25T06:42:26.999Z</time></trkpt><trkpt lat="45.68377094813027" lon="9.571982320293943"><ele>229.0</ele><time>2026-04-25T06:42:27.999Z</time></trkpt><trkpt lat="45.6835974548474" lon="9.572143148251552"><ele>229.0</ele><time>2026-04-25T06:42:28.999Z</time></trkpt><trkpt lat="45.68342101251295" lon="9.57229411327355"><ele>228.0</ele><time>2026-04-25T06:42:29.999Z</time></trkpt><trkpt lat="45.683235679837445" lon="9.572430182937618"><ele>227.0</ele><time>2026-04-25T06:42:30.999Z</time></trkpt><trkpt lat="45.68304590112894" lon="9.572556503072319"><ele>226.0</ele><time>2026-04-25T06:42:31.999Z</time></trkpt><trkpt lat="45.68284948475244" lon="9.572666621856499"><ele>226.66666666666666</ele><time>2026-04-25T06:42:32.999Z</time></trkpt><trkpt lat="45.68264677639707" lon="9.572765150361352"><ele>227.33333333333331</ele><time>2026-04-25T06:42:33.999Z</time></trkpt><trkpt lat="45.682438561819744" lon="9.572854010852245"><ele>228.0</ele><time>2026-04-25T06:42:34.999Z</time></trkpt><trkpt lat="45.68223482478009" lon="9.572941799008436"><ele>228.0</ele><time>2026-04-25T06:42:35.999Z</time></trkpt><trkpt lat="45.68202149956646" lon="9.573025321058463"><ele>228.0</ele><time>2026-04-25T06:42:36.999Z</time></trkpt><trkpt lat="45.68181505714542" lon="9.573110815980645"><ele>228.0</ele><time>2026-04-25T06:42:37.999Z</time></trkpt><trkpt lat="45.681626869741386" lon="9.573196830381251"><ele>227.33333333333331</ele><time>2026-04-25T06:42:38.999Z</time></trkpt><trkpt lat="45.681417398609376" lon="9.573291562609096"><ele>226.66666666666666</ele><time>2026-04-25T06:42:39.999Z</time></trkpt><trkpt lat="45.68120392145798" lon="9.573349186670736"><ele>226.0</ele><time>2026-04-25T06:42:40.999Z</time></trkpt><trkpt lat="45.68099391282787" lon="9.573408746268624"><ele>226.0</ele><time>2026-04-25T06:42:41.998Z</time></trkpt><trkpt lat="45.68078563770612" lon="9.573467814388328"><ele>226.0</ele><time>2026-04-25T06:42:42.998Z</time></trkpt><trkpt lat="45.680484013475734" lon="9.573390492392637"><ele>225.5</ele><time>2026-04-25T06:42:43.998Z</time></trkpt><trkpt lat="45.68026171883081" lon="9.573451427611671"><ele>225.0</ele><time>2026-04-25T06:42:44.998Z</time></trkpt><trkpt lat="45.68004012168502" lon="9.573512544659563"><ele>225.0</ele><time>2026-04-25T06:42:45.998Z</time></trkpt><trkpt lat="45.67981969155375" lon="9.573573222710788"><ele>225.0</ele><time>2026-04-25T06:42:47Z</time></trkpt><trkpt lat="45.67959861612793" lon="9.573629224708824"><ele>225.0</ele><time>2026-04-25T06:42:48Z</time></trkpt><trkpt lat="45.67937812784549" lon="9.573691559113561"><ele>224.66666666666669</ele><time>2026-04-25T06:42:49Z</time></trkpt><trkpt lat="45.67915688369481" lon="9.573752365363335"><ele>224.33333333333334</ele><time>2026-04-25T06:42:50Z</time></trkpt><trkpt lat="45.67893764260474" lon="9.573816752429785"><ele>224.0</ele><time>2026-04-25T06:42:51Z</time></trkpt><trkpt lat="45.67871768078929" lon="9.57387800416868"><ele>223.33333333333334</ele><time>2026-04-25T06:42:52Z</time></trkpt><trkpt lat="45.678499123779346" lon="9.57393833539422"><ele>222.66666666666669</ele><time>2026-04-25T06:42:53Z</time></trkpt><trkpt lat="45.678281456165394" lon="9.574001609718998"><ele>222.0</ele><time>2026-04-25T06:42:54Z</time></trkpt><trkpt lat="45.67806358489477" lon="9.574065476342277"><ele>222.0</ele><time>2026-04-25T06:42:55Z</time></trkpt><trkpt lat="45.67784515893002" lon="9.574129446172845"><ele>222.0</ele><time>2026-04-25T06:42:56Z</time></trkpt><trkpt lat="45.67763122222127" lon="9.574196253856412"><ele>222.0</ele><time>2026-04-25T06:42:57Z</time></trkpt><trkpt lat="45.67742157835232" lon="9.574252365725469"><ele>221.66666666666669</ele><time>2026-04-25T06:42:58Z</time></trkpt><trkpt lat="45.67721975546734" lon="9.574305030904863"><ele>221.33333333333334</ele><time>2026-04-25T06:42:59Z</time></trkpt><trkpt lat="45.67701935818475" lon="9.574367213188676"><ele>221.0</ele><time>2026-04-25T06:43:00Z</time></trkpt><trkpt lat="45.67681428900022" lon="9.574432773973417"><ele>220.33333333333334</ele><time>2026-04-25T06:43:01Z</time></trkpt><trkpt lat="45.67660785411414" lon="9.57449922200876"><ele>219.66666666666669</ele><time>2026-04-25T06:43:02Z</time></trkpt><trkpt lat="45.6763963799296" lon="9.57457343911333"><ele>219.0</ele><time>2026-04-25T06:43:03Z</time></trkpt><trkpt lat="45.67616005930439" lon="9.57466090449794"><ele>217.5</ele><time>2026-04-25T06:43:04Z</time></trkpt><trkpt lat="45.67588346764042" lon="9.574779736086256"><ele>216.0</ele><time>2026-04-25T06:43:05Z</time></trkpt><trkpt lat="45.67562000461869" lon="9.574964024661684"><ele>216.0</ele><time>2026-04-25T06:43:06Z</time></trkpt><trkpt lat="45.675391511065534" lon="9.575135922457312"><ele>216.0</ele><time>2026-04-25T06:43:07Z</time></trkpt><trkpt lat="45.675214615426924" lon="9.575284755868282"><ele>213.5</ele><time>2026-04-25T06:43:08Z</time></trkpt><trkpt lat="45.67496511018622" lon="9.575531888618588"><ele>211.0</ele><time>2026-04-25T06:43:09Z</time></trkpt><trkpt lat="45.674733267794394" lon="9.5757887682775"><ele>211.0</ele><time>2026-04-25T06:43:10Z</time></trkpt><trkpt lat="45.67454709932916" lon="9.576036297341872"><ele>211.0</ele><time>2026-04-25T06:43:11Z</time></trkpt><trkpt lat="45.67433082903881" lon="9.576354604249707"><ele>206.5</ele><time>2026-04-25T06:43:12Z</time></trkpt><trkpt lat="45.674181838015095" lon="9.576609106750025"><ele>202.0</ele><time>2026-04-25T06:43:13Z</time></trkpt><trkpt lat="45.67404229379963" lon="9.576902142918629"><ele>198.0</ele><time>2026-04-25T06:43:14Z</time></trkpt><trkpt lat="45.67391406675598" lon="9.577189379246736"><ele>194.0</ele><time>2026-04-25T06:43:15Z</time></trkpt><trkpt lat="45.67380336405083" lon="9.577465435159311"><ele>194.0</ele><time>2026-04-25T06:43:15.999Z</time></trkpt><trkpt lat="45.674081969069555" lon="9.577165980797346"><ele>194.0</ele><time>2026-04-25T06:43:17Z</time></trkpt><trkpt lat="45.67392162655318" lon="9.577418720037231"><ele>194.0</ele><time>2026-04-25T06:43:17.999Z</time></trkpt><trkpt lat="45.673783914272335" lon="9.577694361654107"><ele>194.0</ele><time>2026-04-25T06:43:18.999Z</time></trkpt><trkpt lat="45.67367629790354" lon="9.578009334716908"><ele>193.66666666666669</ele><time>2026-04-25T06:43:19.999Z</time></trkpt><trkpt lat="45.67363891258135" lon="9.578282790284582"><ele>193.33333333333331</ele><time>2026-04-25T06:43:20.999Z</time></trkpt><trkpt lat="45.67356427467415" lon="9.578571622201508"><ele>193.0</ele><time>2026-04-25T06:43:21.999Z</time></trkpt><trkpt lat="45.67350889458565" lon="9.578873861222919"><ele>193.0</ele><time>2026-04-25T06:43:22.999Z</time></trkpt><trkpt lat="45.67346633887577" lon="9.579178387453506"><ele>193.0</ele><time>2026-04-25T06:43:23.999Z</time></trkpt><trkpt lat="45.67343546289888" lon="9.579480427371935"><ele>193.0</ele><time>2026-04-25T06:43:24.999Z</time></trkpt><trkpt lat="45.67341670440829" lon="9.579783302380022"><ele>193.33333333333331</ele><time>2026-04-25T06:43:25.999Z</time></trkpt><trkpt lat="45.673407567896334" lon="9.580083697116613"><ele>193.66666666666669</ele><time>2026-04-25T06:43:26.999Z</time></trkpt><trkpt lat="45.67340968347311" lon="9.580384131425406"><ele>194.0</ele><time>2026-04-25T06:43:27.999Z</time></trkpt><trkpt lat="45.67342369112103" lon="9.580684397156432"><ele>194.0</ele><time>2026-04-25T06:43:28.999Z</time></trkpt><trkpt lat="45.673447856487506" lon="9.580985347913296"><ele>194.0</ele><time>2026-04-25T06:43:29.999Z</time></trkpt><trkpt lat="45.67348068926789" lon="9.581282779699952"><ele>194.0</ele><time>2026-04-25T06:43:30.999Z</time></trkpt><trkpt lat="45.67352399905114" lon="9.58157740630455"><ele>193.66666666666669</ele><time>2026-04-25T06:43:31.999Z</time></trkpt><trkpt lat="45.673578842649746" lon="9.581866974659285"><ele>193.33333333333331</ele><time>2026-04-25T06:43:32.999Z</time></trkpt><trkpt lat="45.673645654154626" lon="9.582154253331659"><ele>193.0</ele><time>2026-04-25T06:43:33.999Z</time></trkpt><trkpt lat="45.673721649195386" lon="9.582436426582076"><ele>193.66666666666666</ele><time>2026-04-25T06:43:34.999Z</time></trkpt><trkpt lat="45.67380598652544" lon="9.582716101455613"><ele>194.33333333333331</ele><time>2026-04-25T06:43:35.999Z</time></trkpt><trkpt lat="45.673895284257235" lon="9.582993012896797"><ele>195.0</ele><time>2026-04-25T06:43:36.999Z</time></trkpt><trkpt lat="45.67398470061952" lon="9.583267875385074"><ele>195.0</ele><time>2026-04-25T06:43:37.999Z</time></trkpt><trkpt lat="45.67407697190887" lon="9.583545445735714"><ele>195.0</ele><time>2026-04-25T06:43:38.999Z</time></trkpt><trkpt lat="45.67417014660416" lon="9.583822496021408"><ele>195.0</ele><time>2026-04-25T06:43:39.999Z</time></trkpt><trkpt lat="45.67426184878902" lon="9.58410161015564"><ele>194.0</ele><time>2026-04-25T06:43:40.999Z</time></trkpt><trkpt lat="45.674352710394615" lon="9.58438164405654"><ele>193.0</ele><time>2026-04-25T06:43:41.999Z</time></trkpt><trkpt lat="45.67444423353122" lon="9.584660988361781"><ele>192.0</ele><time>2026-04-25T06:43:42.999Z</time></trkpt><trkpt lat="45.67453672243637" lon="9.584940876279294"><ele>192.0</ele><time>2026-04-25T06:43:43.999Z</time></trkpt><trkpt lat="45.67462813123376" lon="9.585222189264913"><ele>192.0</ele><time>2026-04-25T06:43:44.999Z</time></trkpt><trkpt lat="45.67471887813309" lon="9.585504421274289"><ele>192.0</ele><time>2026-04-25T06:43:45.999Z</time></trkpt><trkpt lat="45.67481228813869" lon="9.58578493462509"><ele>192.0</ele><time>2026-04-25T06:43:46.999Z</time></trkpt><trkpt lat="45.67490658587498" lon="9.586067583938144"><ele>192.0</ele><time>2026-04-25T06:43:47.999Z</time></trkpt><trkpt lat="45.674996120205755" lon="9.586351932595814"><ele>192.0</ele><time>2026-04-25T06:43:48.999Z</time></trkpt><trkpt lat="45.675085937398315" lon="9.586636343011039"><ele>191.33333333333334</ele><time>2026-04-25T06:43:49.999Z</time></trkpt><trkpt lat="45.67517299842819" lon="9.586921203372412"><ele>190.66666666666669</ele><time>2026-04-25T06:43:50.999Z</time></trkpt><trkpt lat="45.67525882651877" lon="9.58720601326098"><ele>190.0</ele><time>2026-04-25T06:43:51.999Z</time></trkpt><trkpt lat="45.67534604532227" lon="9.587488894034408"><ele>189.66666666666669</ele><time>2026-04-25T06:43:52.999Z</time></trkpt><trkpt lat="45.67543477708212" lon="9.587768624804442"><ele>189.33333333333334</ele><time>2026-04-25T06:43:53.999Z</time></trkpt><trkpt lat="45.675525609424014" lon="9.588046291009272"><ele>189.0</ele><time>2026-04-25T06:43:54.999Z</time></trkpt><trkpt lat="45.675617076822846" lon="9.588324280683947"><ele>189.66666666666666</ele><time>2026-04-25T06:43:55.999Z</time></trkpt><trkpt lat="45.67570777398974" lon="9.588601470867102"><ele>190.33333333333331</ele><time>2026-04-25T06:43:56.999Z</time></trkpt><trkpt lat="45.675798308943115" lon="9.588877029601052"><ele>191.0</ele><time>2026-04-25T06:43:57.999Z</time></trkpt><trkpt lat="45.675888042683546" lon="9.589151791940337"><ele>192.0</ele><time>2026-04-25T06:43:58.999Z</time></trkpt><trkpt lat="45.675977392099156" lon="9.58942889490472"><ele>193.0</ele><time>2026-04-25T06:43:59.999Z</time></trkpt><trkpt lat="45.67606639643972" lon="9.589705276966153"><ele>194.0</ele><time>2026-04-25T06:44:00.999Z</time></trkpt><trkpt lat="45.67615610785441" lon="9.589982891091708"><ele>195.0</ele><time>2026-04-25T06:44:01.999Z</time></trkpt><trkpt lat="45.676248604295054" lon="9.59025945697726"><ele>196.0</ele><time>2026-04-25T06:44:02.999Z</time></trkpt><trkpt lat="45.6763415767657" lon="9.590536052111197"><ele>197.0</ele><time>2026-04-25T06:44:03.999Z</time></trkpt><trkpt lat="45.676433749855164" lon="9.59081303814642"><ele>197.0</ele><time>2026-04-25T06:44:04.999Z</time></trkpt><trkpt lat="45.676525626258275" lon="9.591088505758464"><ele>197.0</ele><time>2026-04-25T06:44:05.999Z</time></trkpt><trkpt lat="45.67661772501499" lon="9.591365585055373"><ele>197.0</ele><time>2026-04-25T06:44:06.999Z</time></trkpt><trkpt lat="45.67670698162492" lon="9.591641279399218"><ele>197.0</ele><time>2026-04-25T06:44:07.999Z</time></trkpt><trkpt lat="45.67679447649813" lon="9.591916690274353"><ele>197.0</ele><time>2026-04-25T06:44:08.999Z</time></trkpt><trkpt lat="45.676880019327754" lon="9.59219292151615"><ele>197.0</ele><time>2026-04-25T06:44:09.999Z</time></trkpt><trkpt lat="45.6769605678825" lon="9.592469534948295"><ele>196.33333333333334</ele><time>2026-04-25T06:44:10.999Z</time></trkpt><trkpt lat="45.6770354013999" lon="9.592747037471842"><ele>195.66666666666669</ele><time>2026-04-25T06:44:11.999Z</time></trkpt><trkpt lat="45.67710561856556" lon="9.593027602945702"><ele>195.0</ele><time>2026-04-25T06:44:12.999Z</time></trkpt><trkpt lat="45.67716963906352" lon="9.593309490523694"><ele>196.66666666666669</ele><time>2026-04-25T06:44:13.999Z</time></trkpt><trkpt lat="45.67722916154376" lon="9.593593367736693"><ele>198.33333333333334</ele><time>2026-04-25T06:44:14.999Z</time></trkpt><trkpt lat="45.67728457465973" lon="9.593881293471908"><ele>200.0</ele><time>2026-04-25T06:44:15.999Z</time></trkpt><trkpt lat="45.677336161335305" lon="9.594172614779447"><ele>201.66666666666669</ele><time>2026-04-25T06:44:16.999Z</time></trkpt><trkpt lat="45.67738300515902" lon="9.594463353664459"><ele>203.33333333333331</ele><time>2026-04-25T06:44:17.999Z</time></trkpt><trkpt lat="45.67742745407538" lon="9.594754777596078"><ele>205.0</ele><time>2026-04-25T06:44:18.999Z</time></trkpt><trkpt lat="45.677467177110316" lon="9.595046780694217"><ele>205.33333333333331</ele><time>2026-04-25T06:44:19.999Z</time></trkpt><trkpt lat="45.677502677965236" lon="9.595337018118004"><ele>205.66666666666669</ele><time>2026-04-25T06:44:20.999Z</time></trkpt><trkpt lat="45.67752976773745" lon="9.59562749254039"><ele>206.0</ele><time>2026-04-25T06:44:21.999Z</time></trkpt><trkpt lat="45.67755392862812" lon="9.595920564217952"><ele>208.0</ele><time>2026-04-25T06:44:22.999Z</time></trkpt><trkpt lat="45.67757419499549" lon="9.596211594081726"><ele>210.0</ele><time>2026-04-25T06:44:23.999Z</time></trkpt><trkpt lat="45.67758865910484" lon="9.596501274046263"><ele>212.0</ele><time>2026-04-25T06:44:24.999Z</time></trkpt><trkpt lat="45.677600082498124" lon="9.596784514570134"><ele>215.33333333333334</ele><time>2026-04-25T06:44:25.999Z</time></trkpt><trkpt lat="45.67761034816098" lon="9.597065664077798"><ele>218.66666666666669</ele><time>2026-04-25T06:44:26.999Z</time></trkpt><trkpt lat="45.67762098370464" lon="9.597345334996199"><ele>222.0</ele><time>2026-04-25T06:44:27.999Z</time></trkpt><trkpt lat="45.677633115039775" lon="9.597627443078684"><ele>223.0</ele><time>2026-04-25T06:44:28.999Z</time></trkpt><trkpt lat="45.67764958273489" lon="9.597915268621549"><ele>224.0</ele><time>2026-04-25T06:44:29.999Z</time></trkpt><trkpt lat="45.67766655706061" lon="9.598207389025047"><ele>225.0</ele><time>2026-04-25T06:44:30.999Z</time></trkpt><trkpt lat="45.677682823490855" lon="9.598500971918932"><ele>224.33333333333331</ele><time>2026-04-25T06:44:31.999Z</time></trkpt><trkpt lat="45.67769666979319" lon="9.598792670800737"><ele>223.66666666666666</ele><time>2026-04-25T06:44:32.999Z</time></trkpt><trkpt lat="45.677707782859734" lon="9.599087133568942"><ele>223.0</ele><time>2026-04-25T06:44:33.999Z</time></trkpt><trkpt lat="45.677718472165296" lon="9.59938126683227"><ele>223.66666666666666</ele><time>2026-04-25T06:44:34.999Z</time></trkpt><trkpt lat="45.67772911955946" lon="9.59967741761374"><ele>224.33333333333331</ele><time>2026-04-25T06:44:35.999Z</time></trkpt><trkpt lat="45.67773917573193" lon="9.599974396439514"><ele>225.0</ele><time>2026-04-25T06:44:36.999Z</time></trkpt><trkpt lat="45.67774903655364" lon="9.60027061776687"><ele>225.66666666666669</ele><time>2026-04-25T06:44:37.999Z</time></trkpt><trkpt lat="45.67775936046557" lon="9.600568383174831"><ele>226.33333333333334</ele><time>2026-04-25T06:44:38.999Z</time></trkpt><trkpt lat="45.677770489188035" lon="9.6008661037063"><ele>227.0</ele><time>2026-04-25T06:44:39.999Z</time></trkpt><trkpt lat="45.67777899674086" lon="9.601161883598987"><ele>227.0</ele><time>2026-04-25T06:44:40.999Z</time></trkpt><trkpt lat="45.67778836441035" lon="9.601460589613085"><ele>227.0</ele><time>2026-04-25T06:44:41.999Z</time></trkpt><trkpt lat="45.677798309441016" lon="9.601755583705216"><ele>227.0</ele><time>2026-04-25T06:44:42.999Z</time></trkpt><trkpt lat="45.67781032244023" lon="9.60205367396882"><ele>227.33333333333334</ele><time>2026-04-25T06:44:43.999Z</time></trkpt><trkpt lat="45.67781903677247" lon="9.602349743432468"><ele>227.66666666666669</ele><time>2026-04-25T06:44:44.999Z</time></trkpt><trkpt lat="45.677828910843694" lon="9.60264542410192"><ele>228.0</ele><time>2026-04-25T06:44:45.998Z</time></trkpt><trkpt lat="45.67783996661717" lon="9.602942246675138"><ele>228.0</ele><time>2026-04-25T06:44:46.998Z</time></trkpt><trkpt lat="45.6778512809359" lon="9.603240025820368"><ele>228.0</ele><time>2026-04-25T06:44:47.998Z</time></trkpt><trkpt lat="45.67786190236827" lon="9.60353529655182"><ele>228.0</ele><time>2026-04-25T06:44:48.998Z</time></trkpt><trkpt lat="45.677871552232084" lon="9.6038334970962"><ele>227.66666666666669</ele><time>2026-04-25T06:44:49.998Z</time></trkpt><trkpt lat="45.677879220683835" lon="9.60413011091646"><ele>227.33333333333334</ele><time>2026-04-25T06:44:50.998Z</time></trkpt><trkpt lat="45.677885409749386" lon="9.604429942073718"><ele>227.0</ele><time>2026-04-25T06:44:52Z</time></trkpt><trkpt lat="45.677889405313586" lon="9.60472643911689"><ele>227.0</ele><time>2026-04-25T06:44:53Z</time></trkpt><trkpt lat="45.67789384356851" lon="9.605023369823527"><ele>227.0</ele><time>2026-04-25T06:44:54Z</time></trkpt><trkpt lat="45.67790554210584" lon="9.605319335521044"><ele>227.0</ele><time>2026-04-25T06:44:55Z</time></trkpt><trkpt lat="45.6779250977903" lon="9.605615581917307"><ele>227.0</ele><time>2026-04-25T06:44:56Z</time></trkpt><trkpt lat="45.677946664300805" lon="9.605910217395312"><ele>227.0</ele><time>2026-04-25T06:44:57Z</time></trkpt><trkpt lat="45.677967530788216" lon="9.606207734768404"><ele>227.0</ele><time>2026-04-25T06:44:58Z</time></trkpt><trkpt lat="45.67798951994333" lon="9.606507834028"><ele>227.33333333333334</ele><time>2026-04-25T06:44:59Z</time></trkpt><trkpt lat="45.67801556411428" lon="9.606809718150023"><ele>227.66666666666669</ele><time>2026-04-25T06:45:00Z</time></trkpt><trkpt lat="45.67804840502893" lon="9.607109434869177"><ele>228.0</ele><time>2026-04-25T06:45:01Z</time></trkpt><trkpt lat="45.678085411705595" lon="9.607406868735042"><ele>228.0</ele><time>2026-04-25T06:45:02Z</time></trkpt><trkpt lat="45.67812551762769" lon="9.60770605770461"><ele>228.0</ele><time>2026-04-25T06:45:03Z</time></trkpt><trkpt lat="45.67816594992312" lon="9.608003996804088"><ele>228.0</ele><time>2026-04-25T06:45:04Z</time></trkpt><trkpt lat="45.6782099973674" lon="9.608300355260873"><ele>228.0</ele><time>2026-04-25T06:45:05Z</time></trkpt><trkpt lat="45.67826177721925" lon="9.60859483030996"><ele>228.0</ele><time>2026-04-25T06:45:06Z</time></trkpt><trkpt lat="45.67832182493388" lon="9.60888432715239"><ele>228.0</ele><time>2026-04-25T06:45:07Z</time></trkpt><trkpt lat="45.67838624230452" lon="9.60916988908576"><ele>228.0</ele><time>2026-04-25T06:45:08Z</time></trkpt><trkpt lat="45.67845539045083" lon="9.609453576018018"><ele>228.0</ele><time>2026-04-25T06:45:09Z</time></trkpt><trkpt lat="45.67853055219906" lon="9.609732985943094"><ele>228.0</ele><time>2026-04-25T06:45:10Z</time></trkpt><trkpt lat="45.67861072547966" lon="9.610007903735804"><ele>228.0</ele><time>2026-04-25T06:45:11Z</time></trkpt><trkpt lat="45.67869628479653" lon="9.610281254820876"><ele>228.0</ele><time>2026-04-25T06:45:12Z</time></trkpt><trkpt lat="45.678784987376" lon="9.610549047201145"><ele>228.0</ele><time>2026-04-25T06:45:13Z</time></trkpt><trkpt lat="45.67887803033333" lon="9.610812173888815"><ele>228.0</ele><time>2026-04-25T06:45:14Z</time></trkpt><trkpt lat="45.678974108039384" lon="9.61107282226959"><ele>228.0</ele><time>2026-04-25T06:45:15Z</time></trkpt><trkpt lat="45.67907356366397" lon="9.611331581705658"><ele>228.0</ele><time>2026-04-25T06:45:16Z</time></trkpt><trkpt lat="45.67917443161485" lon="9.611588977781045"><ele>228.0</ele><time>2026-04-25T06:45:16.999Z</time></trkpt><trkpt lat="45.67927581776086" lon="9.611847824227455"><ele>228.0</ele><time>2026-04-25T06:45:17.999Z</time></trkpt><trkpt lat="45.679374117588615" lon="9.612108690573033"><ele>228.0</ele><time>2026-04-25T06:45:18.999Z</time></trkpt><trkpt lat="45.679473343457026" lon="9.612370715488586"><ele>228.0</ele><time>2026-04-25T06:45:19.999Z</time></trkpt><trkpt lat="45.679571754505844" lon="9.612631552015435"><ele>228.0</ele><time>2026-04-25T06:45:20.999Z</time></trkpt><trkpt lat="45.67967034337027" lon="9.612892954423632"><ele>228.0</ele><time>2026-04-25T06:45:21.999Z</time></trkpt><trkpt lat="45.67977056390876" lon="9.613153003467943"><ele>228.0</ele><time>2026-04-25T06:45:22.999Z</time></trkpt><trkpt lat="45.67987227091594" lon="9.613410159263061"><ele>228.0</ele><time>2026-04-25T06:45:23.999Z</time></trkpt><trkpt lat="45.67997439086507" lon="9.61367019571965"><ele>228.0</ele><time>2026-04-25T06:45:24.999Z</time></trkpt><trkpt lat="45.680075218617795" lon="9.613931504722638"><ele>228.0</ele><time>2026-04-25T06:45:25.999Z</time></trkpt><trkpt lat="45.68017837977742" lon="9.614195196637425"><ele>228.0</ele><time>2026-04-25T06:45:26.999Z</time></trkpt><trkpt lat="45.68028058986084" lon="9.614456696911033"><ele>228.0</ele><time>2026-04-25T06:45:27.999Z</time></trkpt><trkpt lat="45.68038302995309" lon="9.614720334380385"><ele>228.66666666666669</ele><time>2026-04-25T06:45:28.999Z</time></trkpt><trkpt lat="45.68048614572127" lon="9.61498585081657"><ele>229.33333333333334</ele><time>2026-04-25T06:45:29.999Z</time></trkpt><trkpt lat="45.68058901038585" lon="9.615251031904089"><ele>230.0</ele><time>2026-04-25T06:45:30.999Z</time></trkpt><trkpt lat="45.680691646053305" lon="9.615518889981443"><ele>230.0</ele><time>2026-04-25T06:45:31.999Z</time></trkpt><trkpt lat="45.68079232374568" lon="9.615790216868374"><ele>230.0</ele><time>2026-04-25T06:45:32.999Z</time></trkpt><trkpt lat="45.68089017842714" lon="9.616063082935366"><ele>230.0</ele><time>2026-04-25T06:45:33.999Z</time></trkpt><trkpt lat="45.68098657918989" lon="9.616338433522264"><ele>230.0</ele><time>2026-04-25T06:45:34.999Z</time></trkpt><trkpt lat="45.68107961111156" lon="9.61661698824193"><ele>230.0</ele><time>2026-04-25T06:45:35.999Z</time></trkpt><trkpt lat="45.68117074692101" lon="9.616899171156911"><ele>230.0</ele><time>2026-04-25T06:45:36.999Z</time></trkpt><trkpt lat="45.68125820852263" lon="9.617179655663655"><ele>230.0</ele><time>2026-04-25T06:45:37.999Z</time></trkpt><trkpt lat="45.681344709041625" lon="9.617464867380848"><ele>230.0</ele><time>2026-04-25T06:45:38.999Z</time></trkpt><trkpt lat="45.681426417824646" lon="9.617751516339338"><ele>230.0</ele><time>2026-04-25T06:45:39.999Z</time></trkpt><trkpt lat="45.681502457468824" lon="9.618039268627639"><ele>230.0</ele><time>2026-04-25T06:45:40.999Z</time></trkpt><trkpt lat="45.681574883508276" lon="9.618329792556844"><ele>230.0</ele><time>2026-04-25T06:45:41.999Z</time></trkpt><trkpt lat="45.681642994573686" lon="9.618621843534047"><ele>230.0</ele><time>2026-04-25T06:45:42.999Z</time></trkpt><trkpt lat="45.68170585920077" lon="9.618917388463338"><ele>230.33333333333334</ele><time>2026-04-25T06:45:43.999Z</time></trkpt><trkpt lat="45.68176468753678" lon="9.619217348911876"><ele>230.66666666666669</ele><time>2026-04-25T06:45:44.999Z</time></trkpt><trkpt lat="45.68182050428772" lon="9.619515366033905"><ele>231.0</ele><time>2026-04-25T06:45:45.999Z</time></trkpt><trkpt lat="45.68187515395051" lon="9.619816725939522"><ele>231.0</ele><time>2026-04-25T06:45:46.999Z</time></trkpt><trkpt lat="45.68192524721864" lon="9.620118794152036"><ele>231.0</ele><time>2026-04-25T06:45:47.999Z</time></trkpt><trkpt lat="45.68197194224256" lon="9.62042669836863"><ele>231.0</ele><time>2026-04-25T06:45:48.999Z</time></trkpt><trkpt lat="45.682014189427946" lon="9.620738042639198"><ele>230.33333333333331</ele><time>2026-04-25T06:45:49.999Z</time></trkpt><trkpt lat="45.68205346887911" lon="9.621051074138487"><ele>229.66666666666666</ele><time>2026-04-25T06:45:50.999Z</time></trkpt><trkpt lat="45.68209060365764" lon="9.621366175824821"><ele>229.0</ele><time>2026-04-25T06:45:51.999Z</time></trkpt><trkpt lat="45.68212445753879" lon="9.621681238615212"><ele>228.66666666666666</ele><time>2026-04-25T06:45:52.999Z</time></trkpt><trkpt lat="45.68215581498989" lon="9.622000057277528"><ele>228.33333333333331</ele><time>2026-04-25T06:45:53.999Z</time></trkpt><trkpt lat="45.68218155430592" lon="9.622318768022026"><ele>228.0</ele><time>2026-04-25T06:45:54.999Z</time></trkpt><trkpt lat="45.68220989320179" lon="9.622633520915969"><ele>228.33333333333331</ele><time>2026-04-25T06:45:55.999Z</time></trkpt><trkpt lat="45.68224258751479" lon="9.622950415360368"><ele>228.66666666666666</ele><time>2026-04-25T06:45:56.999Z</time></trkpt><trkpt lat="45.68227766254559" lon="9.62326560860964"><ele>229.0</ele><time>2026-04-25T06:45:57.999Z</time></trkpt><trkpt lat="45.682313465146095" lon="9.623580276307381"><ele>229.0</ele><time>2026-04-25T06:45:58.999Z</time></trkpt><trkpt lat="45.682349120378156" lon="9.623894894578564"><ele>229.0</ele><time>2026-04-25T06:45:59.999Z</time></trkpt><trkpt lat="45.68238451045078" lon="9.624210605131342"><ele>229.0</ele><time>2026-04-25T06:46:00.999Z</time></trkpt><trkpt lat="45.68242228177087" lon="9.62452472156915"><ele>229.0</ele><time>2026-04-25T06:46:01.999Z</time></trkpt><trkpt lat="45.68245955140844" lon="9.624837097105578"><ele>229.0</ele><time>2026-04-25T06:46:02.999Z</time></trkpt><trkpt lat="45.68249443450633" lon="9.62514979720663"><ele>229.0</ele><time>2026-04-25T06:46:03.999Z</time></trkpt><trkpt lat="45.68252766972097" lon="9.62546108053223"><ele>227.66666666666666</ele><time>2026-04-25T06:46:04.999Z</time></trkpt><trkpt lat="45.68256102923733" lon="9.625771181456747"><ele>226.33333333333331</ele><time>2026-04-25T06:46:05.999Z</time></trkpt><trkpt lat="45.68259502075683" lon="9.626078457291078"><ele>225.0</ele><time>2026-04-25T06:46:06.999Z</time></trkpt><trkpt lat="45.682626701411905" lon="9.626385315182203"><ele>224.33333333333331</ele><time>2026-04-25T06:46:07.999Z</time></trkpt><trkpt lat="45.68265959769455" lon="9.626688384097042"><ele>223.66666666666666</ele><time>2026-04-25T06:46:08.999Z</time></trkpt><trkpt lat="45.68268998362434" lon="9.626991500258466"><ele>223.0</ele><time>2026-04-25T06:46:09.999Z</time></trkpt><trkpt lat="45.68271191684413" lon="9.62729463004662"><ele>223.0</ele><time>2026-04-25T06:46:10.999Z</time></trkpt><trkpt lat="45.68273129754427" lon="9.627598334970317"><ele>223.0</ele><time>2026-04-25T06:46:11.999Z</time></trkpt><trkpt lat="45.68274937237271" lon="9.627906480573621"><ele>223.0</ele><time>2026-04-25T06:46:12.999Z</time></trkpt><trkpt lat="45.68276332533962" lon="9.628213178967886"><ele>223.66666666666666</ele><time>2026-04-25T06:46:13.999Z</time></trkpt><trkpt lat="45.68277291685476" lon="9.628521282352564"><ele>224.33333333333331</ele><time>2026-04-25T06:46:14.999Z</time></trkpt><trkpt lat="45.68277971708663" lon="9.628830553732724"><ele>225.0</ele><time>2026-04-25T06:46:15.999Z</time></trkpt><trkpt lat="45.6827823747951" lon="9.629139145049619"><ele>225.33333333333331</ele><time>2026-04-25T06:46:16.999Z</time></trkpt><trkpt lat="45.68277980063525" lon="9.629449927572622"><ele>225.66666666666666</ele><time>2026-04-25T06:46:17.999Z</time></trkpt><trkpt lat="45.68276981993817" lon="9.629760133873244"><ele>226.0</ele><time>2026-04-25T06:46:18.999Z</time></trkpt><trkpt lat="45.68275436237235" lon="9.630071267885338"><ele>225.0</ele><time>2026-04-25T06:46:19.999Z</time></trkpt><trkpt lat="45.68273396662438" lon="9.630379117620539"><ele>224.0</ele><time>2026-04-25T06:46:20.999Z</time></trkpt><trkpt lat="45.68270646137756" lon="9.630691563412375"><ele>223.0</ele><time>2026-04-25T06:46:21.999Z</time></trkpt><trkpt lat="45.68267613642078" lon="9.631002631691125"><ele>223.66666666666666</ele><time>2026-04-25T06:46:22.999Z</time></trkpt><trkpt lat="45.682641208159964" lon="9.63131340014626"><ele>224.33333333333331</ele><time>2026-04-25T06:46:23.999Z</time></trkpt><trkpt lat="45.68259864415051" lon="9.631622780787323"><ele>225.0</ele><time>2026-04-25T06:46:24.999Z</time></trkpt><trkpt lat="45.682550008359414" lon="9.631935427053184"><ele>224.0</ele><time>2026-04-25T06:46:25.999Z</time></trkpt><trkpt lat="45.68249798277222" lon="9.632245461482796"><ele>223.0</ele><time>2026-04-25T06:46:26.999Z</time></trkpt><trkpt lat="45.68243999965248" lon="9.632552788421046"><ele>222.0</ele><time>2026-04-25T06:46:27.999Z</time></trkpt><trkpt lat="45.68237790458121" lon="9.632860912749694"><ele>222.0</ele><time>2026-04-25T06:46:28.999Z</time></trkpt><trkpt lat="45.68230969574787" lon="9.63317153724359"><ele>222.0</ele><time>2026-04-25T06:46:29.999Z</time></trkpt><trkpt lat="45.682249072142085" lon="9.633471714355293"><ele>222.0</ele><time>2026-04-25T06:46:30.999Z</time></trkpt><trkpt lat="45.682175881487176" lon="9.63378901882849"><ele>222.0</ele><time>2026-04-25T06:46:31.999Z</time></trkpt><trkpt lat="45.682105312605444" lon="9.634096594867788"><ele>222.0</ele><time>2026-04-25T06:46:32.999Z</time></trkpt><trkpt lat="45.68203236034697" lon="9.634409689191472"><ele>221.5</ele><time>2026-04-25T06:46:33.999Z</time></trkpt><trkpt lat="45.681940578274805" lon="9.634711711485254"><ele>221.0</ele><time>2026-04-25T06:46:34.999Z</time></trkpt><trkpt lat="45.68183451103399" lon="9.634996760300576"><ele>221.0</ele><time>2026-04-25T06:46:35.999Z</time></trkpt><trkpt lat="45.681704542384786" lon="9.635273056210524"><ele>221.0</ele><time>2026-04-25T06:46:36.999Z</time></trkpt><trkpt lat="45.68157210607134" lon="9.635539703307535"><ele>222.0</ele><time>2026-04-25T06:46:37.999Z</time></trkpt><trkpt lat="45.68143007424882" lon="9.635793525521462"><ele>223.0</ele><time>2026-04-25T06:46:38.999Z</time></trkpt><trkpt lat="45.681279587473874" lon="9.63603250766648"><ele>223.0</ele><time>2026-04-25T06:46:39.999Z</time></trkpt><trkpt lat="45.681114621271284" lon="9.636257775453707"><ele>223.0</ele><time>2026-04-25T06:46:40.999Z</time></trkpt><trkpt lat="45.68094413249141" lon="9.63646996008429"><ele>223.0</ele><time>2026-04-25T06:46:41.999Z</time></trkpt><trkpt lat="45.680765411608306" lon="9.636658553712529"><ele>223.0</ele><time>2026-04-25T06:46:42.999Z</time></trkpt><trkpt lat="45.68057657041409" lon="9.636839782339136"><ele>223.0</ele><time>2026-04-25T06:46:43.999Z</time></trkpt><trkpt lat="45.68038159716406" lon="9.637007378700966"><ele>223.0</ele><time>2026-04-25T06:46:44.998Z</time></trkpt><trkpt lat="45.68018398749661" lon="9.637163346788444"><ele>223.0</ele><time>2026-04-25T06:46:45.998Z</time></trkpt><trkpt lat="45.679984863882176" lon="9.637324637722426"><ele>223.0</ele><time>2026-04-25T06:46:46.998Z</time></trkpt><trkpt lat="45.67979116116764" lon="9.637489053727686"><ele>223.0</ele><time>2026-04-25T06:46:47.998Z</time></trkpt><trkpt lat="45.67959286506665" lon="9.637656149274555"><ele>223.0</ele><time>2026-04-25T06:46:48.998Z</time></trkpt><trkpt lat="45.679396554988784" lon="9.637827801632938"><ele>223.0</ele><time>2026-04-25T06:46:49.998Z</time></trkpt><trkpt lat="45.67919818796606" lon="9.638007798715718"><ele>223.0</ele><time>2026-04-25T06:46:50.998Z</time></trkpt><trkpt lat="45.67900194314537" lon="9.638192830211004"><ele>223.0</ele><time>2026-04-25T06:46:51.998Z</time></trkpt><trkpt lat="45.67881974434909" lon="9.638400763120258"><ele>223.0</ele><time>2026-04-25T06:46:52.998Z</time></trkpt><trkpt lat="45.6786452787751" lon="9.638629142371363"><ele>223.0</ele><time>2026-04-25T06:46:53.998Z</time></trkpt><trkpt lat="45.67848036753587" lon="9.638875381075762"><ele>222.0</ele><time>2026-04-25T06:46:54.998Z</time></trkpt><trkpt lat="45.67831161805115" lon="9.639118914351364"><ele>221.0</ele><time>2026-04-25T06:46:55.998Z</time></trkpt><trkpt lat="45.678153481702346" lon="9.639370222835044"><ele>220.5</ele><time>2026-04-25T06:46:56.998Z</time></trkpt><trkpt lat="45.67800526668063" lon="9.639632475807192"><ele>220.0</ele><time>2026-04-25T06:46:58Z</time></trkpt><trkpt lat="45.67786893212368" lon="9.63990516864649"><ele>220.0</ele><time>2026-04-25T06:46:59Z</time></trkpt><trkpt lat="45.67773921487629" lon="9.640183823846673"><ele>220.0</ele><time>2026-04-25T06:47:00Z</time></trkpt><trkpt lat="45.67761184468295" lon="9.640465814097217"><ele>221.0</ele><time>2026-04-25T06:47:01Z</time></trkpt><trkpt lat="45.677483585685565" lon="9.64074954362973"><ele>222.0</ele><time>2026-04-25T06:47:02Z</time></trkpt><trkpt lat="45.67736014116695" lon="9.641033542986397"><ele>222.5</ele><time>2026-04-25T06:47:03Z</time></trkpt><trkpt lat="45.677235387454246" lon="9.641318756197622"><ele>223.0</ele><time>2026-04-25T06:47:04Z</time></trkpt><trkpt lat="45.6771139314447" lon="9.64160158421996"><ele>223.0</ele><time>2026-04-25T06:47:05Z</time></trkpt><trkpt lat="45.67699651095347" lon="9.641886721458755"><ele>223.0</ele><time>2026-04-25T06:47:06Z</time></trkpt><trkpt lat="45.67687813495792" lon="9.64216999807047"><ele>223.5</ele><time>2026-04-25T06:47:07Z</time></trkpt><trkpt lat="45.67675363508293" lon="9.64244885527458"><ele>224.0</ele><time>2026-04-25T06:47:08Z</time></trkpt><trkpt lat="45.67662925259845" lon="9.642722132113747"><ele>224.0</ele><time>2026-04-25T06:47:09Z</time></trkpt><trkpt lat="45.67650717829233" lon="9.642996184978667"><ele>224.0</ele><time>2026-04-25T06:47:10Z</time></trkpt><trkpt lat="45.676386655118996" lon="9.643267497903821"><ele>224.0</ele><time>2026-04-25T06:47:11Z</time></trkpt><trkpt lat="45.67626862076796" lon="9.643537216582617"><ele>224.0</ele><time>2026-04-25T06:47:12Z</time></trkpt><trkpt lat="45.67614609872871" lon="9.643808642790166"><ele>224.0</ele><time>2026-04-25T06:47:13Z</time></trkpt><trkpt lat="45.67602570456868" lon="9.644077666402994"><ele>224.0</ele><time>2026-04-25T06:47:14Z</time></trkpt><trkpt lat="45.675907681829315" lon="9.644344084311363"><ele>224.0</ele><time>2026-04-25T06:47:15Z</time></trkpt><trkpt lat="45.67579774456582" lon="9.644613748716326"><ele>224.0</ele><time>2026-04-25T06:47:16Z</time></trkpt><trkpt lat="45.6757030323933" lon="9.644897874467134"><ele>224.33333333333334</ele><time>2026-04-25T06:47:17Z</time></trkpt><trkpt lat="45.675625701605064" lon="9.645191096941005"><ele>224.66666666666669</ele><time>2026-04-25T06:47:18Z</time></trkpt><trkpt lat="45.67556640463803" lon="9.645492626500255"><ele>225.0</ele><time>2026-04-25T06:47:19Z</time></trkpt><trkpt lat="45.6755246922277" lon="9.645799931342117"><ele>225.0</ele><time>2026-04-25T06:47:19.999Z</time></trkpt><trkpt lat="45.675501226481316" lon="9.646112958386352"><ele>225.0</ele><time>2026-04-25T06:47:20.999Z</time></trkpt><trkpt lat="45.67549701873129" lon="9.646431083729722"><ele>225.0</ele><time>2026-04-25T06:47:21.999Z</time></trkpt><trkpt lat="45.6755039746909" lon="9.64674965260606"><ele>225.0</ele><time>2026-04-25T06:47:22.999Z</time></trkpt><trkpt lat="45.67551660601776" lon="9.647069625630305"><ele>225.0</ele><time>2026-04-25T06:47:23.999Z</time></trkpt><trkpt lat="45.67553008313739" lon="9.647392571675299"><ele>225.0</ele><time>2026-04-25T06:47:24.999Z</time></trkpt><trkpt lat="45.67554434827372" lon="9.647716899220065"><ele>225.0</ele><time>2026-04-25T06:47:25.999Z</time></trkpt><trkpt lat="45.67555738565341" lon="9.648043733019277"><ele>224.5</ele><time>2026-04-25T06:47:26.999Z</time></trkpt><trkpt lat="45.6755703052185" lon="9.648377309919987"><ele>224.0</ele><time>2026-04-25T06:47:27.999Z</time></trkpt><trkpt lat="45.675582364195165" lon="9.648713015924876"><ele>224.0</ele><time>2026-04-25T06:47:28.999Z</time></trkpt><trkpt lat="45.675593257401665" lon="9.649048785790674"><ele>224.0</ele><time>2026-04-25T06:47:29.999Z</time></trkpt><trkpt lat="45.67560467187507" lon="9.649384892673467"><ele>224.5</ele><time>2026-04-25T06:47:30.999Z</time></trkpt><trkpt lat="45.67561614959913" lon="9.649720364558773"><ele>225.0</ele><time>2026-04-25T06:47:31.999Z</time></trkpt><trkpt lat="45.675628547796215" lon="9.65005558075835"><ele>223.5</ele><time>2026-04-25T06:47:32.999Z</time></trkpt><trkpt lat="45.67563598682603" lon="9.650385439764325"><ele>222.0</ele><time>2026-04-25T06:47:33.999Z</time></trkpt><trkpt lat="45.67563949687232" lon="9.650715909428628"><ele>222.0</ele><time>2026-04-25T06:47:34.999Z</time></trkpt><trkpt lat="45.67564105289778" lon="9.651041924569645"><ele>222.0</ele><time>2026-04-25T06:47:35.999Z</time></trkpt><trkpt lat="45.67564544235317" lon="9.65136853939189"><ele>222.5</ele><time>2026-04-25T06:47:36.999Z</time></trkpt><trkpt lat="45.675653131499956" lon="9.651695326165393"><ele>223.0</ele><time>2026-04-25T06:47:37.999Z</time></trkpt><trkpt lat="45.67566355750755" lon="9.652023088003212"><ele>223.0</ele><time>2026-04-25T06:47:38.999Z</time></trkpt><trkpt lat="45.67567451393555" lon="9.652347445239869"><ele>223.0</ele><time>2026-04-25T06:47:39.999Z</time></trkpt><trkpt lat="45.67568577066126" lon="9.652672420014833"><ele>224.0</ele><time>2026-04-25T06:47:40.999Z</time></trkpt><trkpt lat="45.67569736132791" lon="9.652998362531044"><ele>225.0</ele><time>2026-04-25T06:47:41.999Z</time></trkpt><trkpt lat="45.675707577298084" lon="9.65332702430721"><ele>224.5</ele><time>2026-04-25T06:47:42.999Z</time></trkpt><trkpt lat="45.67571829219291" lon="9.653648145168152"><ele>224.0</ele><time>2026-04-25T06:47:43.999Z</time></trkpt><trkpt lat="45.675731310835545" lon="9.653969486275313"><ele>224.0</ele><time>2026-04-25T06:47:44.999Z</time></trkpt><trkpt lat="45.675744900772116" lon="9.654285496824901"><ele>224.0</ele><time>2026-04-25T06:47:45.999Z</time></trkpt><trkpt lat="45.6757590465491" lon="9.654610349350522"><ele>224.0</ele><time>2026-04-25T06:47:46.999Z</time></trkpt><trkpt lat="45.675767742413235" lon="9.654927005030292"><ele>224.0</ele><time>2026-04-25T06:47:47.999Z</time></trkpt><trkpt lat="45.67577678903496" lon="9.655245225328601"><ele>224.0</ele><time>2026-04-25T06:47:48.999Z</time></trkpt><trkpt lat="45.67578566348738" lon="9.655561877355327"><ele>224.0</ele><time>2026-04-25T06:47:49.999Z</time></trkpt><trkpt lat="45.67579936032495" lon="9.655879787463972"><ele>224.0</ele><time>2026-04-25T06:47:50.999Z</time></trkpt><trkpt lat="45.67581425410475" lon="9.656196676893064"><ele>224.0</ele><time>2026-04-25T06:47:51.999Z</time></trkpt><trkpt lat="45.67582642688447" lon="9.656510912473527"><ele>224.0</ele><time>2026-04-25T06:47:52.999Z</time></trkpt><trkpt lat="45.67584062981821" lon="9.656830139138032"><ele>224.66666666666669</ele><time>2026-04-25T06:47:53.999Z</time></trkpt><trkpt lat="45.67585262529725" lon="9.65714553088226"><ele>225.33333333333331</ele><time>2026-04-25T06:47:54.999Z</time></trkpt><trkpt lat="45.67586482623656" lon="9.657460046685665"><ele>226.0</ele><time>2026-04-25T06:47:55.999Z</time></trkpt><trkpt lat="45.6758788748232" lon="9.657775596877253"><ele>227.33333333333331</ele><time>2026-04-25T06:47:56.999Z</time></trkpt><trkpt lat="45.675894252902715" lon="9.658088722093911"><ele>228.66666666666669</ele><time>2026-04-25T06:47:57.999Z</time></trkpt><trkpt lat="45.67591361239657" lon="9.658407688054798"><ele>230.0</ele><time>2026-04-25T06:47:58.999Z</time></trkpt><trkpt lat="45.6759303294301" lon="9.658720191938095"><ele>230.0</ele><time>2026-04-25T06:47:59.999Z</time></trkpt><trkpt lat="45.675946363394374" lon="9.659037446236725"><ele>230.0</ele><time>2026-04-25T06:48:00.999Z</time></trkpt><trkpt lat="45.6759594428894" lon="9.659358889945235"><ele>230.0</ele><time>2026-04-25T06:48:01.999Z</time></trkpt><trkpt lat="45.675970983217944" lon="9.659678382560958"><ele>228.5</ele><time>2026-04-25T06:48:02.999Z</time></trkpt><trkpt lat="45.67598287907842" lon="9.66000418148109"><ele>227.0</ele><time>2026-04-25T06:48:03.999Z</time></trkpt><trkpt lat="45.675997149798334" lon="9.660337215819512"><ele>227.0</ele><time>2026-04-25T06:48:04.999Z</time></trkpt><trkpt lat="45.67600662453573" lon="9.660667872924417"><ele>227.0</ele><time>2026-04-25T06:48:05.999Z</time></trkpt><trkpt lat="45.67601758517169" lon="9.66100052821083"><ele>228.5</ele><time>2026-04-25T06:48:06.999Z</time></trkpt><trkpt lat="45.676033433716" lon="9.661332644357175"><ele>230.0</ele><time>2026-04-25T06:48:07.999Z</time></trkpt><trkpt lat="45.67604224007993" lon="9.661659492227036"><ele>230.0</ele><time>2026-04-25T06:48:08.999Z</time></trkpt><trkpt lat="45.67605061310479" lon="9.66198517997239"><ele>230.0</ele><time>2026-04-25T06:48:09.999Z</time></trkpt><trkpt lat="45.67606439685366" lon="9.662305783952828"><ele>230.0</ele><time>2026-04-25T06:48:10.999Z</time></trkpt><trkpt lat="45.67607528108105" lon="9.662622433795468"><ele>230.0</ele><time>2026-04-25T06:48:11.999Z</time></trkpt><trkpt lat="45.67608822843259" lon="9.662942719206507"><ele>230.0</ele><time>2026-04-25T06:48:12.999Z</time></trkpt><trkpt lat="45.676101687641086" lon="9.66326443847017"><ele>230.5</ele><time>2026-04-25T06:48:13.999Z</time></trkpt><trkpt lat="45.67611888129189" lon="9.663594956647836"><ele>231.0</ele><time>2026-04-25T06:48:14.999Z</time></trkpt><trkpt lat="45.67613261780683" lon="9.663916077867102"><ele>231.0</ele><time>2026-04-25T06:48:15.999Z</time></trkpt><trkpt lat="45.67613972467311" lon="9.664236456329128"><ele>231.0</ele><time>2026-04-25T06:48:16.999Z</time></trkpt><trkpt lat="45.676151932453415" lon="9.664560036002143"><ele>231.5</ele><time>2026-04-25T06:48:17.999Z</time></trkpt><trkpt lat="45.67615284980175" lon="9.664881846756137"><ele>232.0</ele><time>2026-04-25T06:48:18.999Z</time></trkpt><trkpt lat="45.67616116671251" lon="9.665205639875005"><ele>233.0</ele><time>2026-04-25T06:48:19.999Z</time></trkpt><trkpt lat="45.67616177396952" lon="9.665529954922707"><ele>234.0</ele><time>2026-04-25T06:48:20.999Z</time></trkpt><trkpt lat="45.676169530092054" lon="9.66585556832572"><ele>234.0</ele><time>2026-04-25T06:48:21.999Z</time></trkpt><trkpt lat="45.676179555420916" lon="9.666179469810734"><ele>234.0</ele><time>2026-04-25T06:48:22.999Z</time></trkpt><trkpt lat="45.676179744607175" lon="9.666500662804678"><ele>234.0</ele><time>2026-04-25T06:48:23.999Z</time></trkpt><trkpt lat="45.67616900878284" lon="9.666823258311975"><ele>234.0</ele><time>2026-04-25T06:48:24.999Z</time></trkpt><trkpt lat="45.67615498112811" lon="9.667143126688861"><ele>234.0</ele><time>2026-04-25T06:48:25.999Z</time></trkpt><trkpt lat="45.67613730287934" lon="9.66746201070703"><ele>234.0</ele><time>2026-04-25T06:48:26.999Z</time></trkpt><trkpt lat="45.67611797530325" lon="9.667781436024502"><ele>234.0</ele><time>2026-04-25T06:48:27.999Z</time></trkpt><trkpt lat="45.67609907491523" lon="9.668101160238706"><ele>234.0</ele><time>2026-04-25T06:48:28.999Z</time></trkpt><trkpt lat="45.6760755787332" lon="9.668412112748689"><ele>234.0</ele><time>2026-04-25T06:48:29.999Z</time></trkpt><trkpt lat="45.67604477447249" lon="9.668726088975086"><ele>234.0</ele><time>2026-04-25T06:48:30.999Z</time></trkpt><trkpt lat="45.67601374595796" lon="9.669046364436092"><ele>234.0</ele><time>2026-04-25T06:48:31.999Z</time></trkpt><trkpt lat="45.675976708422006" lon="9.669358529149665"><ele>234.0</ele><time>2026-04-25T06:48:32.999Z</time></trkpt><trkpt lat="45.67593351090181" lon="9.669669394618195"><ele>234.0</ele><time>2026-04-25T06:48:33.999Z</time></trkpt><trkpt lat="45.675889487769574" lon="9.669977249619873"><ele>236.0</ele><time>2026-04-25T06:48:34.999Z</time></trkpt><trkpt lat="45.675850328885296" lon="9.670291765497263"><ele>238.0</ele><time>2026-04-25T06:48:35.999Z</time></trkpt><trkpt lat="45.67581353133613" lon="9.670603410496685"><ele>240.0</ele><time>2026-04-25T06:48:36.999Z</time></trkpt><trkpt lat="45.67577617394404" lon="9.67091140441506"><ele>239.0</ele><time>2026-04-25T06:48:37.999Z</time></trkpt><trkpt lat="45.67574055753425" lon="9.671221523445347"><ele>238.0</ele><time>2026-04-25T06:48:38.999Z</time></trkpt><trkpt lat="45.675703748481695" lon="9.671530375567905"><ele>237.0</ele><time>2026-04-25T06:48:39.999Z</time></trkpt><trkpt lat="45.67566852547495" lon="9.671837041319664"><ele>236.66666666666669</ele><time>2026-04-25T06:48:40.999Z</time></trkpt><trkpt lat="45.67563110189859" lon="9.672144112619025"><ele>236.33333333333334</ele><time>2026-04-25T06:48:41.999Z</time></trkpt><trkpt lat="45.67559824709804" lon="9.672451921942445"><ele>236.0</ele><time>2026-04-25T06:48:42.999Z</time></trkpt><trkpt lat="45.675565809170905" lon="9.672759196087261"><ele>236.33333333333334</ele><time>2026-04-25T06:48:43.999Z</time></trkpt><trkpt lat="45.67553243249932" lon="9.673065444297675"><ele>236.66666666666669</ele><time>2026-04-25T06:48:44.999Z</time></trkpt><trkpt lat="45.67549581881221" lon="9.673373811255146"><ele>237.0</ele><time>2026-04-25T06:48:45.999Z</time></trkpt><trkpt lat="45.67545967502474" lon="9.67368465033096"><ele>237.0</ele><time>2026-04-25T06:48:46.998Z</time></trkpt><trkpt lat="45.67542302922847" lon="9.673998391751063"><ele>237.0</ele><time>2026-04-25T06:48:47.998Z</time></trkpt><trkpt lat="45.675386118953625" lon="9.674314208171982"><ele>237.0</ele><time>2026-04-25T06:48:48.998Z</time></trkpt><trkpt lat="45.6753481888177" lon="9.674632677077984"><ele>237.0</ele><time>2026-04-25T06:48:49.998Z</time></trkpt><trkpt lat="45.675308039951425" lon="9.674952128544298"><ele>237.0</ele><time>2026-04-25T06:48:50.998Z</time></trkpt><trkpt lat="45.67527244233171" lon="9.6752749977696"><ele>235.5</ele><time>2026-04-25T06:48:51.998Z</time></trkpt><trkpt lat="45.675233073794814" lon="9.675597939881168"><ele>234.0</ele><time>2026-04-25T06:48:52.998Z</time></trkpt><trkpt lat="45.67519645240051" lon="9.675921830789802"><ele>233.5</ele><time>2026-04-25T06:48:53.998Z</time></trkpt><trkpt lat="45.67516337095406" lon="9.676248396612186"><ele>233.0</ele><time>2026-04-25T06:48:54.998Z</time></trkpt><trkpt lat="45.675130654713215" lon="9.676574583380209"><ele>233.0</ele><time>2026-04-25T06:48:55.998Z</time></trkpt><trkpt lat="45.675094474094465" lon="9.676899767255021"><ele>233.0</ele><time>2026-04-25T06:48:56.998Z</time></trkpt><trkpt lat="45.67505794368759" lon="9.677226017867241"><ele>235.0</ele><time>2026-04-25T06:48:57.998Z</time></trkpt><trkpt lat="45.67501731348843" lon="9.677550101251647"><ele>237.0</ele><time>2026-04-25T06:48:58.998Z</time></trkpt><trkpt lat="45.67497865694708" lon="9.677872880383886"><ele>238.0</ele><time>2026-04-25T06:48:59.998Z</time></trkpt><trkpt lat="45.67495054862951" lon="9.67819964686905"><ele>239.0</ele><time>2026-04-25T06:49:00.998Z</time></trkpt><trkpt lat="45.67493105955516" lon="9.67852385664171"><ele>239.0</ele><time>2026-04-25T06:49:01.998Z</time></trkpt><trkpt lat="45.67492762642861" lon="9.678849295323717"><ele>239.0</ele><time>2026-04-25T06:49:03Z</time></trkpt><trkpt lat="45.67493992666156" lon="9.679176086573557"><ele>239.66666666666669</ele><time>2026-04-25T06:49:04Z</time></trkpt><trkpt lat="45.674969537290295" lon="9.679497094820489"><ele>240.33333333333331</ele><time>2026-04-25T06:49:05Z</time></trkpt><trkpt lat="45.674992767585266" lon="9.679810195924098"><ele>241.0</ele><time>2026-04-25T06:49:06Z</time></trkpt><trkpt lat="45.67502329783674" lon="9.680122906969844"><ele>242.33333333333331</ele><time>2026-04-25T06:49:07Z</time></trkpt><trkpt lat="45.67505517087897" lon="9.680434084348256"><ele>243.66666666666669</ele><time>2026-04-25T06:49:08Z</time></trkpt><trkpt lat="45.67509393787396" lon="9.680740414323438"><ele>245.0</ele><time>2026-04-25T06:49:09Z</time></trkpt><trkpt lat="45.67514134255029" lon="9.681049222675172"><ele>244.33333333333334</ele><time>2026-04-25T06:49:10Z</time></trkpt><trkpt lat="45.675197057789404" lon="9.681349023283458"><ele>243.66666666666669</ele><time>2026-04-25T06:49:11Z</time></trkpt><trkpt lat="45.67526484440487" lon="9.681641223020135"><ele>243.0</ele><time>2026-04-25T06:49:12Z</time></trkpt><trkpt lat="45.675344085441985" lon="9.681930729055724"><ele>242.33333333333331</ele><time>2026-04-25T06:49:13Z</time></trkpt><trkpt lat="45.675439439217214" lon="9.682202512936474"><ele>241.66666666666666</ele><time>2026-04-25T06:49:14Z</time></trkpt><trkpt lat="45.67553636354133" lon="9.682470004003234"><ele>241.0</ele><time>2026-04-25T06:49:15.001Z</time></trkpt><trkpt lat="45.67564025942967" lon="9.682732170823419"><ele>241.33333333333331</ele><time>2026-04-25T06:49:16.001Z</time></trkpt><trkpt lat="45.67574896164862" lon="9.682992679782696"><ele>241.66666666666669</ele><time>2026-04-25T06:49:17.001Z</time></trkpt><trkpt lat="45.67585726945368" lon="9.683250555765161"><ele>242.0</ele><time>2026-04-25T06:49:18.001Z</time></trkpt><trkpt lat="45.675970402928186" lon="9.683500906538876"><ele>242.0</ele><time>2026-04-25T06:49:19.001Z</time></trkpt><trkpt lat="45.676084572635155" lon="9.683751648020204"><ele>242.0</ele><time>2026-04-25T06:49:20.001Z</time></trkpt><trkpt lat="45.676203956897034" lon="9.683998519977715"><ele>242.0</ele><time>2026-04-25T06:49:21.001Z</time></trkpt><trkpt lat="45.67633009481986" lon="9.684242954053419"><ele>242.0</ele><time>2026-04-25T06:49:22Z</time></trkpt><trkpt lat="45.67645374792468" lon="9.684497530594403"><ele>242.0</ele><time>2026-04-25T06:49:23Z</time></trkpt><trkpt lat="45.676579182063755" lon="9.684751019201034"><ele>242.0</ele><time>2026-04-25T06:49:24Z</time></trkpt><trkpt lat="45.67670569612715" lon="9.685009788716304"><ele>241.0</ele><time>2026-04-25T06:49:25Z</time></trkpt><trkpt lat="45.67683213117585" lon="9.685268996515642"><ele>240.0</ele><time>2026-04-25T06:49:26Z</time></trkpt><trkpt lat="45.676958548692284" lon="9.68552784461752"><ele>239.0</ele><time>2026-04-25T06:49:27Z</time></trkpt><trkpt lat="45.677088265090994" lon="9.685789902498941"><ele>240.0</ele><time>2026-04-25T06:49:28Z</time></trkpt><trkpt lat="45.677219769964076" lon="9.686046695186118"><ele>241.0</ele><time>2026-04-25T06:49:29Z</time></trkpt><trkpt lat="45.677351578106624" lon="9.686306936169261"><ele>242.0</ele><time>2026-04-25T06:49:30Z</time></trkpt><trkpt lat="45.67747777463395" lon="9.686564092913297"><ele>242.0</ele><time>2026-04-25T06:49:31Z</time></trkpt><trkpt lat="45.677606482345276" lon="9.686821690170232"><ele>242.0</ele><time>2026-04-25T06:49:32Z</time></trkpt><trkpt lat="45.677741789317004" lon="9.687080436275735"><ele>242.0</ele><time>2026-04-25T06:49:33Z</time></trkpt><trkpt lat="45.67787012294825" lon="9.687340559578068"><ele>242.33333333333334</ele><time>2026-04-25T06:49:34Z</time></trkpt><trkpt lat="45.67799841533023" lon="9.687601479223133"><ele>242.66666666666669</ele><time>2026-04-25T06:49:35Z</time></trkpt><trkpt lat="45.678126781029604" lon="9.687860597142059"><ele>243.0</ele><time>2026-04-25T06:49:36Z</time></trkpt><trkpt lat="45.67825711574754" lon="9.68812021971883"><ele>242.33333333333331</ele><time>2026-04-25T06:49:37Z</time></trkpt><trkpt lat="45.67838658131531" lon="9.68838144388606"><ele>241.66666666666666</ele><time>2026-04-25T06:49:38Z</time></trkpt><trkpt lat="45.678513024644886" lon="9.688642110996236"><ele>241.0</ele><time>2026-04-25T06:49:39Z</time></trkpt><trkpt lat="45.67863375761961" lon="9.688907956612129"><ele>241.0</ele><time>2026-04-25T06:49:40Z</time></trkpt><trkpt lat="45.67874689304352" lon="9.689179305085599"><ele>241.0</ele><time>2026-04-25T06:49:41Z</time></trkpt><trkpt lat="45.67885444658778" lon="9.68945700292778"><ele>241.0</ele><time>2026-04-25T06:49:42Z</time></trkpt><trkpt lat="45.678952942198265" lon="9.689734164672377"><ele>241.66666666666666</ele><time>2026-04-25T06:49:43Z</time></trkpt><trkpt lat="45.679041568102626" lon="9.69001497894862"><ele>242.33333333333331</ele><time>2026-04-25T06:49:44Z</time></trkpt><trkpt lat="45.67912594594904" lon="9.690300983742246"><ele>243.0</ele><time>2026-04-25T06:49:45Z</time></trkpt><trkpt lat="45.67919775911563" lon="9.690590711633714"><ele>243.0</ele><time>2026-04-25T06:49:46Z</time></trkpt><trkpt lat="45.67926618096676" lon="9.690882446657158"><ele>243.0</ele><time>2026-04-25T06:49:47Z</time></trkpt><trkpt lat="45.67932807617464" lon="9.691176828181312"><ele>243.0</ele><time>2026-04-25T06:49:48Z</time></trkpt><trkpt lat="45.6793850969783" lon="9.691471812735909"><ele>243.33333333333331</ele><time>2026-04-25T06:49:49Z</time></trkpt><trkpt lat="45.67943935952383" lon="9.691769835080477"><ele>243.66666666666666</ele><time>2026-04-25T06:49:50Z</time></trkpt><trkpt lat="45.679487896878896" lon="9.692069629368849"><ele>244.0</ele><time>2026-04-25T06:49:51Z</time></trkpt><trkpt lat="45.67952707472624" lon="9.692374725092694"><ele>244.0</ele><time>2026-04-25T06:49:52Z</time></trkpt><trkpt lat="45.679556199503175" lon="9.69267976560238"><ele>244.0</ele><time>2026-04-25T06:49:53Z</time></trkpt><trkpt lat="45.679578475186716" lon="9.692992565644179"><ele>244.0</ele><time>2026-04-25T06:49:54Z</time></trkpt><trkpt lat="45.67959209954221" lon="9.693303407214886"><ele>244.0</ele><time>2026-04-25T06:49:55Z</time></trkpt><trkpt lat="45.679602040573805" lon="9.69361873441569"><ele>244.0</ele><time>2026-04-25T06:49:56Z</time></trkpt><trkpt lat="45.6796072982845" lon="9.693931287739021"><ele>244.0</ele><time>2026-04-25T06:49:57Z</time></trkpt><trkpt lat="45.67960505988123" lon="9.694246732107107"><ele>244.33333333333331</ele><time>2026-04-25T06:49:58Z</time></trkpt><trkpt lat="45.6795966875889" lon="9.694565886499774"><ele>244.66666666666669</ele><time>2026-04-25T06:49:59Z</time></trkpt><trkpt lat="45.67958462554337" lon="9.694886927026422"><ele>245.0</ele><time>2026-04-25T06:50:00Z</time></trkpt><trkpt lat="45.6795733776717" lon="9.69520531662285"><ele>245.0</ele><time>2026-04-25T06:50:01Z</time></trkpt><trkpt lat="45.679565318432054" lon="9.695526150630633"><ele>245.0</ele><time>2026-04-25T06:50:02Z</time></trkpt><trkpt lat="45.67955741318178" lon="9.695848114538235"><ele>245.0</ele><time>2026-04-25T06:50:03Z</time></trkpt><trkpt lat="45.67954800568589" lon="9.696168902921158"><ele>244.5</ele><time>2026-04-25T06:50:04Z</time></trkpt><trkpt lat="45.67953649350669" lon="9.696492703313139"><ele>244.0</ele><time>2026-04-25T06:50:05Z</time></trkpt><trkpt lat="45.679525242706966" lon="9.696817021718044"><ele>244.66666666666666</ele><time>2026-04-25T06:50:06Z</time></trkpt><trkpt lat="45.6795177354995" lon="9.697130390195165"><ele>245.33333333333331</ele><time>2026-04-25T06:50:07Z</time></trkpt><trkpt lat="45.67950647306965" lon="9.6974436053024"><ele>246.0</ele><time>2026-04-25T06:50:08Z</time></trkpt><trkpt lat="45.67949826727576" lon="9.697758379513786"><ele>246.66666666666669</ele><time>2026-04-25T06:50:09Z</time></trkpt><trkpt lat="45.67948971512247" lon="9.698069965258428"><ele>247.33333333333334</ele><time>2026-04-25T06:50:10Z</time></trkpt><trkpt lat="45.679483420141665" lon="9.698384656908251"><ele>248.0</ele><time>2026-04-25T06:50:11Z</time></trkpt><trkpt lat="45.67947228134206" lon="9.698698114210458"><ele>248.0</ele><time>2026-04-25T06:50:12Z</time></trkpt><trkpt lat="45.67946020471664" lon="9.699012609064297"><ele>248.0</ele><time>2026-04-25T06:50:13Z</time></trkpt><trkpt lat="45.679449762366836" lon="9.699327778910245"><ele>248.0</ele><time>2026-04-25T06:50:14Z</time></trkpt><trkpt lat="45.67943898853042" lon="9.699640858172769"><ele>247.0</ele><time>2026-04-25T06:50:15Z</time></trkpt><trkpt lat="45.67942911816932" lon="9.699953367030474"><ele>246.0</ele><time>2026-04-25T06:50:16Z</time></trkpt><trkpt lat="45.679419394218364" lon="9.700266539983954"><ele>245.0</ele><time>2026-04-25T06:50:17Z</time></trkpt><trkpt lat="45.67940870651633" lon="9.700579810060757"><ele>245.0</ele><time>2026-04-25T06:50:18Z</time></trkpt><trkpt lat="45.679398004795424" lon="9.700894927605423"><ele>245.0</ele><time>2026-04-25T06:50:19Z</time></trkpt><trkpt lat="45.679384685456654" lon="9.70120902298004"><ele>245.0</ele><time>2026-04-25T06:50:20Z</time></trkpt><trkpt lat="45.67936562568435" lon="9.701525508041174"><ele>245.33333333333334</ele><time>2026-04-25T06:50:21Z</time></trkpt><trkpt lat="45.67933746899332" lon="9.70183771181533"><ele>245.66666666666669</ele><time>2026-04-25T06:50:22Z</time></trkpt><trkpt lat="45.679295297137664" lon="9.702143416562384"><ele>246.0</ele><time>2026-04-25T06:50:23Z</time></trkpt><trkpt lat="45.67923984723512" lon="9.702449599027164"><ele>246.66666666666669</ele><time>2026-04-25T06:50:24Z</time></trkpt><trkpt lat="45.679174213225345" lon="9.702747593378954"><ele>247.33333333333334</ele><time>2026-04-25T06:50:25Z</time></trkpt><trkpt lat="45.679098986699834" lon="9.70304058040755"><ele>248.0</ele><time>2026-04-25T06:50:26Z</time></trkpt><trkpt lat="45.679013767491256" lon="9.70332909552679"><ele>248.0</ele><time>2026-04-25T06:50:27Z</time></trkpt><trkpt lat="45.67891956842589" lon="9.703608892114431"><ele>248.0</ele><time>2026-04-25T06:50:28Z</time></trkpt><trkpt lat="45.67881511031076" lon="9.703884030883502"><ele>248.0</ele><time>2026-04-25T06:50:29Z</time></trkpt><trkpt lat="45.67870381442407" lon="9.704147273369113"><ele>247.33333333333334</ele><time>2026-04-25T06:50:30Z</time></trkpt><trkpt lat="45.67858346386397" lon="9.704407206586353"><ele>246.66666666666669</ele><time>2026-04-25T06:50:31Z</time></trkpt><trkpt lat="45.67845711579047" lon="9.70466326384919"><ele>246.0</ele><time>2026-04-25T06:50:32Z</time></trkpt><trkpt lat="45.67832846213412" lon="9.704914835168292"><ele>246.0</ele><time>2026-04-25T06:50:33Z</time></trkpt><trkpt lat="45.67820071641333" lon="9.70516322767895"><ele>246.0</ele><time>2026-04-25T06:50:34Z</time></trkpt><trkpt lat="45.678076292113275" lon="9.705409206622509"><ele>246.0</ele><time>2026-04-25T06:50:35Z</time></trkpt><trkpt lat="45.67795392420376" lon="9.705652709445095"><ele>246.33333333333331</ele><time>2026-04-25T06:50:36Z</time></trkpt><trkpt lat="45.677834655399764" lon="9.705892786734474"><ele>246.66666666666666</ele><time>2026-04-25T06:50:37Z</time></trkpt><trkpt lat="45.67771234426769" lon="9.70613386742566"><ele>247.0</ele><time>2026-04-25T06:50:38Z</time></trkpt><trkpt lat="45.677589937547026" lon="9.706374552413157"><ele>246.0</ele><time>2026-04-25T06:50:39Z</time></trkpt><trkpt lat="45.67747018550883" lon="9.706614631706044"><ele>245.0</ele><time>2026-04-25T06:50:40Z</time></trkpt><trkpt lat="45.67734922487376" lon="9.706855879436306"><ele>244.0</ele><time>2026-04-25T06:50:41Z</time></trkpt><trkpt lat="45.67722776016705" lon="9.707096496682064"><ele>244.0</ele><time>2026-04-25T06:50:42Z</time></trkpt><trkpt lat="45.67710556929787" lon="9.707338980534471"><ele>244.0</ele><time>2026-04-25T06:50:43Z</time></trkpt><trkpt lat="45.676987396009025" lon="9.707576812631407"><ele>244.0</ele><time>2026-04-25T06:50:44Z</time></trkpt><trkpt lat="45.67686741373846" lon="9.707823738877048"><ele>244.0</ele><time>2026-04-25T06:50:45Z</time></trkpt><trkpt lat="45.67674804042744" lon="9.708071503685172"><ele>244.0</ele><time>2026-04-25T06:50:46Z</time></trkpt><trkpt lat="45.67663106414838" lon="9.708321827512203"><ele>244.0</ele><time>2026-04-25T06:50:47Z</time></trkpt><trkpt lat="45.676514428867534" lon="9.708575343700103"><ele>243.66666666666666</ele><time>2026-04-25T06:50:47.999Z</time></trkpt><trkpt lat="45.67639698038699" lon="9.708832847920627"><ele>243.33333333333331</ele><time>2026-04-25T06:50:48.999Z</time></trkpt><trkpt lat="45.67628059444354" lon="9.709094940651042"><ele>243.0</ele><time>2026-04-25T06:50:49.999Z</time></trkpt><trkpt lat="45.67616587470666" lon="9.709357487492587"><ele>243.33333333333331</ele><time>2026-04-25T06:50:50.999Z</time></trkpt><trkpt lat="45.67605197689092" lon="9.709626091585125"><ele>243.66666666666666</ele><time>2026-04-25T06:50:51.999Z</time></trkpt><trkpt lat="45.67593955548079" lon="9.70989535997691"><ele>244.0</ele><time>2026-04-25T06:50:52.999Z</time></trkpt><trkpt lat="45.67582686587455" lon="9.710172697221266"><ele>244.33333333333331</ele><time>2026-04-25T06:50:53.999Z</time></trkpt><trkpt lat="45.675716888339494" lon="9.710447952440079"><ele>244.66666666666669</ele><time>2026-04-25T06:50:54.999Z</time></trkpt><trkpt lat="45.675607883553155" lon="9.710724241954724"><ele>245.0</ele><time>2026-04-25T06:50:55.999Z</time></trkpt><trkpt lat="45.675500819243545" lon="9.711001841436344"><ele>244.33333333333334</ele><time>2026-04-25T06:50:56.999Z</time></trkpt><trkpt lat="45.67539695415265" lon="9.711280337364105"><ele>243.66666666666669</ele><time>2026-04-25T06:50:57.999Z</time></trkpt><trkpt lat="45.67529541126568" lon="9.711557422059597"><ele>243.0</ele><time>2026-04-25T06:50:58.999Z</time></trkpt><trkpt lat="45.675195846894276" lon="9.711834297813443"><ele>243.0</ele><time>2026-04-25T06:50:59.999Z</time></trkpt><trkpt lat="45.675097570656874" lon="9.712104724048364"><ele>243.0</ele><time>2026-04-25T06:51:00.999Z</time></trkpt><trkpt lat="45.675000292212694" lon="9.712383854840839"><ele>243.0</ele><time>2026-04-25T06:51:01.999Z</time></trkpt><trkpt lat="45.67490507170114" lon="9.71266161525814"><ele>242.33333333333331</ele><time>2026-04-25T06:51:02.999Z</time></trkpt><trkpt lat="45.67481082872762" lon="9.71293394183573"><ele>241.66666666666666</ele><time>2026-04-25T06:51:03.999Z</time></trkpt><trkpt lat="45.674715301432606" lon="9.71320754313049"><ele>241.0</ele><time>2026-04-25T06:51:04.999Z</time></trkpt><trkpt lat="45.67461829734678" lon="9.713482960856018"><ele>241.0</ele><time>2026-04-25T06:51:05.999Z</time></trkpt><trkpt lat="45.67452400881533" lon="9.713756642874916"><ele>241.0</ele><time>2026-04-25T06:51:06.999Z</time></trkpt><trkpt lat="45.67442769276705" lon="9.714029828678964"><ele>241.0</ele><time>2026-04-25T06:51:07.999Z</time></trkpt><trkpt lat="45.67433100798515" lon="9.714304517085061"><ele>240.66666666666666</ele><time>2026-04-25T06:51:09.001Z</time></trkpt><trkpt lat="45.67423852957903" lon="9.714578813702346"><ele>240.33333333333331</ele><time>2026-04-25T06:51:10.001Z</time></trkpt><trkpt lat="45.67414481288709" lon="9.7148530199904"><ele>240.0</ele><time>2026-04-25T06:51:11.001Z</time></trkpt><trkpt lat="45.674051851026064" lon="9.715126445199445"><ele>239.66666666666669</ele><time>2026-04-25T06:51:12.001Z</time></trkpt><trkpt lat="45.67395949020561" lon="9.715396733800759"><ele>239.33333333333334</ele><time>2026-04-25T06:51:13.001Z</time></trkpt><trkpt lat="45.67386926909228" lon="9.715666929344774"><ele>239.0</ele><time>2026-04-25T06:51:14.001Z</time></trkpt><trkpt lat="45.673777177153084" lon="9.715936817683529"><ele>239.0</ele><time>2026-04-25T06:51:15.001Z</time></trkpt><trkpt lat="45.67368625827989" lon="9.71620225730138"><ele>239.0</ele><time>2026-04-25T06:51:16.001Z</time></trkpt><trkpt lat="45.67359287897732" lon="9.7164685751688"><ele>239.0</ele><time>2026-04-25T06:51:17.001Z</time></trkpt><trkpt lat="45.67349658394652" lon="9.716730377938998"><ele>238.0</ele><time>2026-04-25T06:51:18.001Z</time></trkpt><trkpt lat="45.67339792283912" lon="9.71699176899475"><ele>237.0</ele><time>2026-04-25T06:51:19.001Z</time></trkpt><trkpt lat="45.673298343135926" lon="9.717248422042525"><ele>236.0</ele><time>2026-04-25T06:51:20.001Z</time></trkpt><trkpt lat="45.67319374326855" lon="9.717505598030568"><ele>236.0</ele><time>2026-04-25T06:51:21.001Z</time></trkpt><trkpt lat="45.67309420639318" lon="9.717760596586334"><ele>236.0</ele><time>2026-04-25T06:51:22.001Z</time></trkpt><trkpt lat="45.672991774796024" lon="9.718015701291524"><ele>236.0</ele><time>2026-04-25T06:51:23Z</time></trkpt><trkpt lat="45.67289105226304" lon="9.718269773850993"><ele>236.0</ele><time>2026-04-25T06:51:24Z</time></trkpt><trkpt lat="45.672788495279356" lon="9.718525245166996"><ele>236.0</ele><time>2026-04-25T06:51:25Z</time></trkpt><trkpt lat="45.67268572004377" lon="9.71877893542028"><ele>236.0</ele><time>2026-04-25T06:51:26Z</time></trkpt><trkpt lat="45.67258105639694" lon="9.719032651160092"><ele>236.0</ele><time>2026-04-25T06:51:27Z</time></trkpt><trkpt lat="45.67247585512809" lon="9.71928619940787"><ele>236.0</ele><time>2026-04-25T06:51:28Z</time></trkpt><trkpt lat="45.67236884502737" lon="9.719540881992069"><ele>236.0</ele><time>2026-04-25T06:51:29Z</time></trkpt><trkpt lat="45.67226199319964" lon="9.719791641874698"><ele>236.0</ele><time>2026-04-25T06:51:30Z</time></trkpt><trkpt lat="45.67215417104907" lon="9.720043868052597"><ele>236.0</ele><time>2026-04-25T06:51:31Z</time></trkpt><trkpt lat="45.672048540399516" lon="9.720296889165027"><ele>236.0</ele><time>2026-04-25T06:51:32Z</time></trkpt><trkpt lat="45.67194050675041" lon="9.720549749322403"><ele>236.0</ele><time>2026-04-25T06:51:33Z</time></trkpt><trkpt lat="45.67183206455218" lon="9.720803427895277"><ele>236.0</ele><time>2026-04-25T06:51:34Z</time></trkpt><trkpt lat="45.671721931765276" lon="9.72105621129227"><ele>236.0</ele><time>2026-04-25T06:51:35Z</time></trkpt><trkpt lat="45.671610479101616" lon="9.721310118083863"><ele>236.0</ele><time>2026-04-25T06:51:36Z</time></trkpt><trkpt lat="45.671498846144736" lon="9.721563165122863"><ele>236.0</ele><time>2026-04-25T06:51:37Z</time></trkpt><trkpt lat="45.671387783678306" lon="9.721816824017274"><ele>236.0</ele><time>2026-04-25T06:51:38Z</time></trkpt><trkpt lat="45.67128014159532" lon="9.722071330559734"><ele>235.33333333333334</ele><time>2026-04-25T06:51:39Z</time></trkpt><trkpt lat="45.67117018226693" lon="9.722326871936488"><ele>234.66666666666669</ele><time>2026-04-25T06:51:40Z</time></trkpt><trkpt lat="45.671062002726785" lon="9.722581403725433"><ele>234.0</ele><time>2026-04-25T06:51:41Z</time></trkpt><trkpt lat="45.670953775664934" lon="9.722834937373616"><ele>233.66666666666669</ele><time>2026-04-25T06:51:42Z</time></trkpt><trkpt lat="45.67084493407105" lon="9.723089554339397"><ele>233.33333333333334</ele><time>2026-04-25T06:51:43Z</time></trkpt><trkpt lat="45.67073614318381" lon="9.723345671255533"><ele>233.0</ele><time>2026-04-25T06:51:44Z</time></trkpt><trkpt lat="45.670627864635215" lon="9.723599326516341"><ele>232.33333333333334</ele><time>2026-04-25T06:51:45Z</time></trkpt><trkpt lat="45.67051842503231" lon="9.72385506060502"><ele>231.66666666666669</ele><time>2026-04-25T06:51:46Z</time></trkpt><trkpt lat="45.670410615145194" lon="9.72410778654186"><ele>231.0</ele><time>2026-04-25T06:51:47Z</time></trkpt><trkpt lat="45.670299812826514" lon="9.724364484053325"><ele>231.66666666666669</ele><time>2026-04-25T06:51:48Z</time></trkpt><trkpt lat="45.67019257476593" lon="9.724618079397242"><ele>232.33333333333334</ele><time>2026-04-25T06:51:49Z</time></trkpt><trkpt lat="45.670084291570475" lon="9.724874402380971"><ele>233.0</ele><time>2026-04-25T06:51:50Z</time></trkpt><trkpt lat="45.66997740522685" lon="9.725129358497867"><ele>233.0</ele><time>2026-04-25T06:51:51Z</time></trkpt><trkpt lat="45.66987087852914" lon="9.725383773863236"><ele>233.0</ele><time>2026-04-25T06:51:52Z</time></trkpt><trkpt lat="45.669761009982246" lon="9.725637913640716"><ele>233.0</ele><time>2026-04-25T06:51:53Z</time></trkpt><trkpt lat="45.66965172693824" lon="9.725894695995676"><ele>232.66666666666669</ele><time>2026-04-25T06:51:54Z</time></trkpt><trkpt lat="45.66954292561616" lon="9.726149167740209"><ele>232.33333333333331</ele><time>2026-04-25T06:51:55Z</time></trkpt><trkpt lat="45.66943383041738" lon="9.72640336705642"><ele>232.0</ele><time>2026-04-25T06:51:56Z</time></trkpt><trkpt lat="45.66932552785162" lon="9.72666176343947"><ele>231.66666666666666</ele><time>2026-04-25T06:51:57Z</time></trkpt><trkpt lat="45.66922270801236" lon="9.726920211052779"><ele>231.33333333333331</ele><time>2026-04-25T06:51:58Z</time></trkpt><trkpt lat="45.669120908061686" lon="9.72718041778204"><ele>231.0</ele><time>2026-04-25T06:51:59Z</time></trkpt><trkpt lat="45.6690204630647" lon="9.72744406941419"><ele>231.0</ele><time>2026-04-25T06:52:00Z</time></trkpt><trkpt lat="45.668922149234135" lon="9.727708416779437"><ele>231.0</ele><time>2026-04-25T06:52:01Z</time></trkpt><trkpt lat="45.66882861988874" lon="9.727976315426815"><ele>231.0</ele><time>2026-04-25T06:52:02Z</time></trkpt><trkpt lat="45.66873880351871" lon="9.72824846015015"><ele>230.33333333333331</ele><time>2026-04-25T06:52:03Z</time></trkpt><trkpt lat="45.6686531415441" lon="9.728528459985927"><ele>229.66666666666666</ele><time>2026-04-25T06:52:04Z</time></trkpt><trkpt lat="45.66857100295455" lon="9.728808457196553"><ele>229.0</ele><time>2026-04-25T06:52:05Z</time></trkpt><trkpt lat="45.6684929008873" lon="9.729088098761768"><ele>229.0</ele><time>2026-04-25T06:52:06Z</time></trkpt><trkpt lat="45.668419019535754" lon="9.729372432492005"><ele>229.0</ele><time>2026-04-25T06:52:07Z</time></trkpt><trkpt lat="45.668348931216315" lon="9.729661675967947"><ele>229.0</ele><time>2026-04-25T06:52:08Z</time></trkpt><trkpt lat="45.66828367041729" lon="9.729954512472615"><ele>230.66666666666666</ele><time>2026-04-25T06:52:09Z</time></trkpt><trkpt lat="45.66822234846564" lon="9.730247632877482"><ele>232.33333333333331</ele><time>2026-04-25T06:52:10Z</time></trkpt><trkpt lat="45.66816666344943" lon="9.730544043615705"><ele>234.0</ele><time>2026-04-25T06:52:11Z</time></trkpt><trkpt lat="45.668115371819994" lon="9.730844856127165"><ele>233.33333333333331</ele><time>2026-04-25T06:52:12Z</time></trkpt><trkpt lat="45.668067050459335" lon="9.731143673908452"><ele>232.66666666666666</ele><time>2026-04-25T06:52:13Z</time></trkpt><trkpt lat="45.66802263066587" lon="9.73143837398958"><ele>232.0</ele><time>2026-04-25T06:52:14Z</time></trkpt><trkpt lat="45.66798448318116" lon="9.731735439451517"><ele>231.66666666666666</ele><time>2026-04-25T06:52:15Z</time></trkpt><trkpt lat="45.66795360324369" lon="9.732026061171993"><ele>231.33333333333331</ele><time>2026-04-25T06:52:16Z</time></trkpt><trkpt lat="45.667931302908386" lon="9.732316657120878"><ele>231.0</ele><time>2026-04-25T06:52:17Z</time></trkpt><trkpt lat="45.667914811895606" lon="9.732604352087652"><ele>231.33333333333331</ele><time>2026-04-25T06:52:18Z</time></trkpt><trkpt lat="45.66789989713565" lon="9.732878474637495"><ele>231.66666666666666</ele><time>2026-04-25T06:52:19Z</time></trkpt><trkpt lat="45.667889754758086" lon="9.733139794526014"><ele>232.0</ele><time>2026-04-25T06:52:20Z</time></trkpt><trkpt lat="45.66788313516275" lon="9.73339187197473"><ele>231.66666666666666</ele><time>2026-04-25T06:52:21Z</time></trkpt><trkpt lat="45.667877245222044" lon="9.733641444678069"><ele>231.33333333333331</ele><time>2026-04-25T06:52:22Z</time></trkpt><trkpt lat="45.667871994695496" lon="9.733884922326757"><ele>231.0</ele><time>2026-04-25T06:52:23Z</time></trkpt><trkpt lat="45.667869188030885" lon="9.734122800275216"><ele>231.0</ele><time>2026-04-25T06:52:24Z</time></trkpt><trkpt lat="45.66786842066167" lon="9.734356998091332"><ele>231.0</ele><time>2026-04-25T06:52:25Z</time></trkpt><trkpt lat="45.66786526886782" lon="9.73459346013946"><ele>231.0</ele><time>2026-04-25T06:52:26Z</time></trkpt><trkpt lat="45.667864668665295" lon="9.734830025211963"><ele>231.0</ele><time>2026-04-25T06:52:27Z</time></trkpt><trkpt lat="45.66786653143849" lon="9.735073846861436"><ele>231.0</ele><time>2026-04-25T06:52:28Z</time></trkpt><trkpt lat="45.66786385831969" lon="9.735325376772897"><ele>231.0</ele><time>2026-04-25T06:52:29Z</time></trkpt><trkpt lat="45.66786219629003" lon="9.735577769688412"><ele>230.66666666666669</ele><time>2026-04-25T06:52:30Z</time></trkpt><trkpt lat="45.66785590389225" lon="9.73583417291913"><ele>230.33333333333334</ele><time>2026-04-25T06:52:31Z</time></trkpt><trkpt lat="45.66784440114647" lon="9.73609307781651"><ele>230.0</ele><time>2026-04-25T06:52:32Z</time></trkpt><trkpt lat="45.66781582730332" lon="9.736356276218817"><ele>230.33333333333334</ele><time>2026-04-25T06:52:33Z</time></trkpt><trkpt lat="45.66776639204502" lon="9.73661602739313"><ele>230.66666666666669</ele><time>2026-04-25T06:52:34Z</time></trkpt><trkpt lat="45.6677043733794" lon="9.7368764452677"><ele>231.0</ele><time>2026-04-25T06:52:35Z</time></trkpt><trkpt lat="45.667637434139685" lon="9.737136718483175"><ele>231.0</ele><time>2026-04-25T06:52:36Z</time></trkpt><trkpt lat="45.667572877519035" lon="9.737398209963947"><ele>231.0</ele><time>2026-04-25T06:52:37Z</time></trkpt><trkpt lat="45.667521009166464" lon="9.737663025419995"><ele>231.0</ele><time>2026-04-25T06:52:38Z</time></trkpt><trkpt lat="45.66748426362405" lon="9.73793524951007"><ele>231.0</ele><time>2026-04-25T06:52:39Z</time></trkpt><trkpt lat="45.66746670387385" lon="9.738213781254604"><ele>231.0</ele><time>2026-04-25T06:52:40Z</time></trkpt><trkpt lat="45.667468282588715" lon="9.738490506149065"><ele>231.0</ele><time>2026-04-25T06:52:41Z</time></trkpt><trkpt lat="45.66748772538489" lon="9.738769189586538"><ele>231.0</ele><time>2026-04-25T06:52:42Z</time></trkpt><trkpt lat="45.66752666858717" lon="9.739039121560353"><ele>231.0</ele><time>2026-04-25T06:52:43Z</time></trkpt><trkpt lat="45.66757872893872" lon="9.739290047413656"><ele>231.0</ele><time>2026-04-25T06:52:44Z</time></trkpt><trkpt lat="45.66764095404928" lon="9.73953687877874"><ele>231.0</ele><time>2026-04-25T06:52:45Z</time></trkpt><trkpt lat="45.667723215497105" lon="9.739774560328389"><ele>231.0</ele><time>2026-04-25T06:52:46Z</time></trkpt><trkpt lat="45.66781914334646" lon="9.740006493608753"><ele>231.0</ele><time>2026-04-25T06:52:47Z</time></trkpt><trkpt lat="45.6679304165866" lon="9.740229167995812"><ele>232.66666666666669</ele><time>2026-04-25T06:52:47.999Z</time></trkpt><trkpt lat="45.66805440519898" lon="9.740448145391431"><ele>234.33333333333334</ele><time>2026-04-25T06:52:48.999Z</time></trkpt><trkpt lat="45.66819170609119" lon="9.740654398368662"><ele>236.0</ele><time>2026-04-25T06:52:49.999Z</time></trkpt><trkpt lat="45.66834081981681" lon="9.740848168549837"><ele>236.0</ele><time>2026-04-25T06:52:50.999Z</time></trkpt><trkpt lat="45.668504653396354" lon="9.741022668939314"><ele>236.0</ele><time>2026-04-25T06:52:51.999Z</time></trkpt><trkpt lat="45.6686831484062" lon="9.741175870942662"><ele>236.0</ele><time>2026-04-25T06:52:52.999Z</time></trkpt><trkpt lat="45.668872274641416" lon="9.741299198048498"><ele>236.66666666666669</ele><time>2026-04-25T06:52:53.999Z</time></trkpt><trkpt lat="45.669069883341734" lon="9.741395849698996"><ele>237.33333333333331</ele><time>2026-04-25T06:52:54.999Z</time></trkpt><trkpt lat="45.669271117811725" lon="9.741471270570178"><ele>238.0</ele><time>2026-04-25T06:52:55.999Z</time></trkpt><trkpt lat="45.669474504324945" lon="9.741539952344683"><ele>238.33333333333331</ele><time>2026-04-25T06:52:56.999Z</time></trkpt><trkpt lat="45.669678781431465" lon="9.741615442262999"><ele>238.66666666666669</ele><time>2026-04-25T06:52:57.999Z</time></trkpt><trkpt lat="45.669876220771336" lon="9.741702901631315"><ele>239.0</ele><time>2026-04-25T06:52:58.999Z</time></trkpt><trkpt lat="45.67007165620967" lon="9.741803115489356"><ele>239.0</ele><time>2026-04-25T06:52:59.999Z</time></trkpt><trkpt lat="45.67026475322874" lon="9.74191332513602"><ele>239.0</ele><time>2026-04-25T06:53:00.999Z</time></trkpt><trkpt lat="45.6704558942315" lon="9.742028584309233"><ele>239.0</ele><time>2026-04-25T06:53:01.999Z</time></trkpt><trkpt lat="45.67064702887991" lon="9.742146664204235"><ele>239.0</ele><time>2026-04-25T06:53:02.999Z</time></trkpt><trkpt lat="45.67083959648429" lon="9.742262807943588"><ele>239.0</ele><time>2026-04-25T06:53:03.999Z</time></trkpt><trkpt lat="45.67103106579421" lon="9.742375099700855"><ele>239.0</ele><time>2026-04-25T06:53:04.999Z</time></trkpt><trkpt lat="45.671223263807015" lon="9.742488031072336"><ele>238.66666666666669</ele><time>2026-04-25T06:53:05.999Z</time></trkpt><trkpt lat="45.67141486457811" lon="9.742600998726783"><ele>238.33333333333331</ele><time>2026-04-25T06:53:06.999Z</time></trkpt><trkpt lat="45.67160535404003" lon="9.742714555556866"><ele>238.0</ele><time>2026-04-25T06:53:07.999Z</time></trkpt><trkpt lat="45.67179502521912" lon="9.742831714861143"><ele>238.33333333333331</ele><time>2026-04-25T06:53:08.999Z</time></trkpt><trkpt lat="45.67198183140827" lon="9.742957540095073"><ele>238.66666666666669</ele><time>2026-04-25T06:53:09.999Z</time></trkpt><trkpt lat="45.67216425492945" lon="9.74309194250763"><ele>239.0</ele><time>2026-04-25T06:53:10.999Z</time></trkpt><trkpt lat="45.67234101225783" lon="9.74323375697544"><ele>239.0</ele><time>2026-04-25T06:53:11.999Z</time></trkpt><trkpt lat="45.67251690638434" lon="9.74338287723379"><ele>239.0</ele><time>2026-04-25T06:53:12.999Z</time></trkpt><trkpt lat="45.67269116419645" lon="9.743534748246084"><ele>239.0</ele><time>2026-04-25T06:53:13.999Z</time></trkpt><trkpt lat="45.67286356020194" lon="9.743694519138018"><ele>239.33333333333334</ele><time>2026-04-25T06:53:15Z</time></trkpt><trkpt lat="45.67303146429361" lon="9.743861145614712"><ele>239.66666666666669</ele><time>2026-04-25T06:53:16Z</time></trkpt><trkpt lat="45.673197053342996" lon="9.744034278918226"><ele>240.0</ele><time>2026-04-25T06:53:17Z</time></trkpt><trkpt lat="45.67336363416854" lon="9.74420689082645"><ele>240.0</ele><time>2026-04-25T06:53:18Z</time></trkpt><trkpt lat="45.673529931884154" lon="9.74437906037447"><ele>240.0</ele><time>2026-04-25T06:53:19Z</time></trkpt><trkpt lat="45.67369624868885" lon="9.74455080963534"><ele>240.0</ele><time>2026-04-25T06:53:20Z</time></trkpt><trkpt lat="45.67386248752584" lon="9.744720806945923"><ele>240.0</ele><time>2026-04-25T06:53:21Z</time></trkpt><trkpt lat="45.674030005598915" lon="9.744891626048233"><ele>240.0</ele><time>2026-04-25T06:53:22Z</time></trkpt><trkpt lat="45.67419771036817" lon="9.745061265009573"><ele>240.0</ele><time>2026-04-25T06:53:23Z</time></trkpt><trkpt lat="45.67436696556988" lon="9.745222736118757"><ele>240.33333333333331</ele><time>2026-04-25T06:53:24Z</time></trkpt><trkpt lat="45.67453984426584" lon="9.745370566082457"><ele>240.66666666666666</ele><time>2026-04-25T06:53:25Z</time></trkpt><trkpt lat="45.6747166738106" lon="9.745506786264786"><ele>241.0</ele><time>2026-04-25T06:53:26Z</time></trkpt><trkpt lat="45.674895602439754" lon="9.745630158903907"><ele>241.0</ele><time>2026-04-25T06:53:27Z</time></trkpt><trkpt lat="45.675081334927754" lon="9.745742308642068"><ele>241.0</ele><time>2026-04-25T06:53:28Z</time></trkpt><trkpt lat="45.675269494900625" lon="9.745844928810092"><ele>241.0</ele><time>2026-04-25T06:53:29Z</time></trkpt><trkpt lat="45.675458496934006" lon="9.745937898557951"><ele>241.33333333333331</ele><time>2026-04-25T06:53:30Z</time></trkpt><trkpt lat="45.67565116972842" lon="9.746022669405514"><ele>241.66666666666669</ele><time>2026-04-25T06:53:31Z</time></trkpt><trkpt lat="45.67584612037528" lon="9.74609630280497"><ele>242.0</ele><time>2026-04-25T06:53:32Z</time></trkpt><trkpt lat="45.67604459976944" lon="9.746160660827957"><ele>243.0</ele><time>2026-04-25T06:53:33Z</time></trkpt><trkpt lat="45.67624410349452" lon="9.746223521859191"><ele>244.0</ele><time>2026-04-25T06:53:34Z</time></trkpt><trkpt lat="45.676442770122655" lon="9.746288137899842"><ele>245.0</ele><time>2026-04-25T06:53:35Z</time></trkpt><trkpt lat="45.67663947986517" lon="9.746352681628041"><ele>245.0</ele><time>2026-04-25T06:53:36Z</time></trkpt><trkpt lat="45.676835454275114" lon="9.746417814752718"><ele>245.0</ele><time>2026-04-25T06:53:37Z</time></trkpt><trkpt lat="45.677031460538764" lon="9.74648662413652"><ele>245.0</ele><time>2026-04-25T06:53:38Z</time></trkpt><trkpt lat="45.67722808153495" lon="9.746565054053121"><ele>245.0</ele><time>2026-04-25T06:53:39Z</time></trkpt><trkpt lat="45.677420482090405" lon="9.74665327675359"><ele>245.0</ele><time>2026-04-25T06:53:40Z</time></trkpt><trkpt lat="45.677609535881174" lon="9.746752414185428"><ele>245.0</ele><time>2026-04-25T06:53:41Z</time></trkpt><trkpt lat="45.67779646807524" lon="9.746862466981135"><ele>245.33333333333334</ele><time>2026-04-25T06:53:42Z</time></trkpt><trkpt lat="45.67798214446721" lon="9.746981654855064"><ele>245.66666666666669</ele><time>2026-04-25T06:53:43Z</time></trkpt><trkpt lat="45.67816126856544" lon="9.74711227952096"><ele>246.0</ele><time>2026-04-25T06:53:44Z</time></trkpt><trkpt lat="45.67833400271381" lon="9.747256473019931"><ele>246.0</ele><time>2026-04-25T06:53:45Z</time></trkpt><trkpt lat="45.67850373044299" lon="9.747414851118616"><ele>246.0</ele><time>2026-04-25T06:53:46Z</time></trkpt><trkpt lat="45.6786677711626" lon="9.747587759413323"><ele>246.0</ele><time>2026-04-25T06:53:47Z</time></trkpt><trkpt lat="45.67882272610693" lon="9.747765281769269"><ele>246.0</ele><time>2026-04-25T06:53:48Z</time></trkpt><trkpt lat="45.678975724482086" lon="9.747956730602292"><ele>246.0</ele><time>2026-04-25T06:53:49Z</time></trkpt><trkpt lat="45.67912101371718" lon="9.748156791926203"><ele>246.0</ele><time>2026-04-25T06:53:50Z</time></trkpt><trkpt lat="45.67926159012702" lon="9.74836860790261"><ele>245.66666666666669</ele><time>2026-04-25T06:53:51Z</time></trkpt><trkpt lat="45.679392698817324" lon="9.748591738391246"><ele>245.33333333333334</ele><time>2026-04-25T06:53:52Z</time></trkpt><trkpt lat="45.67951505854452" lon="9.748827277329417"><ele>245.0</ele><time>2026-04-25T06:53:53Z</time></trkpt><trkpt lat="45.67962974941795" lon="9.749069216842388"><ele>245.0</ele><time>2026-04-25T06:53:54Z</time></trkpt><trkpt lat="45.67973901505517" lon="9.749318592098463"><ele>245.0</ele><time>2026-04-25T06:53:55Z</time></trkpt><trkpt lat="45.67984064852731" lon="9.749574701555048"><ele>245.0</ele><time>2026-04-25T06:53:56Z</time></trkpt><trkpt lat="45.67993424134323" lon="9.749834949101821"><ele>245.0</ele><time>2026-04-25T06:53:57Z</time></trkpt><trkpt lat="45.68002207657153" lon="9.75010126615556"><ele>245.0</ele><time>2026-04-25T06:53:58Z</time></trkpt><trkpt lat="45.680100257022055" lon="9.750369373641494"><ele>245.0</ele><time>2026-04-25T06:53:59Z</time></trkpt><trkpt lat="45.68017395033372" lon="9.750640281981646"><ele>245.0</ele><time>2026-04-25T06:54:00Z</time></trkpt><trkpt lat="45.68024452590631" lon="9.750914098559852"><ele>245.0</ele><time>2026-04-25T06:54:01Z</time></trkpt><trkpt lat="45.68031145607653" lon="9.75119125159812"><ele>245.0</ele><time>2026-04-25T06:54:02Z</time></trkpt><trkpt lat="45.68037561302692" lon="9.751468286638046"><ele>245.0</ele><time>2026-04-25T06:54:03Z</time></trkpt><trkpt lat="45.680438161028434" lon="9.751748605216287"><ele>245.0</ele><time>2026-04-25T06:54:04Z</time></trkpt><trkpt lat="45.68049954946199" lon="9.752028729189227"><ele>245.0</ele><time>2026-04-25T06:54:05Z</time></trkpt><trkpt lat="45.68056090988934" lon="9.752314588875825"><ele>244.66666666666669</ele><time>2026-04-25T06:54:06Z</time></trkpt><trkpt lat="45.68062025275354" lon="9.752600098074915"><ele>244.33333333333331</ele><time>2026-04-25T06:54:07Z</time></trkpt><trkpt lat="45.68068141177181" lon="9.752888495331506"><ele>244.0</ele><time>2026-04-25T06:54:08Z</time></trkpt><trkpt lat="45.68074256693727" lon="9.753176609474693"><ele>244.0</ele><time>2026-04-25T06:54:09Z</time></trkpt><trkpt lat="45.68080409573396" lon="9.753465894549738"><ele>244.0</ele><time>2026-04-25T06:54:10Z</time></trkpt><trkpt lat="45.68086579204149" lon="9.753754293574344"><ele>244.0</ele><time>2026-04-25T06:54:11Z</time></trkpt><trkpt lat="45.68092694467273" lon="9.754043531446035"><ele>244.0</ele><time>2026-04-25T06:54:12Z</time></trkpt><trkpt lat="45.68098668891566" lon="9.75433224756492"><ele>244.0</ele><time>2026-04-25T06:54:13Z</time></trkpt><trkpt lat="45.68104798039292" lon="9.75462309819545"><ele>244.0</ele><time>2026-04-25T06:54:14Z</time></trkpt><trkpt lat="45.68111045167145" lon="9.754910128450064"><ele>244.0</ele><time>2026-04-25T06:54:15Z</time></trkpt><trkpt lat="45.681174884718246" lon="9.755196065260623"><ele>244.0</ele><time>2026-04-25T06:54:16Z</time></trkpt><trkpt lat="45.68124287425348" lon="9.755478458904166"><ele>244.0</ele><time>2026-04-25T06:54:17Z</time></trkpt><trkpt lat="45.6813121087517" lon="9.755759810358741"><ele>244.33333333333331</ele><time>2026-04-25T06:54:18Z</time></trkpt><trkpt lat="45.68137962177943" lon="9.756037880845799"><ele>244.66666666666669</ele><time>2026-04-25T06:54:19Z</time></trkpt><trkpt lat="45.681449367671675" lon="9.756318702323865"><ele>245.0</ele><time>2026-04-25T06:54:20Z</time></trkpt><trkpt lat="45.68151591010672" lon="9.75659393337032"><ele>245.33333333333334</ele><time>2026-04-25T06:54:21Z</time></trkpt><trkpt lat="45.68158221981008" lon="9.75687199245124"><ele>245.66666666666669</ele><time>2026-04-25T06:54:22Z</time></trkpt><trkpt lat="45.68164678726009" lon="9.757149770699986"><ele>246.0</ele><time>2026-04-25T06:54:23Z</time></trkpt><trkpt lat="45.68170967044087" lon="9.757429144862053"><ele>246.33333333333331</ele><time>2026-04-25T06:54:24Z</time></trkpt><trkpt lat="45.68177005531861" lon="9.75770690726724"><ele>246.66666666666666</ele><time>2026-04-25T06:54:25Z</time></trkpt><trkpt lat="45.68182890530623" lon="9.757983259162582"><ele>247.0</ele><time>2026-04-25T06:54:26Z</time></trkpt><trkpt lat="45.68188620018261" lon="9.75825353614868"><ele>246.0</ele><time>2026-04-25T06:54:27Z</time></trkpt><trkpt lat="45.68194522246522" lon="9.758523146076262"><ele>245.0</ele><time>2026-04-25T06:54:28Z</time></trkpt><trkpt lat="45.68200540832544" lon="9.758802492236276"><ele>244.0</ele><time>2026-04-25T06:54:29Z</time></trkpt><trkpt lat="45.682058745058306" lon="9.759079826518564"><ele>244.0</ele><time>2026-04-25T06:54:30Z</time></trkpt><trkpt lat="45.682103922984446" lon="9.759359407385647"><ele>244.0</ele><time>2026-04-25T06:54:31Z</time></trkpt><trkpt lat="45.682139002372686" lon="9.759641461930713"><ele>244.0</ele><time>2026-04-25T06:54:32Z</time></trkpt><trkpt lat="45.68216615193312" lon="9.759923147842002"><ele>243.66666666666666</ele><time>2026-04-25T06:54:33Z</time></trkpt><trkpt lat="45.68218245960279" lon="9.76020705682359"><ele>243.33333333333331</ele><time>2026-04-25T06:54:34Z</time></trkpt><trkpt lat="45.682187022013224" lon="9.760488769604974"><ele>243.0</ele><time>2026-04-25T06:54:35Z</time></trkpt><trkpt lat="45.68218441826344" lon="9.760773253365029"><ele>243.33333333333331</ele><time>2026-04-25T06:54:36Z</time></trkpt><trkpt lat="45.68217220936085" lon="9.761058235674147"><ele>243.66666666666666</ele><time>2026-04-25T06:54:37Z</time></trkpt><trkpt lat="45.68215049156608" lon="9.761337579732386"><ele>244.0</ele><time>2026-04-25T06:54:38Z</time></trkpt><trkpt lat="45.68211979261125" lon="9.761618423736458"><ele>244.0</ele><time>2026-04-25T06:54:39Z</time></trkpt><trkpt lat="45.68208220065023" lon="9.76189684655161"><ele>244.0</ele><time>2026-04-25T06:54:40Z</time></trkpt><trkpt lat="45.682037918289204" lon="9.762173631432855"><ele>244.0</ele><time>2026-04-25T06:54:41Z</time></trkpt><trkpt lat="45.68198630751301" lon="9.762449526338877"><ele>244.33333333333331</ele><time>2026-04-25T06:54:42Z</time></trkpt><trkpt lat="45.681928736330285" lon="9.76272222384721"><ele>244.66666666666669</ele><time>2026-04-25T06:54:43Z</time></trkpt><trkpt lat="45.68186840624476" lon="9.762994253841589"><ele>245.0</ele><time>2026-04-25T06:54:44Z</time></trkpt><trkpt lat="45.681808196111994" lon="9.763265770693344"><ele>244.66666666666669</ele><time>2026-04-25T06:54:45Z</time></trkpt><trkpt lat="45.68174966419167" lon="9.763536019835646"><ele>244.33333333333331</ele><time>2026-04-25T06:54:46Z</time></trkpt><trkpt lat="45.68169101536692" lon="9.763807210674353"><ele>244.0</ele><time>2026-04-25T06:54:46.999Z</time></trkpt><trkpt lat="45.681631753375505" lon="9.764079156293391"><ele>244.0</ele><time>2026-04-25T06:54:47.999Z</time></trkpt><trkpt lat="45.68157045369186" lon="9.764354000400784"><ele>244.0</ele><time>2026-04-25T06:54:48.999Z</time></trkpt><trkpt lat="45.6815101724221" lon="9.76462792618928"><ele>244.0</ele><time>2026-04-25T06:54:49.999Z</time></trkpt><trkpt lat="45.68145096534294" lon="9.764903257897169"><ele>244.0</ele><time>2026-04-25T06:54:50.999Z</time></trkpt><trkpt lat="45.681392281532695" lon="9.765184430944332"><ele>244.0</ele><time>2026-04-25T06:54:51.999Z</time></trkpt><trkpt lat="45.68133323678206" lon="9.765466980380571"><ele>244.0</ele><time>2026-04-25T06:54:52.999Z</time></trkpt><trkpt lat="45.681274394421195" lon="9.765746891355509"><ele>243.66666666666666</ele><time>2026-04-25T06:54:53.999Z</time></trkpt><trkpt lat="45.68121584219919" lon="9.766026228295651"><ele>243.33333333333331</ele><time>2026-04-25T06:54:54.999Z</time></trkpt><trkpt lat="45.681155436862205" lon="9.766304930777476"><ele>243.0</ele><time>2026-04-25T06:54:55.999Z</time></trkpt><trkpt lat="45.68109493076527" lon="9.766578470454142"><ele>246.33333333333331</ele><time>2026-04-25T06:54:56.999Z</time></trkpt><trkpt lat="45.68103473020316" lon="9.766853427482356"><ele>249.66666666666666</ele><time>2026-04-25T06:54:57.999Z</time></trkpt><trkpt lat="45.68097476407159" lon="9.767127305106799"><ele>253.0</ele><time>2026-04-25T06:54:58.999Z</time></trkpt><trkpt lat="45.680914864300924" lon="9.767398236277076"><ele>253.0</ele><time>2026-04-25T06:54:59.999Z</time></trkpt><trkpt lat="45.68085562686954" lon="9.767670126920615"><ele>253.0</ele><time>2026-04-25T06:55:00.999Z</time></trkpt><trkpt lat="45.68079750039608" lon="9.76794380339765"><ele>253.0</ele><time>2026-04-25T06:55:01.999Z</time></trkpt><trkpt lat="45.680739914993175" lon="9.76821787947579"><ele>251.33333333333331</ele><time>2026-04-25T06:55:02.999Z</time></trkpt><trkpt lat="45.68068239668767" lon="9.768491410020138"><ele>249.66666666666669</ele><time>2026-04-25T06:55:03.999Z</time></trkpt><trkpt lat="45.680623732614556" lon="9.7687640643222"><ele>248.0</ele><time>2026-04-25T06:55:04.999Z</time></trkpt><trkpt lat="45.68056528364984" lon="9.769034454987796"><ele>247.33333333333334</ele><time>2026-04-25T06:55:05.999Z</time></trkpt><trkpt lat="45.680507752902294" lon="9.769304165401216"><ele>246.66666666666669</ele><time>2026-04-25T06:55:06.999Z</time></trkpt><trkpt lat="45.68045145622807" lon="9.769572298467665"><ele>246.0</ele><time>2026-04-25T06:55:07.999Z</time></trkpt><trkpt lat="45.680393735128554" lon="9.769837935647976"><ele>244.33333333333331</ele><time>2026-04-25T06:55:08.999Z</time></trkpt><trkpt lat="45.68033588694661" lon="9.770099479328989"><ele>242.66666666666666</ele><time>2026-04-25T06:55:09.999Z</time></trkpt><trkpt lat="45.6802776505706" lon="9.770359688529224"><ele>241.0</ele><time>2026-04-25T06:55:10.999Z</time></trkpt><trkpt lat="45.68022011574094" lon="9.770619942170208"><ele>244.0</ele><time>2026-04-25T06:55:11.999Z</time></trkpt><trkpt lat="45.680165337118545" lon="9.770880051357686"><ele>247.0</ele><time>2026-04-25T06:55:12.999Z</time></trkpt><trkpt lat="45.680110527313474" lon="9.771139014116535"><ele>250.0</ele><time>2026-04-25T06:55:13.999Z</time></trkpt><trkpt lat="45.68005560826119" lon="9.77140166011311"><ele>250.0</ele><time>2026-04-25T06:55:14.999Z</time></trkpt><trkpt lat="45.67999881241188" lon="9.771663008754926"><ele>250.0</ele><time>2026-04-25T06:55:15.999Z</time></trkpt><trkpt lat="45.67994151765745" lon="9.771925600912823"><ele>250.0</ele><time>2026-04-25T06:55:16.999Z</time></trkpt><trkpt lat="45.67988661427607" lon="9.772191963424387"><ele>247.66666666666666</ele><time>2026-04-25T06:55:17.999Z</time></trkpt><trkpt lat="45.67983015612768" lon="9.77245751171872"><ele>245.33333333333331</ele><time>2026-04-25T06:55:18.999Z</time></trkpt><trkpt lat="45.679771323472664" lon="9.77272270459115"><ele>243.0</ele><time>2026-04-25T06:55:19.999Z</time></trkpt><trkpt lat="45.679712273234664" lon="9.772990521654421"><ele>241.0</ele><time>2026-04-25T06:55:21Z</time></trkpt><trkpt lat="45.6796551630956" lon="9.7732546515329"><ele>239.0</ele><time>2026-04-25T06:55:22Z</time></trkpt><trkpt lat="45.67959721282441" lon="9.773520837996514"><ele>237.0</ele><time>2026-04-25T06:55:23Z</time></trkpt><trkpt lat="45.67954258758139" lon="9.773790065427312"><ele>237.0</ele><time>2026-04-25T06:55:24Z</time></trkpt><trkpt lat="45.67949334970266" lon="9.774060233626106"><ele>237.0</ele><time>2026-04-25T06:55:25Z</time></trkpt><trkpt lat="45.679448956290784" lon="9.774331190478874"><ele>237.0</ele><time>2026-04-25T06:55:26Z</time></trkpt><trkpt lat="45.67941544487802" lon="9.774605983487545"><ele>237.0</ele><time>2026-04-25T06:55:27Z</time></trkpt><trkpt lat="45.67939027526081" lon="9.774881984196293"><ele>237.0</ele><time>2026-04-25T06:55:28Z</time></trkpt><trkpt lat="45.67937230882206" lon="9.775162374462154"><ele>237.0</ele><time>2026-04-25T06:55:29Z</time></trkpt><trkpt lat="45.679364768476226" lon="9.77544190311618"><ele>237.0</ele><time>2026-04-25T06:55:30Z</time></trkpt><trkpt lat="45.67936318305584" lon="9.775722075848028"><ele>237.0</ele><time>2026-04-25T06:55:31Z</time></trkpt><trkpt lat="45.67937182987802" lon="9.775999793325687"><ele>237.0</ele><time>2026-04-25T06:55:32Z</time></trkpt><trkpt lat="45.679392727021245" lon="9.776277102844665"><ele>237.0</ele><time>2026-04-25T06:55:33Z</time></trkpt><trkpt lat="45.679421714925155" lon="9.776553819135703"><ele>237.0</ele><time>2026-04-25T06:55:34Z</time></trkpt><trkpt lat="45.67945689025477" lon="9.776830288587004"><ele>237.0</ele><time>2026-04-25T06:55:35Z</time></trkpt><trkpt lat="45.679499376434606" lon="9.77710490015466"><ele>236.0</ele><time>2026-04-25T06:55:36Z</time></trkpt><trkpt lat="45.679551117986094" lon="9.777378807544096"><ele>235.0</ele><time>2026-04-25T06:55:37Z</time></trkpt><trkpt lat="45.679612747588244" lon="9.777650216906968"><ele>234.0</ele><time>2026-04-25T06:55:38Z</time></trkpt><trkpt lat="45.67968141089204" lon="9.777917194056705"><ele>234.0</ele><time>2026-04-25T06:55:39Z</time></trkpt><trkpt lat="45.67975777432311" lon="9.778183623022239"><ele>234.0</ele><time>2026-04-25T06:55:40Z</time></trkpt><trkpt lat="45.67983951995279" lon="9.778448836630723"><ele>234.0</ele><time>2026-04-25T06:55:41Z</time></trkpt><trkpt lat="45.67992753665719" lon="9.778710756448008"><ele>233.66666666666669</ele><time>2026-04-25T06:55:42Z</time></trkpt><trkpt lat="45.680011455351995" lon="9.77897621767691"><ele>233.33333333333334</ele><time>2026-04-25T06:55:43Z</time></trkpt><trkpt lat="45.68009641706621" lon="9.779236664160498"><ele>233.0</ele><time>2026-04-25T06:55:44Z</time></trkpt><trkpt lat="45.68018337046175" lon="9.779500497059539"><ele>233.0</ele><time>2026-04-25T06:55:45Z</time></trkpt><trkpt lat="45.6802665967049" lon="9.779764335690595"><ele>233.0</ele><time>2026-04-25T06:55:46Z</time></trkpt><trkpt lat="45.680350403614774" lon="9.780024783787248"><ele>233.0</ele><time>2026-04-25T06:55:47Z</time></trkpt><trkpt lat="45.68044020831178" lon="9.780285905314052"><ele>233.0</ele><time>2026-04-25T06:55:48Z</time></trkpt><trkpt lat="45.68052758190431" lon="9.780547644946056"><ele>233.0</ele><time>2026-04-25T06:55:49Z</time></trkpt><trkpt lat="45.68061180625406" lon="9.780809953928237"><ele>233.0</ele><time>2026-04-25T06:55:50Z</time></trkpt><trkpt lat="45.68069827202123" lon="9.781075183280974"><ele>233.0</ele><time>2026-04-25T06:55:51Z</time></trkpt><trkpt lat="45.68078138419291" lon="9.781343097710664"><ele>233.0</ele><time>2026-04-25T06:55:52Z</time></trkpt><trkpt lat="45.68085565843769" lon="9.781612122296323"><ele>233.0</ele><time>2026-04-25T06:55:53Z</time></trkpt><trkpt lat="45.680929494880544" lon="9.781883161435427"><ele>233.0</ele><time>2026-04-25T06:55:54Z</time></trkpt><trkpt lat="45.680990566629525" lon="9.782161850860176"><ele>233.0</ele><time>2026-04-25T06:55:55Z</time></trkpt><trkpt lat="45.68103193385401" lon="9.782449557165247"><ele>233.0</ele><time>2026-04-25T06:55:56Z</time></trkpt><trkpt lat="45.68106340496356" lon="9.782737707347382"><ele>232.33333333333334</ele><time>2026-04-25T06:55:57Z</time></trkpt><trkpt lat="45.681079624961406" lon="9.783027513468932"><ele>231.66666666666669</ele><time>2026-04-25T06:55:58Z</time></trkpt><trkpt lat="45.68108064033358" lon="9.783316267142027"><ele>231.0</ele><time>2026-04-25T06:55:59Z</time></trkpt><trkpt lat="45.68107127232432" lon="9.783610977029273"><ele>231.0</ele><time>2026-04-25T06:56:00Z</time></trkpt><trkpt lat="45.68105231302039" lon="9.783905451021166"><ele>231.0</ele><time>2026-04-25T06:56:01Z</time></trkpt><trkpt lat="45.68101877384858" lon="9.78419784110232"><ele>231.0</ele><time>2026-04-25T06:56:02Z</time></trkpt><trkpt lat="45.680974880576564" lon="9.784483060229467"><ele>231.0</ele><time>2026-04-25T06:56:03Z</time></trkpt><trkpt lat="45.68091757687348" lon="9.784770961111592"><ele>231.0</ele><time>2026-04-25T06:56:04Z</time></trkpt><trkpt lat="45.68084825849443" lon="9.78505577163893"><ele>231.0</ele><time>2026-04-25T06:56:05Z</time></trkpt><trkpt lat="45.68074808289829" lon="9.785323741743136"><ele>231.0</ele><time>2026-04-25T06:56:06Z</time></trkpt><trkpt lat="45.680648593711155" lon="9.785588263250618"><ele>231.0</ele><time>2026-04-25T06:56:07Z</time></trkpt><trkpt lat="45.680535605236564" lon="9.785847863256574"><ele>231.0</ele><time>2026-04-25T06:56:08Z</time></trkpt><trkpt lat="45.68041065374357" lon="9.786098448711762"><ele>231.0</ele><time>2026-04-25T06:56:09Z</time></trkpt><trkpt lat="45.680276997242494" lon="9.786340679618224"><ele>231.0</ele><time>2026-04-25T06:56:10Z</time></trkpt><trkpt lat="45.6801371991396" lon="9.786579851885575"><ele>231.0</ele><time>2026-04-25T06:56:11Z</time></trkpt><trkpt lat="45.67999695178061" lon="9.786817526679915"><ele>230.66666666666669</ele><time>2026-04-25T06:56:12Z</time></trkpt><trkpt lat="45.67985655140158" lon="9.787056254381998"><ele>230.33333333333334</ele><time>2026-04-25T06:56:13Z</time></trkpt><trkpt lat="45.67972197419306" lon="9.787301102899487"><ele>230.0</ele><time>2026-04-25T06:56:14Z</time></trkpt><trkpt lat="45.679598792542386" lon="9.78755350570677"><ele>230.33333333333334</ele><time>2026-04-25T06:56:15Z</time></trkpt><trkpt lat="45.67948402282533" lon="9.787814331158572"><ele>230.66666666666669</ele><time>2026-04-25T06:56:16Z</time></trkpt><trkpt lat="45.67937712432717" lon="9.788080254203159"><ele>231.0</ele><time>2026-04-25T06:56:17Z</time></trkpt><trkpt lat="45.67927772468751" lon="9.788350549474057"><ele>230.33333333333331</ele><time>2026-04-25T06:56:18Z</time></trkpt><trkpt lat="45.67918717569955" lon="9.788626571081789"><ele>229.66666666666666</ele><time>2026-04-25T06:56:19Z</time></trkpt><trkpt lat="45.67910653283478" lon="9.788907011689755"><ele>229.0</ele><time>2026-04-25T06:56:20Z</time></trkpt><trkpt lat="45.67903543393498" lon="9.789192265444749"><ele>229.0</ele><time>2026-04-25T06:56:21Z</time></trkpt><trkpt lat="45.67897274749597" lon="9.789481337985533"><ele>229.0</ele><time>2026-04-25T06:56:22Z</time></trkpt><trkpt lat="45.67891520866591" lon="9.789768995769267"><ele>229.0</ele><time>2026-04-25T06:56:23Z</time></trkpt><trkpt lat="45.67885998939805" lon="9.79005712210704"><ele>229.33333333333331</ele><time>2026-04-25T06:56:24Z</time></trkpt><trkpt lat="45.67880621956767" lon="9.790347878835115"><ele>229.66666666666669</ele><time>2026-04-25T06:56:25Z</time></trkpt><trkpt lat="45.678753703555195" lon="9.790637645041217"><ele>230.0</ele><time>2026-04-25T06:56:26Z</time></trkpt><trkpt lat="45.67870061881066" lon="9.790923847028061"><ele>230.33333333333334</ele><time>2026-04-25T06:56:27Z</time></trkpt><trkpt lat="45.678648185523386" lon="9.791209237083747"><ele>230.66666666666669</ele><time>2026-04-25T06:56:28Z</time></trkpt><trkpt lat="45.678595826954385" lon="9.791495675408854"><ele>231.0</ele><time>2026-04-25T06:56:29Z</time></trkpt><trkpt lat="45.67854474096823" lon="9.791779085007528"><ele>230.33333333333331</ele><time>2026-04-25T06:56:30Z</time></trkpt><trkpt lat="45.678493134785704" lon="9.792059965987148"><ele>229.66666666666666</ele><time>2026-04-25T06:56:31Z</time></trkpt><trkpt lat="45.6784419471833" lon="9.792339964842364"><ele>229.0</ele><time>2026-04-25T06:56:32Z</time></trkpt><trkpt lat="45.678389376646514" lon="9.792618614844379"><ele>228.66666666666666</ele><time>2026-04-25T06:56:33Z</time></trkpt><trkpt lat="45.67833531216517" lon="9.792893644720289"><ele>228.33333333333331</ele><time>2026-04-25T06:56:34Z</time></trkpt><trkpt lat="45.6782821665855" lon="9.793170554656772"><ele>228.0</ele><time>2026-04-25T06:56:35Z</time></trkpt><trkpt lat="45.6782303640178" lon="9.793446336619638"><ele>228.0</ele><time>2026-04-25T06:56:36Z</time></trkpt><trkpt lat="45.678179198567086" lon="9.793719522920048"><ele>228.0</ele><time>2026-04-25T06:56:37Z</time></trkpt><trkpt lat="45.67812867426229" lon="9.793991391326069"><ele>228.0</ele><time>2026-04-25T06:56:38Z</time></trkpt><trkpt lat="45.67808147417733" lon="9.794265568760885"><ele>228.0</ele><time>2026-04-25T06:56:39Z</time></trkpt><trkpt lat="45.67803823158148" lon="9.794537702547537"><ele>228.0</ele><time>2026-04-25T06:56:40Z</time></trkpt><trkpt lat="45.678002309105416" lon="9.794810515051225"><ele>228.0</ele><time>2026-04-25T06:56:41Z</time></trkpt><trkpt lat="45.677976883320405" lon="9.795084605699383"><ele>228.33333333333331</ele><time>2026-04-25T06:56:42Z</time></trkpt><trkpt lat="45.677961353506014" lon="9.79536184541689"><ele>228.66666666666666</ele><time>2026-04-25T06:56:43Z</time></trkpt><trkpt lat="45.67795511012153" lon="9.795639069094024"><ele>229.0</ele><time>2026-04-25T06:56:44Z</time></trkpt><trkpt lat="45.67796059430956" lon="9.795917149573137"><ele>229.0</ele><time>2026-04-25T06:56:45Z</time></trkpt><trkpt lat="45.67797638850876" lon="9.796193207587258"><ele>229.0</ele><time>2026-04-25T06:56:46Z</time></trkpt><trkpt lat="45.6780021880103" lon="9.796470142559567"><ele>229.0</ele><time>2026-04-25T06:56:47Z</time></trkpt><trkpt lat="45.67803652427397" lon="9.796744333504675"><ele>230.0</ele><time>2026-04-25T06:56:47.999Z</time></trkpt><trkpt lat="45.67807972428348" lon="9.797012382944489"><ele>231.0</ele><time>2026-04-25T06:56:48.999Z</time></trkpt><trkpt lat="45.67813377311989" lon="9.797275009375987"><ele>232.0</ele><time>2026-04-25T06:56:49.999Z</time></trkpt><trkpt lat="45.67819574606567" lon="9.797536750620932"><ele>231.66666666666666</ele><time>2026-04-25T06:56:50.999Z</time></trkpt><trkpt lat="45.67826082723228" lon="9.797798678886052"><ele>231.33333333333331</ele><time>2026-04-25T06:56:51.999Z</time></trkpt><trkpt lat="45.678327621896" lon="9.798058999306528"><ele>231.0</ele><time>2026-04-25T06:56:52.999Z</time></trkpt><trkpt lat="45.67839495966248" lon="9.79831833055081"><ele>230.66666666666669</ele><time>2026-04-25T06:56:53.999Z</time></trkpt><trkpt lat="45.67846186265121" lon="9.798578797822845"><ele>230.33333333333334</ele><time>2026-04-25T06:56:54.999Z</time></trkpt><trkpt lat="45.678528514351235" lon="9.798840218074314"><ele>230.0</ele><time>2026-04-25T06:56:55.999Z</time></trkpt><trkpt lat="45.67859583941468" lon="9.799103102802116"><ele>230.33333333333334</ele><time>2026-04-25T06:56:56.999Z</time></trkpt><trkpt lat="45.678663654717646" lon="9.799365789494173"><ele>230.66666666666669</ele><time>2026-04-25T06:56:57.999Z</time></trkpt><trkpt lat="45.67873147287774" lon="9.799631075318967"><ele>231.0</ele><time>2026-04-25T06:56:58.999Z</time></trkpt><trkpt lat="45.678799604542036" lon="9.79989479378815"><ele>231.0</ele><time>2026-04-25T06:56:59.999Z</time></trkpt><trkpt lat="45.67886810500334" lon="9.800161108267234"><ele>231.0</ele><time>2026-04-25T06:57:00.999Z</time></trkpt><trkpt lat="45.67893655113457" lon="9.800426172250283"><ele>231.0</ele><time>2026-04-25T06:57:01.999Z</time></trkpt><trkpt lat="45.6790047935823" lon="9.800692405390105"><ele>230.66666666666669</ele><time>2026-04-25T06:57:02.999Z</time></trkpt><trkpt lat="45.679074160019425" lon="9.80095757573967"><ele>230.33333333333334</ele><time>2026-04-25T06:57:03.999Z</time></trkpt><trkpt lat="45.67914316080299" lon="9.801223856313154"><ele>230.0</ele><time>2026-04-25T06:57:04.999Z</time></trkpt><trkpt lat="45.679211631313386" lon="9.801491019598245"><ele>230.0</ele><time>2026-04-25T06:57:05.999Z</time></trkpt><trkpt lat="45.679281333887346" lon="9.801758904505068"><ele>230.0</ele><time>2026-04-25T06:57:06.999Z</time></trkpt><trkpt lat="45.679351320730156" lon="9.802025595016076"><ele>230.0</ele><time>2026-04-25T06:57:07.999Z</time></trkpt><trkpt lat="45.67942248937502" lon="9.802294387579709"><ele>230.66666666666669</ele><time>2026-04-25T06:57:08.999Z</time></trkpt><trkpt lat="45.679493276412956" lon="9.802560684378898"><ele>231.33333333333331</ele><time>2026-04-25T06:57:09.999Z</time></trkpt><trkpt lat="45.67956358161246" lon="9.802825832388635"><ele>232.0</ele><time>2026-04-25T06:57:10.999Z</time></trkpt><trkpt lat="45.67963198780604" lon="9.803084217265182"><ele>232.0</ele><time>2026-04-25T06:57:11.999Z</time></trkpt><trkpt lat="45.67969871302722" lon="9.803334393901494"><ele>232.0</ele><time>2026-04-25T06:57:12.999Z</time></trkpt><trkpt lat="45.67976443732841" lon="9.803571060521131"><ele>232.0</ele><time>2026-04-25T06:57:13.999Z</time></trkpt><trkpt lat="45.679828487914165" lon="9.803806513466377"><ele>232.33333333333331</ele><time>2026-04-25T06:57:14.999Z</time></trkpt><trkpt lat="45.679891631242455" lon="9.804046672438556"><ele>232.66666666666669</ele><time>2026-04-25T06:57:15.999Z</time></trkpt><trkpt lat="45.67995577075934" lon="9.804290916788743"><ele>233.0</ele><time>2026-04-25T06:57:16.999Z</time></trkpt><trkpt lat="45.680021383032916" lon="9.804539568698416"><ele>233.33333333333334</ele><time>2026-04-25T06:57:17.999Z</time></trkpt><trkpt lat="45.68008618831002" lon="9.80479495954178"><ele>233.66666666666669</ele><time>2026-04-25T06:57:18.999Z</time></trkpt><trkpt lat="45.68014573408749" lon="9.805050911495377"><ele>234.0</ele><time>2026-04-25T06:57:19.999Z</time></trkpt><trkpt lat="45.68020249568321" lon="9.805313047417702"><ele>234.0</ele><time>2026-04-25T06:57:20.999Z</time></trkpt><trkpt lat="45.680253686509076" lon="9.805577962823618"><ele>234.0</ele><time>2026-04-25T06:57:21.999Z</time></trkpt><trkpt lat="45.68029869835342" lon="9.805844996105721"><ele>234.0</ele><time>2026-04-25T06:57:22.999Z</time></trkpt><trkpt lat="45.68034359742674" lon="9.806114032297657"><ele>234.0</ele><time>2026-04-25T06:57:23.999Z</time></trkpt><trkpt lat="45.68038897406947" lon="9.806387203600568"><ele>234.0</ele><time>2026-04-25T06:57:24.999Z</time></trkpt><trkpt lat="45.68043255444083" lon="9.806665232057668"><ele>234.0</ele><time>2026-04-25T06:57:25.999Z</time></trkpt><trkpt lat="45.68047181858135" lon="9.806944046432914"><ele>233.66666666666669</ele><time>2026-04-25T06:57:27Z</time></trkpt><trkpt lat="45.680506167650385" lon="9.807225204010857"><ele>233.33333333333334</ele><time>2026-04-25T06:57:28Z</time></trkpt><trkpt lat="45.68053565228452" lon="9.807514417126525"><ele>233.0</ele><time>2026-04-25T06:57:29Z</time></trkpt><trkpt lat="45.6805603486935" lon="9.807804925688814"><ele>233.66666666666669</ele><time>2026-04-25T06:57:30Z</time></trkpt><trkpt lat="45.680581951227744" lon="9.808099613647672"><ele>234.33333333333331</ele><time>2026-04-25T06:57:31Z</time></trkpt><trkpt lat="45.68060172240595" lon="9.808392130040156"><ele>235.0</ele><time>2026-04-25T06:57:32Z</time></trkpt><trkpt lat="45.68062041458649" lon="9.808685085402418"><ele>235.33333333333331</ele><time>2026-04-25T06:57:33Z</time></trkpt><trkpt lat="45.68063983794387" lon="9.808980007742852"><ele>235.66666666666669</ele><time>2026-04-25T06:57:34Z</time></trkpt><trkpt lat="45.68066120068322" lon="9.809278507092767"><ele>236.0</ele><time>2026-04-25T06:57:35Z</time></trkpt><trkpt lat="45.68068259983869" lon="9.809571531289928"><ele>236.0</ele><time>2026-04-25T06:57:36Z</time></trkpt><trkpt lat="45.68070146192665" lon="9.809865175073533"><ele>236.0</ele><time>2026-04-25T06:57:37Z</time></trkpt><trkpt lat="45.68072115627966" lon="9.810159669810336"><ele>236.0</ele><time>2026-04-25T06:57:38Z</time></trkpt><trkpt lat="45.68074206143178" lon="9.810450721251382"><ele>236.33333333333334</ele><time>2026-04-25T06:57:39Z</time></trkpt><trkpt lat="45.68076838325242" lon="9.810740368939017"><ele>236.66666666666669</ele><time>2026-04-25T06:57:40Z</time></trkpt><trkpt lat="45.680801127254554" lon="9.811030355251088"><ele>237.0</ele><time>2026-04-25T06:57:41Z</time></trkpt><trkpt lat="45.680839381409946" lon="9.811315451437615"><ele>237.33333333333331</ele><time>2026-04-25T06:57:42Z</time></trkpt><trkpt lat="45.68088233753317" lon="9.81160282495223"><ele>237.66666666666666</ele><time>2026-04-25T06:57:43Z</time></trkpt><trkpt lat="45.68093029877454" lon="9.81188721439752"><ele>238.0</ele><time>2026-04-25T06:57:44Z</time></trkpt><trkpt lat="45.68098219035319" lon="9.812170474913795"><ele>238.0</ele><time>2026-04-25T06:57:45Z</time></trkpt><trkpt lat="45.68103644276914" lon="9.812451837831883"><ele>238.0</ele><time>2026-04-25T06:57:46Z</time></trkpt><trkpt lat="45.68109483243558" lon="9.812729140121037"><ele>238.0</ele><time>2026-04-25T06:57:47Z</time></trkpt><trkpt lat="45.681157619362125" lon="9.813003588602108"><ele>238.33333333333331</ele><time>2026-04-25T06:57:48Z</time></trkpt><trkpt lat="45.68122355379693" lon="9.813277761936863"><ele>238.66666666666669</ele><time>2026-04-25T06:57:49Z</time></trkpt><trkpt lat="45.68129261577329" lon="9.813549484726336"><ele>239.0</ele><time>2026-04-25T06:57:50Z</time></trkpt><trkpt lat="45.68136373318081" lon="9.813820613661253"><ele>239.33333333333334</ele><time>2026-04-25T06:57:51Z</time></trkpt><trkpt lat="45.681436666713964" lon="9.814092301505346"><ele>239.66666666666669</ele><time>2026-04-25T06:57:52Z</time></trkpt><trkpt lat="45.681509668211305" lon="9.814363612323593"><ele>240.0</ele><time>2026-04-25T06:57:53Z</time></trkpt><trkpt lat="45.681581138057666" lon="9.814635931638877"><ele>240.0</ele><time>2026-04-25T06:57:54Z</time></trkpt><trkpt lat="45.68165070333944" lon="9.814905933992483"><ele>240.0</ele><time>2026-04-25T06:57:55Z</time></trkpt><trkpt lat="45.68172159397771" lon="9.815178708102893"><ele>240.0</ele><time>2026-04-25T06:57:56Z</time></trkpt><trkpt lat="45.68179214530702" lon="9.8154497239736"><ele>240.0</ele><time>2026-04-25T06:57:57Z</time></trkpt><trkpt lat="45.68186267637755" lon="9.815719029338384"><ele>240.0</ele><time>2026-04-25T06:57:58Z</time></trkpt><trkpt lat="45.68193393378204" lon="9.815988300695603"><ele>240.0</ele><time>2026-04-25T06:57:59Z</time></trkpt><trkpt lat="45.68200646185188" lon="9.816255320549594"><ele>241.0</ele><time>2026-04-25T06:58:00Z</time></trkpt><trkpt lat="45.68207701792091" lon="9.816524261580817"><ele>242.0</ele><time>2026-04-25T06:58:01Z</time></trkpt><trkpt lat="45.6821480174167" lon="9.816797339211014"><ele>243.0</ele><time>2026-04-25T06:58:02Z</time></trkpt><trkpt lat="45.682217859157376" lon="9.817066606419793"><ele>243.0</ele><time>2026-04-25T06:58:03Z</time></trkpt><trkpt lat="45.68228769345494" lon="9.817336199553049"><ele>243.0</ele><time>2026-04-25T06:58:04Z</time></trkpt><trkpt lat="45.68235855450127" lon="9.817608889615423"><ele>243.0</ele><time>2026-04-25T06:58:05Z</time></trkpt><trkpt lat="45.68242859691772" lon="9.8178799883598"><ele>243.33333333333331</ele><time>2026-04-25T06:58:06Z</time></trkpt><trkpt lat="45.68249872904661" lon="9.818148038001729"><ele>243.66666666666666</ele><time>2026-04-25T06:58:07Z</time></trkpt><trkpt lat="45.68256929101384" lon="9.818414332344688"><ele>244.0</ele><time>2026-04-25T06:58:08Z</time></trkpt><trkpt lat="45.682639911398454" lon="9.818681223918365"><ele>244.0</ele><time>2026-04-25T06:58:09Z</time></trkpt><trkpt lat="45.682710780167426" lon="9.818949027139274"><ele>244.0</ele><time>2026-04-25T06:58:10Z</time></trkpt><trkpt lat="45.682783028633146" lon="9.819220937650154"><ele>244.0</ele><time>2026-04-25T06:58:11Z</time></trkpt><trkpt lat="45.68285482797005" lon="9.819491097445622"><ele>244.0</ele><time>2026-04-25T06:58:12Z</time></trkpt><trkpt lat="45.68292683610538" lon="9.81976072437068"><ele>244.0</ele><time>2026-04-25T06:58:13Z</time></trkpt><trkpt lat="45.68299880519605" lon="9.820031625500887"><ele>244.0</ele><time>2026-04-25T06:58:14Z</time></trkpt><trkpt lat="45.683072267790806" lon="9.820306684664759"><ele>244.66666666666666</ele><time>2026-04-25T06:58:15Z</time></trkpt><trkpt lat="45.683144699759524" lon="9.820581647795361"><ele>245.33333333333331</ele><time>2026-04-25T06:58:16Z</time></trkpt><trkpt lat="45.68321294454582" lon="9.820856060061793"><ele>246.0</ele><time>2026-04-25T06:58:17Z</time></trkpt><trkpt lat="45.68328083995179" lon="9.82113179727215"><ele>246.0</ele><time>2026-04-25T06:58:18Z</time></trkpt><trkpt lat="45.683349281971395" lon="9.821408529989744"><ele>246.0</ele><time>2026-04-25T06:58:19Z</time></trkpt><trkpt lat="45.68341514812999" lon="9.821687678278321"><ele>246.0</ele><time>2026-04-25T06:58:20Z</time></trkpt><trkpt lat="45.68347726264137" lon="9.821971003781952"><ele>246.33333333333331</ele><time>2026-04-25T06:58:21Z</time></trkpt><trkpt lat="45.68353649166261" lon="9.822257516532458"><ele>246.66666666666666</ele><time>2026-04-25T06:58:22Z</time></trkpt><trkpt lat="45.68359008755471" lon="9.822548139774204"><ele>247.0</ele><time>2026-04-25T06:58:23Z</time></trkpt><trkpt lat="45.68363511005973" lon="9.822840899547748"><ele>247.33333333333331</ele><time>2026-04-25T06:58:24Z</time></trkpt><trkpt lat="45.68367352409431" lon="9.823137004693697"><ele>247.66666666666669</ele><time>2026-04-25T06:58:25Z</time></trkpt><trkpt lat="45.68370420147893" lon="9.823433510098775"><ele>248.0</ele><time>2026-04-25T06:58:26Z</time></trkpt><trkpt lat="45.68372670328426" lon="9.823735107680816"><ele>248.33333333333334</ele><time>2026-04-25T06:58:27Z</time></trkpt><trkpt lat="45.68373911837931" lon="9.824037558449984"><ele>248.66666666666669</ele><time>2026-04-25T06:58:28Z</time></trkpt><trkpt lat="45.68374534906021" lon="9.824343996965045"><ele>249.0</ele><time>2026-04-25T06:58:29Z</time></trkpt><trkpt lat="45.68374752401645" lon="9.824647107105895"><ele>249.0</ele><time>2026-04-25T06:58:30Z</time></trkpt><trkpt lat="45.68374418203706" lon="9.82495008481806"><ele>249.0</ele><time>2026-04-25T06:58:31Z</time></trkpt><trkpt lat="45.68373464980266" lon="9.825258187236102"><ele>249.0</ele><time>2026-04-25T06:58:32Z</time></trkpt><trkpt lat="45.68372424346786" lon="9.825560212571855"><ele>248.66666666666669</ele><time>2026-04-25T06:58:33Z</time></trkpt><trkpt lat="45.68371092193337" lon="9.825862641080564"><ele>248.33333333333334</ele><time>2026-04-25T06:58:34Z</time></trkpt><trkpt lat="45.68369452311869" lon="9.826166996503153"><ele>248.0</ele><time>2026-04-25T06:58:35Z</time></trkpt><trkpt lat="45.68367745796234" lon="9.826469235860987"><ele>249.0</ele><time>2026-04-25T06:58:36Z</time></trkpt><trkpt lat="45.68365695120979" lon="9.82677143680874"><ele>250.0</ele><time>2026-04-25T06:58:37Z</time></trkpt><trkpt lat="45.68363810769214" lon="9.827069701718303"><ele>251.0</ele><time>2026-04-25T06:58:38Z</time></trkpt><trkpt lat="45.68361883905647" lon="9.827363052394388"><ele>251.0</ele><time>2026-04-25T06:58:39Z</time></trkpt><trkpt lat="45.68359746657126" lon="9.827660306946635"><ele>251.0</ele><time>2026-04-25T06:58:40Z</time></trkpt><trkpt lat="45.68357371264427" lon="9.827957938495294"><ele>251.0</ele><time>2026-04-25T06:58:41Z</time></trkpt><trkpt lat="45.6835464827129" lon="9.82825158212418"><ele>251.66666666666669</ele><time>2026-04-25T06:58:42Z</time></trkpt><trkpt lat="45.68352121528634" lon="9.82854648069874"><ele>252.33333333333331</ele><time>2026-04-25T06:58:43Z</time></trkpt><trkpt lat="45.68349576804492" lon="9.828837018297467"><ele>253.0</ele><time>2026-04-25T06:58:44Z</time></trkpt><trkpt lat="45.683469288270516" lon="9.829127881570171"><ele>252.66666666666666</ele><time>2026-04-25T06:58:45Z</time></trkpt><trkpt lat="45.68343970118737" lon="9.829420799647124"><ele>252.33333333333331</ele><time>2026-04-25T06:58:46Z</time></trkpt><trkpt lat="45.68341180867449" lon="9.82971284403479"><ele>252.0</ele><time>2026-04-25T06:58:47Z</time></trkpt><trkpt lat="45.6833811998699" lon="9.830007398853287"><ele>251.66666666666669</ele><time>2026-04-25T06:58:48Z</time></trkpt><trkpt lat="45.68335068586467" lon="9.830304526848112"><ele>251.33333333333334</ele><time>2026-04-25T06:58:48.999Z</time></trkpt><trkpt lat="45.68331950212251" lon="9.830605225519646"><ele>251.0</ele><time>2026-04-25T06:58:49.999Z</time></trkpt><trkpt lat="45.683287195184434" lon="9.830907726874448"><ele>251.33333333333334</ele><time>2026-04-25T06:58:50.999Z</time></trkpt><trkpt lat="45.68325210560244" lon="9.831214361919104"><ele>251.66666666666669</ele><time>2026-04-25T06:58:51.999Z</time></trkpt><trkpt lat="45.68321515280919" lon="9.831520198125263"><ele>252.0</ele><time>2026-04-25T06:58:52.999Z</time></trkpt><trkpt lat="45.68317798850147" lon="9.831826166245033"><ele>252.66666666666669</ele><time>2026-04-25T06:58:53.999Z</time></trkpt><trkpt lat="45.683139669114006" lon="9.832130958503207"><ele>253.33333333333334</ele><time>2026-04-25T06:58:54.999Z</time></trkpt><trkpt lat="45.68310477243386" lon="9.8324391775084"><ele>254.0</ele><time>2026-04-25T06:58:55.999Z</time></trkpt><trkpt lat="45.6830326229973" lon="9.832728274839376"><ele>254.33333333333334</ele><time>2026-04-25T06:58:56.999Z</time></trkpt><trkpt lat="45.68300074416464" lon="9.832970016669837"><ele>254.66666666666669</ele><time>2026-04-25T06:58:57.999Z</time></trkpt><trkpt lat="45.68297680048777" lon="9.833204036350352"><ele>255.0</ele><time>2026-04-25T06:58:58.999Z</time></trkpt><trkpt lat="45.6829557528583" lon="9.833437551149029"><ele>254.33333333333331</ele><time>2026-04-25T06:58:59.999Z</time></trkpt><trkpt lat="45.68293326798948" lon="9.833689934913778"><ele>253.66666666666666</ele><time>2026-04-25T06:59:00.999Z</time></trkpt><trkpt lat="45.682906070857165" lon="9.833926198182642"><ele>253.0</ele><time>2026-04-25T06:59:01.999Z</time></trkpt><trkpt lat="45.68291014702442" lon="9.834151876343983"><ele>253.0</ele><time>2026-04-25T06:59:02.999Z</time></trkpt><trkpt lat="45.68288327433449" lon="9.834363799579469"><ele>253.0</ele><time>2026-04-25T06:59:03.999Z</time></trkpt><trkpt lat="45.68286075058343" lon="9.834556356370703"><ele>253.0</ele><time>2026-04-25T06:59:04.999Z</time></trkpt><trkpt lat="45.682848311047486" lon="9.834738103921618"><ele>253.0</ele><time>2026-04-25T06:59:05.999Z</time></trkpt><trkpt lat="45.682838726444785" lon="9.834906860542565"><ele>253.0</ele><time>2026-04-25T06:59:06.999Z</time></trkpt><trkpt lat="45.68283102253555" lon="9.835058511189716"><ele>253.0</ele><time>2026-04-25T06:59:07.999Z</time></trkpt><trkpt lat="45.68282595044493" lon="9.835207194940772"><ele>253.0</ele><time>2026-04-25T06:59:08.999Z</time></trkpt><trkpt lat="45.682820381363015" lon="9.835355301164888"><ele>253.0</ele><time>2026-04-25T06:59:09.999Z</time></trkpt><trkpt lat="45.68281468330157" lon="9.835488900012471"><ele>253.0</ele><time>2026-04-25T06:59:10.999Z</time></trkpt><trkpt lat="45.68280759267644" lon="9.835608447934549"><ele>252.66666666666666</ele><time>2026-04-25T06:59:11.999Z</time></trkpt><trkpt lat="45.68279826530295" lon="9.835720658782542"><ele>252.33333333333331</ele><time>2026-04-25T06:59:12.999Z</time></trkpt><trkpt lat="45.68277926612958" lon="9.835837192758"><ele>252.0</ele><time>2026-04-25T06:59:13.999Z</time></trkpt><trkpt lat="45.68273614458065" lon="9.835938847359948"><ele>251.66666666666669</ele><time>2026-04-25T06:59:14.999Z</time></trkpt><trkpt lat="45.68267602033363" lon="9.83601709989686"><ele>251.33333333333334</ele><time>2026-04-25T06:59:15.999Z</time></trkpt><trkpt lat="45.68261569467824" lon="9.836091023597598"><ele>251.0</ele><time>2026-04-25T06:59:16.999Z</time></trkpt><trkpt lat="45.68256210241679" lon="9.836172092597977"><ele>250.00000000000003</ele><time>2026-04-25T06:59:17.999Z</time></trkpt><trkpt lat="45.682519219412285" lon="9.836269454395222"><ele>249.0</ele><time>2026-04-25T06:59:18.999Z</time></trkpt><trkpt lat="45.68249331014773" lon="9.836391419954674"><ele>248.0</ele><time>2026-04-25T06:59:19.999Z</time></trkpt><trkpt lat="45.68249257781533" lon="9.836521616729009"><ele>247.0</ele><time>2026-04-25T06:59:20.999Z</time></trkpt><trkpt lat="45.68252688894901" lon="9.836647948299975"><ele>246.00000000000003</ele><time>2026-04-25T06:59:21.999Z</time></trkpt><trkpt lat="45.682582325442574" lon="9.83675488021165"><ele>245.0</ele><time>2026-04-25T06:59:22.999Z</time></trkpt><trkpt lat="45.682658884553845" lon="9.83682507723831"><ele>245.00000000000003</ele><time>2026-04-25T06:59:23.999Z</time></trkpt><trkpt lat="45.68274890898331" lon="9.836854084434467"><ele>245.0</ele><time>2026-04-25T06:59:24.999Z</time></trkpt><trkpt lat="45.682836765896205" lon="9.836850803707463"><ele>245.0</ele><time>2026-04-25T06:59:25.999Z</time></trkpt><trkpt lat="45.68291864875361" lon="9.83681633684622"><ele>245.0</ele><time>2026-04-25T06:59:26.999Z</time></trkpt><trkpt lat="45.68298916966794" lon="9.836755153793517"><ele>245.00000000000003</ele><time>2026-04-25T06:59:27.999Z</time></trkpt><trkpt lat="45.68304931781635" lon="9.83667470241469"><ele>245.0</ele><time>2026-04-25T06:59:28.999Z</time></trkpt><trkpt lat="45.683104840443605" lon="9.836581689849496"><ele>245.33333333333334</ele><time>2026-04-25T06:59:29.999Z</time></trkpt><trkpt lat="45.683163808365904" lon="9.836487833532118"><ele>245.66666666666669</ele><time>2026-04-25T06:59:30.999Z</time></trkpt><trkpt lat="45.683229998417424" lon="9.836408717399898"><ele>246.0</ele><time>2026-04-25T06:59:31.999Z</time></trkpt><trkpt lat="45.68330226036343" lon="9.83634591762859"><ele>246.33333333333331</ele><time>2026-04-25T06:59:33Z</time></trkpt><trkpt lat="45.68338900716305" lon="9.836308851114882"><ele>246.66666666666666</ele><time>2026-04-25T06:59:34Z</time></trkpt><trkpt lat="45.683473937456334" lon="9.836303093128437"><ele>247.0</ele><time>2026-04-25T06:59:35Z</time></trkpt><trkpt lat="45.683553055301616" lon="9.836318450616401"><ele>247.33333333333331</ele><time>2026-04-25T06:59:36Z</time></trkpt><trkpt lat="45.68362889109798" lon="9.836351614955264"><ele>247.66666666666666</ele><time>2026-04-25T06:59:37Z</time></trkpt><trkpt lat="45.68370096741274" lon="9.836413358029493"><ele>248.0</ele><time>2026-04-25T06:59:38Z</time></trkpt><trkpt lat="45.68376467971544" lon="9.836490074595934"><ele>248.33333333333331</ele><time>2026-04-25T06:59:39Z</time></trkpt><trkpt lat="45.68382460489825" lon="9.836566218348679"><ele>248.66666666666666</ele><time>2026-04-25T06:59:40Z</time></trkpt><trkpt lat="45.68388809848507" lon="9.83664510001625"><ele>249.0</ele><time>2026-04-25T06:59:41Z</time></trkpt><trkpt lat="45.6839557447943" lon="9.836727062318197"><ele>248.83333333333334</ele><time>2026-04-25T06:59:42Z</time></trkpt><trkpt lat="45.684024452190236" lon="9.836811501418307"><ele>248.66666666666669</ele><time>2026-04-25T06:59:43Z</time></trkpt><trkpt lat="45.68409207420093" lon="9.83689652059198"><ele>248.5</ele><time>2026-04-25T06:59:44Z</time></trkpt><trkpt lat="45.68415712002715" lon="9.836977026716506"><ele>248.33333333333334</ele><time>2026-04-25T06:59:45Z</time></trkpt><trkpt lat="45.68421800520468" lon="9.837051735741184"><ele>248.16666666666669</ele><time>2026-04-25T06:59:46Z</time></trkpt><trkpt lat="45.68427565416979" lon="9.8371226426926"><ele>248.0</ele><time>2026-04-25T06:59:47Z</time></trkpt><trkpt lat="45.684324413348456" lon="9.837187238700228"><ele>248.00000000000003</ele><time>2026-04-25T06:59:48Z</time></trkpt><trkpt lat="45.68442025662711" lon="9.837292173099495"><ele>248.0</ele><time>2026-04-25T06:59:50Z</time></trkpt><trkpt lat="45.684471672513865" lon="9.837352896027328"><ele>248.0</ele><time>2026-04-25T06:59:51Z</time></trkpt><trkpt lat="45.68452191207799" lon="9.83741403787841"><ele>248.0</ele><time>2026-04-25T06:59:52Z</time></trkpt><trkpt lat="45.68457636688025" lon="9.837483369398656"><ele>248.00000000000003</ele><time>2026-04-25T06:59:53Z</time></trkpt><trkpt lat="45.684631312461256" lon="9.837559187096634"><ele>248.0</ele><time>2026-04-25T06:59:54Z</time></trkpt><trkpt lat="45.68467828091066" lon="9.837629748087421"><ele>247.66666666666669</ele><time>2026-04-25T06:59:55Z</time></trkpt><trkpt lat="45.68476644323609" lon="9.837752973169072"><ele>247.33333333333334</ele><time>2026-04-25T06:59:57Z</time></trkpt><trkpt lat="45.68481434370355" lon="9.837826760728419"><ele>247.0</ele><time>2026-04-25T06:59:58Z</time></trkpt><trkpt lat="45.68486376434708" lon="9.837910229384887"><ele>246.66666666666669</ele><time>2026-04-25T06:59:59Z</time></trkpt><trkpt lat="45.68491532091511" lon="9.838006395173581"><ele>246.33333333333334</ele><time>2026-04-25T07:00:00Z</time></trkpt><trkpt lat="45.68496757344492" lon="9.838105770494739"><ele>246.0</ele><time>2026-04-25T07:00:01Z</time></trkpt><trkpt lat="45.68501913199077" lon="9.838205023595142"><ele>246.0</ele><time>2026-04-25T07:00:02Z</time></trkpt><trkpt lat="45.68507313831426" lon="9.838314567306343"><ele>246.00000000000003</ele><time>2026-04-25T07:00:03Z</time></trkpt><trkpt lat="45.685129765632595" lon="9.838433110129227"><ele>246.00000000000003</ele><time>2026-04-25T07:00:04Z</time></trkpt><trkpt lat="45.685187647625646" lon="9.838561259087093"><ele>246.0</ele><time>2026-04-25T07:00:05Z</time></trkpt><trkpt lat="45.68524763512888" lon="9.838696623816224"><ele>246.0</ele><time>2026-04-25T07:00:06Z</time></trkpt><trkpt lat="45.68530767398325" lon="9.83883982680275"><ele>247.5</ele><time>2026-04-25T07:00:07Z</time></trkpt><trkpt lat="45.685365434434146" lon="9.838982706208645"><ele>249.0</ele><time>2026-04-25T07:00:08Z</time></trkpt><trkpt lat="45.68542361108317" lon="9.839126271730066"><ele>250.5</ele><time>2026-04-25T07:00:09Z</time></trkpt><trkpt lat="45.68548277551738" lon="9.839275327082142"><ele>252.0</ele><time>2026-04-25T07:00:10Z</time></trkpt><trkpt lat="45.685542677313585" lon="9.839429058720361"><ele>252.0</ele><time>2026-04-25T07:00:11Z</time></trkpt><trkpt lat="45.68560450376341" lon="9.839585026644581"><ele>252.0</ele><time>2026-04-25T07:00:12Z</time></trkpt><trkpt lat="45.68566886429292" lon="9.83974420472538"><ele>252.0</ele><time>2026-04-25T07:00:13Z</time></trkpt><trkpt lat="45.68573496699417" lon="9.839906802684107"><ele>252.0</ele><time>2026-04-25T07:00:14Z</time></trkpt><trkpt lat="45.68580188432321" lon="9.84007442722421"><ele>251.25</ele><time>2026-04-25T07:00:15Z</time></trkpt><trkpt lat="45.68586796156155" lon="9.8402373669319"><ele>250.5</ele><time>2026-04-25T07:00:16Z</time></trkpt><trkpt lat="45.685933573008526" lon="9.840395395917474"><ele>249.75</ele><time>2026-04-25T07:00:17Z</time></trkpt><trkpt lat="45.685997169462574" lon="9.84054936268742"><ele>249.0</ele><time>2026-04-25T07:00:18Z</time></trkpt><trkpt lat="45.686054014969805" lon="9.840704558451883"><ele>250.0</ele><time>2026-04-25T07:00:19Z</time></trkpt><trkpt lat="45.686105298335775" lon="9.840857465693944"><ele>251.0</ele><time>2026-04-25T07:00:20Z</time></trkpt><trkpt lat="45.68616495095914" lon="9.841008193825143"><ele>252.0</ele><time>2026-04-25T07:00:21Z</time></trkpt><trkpt lat="45.68623449382069" lon="9.841155158087343"><ele>253.0</ele><time>2026-04-25T07:00:22Z</time></trkpt><trkpt lat="45.68629956505709" lon="9.841308564560334"><ele>253.0</ele><time>2026-04-25T07:00:23Z</time></trkpt><trkpt lat="45.68636076204157" lon="9.841461630571217"><ele>253.0</ele><time>2026-04-25T07:00:24Z</time></trkpt><trkpt lat="45.68642514310281" lon="9.8416138007811"><ele>253.0</ele><time>2026-04-25T07:00:25Z</time></trkpt><trkpt lat="45.686493020144866" lon="9.841765046571615"><ele>253.0</ele><time>2026-04-25T07:00:26Z</time></trkpt><trkpt lat="45.68656533061263" lon="9.841915373155748"><ele>252.0</ele><time>2026-04-25T07:00:27Z</time></trkpt><trkpt lat="45.68663784742661" lon="9.84207643899193"><ele>251.0</ele><time>2026-04-25T07:00:28Z</time></trkpt><trkpt lat="45.68672204159752" lon="9.842239179001295"><ele>250.0</ele><time>2026-04-25T07:00:29Z</time></trkpt><trkpt lat="45.686817070421505" lon="9.84240209143512"><ele>249.0</ele><time>2026-04-25T07:00:30Z</time></trkpt><trkpt lat="45.68691208682839" lon="9.84255331671471"><ele>249.25</ele><time>2026-04-25T07:00:31Z</time></trkpt><trkpt lat="45.68700597086519" lon="9.842699140094943"><ele>249.5</ele><time>2026-04-25T07:00:32Z</time></trkpt><trkpt lat="45.68710206378891" lon="9.842855892987998"><ele>249.75</ele><time>2026-04-25T07:00:33Z</time></trkpt><trkpt lat="45.687198879616375" lon="9.843016444183803"><ele>250.0</ele><time>2026-04-25T07:00:34Z</time></trkpt><trkpt lat="45.68729644728423" lon="9.843178085766791"><ele>250.0</ele><time>2026-04-25T07:00:35Z</time></trkpt><trkpt lat="45.687395457904316" lon="9.843342615831736"><ele>250.0</ele><time>2026-04-25T07:00:36Z</time></trkpt><trkpt lat="45.68749457603852" lon="9.843508672950604"><ele>250.0</ele><time>2026-04-25T07:00:37Z</time></trkpt><trkpt lat="45.68759822652727" lon="9.843680187455135"><ele>250.33333333333331</ele><time>2026-04-25T07:00:38Z</time></trkpt><trkpt lat="45.687703498214944" lon="9.843854519669952"><ele>250.66666666666669</ele><time>2026-04-25T07:00:39Z</time></trkpt><trkpt lat="45.68781001583379" lon="9.844029603169512"><ele>251.0</ele><time>2026-04-25T07:00:40Z</time></trkpt><trkpt lat="45.687915091945264" lon="9.844207050742135"><ele>250.0</ele><time>2026-04-25T07:00:41Z</time></trkpt><trkpt lat="45.68802840842725" lon="9.844390842169647"><ele>249.0</ele><time>2026-04-25T07:00:42Z</time></trkpt><trkpt lat="45.68815061447925" lon="9.84458637238087"><ele>248.0</ele><time>2026-04-25T07:00:43Z</time></trkpt><trkpt lat="45.68825933677055" lon="9.844826418861192"><ele>248.0</ele><time>2026-04-25T07:00:44Z</time></trkpt><trkpt lat="45.68837322094142" lon="9.845082123063618"><ele>248.0</ele><time>2026-04-25T07:00:45Z</time></trkpt><trkpt lat="45.68849719638908" lon="9.845334275793613"><ele>248.0</ele><time>2026-04-25T07:00:46Z</time></trkpt><trkpt lat="45.68860256195951" lon="9.845607700550255"><ele>248.33333333333334</ele><time>2026-04-25T07:00:47Z</time></trkpt><trkpt lat="45.68871107968995" lon="9.845859141329601"><ele>248.66666666666669</ele><time>2026-04-25T07:00:48Z</time></trkpt><trkpt lat="45.68881554943746" lon="9.846097047392552"><ele>249.0</ele><time>2026-04-25T07:00:48.999Z</time></trkpt><trkpt lat="45.68892039000762" lon="9.846333507297057"><ele>249.0</ele><time>2026-04-25T07:00:49.999Z</time></trkpt><trkpt lat="45.689024170468514" lon="9.846563582315305"><ele>249.0</ele><time>2026-04-25T07:00:50.999Z</time></trkpt><trkpt lat="45.68912470090925" lon="9.846789065336086"><ele>249.0</ele><time>2026-04-25T07:00:51.999Z</time></trkpt><trkpt lat="45.68921853636396" lon="9.847003487999068"><ele>249.0</ele><time>2026-04-25T07:00:52.999Z</time></trkpt><trkpt lat="45.6893083271458" lon="9.847205282038043"><ele>249.0</ele><time>2026-04-25T07:00:53.999Z</time></trkpt><trkpt lat="45.68939744478021" lon="9.847400179845984"><ele>249.0</ele><time>2026-04-25T07:00:54.999Z</time></trkpt><trkpt lat="45.689484436217526" lon="9.847593049238068"><ele>248.66666666666669</ele><time>2026-04-25T07:00:55.999Z</time></trkpt><trkpt lat="45.68957208485768" lon="9.847785440049172"><ele>248.33333333333334</ele><time>2026-04-25T07:00:56.999Z</time></trkpt><trkpt lat="45.689660786627115" lon="9.84797345757615"><ele>248.0</ele><time>2026-04-25T07:00:57.999Z</time></trkpt><trkpt lat="45.689758055025315" lon="9.848152066261987"><ele>248.0</ele><time>2026-04-25T07:00:58.999Z</time></trkpt><trkpt lat="45.68986802459656" lon="9.84831197221784"><ele>248.0</ele><time>2026-04-25T07:00:59.999Z</time></trkpt><trkpt lat="45.68998750715611" lon="9.84844354930622"><ele>248.0</ele><time>2026-04-25T07:01:00.999Z</time></trkpt><trkpt lat="45.6901133219213" lon="9.848551266087357"><ele>248.25</ele><time>2026-04-25T07:01:01.999Z</time></trkpt><trkpt lat="45.69023889933906" lon="9.848625533252813"><ele>248.5</ele><time>2026-04-25T07:01:02.999Z</time></trkpt><trkpt lat="45.690358630050774" lon="9.848674791452359"><ele>248.75</ele><time>2026-04-25T07:01:03.999Z</time></trkpt><trkpt lat="45.69047386249176" lon="9.848745241655573"><ele>249.0</ele><time>2026-04-25T07:01:04.999Z</time></trkpt><trkpt lat="45.69059969892561" lon="9.84879081820055"><ele>249.0</ele><time>2026-04-25T07:01:05.999Z</time></trkpt><trkpt lat="45.69074066112891" lon="9.848828806731726"><ele>249.0</ele><time>2026-04-25T07:01:06.999Z</time></trkpt><trkpt lat="45.69087071991305" lon="9.84887985548039"><ele>249.0</ele><time>2026-04-25T07:01:07.999Z</time></trkpt><trkpt lat="45.6909993255758" lon="9.848928356632525"><ele>249.0</ele><time>2026-04-25T07:01:08.999Z</time></trkpt><trkpt lat="45.691127631215885" lon="9.848978893849127"><ele>249.5</ele><time>2026-04-25T07:01:09.999Z</time></trkpt><trkpt lat="45.69125627082363" lon="9.849026854480616"><ele>250.0</ele><time>2026-04-25T07:01:10.999Z</time></trkpt><trkpt lat="45.69138737259759" lon="9.8490736924901"><ele>250.5</ele><time>2026-04-25T07:01:11.999Z</time></trkpt><trkpt lat="45.69152197030039" lon="9.849122499158982"><ele>251.0</ele><time>2026-04-25T07:01:12.999Z</time></trkpt><trkpt lat="45.69165465092903" lon="9.849167113402345"><ele>251.0</ele><time>2026-04-25T07:01:13.999Z</time></trkpt><trkpt lat="45.69178186500495" lon="9.849211813521968"><ele>251.0</ele><time>2026-04-25T07:01:14.999Z</time></trkpt><trkpt lat="45.69190174528722" lon="9.849256674689356"><ele>251.0</ele><time>2026-04-25T07:01:15.999Z</time></trkpt><trkpt lat="45.6920210568115" lon="9.849304053743555"><ele>251.0</ele><time>2026-04-25T07:01:16.999Z</time></trkpt><trkpt lat="45.69213572670063" lon="9.849354578176532"><ele>250.8</ele><time>2026-04-25T07:01:17.999Z</time></trkpt><trkpt lat="45.69224491361328" lon="9.849405886670107"><ele>250.60000000000002</ele><time>2026-04-25T07:01:18.999Z</time></trkpt><trkpt lat="45.69234987127784" lon="9.849458239963372"><ele>250.4</ele><time>2026-04-25T07:01:19.999Z</time></trkpt><trkpt lat="45.692450044250876" lon="9.849513244403429"><ele>250.2</ele><time>2026-04-25T07:01:20.999Z</time></trkpt><trkpt lat="45.69254685505538" lon="9.849567904544502"><ele>250.0</ele><time>2026-04-25T07:01:21.999Z</time></trkpt><trkpt lat="45.692648371151975" lon="9.849621396716284"><ele>250.0</ele><time>2026-04-25T07:01:22.999Z</time></trkpt><trkpt lat="45.69275072338539" lon="9.849682859537973"><ele>250.0</ele><time>2026-04-25T07:01:23.999Z</time></trkpt><trkpt lat="45.69284907931574" lon="9.849751614701898"><ele>250.0</ele><time>2026-04-25T07:01:24.999Z</time></trkpt><trkpt lat="45.692948959424236" lon="9.849825028736175"><ele>250.0</ele><time>2026-04-25T07:01:25.999Z</time></trkpt><trkpt lat="45.6930499600361" lon="9.849902510199213"><ele>250.0</ele><time>2026-04-25T07:01:26.999Z</time></trkpt><trkpt lat="45.69315240155038" lon="9.84998586160058"><ele>250.5</ele><time>2026-04-25T07:01:27.999Z</time></trkpt><trkpt lat="45.69325773914256" lon="9.850072979693238"><ele>251.0</ele><time>2026-04-25T07:01:28.999Z</time></trkpt><trkpt lat="45.69336391369871" lon="9.85016578830439"><ele>251.5</ele><time>2026-04-25T07:01:29.999Z</time></trkpt><trkpt lat="45.69346962688338" lon="9.85026307417977"><ele>252.0</ele><time>2026-04-25T07:01:30.999Z</time></trkpt><trkpt lat="45.69357219168029" lon="9.850361840531052"><ele>252.2</ele><time>2026-04-25T07:01:31.999Z</time></trkpt><trkpt lat="45.693672616413906" lon="9.850461591716284"><ele>252.39999999999998</ele><time>2026-04-25T07:01:32.999Z</time></trkpt><trkpt lat="45.69376922570009" lon="9.850548867972241"><ele>252.60000000000002</ele><time>2026-04-25T07:01:33.999Z</time></trkpt><trkpt lat="45.693861810808414" lon="9.85062609207093"><ele>252.8</ele><time>2026-04-25T07:01:34.999Z</time></trkpt><trkpt lat="45.69392351963709" lon="9.85074767801731"><ele>253.0</ele><time>2026-04-25T07:01:35.999Z</time></trkpt><trkpt lat="45.69399165323287" lon="9.850834858176894"><ele>252.33333333333331</ele><time>2026-04-25T07:01:36.999Z</time></trkpt><trkpt lat="45.69415791451443" lon="9.851027809709619"><ele>251.66666666666669</ele><time>2026-04-25T07:01:37.999Z</time></trkpt><trkpt lat="45.69424856531743" lon="9.851147245116668"><ele>251.0</ele><time>2026-04-25T07:01:39Z</time></trkpt><trkpt lat="45.69433796772008" lon="9.851263473831596"><ele>251.5</ele><time>2026-04-25T07:01:40Z</time></trkpt><trkpt lat="45.69442806772446" lon="9.851379755962533"><ele>252.0</ele><time>2026-04-25T07:01:41Z</time></trkpt><trkpt lat="45.69451818932967" lon="9.851502238802325"><ele>252.5</ele><time>2026-04-25T07:01:42Z</time></trkpt><trkpt lat="45.694608442659515" lon="9.851625114447417"><ele>253.0</ele><time>2026-04-25T07:01:43Z</time></trkpt><trkpt lat="45.694697576016914" lon="9.851748498904893"><ele>253.0</ele><time>2026-04-25T07:01:44Z</time></trkpt><trkpt lat="45.69478625780095" lon="9.851868678415094"><ele>253.0</ele><time>2026-04-25T07:01:45Z</time></trkpt><trkpt lat="45.69487456915255" lon="9.851984374555743"><ele>253.0</ele><time>2026-04-25T07:01:46Z</time></trkpt><trkpt lat="45.69495555985926" lon="9.852090645342823"><ele>253.0</ele><time>2026-04-25T07:01:47Z</time></trkpt><trkpt lat="45.695037024520936" lon="9.852204076173827"><ele>253.0</ele><time>2026-04-25T07:01:48Z</time></trkpt><trkpt lat="45.695114488269496" lon="9.852308530094566"><ele>253.0</ele><time>2026-04-25T07:01:49Z</time></trkpt><trkpt lat="45.69519461962593" lon="9.85241502468461"><ele>253.0</ele><time>2026-04-25T07:01:50Z</time></trkpt><trkpt lat="45.695274064040646" lon="9.852516994887694"><ele>253.0</ele><time>2026-04-25T07:01:51Z</time></trkpt><trkpt lat="45.695358659579306" lon="9.852623950542815"><ele>253.0</ele><time>2026-04-25T07:01:52Z</time></trkpt><trkpt lat="45.69544512677225" lon="9.852739287280405"><ele>253.25</ele><time>2026-04-25T07:01:53Z</time></trkpt><trkpt lat="45.69553397783069" lon="9.85285391639587"><ele>253.5</ele><time>2026-04-25T07:01:54Z</time></trkpt><trkpt lat="45.69562294203823" lon="9.852972634238986"><ele>253.75</ele><time>2026-04-25T07:01:55Z</time></trkpt><trkpt lat="45.6957083504006" lon="9.853089421121043"><ele>254.0</ele><time>2026-04-25T07:01:56Z</time></trkpt><trkpt lat="45.69579887296221" lon="9.853211647531879"><ele>254.0</ele><time>2026-04-25T07:01:57Z</time></trkpt><trkpt lat="45.6958939761092" lon="9.853336091851366"><ele>254.0</ele><time>2026-04-25T07:01:58Z</time></trkpt><trkpt lat="45.69599216024545" lon="9.853463359463381"><ele>254.0</ele><time>2026-04-25T07:01:59Z</time></trkpt><trkpt lat="45.69609748528801" lon="9.85359409646436"><ele>254.0</ele><time>2026-04-25T07:02:00Z</time></trkpt><trkpt lat="45.69620159003669" lon="9.853740761806748"><ele>255.0</ele><time>2026-04-25T07:02:01Z</time></trkpt><trkpt lat="45.69631708158837" lon="9.853893523530118"><ele>256.0</ele><time>2026-04-25T07:02:02Z</time></trkpt><trkpt lat="45.696431030018566" lon="9.854048688771217"><ele>257.0</ele><time>2026-04-25T07:02:03Z</time></trkpt><trkpt lat="45.69654292289046" lon="9.854200157584165"><ele>257.0</ele><time>2026-04-25T07:02:04Z</time></trkpt><trkpt lat="45.696660585387654" lon="9.854342207507626"><ele>257.0</ele><time>2026-04-25T07:02:05Z</time></trkpt><trkpt lat="45.69677365906498" lon="9.85446992438988"><ele>257.0</ele><time>2026-04-25T07:02:06Z</time></trkpt><trkpt lat="45.69689162649207" lon="9.854591902426058"><ele>257.0</ele><time>2026-04-25T07:02:07Z</time></trkpt><trkpt lat="45.697007036359196" lon="9.854715151000097"><ele>257.0</ele><time>2026-04-25T07:02:08Z</time></trkpt><trkpt lat="45.69712455882875" lon="9.854834453077876"><ele>257.0</ele><time>2026-04-25T07:02:09Z</time></trkpt><trkpt lat="45.69723861222653" lon="9.854950534190177"><ele>257.0</ele><time>2026-04-25T07:02:10Z</time></trkpt><trkpt lat="45.69735467126518" lon="9.855066755349396"><ele>257.0</ele><time>2026-04-25T07:02:11Z</time></trkpt><trkpt lat="45.697471797223855" lon="9.855184161735583"><ele>256.5</ele><time>2026-04-25T07:02:12Z</time></trkpt><trkpt lat="45.69758851488076" lon="9.855302926370852"><ele>256.0</ele><time>2026-04-25T07:02:13Z</time></trkpt><trkpt lat="45.69770825853752" lon="9.855422720374218"><ele>255.5</ele><time>2026-04-25T07:02:14Z</time></trkpt><trkpt lat="45.69782640869554" lon="9.85554228805068"><ele>255.0</ele><time>2026-04-25T07:02:15Z</time></trkpt><trkpt lat="45.69795143576186" lon="9.855668863826397"><ele>255.33333333333331</ele><time>2026-04-25T07:02:16Z</time></trkpt><trkpt lat="45.69807865338278" lon="9.855800051908757"><ele>255.66666666666666</ele><time>2026-04-25T07:02:17Z</time></trkpt><trkpt lat="45.698200355616116" lon="9.855930077395783"><ele>256.0</ele><time>2026-04-25T07:02:18Z</time></trkpt><trkpt lat="45.69832278692358" lon="9.856066031346613"><ele>256.0</ele><time>2026-04-25T07:02:19Z</time></trkpt><trkpt lat="45.69844375936316" lon="9.856202389790178"><ele>256.0</ele><time>2026-04-25T07:02:20Z</time></trkpt><trkpt lat="45.69856834302053" lon="9.856345205391033"><ele>256.0</ele><time>2026-04-25T07:02:21Z</time></trkpt><trkpt lat="45.698692566844194" lon="9.85648828283949"><ele>256.0</ele><time>2026-04-25T07:02:22Z</time></trkpt><trkpt lat="45.69881686139028" lon="9.856635555855426"><ele>256.0</ele><time>2026-04-25T07:02:23Z</time></trkpt><trkpt lat="45.69894523576434" lon="9.856786767701474"><ele>256.0</ele><time>2026-04-25T07:02:24Z</time></trkpt><trkpt lat="45.6990755977044" lon="9.856936713962474"><ele>256.0</ele><time>2026-04-25T07:02:25Z</time></trkpt><trkpt lat="45.6992060800092" lon="9.857090125087128"><ele>256.0</ele><time>2026-04-25T07:02:26Z</time></trkpt><trkpt lat="45.69932945648996" lon="9.857238301664564"><ele>256.0</ele><time>2026-04-25T07:02:27Z</time></trkpt><trkpt lat="45.699454670509795" lon="9.85738786553461"><ele>256.3333333333333</ele><time>2026-04-25T07:02:28Z</time></trkpt><trkpt lat="45.69957883917448" lon="9.857532428423658"><ele>256.6666666666667</ele><time>2026-04-25T07:02:29Z</time></trkpt><trkpt lat="45.69971054331703" lon="9.857683696387955"><ele>257.0</ele><time>2026-04-25T07:02:30Z</time></trkpt><trkpt lat="45.69984223607665" lon="9.857835949214092"><ele>257.0</ele><time>2026-04-25T07:02:31Z</time></trkpt><trkpt lat="45.69997479682199" lon="9.857993352711912"><ele>257.0</ele><time>2026-04-25T07:02:32Z</time></trkpt><trkpt lat="45.700106049381326" lon="9.858150121306053"><ele>257.0</ele><time>2026-04-25T07:02:33Z</time></trkpt><trkpt lat="45.70023711661644" lon="9.858307692594993"><ele>257.33333333333337</ele><time>2026-04-25T07:02:34Z</time></trkpt><trkpt lat="45.70036684056792" lon="9.858467176930413"><ele>257.6666666666667</ele><time>2026-04-25T07:02:35Z</time></trkpt><trkpt lat="45.700496135472896" lon="9.858633771766787"><ele>258.0</ele><time>2026-04-25T07:02:36Z</time></trkpt><trkpt lat="45.70063132369538" lon="9.858798640437962"><ele>258.0</ele><time>2026-04-25T07:02:37Z</time></trkpt><trkpt lat="45.70077415215813" lon="9.858935054931996"><ele>258.0</ele><time>2026-04-25T07:02:38Z</time></trkpt><trkpt lat="45.700935141296604" lon="9.85905022456707"><ele>258.0</ele><time>2026-04-25T07:02:39Z</time></trkpt><trkpt lat="45.701106132054555" lon="9.8591391625849"><ele>258.0</ele><time>2026-04-25T07:02:40Z</time></trkpt><trkpt lat="45.70128444022805" lon="9.859197814993378"><ele>258.0</ele><time>2026-04-25T07:02:41Z</time></trkpt><trkpt lat="45.701466728234934" lon="9.859224546276549"><ele>258.0</ele><time>2026-04-25T07:02:42Z</time></trkpt><trkpt lat="45.701645149658816" lon="9.859220826872152"><ele>258.0</ele><time>2026-04-25T07:02:43Z</time></trkpt><trkpt lat="45.701810854694486" lon="9.859206091580036"><ele>258.0</ele><time>2026-04-25T07:02:44Z</time></trkpt><trkpt lat="45.70196612076528" lon="9.859183918234097"><ele>258.0</ele><time>2026-04-25T07:02:45Z</time></trkpt><trkpt lat="45.702110003998015" lon="9.85916572850262"><ele>258.5</ele><time>2026-04-25T07:02:46Z</time></trkpt><trkpt lat="45.702249595033535" lon="9.859150637518084"><ele>259.0</ele><time>2026-04-25T07:02:47Z</time></trkpt><trkpt lat="45.70237674717322" lon="9.859137433194341"><ele>259.5</ele><time>2026-04-25T07:02:48Z</time></trkpt><trkpt lat="45.70249159275226" lon="9.85911326950592"><ele>260.0</ele><time>2026-04-25T07:02:48.999Z</time></trkpt><trkpt lat="45.702590267646926" lon="9.859062782882646"><ele>260.0</ele><time>2026-04-25T07:02:49.999Z</time></trkpt><trkpt lat="45.70267234120425" lon="9.858988251330645"><ele>260.0</ele><time>2026-04-25T07:02:50.999Z</time></trkpt><trkpt lat="45.70273879568302" lon="9.858902689712833"><ele>260.0</ele><time>2026-04-25T07:02:51.999Z</time></trkpt><trkpt lat="45.70277655539087" lon="9.858822111078885"><ele>260.0</ele><time>2026-04-25T07:02:52.999Z</time></trkpt><trkpt lat="45.70281925076433" lon="9.858744987761368"><ele>260.0</ele><time>2026-04-25T07:02:53.999Z</time></trkpt><trkpt lat="45.70289250957055" lon="9.858679144984848"><ele>260.0</ele><time>2026-04-25T07:02:54.999Z</time></trkpt><trkpt lat="45.702971027887166" lon="9.858598143844366"><ele>260.0</ele><time>2026-04-25T07:02:55.999Z</time></trkpt><trkpt lat="45.703045468184904" lon="9.85850623352894"><ele>260.0</ele><time>2026-04-25T07:02:56.999Z</time></trkpt><trkpt lat="45.70313161182181" lon="9.8584209909847"><ele>260.0</ele><time>2026-04-25T07:02:57.999Z</time></trkpt><trkpt lat="45.7032297420266" lon="9.85835808771413"><ele>260.0</ele><time>2026-04-25T07:02:58.999Z</time></trkpt><trkpt lat="45.7033333586835" lon="9.858366288369455"><ele>260.0</ele><time>2026-04-25T07:02:59.999Z</time></trkpt><trkpt lat="45.70342647138344" lon="9.858372396957696"><ele>260.2</ele><time>2026-04-25T07:03:00.999Z</time></trkpt><trkpt lat="45.703525416526595" lon="9.858389319075624"><ele>260.4</ele><time>2026-04-25T07:03:01.999Z</time></trkpt><trkpt lat="45.70362640729815" lon="9.858398862591713"><ele>260.6</ele><time>2026-04-25T07:03:02.999Z</time></trkpt><trkpt lat="45.703726309609074" lon="9.858431640793935"><ele>260.8</ele><time>2026-04-25T07:03:03.999Z</time></trkpt><trkpt lat="45.703826682739894" lon="9.858465265537836"><ele>261.0</ele><time>2026-04-25T07:03:04.999Z</time></trkpt><trkpt lat="45.70392909289698" lon="9.858497376151938"><ele>261.0</ele><time>2026-04-25T07:03:05.999Z</time></trkpt><trkpt lat="45.70403583168164" lon="9.85853277648551"><ele>261.0</ele><time>2026-04-25T07:03:06.999Z</time></trkpt><trkpt lat="45.704157362904155" lon="9.8585745116509"><ele>261.0</ele><time>2026-04-25T07:03:07.999Z</time></trkpt><trkpt lat="45.70427504921903" lon="9.85861423016346"><ele>261.0</ele><time>2026-04-25T07:03:08.999Z</time></trkpt><trkpt lat="45.70438078918126" lon="9.858653970382019"><ele>261.25</ele><time>2026-04-25T07:03:09.999Z</time></trkpt><trkpt lat="45.70448471363609" lon="9.858693390930265"><ele>261.5</ele><time>2026-04-25T07:03:10.999Z</time></trkpt><trkpt lat="45.704593458111056" lon="9.858734361726523"><ele>261.75</ele><time>2026-04-25T07:03:11.999Z</time></trkpt><trkpt lat="45.70470248327104" lon="9.858777116901445"><ele>262.0</ele><time>2026-04-25T07:03:12.999Z</time></trkpt><trkpt lat="45.704814219360564" lon="9.858827578946608"><ele>262.0</ele><time>2026-04-25T07:03:13.999Z</time></trkpt><trkpt lat="45.704928845761835" lon="9.858897247362837"><ele>262.0</ele><time>2026-04-25T07:03:14.999Z</time></trkpt><trkpt lat="45.705043859162856" lon="9.858990387743214"><ele>262.0</ele><time>2026-04-25T07:03:15.999Z</time></trkpt><trkpt lat="45.705155120013565" lon="9.859106019229559"><ele>262.0</ele><time>2026-04-25T07:03:16.999Z</time></trkpt><trkpt lat="45.70525859869546" lon="9.859244763467927"><ele>262.0</ele><time>2026-04-25T07:03:17.999Z</time></trkpt><trkpt lat="45.70535058476945" lon="9.859402563251749"><ele>262.0</ele><time>2026-04-25T07:03:18.999Z</time></trkpt><trkpt lat="45.705433152155585" lon="9.859573196378399"><ele>262.0</ele><time>2026-04-25T07:03:19.999Z</time></trkpt><trkpt lat="45.705505528753505" lon="9.859750170735785"><ele>262.0</ele><time>2026-04-25T07:03:20.999Z</time></trkpt><trkpt lat="45.705573336008825" lon="9.859927170952924"><ele>262.0</ele><time>2026-04-25T07:03:21.999Z</time></trkpt><trkpt lat="45.705644586271774" lon="9.860107315274456"><ele>262.0</ele><time>2026-04-25T07:03:22.999Z</time></trkpt><trkpt lat="45.70571709161854" lon="9.86029441035695"><ele>262.0</ele><time>2026-04-25T07:03:23.999Z</time></trkpt><trkpt lat="45.70578248737262" lon="9.860498357058802"><ele>262.3333333333333</ele><time>2026-04-25T07:03:24.999Z</time></trkpt><trkpt lat="45.70583745835539" lon="9.860710164533687"><ele>262.6666666666667</ele><time>2026-04-25T07:03:25.999Z</time></trkpt><trkpt lat="45.70588053965818" lon="9.860922353027831"><ele>263.0</ele><time>2026-04-25T07:03:26.999Z</time></trkpt><trkpt lat="45.70591368371447" lon="9.861132667749505"><ele>263.0</ele><time>2026-04-25T07:03:27.999Z</time></trkpt><trkpt lat="45.705937781875605" lon="9.861347329480834"><ele>263.0</ele><time>2026-04-25T07:03:28.999Z</time></trkpt><trkpt lat="45.70595985446534" lon="9.861556282068227"><ele>263.0</ele><time>2026-04-25T07:03:29.999Z</time></trkpt><trkpt lat="45.70598155711789" lon="9.861767158282818"><ele>263.0</ele><time>2026-04-25T07:03:30.999Z</time></trkpt><trkpt lat="45.70600115500154" lon="9.861973618158345"><ele>263.5</ele><time>2026-04-25T07:03:31.999Z</time></trkpt><trkpt lat="45.70602428738578" lon="9.86217490302333"><ele>264.0</ele><time>2026-04-25T07:03:32.999Z</time></trkpt><trkpt lat="45.706045561123666" lon="9.862375834451184"><ele>264.5</ele><time>2026-04-25T07:03:33.999Z</time></trkpt><trkpt lat="45.706066510500015" lon="9.8625697307737"><ele>265.0</ele><time>2026-04-25T07:03:34.999Z</time></trkpt><trkpt lat="45.70608584583885" lon="9.862762802369774"><ele>266.25</ele><time>2026-04-25T07:03:35.999Z</time></trkpt><trkpt lat="45.706105646389744" lon="9.862958139488512"><ele>267.5</ele><time>2026-04-25T07:03:36.999Z</time></trkpt><trkpt lat="45.70612317601782" lon="9.863146356752559"><ele>268.75</ele><time>2026-04-25T07:03:37.999Z</time></trkpt><trkpt lat="45.706144893455885" lon="9.863339621724538"><ele>270.0</ele><time>2026-04-25T07:03:38.999Z</time></trkpt><trkpt lat="45.70616372553966" lon="9.863529203949943"><ele>270.0</ele><time>2026-04-25T07:03:39.999Z</time></trkpt><trkpt lat="45.70618325732833" lon="9.863718688950009"><ele>270.0</ele><time>2026-04-25T07:03:40.999Z</time></trkpt><trkpt lat="45.706204044471754" lon="9.863909765843704"><ele>270.0</ele><time>2026-04-25T07:03:41.999Z</time></trkpt><trkpt lat="45.70622436721397" lon="9.864097323278466"><ele>270.0</ele><time>2026-04-25T07:03:42.999Z</time></trkpt><trkpt lat="45.706245465595565" lon="9.864283658549793"><ele>270.25</ele><time>2026-04-25T07:03:43.999Z</time></trkpt><trkpt lat="45.70626375076471" lon="9.864466223762129"><ele>270.5</ele><time>2026-04-25T07:03:45Z</time></trkpt><trkpt lat="45.706282019673516" lon="9.864648305673422"><ele>270.75</ele><time>2026-04-25T07:03:46Z</time></trkpt><trkpt lat="45.706301512982165" lon="9.864827413491632"><ele>271.0</ele><time>2026-04-25T07:03:47Z</time></trkpt><trkpt lat="45.7063214663924" lon="9.865003026332335"><ele>271.25</ele><time>2026-04-25T07:03:48Z</time></trkpt><trkpt lat="45.70634117248823" lon="9.865181120064621"><ele>271.5</ele><time>2026-04-25T07:03:49Z</time></trkpt><trkpt lat="45.70635992959303" lon="9.86535960417731"><ele>271.75</ele><time>2026-04-25T07:03:50Z</time></trkpt><trkpt lat="45.70637876754887" lon="9.865536319211984"><ele>272.0</ele><time>2026-04-25T07:03:51Z</time></trkpt><trkpt lat="45.70639744855746" lon="9.865715106976555"><ele>272.0</ele><time>2026-04-25T07:03:52Z</time></trkpt><trkpt lat="45.70641651362347" lon="9.865894382359842"><ele>272.0</ele><time>2026-04-25T07:03:53Z</time></trkpt><trkpt lat="45.70643969375498" lon="9.866071403059175"><ele>272.0</ele><time>2026-04-25T07:03:54Z</time></trkpt><trkpt lat="45.70646830702719" lon="9.866248639038398"><ele>272.0</ele><time>2026-04-25T07:03:55Z</time></trkpt><trkpt lat="45.7065023273978" lon="9.866425622085753"><ele>271.5</ele><time>2026-04-25T07:03:56Z</time></trkpt><trkpt lat="45.706533601037826" lon="9.866606118806914"><ele>271.0</ele><time>2026-04-25T07:03:57Z</time></trkpt><trkpt lat="45.706567405563646" lon="9.866787153532316"><ele>270.5</ele><time>2026-04-25T07:03:58Z</time></trkpt><trkpt lat="45.706603837179124" lon="9.866972643629945"><ele>270.0</ele><time>2026-04-25T07:03:59Z</time></trkpt><trkpt lat="45.70663783091824" lon="9.867159813432453"><ele>270.0</ele><time>2026-04-25T07:04:00Z</time></trkpt><trkpt lat="45.70667462909926" lon="9.867347243204051"><ele>270.0</ele><time>2026-04-25T07:04:01Z</time></trkpt><trkpt lat="45.7067105849759" lon="9.867536842166807"><ele>270.0</ele><time>2026-04-25T07:04:02Z</time></trkpt><trkpt lat="45.70674738490075" lon="9.867728279739895"><ele>270.0</ele><time>2026-04-25T07:04:03Z</time></trkpt><trkpt lat="45.70678491060942" lon="9.86791974121472"><ele>270.0</ele><time>2026-04-25T07:04:04Z</time></trkpt><trkpt lat="45.70682480155897" lon="9.868114806964487"><ele>270.0</ele><time>2026-04-25T07:04:05Z</time></trkpt><trkpt lat="45.706863848961554" lon="9.868307008229417"><ele>270.0</ele><time>2026-04-25T07:04:06Z</time></trkpt><trkpt lat="45.70690401087192" lon="9.868499926124406"><ele>270.0</ele><time>2026-04-25T07:04:07Z</time></trkpt><trkpt lat="45.70694553417918" lon="9.868694242686127"><ele>270.75</ele><time>2026-04-25T07:04:08Z</time></trkpt><trkpt lat="45.70698435654064" lon="9.868888352464504"><ele>271.5</ele><time>2026-04-25T07:04:09Z</time></trkpt><trkpt lat="45.707019970784145" lon="9.869080017380371"><ele>272.25</ele><time>2026-04-25T07:04:10Z</time></trkpt><trkpt lat="45.70705849998802" lon="9.869267846855482"><ele>273.0</ele><time>2026-04-25T07:04:11Z</time></trkpt><trkpt lat="45.707095908812256" lon="9.869447309914392"><ele>273.0</ele><time>2026-04-25T07:04:12Z</time></trkpt><trkpt lat="45.70713445288501" lon="9.869621650277324"><ele>273.0</ele><time>2026-04-25T07:04:13Z</time></trkpt><trkpt lat="45.707174967912785" lon="9.869793657616938"><ele>273.0</ele><time>2026-04-25T07:04:14Z</time></trkpt><trkpt lat="45.707220182131415" lon="9.869962138853737"><ele>273.0</ele><time>2026-04-25T07:04:15Z</time></trkpt><trkpt lat="45.70726905144626" lon="9.870127737648206"><ele>273.25</ele><time>2026-04-25T07:04:16Z</time></trkpt><trkpt lat="45.707326649309934" lon="9.870284756892454"><ele>273.5</ele><time>2026-04-25T07:04:17Z</time></trkpt><trkpt lat="45.70738443982919" lon="9.87044747385079"><ele>273.75</ele><time>2026-04-25T07:04:18Z</time></trkpt><trkpt lat="45.707450424415256" lon="9.870606093547567"><ele>274.0</ele><time>2026-04-25T07:04:19Z</time></trkpt><trkpt lat="45.70752015511282" lon="9.870761199774634"><ele>274.0</ele><time>2026-04-25T07:04:20Z</time></trkpt><trkpt lat="45.70759245226691" lon="9.870910769734644"><ele>274.0</ele><time>2026-04-25T07:04:21Z</time></trkpt><trkpt lat="45.707670417108844" lon="9.871057405861094"><ele>274.0</ele><time>2026-04-25T07:04:22Z</time></trkpt><trkpt lat="45.70775567491424" lon="9.87120289341772"><ele>274.0</ele><time>2026-04-25T07:04:23Z</time></trkpt><trkpt lat="45.70784424368258" lon="9.871347083658613"><ele>274.0</ele><time>2026-04-25T07:04:24Z</time></trkpt><trkpt lat="45.707937630059476" lon="9.87148762884826"><ele>274.0</ele><time>2026-04-25T07:04:25Z</time></trkpt><trkpt lat="45.70803538711124" lon="9.871624219353485"><ele>274.0</ele><time>2026-04-25T07:04:26Z</time></trkpt><trkpt lat="45.70813309901581" lon="9.871755276866141"><ele>274.0</ele><time>2026-04-25T07:04:27Z</time></trkpt><trkpt lat="45.70823306147293" lon="9.871884484381086"><ele>274.0</ele><time>2026-04-25T07:04:28Z</time></trkpt><trkpt lat="45.70833462106379" lon="9.872013109579752"><ele>274.0</ele><time>2026-04-25T07:04:29Z</time></trkpt><trkpt lat="45.70843492088744" lon="9.872144027661244"><ele>274.0</ele><time>2026-04-25T07:04:30Z</time></trkpt><trkpt lat="45.708531897228006" lon="9.872272666657585"><ele>274.0</ele><time>2026-04-25T07:04:31Z</time></trkpt><trkpt lat="45.708628309549155" lon="9.872402044100685"><ele>274.25</ele><time>2026-04-25T07:04:32Z</time></trkpt><trkpt lat="45.70872043102361" lon="9.872534523700695"><ele>274.5</ele><time>2026-04-25T07:04:33Z</time></trkpt><trkpt lat="45.70880432215885" lon="9.872672663849507"><ele>274.75</ele><time>2026-04-25T07:04:34Z</time></trkpt><trkpt lat="45.7088835984249" lon="9.872816790634682"><ele>275.0</ele><time>2026-04-25T07:04:35Z</time></trkpt><trkpt lat="45.70896327704106" lon="9.872957537616726"><ele>275.0</ele><time>2026-04-25T07:04:36Z</time></trkpt><trkpt lat="45.709044981889846" lon="9.873100113542234"><ele>275.0</ele><time>2026-04-25T07:04:37Z</time></trkpt><trkpt lat="45.70912828865619" lon="9.873244249665655"><ele>275.0</ele><time>2026-04-25T07:04:38Z</time></trkpt><trkpt lat="45.709210839439564" lon="9.873388734174688"><ele>275.0</ele><time>2026-04-25T07:04:39Z</time></trkpt><trkpt lat="45.70929258795775" lon="9.873535636437712"><ele>274.75</ele><time>2026-04-25T07:04:40Z</time></trkpt><trkpt lat="45.709373856017756" lon="9.873683375442138"><ele>274.5</ele><time>2026-04-25T07:04:41Z</time></trkpt><trkpt lat="45.709457241131155" lon="9.87383132663698"><ele>274.25</ele><time>2026-04-25T07:04:42Z</time></trkpt><trkpt lat="45.7095400736243" lon="9.873979141337443"><ele>274.0</ele><time>2026-04-25T07:04:43Z</time></trkpt><trkpt lat="45.70962341132969" lon="9.874127971130738"><ele>274.25</ele><time>2026-04-25T07:04:44Z</time></trkpt><trkpt lat="45.70970616554958" lon="9.874279793826037"><ele>274.5</ele><time>2026-04-25T07:04:45Z</time></trkpt><trkpt lat="45.70979029576985" lon="9.874435449754678"><ele>274.75</ele><time>2026-04-25T07:04:46Z</time></trkpt><trkpt lat="45.70987666372128" lon="9.874593464746507"><ele>275.0</ele><time>2026-04-25T07:04:47Z</time></trkpt><trkpt lat="45.70996613495167" lon="9.874752067165025"><ele>275.0</ele><time>2026-04-25T07:04:48Z</time></trkpt><trkpt lat="45.71005702350786" lon="9.874908167950146"><ele>275.0</ele><time>2026-04-25T07:04:49Z</time></trkpt><trkpt lat="45.71014924192381" lon="9.875063407171554"><ele>275.0</ele><time>2026-04-25T07:04:50Z</time></trkpt><trkpt lat="45.710245571809004" lon="9.87521983919411"><ele>275.0</ele><time>2026-04-25T07:04:51Z</time></trkpt><trkpt lat="45.710344336772884" lon="9.875369761555344"><ele>275.25</ele><time>2026-04-25T07:04:51.999Z</time></trkpt><trkpt lat="45.710447448759204" lon="9.875517933906604"><ele>275.5</ele><time>2026-04-25T07:04:52.999Z</time></trkpt><trkpt lat="45.71055182294995" lon="9.87565909388467"><ele>275.75</ele><time>2026-04-25T07:04:53.999Z</time></trkpt><trkpt lat="45.71065535241815" lon="9.875795144731311"><ele>276.0</ele><time>2026-04-25T07:04:54.999Z</time></trkpt><trkpt lat="45.71075475986098" lon="9.875922138921586"><ele>275.75</ele><time>2026-04-25T07:04:55.999Z</time></trkpt><trkpt lat="45.71084824286954" lon="9.876040618893295"><ele>275.5</ele><time>2026-04-25T07:04:56.999Z</time></trkpt><trkpt lat="45.71093818078329" lon="9.876149838565562"><ele>275.25</ele><time>2026-04-25T07:04:57.999Z</time></trkpt><trkpt lat="45.711027056670005" lon="9.876259365084099"><ele>275.0</ele><time>2026-04-25T07:04:58.999Z</time></trkpt><trkpt lat="45.71111421630074" lon="9.876368698366118"><ele>275.0</ele><time>2026-04-25T07:04:59.999Z</time></trkpt><trkpt lat="45.71120016205268" lon="9.876477355939752"><ele>275.0</ele><time>2026-04-25T07:05:00.999Z</time></trkpt><trkpt lat="45.71128487883598" lon="9.876589400373105"><ele>275.0</ele><time>2026-04-25T07:05:01.999Z</time></trkpt><trkpt lat="45.71136678038455" lon="9.87670769596126"><ele>275.0</ele><time>2026-04-25T07:05:02.999Z</time></trkpt><trkpt lat="45.71144534818414" lon="9.876831953391305"><ele>275.0</ele><time>2026-04-25T07:05:03.999Z</time></trkpt><trkpt lat="45.7115191679152" lon="9.876951151502654"><ele>275.0</ele><time>2026-04-25T07:05:04.999Z</time></trkpt><trkpt lat="45.71158441015819" lon="9.87705735300206"><ele>275.0</ele><time>2026-04-25T07:05:05.999Z</time></trkpt><trkpt lat="45.71164598540788" lon="9.877152699337007"><ele>275.0</ele><time>2026-04-25T07:05:06.999Z</time></trkpt><trkpt lat="45.71170704462464" lon="9.877249629358644"><ele>275.0</ele><time>2026-04-25T07:05:07.999Z</time></trkpt><trkpt lat="45.71176608388907" lon="9.877348010872678"><ele>275.0</ele><time>2026-04-25T07:05:08.999Z</time></trkpt><trkpt lat="45.711823479287446" lon="9.877448381620876"><ele>275.0</ele><time>2026-04-25T07:05:09.999Z</time></trkpt><trkpt lat="45.71188088859291" lon="9.877549358683062"><ele>275.0</ele><time>2026-04-25T07:05:10.999Z</time></trkpt><trkpt lat="45.711938359234225" lon="9.877652900231418"><ele>275.0</ele><time>2026-04-25T07:05:11.999Z</time></trkpt><trkpt lat="45.71198671249135" lon="9.877766951359204"><ele>275.0</ele><time>2026-04-25T07:05:12.999Z</time></trkpt><trkpt lat="45.712041854225305" lon="9.877879513201714"><ele>276.0</ele><time>2026-04-25T07:05:13.999Z</time></trkpt><trkpt lat="45.712105209989545" lon="9.877989022600465"><ele>277.0</ele><time>2026-04-25T07:05:14.999Z</time></trkpt><trkpt lat="45.71216860838347" lon="9.87810026203428"><ele>278.0</ele><time>2026-04-25T07:05:15.999Z</time></trkpt><trkpt lat="45.71223054293167" lon="9.878218667609453"><ele>279.0</ele><time>2026-04-25T07:05:16.999Z</time></trkpt><trkpt lat="45.71229498929009" lon="9.878338629381355"><ele>280.0</ele><time>2026-04-25T07:05:17.999Z</time></trkpt><trkpt lat="45.712358864205456" lon="9.878453098602018"><ele>280.0</ele><time>2026-04-25T07:05:18.999Z</time></trkpt><trkpt lat="45.71242221046876" lon="9.878566224187372"><ele>280.0</ele><time>2026-04-25T07:05:19.999Z</time></trkpt><trkpt lat="45.712484495540366" lon="9.87868123946101"><ele>280.0</ele><time>2026-04-25T07:05:20.999Z</time></trkpt><trkpt lat="45.71254755103699" lon="9.878798725963241"><ele>280.0</ele><time>2026-04-25T07:05:21.999Z</time></trkpt><trkpt lat="45.712612129016954" lon="9.878914930385339"><ele>280.0</ele><time>2026-04-25T07:05:22.999Z</time></trkpt><trkpt lat="45.71267761441017" lon="9.879035379617376"><ele>280.4</ele><time>2026-04-25T07:05:23.999Z</time></trkpt><trkpt lat="45.71274256440168" lon="9.879155117165906"><ele>280.8</ele><time>2026-04-25T07:05:24.999Z</time></trkpt><trkpt lat="45.71280750595458" lon="9.87927186043816"><ele>281.2</ele><time>2026-04-25T07:05:25.999Z</time></trkpt><trkpt lat="45.71287097891206" lon="9.879388103673602"><ele>281.6</ele><time>2026-04-25T07:05:26.999Z</time></trkpt><trkpt lat="45.712932269226435" lon="9.879502610151096"><ele>282.0</ele><time>2026-04-25T07:05:27.999Z</time></trkpt><trkpt lat="45.71298890014456" lon="9.879603446937788"><ele>282.0</ele><time>2026-04-25T07:05:28.999Z</time></trkpt><trkpt lat="45.713040447103545" lon="9.879695686256358"><ele>282.0</ele><time>2026-04-25T07:05:29.999Z</time></trkpt><trkpt lat="45.71308678445515" lon="9.879779021758702"><ele>282.0</ele><time>2026-04-25T07:05:30.999Z</time></trkpt><trkpt lat="45.71312828104178" lon="9.879851601222912"><ele>282.0</ele><time>2026-04-25T07:05:31.999Z</time></trkpt><trkpt lat="45.713207867745155" lon="9.879992448343375"><ele>282.0</ele><time>2026-04-25T07:05:33.999Z</time></trkpt><trkpt lat="45.713252468332406" lon="9.880068816211866"><ele>282.0</ele><time>2026-04-25T07:05:34.999Z</time></trkpt><trkpt lat="45.713299381604834" lon="9.88014853854133"><ele>282.0</ele><time>2026-04-25T07:05:35.999Z</time></trkpt><trkpt lat="45.713345590811954" lon="9.880232974523745"><ele>282.0</ele><time>2026-04-25T07:05:36.999Z</time></trkpt><trkpt lat="45.713391773557326" lon="9.880320780687198"><ele>282.0</ele><time>2026-04-25T07:05:37.999Z</time></trkpt><trkpt lat="45.71343866087238" lon="9.880412570503927"><ele>282.0</ele><time>2026-04-25T07:05:38.999Z</time></trkpt><trkpt lat="45.7134880912542" lon="9.880508307379639"><ele>282.0</ele><time>2026-04-25T07:05:39.999Z</time></trkpt><trkpt lat="45.71354020226027" lon="9.88060492553514"><ele>282.0</ele><time>2026-04-25T07:05:40.999Z</time></trkpt><trkpt lat="45.71359389575578" lon="9.880704139875439"><ele>282.0</ele><time>2026-04-25T07:05:41.999Z</time></trkpt><trkpt lat="45.71364776683125" lon="9.88080486340879"><ele>282.0</ele><time>2026-04-25T07:05:42.999Z</time></trkpt><trkpt lat="45.713702827105706" lon="9.88090449360573"><ele>282.0</ele><time>2026-04-25T07:05:43.999Z</time></trkpt><trkpt lat="45.71375827735296" lon="9.881004829077987"><ele>282.0</ele><time>2026-04-25T07:05:44.999Z</time></trkpt><trkpt lat="45.71381425641134" lon="9.881106991952603"><ele>282.0</ele><time>2026-04-25T07:05:45.999Z</time></trkpt><trkpt lat="45.71387104721011" lon="9.88120850784251"><ele>282.0</ele><time>2026-04-25T07:05:46.999Z</time></trkpt><trkpt lat="45.71392940043437" lon="9.881308666223704"><ele>282.0</ele><time>2026-04-25T07:05:47.999Z</time></trkpt><trkpt lat="45.71398932065525" lon="9.881411027118114"><ele>282.0</ele><time>2026-04-25T07:05:48.999Z</time></trkpt><trkpt lat="45.71405134327668" lon="9.881515963444837"><ele>282.0</ele><time>2026-04-25T07:05:49.999Z</time></trkpt><trkpt lat="45.71411616509173" lon="9.881624848311352"><ele>282.0</ele><time>2026-04-25T07:05:51Z</time></trkpt><trkpt lat="45.714182831776114" lon="9.881732725479699"><ele>282.0</ele><time>2026-04-25T07:05:52Z</time></trkpt><trkpt lat="45.71425115513911" lon="9.881845862675734"><ele>281.8</ele><time>2026-04-25T07:05:53Z</time></trkpt><trkpt lat="45.71432249193926" lon="9.881961880129436"><ele>281.6</ele><time>2026-04-25T07:05:54Z</time></trkpt><trkpt lat="45.71439210589493" lon="9.882070619805068"><ele>281.40000000000003</ele><time>2026-04-25T07:05:55Z</time></trkpt><trkpt lat="45.71446199771558" lon="9.882180923749857"><ele>281.2</ele><time>2026-04-25T07:05:56Z</time></trkpt><trkpt lat="45.714532801868934" lon="9.882292628549365"><ele>281.0</ele><time>2026-04-25T07:05:57Z</time></trkpt><trkpt lat="45.71460547325507" lon="9.88240791703535"><ele>281.2</ele><time>2026-04-25T07:05:58Z</time></trkpt><trkpt lat="45.71467888872744" lon="9.882525790080502"><ele>281.40000000000003</ele><time>2026-04-25T07:05:59Z</time></trkpt><trkpt lat="45.71475423666999" lon="9.882643476142915"><ele>281.6</ele><time>2026-04-25T07:06:00Z</time></trkpt><trkpt lat="45.714827207697844" lon="9.882753292729056"><ele>281.8</ele><time>2026-04-25T07:06:01Z</time></trkpt><trkpt lat="45.714894909658156" lon="9.882856444014559"><ele>282.0</ele><time>2026-04-25T07:06:02Z</time></trkpt><trkpt lat="45.71496313334735" lon="9.88295779529624"><ele>282.0</ele><time>2026-04-25T07:06:03Z</time></trkpt><trkpt lat="45.71503248980037" lon="9.88306551081706"><ele>282.0</ele><time>2026-04-25T07:06:04Z</time></trkpt><trkpt lat="45.715098547060634" lon="9.883170776801732"><ele>282.0</ele><time>2026-04-25T07:06:05Z</time></trkpt><trkpt lat="45.71515814717915" lon="9.883271313132001"><ele>282.0</ele><time>2026-04-25T07:06:06Z</time></trkpt><trkpt lat="45.715212575262726" lon="9.883367683310691"><ele>282.0</ele><time>2026-04-25T07:06:07Z</time></trkpt><trkpt lat="45.715265285514576" lon="9.883462155870921"><ele>282.8333333333333</ele><time>2026-04-25T07:06:08Z</time></trkpt><trkpt lat="45.7153173991214" lon="9.883552571335454"><ele>283.6666666666667</ele><time>2026-04-25T07:06:09Z</time></trkpt><trkpt lat="45.71537016042699" lon="9.8836394296244"><ele>284.5</ele><time>2026-04-25T07:06:10Z</time></trkpt><trkpt lat="45.71542635955509" lon="9.88372534646902"><ele>285.33333333333337</ele><time>2026-04-25T07:06:11Z</time></trkpt><trkpt lat="45.71548308918073" lon="9.883810809049015"><ele>286.1666666666667</ele><time>2026-04-25T07:06:12Z</time></trkpt><trkpt lat="45.71554227961938" lon="9.883903297912653"><ele>287.0</ele><time>2026-04-25T07:06:13Z</time></trkpt><trkpt lat="45.71560047819461" lon="9.88399984267761"><ele>287.0</ele><time>2026-04-25T07:06:14Z</time></trkpt><trkpt lat="45.71565916014169" lon="9.884100544504943"><ele>287.0</ele><time>2026-04-25T07:06:15Z</time></trkpt><trkpt lat="45.715720108073604" lon="9.884205201060196"><ele>287.0</ele><time>2026-04-25T07:06:16Z</time></trkpt><trkpt lat="45.7157793255127" lon="9.884304443909036"><ele>287.0</ele><time>2026-04-25T07:06:17Z</time></trkpt><trkpt lat="45.715836212048224" lon="9.884394424361055"><ele>287.0</ele><time>2026-04-25T07:06:18Z</time></trkpt><trkpt lat="45.71589069172198" lon="9.884478464164664"><ele>287.0</ele><time>2026-04-25T07:06:19Z</time></trkpt><trkpt lat="45.715945745798614" lon="9.884563602908823"><ele>286.8</ele><time>2026-04-25T07:06:20Z</time></trkpt><trkpt lat="45.71600573036911" lon="9.884654316763886"><ele>286.6</ele><time>2026-04-25T07:06:21Z</time></trkpt><trkpt lat="45.716069033313495" lon="9.88475245177863"><ele>286.40000000000003</ele><time>2026-04-25T07:06:22Z</time></trkpt><trkpt lat="45.71613579747275" lon="9.8848589147051"><ele>286.2</ele><time>2026-04-25T07:06:23Z</time></trkpt><trkpt lat="45.71620692532762" lon="9.884970144209257"><ele>286.0</ele><time>2026-04-25T07:06:24Z</time></trkpt><trkpt lat="45.716277523379254" lon="9.885084654881224"><ele>286.6</ele><time>2026-04-25T07:06:25Z</time></trkpt><trkpt lat="45.7163392531691" lon="9.885189853167857"><ele>287.20000000000005</ele><time>2026-04-25T07:06:26Z</time></trkpt><trkpt lat="45.716395735023724" lon="9.885287876559524"><ele>287.79999999999995</ele><time>2026-04-25T07:06:27Z</time></trkpt><trkpt lat="45.71645548397772" lon="9.885386622658872"><ele>288.4</ele><time>2026-04-25T07:06:28Z</time></trkpt><trkpt lat="45.716517145294276" lon="9.885484081481295"><ele>289.0</ele><time>2026-04-25T07:06:29Z</time></trkpt><trkpt lat="45.71658174324295" lon="9.885588050399027"><ele>289.0</ele><time>2026-04-25T07:06:30Z</time></trkpt><trkpt lat="45.716649031115374" lon="9.885698044784622"><ele>289.0</ele><time>2026-04-25T07:06:31Z</time></trkpt><trkpt lat="45.716716165883604" lon="9.885813859516643"><ele>289.0</ele><time>2026-04-25T07:06:32Z</time></trkpt><trkpt lat="45.71678555971429" lon="9.885929940186424"><ele>289.0</ele><time>2026-04-25T07:06:33Z</time></trkpt><trkpt lat="45.71685559921016" lon="9.886045150133011"><ele>289.0</ele><time>2026-04-25T07:06:34Z</time></trkpt><trkpt lat="45.71692427752365" lon="9.88615660559707"><ele>289.59999999999997</ele><time>2026-04-25T07:06:35Z</time></trkpt><trkpt lat="45.71699253384976" lon="9.886266642425019"><ele>290.2</ele><time>2026-04-25T07:06:36Z</time></trkpt><trkpt lat="45.71706215705456" lon="9.886372056031158"><ele>290.79999999999995</ele><time>2026-04-25T07:06:37Z</time></trkpt><trkpt lat="45.717130623912254" lon="9.886477003000921"><ele>291.4</ele><time>2026-04-25T07:06:38Z</time></trkpt><trkpt lat="45.717198382633576" lon="9.886587489420059"><ele>292.0</ele><time>2026-04-25T07:06:39Z</time></trkpt><trkpt lat="45.71726646167721" lon="9.886698433601937"><ele>291.4</ele><time>2026-04-25T07:06:40Z</time></trkpt><trkpt lat="45.71733508166831" lon="9.886807647504464"><ele>290.79999999999995</ele><time>2026-04-25T07:06:41Z</time></trkpt><trkpt lat="45.71740352400854" lon="9.88691889287549"><ele>290.2</ele><time>2026-04-25T07:06:42Z</time></trkpt><trkpt lat="45.71747224938946" lon="9.8870332287094"><ele>289.59999999999997</ele><time>2026-04-25T07:06:43Z</time></trkpt><trkpt lat="45.71754365611035" lon="9.887149784481307"><ele>289.0</ele><time>2026-04-25T07:06:44Z</time></trkpt><trkpt lat="45.71761816906866" lon="9.887270042903195"><ele>289.0</ele><time>2026-04-25T07:06:45Z</time></trkpt><trkpt lat="45.717695448824514" lon="9.887394747949422"><ele>289.0</ele><time>2026-04-25T07:06:46Z</time></trkpt><trkpt lat="45.71777306706456" lon="9.887517181977614"><ele>289.0</ele><time>2026-04-25T07:06:47Z</time></trkpt><trkpt lat="45.71784992547231" lon="9.887637495063151"><ele>289.0</ele><time>2026-04-25T07:06:48Z</time></trkpt><trkpt lat="45.71792559375501" lon="9.887756707694153"><ele>289.59999999999997</ele><time>2026-04-25T07:06:49Z</time></trkpt><trkpt lat="45.71800212258851" lon="9.887875294727184"><ele>290.2</ele><time>2026-04-25T07:06:50Z</time></trkpt><trkpt lat="45.71807843433159" lon="9.887991580959731"><ele>290.79999999999995</ele><time>2026-04-25T07:06:51Z</time></trkpt><trkpt lat="45.71815328466472" lon="9.888106755266408"><ele>291.4</ele><time>2026-04-25T07:06:52Z</time></trkpt><trkpt lat="45.71822733502155" lon="9.888221807561234"><ele>292.0</ele><time>2026-04-25T07:06:52.999Z</time></trkpt><trkpt lat="45.71830155462327" lon="9.888334780572835"><ele>291.4</ele><time>2026-04-25T07:06:53.999Z</time></trkpt><trkpt lat="45.71837619585349" lon="9.888442878999898"><ele>290.79999999999995</ele><time>2026-04-25T07:06:54.999Z</time></trkpt><trkpt lat="45.71844683021684" lon="9.888539459692844"><ele>290.2</ele><time>2026-04-25T07:06:55.999Z</time></trkpt><trkpt lat="45.718511246339084" lon="9.888631709400858"><ele>289.59999999999997</ele><time>2026-04-25T07:06:56.999Z</time></trkpt><trkpt lat="45.718569991588694" lon="9.888717099950583"><ele>289.0</ele><time>2026-04-25T07:06:57.999Z</time></trkpt><trkpt lat="45.7186263947191" lon="9.888798833738333"><ele>289.42857142857144</ele><time>2026-04-25T07:06:58.999Z</time></trkpt><trkpt lat="45.7186802443258" lon="9.888880975422836"><ele>289.85714285714283</ele><time>2026-04-25T07:06:59.999Z</time></trkpt><trkpt lat="45.71871557626431" lon="9.888975282056261"><ele>290.2857142857143</ele><time>2026-04-25T07:07:00.999Z</time></trkpt><trkpt lat="45.71873496620457" lon="9.889074033158519"><ele>290.7142857142857</ele><time>2026-04-25T07:07:01.999Z</time></trkpt><trkpt lat="45.718739536201355" lon="9.889172286080452"><ele>291.14285714285717</ele><time>2026-04-25T07:07:02.999Z</time></trkpt><trkpt lat="45.7187397843874" lon="9.889270779815217"><ele>291.57142857142856</ele><time>2026-04-25T07:07:03.999Z</time></trkpt><trkpt lat="45.718739553366476" lon="9.889377016081971"><ele>292.0</ele><time>2026-04-25T07:07:04.999Z</time></trkpt><trkpt lat="45.718756295596336" lon="9.889488045007825"><ele>292.0</ele><time>2026-04-25T07:07:05.999Z</time></trkpt><trkpt lat="45.71879915311785" lon="9.889589302811531"><ele>292.0</ele><time>2026-04-25T07:07:06.999Z</time></trkpt><trkpt lat="45.718877307726245" lon="9.889635309727076"><ele>292.0</ele><time>2026-04-25T07:07:07.999Z</time></trkpt><trkpt lat="45.718962360866556" lon="9.889627490261981"><ele>292.0</ele><time>2026-04-25T07:07:08.999Z</time></trkpt><trkpt lat="45.719050731360596" lon="9.889609726077229"><ele>292.0</ele><time>2026-04-25T07:07:09.999Z</time></trkpt><trkpt lat="45.71914159209533" lon="9.889619145740804"><ele>292.0</ele><time>2026-04-25T07:07:10.999Z</time></trkpt><trkpt lat="45.719231115986645" lon="9.889683692847942"><ele>292.0</ele><time>2026-04-25T07:07:11.999Z</time></trkpt><trkpt lat="45.71931297925388" lon="9.889790437472575"><ele>292.0</ele><time>2026-04-25T07:07:12.999Z</time></trkpt><trkpt lat="45.719390889278486" lon="9.889917690110677"><ele>292.0</ele><time>2026-04-25T07:07:13.999Z</time></trkpt><trkpt lat="45.71947400847398" lon="9.890049577823815"><ele>292.0</ele><time>2026-04-25T07:07:14.999Z</time></trkpt><trkpt lat="45.71956217361112" lon="9.890176554425185"><ele>293.0</ele><time>2026-04-25T07:07:15.999Z</time></trkpt><trkpt lat="45.71964924203603" lon="9.89030603759683"><ele>294.0</ele><time>2026-04-25T07:07:16.999Z</time></trkpt><trkpt lat="45.71972871848897" lon="9.890432455586168"><ele>295.0</ele><time>2026-04-25T07:07:17.999Z</time></trkpt><trkpt lat="45.719798524510885" lon="9.890553546927928"><ele>296.0</ele><time>2026-04-25T07:07:18.999Z</time></trkpt><trkpt lat="45.71986182383573" lon="9.890663465659932"><ele>296.0</ele><time>2026-04-25T07:07:19.999Z</time></trkpt><trkpt lat="45.719915830884446" lon="9.890764859983365"><ele>296.0</ele><time>2026-04-25T07:07:20.999Z</time></trkpt><trkpt lat="45.719963567157116" lon="9.890859301035404"><ele>296.0</ele><time>2026-04-25T07:07:21.999Z</time></trkpt><trkpt lat="45.719988829667585" lon="9.890962107995021"><ele>296.0</ele><time>2026-04-25T07:07:22.999Z</time></trkpt><trkpt lat="45.72002513145798" lon="9.891050948585745"><ele>296.0</ele><time>2026-04-25T07:07:23.999Z</time></trkpt><trkpt lat="45.7200585898443" lon="9.891140441245378"><ele>296.0</ele><time>2026-04-25T07:07:24.999Z</time></trkpt><trkpt lat="45.72008875850955" lon="9.891228773899051"><ele>295.5</ele><time>2026-04-25T07:07:25.999Z</time></trkpt><trkpt lat="45.72012049218629" lon="9.891322988646618"><ele>295.0</ele><time>2026-04-25T07:07:26.999Z</time></trkpt><trkpt lat="45.72015142626055" lon="9.891426617998214"><ele>294.5</ele><time>2026-04-25T07:07:27.999Z</time></trkpt><trkpt lat="45.72019704981432" lon="9.891527026736647"><ele>294.0</ele><time>2026-04-25T07:07:28.999Z</time></trkpt><trkpt lat="45.720224985926855" lon="9.891641193706912"><ele>293.5</ele><time>2026-04-25T07:07:29.999Z</time></trkpt><trkpt lat="45.72025468819795" lon="9.891760147044273"><ele>293.0</ele><time>2026-04-25T07:07:30.999Z</time></trkpt><trkpt lat="45.72028721149688" lon="9.89188219719483"><ele>295.2</ele><time>2026-04-25T07:07:31.999Z</time></trkpt><trkpt lat="45.72032172831959" lon="9.892006212996584"><ele>297.4</ele><time>2026-04-25T07:07:32.999Z</time></trkpt><trkpt lat="45.720357254759726" lon="9.89213720760367"><ele>299.59999999999997</ele><time>2026-04-25T07:07:33.999Z</time></trkpt><trkpt lat="45.72039072145777" lon="9.892270183033427"><ele>301.8</ele><time>2026-04-25T07:07:34.999Z</time></trkpt><trkpt lat="45.720428663234685" lon="9.892400188840192"><ele>304.0</ele><time>2026-04-25T07:07:35.999Z</time></trkpt><trkpt lat="45.72046729503545" lon="9.892525660057846"><ele>303.4</ele><time>2026-04-25T07:07:36.999Z</time></trkpt><trkpt lat="45.72050555129316" lon="9.892653539323124"><ele>302.79999999999995</ele><time>2026-04-25T07:07:37.999Z</time></trkpt><trkpt lat="45.72054448768543" lon="9.892788765672424"><ele>302.20000000000005</ele><time>2026-04-25T07:07:38.999Z</time></trkpt><trkpt lat="45.72057086976528" lon="9.892942575112253"><ele>301.6</ele><time>2026-04-25T07:07:39.999Z</time></trkpt><trkpt lat="45.72061292842811" lon="9.893096051322365"><ele>301.0</ele><time>2026-04-25T07:07:40.999Z</time></trkpt><trkpt lat="45.72067278495221" lon="9.893245468013397"><ele>301.0</ele><time>2026-04-25T07:07:41.999Z</time></trkpt><trkpt lat="45.72071301679458" lon="9.893402773075112"><ele>301.0</ele><time>2026-04-25T07:07:42.999Z</time></trkpt><trkpt lat="45.72076025120916" lon="9.893550819122535"><ele>301.0</ele><time>2026-04-25T07:07:43.999Z</time></trkpt><trkpt lat="45.720808907158606" lon="9.893689454424164"><ele>301.0</ele><time>2026-04-25T07:07:44.999Z</time></trkpt><trkpt lat="45.72085383521733" lon="9.893813393282802"><ele>301.0</ele><time>2026-04-25T07:07:45.999Z</time></trkpt><trkpt lat="45.720894799971774" lon="9.893928884921769"><ele>301.0</ele><time>2026-04-25T07:07:46.999Z</time></trkpt><trkpt lat="45.72093715768996" lon="9.89405131921692"><ele>301.0</ele><time>2026-04-25T07:07:47.999Z</time></trkpt><trkpt lat="45.720978311040945" lon="9.894176557910479"><ele>301.0</ele><time>2026-04-25T07:07:48.999Z</time></trkpt><trkpt lat="45.721015775570095" lon="9.894308331252251"><ele>301.0</ele><time>2026-04-25T07:07:49.999Z</time></trkpt><trkpt lat="45.721050803347644" lon="9.894444944471593"><ele>301.0</ele><time>2026-04-25T07:07:50.999Z</time></trkpt><trkpt lat="45.72108411962293" lon="9.894589549724497"><ele>301.0</ele><time>2026-04-25T07:07:51.999Z</time></trkpt><trkpt lat="45.72111347621602" lon="9.894738524095208"><ele>301.0</ele><time>2026-04-25T07:07:52.999Z</time></trkpt><trkpt lat="45.721138741522594" lon="9.894893310264772"><ele>301.0</ele><time>2026-04-25T07:07:53.999Z</time></trkpt><trkpt lat="45.72116084841951" lon="9.89505439692228"><ele>301.0</ele><time>2026-04-25T07:07:54.999Z</time></trkpt><trkpt lat="45.721181714405766" lon="9.895221162764596"><ele>301.25</ele><time>2026-04-25T07:07:55.999Z</time></trkpt><trkpt lat="45.72120319614647" lon="9.895384066907388"><ele>301.5</ele><time>2026-04-25T07:07:57Z</time></trkpt><trkpt lat="45.72122556695289" lon="9.895548870317697"><ele>301.75</ele><time>2026-04-25T07:07:58Z</time></trkpt><trkpt lat="45.721246665707234" lon="9.895715740782954"><ele>302.0</ele><time>2026-04-25T07:07:59Z</time></trkpt><trkpt lat="45.721269366159724" lon="9.895884369539786"><ele>302.0</ele><time>2026-04-25T07:08:00Z</time></trkpt><trkpt lat="45.721295349281974" lon="9.896054985812317"><ele>302.0</ele><time>2026-04-25T07:08:01Z</time></trkpt><trkpt lat="45.72132533619759" lon="9.89622877188986"><ele>302.0</ele><time>2026-04-25T07:08:02Z</time></trkpt><trkpt lat="45.72136212543055" lon="9.896404732399379"><ele>302.0</ele><time>2026-04-25T07:08:03Z</time></trkpt><trkpt lat="45.72140472217668" lon="9.896581857493892"><ele>302.75</ele><time>2026-04-25T07:08:04Z</time></trkpt><trkpt lat="45.72145251745463" lon="9.896759586109589"><ele>303.5</ele><time>2026-04-25T07:08:05Z</time></trkpt><trkpt lat="45.72150740619758" lon="9.896938354225043"><ele>304.25</ele><time>2026-04-25T07:08:06Z</time></trkpt><trkpt lat="45.721572965346304" lon="9.897117222874657"><ele>305.0</ele><time>2026-04-25T07:08:07Z</time></trkpt><trkpt lat="45.721646518144674" lon="9.897296498686147"><ele>305.0</ele><time>2026-04-25T07:08:08Z</time></trkpt><trkpt lat="45.72172918349775" lon="9.897478826547268"><ele>305.0</ele><time>2026-04-25T07:08:09Z</time></trkpt><trkpt lat="45.72182052785005" lon="9.897657595436174"><ele>305.0</ele><time>2026-04-25T07:08:10Z</time></trkpt><trkpt lat="45.72191955778915" lon="9.897833028295077"><ele>304.0</ele><time>2026-04-25T07:08:11Z</time></trkpt><trkpt lat="45.72202571877769" lon="9.89800078226998"><ele>303.0</ele><time>2026-04-25T07:08:12Z</time></trkpt><trkpt lat="45.72214017324445" lon="9.89815541809605"><ele>302.0</ele><time>2026-04-25T07:08:13Z</time></trkpt><trkpt lat="45.722260955725794" lon="9.898297266626098"><ele>302.0</ele><time>2026-04-25T07:08:14Z</time></trkpt><trkpt lat="45.722388289767544" lon="9.89842972829494"><ele>302.0</ele><time>2026-04-25T07:08:15Z</time></trkpt><trkpt lat="45.722521801318834" lon="9.898557108418146"><ele>302.0</ele><time>2026-04-25T07:08:16Z</time></trkpt><trkpt lat="45.72265558303321" lon="9.898677465866355"><ele>302.33333333333337</ele><time>2026-04-25T07:08:17Z</time></trkpt><trkpt lat="45.72278781223624" lon="9.898794122938188"><ele>302.6666666666667</ele><time>2026-04-25T07:08:18Z</time></trkpt><trkpt lat="45.72291660754533" lon="9.898908692344419"><ele>303.0</ele><time>2026-04-25T07:08:19Z</time></trkpt><trkpt lat="45.72304541270278" lon="9.89902028616209"><ele>303.0</ele><time>2026-04-25T07:08:20Z</time></trkpt><trkpt lat="45.72317200729697" lon="9.899130765661726"><ele>303.0</ele><time>2026-04-25T07:08:21Z</time></trkpt><trkpt lat="45.72329792348202" lon="9.899245540421214"><ele>303.0</ele><time>2026-04-25T07:08:22Z</time></trkpt><trkpt lat="45.72342444806838" lon="9.899362218331337"><ele>303.0</ele><time>2026-04-25T07:08:23Z</time></trkpt><trkpt lat="45.72354841633886" lon="9.899474505252389"><ele>303.25</ele><time>2026-04-25T07:08:24Z</time></trkpt><trkpt lat="45.72367188790781" lon="9.899584235402608"><ele>303.5</ele><time>2026-04-25T07:08:25Z</time></trkpt><trkpt lat="45.72379891760445" lon="9.89969094324245"><ele>303.75</ele><time>2026-04-25T07:08:26Z</time></trkpt><trkpt lat="45.723922946800805" lon="9.899794172169244"><ele>304.0</ele><time>2026-04-25T07:08:27Z</time></trkpt><trkpt lat="45.7240434801717" lon="9.899895548555289"><ele>304.0</ele><time>2026-04-25T07:08:28Z</time></trkpt><trkpt lat="45.724162397410645" lon="9.89999623503764"><ele>304.0</ele><time>2026-04-25T07:08:29Z</time></trkpt><trkpt lat="45.72428167002197" lon="9.900099626022724"><ele>304.0</ele><time>2026-04-25T07:08:30Z</time></trkpt><trkpt lat="45.72440205230019" lon="9.900203721735686"><ele>304.0</ele><time>2026-04-25T07:08:31Z</time></trkpt><trkpt lat="45.724522170191186" lon="9.900306277311325"><ele>304.5</ele><time>2026-04-25T07:08:32Z</time></trkpt><trkpt lat="45.72463904855579" lon="9.900406863241738"><ele>305.0</ele><time>2026-04-25T07:08:33Z</time></trkpt><trkpt lat="45.724755620815664" lon="9.90050819161267"><ele>305.5</ele><time>2026-04-25T07:08:34Z</time></trkpt><trkpt lat="45.72486986336456" lon="9.900608032677592"><ele>306.0</ele><time>2026-04-25T07:08:35Z</time></trkpt><trkpt lat="45.724983392120066" lon="9.900704073046043"><ele>306.0</ele><time>2026-04-25T07:08:36Z</time></trkpt><trkpt lat="45.72509712849704" lon="9.900799665441202"><ele>306.0</ele><time>2026-04-25T07:08:37Z</time></trkpt><trkpt lat="45.72521394090666" lon="9.900896515953962"><ele>306.0</ele><time>2026-04-25T07:08:38Z</time></trkpt><trkpt lat="45.725330734055234" lon="9.900997125031925"><ele>306.0</ele><time>2026-04-25T07:08:39Z</time></trkpt><trkpt lat="45.72544508906671" lon="9.901099511287828"><ele>306.75</ele><time>2026-04-25T07:08:40Z</time></trkpt><trkpt lat="45.725560259914666" lon="9.901200874106323"><ele>307.5</ele><time>2026-04-25T07:08:41Z</time></trkpt><trkpt lat="45.72567867106215" lon="9.901298576522164"><ele>308.25</ele><time>2026-04-25T07:08:42Z</time></trkpt><trkpt lat="45.72580636994744" lon="9.901384142709942"><ele>309.0</ele><time>2026-04-25T07:08:43Z</time></trkpt><trkpt lat="45.725941029885206" lon="9.901451882497417"><ele>310.5</ele><time>2026-04-25T07:08:44Z</time></trkpt><trkpt lat="45.72607774726564" lon="9.901502947964339"><ele>312.0</ele><time>2026-04-25T07:08:45Z</time></trkpt><trkpt lat="45.72621649340003" lon="9.90154546744613"><ele>313.5</ele><time>2026-04-25T07:08:46Z</time></trkpt><trkpt lat="45.72635773036183" lon="9.901585845522552"><ele>315.0</ele><time>2026-04-25T07:08:47Z</time></trkpt><trkpt lat="45.72650094421582" lon="9.901627109443588"><ele>315.0</ele><time>2026-04-25T07:08:48Z</time></trkpt><trkpt lat="45.726642565391195" lon="9.901668805268015"><ele>315.0</ele><time>2026-04-25T07:08:49Z</time></trkpt><trkpt lat="45.72678216169038" lon="9.901717356262017"><ele>315.0</ele><time>2026-04-25T07:08:50Z</time></trkpt><trkpt lat="45.726916969682996" lon="9.901786319377639"><ele>315.0</ele><time>2026-04-25T07:08:51Z</time></trkpt><trkpt lat="45.72704664923573" lon="9.90187646746368"><ele>314.75</ele><time>2026-04-25T07:08:52Z</time></trkpt><trkpt lat="45.72717237026971" lon="9.901977351235105"><ele>314.5</ele><time>2026-04-25T07:08:52.999Z</time></trkpt><trkpt lat="45.727296264390745" lon="9.902082076524724"><ele>314.25</ele><time>2026-04-25T07:08:53.999Z</time></trkpt><trkpt lat="45.72741710971713" lon="9.902188772024138"><ele>314.0</ele><time>2026-04-25T07:08:54.999Z</time></trkpt><trkpt lat="45.72753825080346" lon="9.902299358590477"><ele>314.0</ele><time>2026-04-25T07:08:55.999Z</time></trkpt><trkpt lat="45.72766289804886" lon="9.902407410602398"><ele>314.0</ele><time>2026-04-25T07:08:56.999Z</time></trkpt><trkpt lat="45.72778903685155" lon="9.902515080112934"><ele>314.0</ele><time>2026-04-25T07:08:57.999Z</time></trkpt><trkpt lat="45.72791456541776" lon="9.90262300922269"><ele>314.0</ele><time>2026-04-25T07:08:58.999Z</time></trkpt><trkpt lat="45.72803958845262" lon="9.902727949793642"><ele>315.25</ele><time>2026-04-25T07:08:59.999Z</time></trkpt><trkpt lat="45.728161621949724" lon="9.90283371080721"><ele>316.5</ele><time>2026-04-25T07:09:00.999Z</time></trkpt><trkpt lat="45.72828168097393" lon="9.902941002824797"><ele>317.75</ele><time>2026-04-25T07:09:01.999Z</time></trkpt><trkpt lat="45.72839827247606" lon="9.903053917792082"><ele>319.0</ele><time>2026-04-25T07:09:02.999Z</time></trkpt><trkpt lat="45.72850614222391" lon="9.903181362101693"><ele>318.25</ele><time>2026-04-25T07:09:03.999Z</time></trkpt><trkpt lat="45.72860789182759" lon="9.903318585790569"><ele>317.5</ele><time>2026-04-25T07:09:04.999Z</time></trkpt><trkpt lat="45.72870622764469" lon="9.903461005012387"><ele>316.75</ele><time>2026-04-25T07:09:05.999Z</time></trkpt><trkpt lat="45.728804763871615" lon="9.903607459843"><ele>316.0</ele><time>2026-04-25T07:09:06.999Z</time></trkpt><trkpt lat="45.728895254661516" lon="9.903758576855024"><ele>316.0</ele><time>2026-04-25T07:09:07.999Z</time></trkpt><trkpt lat="45.7289863605427" lon="9.903907635768194"><ele>316.0</ele><time>2026-04-25T07:09:08.999Z</time></trkpt><trkpt lat="45.72908095507419" lon="9.904052187931057"><ele>316.0</ele><time>2026-04-25T07:09:09.999Z</time></trkpt><trkpt lat="45.72917290489194" lon="9.904193773210968"><ele>316.0</ele><time>2026-04-25T07:09:10.999Z</time></trkpt><trkpt lat="45.72926364266172" lon="9.904336545884826"><ele>315.0</ele><time>2026-04-25T07:09:11.999Z</time></trkpt><trkpt lat="45.72934819416613" lon="9.904470969108386"><ele>314.0</ele><time>2026-04-25T07:09:12.999Z</time></trkpt><trkpt lat="45.72942998749094" lon="9.904601994331482"><ele>313.0</ele><time>2026-04-25T07:09:13.999Z</time></trkpt><trkpt lat="45.729509006515876" lon="9.904731179868309"><ele>312.0</ele><time>2026-04-25T07:09:14.999Z</time></trkpt><trkpt lat="45.72958874389509" lon="9.904858601383525"><ele>312.0</ele><time>2026-04-25T07:09:15.999Z</time></trkpt><trkpt lat="45.72966710706844" lon="9.904982899517426"><ele>312.0</ele><time>2026-04-25T07:09:16.999Z</time></trkpt><trkpt lat="45.729742440107245" lon="9.905106511373742"><ele>312.0</ele><time>2026-04-25T07:09:17.999Z</time></trkpt><trkpt lat="45.729813917059495" lon="9.90522241042982"><ele>312.0</ele><time>2026-04-25T07:09:18.999Z</time></trkpt><trkpt lat="45.72988147485262" lon="9.905328653206608"><ele>312.0</ele><time>2026-04-25T07:09:19.999Z</time></trkpt><trkpt lat="45.7299366609729" lon="9.905416710122948"><ele>312.0</ele><time>2026-04-25T07:09:20.999Z</time></trkpt><trkpt lat="45.73001130866734" lon="9.905529935814046"><ele>312.0</ele><time>2026-04-25T07:09:22.999Z</time></trkpt><trkpt lat="45.73007383219236" lon="9.905627510148339"><ele>312.0</ele><time>2026-04-25T07:09:24.999Z</time></trkpt><trkpt lat="45.73011703240776" lon="9.90570247113677"><ele>312.0</ele><time>2026-04-25T07:09:25.999Z</time></trkpt><trkpt lat="45.73017129581233" lon="9.905795454365334"><ele>312.0</ele><time>2026-04-25T07:09:26.999Z</time></trkpt><trkpt lat="45.73022830436565" lon="9.905893090269283"><ele>312.0</ele><time>2026-04-25T07:09:27.999Z</time></trkpt><trkpt lat="45.730290929842226" lon="9.905996690116996"><ele>312.0</ele><time>2026-04-25T07:09:28.999Z</time></trkpt><trkpt lat="45.730357896910846" lon="9.906103846179963"><ele>312.0</ele><time>2026-04-25T07:09:29.999Z</time></trkpt><trkpt lat="45.7304313651298" lon="9.90621404826644"><ele>312.0</ele><time>2026-04-25T07:09:30.999Z</time></trkpt><trkpt lat="45.73050901796136" lon="9.906321736027135"><ele>312.0</ele><time>2026-04-25T07:09:31.999Z</time></trkpt><trkpt lat="45.73059563820038" lon="9.90642608789871"><ele>312.0</ele><time>2026-04-25T07:09:32.999Z</time></trkpt><trkpt lat="45.73068677312204" lon="9.906524739949804"><ele>312.0</ele><time>2026-04-25T07:09:33.999Z</time></trkpt><trkpt lat="45.73078430281359" lon="9.906617084649284"><ele>312.0</ele><time>2026-04-25T07:09:34.999Z</time></trkpt><trkpt lat="45.73088777076921" lon="9.906704580833601"><ele>312.0</ele><time>2026-04-25T07:09:35.999Z</time></trkpt><trkpt lat="45.73099753837425" lon="9.906779975923573"><ele>312.0</ele><time>2026-04-25T07:09:36.999Z</time></trkpt><trkpt lat="45.73110918635988" lon="9.906843873558499"><ele>312.0</ele><time>2026-04-25T07:09:37.999Z</time></trkpt><trkpt lat="45.73121981709753" lon="9.90689454712437"><ele>312.0</ele><time>2026-04-25T07:09:38.999Z</time></trkpt><trkpt lat="45.73133181964536" lon="9.906935640492936"><ele>312.0</ele><time>2026-04-25T07:09:39.999Z</time></trkpt><trkpt lat="45.731443197690524" lon="9.906968230319604"><ele>312.0</ele><time>2026-04-25T07:09:40.999Z</time></trkpt><trkpt lat="45.731554908499184" lon="9.906992345832535"><ele>312.0</ele><time>2026-04-25T07:09:41.999Z</time></trkpt><trkpt lat="45.73166769690547" lon="9.90700824311491"><ele>312.0</ele><time>2026-04-25T07:09:42.999Z</time></trkpt><trkpt lat="45.73178120561202" lon="9.90702428007537"><ele>312.0</ele><time>2026-04-25T07:09:43.999Z</time></trkpt><trkpt lat="45.73189545200047" lon="9.907036652065708"><ele>312.0</ele><time>2026-04-25T07:09:44.999Z</time></trkpt><trkpt lat="45.73201198669131" lon="9.907046611589799"><ele>312.0</ele><time>2026-04-25T07:09:45.999Z</time></trkpt><trkpt lat="45.73213239495809" lon="9.907057748010972"><ele>312.0</ele><time>2026-04-25T07:09:46.999Z</time></trkpt><trkpt lat="45.732255663248765" lon="9.907072668591194"><ele>312.0</ele><time>2026-04-25T07:09:47.999Z</time></trkpt><trkpt lat="45.73238149246593" lon="9.907100373528532"><ele>312.0</ele><time>2026-04-25T07:09:48.999Z</time></trkpt><trkpt lat="45.732511262159726" lon="9.907122358745998"><ele>312.0</ele><time>2026-04-25T07:09:49.999Z</time></trkpt><trkpt lat="45.7326454831204" lon="9.907134676677805"><ele>312.0</ele><time>2026-04-25T07:09:50.999Z</time></trkpt><trkpt lat="45.73277916786935" lon="9.907147467049748"><ele>312.0</ele><time>2026-04-25T07:09:51.999Z</time></trkpt><trkpt lat="45.73291610161741" lon="9.90716434278358"><ele>312.0</ele><time>2026-04-25T07:09:52.999Z</time></trkpt><trkpt lat="45.73305198608936" lon="9.907180130935766"><ele>312.25</ele><time>2026-04-25T07:09:53.999Z</time></trkpt><trkpt lat="45.733189071538405" lon="9.907197382578532"><ele>312.5</ele><time>2026-04-25T07:09:54.999Z</time></trkpt><trkpt lat="45.73332734446783" lon="9.90721525510008"><ele>312.75</ele><time>2026-04-25T07:09:55.999Z</time></trkpt><trkpt lat="45.7334667326367" lon="9.907230863432696"><ele>313.0</ele><time>2026-04-25T07:09:56.999Z</time></trkpt><trkpt lat="45.73360818967143" lon="9.907243204511474"><ele>313.75</ele><time>2026-04-25T07:09:57.999Z</time></trkpt><trkpt lat="45.733747556057885" lon="9.907251236270495"><ele>314.5</ele><time>2026-04-25T07:09:58.999Z</time></trkpt><trkpt lat="45.73388599676538" lon="9.907249768053296"><ele>315.25</ele><time>2026-04-25T07:09:59.999Z</time></trkpt><trkpt lat="45.73402442372984" lon="9.907237054354827"><ele>316.0</ele><time>2026-04-25T07:10:00.999Z</time></trkpt><trkpt lat="45.734158011196335" lon="9.907208252532708"><ele>316.0</ele><time>2026-04-25T07:10:01.999Z</time></trkpt><trkpt lat="45.73428745797454" lon="9.907166217659794"><ele>316.0</ele><time>2026-04-25T07:10:03Z</time></trkpt><trkpt lat="45.734415836686686" lon="9.907107130173335"><ele>316.0</ele><time>2026-04-25T07:10:04Z</time></trkpt><trkpt lat="45.73454424444613" lon="9.907025782168223"><ele>316.0</ele><time>2026-04-25T07:10:05Z</time></trkpt><trkpt lat="45.734677509694265" lon="9.906915380755636"><ele>316.0</ele><time>2026-04-25T07:10:06Z</time></trkpt><trkpt lat="45.73482596095293" lon="9.906792768372197"><ele>316.0</ele><time>2026-04-25T07:10:07Z</time></trkpt><trkpt lat="45.734974884120355" lon="9.906624731307604"><ele>316.0</ele><time>2026-04-25T07:10:08Z</time></trkpt><trkpt lat="45.73511163156981" lon="9.906433739203194"><ele>316.66666666666663</ele><time>2026-04-25T07:10:09Z</time></trkpt><trkpt lat="45.7352589159009" lon="9.906283093317425"><ele>317.3333333333333</ele><time>2026-04-25T07:10:10Z</time></trkpt><trkpt lat="45.735413630908255" lon="9.906153058013476"><ele>318.0</ele><time>2026-04-25T07:10:11Z</time></trkpt><trkpt lat="45.73557633586268" lon="9.906054227321249"><ele>318.0</ele><time>2026-04-25T07:10:12Z</time></trkpt><trkpt lat="45.7357431694525" lon="9.905993728174025"><ele>318.0</ele><time>2026-04-25T07:10:13Z</time></trkpt><trkpt lat="45.73591156804779" lon="9.905975791247831"><ele>318.0</ele><time>2026-04-25T07:10:14Z</time></trkpt><trkpt lat="45.73607277746748" lon="9.905982598609304"><ele>318.25</ele><time>2026-04-25T07:10:15Z</time></trkpt><trkpt lat="45.736220915486136" lon="9.906000607357443"><ele>318.5</ele><time>2026-04-25T07:10:16Z</time></trkpt><trkpt lat="45.736360576726646" lon="9.906014956641583"><ele>318.75</ele><time>2026-04-25T07:10:17Z</time></trkpt><trkpt lat="45.73650132933375" lon="9.906023925519358"><ele>319.0</ele><time>2026-04-25T07:10:18Z</time></trkpt><trkpt lat="45.73664326952695" lon="9.906030486980182"><ele>319.0</ele><time>2026-04-25T07:10:19Z</time></trkpt><trkpt lat="45.73678817407863" lon="9.906031070470373"><ele>319.0</ele><time>2026-04-25T07:10:20Z</time></trkpt><trkpt lat="45.73693446048261" lon="9.906035931781334"><ele>319.0</ele><time>2026-04-25T07:10:21Z</time></trkpt><trkpt lat="45.73706789413984" lon="9.906049938989579"><ele>319.0</ele><time>2026-04-25T07:10:22Z</time></trkpt><trkpt lat="45.737189565401735" lon="9.906061483798764"><ele>318.75</ele><time>2026-04-25T07:10:23Z</time></trkpt><trkpt lat="45.73730413688311" lon="9.90607338694403"><ele>318.5</ele><time>2026-04-25T07:10:24Z</time></trkpt><trkpt lat="45.737420543514936" lon="9.906084847555856"><ele>318.25</ele><time>2026-04-25T07:10:25Z</time></trkpt><trkpt lat="45.737536415035734" lon="9.906096957719217"><ele>318.0</ele><time>2026-04-25T07:10:26Z</time></trkpt><trkpt lat="45.73764971939101" lon="9.906109016841691"><ele>318.5</ele><time>2026-04-25T07:10:27Z</time></trkpt><trkpt lat="45.73776092703594" lon="9.906123288390743"><ele>319.0</ele><time>2026-04-25T07:10:28Z</time></trkpt><trkpt lat="45.73787080802979" lon="9.906134690576696"><ele>319.5</ele><time>2026-04-25T07:10:29Z</time></trkpt><trkpt lat="45.73798492180481" lon="9.906150232279957"><ele>320.0</ele><time>2026-04-25T07:10:30Z</time></trkpt><trkpt lat="45.738102852631535" lon="9.906171317463025"><ele>320.0</ele><time>2026-04-25T07:10:31Z</time></trkpt><trkpt lat="45.73822848002274" lon="9.906200162931793"><ele>320.0</ele><time>2026-04-25T07:10:32Z</time></trkpt><trkpt lat="45.73835616224661" lon="9.906237392178628"><ele>320.0</ele><time>2026-04-25T07:10:33Z</time></trkpt><trkpt lat="45.738483314381575" lon="9.90628616218628"><ele>320.0</ele><time>2026-04-25T07:10:34Z</time></trkpt><trkpt lat="45.73860377840698" lon="9.906341226730753"><ele>319.75</ele><time>2026-04-25T07:10:35Z</time></trkpt><trkpt lat="45.738717372056136" lon="9.906400897606021"><ele>319.5</ele><time>2026-04-25T07:10:36Z</time></trkpt><trkpt lat="45.73882180519939" lon="9.906465808895474"><ele>319.25</ele><time>2026-04-25T07:10:37Z</time></trkpt><trkpt lat="45.73892149819839" lon="9.90653363662556"><ele>319.0</ele><time>2026-04-25T07:10:38Z</time></trkpt><trkpt lat="45.73901936469031" lon="9.906599470659145"><ele>319.0</ele><time>2026-04-25T07:10:39Z</time></trkpt><trkpt lat="45.739115657442746" lon="9.906660309508045"><ele>319.0</ele><time>2026-04-25T07:10:40Z</time></trkpt><trkpt lat="45.73920638202591" lon="9.906717299801869"><ele>319.0</ele><time>2026-04-25T07:10:41Z</time></trkpt><trkpt lat="45.73929675281631" lon="9.906776786728784"><ele>319.0</ele><time>2026-04-25T07:10:42Z</time></trkpt><trkpt lat="45.73938143930605" lon="9.906834208231132"><ele>319.0</ele><time>2026-04-25T07:10:43Z</time></trkpt><trkpt lat="45.73945939017493" lon="9.906884683268677"><ele>319.5</ele><time>2026-04-25T07:10:44Z</time></trkpt><trkpt lat="45.73953009130999" lon="9.906937792328105"><ele>320.0</ele><time>2026-04-25T07:10:45Z</time></trkpt><trkpt lat="45.73959336014107" lon="9.907009061530841"><ele>320.5</ele><time>2026-04-25T07:10:46Z</time></trkpt><trkpt lat="45.73965079323289" lon="9.90709226143825"><ele>321.0</ele><time>2026-04-25T07:10:47Z</time></trkpt><trkpt lat="45.7397183338003" lon="9.90716746568854"><ele>321.5</ele><time>2026-04-25T07:10:48Z</time></trkpt><trkpt lat="45.7398081898149" lon="9.907202992042821"><ele>322.0</ele><time>2026-04-25T07:10:49Z</time></trkpt><trkpt lat="45.73990470674858" lon="9.907205985509746"><ele>322.0</ele><time>2026-04-25T07:10:50Z</time></trkpt><trkpt lat="45.739998594606064" lon="9.907213424942201"><ele>322.0</ele><time>2026-04-25T07:10:51Z</time></trkpt><trkpt lat="45.740091740192874" lon="9.907256881214634"><ele>322.0</ele><time>2026-04-25T07:10:52Z</time></trkpt><trkpt lat="45.74018017365005" lon="9.907319342146558"><ele>322.0</ele><time>2026-04-25T07:10:53Z</time></trkpt><trkpt lat="45.74027469670707" lon="9.907380472038563"><ele>322.0</ele><time>2026-04-25T07:10:53.999Z</time></trkpt><trkpt lat="45.7403746740395" lon="9.907438860154224"><ele>322.0</ele><time>2026-04-25T07:10:54.999Z</time></trkpt><trkpt lat="45.74047874456513" lon="9.907495816966252"><ele>322.0</ele><time>2026-04-25T07:10:55.999Z</time></trkpt><trkpt lat="45.74058513410109" lon="9.907554747345923"><ele>322.0</ele><time>2026-04-25T07:10:56.999Z</time></trkpt><trkpt lat="45.7406915882047" lon="9.907613877811544"><ele>322.0</ele><time>2026-04-25T07:10:57.999Z</time></trkpt><trkpt lat="45.74080054504982" lon="9.90767491759508"><ele>322.25</ele><time>2026-04-25T07:10:58.999Z</time></trkpt><trkpt lat="45.74091292438573" lon="9.907739056691733"><ele>322.5</ele><time>2026-04-25T07:10:59.999Z</time></trkpt><trkpt lat="45.741024604083115" lon="9.907801241853813"><ele>322.75</ele><time>2026-04-25T07:11:00.999Z</time></trkpt><trkpt lat="45.74113903016895" lon="9.907859320990998"><ele>323.0</ele><time>2026-04-25T07:11:01.999Z</time></trkpt><trkpt lat="45.74125796167609" lon="9.907915801275736"><ele>323.25</ele><time>2026-04-25T07:11:02.999Z</time></trkpt><trkpt lat="45.74137821541959" lon="9.907967198051663"><ele>323.5</ele><time>2026-04-25T07:11:03.999Z</time></trkpt><trkpt lat="45.74149839736486" lon="9.908014695027852"><ele>323.75</ele><time>2026-04-25T07:11:04.999Z</time></trkpt><trkpt lat="45.741619531712345" lon="9.90806276412302"><ele>324.0</ele><time>2026-04-25T07:11:05.999Z</time></trkpt><trkpt lat="45.74174113552665" lon="9.908108825467021"><ele>324.0</ele><time>2026-04-25T07:11:06.999Z</time></trkpt><trkpt lat="45.74186364735135" lon="9.908150827905054"><ele>324.0</ele><time>2026-04-25T07:11:07.999Z</time></trkpt><trkpt lat="45.74198335046709" lon="9.908187627571028"><ele>324.0</ele><time>2026-04-25T07:11:08.999Z</time></trkpt><trkpt lat="45.7421108064568" lon="9.908250201751368"><ele>324.0</ele><time>2026-04-25T07:11:09.999Z</time></trkpt><trkpt lat="45.7422378573384" lon="9.908299688886633"><ele>324.25</ele><time>2026-04-25T07:11:10.999Z</time></trkpt><trkpt lat="45.74236805979214" lon="9.908345388305484"><ele>324.5</ele><time>2026-04-25T07:11:11.999Z</time></trkpt><trkpt lat="45.7424987912921" lon="9.908391940808164"><ele>324.75</ele><time>2026-04-25T07:11:12.999Z</time></trkpt><trkpt lat="45.742625701819584" lon="9.908435507276492"><ele>325.0</ele><time>2026-04-25T07:11:13.999Z</time></trkpt><trkpt lat="45.742748667475894" lon="9.908473691653489"><ele>325.4</ele><time>2026-04-25T07:11:14.999Z</time></trkpt><trkpt lat="45.742860516950294" lon="9.908519152236403"><ele>325.8</ele><time>2026-04-25T07:11:15.999Z</time></trkpt><trkpt lat="45.74296334402808" lon="9.908554600355165"><ele>326.20000000000005</ele><time>2026-04-25T07:11:16.999Z</time></trkpt><trkpt lat="45.7430611325107" lon="9.90859167080214"><ele>326.6</ele><time>2026-04-25T07:11:17.999Z</time></trkpt><trkpt lat="45.74315039180705" lon="9.90863313895337"><ele>327.0</ele><time>2026-04-25T07:11:18.999Z</time></trkpt><trkpt lat="45.74323776013114" lon="9.908676830096843"><ele>327.0</ele><time>2026-04-25T07:11:19.999Z</time></trkpt><trkpt lat="45.743316610794274" lon="9.908708974461689"><ele>327.0</ele><time>2026-04-25T07:11:20.999Z</time></trkpt><trkpt lat="45.743399833176376" lon="9.908746687159987"><ele>327.0</ele><time>2026-04-25T07:11:21.999Z</time></trkpt><trkpt lat="45.74350368385683" lon="9.908781585318652"><ele>327.0</ele><time>2026-04-25T07:11:22.999Z</time></trkpt><trkpt lat="45.74361941936505" lon="9.908824771209876"><ele>327.0</ele><time>2026-04-25T07:11:23.999Z</time></trkpt><trkpt lat="45.743739941369384" lon="9.90887134454583"><ele>327.0</ele><time>2026-04-25T07:11:24.999Z</time></trkpt><trkpt lat="45.74386359618409" lon="9.908915615212347"><ele>327.0</ele><time>2026-04-25T07:11:25.999Z</time></trkpt><trkpt lat="45.743987360784324" lon="9.908962486894543"><ele>327.0</ele><time>2026-04-25T07:11:26.999Z</time></trkpt><trkpt lat="45.74411397763079" lon="9.909009186431765"><ele>327.0</ele><time>2026-04-25T07:11:27.999Z</time></trkpt><trkpt lat="45.7442418691382" lon="9.909054760620478"><ele>327.0</ele><time>2026-04-25T07:11:28.999Z</time></trkpt><trkpt lat="45.74437716826771" lon="9.909092353982027"><ele>327.0</ele><time>2026-04-25T07:11:29.999Z</time></trkpt><trkpt lat="45.74451058850226" lon="9.90911693022588"><ele>327.0</ele><time>2026-04-25T07:11:30.999Z</time></trkpt><trkpt lat="45.74464654381649" lon="9.909130478072719"><ele>327.0</ele><time>2026-04-25T07:11:31.999Z</time></trkpt><trkpt lat="45.744784383181724" lon="9.9091396333949"><ele>327.75</ele><time>2026-04-25T07:11:32.999Z</time></trkpt><trkpt lat="45.744928329977874" lon="9.9091258107691"><ele>328.5</ele><time>2026-04-25T07:11:33.999Z</time></trkpt><trkpt lat="45.74506608471744" lon="9.909115715057668"><ele>329.25</ele><time>2026-04-25T07:11:34.999Z</time></trkpt><trkpt lat="45.74520659674652" lon="9.909094057906675"><ele>330.0</ele><time>2026-04-25T07:11:35.999Z</time></trkpt><trkpt lat="45.74533997124341" lon="9.909049485265598"><ele>330.25</ele><time>2026-04-25T07:11:36.999Z</time></trkpt><trkpt lat="45.745456665415574" lon="9.909017845297367"><ele>330.5</ele><time>2026-04-25T07:11:37.999Z</time></trkpt><trkpt lat="45.74557255812389" lon="9.908985488204637"><ele>330.75</ele><time>2026-04-25T07:11:38.999Z</time></trkpt><trkpt lat="45.74568697671632" lon="9.908935709769104"><ele>331.0</ele><time>2026-04-25T07:11:39.999Z</time></trkpt><trkpt lat="45.74580144498603" lon="9.908871758112836"><ele>331.0</ele><time>2026-04-25T07:11:40.999Z</time></trkpt><trkpt lat="45.745923304974134" lon="9.908816939860118"><ele>331.0</ele><time>2026-04-25T07:11:41.999Z</time></trkpt><trkpt lat="45.74604589066693" lon="9.90875313290437"><ele>331.0</ele><time>2026-04-25T07:11:42.999Z</time></trkpt><trkpt lat="45.746178403976145" lon="9.908710219777054"><ele>331.0</ele><time>2026-04-25T07:11:43.999Z</time></trkpt><trkpt lat="45.74630365678486" lon="9.908651106005017"><ele>331.0</ele><time>2026-04-25T07:11:44.999Z</time></trkpt><trkpt lat="45.746409801681914" lon="9.908600316911368"><ele>331.0</ele><time>2026-04-25T07:11:45.999Z</time></trkpt><trkpt lat="45.74650052396013" lon="9.908544453004795"><ele>331.0</ele><time>2026-04-25T07:11:46.999Z</time></trkpt><trkpt lat="45.746578281551166" lon="9.908499392822922"><ele>331.0</ele><time>2026-04-25T07:11:47.999Z</time></trkpt><trkpt lat="45.746663086286176" lon="9.908479171648624"><ele>331.0</ele><time>2026-04-25T07:11:48.999Z</time></trkpt><trkpt lat="45.74675055061216" lon="9.908438622891724"><ele>331.0</ele><time>2026-04-25T07:11:49.999Z</time></trkpt><trkpt lat="45.74684461778341" lon="9.908395526659797"><ele>331.0</ele><time>2026-04-25T07:11:50.999Z</time></trkpt><trkpt lat="45.74693566631051" lon="9.9083314033667"><ele>331.0</ele><time>2026-04-25T07:11:51.999Z</time></trkpt><trkpt lat="45.74702589778565" lon="9.908299688711145"><ele>331.0</ele><time>2026-04-25T07:11:52.999Z</time></trkpt><trkpt lat="45.74711247212367" lon="9.908270789149515"><ele>331.0</ele><time>2026-04-25T07:11:53.999Z</time></trkpt><trkpt lat="45.747193676707646" lon="9.908246346554787"><ele>331.3333333333333</ele><time>2026-04-25T07:11:54.999Z</time></trkpt><trkpt lat="45.7472641152352" lon="9.908228092517263"><ele>331.66666666666663</ele><time>2026-04-25T07:11:55.999Z</time></trkpt><trkpt lat="45.74732668634508" lon="9.908207609711187"><ele>332.0</ele><time>2026-04-25T07:11:56.999Z</time></trkpt><trkpt lat="45.747443461955164" lon="9.908185384687688"><ele>332.3333333333333</ele><time>2026-04-25T07:11:58.999Z</time></trkpt><trkpt lat="45.747508456323885" lon="9.908173881602883"><ele>332.6666666666667</ele><time>2026-04-25T07:11:59.999Z</time></trkpt><trkpt lat="45.74757937978721" lon="9.908169795438074"><ele>333.0</ele><time>2026-04-25T07:12:00.999Z</time></trkpt><trkpt lat="45.74764373483162" lon="9.90817151881101"><ele>333.3333333333333</ele><time>2026-04-25T07:12:01.999Z</time></trkpt><trkpt lat="45.74771345656731" lon="9.908169431156779"><ele>333.6666666666667</ele><time>2026-04-25T07:12:02.999Z</time></trkpt><trkpt lat="45.74779707673426" lon="9.908173496287437"><ele>334.0</ele><time>2026-04-25T07:12:03.999Z</time></trkpt><trkpt lat="45.74788695639122" lon="9.908178072011447"><ele>334.33333333333337</ele><time>2026-04-25T07:12:04.999Z</time></trkpt><trkpt lat="45.747976320523875" lon="9.908181951398914"><ele>334.6666666666667</ele><time>2026-04-25T07:12:05.999Z</time></trkpt><trkpt lat="45.74806401033349" lon="9.908185182217448"><ele>335.0</ele><time>2026-04-25T07:12:06.999Z</time></trkpt><trkpt lat="45.74814719478711" lon="9.908187149042716"><ele>335.0</ele><time>2026-04-25T07:12:07.999Z</time></trkpt><trkpt lat="45.74822354363894" lon="9.908190325230196"><ele>335.0</ele><time>2026-04-25T07:12:09Z</time></trkpt><trkpt lat="45.748296287604695" lon="9.908195960414092"><ele>335.0</ele><time>2026-04-25T07:12:10Z</time></trkpt><trkpt lat="45.74836828966614" lon="9.908203304840278"><ele>335.0</ele><time>2026-04-25T07:12:11Z</time></trkpt><trkpt lat="45.74844083932312" lon="9.908202556318964"><ele>335.0</ele><time>2026-04-25T07:12:12Z</time></trkpt><trkpt lat="45.7485178943593" lon="9.908201194322373"><ele>335.0</ele><time>2026-04-25T07:12:13Z</time></trkpt><trkpt lat="45.74859944739005" lon="9.908204607492904"><ele>335.33333333333337</ele><time>2026-04-25T07:12:14Z</time></trkpt><trkpt lat="45.74868288449796" lon="9.908207054733523"><ele>335.6666666666667</ele><time>2026-04-25T07:12:15Z</time></trkpt><trkpt lat="45.74876860064599" lon="9.908206576879602"><ele>336.0</ele><time>2026-04-25T07:12:16Z</time></trkpt><trkpt lat="45.748856762249744" lon="9.908211506216153"><ele>336.3333333333333</ele><time>2026-04-25T07:12:17Z</time></trkpt><trkpt lat="45.74894315719338" lon="9.908219809898455"><ele>336.66666666666663</ele><time>2026-04-25T07:12:18Z</time></trkpt><trkpt lat="45.74902814236855" lon="9.908225240535657"><ele>337.0</ele><time>2026-04-25T07:12:19Z</time></trkpt><trkpt lat="45.74910912092271" lon="9.908233294429145"><ele>337.0</ele><time>2026-04-25T07:12:20Z</time></trkpt><trkpt lat="45.74919010650712" lon="9.908241077342456"><ele>337.0</ele><time>2026-04-25T07:12:21Z</time></trkpt><trkpt lat="45.74926959576385" lon="9.908252105227705"><ele>337.0</ele><time>2026-04-25T07:12:22Z</time></trkpt><trkpt lat="45.74934504879507" lon="9.908265208477122"><ele>337.0</ele><time>2026-04-25T07:12:23Z</time></trkpt><trkpt lat="45.74942087512835" lon="9.908277731093882"><ele>337.0</ele><time>2026-04-25T07:12:24Z</time></trkpt><trkpt lat="45.749496213680736" lon="9.908293072120257"><ele>337.0</ele><time>2026-04-25T07:12:25Z</time></trkpt><trkpt lat="45.74956965675025" lon="9.908310322882905"><ele>337.20000000000005</ele><time>2026-04-25T07:12:26Z</time></trkpt><trkpt lat="45.74964119903675" lon="9.908329627477045"><ele>337.4</ele><time>2026-04-25T07:12:27Z</time></trkpt><trkpt lat="45.749712905928995" lon="9.90835550675137"><ele>337.6</ele><time>2026-04-25T07:12:28Z</time></trkpt><trkpt lat="45.74977481617208" lon="9.908377258600929"><ele>337.79999999999995</ele><time>2026-04-25T07:12:29Z</time></trkpt><trkpt lat="45.74989166087804" lon="9.90842127904916"><ele>338.0</ele><time>2026-04-25T07:12:31Z</time></trkpt><trkpt lat="45.75001245423681" lon="9.908459868955728"><ele>338.0</ele><time>2026-04-25T07:12:33Z</time></trkpt><trkpt lat="45.75007312835523" lon="9.908484371097508"><ele>338.0</ele><time>2026-04-25T07:12:34Z</time></trkpt><trkpt lat="45.7501367649681" lon="9.908507854151122"><ele>338.0</ele><time>2026-04-25T07:12:35Z</time></trkpt><trkpt lat="45.75020663069408" lon="9.908535019661347"><ele>338.0</ele><time>2026-04-25T07:12:36Z</time></trkpt><trkpt lat="45.75028012814579" lon="9.90856454523487"><ele>338.0</ele><time>2026-04-25T07:12:37Z</time></trkpt><trkpt lat="45.75035734048246" lon="9.908594821481318"><ele>338.0</ele><time>2026-04-25T07:12:38Z</time></trkpt><trkpt lat="45.7504410224284" lon="9.908637222096756"><ele>338.0</ele><time>2026-04-25T07:12:39Z</time></trkpt><trkpt lat="45.75052797705979" lon="9.908668343145843"><ele>338.0</ele><time>2026-04-25T07:12:40Z</time></trkpt><trkpt lat="45.75059664182381" lon="9.908684937759187"><ele>338.0</ele><time>2026-04-25T07:12:41Z</time></trkpt><trkpt lat="45.750684484921706" lon="9.90871572492104"><ele>338.0</ele><time>2026-04-25T07:12:43Z</time></trkpt><trkpt lat="45.750764758129236" lon="9.908730836949186"><ele>338.0</ele><time>2026-04-25T07:12:46Z</time></trkpt><trkpt lat="45.75083511448072" lon="9.908751205352718"><ele>338.0</ele><time>2026-04-25T07:13:05.999Z</time></trkpt><trkpt lat="45.75094233301917" lon="9.908801063463756"><ele>338.0</ele><time>2026-04-25T07:13:07.999Z</time></trkpt><trkpt lat="45.75101663615136" lon="9.908833490763723"><ele>337.79999999999995</ele><time>2026-04-25T07:13:08.999Z</time></trkpt><trkpt lat="45.751103069527176" lon="9.908869070362805"><ele>337.6</ele><time>2026-04-25T07:13:09.999Z</time></trkpt><trkpt lat="45.75120137450403" lon="9.908908507651613"><ele>337.4</ele><time>2026-04-25T07:13:10.999Z</time></trkpt><trkpt lat="45.75130649034058" lon="9.908944730108608"><ele>337.20000000000005</ele><time>2026-04-25T07:13:11.999Z</time></trkpt><trkpt lat="45.75142360712168" lon="9.908986607951707"><ele>337.0</ele><time>2026-04-25T07:13:12.999Z</time></trkpt><trkpt lat="45.75154159373734" lon="9.909031473475684"><ele>337.0</ele><time>2026-04-25T07:13:13.999Z</time></trkpt><trkpt lat="45.75166471557423" lon="9.909081899846386"><ele>337.0</ele><time>2026-04-25T07:13:14.999Z</time></trkpt><trkpt lat="45.75179103509155" lon="9.909132331228344"><ele>337.0</ele><time>2026-04-25T07:13:15.999Z</time></trkpt><trkpt lat="45.7519211324247" lon="9.909173913981148"><ele>337.0</ele><time>2026-04-25T07:13:16.999Z</time></trkpt><trkpt lat="45.75206067502746" lon="9.909234104563804"><ele>336.75</ele><time>2026-04-25T07:13:17.999Z</time></trkpt><trkpt lat="45.75219914918132" lon="9.909282611944695"><ele>336.5</ele><time>2026-04-25T07:13:18.999Z</time></trkpt><trkpt lat="45.752337814237315" lon="9.909334886745699"><ele>336.25</ele><time>2026-04-25T07:13:19.999Z</time></trkpt><trkpt lat="45.75247504583304" lon="9.909392478469787"><ele>336.0</ele><time>2026-04-25T07:13:20.999Z</time></trkpt><trkpt lat="45.752612195926126" lon="9.909461639918604"><ele>335.75</ele><time>2026-04-25T07:13:21.999Z</time></trkpt><trkpt lat="45.752748308833525" lon="9.9095419934345"><ele>335.5</ele><time>2026-04-25T07:13:22.999Z</time></trkpt><trkpt lat="45.75287735005104" lon="9.909639087817323"><ele>335.25</ele><time>2026-04-25T07:13:23.999Z</time></trkpt><trkpt lat="45.75300171701261" lon="9.909750851391792"><ele>335.0</ele><time>2026-04-25T07:13:24.999Z</time></trkpt><trkpt lat="45.753120436903316" lon="9.909873641480356"><ele>335.0</ele><time>2026-04-25T07:13:25.999Z</time></trkpt><trkpt lat="45.75323505482861" lon="9.909998079936258"><ele>335.0</ele><time>2026-04-25T07:13:26.999Z</time></trkpt><trkpt lat="45.75334793201992" lon="9.910123160943048"><ele>335.0</ele><time>2026-04-25T07:13:27.999Z</time></trkpt><trkpt lat="45.753459971019026" lon="9.910248474883536"><ele>335.0</ele><time>2026-04-25T07:13:28.999Z</time></trkpt><trkpt lat="45.7535749139273" lon="9.910375966955252"><ele>335.6666666666667</ele><time>2026-04-25T07:13:29.999Z</time></trkpt><trkpt lat="45.753691760277576" lon="9.910505635028672"><ele>336.3333333333333</ele><time>2026-04-25T07:13:30.999Z</time></trkpt><trkpt lat="45.753815691877094" lon="9.910637873680257"><ele>337.0</ele><time>2026-04-25T07:13:31.999Z</time></trkpt><trkpt lat="45.75392880377922" lon="9.910788811137385"><ele>336.3333333333333</ele><time>2026-04-25T07:13:32.999Z</time></trkpt><trkpt lat="45.75404950449334" lon="9.91092628869475"><ele>335.6666666666667</ele><time>2026-04-25T07:13:33.999Z</time></trkpt><trkpt lat="45.754174038191486" lon="9.911068131994654"><ele>335.0</ele><time>2026-04-25T07:13:34.999Z</time></trkpt><trkpt lat="45.75430512121072" lon="9.911197662553272"><ele>336.0</ele><time>2026-04-25T07:13:35.999Z</time></trkpt><trkpt lat="45.75442743360485" lon="9.911342010064045"><ele>337.0</ele><time>2026-04-25T07:13:36.999Z</time></trkpt><trkpt lat="45.75455316486545" lon="9.911490930738518"><ele>338.0</ele><time>2026-04-25T07:13:37.999Z</time></trkpt><trkpt lat="45.75468400311935" lon="9.91163267694338"><ele>337.33333333333337</ele><time>2026-04-25T07:13:38.999Z</time></trkpt><trkpt lat="45.75481600856173" lon="9.911763176969792"><ele>336.6666666666667</ele><time>2026-04-25T07:13:39.999Z</time></trkpt><trkpt lat="45.7549607002964" lon="9.911883967368794"><ele>336.0</ele><time>2026-04-25T07:13:40.999Z</time></trkpt><trkpt lat="45.75510878821246" lon="9.911987935741893"><ele>336.3333333333333</ele><time>2026-04-25T07:13:41.999Z</time></trkpt><trkpt lat="45.75526453957506" lon="9.912088757383168"><ele>336.66666666666663</ele><time>2026-04-25T07:13:42.999Z</time></trkpt><trkpt lat="45.75542436470402" lon="9.912174327670991"><ele>337.0</ele><time>2026-04-25T07:13:43.999Z</time></trkpt><trkpt lat="45.75558633724263" lon="9.912244281740568"><ele>337.0</ele><time>2026-04-25T07:13:44.999Z</time></trkpt><trkpt lat="45.7557566856402" lon="9.91230905854213"><ele>337.0</ele><time>2026-04-25T07:13:45.999Z</time></trkpt><trkpt lat="45.755921444211026" lon="9.912362660146993"><ele>337.0</ele><time>2026-04-25T07:13:46.999Z</time></trkpt><trkpt lat="45.75609313118322" lon="9.91241919258194"><ele>337.0</ele><time>2026-04-25T07:13:47.999Z</time></trkpt><trkpt lat="45.756264113508834" lon="9.912473094928837"><ele>337.0</ele><time>2026-04-25T07:13:48.999Z</time></trkpt><trkpt lat="45.756430266888536" lon="9.912529163810566"><ele>337.0</ele><time>2026-04-25T07:13:49.999Z</time></trkpt><trkpt lat="45.756601772469075" lon="9.91260073650349"><ele>337.0</ele><time>2026-04-25T07:13:50.999Z</time></trkpt><trkpt lat="45.756770369776305" lon="9.912689355305334"><ele>337.0</ele><time>2026-04-25T07:13:51.999Z</time></trkpt><trkpt lat="45.75693258613673" lon="9.912787548795887"><ele>337.0</ele><time>2026-04-25T07:13:52.999Z</time></trkpt><trkpt lat="45.75709727141493" lon="9.912895806201117"><ele>336.3333333333333</ele><time>2026-04-25T07:13:53.999Z</time></trkpt><trkpt lat="45.757258824965845" lon="9.913019824930691"><ele>335.6666666666667</ele><time>2026-04-25T07:13:54.999Z</time></trkpt><trkpt lat="45.7574144753886" lon="9.913157380594651"><ele>335.0</ele><time>2026-04-25T07:13:55.999Z</time></trkpt><trkpt lat="45.75756554170241" lon="9.913306352532997"><ele>335.33333333333337</ele><time>2026-04-25T07:13:56.999Z</time></trkpt><trkpt lat="45.757710150176194" lon="9.91346608958179"><ele>335.6666666666667</ele><time>2026-04-25T07:13:57.999Z</time></trkpt><trkpt lat="45.75785134481761" lon="9.91364044816769"><ele>336.0</ele><time>2026-04-25T07:13:58.999Z</time></trkpt><trkpt lat="45.757985292632284" lon="9.913825162259926"><ele>336.0</ele><time>2026-04-25T07:13:59.999Z</time></trkpt><trkpt lat="45.75811625524643" lon="9.914020331556689"><ele>336.0</ele><time>2026-04-25T07:14:00.999Z</time></trkpt><trkpt lat="45.7582397552562" lon="9.91422077157168"><ele>336.0</ele><time>2026-04-25T07:14:01.999Z</time></trkpt><trkpt lat="45.75835529479338" lon="9.914433238265076"><ele>336.0</ele><time>2026-04-25T07:14:02.999Z</time></trkpt><trkpt lat="45.758464768471526" lon="9.91465126264709"><ele>336.0</ele><time>2026-04-25T07:14:03.999Z</time></trkpt><trkpt lat="45.75856459571028" lon="9.914881408135702"><ele>336.0</ele><time>2026-04-25T07:14:04.999Z</time></trkpt><trkpt lat="45.758661196774966" lon="9.915112793968897"><ele>336.6666666666667</ele><time>2026-04-25T07:14:05.999Z</time></trkpt><trkpt lat="45.75875258655309" lon="9.91534534977271"><ele>337.33333333333337</ele><time>2026-04-25T07:14:06.999Z</time></trkpt><trkpt lat="45.75884750645505" lon="9.915579328425737"><ele>338.0</ele><time>2026-04-25T07:14:07.999Z</time></trkpt><trkpt lat="45.75893868701251" lon="9.915814188014464"><ele>338.0</ele><time>2026-04-25T07:14:08.999Z</time></trkpt><trkpt lat="45.75902701569256" lon="9.916051029000633"><ele>338.0</ele><time>2026-04-25T07:14:09.999Z</time></trkpt><trkpt lat="45.75911666872934" lon="9.91628765559151"><ele>338.0</ele><time>2026-04-25T07:14:10.999Z</time></trkpt><trkpt lat="45.7592045579292" lon="9.916528188971746"><ele>339.0</ele><time>2026-04-25T07:14:11.999Z</time></trkpt><trkpt lat="45.759290609711364" lon="9.916767760130602"><ele>340.0</ele><time>2026-04-25T07:14:12.999Z</time></trkpt><trkpt lat="45.7593800289216" lon="9.917001912804633"><ele>341.0</ele><time>2026-04-25T07:14:13.999Z</time></trkpt><trkpt lat="45.75947434351634" lon="9.91723199021396"><ele>341.0</ele><time>2026-04-25T07:14:15Z</time></trkpt><trkpt lat="45.7595784450543" lon="9.917454588143276"><ele>341.0</ele><time>2026-04-25T07:14:16Z</time></trkpt><trkpt lat="45.75970465010188" lon="9.917649680594167"><ele>341.0</ele><time>2026-04-25T07:14:17Z</time></trkpt><trkpt lat="45.75985240169313" lon="9.91780929099831"><ele>341.33333333333337</ele><time>2026-04-25T07:14:18Z</time></trkpt><trkpt lat="45.76001672491481" lon="9.917930737675567"><ele>341.6666666666667</ele><time>2026-04-25T07:14:19Z</time></trkpt><trkpt lat="45.76018351488719" lon="9.918017442818545"><ele>342.0</ele><time>2026-04-25T07:14:20Z</time></trkpt><trkpt lat="45.760338397795394" lon="9.918087061498118"><ele>342.0</ele><time>2026-04-25T07:14:21Z</time></trkpt><trkpt lat="45.76048431979316" lon="9.918160772411614"><ele>342.0</ele><time>2026-04-25T07:14:22Z</time></trkpt><trkpt lat="45.76061169660918" lon="9.918253971790831"><ele>342.0</ele><time>2026-04-25T07:14:23Z</time></trkpt><trkpt lat="45.760725527122126" lon="9.91830041446278"><ele>342.0</ele><time>2026-04-25T07:14:24Z</time></trkpt><trkpt lat="45.760812440413304" lon="9.918394792473762"><ele>342.25</ele><time>2026-04-25T07:14:25Z</time></trkpt><trkpt lat="45.7608817823819" lon="9.918501924814278"><ele>342.5</ele><time>2026-04-25T07:14:26Z</time></trkpt><trkpt lat="45.76097626479343" lon="9.918573511686011"><ele>342.75</ele><time>2026-04-25T07:14:27Z</time></trkpt><trkpt lat="45.76110544110204" lon="9.918573935318475"><ele>343.0</ele><time>2026-04-25T07:14:28Z</time></trkpt><trkpt lat="45.761240669708734" lon="9.918583396047639"><ele>343.0</ele><time>2026-04-25T07:14:29Z</time></trkpt><trkpt lat="45.761364649618756" lon="9.918678627098567"><ele>343.0</ele><time>2026-04-25T07:14:30Z</time></trkpt><trkpt lat="45.761476868592226" lon="9.918802602922447"><ele>343.0</ele><time>2026-04-25T07:14:31Z</time></trkpt><trkpt lat="45.761580064572435" lon="9.918914601102525"><ele>343.0</ele><time>2026-04-25T07:14:32Z</time></trkpt><trkpt lat="45.76166171921018" lon="9.919026199336107"><ele>343.0</ele><time>2026-04-25T07:14:33Z</time></trkpt><trkpt lat="45.761733975217766" lon="9.919137803871289"><ele>343.0</ele><time>2026-04-25T07:14:34Z</time></trkpt><trkpt lat="45.76179861811302" lon="9.919247764841318"><ele>343.0</ele><time>2026-04-25T07:14:35Z</time></trkpt><trkpt lat="45.76189130397715" lon="9.919355964050709"><ele>343.0</ele><time>2026-04-25T07:14:36Z</time></trkpt><trkpt lat="45.76194776729781" lon="9.919457951673598"><ele>343.0</ele><time>2026-04-25T07:14:37Z</time></trkpt><trkpt lat="45.7620041206385" lon="9.91956778473163"><ele>343.0</ele><time>2026-04-25T07:14:38Z</time></trkpt><trkpt lat="45.76204393287183" lon="9.919692459960602"><ele>343.0</ele><time>2026-04-25T07:14:39Z</time></trkpt><trkpt lat="45.7620956055742" lon="9.919802237357358"><ele>343.0</ele><time>2026-04-25T07:14:40Z</time></trkpt><trkpt lat="45.76214400577752" lon="9.919905241684924"><ele>343.0</ele><time>2026-04-25T07:14:41Z</time></trkpt><trkpt lat="45.76219161055098" lon="9.920004688667278"><ele>343.0</ele><time>2026-04-25T07:14:42Z</time></trkpt><trkpt lat="45.76223678908073" lon="9.920098455359502"><ele>343.0</ele><time>2026-04-25T07:14:43Z</time></trkpt><trkpt lat="45.76228082489066" lon="9.920189850425944"><ele>343.0</ele><time>2026-04-25T07:14:44Z</time></trkpt><trkpt lat="45.76232353082832" lon="9.920279058025075"><ele>343.0</ele><time>2026-04-25T07:14:45Z</time></trkpt><trkpt lat="45.7623642596391" lon="9.920366395836163"><ele>343.0</ele><time>2026-04-25T07:14:46Z</time></trkpt><trkpt lat="45.76240245752316" lon="9.920448306311885"><ele>343.0</ele><time>2026-04-25T07:14:47Z</time></trkpt><trkpt lat="45.762438394081286" lon="9.920525280504561"><ele>343.0</ele><time>2026-04-25T07:14:48Z</time></trkpt><trkpt lat="45.76250672017231" lon="9.920657956989274"><ele>343.0</ele><time>2026-04-25T07:14:50Z</time></trkpt><trkpt lat="45.762555832863" lon="9.92075460987189"><ele>343.0</ele><time>2026-04-25T07:14:52Z</time></trkpt><trkpt lat="45.76262684699937" lon="9.920842063093032"><ele>343.0</ele><time>2026-04-25T07:14:54Z</time></trkpt><trkpt lat="45.762678471688886" lon="9.920939069106613"><ele>343.0</ele><time>2026-04-25T07:14:55Z</time></trkpt><trkpt lat="45.76274504221785" lon="9.921033423225946"><ele>343.0</ele><time>2026-04-25T07:14:56Z</time></trkpt><trkpt lat="45.7628138941269" lon="9.921128848912627"><ele>343.0</ele><time>2026-04-25T07:14:56.999Z</time></trkpt><trkpt lat="45.76288729289164" lon="9.92123540169181"><ele>342.75</ele><time>2026-04-25T07:14:57.999Z</time></trkpt><trkpt lat="45.762965853634356" lon="9.921348394733375"><ele>342.5</ele><time>2026-04-25T07:14:58.999Z</time></trkpt><trkpt lat="45.763049107161315" lon="9.921465156491236"><ele>342.25</ele><time>2026-04-25T07:14:59.999Z</time></trkpt><trkpt lat="45.76314078636413" lon="9.921581601389784"><ele>342.0</ele><time>2026-04-25T07:15:00.999Z</time></trkpt><trkpt lat="45.763233894957644" lon="9.921703450072886"><ele>342.25</ele><time>2026-04-25T07:15:01.999Z</time></trkpt><trkpt lat="45.76333148067648" lon="9.921832316076385"><ele>342.5</ele><time>2026-04-25T07:15:02.999Z</time></trkpt><trkpt lat="45.76343201872295" lon="9.921964339112773"><ele>342.75</ele><time>2026-04-25T07:15:03.999Z</time></trkpt><trkpt lat="45.763538435008044" lon="9.92210224969978"><ele>343.0</ele><time>2026-04-25T07:15:04.999Z</time></trkpt><trkpt lat="45.76364358356142" lon="9.922245337674797"><ele>343.0</ele><time>2026-04-25T07:15:05.999Z</time></trkpt><trkpt lat="45.763752242638205" lon="9.922393364257296"><ele>343.0</ele><time>2026-04-25T07:15:06.999Z</time></trkpt><trkpt lat="45.763861483968924" lon="9.92254105710278"><ele>343.0</ele><time>2026-04-25T07:15:07.999Z</time></trkpt><trkpt lat="45.76397119539153" lon="9.922687209690023"><ele>341.66666666666663</ele><time>2026-04-25T07:15:08.999Z</time></trkpt><trkpt lat="45.764081892770655" lon="9.922836710498292"><ele>340.3333333333333</ele><time>2026-04-25T07:15:09.999Z</time></trkpt><trkpt lat="45.76419416970888" lon="9.922991701551807"><ele>339.0</ele><time>2026-04-25T07:15:10.999Z</time></trkpt><trkpt lat="45.76430861535412" lon="9.923143938570794"><ele>339.3333333333333</ele><time>2026-04-25T07:15:11.999Z</time></trkpt><trkpt lat="45.764426518360956" lon="9.923297095945323"><ele>339.66666666666663</ele><time>2026-04-25T07:15:12.999Z</time></trkpt><trkpt lat="45.76454435964594" lon="9.923450384681324"><ele>340.0</ele><time>2026-04-25T07:15:13.999Z</time></trkpt><trkpt lat="45.764663673708235" lon="9.923605167288505"><ele>338.66666666666663</ele><time>2026-04-25T07:15:14.999Z</time></trkpt><trkpt lat="45.76478569579882" lon="9.92376474456483"><ele>337.3333333333333</ele><time>2026-04-25T07:15:15.999Z</time></trkpt><trkpt lat="45.76490433541559" lon="9.923922754276397"><ele>336.0</ele><time>2026-04-25T07:15:16.999Z</time></trkpt><trkpt lat="45.76502714250721" lon="9.924084570000538"><ele>335.3333333333333</ele><time>2026-04-25T07:15:17.999Z</time></trkpt><trkpt lat="45.76515260933327" lon="9.924243286282682"><ele>334.66666666666663</ele><time>2026-04-25T07:15:18.999Z</time></trkpt><trkpt lat="45.76527693735594" lon="9.92440963583716"><ele>334.0</ele><time>2026-04-25T07:15:19.999Z</time></trkpt><trkpt lat="45.76539604022762" lon="9.924586541467214"><ele>335.66666666666663</ele><time>2026-04-25T07:15:20.999Z</time></trkpt><trkpt lat="45.76549735949732" lon="9.924788678340375"><ele>337.3333333333333</ele><time>2026-04-25T07:15:21.999Z</time></trkpt><trkpt lat="45.76557883987645" lon="9.925015349049872"><ele>339.0</ele><time>2026-04-25T07:15:22.999Z</time></trkpt><trkpt lat="45.765641876476856" lon="9.925255856159174"><ele>339.0</ele><time>2026-04-25T07:15:23.999Z</time></trkpt><trkpt lat="45.76570183255619" lon="9.925505824753063"><ele>339.0</ele><time>2026-04-25T07:15:24.999Z</time></trkpt><trkpt lat="45.765772202374805" lon="9.925753909396887"><ele>339.0</ele><time>2026-04-25T07:15:25.999Z</time></trkpt><trkpt lat="45.76585480206433" lon="9.9259813228299"><ele>339.3333333333333</ele><time>2026-04-25T07:15:26.999Z</time></trkpt><trkpt lat="45.765968363840976" lon="9.92617919644245"><ele>339.66666666666663</ele><time>2026-04-25T07:15:27.999Z</time></trkpt><trkpt lat="45.76611386065519" lon="9.926342126250056"><ele>340.0</ele><time>2026-04-25T07:15:28.999Z</time></trkpt><trkpt lat="45.76628540806157" lon="9.926476563611022"><ele>340.0</ele><time>2026-04-25T07:15:29.999Z</time></trkpt><trkpt lat="45.76646879974074" lon="9.926586208447219"><ele>340.0</ele><time>2026-04-25T07:15:30.999Z</time></trkpt><trkpt lat="45.76665764268979" lon="9.926695239336587"><ele>340.0</ele><time>2026-04-25T07:15:31.999Z</time></trkpt><trkpt lat="45.7668537102848" lon="9.926807532388468"><ele>339.0</ele><time>2026-04-25T07:15:32.999Z</time></trkpt><trkpt lat="45.76707621600094" lon="9.926937709559462"><ele>338.0</ele><time>2026-04-25T07:15:33.999Z</time></trkpt><trkpt lat="45.767311649280174" lon="9.92708057039113"><ele>338.0</ele><time>2026-04-25T07:15:34.999Z</time></trkpt><trkpt lat="45.76757358287312" lon="9.927240116419677"><ele>338.0</ele><time>2026-04-25T07:15:35.999Z</time></trkpt><trkpt lat="45.767841470054236" lon="9.927415225997407"><ele>340.0</ele><time>2026-04-25T07:15:36.999Z</time></trkpt><trkpt lat="45.767766655856" lon="9.927300787814211"><ele>342.0</ele><time>2026-04-25T07:15:37.999Z</time></trkpt><trkpt lat="45.76793450623438" lon="9.927428288226624"><ele>344.0</ele><time>2026-04-25T07:15:38.999Z</time></trkpt><trkpt lat="45.76810084430275" lon="9.927559079244459"><ele>344.6666666666667</ele><time>2026-04-25T07:15:39.999Z</time></trkpt><trkpt lat="45.768252131982536" lon="9.927704084274264"><ele>345.3333333333333</ele><time>2026-04-25T07:15:40.999Z</time></trkpt><trkpt lat="45.7683993234288" lon="9.927867948352379"><ele>346.0</ele><time>2026-04-25T07:15:41.999Z</time></trkpt><trkpt lat="45.76853369142777" lon="9.92805286513316"><ele>346.0</ele><time>2026-04-25T07:15:42.999Z</time></trkpt><trkpt lat="45.76866350805899" lon="9.92824892661698"><ele>346.0</ele><time>2026-04-25T07:15:43.999Z</time></trkpt><trkpt lat="45.76880163787388" lon="9.92843200350287"><ele>346.0</ele><time>2026-04-25T07:15:44.999Z</time></trkpt><trkpt lat="45.7689312635933" lon="9.928632039193067"><ele>343.3333333333333</ele><time>2026-04-25T07:15:45.999Z</time></trkpt><trkpt lat="45.76905362597109" lon="9.928833973657735"><ele>340.6666666666667</ele><time>2026-04-25T07:15:46.999Z</time></trkpt><trkpt lat="45.76917600308719" lon="9.929038210738412"><ele>338.0</ele><time>2026-04-25T07:15:47.999Z</time></trkpt><trkpt lat="45.76930138673734" lon="9.929246141784246"><ele>339.0</ele><time>2026-04-25T07:15:48.999Z</time></trkpt><trkpt lat="45.769420646788106" lon="9.929454042169313"><ele>340.0</ele><time>2026-04-25T07:15:49.999Z</time></trkpt><trkpt lat="45.76954147118673" lon="9.929670426792166"><ele>341.0</ele><time>2026-04-25T07:15:50.999Z</time></trkpt><trkpt lat="45.76965031964016" lon="9.929873928770519"><ele>341.0</ele><time>2026-04-25T07:15:51.999Z</time></trkpt><trkpt lat="45.76972382897209" lon="9.930045051738638"><ele>341.0</ele><time>2026-04-25T07:15:52.999Z</time></trkpt><trkpt lat="45.76977828019864" lon="9.930193812538969"><ele>341.0</ele><time>2026-04-25T07:15:53.999Z</time></trkpt><trkpt lat="45.76981934181496" lon="9.930286606518607"><ele>341.0</ele><time>2026-04-25T07:15:54.999Z</time></trkpt><trkpt lat="45.76982499893558" lon="9.930405055858209"><ele>341.0</ele><time>2026-04-25T07:15:55.999Z</time></trkpt><trkpt lat="45.76986125960593" lon="9.930525368734985"><ele>340.25</ele><time>2026-04-25T07:15:56.999Z</time></trkpt><trkpt lat="45.76991198462128" lon="9.930662924010267"><ele>339.5</ele><time>2026-04-25T07:15:57.999Z</time></trkpt><trkpt lat="45.769953508743704" lon="9.930820352133724"><ele>338.75</ele><time>2026-04-25T07:15:58.999Z</time></trkpt><trkpt lat="45.77000814091672" lon="9.930988707185707"><ele>338.0</ele><time>2026-04-25T07:15:59.999Z</time></trkpt><trkpt lat="45.77006780406917" lon="9.931165673471481"><ele>337.33333333333337</ele><time>2026-04-25T07:16:00.999Z</time></trkpt><trkpt lat="45.77011803775228" lon="9.931382519822566"><ele>336.6666666666667</ele><time>2026-04-25T07:16:01.999Z</time></trkpt><trkpt lat="45.77019668299326" lon="9.931593088215005"><ele>336.0</ele><time>2026-04-25T07:16:02.999Z</time></trkpt><trkpt lat="45.77029370842617" lon="9.931808639360288"><ele>336.0</ele><time>2026-04-25T07:16:03.999Z</time></trkpt><trkpt lat="45.77041963661652" lon="9.932021244078564"><ele>336.0</ele><time>2026-04-25T07:16:04.999Z</time></trkpt><trkpt lat="45.770566319987005" lon="9.932213931054447"><ele>336.0</ele><time>2026-04-25T07:16:05.999Z</time></trkpt><trkpt lat="45.77073640442339" lon="9.932397432136936"><ele>336.0</ele><time>2026-04-25T07:16:06.999Z</time></trkpt><trkpt lat="45.770929698349505" lon="9.932548677534367"><ele>336.0</ele><time>2026-04-25T07:16:07.999Z</time></trkpt><trkpt lat="45.77112568321737" lon="9.932675062670594"><ele>336.0</ele><time>2026-04-25T07:16:08.999Z</time></trkpt><trkpt lat="45.771319454621725" lon="9.932776583180996"><ele>336.3333333333333</ele><time>2026-04-25T07:16:09.999Z</time></trkpt><trkpt lat="45.771504006680296" lon="9.932878176733002"><ele>336.66666666666663</ele><time>2026-04-25T07:16:10.999Z</time></trkpt><trkpt lat="45.77168811159274" lon="9.932976179743466"><ele>337.0</ele><time>2026-04-25T07:16:11.999Z</time></trkpt><trkpt lat="45.771867033091446" lon="9.933072890463084"><ele>338.0</ele><time>2026-04-25T07:16:12.999Z</time></trkpt><trkpt lat="45.772035020598736" lon="9.933176203434265"><ele>339.0</ele><time>2026-04-25T07:16:13.999Z</time></trkpt><trkpt lat="45.77221268089321" lon="9.933265647609494"><ele>340.0</ele><time>2026-04-25T07:16:14.999Z</time></trkpt><trkpt lat="45.77238074213321" lon="9.933365391163376"><ele>340.0</ele><time>2026-04-25T07:16:15.999Z</time></trkpt><trkpt lat="45.772541902046186" lon="9.933468169379289"><ele>340.0</ele><time>2026-04-25T07:16:16.999Z</time></trkpt><trkpt lat="45.77269345282798" lon="9.93358963593284"><ele>340.0</ele><time>2026-04-25T07:16:17.999Z</time></trkpt><trkpt lat="45.77281820135878" lon="9.93375496852901"><ele>340.0</ele><time>2026-04-25T07:16:18.999Z</time></trkpt><trkpt lat="45.77293326083637" lon="9.93390447621156"><ele>340.0</ele><time>2026-04-25T07:16:19.999Z</time></trkpt><trkpt lat="45.773053707799455" lon="9.934042444931642"><ele>340.0</ele><time>2026-04-25T07:16:21Z</time></trkpt><trkpt lat="45.77314460545731" lon="9.934216227202901"><ele>339.5</ele><time>2026-04-25T07:16:22Z</time></trkpt><trkpt lat="45.77322352196867" lon="9.934392408730133"><ele>339.0</ele><time>2026-04-25T07:16:23Z</time></trkpt><trkpt lat="45.77329023867526" lon="9.93457732035588"><ele>338.5</ele><time>2026-04-25T07:16:24Z</time></trkpt><trkpt lat="45.77333154198713" lon="9.93477855508844"><ele>338.0</ele><time>2026-04-25T07:16:25Z</time></trkpt><trkpt lat="45.77340013099052" lon="9.934976036228697"><ele>337.5</ele><time>2026-04-25T07:16:26Z</time></trkpt><trkpt lat="45.77343564659898" lon="9.935168319030138"><ele>337.0</ele><time>2026-04-25T07:16:27Z</time></trkpt><trkpt lat="45.7734624198189" lon="9.93534805903387"><ele>336.5</ele><time>2026-04-25T07:16:28Z</time></trkpt><trkpt lat="45.77348996197631" lon="9.935509922929837"><ele>336.0</ele><time>2026-04-25T07:16:29Z</time></trkpt><trkpt lat="45.773525239010844" lon="9.935660367939192"><ele>336.75</ele><time>2026-04-25T07:16:30Z</time></trkpt><trkpt lat="45.77356661696902" lon="9.935812263704703"><ele>337.5</ele><time>2026-04-25T07:16:31Z</time></trkpt><trkpt lat="45.77361474206875" lon="9.935966820552938"><ele>338.25</ele><time>2026-04-25T07:16:32Z</time></trkpt><trkpt lat="45.77366965646466" lon="9.936121321070756"><ele>339.0</ele><time>2026-04-25T07:16:33Z</time></trkpt><trkpt lat="45.77373999374606" lon="9.936272416319005"><ele>339.0</ele><time>2026-04-25T07:16:34Z</time></trkpt><trkpt lat="45.773824837370896" lon="9.936409401150888"><ele>339.0</ele><time>2026-04-25T07:16:35Z</time></trkpt><trkpt lat="45.773922415354406" lon="9.93652938536212"><ele>339.0</ele><time>2026-04-25T07:16:36Z</time></trkpt><trkpt lat="45.77402367372267" lon="9.936632983187808"><ele>339.0</ele><time>2026-04-25T07:16:37Z</time></trkpt><trkpt lat="45.77413041379966" lon="9.93670496375468"><ele>338.25</ele><time>2026-04-25T07:16:38Z</time></trkpt><trkpt lat="45.77424587637536" lon="9.936774459588515"><ele>337.5</ele><time>2026-04-25T07:16:39Z</time></trkpt><trkpt lat="45.77436971806527" lon="9.936827125992792"><ele>336.75</ele><time>2026-04-25T07:16:40Z</time></trkpt><trkpt lat="45.774492891489956" lon="9.936845158140944"><ele>336.0</ele><time>2026-04-25T07:16:41Z</time></trkpt><trkpt lat="45.77464122964524" lon="9.936839664212423"><ele>336.0</ele><time>2026-04-25T07:16:42Z</time></trkpt><trkpt lat="45.77481339933213" lon="9.936835060819527"><ele>336.0</ele><time>2026-04-25T07:16:43Z</time></trkpt><trkpt lat="45.77500450737315" lon="9.936778467331514"><ele>336.0</ele><time>2026-04-25T07:16:44Z</time></trkpt><trkpt lat="45.77520742653381" lon="9.936738455677583"><ele>337.0</ele><time>2026-04-25T07:16:45Z</time></trkpt><trkpt lat="45.775415223140214" lon="9.936708368749304"><ele>338.0</ele><time>2026-04-25T07:16:46Z</time></trkpt><trkpt lat="45.77562130591212" lon="9.936682881046334"><ele>339.0</ele><time>2026-04-25T07:16:47Z</time></trkpt><trkpt lat="45.7758256466433" lon="9.936699094062302"><ele>338.6666666666667</ele><time>2026-04-25T07:16:48Z</time></trkpt><trkpt lat="45.776030862788375" lon="9.936705265508031"><ele>338.33333333333337</ele><time>2026-04-25T07:16:49Z</time></trkpt><trkpt lat="45.77623393734847" lon="9.93674919826748"><ele>338.0</ele><time>2026-04-25T07:16:50Z</time></trkpt><trkpt lat="45.77643595543583" lon="9.93677634387886"><ele>337.33333333333337</ele><time>2026-04-25T07:16:51Z</time></trkpt><trkpt lat="45.776634068212246" lon="9.936765268370053"><ele>336.6666666666667</ele><time>2026-04-25T07:16:52Z</time></trkpt><trkpt lat="45.77682754110835" lon="9.936722042551933"><ele>336.0</ele><time>2026-04-25T07:16:53Z</time></trkpt><trkpt lat="45.77701849248843" lon="9.936647793368781"><ele>336.0</ele><time>2026-04-25T07:16:54Z</time></trkpt><trkpt lat="45.77720846161269" lon="9.936532854693166"><ele>336.0</ele><time>2026-04-25T07:16:55Z</time></trkpt><trkpt lat="45.777403560061174" lon="9.93638981613074"><ele>336.0</ele><time>2026-04-25T07:16:56Z</time></trkpt><trkpt lat="45.777621311748405" lon="9.93623363433158"><ele>335.5</ele><time>2026-04-25T07:16:56.999Z</time></trkpt><trkpt lat="45.777845974462906" lon="9.936086675273891"><ele>335.0</ele><time>2026-04-25T07:16:57.999Z</time></trkpt><trkpt lat="45.778069797335895" lon="9.935962598836296"><ele>335.0</ele><time>2026-04-25T07:16:58.999Z</time></trkpt><trkpt lat="45.77830207347035" lon="9.9358932850848"><ele>335.0</ele><time>2026-04-25T07:16:59.999Z</time></trkpt><trkpt lat="45.77853749199059" lon="9.935803876553692"><ele>337.0</ele><time>2026-04-25T07:17:00.999Z</time></trkpt><trkpt lat="45.778775481623796" lon="9.935742556400116"><ele>339.0</ele><time>2026-04-25T07:17:01.999Z</time></trkpt><trkpt lat="45.77900448723355" lon="9.935683452810105"><ele>339.0</ele><time>2026-04-25T07:17:02.999Z</time></trkpt><trkpt lat="45.7792212601502" lon="9.935625896754713"><ele>339.0</ele><time>2026-04-25T07:17:03.999Z</time></trkpt><trkpt lat="45.77943497500722" lon="9.935561476626603"><ele>339.0</ele><time>2026-04-25T07:17:04.999Z</time></trkpt><trkpt lat="45.7796476304689" lon="9.935503035023407"><ele>338.3333333333333</ele><time>2026-04-25T07:17:05.999Z</time></trkpt><trkpt lat="45.77985522245709" lon="9.9354436981911"><ele>337.66666666666663</ele><time>2026-04-25T07:17:06.999Z</time></trkpt><trkpt lat="45.78004670476007" lon="9.935401515787861"><ele>337.0</ele><time>2026-04-25T07:17:07.999Z</time></trkpt><trkpt lat="45.78023820830166" lon="9.935382592417815"><ele>337.0</ele><time>2026-04-25T07:17:08.999Z</time></trkpt><trkpt lat="45.78042562042265" lon="9.935407377580637"><ele>337.0</ele><time>2026-04-25T07:17:09.999Z</time></trkpt><trkpt lat="45.78058615086784" lon="9.935500021451995"><ele>337.0</ele><time>2026-04-25T07:17:10.999Z</time></trkpt><trkpt lat="45.78073346605596" lon="9.935594937504268"><ele>337.0</ele><time>2026-04-25T07:17:11.999Z</time></trkpt><trkpt lat="45.780868347347216" lon="9.93569610198376"><ele>337.0</ele><time>2026-04-25T07:17:12.999Z</time></trkpt><trkpt lat="45.78097601458826" lon="9.935836022265702"><ele>337.0</ele><time>2026-04-25T07:17:13.999Z</time></trkpt><trkpt lat="45.781094565348816" lon="9.935992744077172"><ele>337.66666666666663</ele><time>2026-04-25T07:17:14.999Z</time></trkpt><trkpt lat="45.78122715433483" lon="9.936174884374212"><ele>338.3333333333333</ele><time>2026-04-25T07:17:15.999Z</time></trkpt><trkpt lat="45.78138077427135" lon="9.936374800106673"><ele>339.0</ele><time>2026-04-25T07:17:16.999Z</time></trkpt><trkpt lat="45.781545836506766" lon="9.936609234423994"><ele>339.5</ele><time>2026-04-25T07:17:17.999Z</time></trkpt><trkpt lat="45.78171349467222" lon="9.936830190291023"><ele>340.0</ele><time>2026-04-25T07:17:18.999Z</time></trkpt><trkpt lat="45.78189615483336" lon="9.937036281102843"><ele>340.0</ele><time>2026-04-25T07:17:19.999Z</time></trkpt><trkpt lat="45.78209880070551" lon="9.93723539335682"><ele>340.0</ele><time>2026-04-25T07:17:20.999Z</time></trkpt><trkpt lat="45.78231879338425" lon="9.937431186384693"><ele>339.5</ele><time>2026-04-25T07:17:21.999Z</time></trkpt><trkpt lat="45.78254492169814" lon="9.937600596206428"><ele>339.0</ele><time>2026-04-25T07:17:22.999Z</time></trkpt><trkpt lat="45.782774918102916" lon="9.937714784099766"><ele>339.0</ele><time>2026-04-25T07:17:23.999Z</time></trkpt><trkpt lat="45.78299563991559" lon="9.937794730229056"><ele>339.0</ele><time>2026-04-25T07:17:24.999Z</time></trkpt><trkpt lat="45.783183986894315" lon="9.937934719376837"><ele>339.0</ele><time>2026-04-25T07:17:25.999Z</time></trkpt><trkpt lat="45.78336043838925" lon="9.938113522848017"><ele>339.5</ele><time>2026-04-25T07:17:26.999Z</time></trkpt><trkpt lat="45.783551685147245" lon="9.93828883583327"><ele>340.0</ele><time>2026-04-25T07:17:27.999Z</time></trkpt><trkpt lat="45.783734633682876" lon="9.938491242623707"><ele>340.0</ele><time>2026-04-25T07:17:28.999Z</time></trkpt><trkpt lat="45.78391899858641" lon="9.938692598000456"><ele>340.0</ele><time>2026-04-25T07:17:29.999Z</time></trkpt><trkpt lat="45.784102172865914" lon="9.93890037108708"><ele>340.0</ele><time>2026-04-25T07:17:30.999Z</time></trkpt><trkpt lat="45.78426461931149" lon="9.939140835231168"><ele>340.0</ele><time>2026-04-25T07:17:31.999Z</time></trkpt><trkpt lat="45.78442414655548" lon="9.939377623857252"><ele>340.0</ele><time>2026-04-25T07:17:32.999Z</time></trkpt><trkpt lat="45.784590724333306" lon="9.939599900351327"><ele>340.0</ele><time>2026-04-25T07:17:33.999Z</time></trkpt><trkpt lat="45.784738960298974" lon="9.93983066704824"><ele>340.0</ele><time>2026-04-25T07:17:34.999Z</time></trkpt><trkpt lat="45.78488579176601" lon="9.940055841500879"><ele>340.0</ele><time>2026-04-25T07:17:35.999Z</time></trkpt><trkpt lat="45.785031988086" lon="9.940276845450402"><ele>340.0</ele><time>2026-04-25T07:17:36.999Z</time></trkpt><trkpt lat="45.78517538331858" lon="9.940489941166856"><ele>340.0</ele><time>2026-04-25T07:17:37.999Z</time></trkpt><trkpt lat="45.78531447335308" lon="9.940701146990373"><ele>343.0</ele><time>2026-04-25T07:17:38.999Z</time></trkpt><trkpt lat="45.78543501992322" lon="9.940927352129352"><ele>346.0</ele><time>2026-04-25T07:17:39.999Z</time></trkpt><trkpt lat="45.78550101322881" lon="9.941195010300124"><ele>349.0</ele><time>2026-04-25T07:17:40.999Z</time></trkpt><trkpt lat="45.78556336581226" lon="9.941463760540048"><ele>347.0</ele><time>2026-04-25T07:17:41.999Z</time></trkpt><trkpt lat="45.78555572790907" lon="9.941748405172513"><ele>345.0</ele><time>2026-04-25T07:17:42.999Z</time></trkpt><trkpt lat="45.785525229704994" lon="9.942030107817759"><ele>343.0</ele><time>2026-04-25T07:17:43.999Z</time></trkpt><trkpt lat="45.785504220677744" lon="9.942320107677736"><ele>342.66666666666663</ele><time>2026-04-25T07:17:44.999Z</time></trkpt><trkpt lat="45.78546934067395" lon="9.942606454377778"><ele>342.3333333333333</ele><time>2026-04-25T07:17:45.999Z</time></trkpt><trkpt lat="45.78546509452934" lon="9.942879631163448"><ele>342.0</ele><time>2026-04-25T07:17:46.999Z</time></trkpt><trkpt lat="45.78548839624532" lon="9.943135934408685"><ele>342.0</ele><time>2026-04-25T07:17:47.999Z</time></trkpt><trkpt lat="45.78552897710198" lon="9.943370332669993"><ele>342.0</ele><time>2026-04-25T07:17:48.999Z</time></trkpt><trkpt lat="45.78557471143398" lon="9.943593318636239"><ele>342.0</ele><time>2026-04-25T07:17:49.999Z</time></trkpt><trkpt lat="45.78561771507406" lon="9.943816609666058"><ele>341.0</ele><time>2026-04-25T07:17:50.999Z</time></trkpt><trkpt lat="45.785658686964766" lon="9.944039567434757"><ele>340.0</ele><time>2026-04-25T07:17:51.999Z</time></trkpt><trkpt lat="45.785713680027825" lon="9.944263736581103"><ele>339.0</ele><time>2026-04-25T07:17:52.999Z</time></trkpt><trkpt lat="45.78579651990822" lon="9.94446773376982"><ele>339.0</ele><time>2026-04-25T07:17:53.999Z</time></trkpt><trkpt lat="45.785910205560235" lon="9.94464965347688"><ele>339.0</ele><time>2026-04-25T07:17:54.999Z</time></trkpt><trkpt lat="45.786033422785025" lon="9.944827116761857"><ele>339.0</ele><time>2026-04-25T07:17:55.999Z</time></trkpt><trkpt lat="45.7861563451952" lon="9.945003081381103"><ele>338.0</ele><time>2026-04-25T07:17:56.999Z</time></trkpt><trkpt lat="45.78628237420521" lon="9.94518018502789"><ele>337.0</ele><time>2026-04-25T07:17:57.999Z</time></trkpt><trkpt lat="45.78641224723238" lon="9.945356427824331"><ele>336.0</ele><time>2026-04-25T07:17:58.999Z</time></trkpt><trkpt lat="45.78654532117409" lon="9.945527997188169"><ele>336.0</ele><time>2026-04-25T07:17:59.999Z</time></trkpt><trkpt lat="45.78668128455606" lon="9.945693640761146"><ele>336.0</ele><time>2026-04-25T07:18:00.999Z</time></trkpt><trkpt lat="45.786822358652564" lon="9.945853432522394"><ele>336.0</ele><time>2026-04-25T07:18:01.999Z</time></trkpt><trkpt lat="45.786964281437555" lon="9.94600615278621"><ele>336.0</ele><time>2026-04-25T07:18:02.999Z</time></trkpt><trkpt lat="45.78710511345664" lon="9.946151531441409"><ele>336.0</ele><time>2026-04-25T07:18:03.999Z</time></trkpt><trkpt lat="45.787243653746685" lon="9.946288977001952"><ele>336.0</ele><time>2026-04-25T07:18:04.999Z</time></trkpt><trkpt lat="45.78737842952279" lon="9.94642934392105"><ele>336.0</ele><time>2026-04-25T07:18:05.999Z</time></trkpt><trkpt lat="45.78751288619932" lon="9.946569273970821"><ele>336.0</ele><time>2026-04-25T07:18:06.999Z</time></trkpt><trkpt lat="45.78764486276072" lon="9.946706740537557"><ele>336.0</ele><time>2026-04-25T07:18:07.999Z</time></trkpt><trkpt lat="45.787776427808396" lon="9.946838537562089"><ele>335.6666666666667</ele><time>2026-04-25T07:18:08.999Z</time></trkpt><trkpt lat="45.78790223715141" lon="9.94696264126733"><ele>335.33333333333337</ele><time>2026-04-25T07:18:09.999Z</time></trkpt><trkpt lat="45.78802978449989" lon="9.947075132338055"><ele>335.0</ele><time>2026-04-25T07:18:10.999Z</time></trkpt><trkpt lat="45.78817036624965" lon="9.947175450564606"><ele>335.0</ele><time>2026-04-25T07:18:11.999Z</time></trkpt><trkpt lat="45.788315898453845" lon="9.9472521715468"><ele>335.0</ele><time>2026-04-25T07:18:12.999Z</time></trkpt><trkpt lat="45.78846144637979" lon="9.947308339929442"><ele>335.0</ele><time>2026-04-25T07:18:13.999Z</time></trkpt><trkpt lat="45.788604862662275" lon="9.947362062729235"><ele>335.25</ele><time>2026-04-25T07:18:14.999Z</time></trkpt><trkpt lat="45.78874394852046" lon="9.94740789590141"><ele>335.5</ele><time>2026-04-25T07:18:15.999Z</time></trkpt><trkpt lat="45.78887726541244" lon="9.947462949442748"><ele>335.75</ele><time>2026-04-25T07:18:16.999Z</time></trkpt><trkpt lat="45.789001594028484" lon="9.947568665838869"><ele>336.0</ele><time>2026-04-25T07:18:17.999Z</time></trkpt><trkpt lat="45.7891203251182" lon="9.947685614150325"><ele>336.0</ele><time>2026-04-25T07:18:18.999Z</time></trkpt><trkpt lat="45.78922196154712" lon="9.94782936568605"><ele>336.0</ele><time>2026-04-25T07:18:19.999Z</time></trkpt><trkpt lat="45.78932637604739" lon="9.947969705669237"><ele>336.0</ele><time>2026-04-25T07:18:20.999Z</time></trkpt><trkpt lat="45.789380018095194" lon="9.948171206249473"><ele>336.0</ele><time>2026-04-25T07:18:21.999Z</time></trkpt><trkpt lat="45.78945885778876" lon="9.948350693552529"><ele>338.6666666666667</ele><time>2026-04-25T07:18:22.998Z</time></trkpt><trkpt lat="45.78952314872409" lon="9.94854600871397"><ele>341.33333333333337</ele><time>2026-04-25T07:18:23.998Z</time></trkpt><trkpt lat="45.7895915432572" lon="9.948741977363815"><ele>344.0</ele><time>2026-04-25T07:18:24.998Z</time></trkpt><trkpt lat="45.78965869452161" lon="9.948932486618878"><ele>344.0</ele><time>2026-04-25T07:18:26Z</time></trkpt><trkpt lat="45.789711127772634" lon="9.9490793487105"><ele>344.0</ele><time>2026-04-25T07:18:27Z</time></trkpt><trkpt lat="45.7897439454381" lon="9.949169039998761"><ele>344.0</ele><time>2026-04-25T07:18:28Z</time></trkpt><trkpt lat="45.78979204101255" lon="9.949284269951686"><ele>344.0</ele><time>2026-04-25T07:18:30Z</time></trkpt><trkpt lat="45.78982577166529" lon="9.949367592881925"><ele>344.0</ele><time>2026-04-25T07:18:31Z</time></trkpt><trkpt lat="45.78985701011619" lon="9.949480138076405"><ele>344.0</ele><time>2026-04-25T07:18:32Z</time></trkpt><trkpt lat="45.78989721109119" lon="9.949607796504436"><ele>342.5</ele><time>2026-04-25T07:18:33Z</time></trkpt><trkpt lat="45.7899412107126" lon="9.949738748651137"><ele>341.0</ele><time>2026-04-25T07:18:34Z</time></trkpt><trkpt lat="45.789987433304844" lon="9.949879367457505"><ele>339.5</ele><time>2026-04-25T07:18:35Z</time></trkpt><trkpt lat="45.79003809672139" lon="9.95002778013746"><ele>338.0</ele><time>2026-04-25T07:18:36Z</time></trkpt><trkpt lat="45.79009883262978" lon="9.95018406648715"><ele>337.5</ele><time>2026-04-25T07:18:37Z</time></trkpt><trkpt lat="45.79016150935779" lon="9.950341809364664"><ele>337.0</ele><time>2026-04-25T07:18:38Z</time></trkpt><trkpt lat="45.79022507590117" lon="9.95049445748329"><ele>336.5</ele><time>2026-04-25T07:18:39Z</time></trkpt><trkpt lat="45.79030052490293" lon="9.950652229569295"><ele>336.0</ele><time>2026-04-25T07:18:40Z</time></trkpt><trkpt lat="45.79038485979506" lon="9.950813786350215"><ele>336.6666666666667</ele><time>2026-04-25T07:18:41Z</time></trkpt><trkpt lat="45.79047439873868" lon="9.950981744986974"><ele>337.33333333333337</ele><time>2026-04-25T07:18:42Z</time></trkpt><trkpt lat="45.790570753157965" lon="9.95115648293456"><ele>338.0</ele><time>2026-04-25T07:18:43Z</time></trkpt><trkpt lat="45.79067572403473" lon="9.951328956788904"><ele>338.0</ele><time>2026-04-25T07:18:44Z</time></trkpt><trkpt lat="45.79077987092266" lon="9.951505020244356"><ele>338.0</ele><time>2026-04-25T07:18:45Z</time></trkpt><trkpt lat="45.790885582013104" lon="9.95168377880644"><ele>338.0</ele><time>2026-04-25T07:18:46Z</time></trkpt><trkpt lat="45.79098606214231" lon="9.951869191048235"><ele>342.0</ele><time>2026-04-25T07:18:47Z</time></trkpt><trkpt lat="45.7910722715614" lon="9.952069851424637"><ele>346.0</ele><time>2026-04-25T07:18:48Z</time></trkpt><trkpt lat="45.791129682034025" lon="9.952289568493606"><ele>350.0</ele><time>2026-04-25T07:18:49Z</time></trkpt><trkpt lat="45.79115871210958" lon="9.952532150451363"><ele>349.33333333333337</ele><time>2026-04-25T07:18:50Z</time></trkpt><trkpt lat="45.7911683956073" lon="9.95278045884956"><ele>348.6666666666667</ele><time>2026-04-25T07:18:51Z</time></trkpt><trkpt lat="45.791170131050116" lon="9.953031951368366"><ele>348.0</ele><time>2026-04-25T07:18:52Z</time></trkpt><trkpt lat="45.79117899671284" lon="9.953295263045371"><ele>347.0</ele><time>2026-04-25T07:18:53Z</time></trkpt><trkpt lat="45.791187883625334" lon="9.953559609301701"><ele>346.0</ele><time>2026-04-25T07:18:54Z</time></trkpt><trkpt lat="45.79119697622053" lon="9.953826318273311"><ele>345.0</ele><time>2026-04-25T07:18:55Z</time></trkpt><trkpt lat="45.79120675461798" lon="9.954096334826136"><ele>343.6666666666667</ele><time>2026-04-25T07:18:56Z</time></trkpt><trkpt lat="45.791229600485295" lon="9.954369141931226"><ele>342.33333333333337</ele><time>2026-04-25T07:18:56.999Z</time></trkpt><trkpt lat="45.79127825979281" lon="9.954637447316923"><ele>341.0</ele><time>2026-04-25T07:18:57.999Z</time></trkpt><trkpt lat="45.79135505533882" lon="9.954888543678102"><ele>340.0</ele><time>2026-04-25T07:18:58.999Z</time></trkpt><trkpt lat="45.79144806580662" lon="9.955126794406342"><ele>339.0</ele><time>2026-04-25T07:18:59.999Z</time></trkpt><trkpt lat="45.79154425218434" lon="9.955359138971591"><ele>338.0</ele><time>2026-04-25T07:19:00.999Z</time></trkpt><trkpt lat="45.79164271482385" lon="9.955588180008409"><ele>338.0</ele><time>2026-04-25T07:19:01.999Z</time></trkpt><trkpt lat="45.79174121528825" lon="9.955815169625824"><ele>338.0</ele><time>2026-04-25T07:19:02.999Z</time></trkpt><trkpt lat="45.7918353641792" lon="9.956039159617438"><ele>338.0</ele><time>2026-04-25T07:19:03.999Z</time></trkpt><trkpt lat="45.791927823587635" lon="9.956259058100688"><ele>341.0</ele><time>2026-04-25T07:19:04.999Z</time></trkpt><trkpt lat="45.79200591443963" lon="9.95648068928488"><ele>344.0</ele><time>2026-04-25T07:19:05.999Z</time></trkpt><trkpt lat="45.79206252996743" lon="9.9567099101508"><ele>347.0</ele><time>2026-04-25T07:19:06.999Z</time></trkpt><trkpt lat="45.79209884775177" lon="9.956947246996231"><ele>347.0</ele><time>2026-04-25T07:19:07.999Z</time></trkpt><trkpt lat="45.79211836293194" lon="9.95719101547262"><ele>347.0</ele><time>2026-04-25T07:19:08.999Z</time></trkpt><trkpt lat="45.79212027183181" lon="9.957432718970857"><ele>347.0</ele><time>2026-04-25T07:19:09.999Z</time></trkpt><trkpt lat="45.79210950393822" lon="9.957673379186561"><ele>347.33333333333337</ele><time>2026-04-25T07:19:10.999Z</time></trkpt><trkpt lat="45.79209183402754" lon="9.957910031262166"><ele>347.6666666666667</ele><time>2026-04-25T07:19:11.999Z</time></trkpt><trkpt lat="45.792069604445565" lon="9.958143710463686"><ele>348.0</ele><time>2026-04-25T07:19:12.999Z</time></trkpt><trkpt lat="45.792049748882704" lon="9.958382003129806"><ele>348.0</ele><time>2026-04-25T07:19:13.999Z</time></trkpt><trkpt lat="45.79203098753295" lon="9.95861815706619"><ele>348.0</ele><time>2026-04-25T07:19:14.999Z</time></trkpt><trkpt lat="45.792002655692485" lon="9.958851781102371"><ele>348.0</ele><time>2026-04-25T07:19:15.999Z</time></trkpt><trkpt lat="45.79196200351292" lon="9.959084736078832"><ele>349.6666666666667</ele><time>2026-04-25T07:19:16.999Z</time></trkpt><trkpt lat="45.79190980826645" lon="9.959316526006281"><ele>351.33333333333337</ele><time>2026-04-25T07:19:17.999Z</time></trkpt><trkpt lat="45.791847643471144" lon="9.95954338207566"><ele>353.0</ele><time>2026-04-25T07:19:18.999Z</time></trkpt><trkpt lat="45.79177263776617" lon="9.959768117508585"><ele>351.33333333333337</ele><time>2026-04-25T07:19:19.999Z</time></trkpt><trkpt lat="45.79168405335338" lon="9.959986593501249"><ele>349.6666666666667</ele><time>2026-04-25T07:19:20.999Z</time></trkpt><trkpt lat="45.79158495708235" lon="9.96019611623093"><ele>348.0</ele><time>2026-04-25T07:19:21.999Z</time></trkpt><trkpt lat="45.791478386342526" lon="9.96040205606809"><ele>348.0</ele><time>2026-04-25T07:19:22.999Z</time></trkpt><trkpt lat="45.791370844628936" lon="9.960608772505402"><ele>348.0</ele><time>2026-04-25T07:19:23.999Z</time></trkpt><trkpt lat="45.7912637394071" lon="9.96081619827348"><ele>348.0</ele><time>2026-04-25T07:19:24.999Z</time></trkpt><trkpt lat="45.791155557318525" lon="9.961024278542244"><ele>350.3333333333333</ele><time>2026-04-25T07:19:25.999Z</time></trkpt><trkpt lat="45.791047560609954" lon="9.961233304856549"><ele>352.66666666666663</ele><time>2026-04-25T07:19:26.999Z</time></trkpt><trkpt lat="45.79094447366269" lon="9.961445299688625"><ele>355.0</ele><time>2026-04-25T07:19:27.999Z</time></trkpt><trkpt lat="45.790849916451684" lon="9.961664504828313"><ele>350.3333333333333</ele><time>2026-04-25T07:19:28.999Z</time></trkpt><trkpt lat="45.79076685656911" lon="9.961894561158473"><ele>345.6666666666667</ele><time>2026-04-25T07:19:29.999Z</time></trkpt><trkpt lat="45.790700025741835" lon="9.962128903193598"><ele>341.0</ele><time>2026-04-25T07:19:30.999Z</time></trkpt><trkpt lat="45.79065036269434" lon="9.962366900159854"><ele>342.33333333333337</ele><time>2026-04-25T07:19:31.999Z</time></trkpt><trkpt lat="45.79061331056761" lon="9.962607569872189"><ele>343.6666666666667</ele><time>2026-04-25T07:19:32.999Z</time></trkpt><trkpt lat="45.790583485961314" lon="9.962847049353176"><ele>345.0</ele><time>2026-04-25T07:19:33.999Z</time></trkpt><trkpt lat="45.790562875124486" lon="9.9630919879585"><ele>345.0</ele><time>2026-04-25T07:19:34.999Z</time></trkpt><trkpt lat="45.790553266229196" lon="9.963342670942149"><ele>345.0</ele><time>2026-04-25T07:19:35.999Z</time></trkpt><trkpt lat="45.79054977754395" lon="9.963587177409263"><ele>345.0</ele><time>2026-04-25T07:19:36.999Z</time></trkpt><trkpt lat="45.790544770558824" lon="9.963834237846184"><ele>345.0</ele><time>2026-04-25T07:19:37.999Z</time></trkpt><trkpt lat="45.79054057080424" lon="9.964079458017908"><ele>345.0</ele><time>2026-04-25T07:19:38.999Z</time></trkpt><trkpt lat="45.79053952370884" lon="9.96432116788446"><ele>345.0</ele><time>2026-04-25T07:19:39.999Z</time></trkpt><trkpt lat="45.790541340482825" lon="9.964544129965859"><ele>344.0</ele><time>2026-04-25T07:19:40.999Z</time></trkpt><trkpt lat="45.79053996999046" lon="9.9647666991267"><ele>343.0</ele><time>2026-04-25T07:19:41.999Z</time></trkpt><trkpt lat="45.79053946443118" lon="9.964994922054757"><ele>342.0</ele><time>2026-04-25T07:19:42.999Z</time></trkpt><trkpt lat="45.79054190835291" lon="9.965228182930455"><ele>342.0</ele><time>2026-04-25T07:19:43.999Z</time></trkpt><trkpt lat="45.7905434190424" lon="9.96547102838893"><ele>342.0</ele><time>2026-04-25T07:19:44.999Z</time></trkpt><trkpt lat="45.79053987445943" lon="9.965711336332754"><ele>342.0</ele><time>2026-04-25T07:19:45.999Z</time></trkpt><trkpt lat="45.79053441988579" lon="9.96595033724776"><ele>342.6666666666667</ele><time>2026-04-25T07:19:46.999Z</time></trkpt><trkpt lat="45.790528284409895" lon="9.966182597799854"><ele>343.33333333333337</ele><time>2026-04-25T07:19:47.999Z</time></trkpt><trkpt lat="45.79051994671428" lon="9.96640712158815"><ele>344.0</ele><time>2026-04-25T07:19:48.999Z</time></trkpt><trkpt lat="45.79051359698801" lon="9.966627191461027"><ele>344.33333333333337</ele><time>2026-04-25T07:19:49.999Z</time></trkpt><trkpt lat="45.790510042834825" lon="9.966848633735774"><ele>344.6666666666667</ele><time>2026-04-25T07:19:50.999Z</time></trkpt><trkpt lat="45.790507921767656" lon="9.967075295835853"><ele>345.0</ele><time>2026-04-25T07:19:51.999Z</time></trkpt><trkpt lat="45.79050744574589" lon="9.967307063604187"><ele>345.3333333333333</ele><time>2026-04-25T07:19:52.999Z</time></trkpt><trkpt lat="45.790491927043846" lon="9.967544668379722"><ele>345.66666666666663</ele><time>2026-04-25T07:19:53.999Z</time></trkpt><trkpt lat="45.790488710741684" lon="9.967790378625912"><ele>346.0</ele><time>2026-04-25T07:19:54.999Z</time></trkpt><trkpt lat="45.79048539567613" lon="9.968043633864763"><ele>346.0</ele><time>2026-04-25T07:19:55.999Z</time></trkpt><trkpt lat="45.79048198147592" lon="9.968304462524074"><ele>346.0</ele><time>2026-04-25T07:19:56.999Z</time></trkpt><trkpt lat="45.79047851828353" lon="9.968569034029933"><ele>346.0</ele><time>2026-04-25T07:19:57.999Z</time></trkpt><trkpt lat="45.79047510022947" lon="9.968830157254315"><ele>346.0</ele><time>2026-04-25T07:19:58.999Z</time></trkpt><trkpt lat="45.790471667427255" lon="9.969092407044375"><ele>346.0</ele><time>2026-04-25T07:19:59.999Z</time></trkpt><trkpt lat="45.790483729171655" lon="9.969351722289447"><ele>346.0</ele><time>2026-04-25T07:20:00.999Z</time></trkpt><trkpt lat="45.79047277212192" lon="9.969606919646528"><ele>346.0</ele><time>2026-04-25T07:20:01.999Z</time></trkpt><trkpt lat="45.790464061578035" lon="9.969856320079305"><ele>346.0</ele><time>2026-04-25T07:20:02.999Z</time></trkpt><trkpt lat="45.790461506675854" lon="9.970100768867395"><ele>346.0</ele><time>2026-04-25T07:20:03.999Z</time></trkpt><trkpt lat="45.7904586652821" lon="9.970338900054188"><ele>345.66666666666663</ele><time>2026-04-25T07:20:04.999Z</time></trkpt><trkpt lat="45.79045741081062" lon="9.970572498119349"><ele>345.3333333333333</ele><time>2026-04-25T07:20:05.999Z</time></trkpt><trkpt lat="45.79045794720576" lon="9.97080109170318"><ele>345.0</ele><time>2026-04-25T07:20:06.999Z</time></trkpt><trkpt lat="45.79046018482526" lon="9.971027499788008"><ele>345.0</ele><time>2026-04-25T07:20:07.999Z</time></trkpt><trkpt lat="45.79046778808504" lon="9.971253239324872"><ele>345.0</ele><time>2026-04-25T07:20:08.999Z</time></trkpt><trkpt lat="45.79047552288623" lon="9.971478038742926"><ele>345.0</ele><time>2026-04-25T07:20:09.999Z</time></trkpt><trkpt lat="45.79048253293986" lon="9.971706698036005"><ele>344.6666666666667</ele><time>2026-04-25T07:20:10.999Z</time></trkpt><trkpt lat="45.79049266816529" lon="9.971936539425489"><ele>344.33333333333337</ele><time>2026-04-25T07:20:11.999Z</time></trkpt><trkpt lat="45.79050465245203" lon="9.97216520532078"><ele>344.0</ele><time>2026-04-25T07:20:12.999Z</time></trkpt><trkpt lat="45.790516598154596" lon="9.972393836573202"><ele>344.33333333333337</ele><time>2026-04-25T07:20:13.999Z</time></trkpt><trkpt lat="45.790526493337474" lon="9.972624444935795"><ele>344.6666666666667</ele><time>2026-04-25T07:20:14.999Z</time></trkpt><trkpt lat="45.79053573646931" lon="9.972851922377144"><ele>345.0</ele><time>2026-04-25T07:20:15.999Z</time></trkpt><trkpt lat="45.79054409018069" lon="9.973082364292006"><ele>345.0</ele><time>2026-04-25T07:20:16.999Z</time></trkpt><trkpt lat="45.79054964748504" lon="9.97331346249865"><ele>345.0</ele><time>2026-04-25T07:20:17.999Z</time></trkpt><trkpt lat="45.79055183748721" lon="9.973544719874246"><ele>345.0</ele><time>2026-04-25T07:20:18.999Z</time></trkpt><trkpt lat="45.79055131689635" lon="9.97377457109922"><ele>348.0</ele><time>2026-04-25T07:20:19.999Z</time></trkpt><trkpt lat="45.790547716633036" lon="9.974006157071399"><ele>351.0</ele><time>2026-04-25T07:20:20.999Z</time></trkpt><trkpt lat="45.79054188834364" lon="9.974233648994485"><ele>354.0</ele><time>2026-04-25T07:20:21.999Z</time></trkpt><trkpt lat="45.79053549202623" lon="9.974461318627474"><ele>354.3333333333333</ele><time>2026-04-25T07:20:22.998Z</time></trkpt><trkpt lat="45.79052982893859" lon="9.974682391339375"><ele>354.66666666666663</ele><time>2026-04-25T07:20:23.998Z</time></trkpt><trkpt lat="45.79052770980695" lon="9.974903538625796"><ele>355.0</ele><time>2026-04-25T07:20:24.998Z</time></trkpt><trkpt lat="45.79052879903367" lon="9.97512678147522"><ele>353.66666666666663</ele><time>2026-04-25T07:20:25.998Z</time></trkpt><trkpt lat="45.790534272925655" lon="9.975347672375024"><ele>352.3333333333333</ele><time>2026-04-25T07:20:26.998Z</time></trkpt><trkpt lat="45.79054245660732" lon="9.975565339852073"><ele>351.0</ele><time>2026-04-25T07:20:27.998Z</time></trkpt><trkpt lat="45.79055287838348" lon="9.975777511282434"><ele>350.5</ele><time>2026-04-25T07:20:28.998Z</time></trkpt><trkpt lat="45.790563631843675" lon="9.97598978692347"><ele>350.0</ele><time>2026-04-25T07:20:29.998Z</time></trkpt><trkpt lat="45.79057462628025" lon="9.976199220150448"><ele>349.5</ele><time>2026-04-25T07:20:30.998Z</time></trkpt><trkpt lat="45.79058235032325" lon="9.976400856978781"><ele>349.0</ele><time>2026-04-25T07:20:32Z</time></trkpt><trkpt lat="45.79058661362751" lon="9.976602468766016"><ele>349.0</ele><time>2026-04-25T07:20:33Z</time></trkpt><trkpt lat="45.79058990183323" lon="9.97680097412174"><ele>349.0</ele><time>2026-04-25T07:20:34Z</time></trkpt><trkpt lat="45.79059152102145" lon="9.976996991533872"><ele>349.0</ele><time>2026-04-25T07:20:35Z</time></trkpt><trkpt lat="45.79059089713692" lon="9.977190983291209"><ele>349.0</ele><time>2026-04-25T07:20:36Z</time></trkpt><trkpt lat="45.79059103008568" lon="9.977362570990552"><ele>349.0</ele><time>2026-04-25T07:20:37Z</time></trkpt><trkpt lat="45.79059097123599" lon="9.977490439515941"><ele>349.0</ele><time>2026-04-25T07:20:38Z</time></trkpt><trkpt lat="45.79058942739092" lon="9.977582504906989"><ele>349.0</ele><time>2026-04-25T07:20:39Z</time></trkpt><trkpt lat="45.790587311907444" lon="9.977692608679455"><ele>349.0</ele><time>2026-04-25T07:20:41Z</time></trkpt><trkpt lat="45.79058439179774" lon="9.977829740129701"><ele>349.0</ele><time>2026-04-25T07:20:45Z</time></trkpt><trkpt lat="45.79058331498015" lon="9.977949043864244"><ele>349.0</ele><time>2026-04-25T07:20:45.999Z</time></trkpt><trkpt lat="45.79055873233396" lon="9.97808879009441"><ele>349.25</ele><time>2026-04-25T07:20:46.999Z</time></trkpt><trkpt lat="45.79055524423189" lon="9.978236097603347"><ele>349.5</ele><time>2026-04-25T07:20:47.999Z</time></trkpt><trkpt lat="45.79056217208303" lon="9.978397575158052"><ele>349.75</ele><time>2026-04-25T07:20:48.999Z</time></trkpt><trkpt lat="45.790553472375024" lon="9.978570086008649"><ele>350.0</ele><time>2026-04-25T07:20:49.999Z</time></trkpt><trkpt lat="45.79054636824968" lon="9.978752628709483"><ele>349.5</ele><time>2026-04-25T07:20:50.999Z</time></trkpt><trkpt lat="45.79053719214255" lon="9.978937025325644"><ele>349.0</ele><time>2026-04-25T07:20:51.999Z</time></trkpt><trkpt lat="45.790527280463635" lon="9.979120286436702"><ele>348.5</ele><time>2026-04-25T07:20:52.999Z</time></trkpt><trkpt lat="45.79051378043018" lon="9.979304612571008"><ele>348.0</ele><time>2026-04-25T07:20:53.999Z</time></trkpt><trkpt lat="45.790497722671574" lon="9.979492188567619"><ele>349.0</ele><time>2026-04-25T07:20:54.999Z</time></trkpt><trkpt lat="45.7904777779397" lon="9.979683879047256"><ele>350.0</ele><time>2026-04-25T07:20:55.999Z</time></trkpt><trkpt lat="45.790457269412244" lon="9.97988217112242"><ele>351.0</ele><time>2026-04-25T07:20:56.999Z</time></trkpt><trkpt lat="45.79043597031993" lon="9.980086977336702"><ele>352.0</ele><time>2026-04-25T07:20:57.999Z</time></trkpt><trkpt lat="45.790413218723714" lon="9.980295341871333"><ele>352.0</ele><time>2026-04-25T07:20:58.999Z</time></trkpt><trkpt lat="45.79038882300997" lon="9.98051281738738"><ele>352.0</ele><time>2026-04-25T07:20:59.999Z</time></trkpt><trkpt lat="45.79036050176633" lon="9.980735111013708"><ele>352.0</ele><time>2026-04-25T07:21:00.999Z</time></trkpt><trkpt lat="45.79033015025697" lon="9.98095843487235"><ele>352.3333333333333</ele><time>2026-04-25T07:21:01.999Z</time></trkpt><trkpt lat="45.790298584111255" lon="9.98118365644911"><ele>352.6666666666667</ele><time>2026-04-25T07:21:02.999Z</time></trkpt><trkpt lat="45.790272369355925" lon="9.981402405036604"><ele>353.0</ele><time>2026-04-25T07:21:03.999Z</time></trkpt><trkpt lat="45.79025390765091" lon="9.981627694810472"><ele>354.33333333333337</ele><time>2026-04-25T07:21:04.999Z</time></trkpt><trkpt lat="45.79024578733347" lon="9.981858849982228"><ele>355.6666666666667</ele><time>2026-04-25T07:21:05.999Z</time></trkpt><trkpt lat="45.79025087269853" lon="9.982092865996824"><ele>357.0</ele><time>2026-04-25T07:21:06.999Z</time></trkpt><trkpt lat="45.790246667124244" lon="9.982330523331626"><ele>358.0</ele><time>2026-04-25T07:21:07.999Z</time></trkpt><trkpt lat="45.790266673790896" lon="9.982570322825788"><ele>359.0</ele><time>2026-04-25T07:21:08.999Z</time></trkpt><trkpt lat="45.79028858692546" lon="9.982815863883589"><ele>360.0</ele><time>2026-04-25T07:21:09.999Z</time></trkpt><trkpt lat="45.79032722458563" lon="9.98305978594616"><ele>360.0</ele><time>2026-04-25T07:21:10.999Z</time></trkpt><trkpt lat="45.79034898884808" lon="9.983310155272557"><ele>360.0</ele><time>2026-04-25T07:21:11.999Z</time></trkpt><trkpt lat="45.790371736126865" lon="9.983563580161055"><ele>360.0</ele><time>2026-04-25T07:21:12.999Z</time></trkpt><trkpt lat="45.79039505779167" lon="9.983818232398317"><ele>359.6666666666667</ele><time>2026-04-25T07:21:13.999Z</time></trkpt><trkpt lat="45.790411521107" lon="9.984075781175884"><ele>359.33333333333337</ele><time>2026-04-25T07:21:14.999Z</time></trkpt><trkpt lat="45.7904139316274" lon="9.984336316032078"><ele>359.0</ele><time>2026-04-25T07:21:15.999Z</time></trkpt><trkpt lat="45.79039900055437" lon="9.984596175291804"><ele>359.0</ele><time>2026-04-25T07:21:16.999Z</time></trkpt><trkpt lat="45.7903675032808" lon="9.984854419622113"><ele>359.0</ele><time>2026-04-25T07:21:17.999Z</time></trkpt><trkpt lat="45.79032274489416" lon="9.985105968369245"><ele>359.0</ele><time>2026-04-25T07:21:18.999Z</time></trkpt><trkpt lat="45.790270010996885" lon="9.985345925802886"><ele>357.33333333333337</ele><time>2026-04-25T07:21:19.999Z</time></trkpt><trkpt lat="45.79021910213338" lon="9.985582521149484"><ele>355.6666666666667</ele><time>2026-04-25T07:21:20.999Z</time></trkpt><trkpt lat="45.79017656651503" lon="9.985819309234843"><ele>354.0</ele><time>2026-04-25T07:21:21.999Z</time></trkpt><trkpt lat="45.79015938508686" lon="9.986067000614005"><ele>353.0</ele><time>2026-04-25T07:21:22.999Z</time></trkpt><trkpt lat="45.79016305951359" lon="9.986317020697838"><ele>352.0</ele><time>2026-04-25T07:21:23.999Z</time></trkpt><trkpt lat="45.79017980882094" lon="9.986565799405568"><ele>351.0</ele><time>2026-04-25T07:21:24.999Z</time></trkpt><trkpt lat="45.79020503785116" lon="9.986814498906176"><ele>350.3333333333333</ele><time>2026-04-25T07:21:25.999Z</time></trkpt><trkpt lat="45.79023537333228" lon="9.987062458368362"><ele>349.66666666666663</ele><time>2026-04-25T07:21:26.999Z</time></trkpt><trkpt lat="45.79026670747315" lon="9.987303596892156"><ele>349.0</ele><time>2026-04-25T07:21:27.999Z</time></trkpt><trkpt lat="45.790295020448994" lon="9.987539876345691"><ele>348.66666666666663</ele><time>2026-04-25T07:21:28.999Z</time></trkpt><trkpt lat="45.79031236015093" lon="9.987769844796041"><ele>348.3333333333333</ele><time>2026-04-25T07:21:29.999Z</time></trkpt><trkpt lat="45.79031557185074" lon="9.987985970767433"><ele>348.0</ele><time>2026-04-25T07:21:30.999Z</time></trkpt><trkpt lat="45.790305847968035" lon="9.988191231934934"><ele>348.75</ele><time>2026-04-25T07:21:31.999Z</time></trkpt><trkpt lat="45.79028275808049" lon="9.988392398985036"><ele>349.5</ele><time>2026-04-25T07:21:32.999Z</time></trkpt><trkpt lat="45.790246924469734" lon="9.988600605565182"><ele>350.25</ele><time>2026-04-25T07:21:33.999Z</time></trkpt><trkpt lat="45.79019829963386" lon="9.988809615978083"><ele>351.0</ele><time>2026-04-25T07:21:34.999Z</time></trkpt><trkpt lat="45.79013665462379" lon="9.989023318239727"><ele>349.0</ele><time>2026-04-25T07:21:35.999Z</time></trkpt><trkpt lat="45.79006010290128" lon="9.989236091217819"><ele>347.0</ele><time>2026-04-25T07:21:36.999Z</time></trkpt><trkpt lat="45.789974271057865" lon="9.989441884289375"><ele>345.0</ele><time>2026-04-25T07:21:37.999Z</time></trkpt><trkpt lat="45.789885772832946" lon="9.989643507135662"><ele>345.0</ele><time>2026-04-25T07:21:38.999Z</time></trkpt><trkpt lat="45.78977892534226" lon="9.989831741737863"><ele>345.0</ele><time>2026-04-25T07:21:39.999Z</time></trkpt><trkpt lat="45.78969216773791" lon="9.990042282017498"><ele>345.0</ele><time>2026-04-25T07:21:40.999Z</time></trkpt><trkpt lat="45.78961816066065" lon="9.990265177099634"><ele>344.6666666666667</ele><time>2026-04-25T07:21:41.999Z</time></trkpt><trkpt lat="45.7895292146725" lon="9.990475460479784"><ele>344.33333333333337</ele><time>2026-04-25T07:21:42.999Z</time></trkpt><trkpt lat="45.78944357037616" lon="9.990684827259605"><ele>344.0</ele><time>2026-04-25T07:21:43.999Z</time></trkpt><trkpt lat="45.78935828035989" lon="9.99089688397333"><ele>344.0</ele><time>2026-04-25T07:21:44.999Z</time></trkpt><trkpt lat="45.78927285413191" lon="9.99110701198967"><ele>344.0</ele><time>2026-04-25T07:21:45.999Z</time></trkpt><trkpt lat="45.78918727688516" lon="9.991317103967358"><ele>344.0</ele><time>2026-04-25T07:21:46.999Z</time></trkpt><trkpt lat="45.78910184597052" lon="9.991527234479463"><ele>344.33333333333337</ele><time>2026-04-25T07:21:47.999Z</time></trkpt><trkpt lat="45.78901733219033" lon="9.991734992061764"><ele>344.6666666666667</ele><time>2026-04-25T07:21:48.999Z</time></trkpt><trkpt lat="45.78893433878574" lon="9.991940606576954"><ele>345.0</ele><time>2026-04-25T07:21:49.999Z</time></trkpt><trkpt lat="45.78884987093687" lon="9.992143804798204"><ele>345.0</ele><time>2026-04-25T07:21:50.999Z</time></trkpt><trkpt lat="45.78876923304891" lon="9.992351378845102"><ele>345.0</ele><time>2026-04-25T07:21:51.999Z</time></trkpt><trkpt lat="45.788702642150334" lon="9.99256509561377"><ele>345.0</ele><time>2026-04-25T07:21:52.999Z</time></trkpt><trkpt lat="45.78864185983321" lon="9.992783916990112"><ele>345.6666666666667</ele><time>2026-04-25T07:21:53.999Z</time></trkpt><trkpt lat="45.78858641386258" lon="9.993004494356144"><ele>346.33333333333337</ele><time>2026-04-25T07:21:54.999Z</time></trkpt><trkpt lat="45.78853722981394" lon="9.993224153991749"><ele>347.0</ele><time>2026-04-25T07:21:55.999Z</time></trkpt><trkpt lat="45.7884958243071" lon="9.993433102327868"><ele>346.5</ele><time>2026-04-25T07:21:56.999Z</time></trkpt><trkpt lat="45.788456713294494" lon="9.993636697863977"><ele>346.0</ele><time>2026-04-25T07:21:57.999Z</time></trkpt><trkpt lat="45.78841648097541" lon="9.99383962325847"><ele>345.5</ele><time>2026-04-25T07:21:58.999Z</time></trkpt><trkpt lat="45.78837951626625" lon="9.994042172520428"><ele>345.0</ele><time>2026-04-25T07:21:59.999Z</time></trkpt><trkpt lat="45.78834454226313" lon="9.99425073798386"><ele>345.0</ele><time>2026-04-25T07:22:00.999Z</time></trkpt><trkpt lat="45.78830965203604" lon="9.994457612310056"><ele>345.0</ele><time>2026-04-25T07:22:01.999Z</time></trkpt><trkpt lat="45.788275631092446" lon="9.994667105784496"><ele>345.0</ele><time>2026-04-25T07:22:02.999Z</time></trkpt><trkpt lat="45.78823887747659" lon="9.994879599297086"><ele>345.3333333333333</ele><time>2026-04-25T07:22:03.999Z</time></trkpt><trkpt lat="45.78819692555984" lon="9.995099757031841"><ele>345.66666666666663</ele><time>2026-04-25T07:22:04.999Z</time></trkpt><trkpt lat="45.788150193531315" lon="9.995321843684149"><ele>346.0</ele><time>2026-04-25T07:22:05.999Z</time></trkpt><trkpt lat="45.78810241260884" lon="9.995543699536777"><ele>346.0</ele><time>2026-04-25T07:22:06.999Z</time></trkpt><trkpt lat="45.78805652425845" lon="9.99576538191217"><ele>346.0</ele><time>2026-04-25T07:22:07.999Z</time></trkpt><trkpt lat="45.7880077346088" lon="9.995983440032337"><ele>346.0</ele><time>2026-04-25T07:22:08.999Z</time></trkpt><trkpt lat="45.78794023864337" lon="9.996216145102668"><ele>346.25</ele><time>2026-04-25T07:22:09.999Z</time></trkpt><trkpt lat="45.78807009807851" lon="9.996349576353623"><ele>346.5</ele><time>2026-04-25T07:22:10.999Z</time></trkpt><trkpt lat="45.78804556327568" lon="9.996557473391762"><ele>346.75</ele><time>2026-04-25T07:22:11.999Z</time></trkpt><trkpt lat="45.78802639034151" lon="9.996759468211296"><ele>347.0</ele><time>2026-04-25T07:22:12.999Z</time></trkpt><trkpt lat="45.788007235201306" lon="9.996964672331817"><ele>347.5</ele><time>2026-04-25T07:22:13.999Z</time></trkpt><trkpt lat="45.78798649227205" lon="9.997171820527889"><ele>348.0</ele><time>2026-04-25T07:22:14.998Z</time></trkpt><trkpt lat="45.78796668846316" lon="9.997371372453793"><ele>348.5</ele><time>2026-04-25T07:22:15.998Z</time></trkpt><trkpt lat="45.787948801112975" lon="9.997568411798675"><ele>349.0</ele><time>2026-04-25T07:22:16.998Z</time></trkpt><trkpt lat="45.78793226721567" lon="9.997761553443553"><ele>349.5</ele><time>2026-04-25T07:22:17.998Z</time></trkpt><trkpt lat="45.787917018948384" lon="9.997957097943448"><ele>350.0</ele><time>2026-04-25T07:22:18.998Z</time></trkpt><trkpt lat="45.78790802890265" lon="9.998144560888198"><ele>350.5</ele><time>2026-04-25T07:22:19.998Z</time></trkpt><trkpt lat="45.78791215282698" lon="9.998339721512847"><ele>351.0</ele><time>2026-04-25T07:22:20.998Z</time></trkpt><trkpt lat="45.7879239363394" lon="9.998531779051469"><ele>351.25</ele><time>2026-04-25T07:22:21.998Z</time></trkpt><trkpt lat="45.78795671165812" lon="9.998710695395825"><ele>351.5</ele><time>2026-04-25T07:22:22.998Z</time></trkpt><trkpt lat="45.78801106247389" lon="9.998886648102872"><ele>351.75</ele><time>2026-04-25T07:22:23.998Z</time></trkpt><trkpt lat="45.78807951473465" lon="9.999048648486728"><ele>352.0</ele><time>2026-04-25T07:22:24.998Z</time></trkpt><trkpt lat="45.7881680306647" lon="9.999193098929766"><ele>351.5</ele><time>2026-04-25T07:22:25.998Z</time></trkpt><trkpt lat="45.78825881107829" lon="9.99932936207473"><ele>351.0</ele><time>2026-04-25T07:22:26.998Z</time></trkpt><trkpt lat="45.78834912463742" lon="9.999467930965173"><ele>350.5</ele><time>2026-04-25T07:22:27.998Z</time></trkpt><trkpt lat="45.78843424716019" lon="9.999614168346366"><ele>350.0</ele><time>2026-04-25T07:22:28.998Z</time></trkpt><trkpt lat="45.788525136800445" lon="9.999758414236608"><ele>351.25</ele><time>2026-04-25T07:22:29.998Z</time></trkpt><trkpt lat="45.7886136445631" lon="9.999903615849016"><ele>352.5</ele><time>2026-04-25T07:22:30.998Z</time></trkpt><trkpt lat="45.78870556491074" lon="10.000060012056743"><ele>353.75</ele><time>2026-04-25T07:22:31.998Z</time></trkpt><trkpt lat="45.788798161686984" lon="10.000224785613693"><ele>355.0</ele><time>2026-04-25T07:22:32.998Z</time></trkpt><trkpt lat="45.78889129335794" lon="10.000382256605617"><ele>355.0</ele><time>2026-04-25T07:22:33.998Z</time></trkpt><trkpt lat="45.78898618487311" lon="10.000546791148363"><ele>355.0</ele><time>2026-04-25T07:22:34.998Z</time></trkpt><trkpt lat="45.78908036760267" lon="10.000710937744682"><ele>355.0</ele><time>2026-04-25T07:22:35.998Z</time></trkpt><trkpt lat="45.78917902369673" lon="10.000871045689202"><ele>355.0</ele><time>2026-04-25T07:22:36.998Z</time></trkpt><trkpt lat="45.7892826552989" lon="10.001028774099128"><ele>355.0</ele><time>2026-04-25T07:22:37.999Z</time></trkpt><trkpt lat="45.78939115246205" lon="10.00117294605878"><ele>355.0</ele><time>2026-04-25T07:22:38.999Z</time></trkpt><trkpt lat="45.78950775770863" lon="10.001288508488761"><ele>355.0</ele><time>2026-04-25T07:22:39.999Z</time></trkpt><trkpt lat="45.789625763255586" lon="10.001379678182989"><ele>355.0</ele><time>2026-04-25T07:22:40.999Z</time></trkpt><trkpt lat="45.78974332116891" lon="10.0014564945026"><ele>355.0</ele><time>2026-04-25T07:22:41.999Z</time></trkpt><trkpt lat="45.78985086581368" lon="10.001546135272534"><ele>355.0</ele><time>2026-04-25T07:22:42.999Z</time></trkpt><trkpt lat="45.789951085824846" lon="10.00163647835122"><ele>355.0</ele><time>2026-04-25T07:22:43.999Z</time></trkpt><trkpt lat="45.790036924751334" lon="10.001725906498812"><ele>355.0</ele><time>2026-04-25T07:22:45Z</time></trkpt><trkpt lat="45.79010311665979" lon="10.001798263477982"><ele>355.0</ele><time>2026-04-25T07:22:46Z</time></trkpt><trkpt lat="45.79015111434174" lon="10.001866161818883"><ele>354.5</ele><time>2026-04-25T07:22:47Z</time></trkpt><trkpt lat="45.790222991093266" lon="10.001953965026255"><ele>354.0</ele><time>2026-04-25T07:22:49Z</time></trkpt><trkpt lat="45.790282613854295" lon="10.002048431192371"><ele>353.5</ele><time>2026-04-25T07:22:52Z</time></trkpt><trkpt lat="45.79031649680941" lon="10.002141033289215"><ele>353.0</ele><time>2026-04-25T07:22:54Z</time></trkpt><trkpt lat="45.79033399191722" lon="10.002296198462213"><ele>352.5</ele><time>2026-04-25T07:22:55.999Z</time></trkpt><trkpt lat="45.79033993457547" lon="10.002400453568274"><ele>352.0</ele><time>2026-04-25T07:22:56.999Z</time></trkpt><trkpt lat="45.790357843015016" lon="10.002509217769513"><ele>350.8</ele><time>2026-04-25T07:22:57.999Z</time></trkpt><trkpt lat="45.79039055650117" lon="10.002607077836743"><ele>349.6</ele><time>2026-04-25T07:22:58.999Z</time></trkpt><trkpt lat="45.79047317314772" lon="10.002674192104314"><ele>348.40000000000003</ele><time>2026-04-25T07:22:59.999Z</time></trkpt><trkpt lat="45.790569527153465" lon="10.00266656948803"><ele>347.20000000000005</ele><time>2026-04-25T07:23:00.999Z</time></trkpt><trkpt lat="45.79068066506871" lon="10.002605034704546"><ele>346.0</ele><time>2026-04-25T07:23:01.999Z</time></trkpt><trkpt lat="45.79080526124384" lon="10.002564581883062"><ele>346.0</ele><time>2026-04-25T07:23:02.999Z</time></trkpt><trkpt lat="45.790893796061994" lon="10.002548829968093"><ele>346.0</ele><time>2026-04-25T07:23:03.999Z</time></trkpt><trkpt lat="45.79099721825965" lon="10.00260226379808"><ele>346.0</ele><time>2026-04-25T07:23:04.999Z</time></trkpt><trkpt lat="45.791104992430206" lon="10.002676286658797"><ele>346.0</ele><time>2026-04-25T07:23:05.999Z</time></trkpt><trkpt lat="45.79120910230466" lon="10.002766306205652"><ele>346.0</ele><time>2026-04-25T07:23:06.999Z</time></trkpt><trkpt lat="45.79131398963937" lon="10.002867542340054"><ele>346.75</ele><time>2026-04-25T07:23:07.999Z</time></trkpt><trkpt lat="45.79141912990415" lon="10.002979416277709"><ele>347.5</ele><time>2026-04-25T07:23:08.999Z</time></trkpt><trkpt lat="45.791524767420924" lon="10.003097258786658"><ele>348.25</ele><time>2026-04-25T07:23:09.999Z</time></trkpt><trkpt lat="45.791632845550076" lon="10.003218805310325"><ele>349.0</ele><time>2026-04-25T07:23:10.999Z</time></trkpt><trkpt lat="45.79174265848076" lon="10.00334029416757"><ele>352.0</ele><time>2026-04-25T07:23:11.999Z</time></trkpt><trkpt lat="45.79185189115789" lon="10.003465369077697"><ele>355.0</ele><time>2026-04-25T07:23:12.999Z</time></trkpt><trkpt lat="45.79196025242583" lon="10.003592379660802"><ele>358.0</ele><time>2026-04-25T07:23:13.999Z</time></trkpt><trkpt lat="45.7920727832538" lon="10.003718668552361"><ele>361.0</ele><time>2026-04-25T07:23:14.999Z</time></trkpt><trkpt lat="45.79218327639645" lon="10.00384085663874"><ele>361.0</ele><time>2026-04-25T07:23:15.999Z</time></trkpt><trkpt lat="45.792293839692874" lon="10.003963160984691"><ele>361.0</ele><time>2026-04-25T07:23:16.999Z</time></trkpt><trkpt lat="45.79240406695522" lon="10.004086688861046"><ele>361.0</ele><time>2026-04-25T07:23:17.999Z</time></trkpt><trkpt lat="45.792513247415926" lon="10.004206720512737"><ele>361.0</ele><time>2026-04-25T07:23:18.999Z</time></trkpt><trkpt lat="45.7926229549994" lon="10.004329845807264"><ele>363.5</ele><time>2026-04-25T07:23:19.999Z</time></trkpt><trkpt lat="45.792736999018985" lon="10.004454882710444"><ele>366.0</ele><time>2026-04-25T07:23:20.999Z</time></trkpt><trkpt lat="45.792854349815315" lon="10.004582989991261"><ele>368.5</ele><time>2026-04-25T07:23:21.999Z</time></trkpt><trkpt lat="45.79297346632705" lon="10.004714093717196"><ele>371.0</ele><time>2026-04-25T07:23:22.999Z</time></trkpt><trkpt lat="45.79309263740735" lon="10.004849287847943"><ele>371.0</ele><time>2026-04-25T07:23:23.999Z</time></trkpt><trkpt lat="45.79321123784404" lon="10.00498248210103"><ele>371.0</ele><time>2026-04-25T07:23:24.999Z</time></trkpt><trkpt lat="45.7933286575766" lon="10.005110033882389"><ele>371.0</ele><time>2026-04-25T07:23:25.999Z</time></trkpt><trkpt lat="45.79344505863843" lon="10.005242668896253"><ele>371.0</ele><time>2026-04-25T07:23:26.999Z</time></trkpt><trkpt lat="45.79355933371426" lon="10.005387960607765"><ele>370.0</ele><time>2026-04-25T07:23:27.999Z</time></trkpt><trkpt lat="45.79366548114584" lon="10.005548645848966"><ele>369.0</ele><time>2026-04-25T07:23:28.999Z</time></trkpt><trkpt lat="45.79375908349343" lon="10.005732006706866"><ele>368.0</ele><time>2026-04-25T07:23:29.999Z</time></trkpt><trkpt lat="45.79383678366899" lon="10.005930834107478"><ele>361.0</ele><time>2026-04-25T07:23:30.999Z</time></trkpt><trkpt lat="45.79387913862676" lon="10.006153920528133"><ele>354.0</ele><time>2026-04-25T07:23:31.999Z</time></trkpt><trkpt lat="45.79391427567952" lon="10.00637889202659"><ele>347.0</ele><time>2026-04-25T07:23:32.999Z</time></trkpt><trkpt lat="45.7939499135775" lon="10.00659747843926"><ele>346.33333333333337</ele><time>2026-04-25T07:23:33.999Z</time></trkpt><trkpt lat="45.7939610176721" lon="10.00681876311029"><ele>345.6666666666667</ele><time>2026-04-25T07:23:34.999Z</time></trkpt><trkpt lat="45.79397625035907" lon="10.007036550572264"><ele>345.0</ele><time>2026-04-25T07:23:35.999Z</time></trkpt><trkpt lat="45.7939934228485" lon="10.007254538037401"><ele>345.0</ele><time>2026-04-25T07:23:36.999Z</time></trkpt><trkpt lat="45.79400995016907" lon="10.007467506211652"><ele>345.0</ele><time>2026-04-25T07:23:37.999Z</time></trkpt><trkpt lat="45.79402477040202" lon="10.00766726593859"><ele>345.0</ele><time>2026-04-25T07:23:38.999Z</time></trkpt><trkpt lat="45.79404068183357" lon="10.007856916988722"><ele>345.0</ele><time>2026-04-25T07:23:39.999Z</time></trkpt><trkpt lat="45.794061307914994" lon="10.00803496579943"><ele>345.5</ele><time>2026-04-25T07:23:40.999Z</time></trkpt><trkpt lat="45.794091253200364" lon="10.008207741818683"><ele>346.0</ele><time>2026-04-25T07:23:41.999Z</time></trkpt><trkpt lat="45.794137301868865" lon="10.008372363883181"><ele>346.5</ele><time>2026-04-25T07:23:42.999Z</time></trkpt><trkpt lat="45.79419925450821" lon="10.008523224348453"><ele>347.0</ele><time>2026-04-25T07:23:43.999Z</time></trkpt><trkpt lat="45.794271884659366" lon="10.008662154824021"><ele>347.0</ele><time>2026-04-25T07:23:44.999Z</time></trkpt><trkpt lat="45.79435167964094" lon="10.008793944954185"><ele>347.0</ele><time>2026-04-25T07:23:45.999Z</time></trkpt><trkpt lat="45.79444003509286" lon="10.008919500389316"><ele>347.0</ele><time>2026-04-25T07:23:46.999Z</time></trkpt><trkpt lat="45.79453977678742" lon="10.009031507476305"><ele>347.0</ele><time>2026-04-25T07:23:47.999Z</time></trkpt><trkpt lat="45.79464308426746" lon="10.009134721246118"><ele>347.0</ele><time>2026-04-25T07:23:48.999Z</time></trkpt><trkpt lat="45.79475197401457" lon="10.009235290164236"><ele>347.0</ele><time>2026-04-25T07:23:49.999Z</time></trkpt><trkpt lat="45.79486169644399" lon="10.009338174640952"><ele>347.0</ele><time>2026-04-25T07:23:50.999Z</time></trkpt><trkpt lat="45.79497195424597" lon="10.009444931926815"><ele>347.0</ele><time>2026-04-25T07:23:51.999Z</time></trkpt><trkpt lat="45.79508396378935" lon="10.00955324506"><ele>347.0</ele><time>2026-04-25T07:23:52.999Z</time></trkpt><trkpt lat="45.7951948218713" lon="10.009662108522818"><ele>347.0</ele><time>2026-04-25T07:23:53.999Z</time></trkpt><trkpt lat="45.7953044620778" lon="10.009768490627138"><ele>347.0</ele><time>2026-04-25T07:23:54.999Z</time></trkpt><trkpt lat="45.79541570106431" lon="10.009873850149475"><ele>347.0</ele><time>2026-04-25T07:23:55.999Z</time></trkpt><trkpt lat="45.795526424624164" lon="10.009978485028368"><ele>347.75</ele><time>2026-04-25T07:23:56.999Z</time></trkpt><trkpt lat="45.79563511453352" lon="10.010085924055897"><ele>348.5</ele><time>2026-04-25T07:23:57.999Z</time></trkpt><trkpt lat="45.79573829213608" lon="10.010192070721617"><ele>349.25</ele><time>2026-04-25T07:23:58.999Z</time></trkpt><trkpt lat="45.79583699810032" lon="10.010297524686226"><ele>350.0</ele><time>2026-04-25T07:23:59.999Z</time></trkpt><trkpt lat="45.795936364722294" lon="10.01040782925816"><ele>350.0</ele><time>2026-04-25T07:24:00.999Z</time></trkpt><trkpt lat="45.796037608252774" lon="10.010521137092072"><ele>350.0</ele><time>2026-04-25T07:24:01.999Z</time></trkpt><trkpt lat="45.796140246109715" lon="10.010638835569608"><ele>350.0</ele><time>2026-04-25T07:24:02.999Z</time></trkpt><trkpt lat="45.796242550614636" lon="10.010762708469013"><ele>350.0</ele><time>2026-04-25T07:24:03.999Z</time></trkpt><trkpt lat="45.79634313208622" lon="10.01088694840935"><ele>350.0</ele><time>2026-04-25T07:24:04.999Z</time></trkpt><trkpt lat="45.79644374219534" lon="10.011012684238969"><ele>350.0</ele><time>2026-04-25T07:24:05.999Z</time></trkpt><trkpt lat="45.79654477724562" lon="10.011138741194305"><ele>350.0</ele><time>2026-04-25T07:24:06.999Z</time></trkpt><trkpt lat="45.79664607419205" lon="10.011266275652945"><ele>350.0</ele><time>2026-04-25T07:24:07.999Z</time></trkpt><trkpt lat="45.79674693631464" lon="10.011392523328642"><ele>349.75</ele><time>2026-04-25T07:24:08.999Z</time></trkpt><trkpt lat="45.79684921456941" lon="10.01152233208852"><ele>349.5</ele><time>2026-04-25T07:24:09.999Z</time></trkpt><trkpt lat="45.796952946895104" lon="10.01165387413607"><ele>349.25</ele><time>2026-04-25T07:24:10.999Z</time></trkpt><trkpt lat="45.79705911141951" lon="10.011787060440659"><ele>349.0</ele><time>2026-04-25T07:24:11.999Z</time></trkpt><trkpt lat="45.79716271626488" lon="10.011921314979663"><ele>349.0</ele><time>2026-04-25T07:24:12.999Z</time></trkpt><trkpt lat="45.79726978641389" lon="10.01205935513125"><ele>349.0</ele><time>2026-04-25T07:24:13.999Z</time></trkpt><trkpt lat="45.79737266613831" lon="10.012198255356507"><ele>349.0</ele><time>2026-04-25T07:24:14.999Z</time></trkpt><trkpt lat="45.797480172025296" lon="10.012332675764108"><ele>349.0</ele><time>2026-04-25T07:24:15.999Z</time></trkpt><trkpt lat="45.79758622007963" lon="10.012472910263513"><ele>349.25</ele><time>2026-04-25T07:24:16.999Z</time></trkpt><trkpt lat="45.79769379669176" lon="10.012614610542785"><ele>349.5</ele><time>2026-04-25T07:24:17.999Z</time></trkpt><trkpt lat="45.79779904112807" lon="10.012765419261198"><ele>349.75</ele><time>2026-04-25T07:24:18.999Z</time></trkpt><trkpt lat="45.797899348937136" lon="10.012920671112441"><ele>350.0</ele><time>2026-04-25T07:24:19.999Z</time></trkpt><trkpt lat="45.79799412283005" lon="10.013083680820655"><ele>350.0</ele><time>2026-04-25T07:24:20.999Z</time></trkpt><trkpt lat="45.79807972751078" lon="10.013255002579827"><ele>350.0</ele><time>2026-04-25T07:24:21.998Z</time></trkpt><trkpt lat="45.798157329167886" lon="10.01342780362489"><ele>350.0</ele><time>2026-04-25T07:24:22.998Z</time></trkpt><trkpt lat="45.79822944270402" lon="10.013611440401963"><ele>350.0</ele><time>2026-04-25T07:24:23.998Z</time></trkpt><trkpt lat="45.79829982888291" lon="10.013802561013986"><ele>348.75</ele><time>2026-04-25T07:24:24.998Z</time></trkpt><trkpt lat="45.79836539512384" lon="10.013990154252445"><ele>347.5</ele><time>2026-04-25T07:24:25.998Z</time></trkpt><trkpt lat="45.79843244461953" lon="10.014180345178222"><ele>346.25</ele><time>2026-04-25T07:24:26.998Z</time></trkpt><trkpt lat="45.79849896819627" lon="10.014365432438042"><ele>345.0</ele><time>2026-04-25T07:24:27.998Z</time></trkpt><trkpt lat="45.79855960094104" lon="10.014537135429388"><ele>345.0</ele><time>2026-04-25T07:24:28.998Z</time></trkpt><trkpt lat="45.79861679499978" lon="10.014693440886496"><ele>345.0</ele><time>2026-04-25T07:24:29.998Z</time></trkpt><trkpt lat="45.79867179036583" lon="10.014841382639023"><ele>345.0</ele><time>2026-04-25T07:24:30.998Z</time></trkpt><trkpt lat="45.79872239635193" lon="10.014984239620876"><ele>345.0</ele><time>2026-04-25T07:24:31.998Z</time></trkpt><trkpt lat="45.798778172425635" lon="10.015134230509247"><ele>344.5</ele><time>2026-04-25T07:24:32.998Z</time></trkpt><trkpt lat="45.798821118706364" lon="10.015302445980625"><ele>344.0</ele><time>2026-04-25T07:24:33.998Z</time></trkpt><trkpt lat="45.79887813073218" lon="10.015466263963985"><ele>343.5</ele><time>2026-04-25T07:24:34.998Z</time></trkpt><trkpt lat="45.7989369959624" lon="10.015636469053389"><ele>343.0</ele><time>2026-04-25T07:24:35.998Z</time></trkpt><trkpt lat="45.79899688043435" lon="10.01580948901041"><ele>343.0</ele><time>2026-04-25T07:24:36.998Z</time></trkpt><trkpt lat="45.799073868840566" lon="10.01597841822159"><ele>343.0</ele><time>2026-04-25T07:24:37.998Z</time></trkpt><trkpt lat="45.79913806864621" lon="10.016163782605224"><ele>343.0</ele><time>2026-04-25T07:24:38.998Z</time></trkpt><trkpt lat="45.799190496906185" lon="10.0163703527234"><ele>343.0</ele><time>2026-04-25T07:24:39.998Z</time></trkpt><trkpt lat="45.79925579616222" lon="10.016570015261141"><ele>343.25</ele><time>2026-04-25T07:24:40.998Z</time></trkpt><trkpt lat="45.79932256487441" lon="10.01676682765745"><ele>343.5</ele><time>2026-04-25T07:24:41.998Z</time></trkpt><trkpt lat="45.799384814880746" lon="10.01694880022013"><ele>343.75</ele><time>2026-04-25T07:24:42.998Z</time></trkpt><trkpt lat="45.79945699460314" lon="10.017116895352888"><ele>344.0</ele><time>2026-04-25T07:24:43.999Z</time></trkpt><trkpt lat="45.799510599460326" lon="10.017281164017726"><ele>344.0</ele><time>2026-04-25T07:24:45Z</time></trkpt><trkpt lat="45.79956436129968" lon="10.017438521879306"><ele>344.0</ele><time>2026-04-25T07:24:45.999Z</time></trkpt><trkpt lat="45.79961999047469" lon="10.017591494173502"><ele>344.0</ele><time>2026-04-25T07:24:47Z</time></trkpt><trkpt lat="45.799679307188875" lon="10.017746385539313"><ele>344.0</ele><time>2026-04-25T07:24:48Z</time></trkpt><trkpt lat="45.79974011117645" lon="10.01790223381929"><ele>344.0</ele><time>2026-04-25T07:24:49Z</time></trkpt><trkpt lat="45.79980413367633" lon="10.01805504131462"><ele>344.0</ele><time>2026-04-25T07:24:50Z</time></trkpt><trkpt lat="45.79986542801566" lon="10.018210846408559"><ele>344.0</ele><time>2026-04-25T07:24:51Z</time></trkpt><trkpt lat="45.79992141958488" lon="10.018363818088554"><ele>344.0</ele><time>2026-04-25T07:24:52Z</time></trkpt><trkpt lat="45.79997574862497" lon="10.018516045758185"><ele>344.0</ele><time>2026-04-25T07:24:53Z</time></trkpt><trkpt lat="45.80002723917989" lon="10.018672335626409"><ele>344.0</ele><time>2026-04-25T07:24:54Z</time></trkpt><trkpt lat="45.80007741979323" lon="10.018831286525314"><ele>344.0</ele><time>2026-04-25T07:24:55Z</time></trkpt><trkpt lat="45.800131184698934" lon="10.018992102533458"><ele>344.0</ele><time>2026-04-25T07:24:56Z</time></trkpt><trkpt lat="45.800193175294176" lon="10.01915009755658"><ele>343.5</ele><time>2026-04-25T07:24:57Z</time></trkpt><trkpt lat="45.8002679554945" lon="10.019293206959128"><ele>343.0</ele><time>2026-04-25T07:24:58Z</time></trkpt><trkpt lat="45.80035170623217" lon="10.019429986434734"><ele>342.5</ele><time>2026-04-25T07:24:59Z</time></trkpt><trkpt lat="45.80044515644502" lon="10.01955115459684"><ele>342.0</ele><time>2026-04-25T07:25:00Z</time></trkpt><trkpt lat="45.80054591360387" lon="10.019664727792698"><ele>342.0</ele><time>2026-04-25T07:25:00.999Z</time></trkpt><trkpt lat="45.800652009656936" lon="10.019772198381421"><ele>342.0</ele><time>2026-04-25T07:25:01.999Z</time></trkpt><trkpt lat="45.8007650776203" lon="10.019875102735647"><ele>342.0</ele><time>2026-04-25T07:25:02.999Z</time></trkpt><trkpt lat="45.80088317453245" lon="10.01997229438148"><ele>342.0</ele><time>2026-04-25T07:25:03.999Z</time></trkpt><trkpt lat="45.80100605123542" lon="10.020070730462827"><ele>342.75</ele><time>2026-04-25T07:25:04.999Z</time></trkpt><trkpt lat="45.80113396490682" lon="10.020168642769944"><ele>343.5</ele><time>2026-04-25T07:25:05.999Z</time></trkpt><trkpt lat="45.80126361093875" lon="10.02026102760099"><ele>344.25</ele><time>2026-04-25T07:25:06.999Z</time></trkpt><trkpt lat="45.801398518352656" lon="10.020350737204494"><ele>345.0</ele><time>2026-04-25T07:25:07.999Z</time></trkpt><trkpt lat="45.801542637645426" lon="10.020437056252566"><ele>345.0</ele><time>2026-04-25T07:25:08.999Z</time></trkpt><trkpt lat="45.801690802033846" lon="10.020521514378535"><ele>345.0</ele><time>2026-04-25T07:25:09.999Z</time></trkpt><trkpt lat="45.801839191091325" lon="10.020606341734391"><ele>345.0</ele><time>2026-04-25T07:25:10.999Z</time></trkpt><trkpt lat="45.801985759079585" lon="10.020690081909741"><ele>345.0</ele><time>2026-04-25T07:25:11.999Z</time></trkpt><trkpt lat="45.80213177475312" lon="10.020773359503064"><ele>345.0</ele><time>2026-04-25T07:25:12.999Z</time></trkpt><trkpt lat="45.8022755904363" lon="10.020854410054625"><ele>345.0</ele><time>2026-04-25T07:25:13.999Z</time></trkpt><trkpt lat="45.802417021913755" lon="10.020934188437414"><ele>345.0</ele><time>2026-04-25T07:25:14.999Z</time></trkpt><trkpt lat="45.80255715262851" lon="10.021013521415595"><ele>345.0</ele><time>2026-04-25T07:25:15.999Z</time></trkpt><trkpt lat="45.80269431186934" lon="10.021092026779188"><ele>345.0</ele><time>2026-04-25T07:25:16.999Z</time></trkpt><trkpt lat="45.80282752885883" lon="10.021171417645451"><ele>345.0</ele><time>2026-04-25T07:25:17.999Z</time></trkpt><trkpt lat="45.80295991300454" lon="10.021253225994895"><ele>345.0</ele><time>2026-04-25T07:25:18.999Z</time></trkpt><trkpt lat="45.803087713997506" lon="10.021339137443707"><ele>345.0</ele><time>2026-04-25T07:25:19.999Z</time></trkpt><trkpt lat="45.80321353109101" lon="10.02143768640136"><ele>345.0</ele><time>2026-04-25T07:25:20.999Z</time></trkpt><trkpt lat="45.80333498314037" lon="10.021545100820033"><ele>345.0</ele><time>2026-04-25T07:25:21.999Z</time></trkpt><trkpt lat="45.80345361365194" lon="10.021661990876675"><ele>344.75</ele><time>2026-04-25T07:25:22.999Z</time></trkpt><trkpt lat="45.8035668071744" lon="10.021788411425034"><ele>344.5</ele><time>2026-04-25T07:25:23.999Z</time></trkpt><trkpt lat="45.80367780430044" lon="10.021925569356233"><ele>344.25</ele><time>2026-04-25T07:25:24.999Z</time></trkpt><trkpt lat="45.8037835076054" lon="10.022072479988008"><ele>344.0</ele><time>2026-04-25T07:25:25.999Z</time></trkpt><trkpt lat="45.80388762933943" lon="10.022226940646982"><ele>344.0</ele><time>2026-04-25T07:25:26.999Z</time></trkpt><trkpt lat="45.80398836944662" lon="10.022384829187985"><ele>344.0</ele><time>2026-04-25T07:25:27.999Z</time></trkpt><trkpt lat="45.80408811183151" lon="10.02254724173683"><ele>344.0</ele><time>2026-04-25T07:25:28.999Z</time></trkpt><trkpt lat="45.80418871464534" lon="10.022717489763243"><ele>344.33333333333337</ele><time>2026-04-25T07:25:29.999Z</time></trkpt><trkpt lat="45.80427453361706" lon="10.02290943104788"><ele>344.6666666666667</ele><time>2026-04-25T07:25:30.999Z</time></trkpt><trkpt lat="45.804376399310584" lon="10.023089448846841"><ele>345.0</ele><time>2026-04-25T07:25:31.999Z</time></trkpt><trkpt lat="45.80448551420139" lon="10.023274262382127"><ele>345.6666666666667</ele><time>2026-04-25T07:25:32.999Z</time></trkpt><trkpt lat="45.804600042042395" lon="10.023450165642517"><ele>346.33333333333337</ele><time>2026-04-25T07:25:33.999Z</time></trkpt><trkpt lat="45.8047311407982" lon="10.023598681001628"><ele>347.0</ele><time>2026-04-25T07:25:34.999Z</time></trkpt><trkpt lat="45.80485675389723" lon="10.023762266574602"><ele>347.0</ele><time>2026-04-25T07:25:35.999Z</time></trkpt><trkpt lat="45.80498448774969" lon="10.023906182573546"><ele>347.0</ele><time>2026-04-25T07:25:36.999Z</time></trkpt><trkpt lat="45.80511250878306" lon="10.024026688065018"><ele>347.0</ele><time>2026-04-25T07:25:37.999Z</time></trkpt><trkpt lat="45.80526386424488" lon="10.024180513471658"><ele>346.33333333333337</ele><time>2026-04-25T07:25:38.999Z</time></trkpt><trkpt lat="45.80540274935877" lon="10.024309490056416"><ele>345.6666666666667</ele><time>2026-04-25T07:25:39.999Z</time></trkpt><trkpt lat="45.80553568058097" lon="10.024449716189535"><ele>345.0</ele><time>2026-04-25T07:25:40.999Z</time></trkpt><trkpt lat="45.80566295464293" lon="10.024598181899158"><ele>345.0</ele><time>2026-04-25T07:25:41.999Z</time></trkpt><trkpt lat="45.805784888841245" lon="10.02476151152702"><ele>345.0</ele><time>2026-04-25T07:25:42.999Z</time></trkpt><trkpt lat="45.80590255700579" lon="10.024933578531673"><ele>345.0</ele><time>2026-04-25T07:25:43.999Z</time></trkpt><trkpt lat="45.806013860132836" lon="10.02510553524158"><ele>344.3333333333333</ele><time>2026-04-25T07:25:44.999Z</time></trkpt><trkpt lat="45.80611709182001" lon="10.025286467905262"><ele>343.66666666666663</ele><time>2026-04-25T07:25:45.999Z</time></trkpt><trkpt lat="45.80621418518919" lon="10.025467908631228"><ele>343.0</ele><time>2026-04-25T07:25:46.999Z</time></trkpt><trkpt lat="45.80630572595371" lon="10.02566115361814"><ele>344.3333333333333</ele><time>2026-04-25T07:25:47.999Z</time></trkpt><trkpt lat="45.806386049278785" lon="10.025849556261278"><ele>345.6666666666667</ele><time>2026-04-25T07:25:48.999Z</time></trkpt><trkpt lat="45.80647023123381" lon="10.026038184428524"><ele>347.0</ele><time>2026-04-25T07:25:49.999Z</time></trkpt><trkpt lat="45.8065404871036" lon="10.026236819887867"><ele>347.0</ele><time>2026-04-25T07:25:50.999Z</time></trkpt><trkpt lat="45.80660448611184" lon="10.026431389930604"><ele>347.0</ele><time>2026-04-25T07:25:51.999Z</time></trkpt><trkpt lat="45.806636615083264" lon="10.026630259454032"><ele>347.0</ele><time>2026-04-25T07:25:52.999Z</time></trkpt><trkpt lat="45.80668373444852" lon="10.02682177949274"><ele>347.0</ele><time>2026-04-25T07:25:53.999Z</time></trkpt><trkpt lat="45.80672962240627" lon="10.027028614554597"><ele>347.0</ele><time>2026-04-25T07:25:54.999Z</time></trkpt><trkpt lat="45.806765216111316" lon="10.027225437261187"><ele>347.0</ele><time>2026-04-25T07:25:55.999Z</time></trkpt><trkpt lat="45.80682737664761" lon="10.027605990850313"><ele>347.0</ele><time>2026-04-25T07:25:56.999Z</time></trkpt><trkpt lat="45.806858480830606" lon="10.027902928222657"><ele>347.0</ele><time>2026-04-25T07:25:57.999Z</time></trkpt><trkpt lat="45.80688794755256" lon="10.028183684471319"><ele>347.0</ele><time>2026-04-25T07:25:58.999Z</time></trkpt><trkpt lat="45.806915071463905" lon="10.028462781195413"><ele>347.0</ele><time>2026-04-25T07:25:59.999Z</time></trkpt><trkpt lat="45.80695413051175" lon="10.028684202483143"><ele>348.6666666666667</ele><time>2026-04-25T07:26:01.999Z</time></trkpt><trkpt lat="45.80698273488033" lon="10.02891844183748"><ele>350.3333333333333</ele><time>2026-04-25T07:26:02.999Z</time></trkpt><trkpt lat="45.80701191207837" lon="10.02915737230519"><ele>352.0</ele><time>2026-04-25T07:26:03.999Z</time></trkpt><trkpt lat="45.80705553890908" lon="10.029819419414162"><ele>353.0</ele><time>2026-04-25T07:26:04.999Z</time></trkpt><trkpt lat="45.807088219143274" lon="10.030088957836412"><ele>354.0</ele><time>2026-04-25T07:26:05.999Z</time></trkpt><trkpt lat="45.8071182529887" lon="10.030360215785171"><ele>355.0</ele><time>2026-04-25T07:26:06.999Z</time></trkpt><trkpt lat="45.80714701849635" lon="10.030634759131951"><ele>354.0</ele><time>2026-04-25T07:26:07.999Z</time></trkpt><trkpt lat="45.80717871653215" lon="10.030908957632994"><ele>353.0</ele><time>2026-04-25T07:26:08.999Z</time></trkpt><trkpt lat="45.807210522874314" lon="10.031198233236811"><ele>352.0</ele><time>2026-04-25T07:26:09.999Z</time></trkpt><trkpt lat="45.80726598937251" lon="10.031397535592232"><ele>350.3333333333333</ele><time>2026-04-25T07:26:10.999Z</time></trkpt><trkpt lat="45.80730289041328" lon="10.031662833802717"><ele>348.6666666666667</ele><time>2026-04-25T07:26:11.999Z</time></trkpt><trkpt lat="45.80733227057547" lon="10.031940394030633"><ele>347.0</ele><time>2026-04-25T07:26:12.999Z</time></trkpt><trkpt lat="45.807361480885994" lon="10.032215336906335"><ele>346.0</ele><time>2026-04-25T07:26:13.999Z</time></trkpt><trkpt lat="45.80740861680034" lon="10.03251541190592"><ele>345.0</ele><time>2026-04-25T07:26:14.999Z</time></trkpt><trkpt lat="45.80742514843839" lon="10.032790724189415"><ele>344.0</ele><time>2026-04-25T07:26:15.999Z</time></trkpt><trkpt lat="45.807433100509044" lon="10.0330720860955"><ele>343.33333333333337</ele><time>2026-04-25T07:26:16.999Z</time></trkpt><trkpt lat="45.80744371403997" lon="10.033353346066693"><ele>342.6666666666667</ele><time>2026-04-25T07:26:17.999Z</time></trkpt><trkpt lat="45.80745017604924" lon="10.03364558002129"><ele>342.0</ele><time>2026-04-25T07:26:18.999Z</time></trkpt><trkpt lat="45.80744395340847" lon="10.033938688431533"><ele>342.3333333333333</ele><time>2026-04-25T07:26:19.999Z</time></trkpt><trkpt lat="45.80742429217576" lon="10.034232148247028"><ele>342.66666666666663</ele><time>2026-04-25T07:26:20.999Z</time></trkpt><trkpt lat="45.80739684626752" lon="10.03452290876041"><ele>343.0</ele><time>2026-04-25T07:26:21.999Z</time></trkpt><trkpt lat="45.807360659407145" lon="10.034819917191117"><ele>344.3333333333333</ele><time>2026-04-25T07:26:22.999Z</time></trkpt><trkpt lat="45.80731853798963" lon="10.035113520130595"><ele>345.6666666666667</ele><time>2026-04-25T07:26:23.999Z</time></trkpt><trkpt lat="45.80727217224497" lon="10.035407958713265"><ele>347.0</ele><time>2026-04-25T07:26:24.999Z</time></trkpt><trkpt lat="45.80722184020825" lon="10.035705986183915"><ele>347.33333333333337</ele><time>2026-04-25T07:26:25.999Z</time></trkpt><trkpt lat="45.80716491066395" lon="10.036003756888181"><ele>347.6666666666667</ele><time>2026-04-25T07:26:26.999Z</time></trkpt><trkpt lat="45.80710520199177" lon="10.036297199283007"><ele>348.0</ele><time>2026-04-25T07:26:27.999Z</time></trkpt><trkpt lat="45.80704557750143" lon="10.036594888117413"><ele>344.3333333333333</ele><time>2026-04-25T07:26:28.999Z</time></trkpt><trkpt lat="45.80698156025867" lon="10.036891412188853"><ele>340.66666666666663</ele><time>2026-04-25T07:26:29.999Z</time></trkpt><trkpt lat="45.80691641624683" lon="10.037192059558924"><ele>337.0</ele><time>2026-04-25T07:26:30.998Z</time></trkpt><trkpt lat="45.80684948983296" lon="10.037489902424289"><ele>336.3333333333333</ele><time>2026-04-25T07:26:31.998Z</time></trkpt><trkpt lat="45.806782923127344" lon="10.037789811487864"><ele>335.6666666666667</ele><time>2026-04-25T07:26:32.998Z</time></trkpt><trkpt lat="45.80672100676851" lon="10.038079765020099"><ele>335.0</ele><time>2026-04-25T07:26:33.998Z</time></trkpt><trkpt lat="45.80665557354694" lon="10.0383678084686"><ele>335.0</ele><time>2026-04-25T07:26:34.998Z</time></trkpt><trkpt lat="45.80658378393584" lon="10.03865860473113"><ele>335.0</ele><time>2026-04-25T07:26:35.998Z</time></trkpt><trkpt lat="45.80650915304533" lon="10.038951674139579"><ele>335.0</ele><time>2026-04-25T07:26:36.998Z</time></trkpt><trkpt lat="45.80643118956888" lon="10.039245065521465"><ele>331.0</ele><time>2026-04-25T07:26:37.998Z</time></trkpt><trkpt lat="45.806348390762814" lon="10.039539107083048"><ele>327.0</ele><time>2026-04-25T07:26:38.998Z</time></trkpt><trkpt lat="45.80626698724076" lon="10.039839742430791"><ele>323.0</ele><time>2026-04-25T07:26:39.998Z</time></trkpt><trkpt lat="45.80618174427575" lon="10.040144122818058"><ele>316.5</ele><time>2026-04-25T07:26:40.998Z</time></trkpt><trkpt lat="45.80609916327861" lon="10.040453002651892"><ele>310.0</ele><time>2026-04-25T07:26:41.998Z</time></trkpt><trkpt lat="45.806014413823135" lon="10.04076539037356"><ele>319.5</ele><time>2026-04-25T07:26:42.998Z</time></trkpt><trkpt lat="45.80592720830558" lon="10.041078943867419"><ele>329.0</ele><time>2026-04-25T07:26:43.998Z</time></trkpt><trkpt lat="45.80583389573425" lon="10.041390386928114"><ele>323.0</ele><time>2026-04-25T07:26:44.998Z</time></trkpt><trkpt lat="45.80573887891655" lon="10.041707340967225"><ele>317.0</ele><time>2026-04-25T07:26:45.998Z</time></trkpt><trkpt lat="45.805643975757434" lon="10.042027451013027"><ele>317.0</ele><time>2026-04-25T07:26:46.998Z</time></trkpt><trkpt lat="45.80554798627975" lon="10.042353547177374"><ele>317.0</ele><time>2026-04-25T07:26:47.998Z</time></trkpt><trkpt lat="45.805454793343486" lon="10.042684143507653"><ele>312.0</ele><time>2026-04-25T07:26:48.998Z</time></trkpt><trkpt lat="45.80536990001195" lon="10.043022315041192"><ele>307.0</ele><time>2026-04-25T07:26:50Z</time></trkpt><trkpt lat="45.80528892146361" lon="10.043364148519295"><ele>304.5</ele><time>2026-04-25T07:26:51Z</time></trkpt><trkpt lat="45.80521523394794" lon="10.0437062412977"><ele>302.0</ele><time>2026-04-25T07:26:52Z</time></trkpt><trkpt lat="45.80515657106511" lon="10.044053158459942"><ele>308.5</ele><time>2026-04-25T07:26:53Z</time></trkpt><trkpt lat="45.80510981120521" lon="10.044412048001508"><ele>315.0</ele><time>2026-04-25T07:26:54Z</time></trkpt><trkpt lat="45.80507479375065" lon="10.044773590563256"><ele>310.0</ele><time>2026-04-25T07:26:55Z</time></trkpt><trkpt lat="45.805054665388475" lon="10.045141995367569"><ele>305.0</ele><time>2026-04-25T07:26:55.999Z</time></trkpt><trkpt lat="45.80504776152484" lon="10.045509849982972"><ele>302.0</ele><time>2026-04-25T07:26:56.999Z</time></trkpt><trkpt lat="45.805057641471386" lon="10.045880422049725"><ele>299.0</ele><time>2026-04-25T07:26:57.999Z</time></trkpt><trkpt lat="45.80508446271602" lon="10.046256930065816"><ele>299.0</ele><time>2026-04-25T07:26:58.999Z</time></trkpt><trkpt lat="45.80512448690743" lon="10.046625728432609"><ele>299.0</ele><time>2026-04-25T07:26:59.999Z</time></trkpt><trkpt lat="45.8051783236712" lon="10.04699639593885"><ele>296.0</ele><time>2026-04-25T07:27:00.999Z</time></trkpt><trkpt lat="45.8052453337575" lon="10.047362792713164"><ele>293.0</ele><time>2026-04-25T07:27:01.999Z</time></trkpt><trkpt lat="45.805330050198464" lon="10.047715930805344"><ele>292.0</ele><time>2026-04-25T07:27:02.999Z</time></trkpt><trkpt lat="45.80542690133425" lon="10.048064603569483"><ele>291.0</ele><time>2026-04-25T07:27:03.999Z</time></trkpt><trkpt lat="45.805530113090114" lon="10.0484036387462"><ele>291.0</ele><time>2026-04-25T07:27:04.999Z</time></trkpt><trkpt lat="45.8056503187489" lon="10.048728517611694"><ele>291.0</ele><time>2026-04-25T07:27:05.999Z</time></trkpt><trkpt lat="45.80578419167747" lon="10.049038873685534"><ele>289.0</ele><time>2026-04-25T07:27:06.999Z</time></trkpt><trkpt lat="45.8059322704687" lon="10.049335862639536"><ele>287.0</ele><time>2026-04-25T07:27:07.999Z</time></trkpt><trkpt lat="45.80609125314589" lon="10.049613573789989"><ele>289.5</ele><time>2026-04-25T07:27:08.999Z</time></trkpt><trkpt lat="45.80625956732954" lon="10.049881481553635"><ele>292.0</ele><time>2026-04-25T07:27:09.999Z</time></trkpt><trkpt lat="45.80643238555868" lon="10.050139628480263"><ele>292.0</ele><time>2026-04-25T07:27:10.999Z</time></trkpt><trkpt lat="45.806613609737326" lon="10.050390540372543"><ele>292.0</ele><time>2026-04-25T07:27:11.999Z</time></trkpt><trkpt lat="45.806795026533315" lon="10.050633987469379"><ele>293.5</ele><time>2026-04-25T07:27:12.999Z</time></trkpt><trkpt lat="45.80697769991115" lon="10.05088597661225"><ele>295.0</ele><time>2026-04-25T07:27:13.999Z</time></trkpt><trkpt lat="45.807161304006385" lon="10.05114351121018"><ele>295.0</ele><time>2026-04-25T07:27:14.999Z</time></trkpt><trkpt lat="45.80734404666539" lon="10.051412120854106"><ele>295.0</ele><time>2026-04-25T07:27:15.999Z</time></trkpt><trkpt lat="45.807528434521686" lon="10.051699940833807"><ele>290.5</ele><time>2026-04-25T07:27:16.999Z</time></trkpt><trkpt lat="45.807712488773774" lon="10.051979374404464"><ele>286.0</ele><time>2026-04-25T07:27:17.999Z</time></trkpt><trkpt lat="45.807909451726395" lon="10.052209954630067"><ele>286.0</ele><time>2026-04-25T07:27:18.999Z</time></trkpt><trkpt lat="45.80810758910625" lon="10.052384193008544"><ele>286.0</ele><time>2026-04-25T07:27:19.999Z</time></trkpt><trkpt lat="45.808332388878576" lon="10.052558254582163"><ele>279.3333333333333</ele><time>2026-04-25T07:27:20.999Z</time></trkpt><trkpt lat="45.808496586164324" lon="10.052738479875998"><ele>272.6666666666667</ele><time>2026-04-25T07:27:21.999Z</time></trkpt><trkpt lat="45.80865572446084" lon="10.052900024644874"><ele>266.0</ele><time>2026-04-25T07:27:22.999Z</time></trkpt><trkpt lat="45.80880608475011" lon="10.053049450391287"><ele>266.0</ele><time>2026-04-25T07:27:23.999Z</time></trkpt><trkpt lat="45.80893587574229" lon="10.053192295433178"><ele>266.0</ele><time>2026-04-25T07:27:24.999Z</time></trkpt><trkpt lat="45.80905140770909" lon="10.053318816144312"><ele>266.0</ele><time>2026-04-25T07:27:26Z</time></trkpt><trkpt lat="45.809158119074496" lon="10.053438770142389"><ele>266.0</ele><time>2026-04-25T07:27:27Z</time></trkpt><trkpt lat="45.80923947972479" lon="10.053567483536126"><ele>265.25</ele><time>2026-04-25T07:27:28Z</time></trkpt><trkpt lat="45.809292261274855" lon="10.05372111500345"><ele>264.5</ele><time>2026-04-25T07:27:29Z</time></trkpt><trkpt lat="45.80930658511857" lon="10.053889070079604"><ele>263.75</ele><time>2026-04-25T07:27:30Z</time></trkpt><trkpt lat="45.80928953161724" lon="10.054070399576897"><ele>263.0</ele><time>2026-04-25T07:27:31Z</time></trkpt><trkpt lat="45.80923354245872" lon="10.054240714915439"><ele>261.75</ele><time>2026-04-25T07:27:32Z</time></trkpt><trkpt lat="45.80914376784671" lon="10.054390382117191"><ele>260.5</ele><time>2026-04-25T07:27:33Z</time></trkpt><trkpt lat="45.80904539009342" lon="10.054522512022283"><ele>259.25</ele><time>2026-04-25T07:27:34Z</time></trkpt><trkpt lat="45.80895955863876" lon="10.054638733205353"><ele>258.0</ele><time>2026-04-25T07:27:35Z</time></trkpt><trkpt lat="45.80888587358177" lon="10.054749818531016"><ele>258.0</ele><time>2026-04-25T07:27:36Z</time></trkpt><trkpt lat="45.808812833266835" lon="10.05486302779291"><ele>258.0</ele><time>2026-04-25T07:27:37Z</time></trkpt><trkpt lat="45.80873768988794" lon="10.054982975841611"><ele>258.0</ele><time>2026-04-25T07:27:38Z</time></trkpt><trkpt lat="45.80865530392013" lon="10.055101022844552"><ele>258.0</ele><time>2026-04-25T07:27:39Z</time></trkpt><trkpt lat="45.808559684982136" lon="10.055203881679612"><ele>258.5</ele><time>2026-04-25T07:27:40Z</time></trkpt><trkpt lat="45.80844175121669" lon="10.055276143643207"><ele>259.0</ele><time>2026-04-25T07:27:41Z</time></trkpt><trkpt lat="45.808310038524496" lon="10.055315008988575"><ele>259.5</ele><time>2026-04-25T07:27:42Z</time></trkpt><trkpt lat="45.80817995776988" lon="10.055282197172598"><ele>260.0</ele><time>2026-04-25T07:27:43Z</time></trkpt><trkpt lat="45.80806253580251" lon="10.055241249434536"><ele>260.0</ele><time>2026-04-25T07:27:44Z</time></trkpt><trkpt lat="45.80796535376519" lon="10.055157617781983"><ele>260.0</ele><time>2026-04-25T07:27:45Z</time></trkpt><trkpt lat="45.807861334280325" lon="10.055115439993221"><ele>260.0</ele><time>2026-04-25T07:27:46Z</time></trkpt><trkpt lat="45.807747504191255" lon="10.055138436188077"><ele>260.0</ele><time>2026-04-25T07:27:47Z</time></trkpt><trkpt lat="45.80765110082883" lon="10.055204662978463"><ele>260.0</ele><time>2026-04-25T07:27:48Z</time></trkpt><trkpt lat="45.807566933215355" lon="10.055329822506296"><ele>262.75</ele><time>2026-04-25T07:27:49Z</time></trkpt><trkpt lat="45.80749467924064" lon="10.055496234985437"><ele>265.5</ele><time>2026-04-25T07:27:50Z</time></trkpt><trkpt lat="45.80741464905657" lon="10.055667477926239"><ele>268.25</ele><time>2026-04-25T07:27:51Z</time></trkpt><trkpt lat="45.8073260516946" lon="10.055842813044423"><ele>271.0</ele><time>2026-04-25T07:27:52Z</time></trkpt><trkpt lat="45.80724474541188" lon="10.056013904197151"><ele>271.0</ele><time>2026-04-25T07:27:53Z</time></trkpt><trkpt lat="45.80717521013202" lon="10.056197135076413"><ele>271.0</ele><time>2026-04-25T07:27:54Z</time></trkpt><trkpt lat="45.80711645328965" lon="10.056397936731065"><ele>271.0</ele><time>2026-04-25T07:27:55Z</time></trkpt><trkpt lat="45.80707561954268" lon="10.05661901901548"><ele>266.66666666666663</ele><time>2026-04-25T07:27:56Z</time></trkpt><trkpt lat="45.8070529910757" lon="10.056852402601603"><ele>262.3333333333333</ele><time>2026-04-25T07:27:57Z</time></trkpt><trkpt lat="45.80703780452782" lon="10.057092225505512"><ele>258.0</ele><time>2026-04-25T07:27:58Z</time></trkpt><trkpt lat="45.80703538669358" lon="10.05733553935651"><ele>257.0</ele><time>2026-04-25T07:27:59Z</time></trkpt><trkpt lat="45.80704065215443" lon="10.05757681095016"><ele>256.0</ele><time>2026-04-25T07:28:00Z</time></trkpt><trkpt lat="45.80705195618973" lon="10.057812493427821"><ele>255.0</ele><time>2026-04-25T07:28:01Z</time></trkpt><trkpt lat="45.80706713062188" lon="10.058053628175358"><ele>253.66666666666669</ele><time>2026-04-25T07:28:02Z</time></trkpt><trkpt lat="45.807076948322326" lon="10.058292463426586"><ele>252.33333333333334</ele><time>2026-04-25T07:28:03Z</time></trkpt><trkpt lat="45.80707324993075" lon="10.05852363208548"><ele>251.0</ele><time>2026-04-25T07:28:04Z</time></trkpt><trkpt lat="45.807064628595285" lon="10.058751348105302"><ele>251.0</ele><time>2026-04-25T07:28:05Z</time></trkpt><trkpt lat="45.80707022206428" lon="10.058973064269349"><ele>251.0</ele><time>2026-04-25T07:28:06Z</time></trkpt><trkpt lat="45.8070758169376" lon="10.059194836114834"><ele>251.0</ele><time>2026-04-25T07:28:07Z</time></trkpt><trkpt lat="45.80708103671095" lon="10.059401739742892"><ele>251.25</ele><time>2026-04-25T07:28:08Z</time></trkpt><trkpt lat="45.80708586733139" lon="10.0595991086733"><ele>251.5</ele><time>2026-04-25T07:28:09Z</time></trkpt><trkpt lat="45.80709041635787" lon="10.059785656239054"><ele>251.75</ele><time>2026-04-25T07:28:10Z</time></trkpt><trkpt lat="45.807094167712805" lon="10.059955084198332"><ele>252.0</ele><time>2026-04-25T07:28:11Z</time></trkpt><trkpt lat="45.8071124258895" lon="10.060115059408957"><ele>252.8</ele><time>2026-04-25T07:28:12Z</time></trkpt><trkpt lat="45.80710963259469" lon="10.06027072696638"><ele>253.6</ele><time>2026-04-25T07:28:13Z</time></trkpt><trkpt lat="45.80710443390442" lon="10.060417568123288"><ele>254.40000000000003</ele><time>2026-04-25T07:28:14Z</time></trkpt><trkpt lat="45.807084346472365" lon="10.060571714562768"><ele>255.20000000000002</ele><time>2026-04-25T07:28:15Z</time></trkpt><trkpt lat="45.807031764852866" lon="10.060736933849757"><ele>256.0</ele><time>2026-04-25T07:28:16Z</time></trkpt><trkpt lat="45.80695041353916" lon="10.060887803069486"><ele>258.0</ele><time>2026-04-25T07:28:17Z</time></trkpt><trkpt lat="45.8068456989767" lon="10.061042241466213"><ele>260.0</ele><time>2026-04-25T07:28:18Z</time></trkpt><trkpt lat="45.806729369020665" lon="10.061225054489423"><ele>262.0</ele><time>2026-04-25T07:28:19Z</time></trkpt><trkpt lat="45.806641898488316" lon="10.061433661969563"><ele>266.0</ele><time>2026-04-25T07:28:20Z</time></trkpt><trkpt lat="45.80657756494986" lon="10.061675943796354"><ele>270.0</ele><time>2026-04-25T07:28:21Z</time></trkpt><trkpt lat="45.80654216201392" lon="10.061939249944395"><ele>274.0</ele><time>2026-04-25T07:28:22Z</time></trkpt><trkpt lat="45.80652241832821" lon="10.062211749947108"><ele>275.3333333333333</ele><time>2026-04-25T07:28:23Z</time></trkpt><trkpt lat="45.80648272234847" lon="10.062484614281944"><ele>276.6666666666667</ele><time>2026-04-25T07:28:24Z</time></trkpt><trkpt lat="45.806454404167745" lon="10.062753067180678"><ele>278.0</ele><time>2026-04-25T07:28:25Z</time></trkpt><trkpt lat="45.80642754675617" lon="10.063007996824552"><ele>278.0</ele><time>2026-04-25T07:28:26Z</time></trkpt><trkpt lat="45.80640140762961" lon="10.063242573784759"><ele>278.0</ele><time>2026-04-25T07:28:27Z</time></trkpt><trkpt lat="45.80637010466259" lon="10.063463561192703"><ele>278.0</ele><time>2026-04-25T07:28:28Z</time></trkpt><trkpt lat="45.806308626097874" lon="10.063659770530588"><ele>275.75</ele><time>2026-04-25T07:28:29Z</time></trkpt><trkpt lat="45.80625075165554" lon="10.063847601367488"><ele>273.5</ele><time>2026-04-25T07:28:30Z</time></trkpt><trkpt lat="45.80622398655706" lon="10.064045977422396"><ele>271.25</ele><time>2026-04-25T07:28:31Z</time></trkpt><trkpt lat="45.80623286842687" lon="10.06425783628987"><ele>269.0</ele><time>2026-04-25T07:28:32Z</time></trkpt><trkpt lat="45.80627880051349" lon="10.064455562021848"><ele>265.75</ele><time>2026-04-25T07:28:32.999Z</time></trkpt><trkpt lat="45.80636149416615" lon="10.064627654419624"><ele>262.5</ele><time>2026-04-25T07:28:33.999Z</time></trkpt><trkpt lat="45.806479165895134" lon="10.064758023305595"><ele>259.25</ele><time>2026-04-25T07:28:34.999Z</time></trkpt><trkpt lat="45.806620164197945" lon="10.064843847405962"><ele>256.0</ele><time>2026-04-25T07:28:35.999Z</time></trkpt><trkpt lat="45.8067757583771" lon="10.064880616577192"><ele>260.0</ele><time>2026-04-25T07:28:36.999Z</time></trkpt><trkpt lat="45.8069358443477" lon="10.06488399192002"><ele>264.0</ele><time>2026-04-25T07:28:37.999Z</time></trkpt><trkpt lat="45.80709679121378" lon="10.064876737149515"><ele>268.0</ele><time>2026-04-25T07:28:38.999Z</time></trkpt><trkpt lat="45.807263275292705" lon="10.064872363559761"><ele>268.0</ele><time>2026-04-25T07:28:39.999Z</time></trkpt><trkpt lat="45.807432306267344" lon="10.06487751681007"><ele>268.0</ele><time>2026-04-25T07:28:40.999Z</time></trkpt><trkpt lat="45.807607970134086" lon="10.064910352311587"><ele>268.0</ele><time>2026-04-25T07:28:41.999Z</time></trkpt><trkpt lat="45.8077863800572" lon="10.064997943072813"><ele>260.3333333333333</ele><time>2026-04-25T07:28:42.999Z</time></trkpt><trkpt lat="45.807932890221984" lon="10.065168521561608"><ele>252.66666666666669</ele><time>2026-04-25T07:28:43.999Z</time></trkpt><trkpt lat="45.80805247007537" lon="10.065354175911681"><ele>245.0</ele><time>2026-04-25T07:28:44.999Z</time></trkpt><trkpt lat="45.80810829952166" lon="10.065474868270273"><ele>245.0</ele><time>2026-04-25T07:28:45.999Z</time></trkpt><trkpt lat="45.808216955371215" lon="10.06563889684469"><ele>245.0</ele><time>2026-04-25T07:28:46.999Z</time></trkpt><trkpt lat="45.808262094925304" lon="10.065851328417802"><ele>245.0</ele><time>2026-04-25T07:28:47.999Z</time></trkpt><trkpt lat="45.80827422102726" lon="10.066062242740957"><ele>241.0</ele><time>2026-04-25T07:28:48.999Z</time></trkpt><trkpt lat="45.808278302385105" lon="10.066282823458614"><ele>237.0</ele><time>2026-04-25T07:28:49.999Z</time></trkpt><trkpt lat="45.808250492652654" lon="10.066522939483166"><ele>233.0</ele><time>2026-04-25T07:28:50.999Z</time></trkpt><trkpt lat="45.8082977644581" lon="10.066751618600545"><ele>234.0</ele><time>2026-04-25T07:28:51.999Z</time></trkpt><trkpt lat="45.80833498871828" lon="10.066974684621268"><ele>235.0</ele><time>2026-04-25T07:28:52.999Z</time></trkpt><trkpt lat="45.808423984076136" lon="10.067175591165313"><ele>236.0</ele><time>2026-04-25T07:28:53.999Z</time></trkpt><trkpt lat="45.808557908157816" lon="10.067334559257368"><ele>231.66666666666669</ele><time>2026-04-25T07:28:54.999Z</time></trkpt><trkpt lat="45.80872439392625" lon="10.067452120024644"><ele>227.33333333333331</ele><time>2026-04-25T07:28:56Z</time></trkpt><trkpt lat="45.80891255047496" lon="10.067534700725757"><ele>223.0</ele><time>2026-04-25T07:28:57Z</time></trkpt><trkpt lat="45.809103418453454" lon="10.067607705192119"><ele>223.0</ele><time>2026-04-25T07:28:58Z</time></trkpt><trkpt lat="45.80929211063362" lon="10.067701332021787"><ele>223.0</ele><time>2026-04-25T07:28:59Z</time></trkpt><trkpt lat="45.80948244756848" lon="10.067802857218425"><ele>223.0</ele><time>2026-04-25T07:29:00Z</time></trkpt><trkpt lat="45.8096669801527" lon="10.067904722071516"><ele>227.0</ele><time>2026-04-25T07:29:01Z</time></trkpt><trkpt lat="45.809844743049865" lon="10.068005634804326"><ele>231.0</ele><time>2026-04-25T07:29:02Z</time></trkpt><trkpt lat="45.80998237251498" lon="10.06817721760885"><ele>235.0</ele><time>2026-04-25T07:29:03Z</time></trkpt><trkpt lat="45.81009531887511" lon="10.06836628912895"><ele>232.33333333333331</ele><time>2026-04-25T07:29:04Z</time></trkpt><trkpt lat="45.81017110944517" lon="10.068576559425466"><ele>229.66666666666669</ele><time>2026-04-25T07:29:05Z</time></trkpt><trkpt lat="45.8102437084189" lon="10.068805564552223"><ele>227.0</ele><time>2026-04-25T07:29:06Z</time></trkpt><trkpt lat="45.81032041170163" lon="10.069024788260023"><ele>220.5</ele><time>2026-04-25T07:29:07Z</time></trkpt><trkpt lat="45.81040562494497" lon="10.069190378550168"><ele>214.0</ele><time>2026-04-25T07:29:08Z</time></trkpt><trkpt lat="45.81050192039344" lon="10.069345621295641"><ele>207.5</ele><time>2026-04-25T07:29:09Z</time></trkpt><trkpt lat="45.81060634190538" lon="10.069470268205297"><ele>201.0</ele><time>2026-04-25T07:29:10Z</time></trkpt><trkpt lat="45.81071006985384" lon="10.069577114124804"><ele>201.0</ele><time>2026-04-25T07:29:11Z</time></trkpt><trkpt lat="45.810810487638385" lon="10.069685403950665"><ele>201.0</ele><time>2026-04-25T07:29:12Z</time></trkpt><trkpt lat="45.81090797695689" lon="10.069789690107829"><ele>201.0</ele><time>2026-04-25T07:29:13Z</time></trkpt><trkpt lat="45.810998592137885" lon="10.06989725995546"><ele>201.0</ele><time>2026-04-25T07:29:14Z</time></trkpt><trkpt lat="45.811078873061895" lon="10.069994016159283"><ele>200.5</ele><time>2026-04-25T07:29:15Z</time></trkpt><trkpt lat="45.81115052377502" lon="10.070074325235172"><ele>200.0</ele><time>2026-04-25T07:29:16Z</time></trkpt><trkpt lat="45.81121885407873" lon="10.070155506375785"><ele>199.5</ele><time>2026-04-25T07:29:17Z</time></trkpt><trkpt lat="45.811278871956276" lon="10.070229198342751"><ele>199.0</ele><time>2026-04-25T07:29:18Z</time></trkpt><trkpt lat="45.811339046322296" lon="10.070296593883025"><ele>198.5</ele><time>2026-04-25T07:29:19Z</time></trkpt><trkpt lat="45.81140954453613" lon="10.070365007548927"><ele>198.0</ele><time>2026-04-25T07:29:20Z</time></trkpt><trkpt lat="45.81148704661226" lon="10.070443238996763"><ele>198.0</ele><time>2026-04-25T07:29:21Z</time></trkpt><trkpt lat="45.81156622933052" lon="10.070527902535584"><ele>198.0</ele><time>2026-04-25T07:29:22Z</time></trkpt><trkpt lat="45.81164370230949" lon="10.070616417864688"><ele>198.0</ele><time>2026-04-25T07:29:23Z</time></trkpt><trkpt lat="45.81172215303377" lon="10.070706579736742"><ele>198.0</ele><time>2026-04-25T07:29:24Z</time></trkpt><trkpt lat="45.81180148878855" lon="10.070800482130846"><ele>198.0</ele><time>2026-04-25T07:29:25Z</time></trkpt><trkpt lat="45.81188469793508" lon="10.070895041483908"><ele>197.8</ele><time>2026-04-25T07:29:26Z</time></trkpt><trkpt lat="45.811965638212754" lon="10.070990538619075"><ele>197.60000000000002</ele><time>2026-04-25T07:29:27Z</time></trkpt><trkpt lat="45.81204190167554" lon="10.071080920446756"><ele>197.39999999999998</ele><time>2026-04-25T07:29:28Z</time></trkpt><trkpt lat="45.81211456789432" lon="10.071163063655955"><ele>197.2</ele><time>2026-04-25T07:29:29Z</time></trkpt><trkpt lat="45.8121837739749" lon="10.07124244803994"><ele>197.0</ele><time>2026-04-25T07:29:30Z</time></trkpt><trkpt lat="45.812259233513664" lon="10.071316352359373"><ele>197.00000000000003</ele><time>2026-04-25T07:29:31Z</time></trkpt><trkpt lat="45.8123418804822" lon="10.071376288276278"><ele>197.0</ele><time>2026-04-25T07:29:32Z</time></trkpt><trkpt lat="45.81242358907184" lon="10.071422409522784"><ele>197.0</ele><time>2026-04-25T07:29:33Z</time></trkpt><trkpt lat="45.812502751612335" lon="10.071469041442406"><ele>197.0</ele><time>2026-04-25T07:29:34Z</time></trkpt><trkpt lat="45.81257870141504" lon="10.071514167992992"><ele>197.00000000000003</ele><time>2026-04-25T07:29:35Z</time></trkpt><trkpt lat="45.812652749113475" lon="10.07155776318865"><ele>197.0</ele><time>2026-04-25T07:29:36Z</time></trkpt><trkpt lat="45.81272175084754" lon="10.071600732673643"><ele>196.16666666666669</ele><time>2026-04-25T07:29:37Z</time></trkpt><trkpt lat="45.81279106491705" lon="10.071643822984363"><ele>195.33333333333334</ele><time>2026-04-25T07:29:38Z</time></trkpt><trkpt lat="45.81285726556682" lon="10.071684006841934"><ele>194.5</ele><time>2026-04-25T07:29:39Z</time></trkpt><trkpt lat="45.812921634989294" lon="10.07172130138546"><ele>193.66666666666669</ele><time>2026-04-25T07:29:40Z</time></trkpt><trkpt lat="45.812983086888835" lon="10.071758527475053"><ele>192.83333333333334</ele><time>2026-04-25T07:29:41Z</time></trkpt><trkpt lat="45.81304236586653" lon="10.071796267888887"><ele>192.0</ele><time>2026-04-25T07:29:42Z</time></trkpt><trkpt lat="45.81315763932929" lon="10.071865619699523"><ele>192.0</ele><time>2026-04-25T07:29:44Z</time></trkpt><trkpt lat="45.81326844465241" lon="10.071928753383014"><ele>192.0</ele><time>2026-04-25T07:29:46Z</time></trkpt><trkpt lat="45.81336869173768" lon="10.071995958322551"><ele>192.0</ele><time>2026-04-25T07:29:48Z</time></trkpt><trkpt lat="45.81347547134622" lon="10.072055920995682"><ele>192.0</ele><time>2026-04-25T07:29:50Z</time></trkpt><trkpt lat="45.81358795475541" lon="10.072122866546604"><ele>193.39999999999998</ele><time>2026-04-25T07:29:52Z</time></trkpt><trkpt lat="45.81369802526033" lon="10.07218742255312"><ele>194.79999999999998</ele><time>2026-04-25T07:29:54Z</time></trkpt><trkpt lat="45.8138046959454" lon="10.072245706054273"><ele>196.2</ele><time>2026-04-25T07:29:56Z</time></trkpt><trkpt lat="45.81391390421121" lon="10.072301808438654"><ele>197.6</ele><time>2026-04-25T07:29:58Z</time></trkpt><trkpt lat="45.81397466772666" lon="10.072332818684838"><ele>199.0</ele><time>2026-04-25T07:29:59Z</time></trkpt><trkpt lat="45.8140362542414" lon="10.072367687805773"><ele>198.99999999999997</ele><time>2026-04-25T07:30:00Z</time></trkpt><trkpt lat="45.8140934863489" lon="10.072413365134283"><ele>199.0</ele><time>2026-04-25T07:30:01Z</time></trkpt><trkpt lat="45.81414985964144" lon="10.072460533321967"><ele>199.0</ele><time>2026-04-25T07:30:02Z</time></trkpt><trkpt lat="45.814206187417454" lon="10.07250424778984"><ele>199.0</ele><time>2026-04-25T07:30:03Z</time></trkpt><trkpt lat="45.814310439134864" lon="10.072610412625764"><ele>198.99999999999997</ele><time>2026-04-25T07:30:05Z</time></trkpt><trkpt lat="45.81435874361497" lon="10.072670972304419"><ele>199.0</ele><time>2026-04-25T07:30:06Z</time></trkpt><trkpt lat="45.81440519754396" lon="10.072733918885662"><ele>198.7142857142857</ele><time>2026-04-25T07:30:07Z</time></trkpt><trkpt lat="45.81444986665844" lon="10.072806962241017"><ele>198.42857142857142</ele><time>2026-04-25T07:30:08Z</time></trkpt><trkpt lat="45.81449272303389" lon="10.072879321602196"><ele>198.14285714285714</ele><time>2026-04-25T07:30:09Z</time></trkpt><trkpt lat="45.81452675154066" lon="10.072957054890862"><ele>197.85714285714283</ele><time>2026-04-25T07:30:10Z</time></trkpt><trkpt lat="45.81456224885567" lon="10.073040896771516"><ele>197.57142857142858</ele><time>2026-04-25T07:30:11Z</time></trkpt><trkpt lat="45.814597622913205" lon="10.07312128725683"><ele>197.28571428571428</ele><time>2026-04-25T07:30:12Z</time></trkpt><trkpt lat="45.814636921345894" lon="10.0731987103792"><ele>197.0</ele><time>2026-04-25T07:30:13Z</time></trkpt><trkpt lat="45.81467425591494" lon="10.07328689664461"><ele>196.28571428571428</ele><time>2026-04-25T07:30:14Z</time></trkpt><trkpt lat="45.814716180445174" lon="10.07336046084247"><ele>195.57142857142858</ele><time>2026-04-25T07:30:15Z</time></trkpt><trkpt lat="45.814758928327784" lon="10.073433605948065"><ele>194.85714285714283</ele><time>2026-04-25T07:30:16Z</time></trkpt><trkpt lat="45.814812386151196" lon="10.073494987679569"><ele>194.14285714285714</ele><time>2026-04-25T07:30:17Z</time></trkpt><trkpt lat="45.81486944083193" lon="10.0735441123999"><ele>193.42857142857142</ele><time>2026-04-25T07:30:18Z</time></trkpt><trkpt lat="45.81493079476053" lon="10.073581408557756"><ele>192.7142857142857</ele><time>2026-04-25T07:30:19Z</time></trkpt><trkpt lat="45.814990377380035" lon="10.07361562441167"><ele>192.0</ele><time>2026-04-25T07:30:20Z</time></trkpt><trkpt lat="45.81510660635698" lon="10.07367652261111"><ele>194.16666666666666</ele><time>2026-04-25T07:30:22Z</time></trkpt><trkpt lat="45.81521349193259" lon="10.073742973959044"><ele>196.33333333333331</ele><time>2026-04-25T07:30:24Z</time></trkpt><trkpt lat="45.815293975265526" lon="10.073802890380913"><ele>198.5</ele><time>2026-04-25T07:30:26Z</time></trkpt><trkpt lat="45.81535361031967" lon="10.07387213261197"><ele>200.66666666666666</ele><time>2026-04-25T07:30:28Z</time></trkpt><trkpt lat="45.81541355940073" lon="10.073932363874723"><ele>202.83333333333331</ele><time>2026-04-25T07:30:30Z</time></trkpt><trkpt lat="45.815480722424084" lon="10.0740044679888"><ele>205.0</ele><time>2026-04-25T07:30:31.999Z</time></trkpt><trkpt lat="45.815532432870924" lon="10.074075916491553"><ele>203.6</ele><time>2026-04-25T07:30:33.999Z</time></trkpt><trkpt lat="45.8155935961005" lon="10.074143828395027"><ele>202.2</ele><time>2026-04-25T07:30:35.999Z</time></trkpt><trkpt lat="45.815669912677734" lon="10.074228374194597"><ele>200.8</ele><time>2026-04-25T07:30:37.999Z</time></trkpt><trkpt lat="45.81574079534248" lon="10.074306900250248"><ele>199.4</ele><time>2026-04-25T07:30:39.999Z</time></trkpt><trkpt lat="45.81582140466064" lon="10.074368166239346"><ele>198.0</ele><time>2026-04-25T07:30:41.999Z</time></trkpt><trkpt lat="45.81589795149906" lon="10.074465088517778"><ele>198.0</ele><time>2026-04-25T07:30:43.999Z</time></trkpt><trkpt lat="45.81597932098627" lon="10.074557268985295"><ele>198.0</ele><time>2026-04-25T07:30:45.999Z</time></trkpt><trkpt lat="45.81606240578239" lon="10.074652596809766"><ele>198.0</ele><time>2026-04-25T07:30:47.999Z</time></trkpt><trkpt lat="45.816152505290155" lon="10.074733024510476"><ele>198.0</ele><time>2026-04-25T07:30:49.999Z</time></trkpt><trkpt lat="45.81625078000807" lon="10.07480195671094"><ele>198.0</ele><time>2026-04-25T07:30:51.999Z</time></trkpt><trkpt lat="45.81635564851043" lon="10.074866371094481"><ele>198.0</ele><time>2026-04-25T07:30:53.999Z</time></trkpt><trkpt lat="45.81645753656575" lon="10.074939335123865"><ele>198.0</ele><time>2026-04-25T07:30:55.999Z</time></trkpt><trkpt lat="45.81655264212343" lon="10.07503291364434"><ele>198.0</ele><time>2026-04-25T07:30:57.999Z</time></trkpt><trkpt lat="45.81663515803264" lon="10.07514844381365"><ele>198.0</ele><time>2026-04-25T07:30:59.999Z</time></trkpt><trkpt lat="45.816677543926815" lon="10.075217648756519"><ele>198.0</ele><time>2026-04-25T07:31:00.999Z</time></trkpt><trkpt lat="45.816752903704945" lon="10.075359299905454"><ele>197.75</ele><time>2026-04-25T07:31:03Z</time></trkpt><trkpt lat="45.81682475207617" lon="10.075502409137524"><ele>197.5</ele><time>2026-04-25T07:31:05Z</time></trkpt><trkpt lat="45.81689987660709" lon="10.075641790996919"><ele>197.25</ele><time>2026-04-25T07:31:07Z</time></trkpt><trkpt lat="45.81697330043793" lon="10.075776793159543"><ele>197.0</ele><time>2026-04-25T07:31:09Z</time></trkpt><trkpt lat="45.81705509200803" lon="10.075916322863465"><ele>197.00000000000003</ele><time>2026-04-25T07:31:11Z</time></trkpt><trkpt lat="45.8170996545744" lon="10.075988248410336"><ele>197.0</ele><time>2026-04-25T07:31:12Z</time></trkpt><trkpt lat="45.817145011146046" lon="10.076059048413502"><ele>197.0</ele><time>2026-04-25T07:31:13Z</time></trkpt><trkpt lat="45.81719157992866" lon="10.076120430280044"><ele>197.0</ele><time>2026-04-25T07:31:14Z</time></trkpt><trkpt lat="45.817271389143336" lon="10.076209842934972"><ele>197.00000000000003</ele><time>2026-04-25T07:31:16Z</time></trkpt><trkpt lat="45.81733392395457" lon="10.076283645094339"><ele>197.0</ele><time>2026-04-25T07:31:18Z</time></trkpt><trkpt lat="45.81740263044909" lon="10.076366926523589"><ele>197.00000000000003</ele><time>2026-04-25T07:31:20Z</time></trkpt><trkpt lat="45.81747186680879" lon="10.07644947724468"><ele>197.0</ele><time>2026-04-25T07:31:22Z</time></trkpt><trkpt lat="45.81754718137346" lon="10.076546034208782"><ele>197.0</ele><time>2026-04-25T07:31:24Z</time></trkpt><trkpt lat="45.81763124547387" lon="10.076666585526896"><ele>197.0</ele><time>2026-04-25T07:31:26Z</time></trkpt><trkpt lat="45.81767674993355" lon="10.076734707493141"><ele>197.00000000000003</ele><time>2026-04-25T07:31:27Z</time></trkpt><trkpt lat="45.81772169860985" lon="10.07679879902177"><ele>197.0</ele><time>2026-04-25T07:31:28Z</time></trkpt><trkpt lat="45.817811541494855" lon="10.07693362074579"><ele>197.0</ele><time>2026-04-25T07:31:30Z</time></trkpt><trkpt lat="45.817858616489524" lon="10.077003902709631"><ele>197.0</ele><time>2026-04-25T07:31:31Z</time></trkpt><trkpt lat="45.81790583317753" lon="10.077075385336373"><ele>197.0</ele><time>2026-04-25T07:31:32Z</time></trkpt><trkpt lat="45.81795263469501" lon="10.077152554522868"><ele>197.0</ele><time>2026-04-25T07:31:33Z</time></trkpt><trkpt lat="45.81799711694541" lon="10.077231688307872"><ele>197.0</ele><time>2026-04-25T07:31:34Z</time></trkpt><trkpt lat="45.81804076812594" lon="10.077318013811404"><ele>197.0</ele><time>2026-04-25T07:31:35Z</time></trkpt><trkpt lat="45.81808052848938" lon="10.07739975750067"><ele>197.0</ele><time>2026-04-25T07:31:36Z</time></trkpt><trkpt lat="45.81811507794016" lon="10.077480616381418"><ele>196.39999999999998</ele><time>2026-04-25T07:31:37Z</time></trkpt><trkpt lat="45.81816524833331" lon="10.077599285704066"><ele>195.79999999999998</ele><time>2026-04-25T07:31:39Z</time></trkpt><trkpt lat="45.81819968318606" lon="10.077687907999717"><ele>195.2</ele><time>2026-04-25T07:31:42Z</time></trkpt><trkpt lat="45.81823418114778" lon="10.077804154844436"><ele>194.6</ele><time>2026-04-25T07:31:47Z</time></trkpt><trkpt lat="45.81828005144174" lon="10.077943568407223"><ele>194.0</ele><time>2026-04-25T07:31:49Z</time></trkpt><trkpt lat="45.81833187100119" lon="10.078117856554174"><ele>194.00000000000003</ele><time>2026-04-25T07:31:51Z</time></trkpt><trkpt lat="45.81836290802681" lon="10.078223316099464"><ele>194.0</ele><time>2026-04-25T07:31:52Z</time></trkpt><trkpt lat="45.81839560726211" lon="10.078333808962473"><ele>194.0</ele><time>2026-04-25T07:31:53Z</time></trkpt><trkpt lat="45.81843092576744" lon="10.078449037250374"><ele>194.0</ele><time>2026-04-25T07:31:54Z</time></trkpt><trkpt lat="45.818470729825314" lon="10.078563536504571"><ele>194.00000000000003</ele><time>2026-04-25T07:31:55Z</time></trkpt><trkpt lat="45.818523063642786" lon="10.078666099525774"><ele>194.0</ele><time>2026-04-25T07:31:56Z</time></trkpt><trkpt lat="45.81858267923971" lon="10.078757600768117"><ele>194.33333333333334</ele><time>2026-04-25T07:31:57Z</time></trkpt><trkpt lat="45.81865290460421" lon="10.078835848928675"><ele>194.66666666666669</ele><time>2026-04-25T07:31:58Z</time></trkpt><trkpt lat="45.81872895051263" lon="10.078902500512754"><ele>195.0</ele><time>2026-04-25T07:31:59Z</time></trkpt><trkpt lat="45.81880513933275" lon="10.078967609737251"><ele>195.33333333333331</ele><time>2026-04-25T07:32:00Z</time></trkpt><trkpt lat="45.81888100277051" lon="10.079031664096522"><ele>195.66666666666666</ele><time>2026-04-25T07:32:01Z</time></trkpt><trkpt lat="45.81895440276698" lon="10.079092666032809"><ele>196.0</ele><time>2026-04-25T07:32:02Z</time></trkpt><trkpt lat="45.81902569150775" lon="10.079150067945836"><ele>195.49999999999997</ele><time>2026-04-25T07:32:03Z</time></trkpt><trkpt lat="45.81909724362762" lon="10.07920599455153"><ele>195.0</ele><time>2026-04-25T07:32:04Z</time></trkpt><trkpt lat="45.81916991299554" lon="10.079261335334357"><ele>194.5</ele><time>2026-04-25T07:32:05Z</time></trkpt><trkpt lat="45.81924411391825" lon="10.079314673987552"><ele>194.0</ele><time>2026-04-25T07:32:06Z</time></trkpt><trkpt lat="45.81932150507354" lon="10.079365731221664"><ele>193.49999999999997</ele><time>2026-04-25T07:32:07Z</time></trkpt><trkpt lat="45.81940315495172" lon="10.079409889244994"><ele>193.0</ele><time>2026-04-25T07:32:08Z</time></trkpt><trkpt lat="45.81948657758211" lon="10.079450246225031"><ele>192.99999999999997</ele><time>2026-04-25T07:32:09Z</time></trkpt><trkpt lat="45.81956806644343" lon="10.079486156451889"><ele>193.0</ele><time>2026-04-25T07:32:10Z</time></trkpt><trkpt lat="45.81964964840139" lon="10.07951988544666"><ele>193.0</ele><time>2026-04-25T07:32:11Z</time></trkpt><trkpt lat="45.819730144473674" lon="10.079548955572873"><ele>193.0</ele><time>2026-04-25T07:32:12Z</time></trkpt><trkpt lat="45.81980809915043" lon="10.079572920379858"><ele>192.99999999999997</ele><time>2026-04-25T07:32:13Z</time></trkpt><trkpt lat="45.81988797218749" lon="10.07959155782314"><ele>193.0</ele><time>2026-04-25T07:32:14Z</time></trkpt><trkpt lat="45.819964166697986" lon="10.079604687482973"><ele>193.0</ele><time>2026-04-25T07:32:15Z</time></trkpt><trkpt lat="45.82003346163749" lon="10.079619498652955"><ele>193.0</ele><time>2026-04-25T07:32:16Z</time></trkpt><trkpt lat="45.820146361794535" lon="10.079633653352209"><ele>193.0</ele><time>2026-04-25T07:32:18Z</time></trkpt><trkpt lat="45.82024216412691" lon="10.079640945955237"><ele>193.0</ele><time>2026-04-25T07:32:20Z</time></trkpt><trkpt lat="45.820371677264816" lon="10.0796546040457"><ele>193.0</ele><time>2026-04-25T07:32:22Z</time></trkpt><trkpt lat="45.82046297874442" lon="10.079635255871288"><ele>193.2</ele><time>2026-04-25T07:32:23Z</time></trkpt><trkpt lat="45.82055291235564" lon="10.079642411648008"><ele>193.4</ele><time>2026-04-25T07:32:24Z</time></trkpt><trkpt lat="45.82064658102068" lon="10.079648580921985"><ele>193.6</ele><time>2026-04-25T07:32:25Z</time></trkpt><trkpt lat="45.82073828192698" lon="10.079656453563707"><ele>193.79999999999998</ele><time>2026-04-25T07:32:26Z</time></trkpt><trkpt lat="45.820828979911376" lon="10.079669868330196"><ele>194.0</ele><time>2026-04-25T07:32:27Z</time></trkpt><trkpt lat="45.820913867903755" lon="10.079697627015905"><ele>194.83333333333334</ele><time>2026-04-25T07:32:28Z</time></trkpt><trkpt lat="45.820995904060844" lon="10.079736456345783"><ele>195.66666666666669</ele><time>2026-04-25T07:32:29Z</time></trkpt><trkpt lat="45.821072620883086" lon="10.079777817371944"><ele>196.5</ele><time>2026-04-25T07:32:30Z</time></trkpt><trkpt lat="45.821146717225545" lon="10.079822032096319"><ele>197.33333333333331</ele><time>2026-04-25T07:32:31Z</time></trkpt><trkpt lat="45.821213669425454" lon="10.07988035991962"><ele>198.16666666666666</ele><time>2026-04-25T07:32:32Z</time></trkpt><trkpt lat="45.82128128857638" lon="10.079946488762099"><ele>199.0</ele><time>2026-04-25T07:32:33Z</time></trkpt><trkpt lat="45.82134848414664" lon="10.080024246938297"><ele>198.99999999999997</ele><time>2026-04-25T07:32:33.999Z</time></trkpt><trkpt lat="45.821411319693105" lon="10.080114000815431"><ele>199.0</ele><time>2026-04-25T07:32:34.999Z</time></trkpt><trkpt lat="45.8214715247622" lon="10.080211134180075"><ele>199.0</ele><time>2026-04-25T07:32:35.999Z</time></trkpt><trkpt lat="45.82152424389602" lon="10.080318936579776"><ele>199.0</ele><time>2026-04-25T07:32:36.999Z</time></trkpt><trkpt lat="45.8215711818687" lon="10.080429081344942"><ele>198.99999999999997</ele><time>2026-04-25T07:32:37.999Z</time></trkpt><trkpt lat="45.82161539326669" lon="10.080532877747387"><ele>199.0</ele><time>2026-04-25T07:32:38.999Z</time></trkpt><trkpt lat="45.82165841105136" lon="10.080636120271505"><ele>198.99999999999997</ele><time>2026-04-25T07:32:39.999Z</time></trkpt><trkpt lat="45.82170321307194" lon="10.080742492750272"><ele>199.0</ele><time>2026-04-25T07:32:40.999Z</time></trkpt><trkpt lat="45.82174694356777" lon="10.080849884884213"><ele>199.0</ele><time>2026-04-25T07:32:41.999Z</time></trkpt><trkpt lat="45.82178266142221" lon="10.080960106230927"><ele>199.0</ele><time>2026-04-25T07:32:42.999Z</time></trkpt><trkpt lat="45.821813755828785" lon="10.081071633500352"><ele>198.99999999999997</ele><time>2026-04-25T07:32:43.999Z</time></trkpt><trkpt lat="45.82184022467838" lon="10.08117703578925"><ele>199.0</ele><time>2026-04-25T07:32:44.999Z</time></trkpt><trkpt lat="45.82185804962447" lon="10.08127794291342"><ele>200.33333333333331</ele><time>2026-04-25T07:32:45.999Z</time></trkpt><trkpt lat="45.82186964021478" lon="10.081368423439411"><ele>201.66666666666666</ele><time>2026-04-25T07:32:46.999Z</time></trkpt><trkpt lat="45.821884924101134" lon="10.08152700369951"><ele>203.0</ele><time>2026-04-25T07:32:48.999Z</time></trkpt><trkpt lat="45.82188859254241" lon="10.081637699324244"><ele>204.33333333333331</ele><time>2026-04-25T07:32:50.999Z</time></trkpt><trkpt lat="45.821893578102156" lon="10.081733539521625"><ele>205.66666666666666</ele><time>2026-04-25T07:32:52.999Z</time></trkpt><trkpt lat="45.82194847906366" lon="10.08158311508774"><ele>207.0</ele><time>2026-04-25T07:32:57.999Z</time></trkpt><trkpt lat="45.82191149800904" lon="10.081440516478917"><ele>205.39999999999998</ele><time>2026-04-25T07:32:58.999Z</time></trkpt><trkpt lat="45.82188851250328" lon="10.081290805410967"><ele>203.79999999999998</ele><time>2026-04-25T07:32:59.999Z</time></trkpt><trkpt lat="45.821856190009015" lon="10.081133895732497"><ele>202.2</ele><time>2026-04-25T07:33:00.999Z</time></trkpt><trkpt lat="45.82181829964125" lon="10.080976018544167"><ele>200.6</ele><time>2026-04-25T07:33:01.999Z</time></trkpt><trkpt lat="45.82177094592156" lon="10.080831984077284"><ele>199.0</ele><time>2026-04-25T07:33:02.999Z</time></trkpt><trkpt lat="45.82171896680105" lon="10.08068548682686"><ele>199.0</ele><time>2026-04-25T07:33:03.999Z</time></trkpt><trkpt lat="45.8216634720892" lon="10.080542635332266"><ele>199.0</ele><time>2026-04-25T07:33:04.999Z</time></trkpt><trkpt lat="45.821612642814245" lon="10.08041730266569"><ele>199.0</ele><time>2026-04-25T07:33:05.999Z</time></trkpt><trkpt lat="45.82156282118878" lon="10.080305020834825"><ele>199.0</ele><time>2026-04-25T07:33:06.999Z</time></trkpt><trkpt lat="45.82151374154047" lon="10.080206032019618"><ele>199.0</ele><time>2026-04-25T07:33:08Z</time></trkpt><trkpt lat="45.821467273541025" lon="10.080116028234173"><ele>198.99999999999997</ele><time>2026-04-25T07:33:09Z</time></trkpt><trkpt lat="45.82142041792332" lon="10.08003681124363"><ele>199.0</ele><time>2026-04-25T07:33:10Z</time></trkpt><trkpt lat="45.82137082448401" lon="10.079962781827252"><ele>199.0</ele><time>2026-04-25T07:33:11Z</time></trkpt><trkpt lat="45.82131098575494" lon="10.079899150769508"><ele>199.0</ele><time>2026-04-25T07:33:12Z</time></trkpt><trkpt lat="45.82124741224215" lon="10.079840133777063"><ele>199.0</ele><time>2026-04-25T07:33:13Z</time></trkpt><trkpt lat="45.821181805773584" lon="10.079782755377407"><ele>198.99999999999997</ele><time>2026-04-25T07:33:14Z</time></trkpt><trkpt lat="45.8211119625808" lon="10.079734361684922"><ele>199.0</ele><time>2026-04-25T07:33:15Z</time></trkpt><trkpt lat="45.82117225879915" lon="10.079559491912214"><ele>197.75</ele><time>2026-04-25T07:33:16Z</time></trkpt><trkpt lat="45.82089290377981" lon="10.079638527686988"><ele>196.5</ele><time>2026-04-25T07:33:18Z</time></trkpt><trkpt lat="45.82081599358594" lon="10.079622740985666"><ele>195.25</ele><time>2026-04-25T07:33:19Z</time></trkpt><trkpt lat="45.82073796251219" lon="10.079613816283537"><ele>194.0</ele><time>2026-04-25T07:33:20Z</time></trkpt><trkpt lat="45.82065777058281" lon="10.079613241337789"><ele>194.00000000000003</ele><time>2026-04-25T07:33:21Z</time></trkpt><trkpt lat="45.820577262229804" lon="10.079614140856316"><ele>194.0</ele><time>2026-04-25T07:33:22Z</time></trkpt><trkpt lat="45.82049409334167" lon="10.07961304143036"><ele>194.0</ele><time>2026-04-25T07:33:23Z</time></trkpt><trkpt lat="45.82041105242237" lon="10.079609789276084"><ele>194.0</ele><time>2026-04-25T07:33:24Z</time></trkpt><trkpt lat="45.82032718831727" lon="10.079605911623904"><ele>194.00000000000003</ele><time>2026-04-25T07:33:25Z</time></trkpt><trkpt lat="45.82024565266107" lon="10.079600195001381"><ele>194.0</ele><time>2026-04-25T07:33:26Z</time></trkpt><trkpt lat="45.82016429073814" lon="10.079586078217657"><ele>193.83333333333334</ele><time>2026-04-25T07:33:27Z</time></trkpt><trkpt lat="45.820083964291044" lon="10.079574604594562"><ele>193.66666666666669</ele><time>2026-04-25T07:33:28Z</time></trkpt><trkpt lat="45.8200020944938" lon="10.079561239850635"><ele>193.5</ele><time>2026-04-25T07:33:29Z</time></trkpt><trkpt lat="45.81992185971152" lon="10.07954765085175"><ele>193.33333333333331</ele><time>2026-04-25T07:33:30Z</time></trkpt><trkpt lat="45.819842617255865" lon="10.079531070245299"><ele>193.16666666666666</ele><time>2026-04-25T07:33:31Z</time></trkpt><trkpt lat="45.81976624773842" lon="10.079507768937406"><ele>193.0</ele><time>2026-04-25T07:33:32Z</time></trkpt><trkpt lat="45.819691523694246" lon="10.079481063117898"><ele>192.99999999999997</ele><time>2026-04-25T07:33:33Z</time></trkpt><trkpt lat="45.81961883810824" lon="10.079452135167385"><ele>193.0</ele><time>2026-04-25T07:33:34Z</time></trkpt><trkpt lat="45.81954814349202" lon="10.079420036426423"><ele>193.0</ele><time>2026-04-25T07:33:35Z</time></trkpt><trkpt lat="45.81947547491767" lon="10.079385502599841"><ele>193.0</ele><time>2026-04-25T07:33:36Z</time></trkpt><trkpt lat="45.81939811625599" lon="10.079348970683718"><ele>192.99999999999997</ele><time>2026-04-25T07:33:37Z</time></trkpt><trkpt lat="45.81931893187492" lon="10.07930784934131"><ele>193.0</ele><time>2026-04-25T07:33:38Z</time></trkpt><trkpt lat="45.8192413170379" lon="10.079263952217444"><ele>192.83333333333331</ele><time>2026-04-25T07:33:39Z</time></trkpt><trkpt lat="45.81916398399747" lon="10.079212671639437"><ele>192.66666666666666</ele><time>2026-04-25T07:33:40Z</time></trkpt><trkpt lat="45.81908841851803" lon="10.079157120010308"><ele>192.5</ele><time>2026-04-25T07:33:41Z</time></trkpt><trkpt lat="45.81901511543684" lon="10.079098008880457"><ele>192.33333333333331</ele><time>2026-04-25T07:33:42Z</time></trkpt><trkpt lat="45.81894427428454" lon="10.079041319936609"><ele>192.16666666666666</ele><time>2026-04-25T07:33:43Z</time></trkpt><trkpt lat="45.818873447749205" lon="10.078983965104117"><ele>192.0</ele><time>2026-04-25T07:33:44Z</time></trkpt><trkpt lat="45.81880275245148" lon="10.078924808193294"><ele>191.5</ele><time>2026-04-25T07:33:45Z</time></trkpt><trkpt lat="45.81873434163708" lon="10.07886512980976"><ele>191.0</ele><time>2026-04-25T07:33:46Z</time></trkpt><trkpt lat="45.818668701205866" lon="10.078802739027257"><ele>190.5</ele><time>2026-04-25T07:33:47Z</time></trkpt><trkpt lat="45.8186090085276" lon="10.078729842385846"><ele>190.0</ele><time>2026-04-25T07:33:48Z</time></trkpt><trkpt lat="45.81855275305137" lon="10.07864748561998"><ele>189.5</ele><time>2026-04-25T07:33:49Z</time></trkpt><trkpt lat="45.818505364193726" lon="10.078555725927599"><ele>189.0</ele><time>2026-04-25T07:33:50Z</time></trkpt><trkpt lat="45.818467036877614" lon="10.078455488211638"><ele>189.0</ele><time>2026-04-25T07:33:51Z</time></trkpt><trkpt lat="45.81843222534733" lon="10.07834797609939"><ele>189.0</ele><time>2026-04-25T07:33:52Z</time></trkpt><trkpt lat="45.81840045426464" lon="10.078237303936417"><ele>189.0</ele><time>2026-04-25T07:33:53Z</time></trkpt><trkpt lat="45.81836710253215" lon="10.078126382066467"><ele>189.0</ele><time>2026-04-25T07:33:54Z</time></trkpt><trkpt lat="45.81833399528319" lon="10.07801733675715"><ele>189.0</ele><time>2026-04-25T07:33:55Z</time></trkpt><trkpt lat="45.818300638950184" lon="10.077905964330611"><ele>189.0</ele><time>2026-04-25T07:33:56Z</time></trkpt><trkpt lat="45.81826475400645" lon="10.077794010159304"><ele>189.83333333333334</ele><time>2026-04-25T07:33:57Z</time></trkpt><trkpt lat="45.81822828295917" lon="10.077684309891904"><ele>190.66666666666669</ele><time>2026-04-25T07:33:58Z</time></trkpt><trkpt lat="45.81818703924289" lon="10.077577601954024"><ele>191.5</ele><time>2026-04-25T07:33:59Z</time></trkpt><trkpt lat="45.818143960903804" lon="10.077470894448616"><ele>192.33333333333334</ele><time>2026-04-25T07:34:00Z</time></trkpt><trkpt lat="45.81809774918377" lon="10.077369397670171"><ele>193.16666666666669</ele><time>2026-04-25T07:34:01Z</time></trkpt><trkpt lat="45.81805168456223" lon="10.077268181833299"><ele>194.0</ele><time>2026-04-25T07:34:02Z</time></trkpt><trkpt lat="45.81800198177695" lon="10.077169985942632"><ele>194.00000000000003</ele><time>2026-04-25T07:34:03Z</time></trkpt><trkpt lat="45.817946578144905" lon="10.077074280156175"><ele>194.0</ele><time>2026-04-25T07:34:04Z</time></trkpt><trkpt lat="45.81788710629048" lon="10.076983652017901"><ele>194.0</ele><time>2026-04-25T07:34:05Z</time></trkpt><trkpt lat="45.817826218789094" lon="10.076893145251926"><ele>194.0</ele><time>2026-04-25T07:34:06Z</time></trkpt><trkpt lat="45.81776607404863" lon="10.076801252661271"><ele>194.00000000000003</ele><time>2026-04-25T07:34:07Z</time></trkpt><trkpt lat="45.81770345929897" lon="10.076714794855377"><ele>194.0</ele><time>2026-04-25T07:34:08Z</time></trkpt><trkpt lat="45.817641642376465" lon="10.076625047834927"><ele>194.50000000000003</ele><time>2026-04-25T07:34:09Z</time></trkpt><trkpt lat="45.817579105082174" lon="10.076541709596723"><ele>195.0</ele><time>2026-04-25T07:34:10Z</time></trkpt><trkpt lat="45.81751732102287" lon="10.076460040611828"><ele>195.5</ele><time>2026-04-25T07:34:11Z</time></trkpt><trkpt lat="45.817456758261635" lon="10.076382150180095"><ele>196.0</ele><time>2026-04-25T07:34:12Z</time></trkpt><trkpt lat="45.8173953069734" lon="10.076308745601718"><ele>196.50000000000003</ele><time>2026-04-25T07:34:13Z</time></trkpt><trkpt lat="45.817333097825156" lon="10.076238652059446"><ele>197.0</ele><time>2026-04-25T07:34:14Z</time></trkpt><trkpt lat="45.81727126448799" lon="10.076169436247735"><ele>197.00000000000003</ele><time>2026-04-25T07:34:15Z</time></trkpt><trkpt lat="45.81721041841096" lon="10.076096809485103"><ele>197.0</ele><time>2026-04-25T07:34:16Z</time></trkpt><trkpt lat="45.81714677276104" lon="10.07602295164057"><ele>197.0</ele><time>2026-04-25T07:34:17Z</time></trkpt><trkpt lat="45.81708891581706" lon="10.075936162639717"><ele>197.0</ele><time>2026-04-25T07:34:18Z</time></trkpt><trkpt lat="45.81703697635133" lon="10.075845614644196"><ele>197.00000000000003</ele><time>2026-04-25T07:34:19Z</time></trkpt><trkpt lat="45.81698682158414" lon="10.07574976819827"><ele>197.0</ele><time>2026-04-25T07:34:20Z</time></trkpt><trkpt lat="45.8169427262076" lon="10.07565718593637"><ele>197.16666666666669</ele><time>2026-04-25T07:34:21Z</time></trkpt><trkpt lat="45.8168971929577" lon="10.075566511698502"><ele>197.33333333333334</ele><time>2026-04-25T07:34:22Z</time></trkpt><trkpt lat="45.81685069129048" lon="10.075475150508199"><ele>197.5</ele><time>2026-04-25T07:34:23Z</time></trkpt><trkpt lat="45.816801428650344" lon="10.075385533024674"><ele>197.66666666666669</ele><time>2026-04-25T07:34:24Z</time></trkpt><trkpt lat="45.81675207249073" lon="10.075298562818231"><ele>197.83333333333334</ele><time>2026-04-25T07:34:25Z</time></trkpt><trkpt lat="45.81670395016883" lon="10.075210440105199"><ele>198.0</ele><time>2026-04-25T07:34:26Z</time></trkpt><trkpt lat="45.81665443632559" lon="10.075124792357908"><ele>198.0</ele><time>2026-04-25T07:34:27Z</time></trkpt><trkpt lat="45.81660327739387" lon="10.075045346919831"><ele>198.0</ele><time>2026-04-25T07:34:28Z</time></trkpt><trkpt lat="45.81654584701897" lon="10.07497226179323"><ele>198.0</ele><time>2026-04-25T07:34:29Z</time></trkpt><trkpt lat="45.81648244282295" lon="10.074912940371034"><ele>198.0</ele><time>2026-04-25T07:34:30Z</time></trkpt><trkpt lat="45.81641763087188" lon="10.074861749202041"><ele>198.0</ele><time>2026-04-25T07:34:31Z</time></trkpt><trkpt lat="45.816352985564656" lon="10.074817445158406"><ele>198.0</ele><time>2026-04-25T07:34:31.999Z</time></trkpt><trkpt lat="45.816287629398225" lon="10.074776302098593"><ele>198.0</ele><time>2026-04-25T07:34:32.999Z</time></trkpt><trkpt lat="45.81622288539364" lon="10.074737197532857"><ele>198.0</ele><time>2026-04-25T07:34:33.999Z</time></trkpt><trkpt lat="45.816161908713944" lon="10.07469809261222"><ele>198.0</ele><time>2026-04-25T07:34:34.999Z</time></trkpt><trkpt lat="45.81610433518545" lon="10.074651112161606"><ele>198.0</ele><time>2026-04-25T07:34:35.999Z</time></trkpt><trkpt lat="45.81604959534161" lon="10.074597223587123"><ele>198.0</ele><time>2026-04-25T07:34:36.999Z</time></trkpt><trkpt lat="45.81599754898883" lon="10.074532786800903"><ele>198.0</ele><time>2026-04-25T07:34:37.999Z</time></trkpt><trkpt lat="45.81594353581679" lon="10.074467980427121"><ele>198.0</ele><time>2026-04-25T07:34:38.999Z</time></trkpt><trkpt lat="45.81588800437611" lon="10.074404794368919"><ele>198.0</ele><time>2026-04-25T07:34:39.999Z</time></trkpt><trkpt lat="45.81582666269752" lon="10.074341282834936"><ele>198.0</ele><time>2026-04-25T07:34:40.999Z</time></trkpt><trkpt lat="45.815764319922565" lon="10.074275485574864"><ele>198.0</ele><time>2026-04-25T07:34:41.999Z</time></trkpt><trkpt lat="45.81570159574737" lon="10.074205230216652"><ele>198.0</ele><time>2026-04-25T07:34:42.999Z</time></trkpt><trkpt lat="45.81563814654663" lon="10.074132801868767"><ele>198.0</ele><time>2026-04-25T07:34:43.999Z</time></trkpt><trkpt lat="45.81557484516263" lon="10.074060881795326"><ele>198.0</ele><time>2026-04-25T07:34:44.999Z</time></trkpt><trkpt lat="45.81551085790778" lon="10.073989646532153"><ele>198.0</ele><time>2026-04-25T07:34:45.999Z</time></trkpt><trkpt lat="45.81544480035109" lon="10.073917140929712"><ele>197.0</ele><time>2026-04-25T07:34:46.999Z</time></trkpt><trkpt lat="45.815377733656305" lon="10.073845927682264"><ele>196.0</ele><time>2026-04-25T07:34:47.999Z</time></trkpt><trkpt lat="45.815308305317295" lon="10.073774362460842"><ele>195.0</ele><time>2026-04-25T07:34:48.999Z</time></trkpt><trkpt lat="45.8152328406887" lon="10.07371503542315"><ele>194.0</ele><time>2026-04-25T07:34:49.999Z</time></trkpt><trkpt lat="45.81515597517247" lon="10.073665360389649"><ele>193.0</ele><time>2026-04-25T07:34:50.999Z</time></trkpt><trkpt lat="45.81507782736987" lon="10.073620712155211"><ele>192.0</ele><time>2026-04-25T07:34:51.999Z</time></trkpt><trkpt lat="45.81500121230933" lon="10.073579543550437"><ele>192.0</ele><time>2026-04-25T07:34:52.999Z</time></trkpt><trkpt lat="45.814923498961974" lon="10.073537182195723"><ele>192.0</ele><time>2026-04-25T07:34:53.999Z</time></trkpt><trkpt lat="45.814848804441866" lon="10.073492711293152"><ele>192.0</ele><time>2026-04-25T07:34:54.999Z</time></trkpt><trkpt lat="45.81478614762795" lon="10.073417114850159"><ele>192.0</ele><time>2026-04-25T07:34:55.999Z</time></trkpt><trkpt lat="45.81473335571975" lon="10.07332617622764"><ele>192.0</ele><time>2026-04-25T07:34:56.999Z</time></trkpt><trkpt lat="45.8146870376268" lon="10.073225186578718"><ele>192.0</ele><time>2026-04-25T07:34:57.999Z</time></trkpt><trkpt lat="45.81464421647446" lon="10.073118054340677"><ele>192.5</ele><time>2026-04-25T07:34:58.999Z</time></trkpt><trkpt lat="45.814600693066865" lon="10.073011696475064"><ele>193.0</ele><time>2026-04-25T07:34:59.999Z</time></trkpt><trkpt lat="45.81455209989014" lon="10.07290636754176"><ele>193.5</ele><time>2026-04-25T07:35:00.999Z</time></trkpt><trkpt lat="45.81450238391108" lon="10.072805879563498"><ele>194.0</ele><time>2026-04-25T07:35:01.999Z</time></trkpt><trkpt lat="45.814446740004776" lon="10.072712511329074"><ele>194.5</ele><time>2026-04-25T07:35:02.999Z</time></trkpt><trkpt lat="45.814383772736335" lon="10.072626330212858"><ele>195.0</ele><time>2026-04-25T07:35:03.999Z</time></trkpt><trkpt lat="45.81431531090687" lon="10.072544018805628"><ele>195.0</ele><time>2026-04-25T07:35:04.999Z</time></trkpt><trkpt lat="45.81423975096233" lon="10.072471078574418"><ele>195.0</ele><time>2026-04-25T07:35:05.999Z</time></trkpt><trkpt lat="45.81415849613905" lon="10.072410334404301"><ele>195.0</ele><time>2026-04-25T07:35:06.999Z</time></trkpt><trkpt lat="45.81407632912154" lon="10.072352924463239"><ele>195.0</ele><time>2026-04-25T07:35:07.999Z</time></trkpt><trkpt lat="45.8139924866202" lon="10.072300245261768"><ele>195.0</ele><time>2026-04-25T07:35:08.999Z</time></trkpt><trkpt lat="45.81390724834978" lon="10.072251589078663"><ele>194.5</ele><time>2026-04-25T07:35:09.999Z</time></trkpt><trkpt lat="45.81382282247061" lon="10.07220411318078"><ele>194.0</ele><time>2026-04-25T07:35:10.999Z</time></trkpt><trkpt lat="45.81374060972116" lon="10.07215623970489"><ele>193.5</ele><time>2026-04-25T07:35:11.999Z</time></trkpt><trkpt lat="45.81365937237038" lon="10.072108361345615"><ele>193.0</ele><time>2026-04-25T07:35:12.999Z</time></trkpt><trkpt lat="45.81357844754091" lon="10.072060821085186"><ele>192.5</ele><time>2026-04-25T07:35:14Z</time></trkpt><trkpt lat="45.81350009653226" lon="10.072014183571316"><ele>192.0</ele><time>2026-04-25T07:35:15Z</time></trkpt><trkpt lat="45.8134215638912" lon="10.071969038961267"><ele>192.0</ele><time>2026-04-25T07:35:16Z</time></trkpt><trkpt lat="45.813344521555074" lon="10.071925465080543"><ele>192.0</ele><time>2026-04-25T07:35:17Z</time></trkpt><trkpt lat="45.813269827891226" lon="10.071883980306103"><ele>192.0</ele><time>2026-04-25T07:35:18Z</time></trkpt><trkpt lat="45.81319596058893" lon="10.071840443005836"><ele>192.0</ele><time>2026-04-25T07:35:19Z</time></trkpt><trkpt lat="45.813120185223674" lon="10.071796575527477"><ele>192.0</ele><time>2026-04-25T07:35:20Z</time></trkpt><trkpt lat="45.81304381064938" lon="10.071753912350546"><ele>192.0</ele><time>2026-04-25T07:35:21Z</time></trkpt><trkpt lat="45.81296874062211" lon="10.071709497917716"><ele>192.0</ele><time>2026-04-25T07:35:22Z</time></trkpt><trkpt lat="45.81289367002582" lon="10.07166113021241"><ele>192.0</ele><time>2026-04-25T07:35:23Z</time></trkpt><trkpt lat="45.81281551986679" lon="10.071611923963612"><ele>192.0</ele><time>2026-04-25T07:35:24Z</time></trkpt><trkpt lat="45.812738597704545" lon="10.07156566666268"><ele>192.0</ele><time>2026-04-25T07:35:25Z</time></trkpt><trkpt lat="45.81265921355415" lon="10.071522098369135"><ele>192.0</ele><time>2026-04-25T07:35:26Z</time></trkpt><trkpt lat="45.81258105440622" lon="10.071479417228415"><ele>192.0</ele><time>2026-04-25T07:35:27Z</time></trkpt><trkpt lat="45.81250506530792" lon="10.071434942416046"><ele>192.83333333333334</ele><time>2026-04-25T07:35:28Z</time></trkpt><trkpt lat="45.812432231452405" lon="10.071384460897617"><ele>193.66666666666669</ele><time>2026-04-25T07:35:29Z</time></trkpt><trkpt lat="45.81236191924855" lon="10.071329326112677"><ele>194.5</ele><time>2026-04-25T07:35:30Z</time></trkpt><trkpt lat="45.81229062386115" lon="10.071274921064745"><ele>195.33333333333334</ele><time>2026-04-25T07:35:31Z</time></trkpt><trkpt lat="45.81221971422848" lon="10.071231175474459"><ele>196.16666666666669</ele><time>2026-04-25T07:35:32Z</time></trkpt><trkpt lat="45.81216319581884" lon="10.071151933317323"><ele>197.0</ele><time>2026-04-25T07:35:33Z</time></trkpt><trkpt lat="45.81210043395777" lon="10.071085316050414"><ele>197.0</ele><time>2026-04-25T07:35:34Z</time></trkpt><trkpt lat="45.812039365763894" lon="10.071016832861055"><ele>197.0</ele><time>2026-04-25T07:35:35Z</time></trkpt><trkpt lat="45.81191704613844" lon="10.071054888439914"><ele>197.0</ele><time>2026-04-25T07:35:36Z</time></trkpt><trkpt lat="45.81184044231063" lon="10.071010218961234"><ele>197.0</ele><time>2026-04-25T07:35:37Z</time></trkpt><trkpt lat="45.811762232285155" lon="10.07096395787827"><ele>197.0</ele><time>2026-04-25T07:35:38Z</time></trkpt><trkpt lat="45.81168180861234" lon="10.070917530564191"><ele>197.16666666666669</ele><time>2026-04-25T07:35:39Z</time></trkpt><trkpt lat="45.8116007319009" lon="10.070870154379191"><ele>197.33333333333334</ele><time>2026-04-25T07:35:40Z</time></trkpt><trkpt lat="45.81152092364177" lon="10.070823530187889"><ele>197.5</ele><time>2026-04-25T07:35:41Z</time></trkpt><trkpt lat="45.811441215040695" lon="10.070775802465375"><ele>197.66666666666669</ele><time>2026-04-25T07:35:42Z</time></trkpt><trkpt lat="45.811363323997014" lon="10.070729810367279"><ele>197.83333333333334</ele><time>2026-04-25T07:35:43Z</time></trkpt><trkpt lat="45.81128464409768" lon="10.070686693593167"><ele>198.0</ele><time>2026-04-25T07:35:44Z</time></trkpt><trkpt lat="45.81120412704726" lon="10.070651755970259"><ele>198.0</ele><time>2026-04-25T07:35:45Z</time></trkpt><trkpt lat="45.811122052138394" lon="10.070623282529892"><ele>198.0</ele><time>2026-04-25T07:35:46Z</time></trkpt><trkpt lat="45.81104943273377" lon="10.070572093127977"><ele>198.0</ele><time>2026-04-25T07:35:47Z</time></trkpt><trkpt lat="45.81097472414742" lon="10.070537455297513"><ele>198.0</ele><time>2026-04-25T07:35:48Z</time></trkpt><trkpt lat="45.81090519989008" lon="10.070505221137344"><ele>198.0</ele><time>2026-04-25T07:35:49Z</time></trkpt><trkpt lat="45.810838113269966" lon="10.070474116894772"><ele>198.0</ele><time>2026-04-25T07:35:50Z</time></trkpt><trkpt lat="45.810769544687716" lon="10.070442197584446"><ele>197.33333333333334</ele><time>2026-04-25T07:35:51Z</time></trkpt><trkpt lat="45.810704057134934" lon="10.070406789447249"><ele>196.66666666666669</ele><time>2026-04-25T07:35:52Z</time></trkpt><trkpt lat="45.810640506398684" lon="10.070368301225892"><ele>196.0</ele><time>2026-04-25T07:35:53Z</time></trkpt><trkpt lat="45.81050532274331" lon="10.070414046784748"><ele>195.33333333333334</ele><time>2026-04-25T07:35:55Z</time></trkpt><trkpt lat="45.81043744763282" lon="10.070341497763206"><ele>194.66666666666669</ele><time>2026-04-25T07:35:57Z</time></trkpt><trkpt lat="45.81039086174364" lon="10.07024308049368"><ele>194.0</ele><time>2026-04-25T07:35:59Z</time></trkpt><trkpt lat="45.81034799304128" lon="10.070155258884183"><ele>194.0</ele><time>2026-04-25T07:36:01Z</time></trkpt><trkpt lat="45.81028956556186" lon="10.070111913980481"><ele>194.0</ele><time>2026-04-25T07:36:04Z</time></trkpt><trkpt lat="45.810208610669626" lon="10.070175231079372"><ele>194.0</ele><time>2026-04-25T07:36:07Z</time></trkpt><trkpt lat="45.81024065290178" lon="10.07031004262576"><ele>194.0</ele><time>2026-04-25T07:36:09Z</time></trkpt><trkpt lat="45.81030027198621" lon="10.070363109109639"><ele>194.0</ele><time>2026-04-25T07:36:10Z</time></trkpt><trkpt lat="45.81041757297987" lon="10.070425166813"><ele>194.00000000000003</ele><time>2026-04-25T07:36:12Z</time></trkpt><trkpt lat="45.81048787795653" lon="10.070448240169725"><ele>194.0</ele><time>2026-04-25T07:36:13Z</time></trkpt><trkpt lat="45.81056197892586" lon="10.070481104188014"><ele>194.0</ele><time>2026-04-25T07:36:14Z</time></trkpt><trkpt lat="45.81062571107436" lon="10.070517306989753"><ele>194.0</ele><time>2026-04-25T07:36:15Z</time></trkpt><trkpt lat="45.810723903643634" lon="10.070563695642345"><ele>194.00000000000003</ele><time>2026-04-25T07:36:17Z</time></trkpt><trkpt lat="45.81079201640262" lon="10.07057834959533"><ele>194.0</ele><time>2026-04-25T07:36:19Z</time></trkpt><trkpt lat="45.81070414594414" lon="10.070383189894207"><ele>194.00000000000003</ele><time>2026-04-25T07:36:22Z</time></trkpt><trkpt lat="45.81062066919452" lon="10.070357812557926"><ele>194.0</ele><time>2026-04-25T07:36:23Z</time></trkpt><trkpt lat="45.81055573662976" lon="10.070291082017262"><ele>194.0</ele><time>2026-04-25T07:36:24Z</time></trkpt><trkpt lat="45.810500602432775" lon="10.07020471797242"><ele>194.0</ele><time>2026-04-25T07:36:25Z</time></trkpt><trkpt lat="45.81045935371238" lon="10.070099573591657"><ele>194.00000000000003</ele><time>2026-04-25T07:36:26Z</time></trkpt><trkpt lat="45.8104288303964" lon="10.069974580102851"><ele>194.0</ele><time>2026-04-25T07:36:27Z</time></trkpt><trkpt lat="45.81041192681481" lon="10.069843197613382"><ele>195.39999999999998</ele><time>2026-04-25T07:36:28Z</time></trkpt><trkpt lat="45.81039960875618" lon="10.069705931823941"><ele>196.8</ele><time>2026-04-25T07:36:29Z</time></trkpt><trkpt lat="45.810375535647644" lon="10.069565589794575"><ele>198.2</ele><time>2026-04-25T07:36:30Z</time></trkpt><trkpt lat="45.810335451726694" lon="10.06942926477064"><ele>199.60000000000002</ele><time>2026-04-25T07:36:31Z</time></trkpt><trkpt lat="45.810284480149484" lon="10.069296335879462"><ele>201.0</ele><time>2026-04-25T07:36:32Z</time></trkpt><trkpt lat="45.81022893635267" lon="10.069168791686678"><ele>202.8</ele><time>2026-04-25T07:36:33Z</time></trkpt><trkpt lat="45.81017626779756" lon="10.069039268343435"><ele>204.60000000000002</ele><time>2026-04-25T07:36:34Z</time></trkpt><trkpt lat="45.81012399899011" lon="10.068912430369243"><ele>206.4</ele><time>2026-04-25T07:36:34.999Z</time></trkpt><trkpt lat="45.81006501434045" lon="10.06879466310093"><ele>208.2</ele><time>2026-04-25T07:36:35.999Z</time></trkpt><trkpt lat="45.809996273438955" lon="10.068691014966964"><ele>210.0</ele><time>2026-04-25T07:36:36.999Z</time></trkpt><trkpt lat="45.80991802712149" lon="10.0685946029369"><ele>210.0</ele><time>2026-04-25T07:36:37.999Z</time></trkpt><trkpt lat="45.80983211763519" lon="10.068507682822093"><ele>210.0</ele><time>2026-04-25T07:36:38.999Z</time></trkpt><trkpt lat="45.80973507005064" lon="10.06844522433129"><ele>210.0</ele><time>2026-04-25T07:36:39.999Z</time></trkpt><trkpt lat="45.80963003982675" lon="10.068391786921715"><ele>210.0</ele><time>2026-04-25T07:36:40.999Z</time></trkpt><trkpt lat="45.80951652772362" lon="10.068342848415337"><ele>210.0</ele><time>2026-04-25T07:36:41.999Z</time></trkpt><trkpt lat="45.80939315214615" lon="10.06837347785309"><ele>208.0</ele><time>2026-04-25T07:36:42.999Z</time></trkpt><trkpt lat="45.80927737931337" lon="10.068343194002006"><ele>206.0</ele><time>2026-04-25T07:36:43.999Z</time></trkpt><trkpt lat="45.809170493414456" lon="10.068304877863032"><ele>204.0</ele><time>2026-04-25T07:36:44.999Z</time></trkpt><trkpt lat="45.8090752886219" lon="10.068257513825838"><ele>202.0</ele><time>2026-04-25T07:36:45.999Z</time></trkpt><trkpt lat="45.80898743439519" lon="10.068215979770654"><ele>200.0</ele><time>2026-04-25T07:36:46.999Z</time></trkpt><trkpt lat="45.808904846335984" lon="10.068178656054663"><ele>202.4</ele><time>2026-04-25T07:36:47.999Z</time></trkpt><trkpt lat="45.80881772143707" lon="10.068146431963363"><ele>204.8</ele><time>2026-04-25T07:36:48.999Z</time></trkpt><trkpt lat="45.808723273302874" lon="10.068119708370551"><ele>207.2</ele><time>2026-04-25T07:36:49.999Z</time></trkpt><trkpt lat="45.8086267283054" lon="10.068091871239977"><ele>209.6</ele><time>2026-04-25T07:36:50.999Z</time></trkpt><trkpt lat="45.80852890917647" lon="10.06806526361026"><ele>212.0</ele><time>2026-04-25T07:36:51.999Z</time></trkpt><trkpt lat="45.8084302243779" lon="10.068040760794595"><ele>212.0</ele><time>2026-04-25T07:36:52.999Z</time></trkpt><trkpt lat="45.808326978473815" lon="10.068010449904211"><ele>212.0</ele><time>2026-04-25T07:36:53.999Z</time></trkpt><trkpt lat="45.8082231547237" lon="10.067977508761919"><ele>212.0</ele><time>2026-04-25T07:36:54.999Z</time></trkpt><trkpt lat="45.80811689909503" lon="10.067944662830351"><ele>212.0</ele><time>2026-04-25T07:36:55.999Z</time></trkpt><trkpt lat="45.808012078214546" lon="10.067918550690514"><ele>212.0</ele><time>2026-04-25T07:36:56.999Z</time></trkpt><trkpt lat="45.80790762003981" lon="10.067898280163487"><ele>212.0</ele><time>2026-04-25T07:36:57.999Z</time></trkpt><trkpt lat="45.807806094466436" lon="10.067869190869027"><ele>212.0</ele><time>2026-04-25T07:36:58.999Z</time></trkpt><trkpt lat="45.807708756358956" lon="10.067843011555803"><ele>212.0</ele><time>2026-04-25T07:36:59.999Z</time></trkpt><trkpt lat="45.80761304005612" lon="10.06782134407267"><ele>212.0</ele><time>2026-04-25T07:37:00.999Z</time></trkpt><trkpt lat="45.80751945604694" lon="10.067793006865204"><ele>212.0</ele><time>2026-04-25T07:37:01.999Z</time></trkpt><trkpt lat="45.80742958993433" lon="10.067768442838931"><ele>210.50000000000003</ele><time>2026-04-25T07:37:02.999Z</time></trkpt><trkpt lat="45.80734701008705" lon="10.067747863891107"><ele>209.0</ele><time>2026-04-25T07:37:03.999Z</time></trkpt><trkpt lat="45.807276669154646" lon="10.067730866028397"><ele>207.5</ele><time>2026-04-25T07:37:04.999Z</time></trkpt><trkpt lat="45.80721340356452" lon="10.067718115923748"><ele>206.0</ele><time>2026-04-25T07:37:05.999Z</time></trkpt><trkpt lat="45.80712806311371" lon="10.06767932522121"><ele>204.50000000000003</ele><time>2026-04-25T07:37:07.999Z</time></trkpt><trkpt lat="45.80707393568304" lon="10.067856139960869"><ele>203.0</ele><time>2026-04-25T07:37:10.999Z</time></trkpt><trkpt lat="45.807070971386985" lon="10.06796202724728"><ele>203.00000000000003</ele><time>2026-04-25T07:37:12.999Z</time></trkpt><trkpt lat="45.80706389371364" lon="10.068073142377392"><ele>203.0</ele><time>2026-04-25T07:37:14.999Z</time></trkpt><trkpt lat="45.807056666597695" lon="10.068189269295228"><ele>203.0</ele><time>2026-04-25T07:37:16.999Z</time></trkpt><trkpt lat="45.80704554245367" lon="10.068313802525932"><ele>203.0</ele><time>2026-04-25T07:37:18.999Z</time></trkpt><trkpt lat="45.80703467978064" lon="10.068439373865735"><ele>203.00000000000003</ele><time>2026-04-25T07:37:21Z</time></trkpt><trkpt lat="45.807024182830894" lon="10.06857754715526"><ele>203.0</ele><time>2026-04-25T07:37:23Z</time></trkpt><trkpt lat="45.80703912356506" lon="10.068686191088867"><ele>201.00000000000003</ele><time>2026-04-25T07:37:25Z</time></trkpt><trkpt lat="45.80709091059616" lon="10.068741045681389"><ele>199.0</ele><time>2026-04-25T07:37:27Z</time></trkpt><trkpt lat="45.807159999973145" lon="10.068756095210823"><ele>197.0</ele><time>2026-04-25T07:37:30Z</time></trkpt><trkpt lat="45.807235426971076" lon="10.068713865408103"><ele>195.0</ele><time>2026-04-25T07:37:34Z</time></trkpt><trkpt lat="45.80730291042649" lon="10.06865193874384"><ele>193.0</ele><time>2026-04-25T07:37:37Z</time></trkpt><trkpt lat="45.80737561576938" lon="10.068567634777638"><ele>191.0</ele><time>2026-04-25T07:37:39Z</time></trkpt><trkpt lat="45.80746249620874" lon="10.06850709413727"><ele>191.0</ele><time>2026-04-25T07:37:41Z</time></trkpt><trkpt lat="45.80755136819983" lon="10.068447465725212"><ele>191.0</ele><time>2026-04-25T07:37:43Z</time></trkpt><trkpt lat="45.807632016119456" lon="10.068406228694455"><ele>191.0</ele><time>2026-04-25T07:37:45Z</time></trkpt><trkpt lat="45.807721289235474" lon="10.068375041499165"><ele>191.0</ele><time>2026-04-25T07:37:47Z</time></trkpt><trkpt lat="45.80780949419204" lon="10.068358080639065"><ele>191.0</ele><time>2026-04-25T07:37:49Z</time></trkpt><trkpt lat="45.807881221863866" lon="10.06833336391337"><ele>191.0</ele><time>2026-04-25T07:37:51Z</time></trkpt><trkpt lat="45.807979365038285" lon="10.068345227263455"><ele>191.16666666666666</ele><time>2026-04-25T07:37:54Z</time></trkpt><trkpt lat="45.80806025972493" lon="10.06834166719265"><ele>191.33333333333331</ele><time>2026-04-25T07:37:56Z</time></trkpt><trkpt lat="45.808145806973" lon="10.068370451631305"><ele>191.5</ele><time>2026-04-25T07:37:58Z</time></trkpt><trkpt lat="45.8082385860173" lon="10.068410806804797"><ele>191.66666666666666</ele><time>2026-04-25T07:38:00Z</time></trkpt><trkpt lat="45.808323901265496" lon="10.068460610612416"><ele>191.83333333333334</ele><time>2026-04-25T07:38:02Z</time></trkpt><trkpt lat="45.80840476578338" lon="10.068517390191108"><ele>192.0</ele><time>2026-04-25T07:38:04Z</time></trkpt><trkpt lat="45.80848025933852" lon="10.068585456924724"><ele>192.0</ele><time>2026-04-25T07:38:06Z</time></trkpt><trkpt lat="45.808540376330704" lon="10.068657255974486"><ele>192.0</ele><time>2026-04-25T07:38:08Z</time></trkpt><trkpt lat="45.80861031618911" lon="10.068656928322433"><ele>192.0</ele><time>2026-04-25T07:38:10Z</time></trkpt><trkpt lat="45.80868838840448" lon="10.06867799261023"><ele>192.0</ele><time>2026-04-25T07:38:40.999Z</time></trkpt><trkpt lat="45.80861927856912" lon="10.068633667557622"><ele>192.0</ele><time>2026-04-25T07:38:44.999Z</time></trkpt><trkpt lat="45.80854884550921" lon="10.068602184005437"><ele>192.0</ele><time>2026-04-25T07:38:47.999Z</time></trkpt><trkpt lat="45.808468075496485" lon="10.068571132476507"><ele>191.99999999999997</ele><time>2026-04-25T07:38:50.999Z</time></trkpt><trkpt lat="45.808401221938986" lon="10.068620277253057"><ele>192.0</ele><time>2026-04-25T07:38:51.999Z</time></trkpt><trkpt lat="45.80834000417628" lon="10.068578713861013"><ele>192.0</ele><time>2026-04-25T07:38:53.999Z</time></trkpt><trkpt lat="45.80827648709768" lon="10.06854567690762"><ele>192.0</ele><time>2026-04-25T07:38:55.999Z</time></trkpt><trkpt lat="45.8082051385996" lon="10.068513835436327"><ele>192.0</ele><time>2026-04-25T07:38:57.999Z</time></trkpt><trkpt lat="45.80813362545762" lon="10.068484748384707"><ele>191.99999999999997</ele><time>2026-04-25T07:38:59.999Z</time></trkpt><trkpt lat="45.80806666062813" lon="10.068471385531891"><ele>192.0</ele><time>2026-04-25T07:39:01.999Z</time></trkpt><trkpt lat="45.80796976165707" lon="10.068468056328104"><ele>191.99999999999997</ele><time>2026-04-25T07:39:04.999Z</time></trkpt><trkpt lat="45.80789814009495" lon="10.068477408672498"><ele>192.0</ele><time>2026-04-25T07:39:06.999Z</time></trkpt><trkpt lat="45.80783288423686" lon="10.068492154594738"><ele>192.0</ele><time>2026-04-25T07:39:08.999Z</time></trkpt><trkpt lat="45.807767266812874" lon="10.068508377513698"><ele>192.0</ele><time>2026-04-25T07:39:10.999Z</time></trkpt><trkpt lat="45.807697561873205" lon="10.068538753249571"><ele>192.0</ele><time>2026-04-25T07:39:13.999Z</time></trkpt><trkpt lat="45.80763748388257" lon="10.068573670702559"><ele>191.99999999999997</ele><time>2026-04-25T07:39:15.999Z</time></trkpt><trkpt lat="45.80757297234251" lon="10.068612361515443"><ele>192.0</ele><time>2026-04-25T07:39:17.999Z</time></trkpt><trkpt lat="45.80750732010759" lon="10.06865173640552"><ele>191.83333333333334</ele><time>2026-04-25T07:39:19.999Z</time></trkpt><trkpt lat="45.80744424715061" lon="10.068689566020586"><ele>191.66666666666666</ele><time>2026-04-25T07:39:21.999Z</time></trkpt><trkpt lat="45.80738027718391" lon="10.068727933640178"><ele>191.5</ele><time>2026-04-25T07:39:23.999Z</time></trkpt><trkpt lat="45.80732146357604" lon="10.068763208602855"><ele>191.33333333333331</ele><time>2026-04-25T07:39:26Z</time></trkpt><trkpt lat="45.807224723239656" lon="10.06865885544904"><ele>191.16666666666666</ele><time>2026-04-25T07:39:29Z</time></trkpt><trkpt lat="45.80716282969443" lon="10.068689521081572"><ele>191.0</ele><time>2026-04-25T07:39:32Z</time></trkpt><trkpt lat="45.807097316913726" lon="10.06870472100049"><ele>191.0</ele><time>2026-04-25T07:39:35Z</time></trkpt><trkpt lat="45.80697643665507" lon="10.068755334366527"><ele>191.0</ele><time>2026-04-25T07:39:40Z</time></trkpt><trkpt lat="45.807018946647055" lon="10.068688437911058"><ele>191.0</ele><time>2026-04-25T07:40:12Z</time></trkpt><trkpt lat="45.80706145434186" lon="10.068621543403959"><ele>191.0</ele><time>2026-04-25T07:40:17Z</time></trkpt><trkpt lat="45.80716719307325" lon="10.06875720284039"><ele>191.0</ele><time>2026-04-25T07:40:21Z</time></trkpt><trkpt lat="45.807215459315216" lon="10.068688958266758"><ele>191.0</ele><time>2026-04-25T07:40:24Z</time></trkpt><trkpt lat="45.8072806250305" lon="10.068615383148993"><ele>191.0</ele><time>2026-04-25T07:40:35Z</time></trkpt><trkpt lat="45.80739132909231" lon="10.068523798709592"><ele>191.0</ele><time>2026-04-25T07:40:37Z</time></trkpt><trkpt lat="45.80746623024689" lon="10.068467777733094"><ele>191.0</ele><time>2026-04-25T07:40:38Z</time></trkpt><trkpt lat="45.80762200770079" lon="10.068418250375032"><ele>191.16666666666666</ele><time>2026-04-25T07:40:39Z</time></trkpt><trkpt lat="45.80771578055629" lon="10.068374223107234"><ele>191.33333333333331</ele><time>2026-04-25T07:40:40Z</time></trkpt><trkpt lat="45.807802833889255" lon="10.068351949504171"><ele>191.5</ele><time>2026-04-25T07:40:41Z</time></trkpt><trkpt lat="45.80788935210771" lon="10.068343942377947"><ele>191.66666666666666</ele><time>2026-04-25T07:40:42Z</time></trkpt><trkpt lat="45.80797667957389" lon="10.068344626675692"><ele>191.83333333333334</ele><time>2026-04-25T07:40:43Z</time></trkpt><trkpt lat="45.8080646080621" lon="10.068355101080089"><ele>192.0</ele><time>2026-04-25T07:40:44Z</time></trkpt><trkpt lat="45.80814790273063" lon="10.068378131813361"><ele>192.0</ele><time>2026-04-25T07:40:45Z</time></trkpt><trkpt lat="45.80823371926407" lon="10.068411302572352"><ele>192.0</ele><time>2026-04-25T07:40:46Z</time></trkpt><trkpt lat="45.808326950942" lon="10.068461488605092"><ele>192.0</ele><time>2026-04-25T07:40:47Z</time></trkpt><trkpt lat="45.808415414804024" lon="10.068523031228796"><ele>192.0</ele><time>2026-04-25T07:40:48Z</time></trkpt><trkpt lat="45.80850597943621" lon="10.06859271953323"><ele>192.0</ele><time>2026-04-25T07:40:49Z</time></trkpt><trkpt lat="45.80859986261041" lon="10.06865515508111"><ele>193.33333333333334</ele><time>2026-04-25T07:40:50Z</time></trkpt><trkpt lat="45.80869253476598" lon="10.06869312914931"><ele>194.66666666666669</ele><time>2026-04-25T07:40:51Z</time></trkpt><trkpt lat="45.80877906843735" lon="10.068703095416772"><ele>196.0</ele><time>2026-04-25T07:40:52Z</time></trkpt><trkpt lat="45.80886689791204" lon="10.068703145660374"><ele>197.33333333333334</ele><time>2026-04-25T07:40:52.999Z</time></trkpt><trkpt lat="45.808953634722414" lon="10.068704178058182"><ele>198.66666666666669</ele><time>2026-04-25T07:40:53.999Z</time></trkpt><trkpt lat="45.80903207521987" lon="10.068701497339642"><ele>200.0</ele><time>2026-04-25T07:40:54.999Z</time></trkpt><trkpt lat="45.8090994147984" lon="10.06868057276317"><ele>200.00000000000003</ele><time>2026-04-25T07:40:55.999Z</time></trkpt><trkpt lat="45.80919949286419" lon="10.068656691817727"><ele>200.0</ele><time>2026-04-25T07:40:57.999Z</time></trkpt><trkpt lat="45.80913977160807" lon="10.068695982293303"><ele>200.0</ele><time>2026-04-25T07:43:28.999Z</time></trkpt><trkpt lat="45.80908111364325" lon="10.068739047714326"><ele>200.0</ele><time>2026-04-25T07:43:38Z</time></trkpt><trkpt lat="45.809046000019684" lon="10.068826132709956"><ele>200.0</ele><time>2026-04-25T07:44:11Z</time></trkpt><trkpt lat="45.808983105073175" lon="10.068853555247298"><ele>200.00000000000003</ele><time>2026-04-25T07:44:18Z</time></trkpt><trkpt lat="45.80892991529185" lon="10.068916047400522"><ele>200.0</ele><time>2026-04-25T07:44:26Z</time></trkpt><trkpt lat="45.80887615877072" lon="10.068969851282787"><ele>200.00000000000003</ele><time>2026-04-25T07:44:33Z</time></trkpt><trkpt lat="45.80881808313425" lon="10.069022587965733"><ele>200.0</ele><time>2026-04-25T07:44:40Z</time></trkpt><trkpt lat="45.80876147034055" lon="10.06906446189189"><ele>200.0</ele><time>2026-04-25T07:44:48Z</time></trkpt><trkpt lat="45.808716232703375" lon="10.069137062797708"><ele>200.0</ele><time>2026-04-25T07:44:54.999Z</time></trkpt><trkpt lat="45.80866418267767" lon="10.069191181647582"><ele>200.0</ele><time>2026-04-25T07:45:01.999Z</time></trkpt><trkpt lat="45.808605205320724" lon="10.069251069090116"><ele>200.00000000000003</ele><time>2026-04-25T07:45:08.999Z</time></trkpt><trkpt lat="45.808537533586" lon="10.06922347747258"><ele>200.0</ele><time>2026-04-25T07:45:19.999Z</time></trkpt><trkpt lat="45.8084819013687" lon="10.069171252236293"><ele>186.0</ele><time>2026-04-25T07:45:27.999Z</time></trkpt><trkpt lat="45.808424782235875" lon="10.069111053506163"><ele>186.0</ele><time>2026-04-25T07:45:40.999Z</time></trkpt><trkpt lat="45.808356487496305" lon="10.069116159804514"><ele>186.0</ele><time>2026-04-25T07:45:49Z</time></trkpt><trkpt lat="45.808301528995194" lon="10.069061344872608"><ele>192.0</ele><time>2026-04-25T07:45:56Z</time></trkpt></trkseg><trkseg><trkpt lat="45.809167659342506" lon="10.068672603266805"><ele>200.0</ele><time>2026-04-25T08:30:53Z</time></trkpt><trkpt lat="45.809211385654486" lon="10.068603175489457"><ele>200.0</ele><time>2026-04-25T08:31:00Z</time></trkpt><trkpt lat="45.80928444853392" lon="10.068651844318431"><ele>200.0</ele><time>2026-04-25T08:33:41Z</time></trkpt><trkpt lat="45.809394579777546" lon="10.068657122305252"><ele>200.0</ele><time>2026-04-25T08:33:43Z</time></trkpt><trkpt lat="45.809518719950624" lon="10.068658048422789"><ele>200.0</ele><time>2026-04-25T08:33:45Z</time></trkpt><trkpt lat="45.809630459371874" lon="10.06867376476581"><ele>201.66666666666669</ele><time>2026-04-25T08:33:47Z</time></trkpt><trkpt lat="45.809733493958106" lon="10.06869333364242"><ele>203.33333333333334</ele><time>2026-04-25T08:33:49Z</time></trkpt><trkpt lat="45.80983046484193" lon="10.068773034539957"><ele>205.0</ele><time>2026-04-25T08:33:51Z</time></trkpt><trkpt lat="45.80988564521764" lon="10.06883832788228"><ele>206.66666666666669</ele><time>2026-04-25T08:33:52Z</time></trkpt><trkpt lat="45.80994395013731" lon="10.068909745911267"><ele>208.33333333333334</ele><time>2026-04-25T08:33:53Z</time></trkpt><trkpt lat="45.81000172460855" lon="10.068989973510359"><ele>210.0</ele><time>2026-04-25T08:33:54Z</time></trkpt><trkpt lat="45.81005559066405" lon="10.069080004352438"><ele>208.71428571428572</ele><time>2026-04-25T08:33:55Z</time></trkpt><trkpt lat="45.810104413046645" lon="10.06917590834787"><ele>207.42857142857144</ele><time>2026-04-25T08:33:56Z</time></trkpt><trkpt lat="45.81014826381132" lon="10.069268518403183"><ele>206.14285714285714</ele><time>2026-04-25T08:33:57Z</time></trkpt><trkpt lat="45.810185021169445" lon="10.069358322130817"><ele>204.85714285714286</ele><time>2026-04-25T08:33:58Z</time></trkpt><trkpt lat="45.81022018513457" lon="10.069444227585718"><ele>203.57142857142858</ele><time>2026-04-25T08:33:59Z</time></trkpt><trkpt lat="45.810247126844786" lon="10.069539184289868"><ele>202.28571428571428</ele><time>2026-04-25T08:34:00Z</time></trkpt><trkpt lat="45.81025147678199" lon="10.069638283102032"><ele>201.0</ele><time>2026-04-25T08:34:01Z</time></trkpt><trkpt lat="45.810250373246475" lon="10.069732250358689"><ele>201.0</ele><time>2026-04-25T08:34:02Z</time></trkpt><trkpt lat="45.810259455028536" lon="10.069888123018327"><ele>201.0</ele><time>2026-04-25T08:34:04Z</time></trkpt><trkpt lat="45.81026452034891" lon="10.069992659248113"><ele>201.0</ele><time>2026-04-25T08:34:07Z</time></trkpt><trkpt lat="45.810284524773664" lon="10.070090926140711"><ele>201.0</ele><time>2026-04-25T08:34:10Z</time></trkpt><trkpt lat="45.8102426022752" lon="10.070209180489671"><ele>201.0</ele><time>2026-04-25T08:34:11Z</time></trkpt><trkpt lat="45.810277226201734" lon="10.07033574743686"><ele>201.0</ele><time>2026-04-25T08:34:12.999Z</time></trkpt><trkpt lat="45.81034460047782" lon="10.070384825373853"><ele>199.83333333333334</ele><time>2026-04-25T08:34:13.999Z</time></trkpt><trkpt lat="45.81041081661249" lon="10.070418267717688"><ele>198.66666666666669</ele><time>2026-04-25T08:34:14.999Z</time></trkpt><trkpt lat="45.81048780372344" lon="10.070441795142052"><ele>197.5</ele><time>2026-04-25T08:34:15.999Z</time></trkpt><trkpt lat="45.81056740471174" lon="10.070480587628989"><ele>196.33333333333334</ele><time>2026-04-25T08:34:16.999Z</time></trkpt><trkpt lat="45.81065219817862" lon="10.070516676383516"><ele>195.16666666666669</ele><time>2026-04-25T08:34:17.999Z</time></trkpt><trkpt lat="45.8107201476469" lon="10.070541797231419"><ele>194.0</ele><time>2026-04-25T08:34:18.999Z</time></trkpt><trkpt lat="45.8108425867668" lon="10.070564044866547"><ele>194.00000000000003</ele><time>2026-04-25T08:34:20.999Z</time></trkpt><trkpt lat="45.810922394467184" lon="10.07056974907906"><ele>194.0</ele><time>2026-04-25T08:34:21.999Z</time></trkpt><trkpt lat="45.81100373965798" lon="10.070596092736906"><ele>194.0</ele><time>2026-04-25T08:34:22.999Z</time></trkpt><trkpt lat="45.81106486487384" lon="10.070626770107824"><ele>194.0</ele><time>2026-04-25T08:34:23.999Z</time></trkpt><trkpt lat="45.811131250939226" lon="10.070655318016923"><ele>194.00000000000003</ele><time>2026-04-25T08:34:26.999Z</time></trkpt><trkpt lat="45.81121015547526" lon="10.070700956230118"><ele>194.0</ele><time>2026-04-25T08:34:30.999Z</time></trkpt><trkpt lat="45.81132041537055" lon="10.07076153508251"><ele>193.16666666666669</ele><time>2026-04-25T08:34:32.999Z</time></trkpt><trkpt lat="45.81138515999898" lon="10.070795691608085"><ele>192.33333333333334</ele><time>2026-04-25T08:34:33.999Z</time></trkpt><trkpt lat="45.811457619679736" lon="10.070832183777847"><ele>191.5</ele><time>2026-04-25T08:34:34.999Z</time></trkpt><trkpt lat="45.811531465126286" lon="10.070872544302286"><ele>190.66666666666669</ele><time>2026-04-25T08:34:35.999Z</time></trkpt><trkpt lat="45.81160407281257" lon="10.070923053433619"><ele>189.83333333333334</ele><time>2026-04-25T08:34:36.999Z</time></trkpt><trkpt lat="45.811682717941665" lon="10.070981012839022"><ele>189.0</ele><time>2026-04-25T08:34:37.999Z</time></trkpt><trkpt lat="45.811761149699066" lon="10.071039239994212"><ele>190.6</ele><time>2026-04-25T08:34:38.999Z</time></trkpt><trkpt lat="45.81186811706759" lon="10.071101942866877"><ele>192.2</ele><time>2026-04-25T08:34:40.999Z</time></trkpt><trkpt lat="45.81196728217944" lon="10.071177185287496"><ele>193.79999999999998</ele><time>2026-04-25T08:34:42.999Z</time></trkpt><trkpt lat="45.812038024149814" lon="10.071206797962084"><ele>195.39999999999998</ele><time>2026-04-25T08:34:44.999Z</time></trkpt><trkpt lat="45.81207799069938" lon="10.071073404479192"><ele>197.0</ele><time>2026-04-25T08:34:50Z</time></trkpt><trkpt lat="45.812041744737044" lon="10.07099075682227"><ele>197.0</ele><time>2026-04-25T08:34:51Z</time></trkpt><trkpt lat="45.8119670223688" lon="10.070917656813075"><ele>197.0</ele><time>2026-04-25T08:34:52Z</time></trkpt><trkpt lat="45.811888155940245" lon="10.070847099842082"><ele>197.0</ele><time>2026-04-25T08:34:53Z</time></trkpt><trkpt lat="45.811803040002665" lon="10.070759450478306"><ele>197.0</ele><time>2026-04-25T08:34:54Z</time></trkpt><trkpt lat="45.81172354164425" lon="10.070669624873203"><ele>197.0</ele><time>2026-04-25T08:34:55Z</time></trkpt><trkpt lat="45.81164442222121" lon="10.070577593040076"><ele>197.2</ele><time>2026-04-25T08:34:56Z</time></trkpt><trkpt lat="45.811559688140946" lon="10.070480018963396"><ele>197.39999999999998</ele><time>2026-04-25T08:34:57Z</time></trkpt><trkpt lat="45.8114724203773" lon="10.070390957761676"><ele>197.60000000000002</ele><time>2026-04-25T08:34:58Z</time></trkpt><trkpt lat="45.81138577721721" lon="10.070306121605412"><ele>197.8</ele><time>2026-04-25T08:34:59Z</time></trkpt><trkpt lat="45.811306770079824" lon="10.070212327361817"><ele>198.0</ele><time>2026-04-25T08:35:00Z</time></trkpt><trkpt lat="45.81122252199933" lon="10.070114719000092"><ele>198.0</ele><time>2026-04-25T08:35:01Z</time></trkpt><trkpt lat="45.81113989727663" lon="10.070017678980987"><ele>198.0</ele><time>2026-04-25T08:35:02Z</time></trkpt><trkpt lat="45.811060138972906" lon="10.069920480358812"><ele>198.0</ele><time>2026-04-25T08:35:03Z</time></trkpt><trkpt lat="45.810968685222356" lon="10.069827990971996"><ele>198.0</ele><time>2026-04-25T08:35:04Z</time></trkpt><trkpt lat="45.81088622022352" lon="10.069726729667362"><ele>198.0</ele><time>2026-04-25T08:35:05Z</time></trkpt><trkpt lat="45.81080030346303" lon="10.06962811712591"><ele>198.60000000000002</ele><time>2026-04-25T08:35:06Z</time></trkpt><trkpt lat="45.810710926251176" lon="10.069533653388856"><ele>199.20000000000002</ele><time>2026-04-25T08:35:07Z</time></trkpt><trkpt lat="45.81062035226803" lon="10.069436652339334"><ele>199.8</ele><time>2026-04-25T08:35:08Z</time></trkpt><trkpt lat="45.810534922137805" lon="10.069334906725281"><ele>200.4</ele><time>2026-04-25T08:35:09Z</time></trkpt><trkpt lat="45.810455094874094" lon="10.06921749209181"><ele>201.0</ele><time>2026-04-25T08:35:10Z</time></trkpt><trkpt lat="45.810378885282525" lon="10.069084323564912"><ele>207.5</ele><time>2026-04-25T08:35:11Z</time></trkpt><trkpt lat="45.81031229903771" lon="10.06893654585887"><ele>214.0</ele><time>2026-04-25T08:35:12Z</time></trkpt><trkpt lat="45.81026141573366" lon="10.068772837130696"><ele>220.5</ele><time>2026-04-25T08:35:13Z</time></trkpt><trkpt lat="45.81021539215718" lon="10.068602865208584"><ele>227.0</ele><time>2026-04-25T08:35:14Z</time></trkpt><trkpt lat="45.81016288128903" lon="10.06843014500679"><ele>229.0</ele><time>2026-04-25T08:35:15Z</time></trkpt><trkpt lat="45.810094923623566" lon="10.068265217283502"><ele>231.0</ele><time>2026-04-25T08:35:16Z</time></trkpt><trkpt lat="45.80999771437574" lon="10.068117279951268"><ele>233.0</ele><time>2026-04-25T08:35:17Z</time></trkpt><trkpt lat="45.80986911033975" lon="10.067985899461972"><ele>235.0</ele><time>2026-04-25T08:35:18Z</time></trkpt><trkpt lat="45.809712487616885" lon="10.067881227484419"><ele>235.0</ele><time>2026-04-25T08:35:19Z</time></trkpt><trkpt lat="45.8095498245943" lon="10.067789770936283"><ele>235.0</ele><time>2026-04-25T08:35:20Z</time></trkpt><trkpt lat="45.80937996062785" lon="10.067701333732881"><ele>235.0</ele><time>2026-04-25T08:35:21Z</time></trkpt><trkpt lat="45.80920882501231" lon="10.067609633675746"><ele>235.33333333333331</ele><time>2026-04-25T08:35:22Z</time></trkpt><trkpt lat="45.809033634090355" lon="10.067516914835542"><ele>235.66666666666669</ele><time>2026-04-25T08:35:23Z</time></trkpt><trkpt lat="45.80886533380939" lon="10.067425064309878"><ele>236.0</ele><time>2026-04-25T08:35:24Z</time></trkpt><trkpt lat="45.80870539380111" lon="10.067329919659091"><ele>236.0</ele><time>2026-04-25T08:35:25Z</time></trkpt><trkpt lat="45.80855582501452" lon="10.067222510627692"><ele>236.0</ele><time>2026-04-25T08:35:26Z</time></trkpt><trkpt lat="45.8084295983256" lon="10.067073196528378"><ele>236.0</ele><time>2026-04-25T08:35:27Z</time></trkpt><trkpt lat="45.808339231268775" lon="10.066887875190483"><ele>235.0</ele><time>2026-04-25T08:35:28Z</time></trkpt><trkpt lat="45.808284626011165" lon="10.066683382260479"><ele>234.0</ele><time>2026-04-25T08:35:29Z</time></trkpt><trkpt lat="45.808261716478064" lon="10.066456630609222"><ele>233.0</ele><time>2026-04-25T08:35:30Z</time></trkpt><trkpt lat="45.808251958979554" lon="10.066225766432483"><ele>233.0</ele><time>2026-04-25T08:35:31Z</time></trkpt><trkpt lat="45.808241835513265" lon="10.065983220605217"><ele>233.0</ele><time>2026-04-25T08:35:32Z</time></trkpt><trkpt lat="45.8082198048524" lon="10.065736735196609"><ele>233.0</ele><time>2026-04-25T08:35:33Z</time></trkpt><trkpt lat="45.80816731254347" lon="10.065496499841364"><ele>237.0</ele><time>2026-04-25T08:35:34Z</time></trkpt><trkpt lat="45.80807548253755" lon="10.06527658923615"><ele>241.0</ele><time>2026-04-25T08:35:35Z</time></trkpt><trkpt lat="45.807949317199224" lon="10.065084288724412"><ele>245.0</ele><time>2026-04-25T08:35:36Z</time></trkpt><trkpt lat="45.80778862567031" lon="10.064941897096565"><ele>252.66666666666669</ele><time>2026-04-25T08:35:37Z</time></trkpt><trkpt lat="45.80761596952921" lon="10.064846254491306"><ele>260.3333333333333</ele><time>2026-04-25T08:35:38Z</time></trkpt><trkpt lat="45.80742947631593" lon="10.064806241802259"><ele>268.0</ele><time>2026-04-25T08:35:39Z</time></trkpt><trkpt lat="45.80724002190987" lon="10.064818282230943"><ele>268.0</ele><time>2026-04-25T08:35:40Z</time></trkpt><trkpt lat="45.80705404467407" lon="10.064833245859239"><ele>268.0</ele><time>2026-04-25T08:35:41Z</time></trkpt><trkpt lat="45.80687430954893" lon="10.064832963970314"><ele>268.0</ele><time>2026-04-25T08:35:42Z</time></trkpt><trkpt lat="45.80670908830927" lon="10.064826404760643"><ele>264.0</ele><time>2026-04-25T08:35:43Z</time></trkpt><trkpt lat="45.80655421660369" lon="10.064764983729507"><ele>260.0</ele><time>2026-04-25T08:35:44Z</time></trkpt><trkpt lat="45.80642457765246" lon="10.064652662770536"><ele>256.0</ele><time>2026-04-25T08:35:45Z</time></trkpt><trkpt lat="45.806325747728046" lon="10.06448320261708"><ele>256.0</ele><time>2026-04-25T08:35:46Z</time></trkpt><trkpt lat="45.806262595672656" lon="10.06427494093789"><ele>256.0</ele><time>2026-04-25T08:35:47Z</time></trkpt><trkpt lat="45.806246817384896" lon="10.064048551058285"><ele>256.0</ele><time>2026-04-25T08:35:48Z</time></trkpt><trkpt lat="45.80626146904682" lon="10.06381824416625"><ele>260.3333333333333</ele><time>2026-04-25T08:35:49Z</time></trkpt><trkpt lat="45.80635237493492" lon="10.063609484131355"><ele>264.6666666666667</ele><time>2026-04-25T08:35:50Z</time></trkpt><trkpt lat="45.806418979135046" lon="10.063375902599462"><ele>269.0</ele><time>2026-04-25T08:35:51Z</time></trkpt><trkpt lat="45.806459585339894" lon="10.06311963908028"><ele>270.6666666666667</ele><time>2026-04-25T08:35:52Z</time></trkpt><trkpt lat="45.80648219356085" lon="10.062862166556709"><ele>272.3333333333333</ele><time>2026-04-25T08:35:53Z</time></trkpt><trkpt lat="45.806506968228035" lon="10.062611726830912"><ele>274.0</ele><time>2026-04-25T08:35:54Z</time></trkpt><trkpt lat="45.806524910753694" lon="10.06238043778663"><ele>274.0</ele><time>2026-04-25T08:35:55Z</time></trkpt><trkpt lat="45.80654282153288" lon="10.062174295984631"><ele>274.0</ele><time>2026-04-25T08:35:56Z</time></trkpt><trkpt lat="45.806563450911966" lon="10.061984759056243"><ele>274.0</ele><time>2026-04-25T08:35:57Z</time></trkpt><trkpt lat="45.80657951861344" lon="10.061795443583188"><ele>274.0</ele><time>2026-04-25T08:35:58Z</time></trkpt><trkpt lat="45.80660163334889" lon="10.06161955962978"><ele>274.4</ele><time>2026-04-25T08:35:59Z</time></trkpt><trkpt lat="45.806638706194306" lon="10.061469282288463"><ele>274.79999999999995</ele><time>2026-04-25T08:36:00Z</time></trkpt><trkpt lat="45.80669381238542" lon="10.061344287355642"><ele>275.20000000000005</ele><time>2026-04-25T08:36:01Z</time></trkpt><trkpt lat="45.8067549782876" lon="10.061229740598222"><ele>275.6</ele><time>2026-04-25T08:36:02Z</time></trkpt><trkpt lat="45.8068185381889" lon="10.061134414146887"><ele>276.0</ele><time>2026-04-25T08:36:03Z</time></trkpt><trkpt lat="45.80686777983726" lon="10.061060586956833"><ele>272.5</ele><time>2026-04-25T08:36:04Z</time></trkpt><trkpt lat="45.80695495970662" lon="10.06096263814931"><ele>269.0</ele><time>2026-04-25T08:36:06Z</time></trkpt><trkpt lat="45.8070660225178" lon="10.060933269690832"><ele>265.5</ele><time>2026-04-25T08:36:08Z</time></trkpt><trkpt lat="45.807179319544616" lon="10.060952795228959"><ele>262.0</ele><time>2026-04-25T08:36:10Z</time></trkpt><trkpt lat="45.8072796072187" lon="10.060868638469536"><ele>261.0</ele><time>2026-04-25T08:36:12Z</time></trkpt><trkpt lat="45.80730053317008" lon="10.060778917829532"><ele>260.0</ele><time>2026-04-25T08:36:13Z</time></trkpt><trkpt lat="45.807294394891244" lon="10.060682787812187"><ele>259.0</ele><time>2026-04-25T08:36:14Z</time></trkpt><trkpt lat="45.80725188958047" lon="10.060586793470295"><ele>258.0</ele><time>2026-04-25T08:36:15Z</time></trkpt><trkpt lat="45.807182951496436" lon="10.060507092276996"><ele>257.0</ele><time>2026-04-25T08:36:16Z</time></trkpt><trkpt lat="45.80712617554461" lon="10.060413902556824"><ele>256.0</ele><time>2026-04-25T08:36:17Z</time></trkpt><trkpt lat="45.807130743855616" lon="10.060287772068303"><ele>256.0</ele><time>2026-04-25T08:36:18Z</time></trkpt><trkpt lat="45.80712132118037" lon="10.060144748946282"><ele>256.0</ele><time>2026-04-25T08:36:19Z</time></trkpt><trkpt lat="45.80712765605943" lon="10.059986799890105"><ele>256.0</ele><time>2026-04-25T08:36:20Z</time></trkpt><trkpt lat="45.807123514135654" lon="10.059813001374986"><ele>256.0</ele><time>2026-04-25T08:36:20.999Z</time></trkpt><trkpt lat="45.80711788124592" lon="10.059625583333533"><ele>255.0</ele><time>2026-04-25T08:36:21.999Z</time></trkpt><trkpt lat="45.80711312617127" lon="10.059427495095937"><ele>254.0</ele><time>2026-04-25T08:36:22.999Z</time></trkpt><trkpt lat="45.80710968964111" lon="10.059227061750518"><ele>253.0</ele><time>2026-04-25T08:36:23.999Z</time></trkpt><trkpt lat="45.80709742067649" lon="10.059013461864922"><ele>252.0</ele><time>2026-04-25T08:36:24.999Z</time></trkpt><trkpt lat="45.80708900660876" lon="10.058782402972945"><ele>251.66666666666669</ele><time>2026-04-25T08:36:25.999Z</time></trkpt><trkpt lat="45.80708327271274" lon="10.058537859718427"><ele>251.33333333333334</ele><time>2026-04-25T08:36:26.999Z</time></trkpt><trkpt lat="45.8070817417741" lon="10.05827344623917"><ele>251.0</ele><time>2026-04-25T08:36:27.999Z</time></trkpt><trkpt lat="45.8070794942542" lon="10.057994421379501"><ele>252.33333333333334</ele><time>2026-04-25T08:36:28.999Z</time></trkpt><trkpt lat="45.80707643470548" lon="10.057708084788"><ele>253.66666666666669</ele><time>2026-04-25T08:36:29.999Z</time></trkpt><trkpt lat="45.80706816092145" lon="10.057425891375864"><ele>255.0</ele><time>2026-04-25T08:36:30.999Z</time></trkpt><trkpt lat="45.80706753368462" lon="10.057153208730615"><ele>256.0</ele><time>2026-04-25T08:36:31.999Z</time></trkpt><trkpt lat="45.80708369035227" lon="10.056892538320554"><ele>257.0</ele><time>2026-04-25T08:36:32.999Z</time></trkpt><trkpt lat="45.80711260430349" lon="10.056652062926496"><ele>258.0</ele><time>2026-04-25T08:36:33.999Z</time></trkpt><trkpt lat="45.807150202149636" lon="10.056436772860417"><ele>261.25</ele><time>2026-04-25T08:36:34.999Z</time></trkpt><trkpt lat="45.80719973682456" lon="10.05624269228406"><ele>264.5</ele><time>2026-04-25T08:36:35.999Z</time></trkpt><trkpt lat="45.80726861983777" lon="10.056059417012998"><ele>267.75</ele><time>2026-04-25T08:36:36.999Z</time></trkpt><trkpt lat="45.80735598249631" lon="10.05589064566714"><ele>271.0</ele><time>2026-04-25T08:36:37.999Z</time></trkpt><trkpt lat="45.807445164785214" lon="10.05572804805262"><ele>268.25</ele><time>2026-04-25T08:36:38.999Z</time></trkpt><trkpt lat="45.8075231619712" lon="10.055585067469874"><ele>265.5</ele><time>2026-04-25T08:36:39.999Z</time></trkpt><trkpt lat="45.80759426772915" lon="10.055454363457297"><ele>262.75</ele><time>2026-04-25T08:36:40.999Z</time></trkpt><trkpt lat="45.807662748570415" lon="10.055335355683402"><ele>260.0</ele><time>2026-04-25T08:36:41.999Z</time></trkpt><trkpt lat="45.80774266421602" lon="10.055244671956165"><ele>260.0</ele><time>2026-04-25T08:36:42.999Z</time></trkpt><trkpt lat="45.80784259834698" lon="10.055198167135538"><ele>260.0</ele><time>2026-04-25T08:36:43.999Z</time></trkpt><trkpt lat="45.807948221568054" lon="10.05521096749165"><ele>260.0</ele><time>2026-04-25T08:36:44.999Z</time></trkpt><trkpt lat="45.80805253795088" lon="10.05527010642529"><ele>260.0</ele><time>2026-04-25T08:36:45.999Z</time></trkpt><trkpt lat="45.80815952547028" lon="10.055338943330261"><ele>260.0</ele><time>2026-04-25T08:36:46.999Z</time></trkpt><trkpt lat="45.80828341164832" lon="10.055372033582591"><ele>260.0</ele><time>2026-04-25T08:36:47.999Z</time></trkpt><trkpt lat="45.80841730077098" lon="10.055359253920104"><ele>260.0</ele><time>2026-04-25T08:36:48.999Z</time></trkpt><trkpt lat="45.80855270958923" lon="10.055300180328288"><ele>260.0</ele><time>2026-04-25T08:36:49.999Z</time></trkpt><trkpt lat="45.80868275599068" lon="10.055197890992059"><ele>260.0</ele><time>2026-04-25T08:36:50.999Z</time></trkpt><trkpt lat="45.808808725714975" lon="10.05506988773092"><ele>259.33333333333337</ele><time>2026-04-25T08:36:51.999Z</time></trkpt><trkpt lat="45.80893194384155" lon="10.054919333838928"><ele>258.6666666666667</ele><time>2026-04-25T08:36:52.999Z</time></trkpt><trkpt lat="45.80905961292506" lon="10.054761616867168"><ele>258.0</ele><time>2026-04-25T08:36:53.999Z</time></trkpt><trkpt lat="45.809189689356785" lon="10.054600181528553"><ele>258.0</ele><time>2026-04-25T08:36:54.999Z</time></trkpt><trkpt lat="45.80932507901697" lon="10.054435126470947"><ele>258.0</ele><time>2026-04-25T08:36:56Z</time></trkpt><trkpt lat="45.809460229872506" lon="10.05426799373489"><ele>258.0</ele><time>2026-04-25T08:36:57Z</time></trkpt><trkpt lat="45.80959075787896" lon="10.054111076598783"><ele>259.3333333333333</ele><time>2026-04-25T08:36:58Z</time></trkpt><trkpt lat="45.8097153706259" lon="10.053955915348324"><ele>260.66666666666663</ele><time>2026-04-25T08:36:59Z</time></trkpt><trkpt lat="45.80984089272432" lon="10.05381030396158"><ele>262.0</ele><time>2026-04-25T08:37:00Z</time></trkpt><trkpt lat="45.809934371223385" lon="10.053676078397796"><ele>262.0</ele><time>2026-04-25T08:37:01Z</time></trkpt><trkpt lat="45.81001532644618" lon="10.053521362572365"><ele>262.0</ele><time>2026-04-25T08:37:02Z</time></trkpt><trkpt lat="45.810055872333955" lon="10.053351765318377"><ele>262.0</ele><time>2026-04-25T08:37:03Z</time></trkpt><trkpt lat="45.8100431409284" lon="10.05316982079281"><ele>262.0</ele><time>2026-04-25T08:37:04Z</time></trkpt><trkpt lat="45.809984949447546" lon="10.053003341351456"><ele>264.0</ele><time>2026-04-25T08:37:05Z</time></trkpt><trkpt lat="45.80989731275609" lon="10.052873161599475"><ele>266.0</ele><time>2026-04-25T08:37:06Z</time></trkpt><trkpt lat="45.80978583960791" lon="10.052790160927941"><ele>268.0</ele><time>2026-04-25T08:37:07Z</time></trkpt><trkpt lat="45.80966800692089" lon="10.052744678475522"><ele>270.0</ele><time>2026-04-25T08:37:08Z</time></trkpt><trkpt lat="45.809538897186556" lon="10.05276226157828"><ele>270.0</ele><time>2026-04-25T08:37:09Z</time></trkpt><trkpt lat="45.80942715376105" lon="10.052843912603887"><ele>270.0</ele><time>2026-04-25T08:37:10Z</time></trkpt><trkpt lat="45.80933454807798" lon="10.052970058072727"><ele>270.0</ele><time>2026-04-25T08:37:11Z</time></trkpt><trkpt lat="45.80925545016064" lon="10.053102383889021"><ele>270.0</ele><time>2026-04-25T08:37:12Z</time></trkpt><trkpt lat="45.80915821464831" lon="10.053172511685698"><ele>269.3333333333333</ele><time>2026-04-25T08:37:13Z</time></trkpt><trkpt lat="45.80908292087996" lon="10.053181555156769"><ele>268.6666666666667</ele><time>2026-04-25T08:37:14Z</time></trkpt><trkpt lat="45.80901494375808" lon="10.053171577579201"><ele>268.0</ele><time>2026-04-25T08:37:18Z</time></trkpt><trkpt lat="45.80895575841773" lon="10.053137813296226"><ele>267.33333333333337</ele><time>2026-04-25T08:37:19Z</time></trkpt><trkpt lat="45.80889009797123" lon="10.053067905269007"><ele>266.6666666666667</ele><time>2026-04-25T08:37:20Z</time></trkpt><trkpt lat="45.808823113718155" lon="10.053003964332081"><ele>266.0</ele><time>2026-04-25T08:37:21Z</time></trkpt><trkpt lat="45.808749702751776" lon="10.052935882238778"><ele>266.0</ele><time>2026-04-25T08:37:22Z</time></trkpt><trkpt lat="45.80867194984795" lon="10.052856875648148"><ele>266.0</ele><time>2026-04-25T08:37:23Z</time></trkpt><trkpt lat="45.80859221695382" lon="10.052767469140985"><ele>266.0</ele><time>2026-04-25T08:37:24Z</time></trkpt><trkpt lat="45.80850397695442" lon="10.052669081688315"><ele>266.0</ele><time>2026-04-25T08:37:25Z</time></trkpt><trkpt lat="45.8084145212531" lon="10.05257059493763"><ele>266.0</ele><time>2026-04-25T08:37:26Z</time></trkpt><trkpt lat="45.80831649638863" lon="10.052461497494548"><ele>271.0</ele><time>2026-04-25T08:37:27Z</time></trkpt><trkpt lat="45.80821787436252" lon="10.052342800891601"><ele>276.0</ele><time>2026-04-25T08:37:28Z</time></trkpt><trkpt lat="45.80811496750866" lon="10.052227506111691"><ele>281.0</ele><time>2026-04-25T08:37:29Z</time></trkpt><trkpt lat="45.80801130094549" lon="10.052103961862029"><ele>286.0</ele><time>2026-04-25T08:37:30Z</time></trkpt><trkpt lat="45.807906159815055" lon="10.05197314339065"><ele>286.0</ele><time>2026-04-25T08:37:31Z</time></trkpt><trkpt lat="45.807797784344395" lon="10.05183727751433"><ele>286.0</ele><time>2026-04-25T08:37:32Z</time></trkpt><trkpt lat="45.807686129812986" lon="10.051701990748668"><ele>286.0</ele><time>2026-04-25T08:37:33Z</time></trkpt><trkpt lat="45.80757378756119" lon="10.0515639913503"><ele>286.0</ele><time>2026-04-25T08:37:34Z</time></trkpt><trkpt lat="45.80745862826727" lon="10.051423222144752"><ele>289.0</ele><time>2026-04-25T08:37:35Z</time></trkpt><trkpt lat="45.80734149491099" lon="10.05127972566289"><ele>292.0</ele><time>2026-04-25T08:37:36Z</time></trkpt><trkpt lat="45.80722211418902" lon="10.051133651284326"><ele>295.0</ele><time>2026-04-25T08:37:37Z</time></trkpt><trkpt lat="45.80709980468449" lon="10.050984123881827"><ele>295.0</ele><time>2026-04-25T08:37:38Z</time></trkpt><trkpt lat="45.8069836353148" lon="10.050808404136012"><ele>295.0</ele><time>2026-04-25T08:37:39Z</time></trkpt><trkpt lat="45.80684561042449" lon="10.050634267117147"><ele>295.0</ele><time>2026-04-25T08:37:40.069Z</time></trkpt><trkpt lat="45.80671867248686" lon="10.050470509037966"><ele>294.0</ele><time>2026-04-25T08:37:41.053Z</time></trkpt><trkpt lat="45.80662501524175" lon="10.050377770231657"><ele>293.0</ele><time>2026-04-25T08:37:42Z</time></trkpt><trkpt lat="45.806512099852235" lon="10.050190815690103"><ele>292.0</ele><time>2026-04-25T08:37:43Z</time></trkpt><trkpt lat="45.80636181272982" lon="10.049905797308597"><ele>290.3333333333333</ele><time>2026-04-25T08:37:44Z</time></trkpt><trkpt lat="45.80618967872683" lon="10.049665899613256"><ele>288.6666666666667</ele><time>2026-04-25T08:37:45Z</time></trkpt><trkpt lat="45.806053887769814" lon="10.049459794207175"><ele>287.0</ele><time>2026-04-25T08:37:46Z</time></trkpt><trkpt lat="45.80593868507228" lon="10.04925560909591"><ele>288.33333333333337</ele><time>2026-04-25T08:37:47Z</time></trkpt><trkpt lat="45.80584938726964" lon="10.049067358281606"><ele>289.6666666666667</ele><time>2026-04-25T08:37:48Z</time></trkpt><trkpt lat="45.80575608051211" lon="10.048846990951324"><ele>291.0</ele><time>2026-04-25T08:37:49Z</time></trkpt><trkpt lat="45.805669604032076" lon="10.048629698286026"><ele>291.0</ele><time>2026-04-25T08:37:50Z</time></trkpt><trkpt lat="45.80558883834685" lon="10.048416907626997"><ele>291.0</ele><time>2026-04-25T08:37:51Z</time></trkpt><trkpt lat="45.805517645752445" lon="10.048198121294403"><ele>291.0</ele><time>2026-04-25T08:37:52Z</time></trkpt><trkpt lat="45.805450077613806" lon="10.047977153454507"><ele>291.0</ele><time>2026-04-25T08:37:53Z</time></trkpt><trkpt lat="45.80538284772529" lon="10.047750328774004"><ele>291.0</ele><time>2026-04-25T08:37:54Z</time></trkpt><trkpt lat="45.80531652559503" lon="10.04751637601898"><ele>291.0</ele><time>2026-04-25T08:37:55Z</time></trkpt><trkpt lat="45.8052570945836" lon="10.047274999458502"><ele>291.6666666666667</ele><time>2026-04-25T08:37:56Z</time></trkpt><trkpt lat="45.80520525058645" lon="10.047028726845943"><ele>292.33333333333337</ele><time>2026-04-25T08:37:57Z</time></trkpt><trkpt lat="45.80516577405535" lon="10.046782821280798"><ele>293.0</ele><time>2026-04-25T08:37:58Z</time></trkpt><trkpt lat="45.805133966650395" lon="10.046534112426858"><ele>295.0</ele><time>2026-04-25T08:37:59Z</time></trkpt><trkpt lat="45.805103391944336" lon="10.046275990498726"><ele>297.0</ele><time>2026-04-25T08:38:00Z</time></trkpt><trkpt lat="45.80508062702514" lon="10.046004838619531"><ele>299.0</ele><time>2026-04-25T08:38:01Z</time></trkpt><trkpt lat="45.805072048059316" lon="10.045715560794669"><ele>301.0</ele><time>2026-04-25T08:38:02Z</time></trkpt><trkpt lat="45.80507539593669" lon="10.045413068069236"><ele>303.0</ele><time>2026-04-25T08:38:03Z</time></trkpt><trkpt lat="45.80509272231854" lon="10.045097935172981"><ele>305.0</ele><time>2026-04-25T08:38:04Z</time></trkpt><trkpt lat="45.805119222046784" lon="10.04477199532746"><ele>304.0</ele><time>2026-04-25T08:38:05Z</time></trkpt><trkpt lat="45.80514072944832" lon="10.04450286604784"><ele>303.0</ele><time>2026-04-25T08:38:06Z</time></trkpt><trkpt lat="45.805178437159896" lon="10.044207195320443"><ele>302.0</ele><time>2026-04-25T08:38:07Z</time></trkpt><trkpt lat="45.80522456957273" lon="10.043901912906428"><ele>302.0</ele><time>2026-04-25T08:38:08Z</time></trkpt><trkpt lat="45.80528208899555" lon="10.043598228087017"><ele>302.0</ele><time>2026-04-25T08:38:09Z</time></trkpt><trkpt lat="45.80535150835202" lon="10.043292390636692"><ele>302.0</ele><time>2026-04-25T08:38:10Z</time></trkpt><trkpt lat="45.80542623709392" lon="10.04298716965876"><ele>304.5</ele><time>2026-04-25T08:38:11Z</time></trkpt><trkpt lat="45.805510230788855" lon="10.042689196885998"><ele>307.0</ele><time>2026-04-25T08:38:12Z</time></trkpt><trkpt lat="45.805595976879445" lon="10.042385250577324"><ele>312.0</ele><time>2026-04-25T08:38:13Z</time></trkpt><trkpt lat="45.80567960569206" lon="10.042085720390808"><ele>317.0</ele><time>2026-04-25T08:38:14Z</time></trkpt><trkpt lat="45.805767206854796" lon="10.041777254268757"><ele>323.0</ele><time>2026-04-25T08:38:15Z</time></trkpt><trkpt lat="45.80585717242508" lon="10.041465460656237"><ele>329.0</ele><time>2026-04-25T08:38:16Z</time></trkpt><trkpt lat="45.80595023671657" lon="10.04114713761802"><ele>319.5</ele><time>2026-04-25T08:38:17Z</time></trkpt><trkpt lat="45.806037436287106" lon="10.04082982368241"><ele>310.0</ele><time>2026-04-25T08:38:18Z</time></trkpt><trkpt lat="45.80612366948213" lon="10.040517446969938"><ele>310.0</ele><time>2026-04-25T08:38:19Z</time></trkpt><trkpt lat="45.80621608410303" lon="10.0402024496679"><ele>310.0</ele><time>2026-04-25T08:38:20Z</time></trkpt><trkpt lat="45.80630335565297" lon="10.039889631309928"><ele>316.5</ele><time>2026-04-25T08:38:21Z</time></trkpt><trkpt lat="45.8063900175509" lon="10.039570722054602"><ele>323.0</ele><time>2026-04-25T08:38:22Z</time></trkpt><trkpt lat="45.80647541428189" lon="10.039251040016314"><ele>329.0</ele><time>2026-04-25T08:38:23Z</time></trkpt><trkpt lat="45.80655489804139" lon="10.038930186291553"><ele>335.0</ele><time>2026-04-25T08:38:24Z</time></trkpt><trkpt lat="45.806630708305576" lon="10.038611815950983"><ele>338.0</ele><time>2026-04-25T08:38:25Z</time></trkpt><trkpt lat="45.8067049374695" lon="10.038296352645531"><ele>341.0</ele><time>2026-04-25T08:38:26Z</time></trkpt><trkpt lat="45.80677652160546" lon="10.037977468305929"><ele>339.0</ele><time>2026-04-25T08:38:27Z</time></trkpt><trkpt lat="45.806845673675966" lon="10.03765897006828"><ele>337.0</ele><time>2026-04-25T08:38:28Z</time></trkpt><trkpt lat="45.80691327168912" lon="10.037337915465947"><ele>337.0</ele><time>2026-04-25T08:38:29Z</time></trkpt><trkpt lat="45.806982569617766" lon="10.037022162070578"><ele>337.0</ele><time>2026-04-25T08:38:30Z</time></trkpt><trkpt lat="45.8070501666799" lon="10.036707374777576"><ele>342.5</ele><time>2026-04-25T08:38:31Z</time></trkpt><trkpt lat="45.807121532829626" lon="10.036390972462305"><ele>348.0</ele><time>2026-04-25T08:38:32Z</time></trkpt><trkpt lat="45.8071913453752" lon="10.036074448417553"><ele>347.5</ele><time>2026-04-25T08:38:33Z</time></trkpt><trkpt lat="45.80725728874803" lon="10.035756734478714"><ele>347.0</ele><time>2026-04-25T08:38:34Z</time></trkpt><trkpt lat="45.80731396325253" lon="10.035435068155671"><ele>347.0</ele><time>2026-04-25T08:38:35Z</time></trkpt><trkpt lat="45.807359431533435" lon="10.035109817609952"><ele>347.0</ele><time>2026-04-25T08:38:35.999Z</time></trkpt><trkpt lat="45.80740136205661" lon="10.034781031195209"><ele>345.0</ele><time>2026-04-25T08:38:36.999Z</time></trkpt><trkpt lat="45.80743427974542" lon="10.034448607091562"><ele>343.0</ele><time>2026-04-25T08:38:37.999Z</time></trkpt><trkpt lat="45.80745759046295" lon="10.034115755825553"><ele>342.5</ele><time>2026-04-25T08:38:38.999Z</time></trkpt><trkpt lat="45.80746924923224" lon="10.033778293939118"><ele>342.0</ele><time>2026-04-25T08:38:39.999Z</time></trkpt><trkpt lat="45.80747384905585" lon="10.033440486810784"><ele>343.0</ele><time>2026-04-25T08:38:40.999Z</time></trkpt><trkpt lat="45.80746602345206" lon="10.033099460812847"><ele>344.0</ele><time>2026-04-25T08:38:41.999Z</time></trkpt><trkpt lat="45.8074497476732" lon="10.032755118003998"><ele>345.5</ele><time>2026-04-25T08:38:42.999Z</time></trkpt><trkpt lat="45.80741773542199" lon="10.032414058687811"><ele>347.0</ele><time>2026-04-25T08:38:43.999Z</time></trkpt><trkpt lat="45.807383087199675" lon="10.032071143373965"><ele>347.0</ele><time>2026-04-25T08:38:44.999Z</time></trkpt><trkpt lat="45.80734773764121" lon="10.031726857190787"><ele>347.0</ele><time>2026-04-25T08:38:45.999Z</time></trkpt><trkpt lat="45.80731090674205" lon="10.03138404547796"><ele>349.5</ele><time>2026-04-25T08:38:46.999Z</time></trkpt><trkpt lat="45.80727480318049" lon="10.031038959002471"><ele>352.0</ele><time>2026-04-25T08:38:47.999Z</time></trkpt><trkpt lat="45.807234369030155" lon="10.03069001573043"><ele>353.5</ele><time>2026-04-25T08:38:48.999Z</time></trkpt><trkpt lat="45.8071893240086" lon="10.030336392354993"><ele>355.0</ele><time>2026-04-25T08:38:49.999Z</time></trkpt><trkpt lat="45.807144110418896" lon="10.029978381891604"><ele>354.5</ele><time>2026-04-25T08:38:50.999Z</time></trkpt><trkpt lat="45.80709827426799" lon="10.029614355778932"><ele>354.0</ele><time>2026-04-25T08:38:51.999Z</time></trkpt><trkpt lat="45.80705326599044" lon="10.029245741999077"><ele>353.0</ele><time>2026-04-25T08:38:52.999Z</time></trkpt><trkpt lat="45.807008318384575" lon="10.028872916881111"><ele>352.0</ele><time>2026-04-25T08:38:53.999Z</time></trkpt><trkpt lat="45.80696344829321" lon="10.028497354908636"><ele>349.5</ele><time>2026-04-25T08:38:54.999Z</time></trkpt><trkpt lat="45.80691608816478" lon="10.028093797937693"><ele>347.0</ele><time>2026-04-25T08:38:56.068Z</time></trkpt><trkpt lat="45.80630703493422" lon="10.025597043321"><ele>345.0</ele><time>2026-04-25T08:39:03.999Z</time></trkpt><trkpt lat="45.806176136562875" lon="10.025319413445832"><ele>343.0</ele><time>2026-04-25T08:39:04.999Z</time></trkpt><trkpt lat="45.80602169216914" lon="10.025058112119433"><ele>344.0</ele><time>2026-04-25T08:39:05.999Z</time></trkpt><trkpt lat="45.805865955693285" lon="10.024827577373312"><ele>345.0</ele><time>2026-04-25T08:39:06.999Z</time></trkpt><trkpt lat="45.80569551256853" lon="10.024597703902197"><ele>345.0</ele><time>2026-04-25T08:39:07.999Z</time></trkpt><trkpt lat="45.805516965314084" lon="10.024385661608584"><ele>345.0</ele><time>2026-04-25T08:39:08.999Z</time></trkpt><trkpt lat="45.80533286752944" lon="10.02419274182926"><ele>346.0</ele><time>2026-04-25T08:39:10Z</time></trkpt><trkpt lat="45.80514531998005" lon="10.024009834683715"><ele>347.0</ele><time>2026-04-25T08:39:11Z</time></trkpt><trkpt lat="45.804954384237305" lon="10.023828316746176"><ele>347.0</ele><time>2026-04-25T08:39:12Z</time></trkpt><trkpt lat="45.804771808724176" lon="10.023638839933525"><ele>347.0</ele><time>2026-04-25T08:39:13Z</time></trkpt><trkpt lat="45.80459931165533" lon="10.023418650911356"><ele>347.0</ele><time>2026-04-25T08:39:14Z</time></trkpt><trkpt lat="45.804453453054826" lon="10.02316118910691"><ele>347.0</ele><time>2026-04-25T08:39:15Z</time></trkpt><trkpt lat="45.80431129550682" lon="10.02290668281469"><ele>347.0</ele><time>2026-04-25T08:39:16Z</time></trkpt><trkpt lat="45.804170967773814" lon="10.022646801574114"><ele>347.0</ele><time>2026-04-25T08:39:17Z</time></trkpt><trkpt lat="45.80402676871146" lon="10.02238995522986"><ele>345.5</ele><time>2026-04-25T08:39:18Z</time></trkpt><trkpt lat="45.803875847441674" lon="10.022139411671024"><ele>344.0</ele><time>2026-04-25T08:39:19Z</time></trkpt><trkpt lat="45.80371264664158" lon="10.021904298405119"><ele>344.0</ele><time>2026-04-25T08:39:20Z</time></trkpt><trkpt lat="45.8035384634751" lon="10.021692440248994"><ele>344.0</ele><time>2026-04-25T08:39:21Z</time></trkpt><trkpt lat="45.80335125744772" lon="10.021503388162968"><ele>344.5</ele><time>2026-04-25T08:39:22Z</time></trkpt><trkpt lat="45.80315468077175" lon="10.021338714782745"><ele>345.0</ele><time>2026-04-25T08:39:23Z</time></trkpt><trkpt lat="45.80294986041673" lon="10.021193851054269"><ele>345.0</ele><time>2026-04-25T08:39:24Z</time></trkpt><trkpt lat="45.80273798889863" lon="10.021070049236524"><ele>345.0</ele><time>2026-04-25T08:39:25Z</time></trkpt><trkpt lat="45.8025228386401" lon="10.020954091126919"><ele>345.0</ele><time>2026-04-25T08:39:26Z</time></trkpt><trkpt lat="45.80231000750289" lon="10.020836537314636"><ele>345.0</ele><time>2026-04-25T08:39:27Z</time></trkpt><trkpt lat="45.80210473267551" lon="10.020717626468507"><ele>345.0</ele><time>2026-04-25T08:39:28Z</time></trkpt><trkpt lat="45.80191520588726" lon="10.020617434679929"><ele>345.0</ele><time>2026-04-25T08:39:29Z</time></trkpt><trkpt lat="45.80174229853297" lon="10.020531812801481"><ele>345.0</ele><time>2026-04-25T08:39:30Z</time></trkpt><trkpt lat="45.801586118473054" lon="10.02045631821469"><ele>345.0</ele><time>2026-04-25T08:39:31Z</time></trkpt><trkpt lat="45.801454982929876" lon="10.020381840703184"><ele>345.0</ele><time>2026-04-25T08:39:32Z</time></trkpt><trkpt lat="45.801359337312554" lon="10.020295324070279"><ele>345.0</ele><time>2026-04-25T08:39:33Z</time></trkpt><trkpt lat="45.80129416965605" lon="10.020182034331947"><ele>345.0</ele><time>2026-04-25T08:39:34Z</time></trkpt><trkpt lat="45.8012562207101" lon="10.020037630441111"><ele>345.0</ele><time>2026-04-25T08:39:35Z</time></trkpt><trkpt lat="45.801256850315994" lon="10.01986924046115"><ele>345.0</ele><time>2026-04-25T08:39:36Z</time></trkpt><trkpt lat="45.80126988453839" lon="10.019685967762074"><ele>344.0</ele><time>2026-04-25T08:39:37Z</time></trkpt><trkpt lat="45.80127282918506" lon="10.019529567844623"><ele>343.0</ele><time>2026-04-25T08:39:38Z</time></trkpt><trkpt lat="45.80127585262359" lon="10.01937947546878"><ele>342.0</ele><time>2026-04-25T08:39:39Z</time></trkpt><trkpt lat="45.800538772435914" lon="10.018618803875077"><ele>342.0</ele><time>2026-04-25T08:39:40Z</time></trkpt><trkpt lat="45.8003892977013" lon="10.018464447689784"><ele>342.0</ele><time>2026-04-25T08:39:41Z</time></trkpt><trkpt lat="45.800221301230216" lon="10.018370738451509"><ele>342.0</ele><time>2026-04-25T08:39:42Z</time></trkpt><trkpt lat="45.80004311023652" lon="10.01832874790067"><ele>343.0</ele><time>2026-04-25T08:39:43Z</time></trkpt><trkpt lat="45.799883392722066" lon="10.01823239865263"><ele>344.0</ele><time>2026-04-25T08:39:44Z</time></trkpt><trkpt lat="45.79977048065977" lon="10.018047529854302"><ele>345.0</ele><time>2026-04-25T08:39:45Z</time></trkpt><trkpt lat="45.79972308076418" lon="10.017791676297678"><ele>345.0</ele><time>2026-04-25T08:39:46Z</time></trkpt><trkpt lat="45.79963929176805" lon="10.017560340121257"><ele>345.0</ele><time>2026-04-25T08:39:47Z</time></trkpt><trkpt lat="45.79954994793588" lon="10.017312558272353"><ele>345.0</ele><time>2026-04-25T08:39:48Z</time></trkpt><trkpt lat="45.799450596337564" lon="10.017063947806037"><ele>344.6666666666667</ele><time>2026-04-25T08:39:49Z</time></trkpt><trkpt lat="45.79936423144572" lon="10.016809689359986"><ele>344.33333333333337</ele><time>2026-04-25T08:39:50Z</time></trkpt><trkpt lat="45.79926864159481" lon="10.016543003033348"><ele>344.0</ele><time>2026-04-25T08:39:51Z</time></trkpt><trkpt lat="45.79917812211203" lon="10.016276379546953"><ele>343.6666666666667</ele><time>2026-04-25T08:39:52Z</time></trkpt><trkpt lat="45.799085485368515" lon="10.016004320124521"><ele>343.3333333333333</ele><time>2026-04-25T08:39:53Z</time></trkpt><trkpt lat="45.79899951234623" lon="10.015733044066751"><ele>343.0</ele><time>2026-04-25T08:39:54Z</time></trkpt><trkpt lat="45.79890509070347" lon="10.015459356642761"><ele>343.0</ele><time>2026-04-25T08:39:55Z</time></trkpt><trkpt lat="45.798809046517135" lon="10.0151840606939"><ele>343.0</ele><time>2026-04-25T08:39:56Z</time></trkpt><trkpt lat="45.798714529626494" lon="10.014908437220315"><ele>343.0</ele><time>2026-04-25T08:39:57Z</time></trkpt><trkpt lat="45.79861925813178" lon="10.014628090074703"><ele>343.3333333333333</ele><time>2026-04-25T08:39:58Z</time></trkpt><trkpt lat="45.798520596277264" lon="10.014353746479909"><ele>343.6666666666667</ele><time>2026-04-25T08:39:59Z</time></trkpt><trkpt lat="45.79842497878966" lon="10.014077774900954"><ele>344.0</ele><time>2026-04-25T08:40:00Z</time></trkpt><trkpt lat="45.798327442249175" lon="10.013800654822886"><ele>344.0</ele><time>2026-04-25T08:40:01Z</time></trkpt><trkpt lat="45.798231790705444" lon="10.013528170359331"><ele>344.0</ele><time>2026-04-25T08:40:02Z</time></trkpt><trkpt lat="45.79812870760836" lon="10.013267816199244"><ele>344.0</ele><time>2026-04-25T08:40:03Z</time></trkpt><trkpt lat="45.798013285972814" lon="10.013024463270265"><ele>344.33333333333337</ele><time>2026-04-25T08:40:04Z</time></trkpt><trkpt lat="45.79788504332945" lon="10.012815109386796"><ele>344.6666666666667</ele><time>2026-04-25T08:40:05Z</time></trkpt><trkpt lat="45.797763070298345" lon="10.012646365747752"><ele>345.0</ele><time>2026-04-25T08:40:06Z</time></trkpt><trkpt lat="45.797649278764474" lon="10.012501029136809"><ele>346.0</ele><time>2026-04-25T08:40:07Z</time></trkpt><trkpt lat="45.797538206897926" lon="10.01236403238695"><ele>347.0</ele><time>2026-04-25T08:40:08Z</time></trkpt><trkpt lat="45.79743147243631" lon="10.01223326264421"><ele>348.0</ele><time>2026-04-25T08:40:09Z</time></trkpt><trkpt lat="45.79732688655015" lon="10.012101494730906"><ele>349.0</ele><time>2026-04-25T08:40:10Z</time></trkpt><trkpt lat="45.79722192365741" lon="10.011968146519257"><ele>349.0</ele><time>2026-04-25T08:40:11Z</time></trkpt><trkpt lat="45.7971201867645" lon="10.011836874869934"><ele>349.0</ele><time>2026-04-25T08:40:12Z</time></trkpt><trkpt lat="45.79702049059927" lon="10.011709524858883"><ele>349.0</ele><time>2026-04-25T08:40:13Z</time></trkpt><trkpt lat="45.796916436806626" lon="10.011575779809935"><ele>349.0</ele><time>2026-04-25T08:40:14Z</time></trkpt><trkpt lat="45.79680248162221" lon="10.01143777755086"><ele>349.3333333333333</ele><time>2026-04-25T08:40:15Z</time></trkpt><trkpt lat="45.7966913973675" lon="10.011271593077279"><ele>349.6666666666667</ele><time>2026-04-25T08:40:16Z</time></trkpt><trkpt lat="45.79655405371708" lon="10.011128129828657"><ele>350.0</ele><time>2026-04-25T08:40:17Z</time></trkpt><trkpt lat="45.79642239853779" lon="10.01095679566494"><ele>350.0</ele><time>2026-04-25T08:40:18Z</time></trkpt><trkpt lat="45.796287965402506" lon="10.010785811043714"><ele>350.0</ele><time>2026-04-25T08:40:19Z</time></trkpt><trkpt lat="45.79615600334128" lon="10.010619145847505"><ele>350.0</ele><time>2026-04-25T08:40:20Z</time></trkpt><trkpt lat="45.79602004168447" lon="10.010457788092596"><ele>350.0</ele><time>2026-04-25T08:40:21Z</time></trkpt><trkpt lat="45.795882249928844" lon="10.01030658199743"><ele>350.0</ele><time>2026-04-25T08:40:22Z</time></trkpt><trkpt lat="45.79574314164921" lon="10.010160773599331"><ele>350.0</ele><time>2026-04-25T08:40:23Z</time></trkpt><trkpt lat="45.79560599140966" lon="10.010019802176224"><ele>349.0</ele><time>2026-04-25T08:40:24Z</time></trkpt><trkpt lat="45.7954675685236" lon="10.009879807887176"><ele>348.0</ele><time>2026-04-25T08:40:25Z</time></trkpt><trkpt lat="45.795327914155735" lon="10.009744836506815"><ele>347.0</ele><time>2026-04-25T08:40:26Z</time></trkpt><trkpt lat="45.79519451673756" lon="10.009617065044736"><ele>347.0</ele><time>2026-04-25T08:40:27Z</time></trkpt><trkpt lat="45.79505957421497" lon="10.009487550667542"><ele>347.0</ele><time>2026-04-25T08:40:28Z</time></trkpt><trkpt lat="45.794926518260084" lon="10.009362016971378"><ele>347.0</ele><time>2026-04-25T08:40:29Z</time></trkpt><trkpt lat="45.79479595768948" lon="10.009236225369648"><ele>347.0</ele><time>2026-04-25T08:40:30Z</time></trkpt><trkpt lat="45.79467177188817" lon="10.009117042417028"><ele>347.0</ele><time>2026-04-25T08:40:31Z</time></trkpt><trkpt lat="45.794556276221144" lon="10.009000414128"><ele>347.0</ele><time>2026-04-25T08:40:32Z</time></trkpt><trkpt lat="45.794452300189974" lon="10.008881750597412"><ele>347.0</ele><time>2026-04-25T08:40:33Z</time></trkpt><trkpt lat="45.794358180841996" lon="10.008757170359784"><ele>347.0</ele><time>2026-04-25T08:40:34Z</time></trkpt><trkpt lat="45.794279328668914" lon="10.008624753725442"><ele>347.0</ele><time>2026-04-25T08:40:35Z</time></trkpt><trkpt lat="45.7942147800908" lon="10.008483353839544"><ele>347.0</ele><time>2026-04-25T08:40:36Z</time></trkpt><trkpt lat="45.794157608545035" lon="10.00833057215326"><ele>347.0</ele><time>2026-04-25T08:40:37Z</time></trkpt><trkpt lat="45.794108690241394" lon="10.008159090912747"><ele>347.0</ele><time>2026-04-25T08:40:38Z</time></trkpt><trkpt lat="45.79406629899639" lon="10.007978593642019"><ele>347.0</ele><time>2026-04-25T08:40:39Z</time></trkpt><trkpt lat="45.794062435570055" lon="10.007787783549558"><ele>347.0</ele><time>2026-04-25T08:40:40Z</time></trkpt><trkpt lat="45.79403484394753" lon="10.007600811051395"><ele>347.0</ele><time>2026-04-25T08:40:41Z</time></trkpt><trkpt lat="45.79402444185805" lon="10.00741326118764"><ele>347.0</ele><time>2026-04-25T08:40:42Z</time></trkpt><trkpt lat="45.7940157595345" lon="10.00722517877792"><ele>347.0</ele><time>2026-04-25T08:40:43Z</time></trkpt><trkpt lat="45.79400601771265" lon="10.007033837404233"><ele>347.0</ele><time>2026-04-25T08:40:44Z</time></trkpt><trkpt lat="45.79399166459917" lon="10.006838106742043"><ele>347.0</ele><time>2026-04-25T08:40:45Z</time></trkpt><trkpt lat="45.793975297811954" lon="10.006642852072034"><ele>347.0</ele><time>2026-04-25T08:40:46Z</time></trkpt><trkpt lat="45.793955654393564" lon="10.006451149040723"><ele>347.0</ele><time>2026-04-25T08:40:47Z</time></trkpt><trkpt lat="45.793933361969444" lon="10.006265274510655"><ele>347.0</ele><time>2026-04-25T08:40:48Z</time></trkpt><trkpt lat="45.79390114358092" lon="10.006079822520588"><ele>347.0</ele><time>2026-04-25T08:40:49Z</time></trkpt><trkpt lat="45.79385168469347" lon="10.005897928270498"><ele>352.25</ele><time>2026-04-25T08:40:50Z</time></trkpt><trkpt lat="45.793786421536055" lon="10.005727854046082"><ele>357.5</ele><time>2026-04-25T08:40:51Z</time></trkpt><trkpt lat="45.79370664665033" lon="10.005570658552902"><ele>362.75</ele><time>2026-04-25T08:40:52Z</time></trkpt><trkpt lat="45.793617126000406" lon="10.005431345545825"><ele>368.0</ele><time>2026-04-25T08:40:53Z</time></trkpt><trkpt lat="45.7935223584129" lon="10.005299767529346"><ele>368.75</ele><time>2026-04-25T08:40:54Z</time></trkpt><trkpt lat="45.79342617309555" lon="10.005179921263247"><ele>369.5</ele><time>2026-04-25T08:40:55Z</time></trkpt><trkpt lat="45.79332803807095" lon="10.005071616761152"><ele>370.25</ele><time>2026-04-25T08:40:56Z</time></trkpt><trkpt lat="45.793233711914404" lon="10.004965423277616"><ele>371.0</ele><time>2026-04-25T08:40:56.999Z</time></trkpt><trkpt lat="45.79313807690794" lon="10.00486414728603"><ele>371.0</ele><time>2026-04-25T08:40:57.999Z</time></trkpt><trkpt lat="45.79304553966522" lon="10.004759983865036"><ele>371.0</ele><time>2026-04-25T08:40:58.999Z</time></trkpt><trkpt lat="45.79294751788385" lon="10.004654207239781"><ele>371.0</ele><time>2026-04-25T08:40:59.999Z</time></trkpt><trkpt lat="45.79284869265299" lon="10.004545098245845"><ele>371.0</ele><time>2026-04-25T08:41:00.999Z</time></trkpt><trkpt lat="45.79275027978552" lon="10.004431216563873"><ele>368.5</ele><time>2026-04-25T08:41:01.999Z</time></trkpt><trkpt lat="45.79265032977901" lon="10.00432318373473"><ele>366.0</ele><time>2026-04-25T08:41:02.999Z</time></trkpt><trkpt lat="45.79254739802133" lon="10.004206216539588"><ele>363.5</ele><time>2026-04-25T08:41:03.999Z</time></trkpt><trkpt lat="45.7924452902352" lon="10.004090188811116"><ele>361.0</ele><time>2026-04-25T08:41:04.999Z</time></trkpt><trkpt lat="45.792342654737006" lon="10.003973194086731"><ele>361.0</ele><time>2026-04-25T08:41:05.999Z</time></trkpt><trkpt lat="45.792239718638385" lon="10.003856619369559"><ele>361.0</ele><time>2026-04-25T08:41:06.999Z</time></trkpt><trkpt lat="45.79213822901106" lon="10.00374498521302"><ele>361.0</ele><time>2026-04-25T08:41:07.999Z</time></trkpt><trkpt lat="45.79203985267815" lon="10.003635215629819"><ele>361.0</ele><time>2026-04-25T08:41:08.999Z</time></trkpt><trkpt lat="45.791939669101524" lon="10.003521348060977"><ele>361.0</ele><time>2026-04-25T08:41:09.999Z</time></trkpt><trkpt lat="45.79184188663586" lon="10.003408299509394"><ele>361.0</ele><time>2026-04-25T08:41:10.999Z</time></trkpt><trkpt lat="45.79174781595025" lon="10.00330350593131"><ele>361.0</ele><time>2026-04-25T08:41:11.999Z</time></trkpt><trkpt lat="45.79165545401835" lon="10.003204267539543"><ele>361.0</ele><time>2026-04-25T08:41:12.999Z</time></trkpt><trkpt lat="45.79157197138858" lon="10.003111829014063"><ele>360.3333333333333</ele><time>2026-04-25T08:41:13.999Z</time></trkpt><trkpt lat="45.79149244473917" lon="10.003023128020562"><ele>359.66666666666663</ele><time>2026-04-25T08:41:14.999Z</time></trkpt><trkpt lat="45.79141842008028" lon="10.002940702620313"><ele>359.0</ele><time>2026-04-25T08:41:16Z</time></trkpt><trkpt lat="45.79135081145826" lon="10.002862853149947"><ele>358.3333333333333</ele><time>2026-04-25T08:41:17Z</time></trkpt><trkpt lat="45.791287896065974" lon="10.002796034547009"><ele>357.6666666666667</ele><time>2026-04-25T08:41:18Z</time></trkpt><trkpt lat="45.79122921756581" lon="10.002736295514731"><ele>357.0</ele><time>2026-04-25T08:41:19Z</time></trkpt><trkpt lat="45.79117294407688" lon="10.002685969780737"><ele>357.0</ele><time>2026-04-25T08:41:20Z</time></trkpt><trkpt lat="45.79107896641569" lon="10.002615381026283"><ele>357.0</ele><time>2026-04-25T08:41:22Z</time></trkpt><trkpt lat="45.79098076216894" lon="10.002566768524336"><ele>357.0</ele><time>2026-04-25T08:41:24Z</time></trkpt><trkpt lat="45.79088679160448" lon="10.002509582432008"><ele>357.0</ele><time>2026-04-25T08:41:26Z</time></trkpt><trkpt lat="45.79079872320859" lon="10.002464094235382"><ele>357.0</ele><time>2026-04-25T08:41:28Z</time></trkpt><trkpt lat="45.79073040571073" lon="10.002397417275391"><ele>356.1666666666667</ele><time>2026-04-25T08:41:31Z</time></trkpt><trkpt lat="45.79065767137063" lon="10.00230505254393"><ele>355.3333333333333</ele><time>2026-04-25T08:41:33Z</time></trkpt><trkpt lat="45.790604391688625" lon="10.002246357273219"><ele>354.5</ele><time>2026-04-25T08:41:34Z</time></trkpt><trkpt lat="45.790546327647235" lon="10.002202568568714"><ele>353.66666666666663</ele><time>2026-04-25T08:41:35Z</time></trkpt><trkpt lat="45.79046591435071" lon="10.002164219984543"><ele>352.8333333333333</ele><time>2026-04-25T08:41:36Z</time></trkpt><trkpt lat="45.79037558838454" lon="10.002111824363462"><ele>352.0</ele><time>2026-04-25T08:41:37Z</time></trkpt><trkpt lat="45.790275404020704" lon="10.002010038761577"><ele>352.0</ele><time>2026-04-25T08:41:38Z</time></trkpt><trkpt lat="45.79018464603367" lon="10.001882338804057"><ele>352.0</ele><time>2026-04-25T08:41:39Z</time></trkpt><trkpt lat="45.79009830639812" lon="10.001752815132221"><ele>352.0</ele><time>2026-04-25T08:41:40Z</time></trkpt><trkpt lat="45.790004930634424" lon="10.00163968146024"><ele>352.0</ele><time>2026-04-25T08:41:41Z</time></trkpt><trkpt lat="45.78990330926195" lon="10.001547052606695"><ele>352.75</ele><time>2026-04-25T08:41:42Z</time></trkpt><trkpt lat="45.78979641922007" lon="10.001464046027507"><ele>353.5</ele><time>2026-04-25T08:41:43Z</time></trkpt><trkpt lat="45.78968518268554" lon="10.00138678938453"><ele>354.25</ele><time>2026-04-25T08:41:44Z</time></trkpt><trkpt lat="45.789577512137036" lon="10.001313450159778"><ele>355.0</ele><time>2026-04-25T08:41:45Z</time></trkpt><trkpt lat="45.78947460254476" lon="10.001228305297488"><ele>355.0</ele><time>2026-04-25T08:41:46Z</time></trkpt><trkpt lat="45.7893791353599" lon="10.001120892166659"><ele>355.0</ele><time>2026-04-25T08:41:47Z</time></trkpt><trkpt lat="45.789287058421905" lon="10.00099037809895"><ele>355.0</ele><time>2026-04-25T08:41:48Z</time></trkpt><trkpt lat="45.78919901218241" lon="10.000853769900813"><ele>355.0</ele><time>2026-04-25T08:41:49Z</time></trkpt><trkpt lat="45.78911028466898" lon="10.000713544792918"><ele>355.0</ele><time>2026-04-25T08:41:50Z</time></trkpt><trkpt lat="45.789020760413685" lon="10.000568065231056"><ele>355.0</ele><time>2026-04-25T08:41:51Z</time></trkpt><trkpt lat="45.78893111049759" lon="10.00041790605683"><ele>355.0</ele><time>2026-04-25T08:41:52Z</time></trkpt><trkpt lat="45.78884385357321" lon="10.000266192089617"><ele>355.0</ele><time>2026-04-25T08:41:53Z</time></trkpt><trkpt lat="45.788758494781575" lon="10.000121048638368"><ele>355.0</ele><time>2026-04-25T08:41:54Z</time></trkpt><trkpt lat="45.78868050458014" lon="9.999983448615499"><ele>355.0</ele><time>2026-04-25T08:41:55Z</time></trkpt><trkpt lat="45.78860717282089" lon="9.99985738509203"><ele>355.0</ele><time>2026-04-25T08:41:56Z</time></trkpt><trkpt lat="45.788539233705116" lon="9.999741142438063"><ele>355.0</ele><time>2026-04-25T08:41:57Z</time></trkpt><trkpt lat="45.78847190152643" lon="9.999628180666832"><ele>355.0</ele><time>2026-04-25T08:41:58Z</time></trkpt><trkpt lat="45.78840606775652" lon="9.99951450524591"><ele>354.25</ele><time>2026-04-25T08:41:59Z</time></trkpt><trkpt lat="45.78833825883612" lon="9.999393884205679"><ele>353.5</ele><time>2026-04-25T08:42:00Z</time></trkpt><trkpt lat="45.78826457273174" lon="9.999268440600652"><ele>352.75</ele><time>2026-04-25T08:42:01Z</time></trkpt><trkpt lat="45.78818937784229" lon="9.999142270974382"><ele>352.0</ele><time>2026-04-25T08:42:02Z</time></trkpt><trkpt lat="45.78811861927379" lon="9.999013330980697"><ele>352.0</ele><time>2026-04-25T08:42:03Z</time></trkpt><trkpt lat="45.78805865411847" lon="9.998873829599225"><ele>352.0</ele><time>2026-04-25T08:42:04Z</time></trkpt><trkpt lat="45.788006196096674" lon="9.998724343457818"><ele>352.0</ele><time>2026-04-25T08:42:05Z</time></trkpt><trkpt lat="45.787969019164" lon="9.998566063226008"><ele>352.0</ele><time>2026-04-25T08:42:06Z</time></trkpt><trkpt lat="45.787948352168904" lon="9.998401531711954"><ele>351.75</ele><time>2026-04-25T08:42:07Z</time></trkpt><trkpt lat="45.78793893424498" lon="9.998232200950156"><ele>351.5</ele><time>2026-04-25T08:42:08Z</time></trkpt><trkpt lat="45.78793917182261" lon="9.998060560120754"><ele>351.25</ele><time>2026-04-25T08:42:09Z</time></trkpt><trkpt lat="45.787952447720706" lon="9.99788236658514"><ele>351.0</ele><time>2026-04-25T08:42:10Z</time></trkpt><trkpt lat="45.78796882458579" lon="9.99770509955415"><ele>351.0</ele><time>2026-04-25T08:42:11Z</time></trkpt><trkpt lat="45.78798768427012" lon="9.997526415627133"><ele>351.0</ele><time>2026-04-25T08:42:12Z</time></trkpt><trkpt lat="45.7880018472925" lon="9.997342584283768"><ele>351.0</ele><time>2026-04-25T08:42:13Z</time></trkpt><trkpt lat="45.78801914324654" lon="9.997154253763863"><ele>351.0</ele><time>2026-04-25T08:42:14Z</time></trkpt><trkpt lat="45.7880308335325" lon="9.996962346034014"><ele>350.3333333333333</ele><time>2026-04-25T08:42:15Z</time></trkpt><trkpt lat="45.78804156203123" lon="9.996749064600618"><ele>349.66666666666663</ele><time>2026-04-25T08:42:16Z</time></trkpt><trkpt lat="45.78808042702553" lon="9.996508544599859"><ele>349.0</ele><time>2026-04-25T08:42:17Z</time></trkpt><trkpt lat="45.78810415278148" lon="9.996259632843474"><ele>348.3333333333333</ele><time>2026-04-25T08:42:18Z</time></trkpt><trkpt lat="45.78812019457318" lon="9.995994702257287"><ele>347.6666666666667</ele><time>2026-04-25T08:42:19Z</time></trkpt><trkpt lat="45.78815241453612" lon="9.995739411776889"><ele>347.0</ele><time>2026-04-25T08:42:20Z</time></trkpt><trkpt lat="45.788183101074054" lon="9.995486532674446"><ele>346.6666666666667</ele><time>2026-04-25T08:42:21Z</time></trkpt><trkpt lat="45.78821493295248" lon="9.995243438531977"><ele>346.3333333333333</ele><time>2026-04-25T08:42:22Z</time></trkpt><trkpt lat="45.78824873296354" lon="9.995006149713898"><ele>346.0</ele><time>2026-04-25T08:42:23Z</time></trkpt><trkpt lat="45.78828305063447" lon="9.994782795760946"><ele>345.75</ele><time>2026-04-25T08:42:24Z</time></trkpt><trkpt lat="45.78831901441294" lon="9.994590292675642"><ele>345.5</ele><time>2026-04-25T08:42:25Z</time></trkpt><trkpt lat="45.78835092002155" lon="9.994432203053796"><ele>345.25</ele><time>2026-04-25T08:42:26Z</time></trkpt><trkpt lat="45.78837560393" lon="9.994291731400459"><ele>345.0</ele><time>2026-04-25T08:42:27Z</time></trkpt><trkpt lat="45.78840188071975" lon="9.994157823886882"><ele>344.5</ele><time>2026-04-25T08:42:28Z</time></trkpt><trkpt lat="45.78843042862235" lon="9.994021124782945"><ele>344.0</ele><time>2026-04-25T08:42:29Z</time></trkpt><trkpt lat="45.78845924181157" lon="9.993869550690569"><ele>343.5</ele><time>2026-04-25T08:42:30Z</time></trkpt><trkpt lat="45.78848858383028" lon="9.99369771318769"><ele>343.0</ele><time>2026-04-25T08:42:31Z</time></trkpt><trkpt lat="45.788519089841074" lon="9.99350548440432"><ele>344.0</ele><time>2026-04-25T08:42:32Z</time></trkpt><trkpt lat="45.788553928998994" lon="9.993309067039904"><ele>345.0</ele><time>2026-04-25T08:42:33Z</time></trkpt><trkpt lat="45.788594274653896" lon="9.993101820209443"><ele>346.0</ele><time>2026-04-25T08:42:34Z</time></trkpt><trkpt lat="45.78864262215327" lon="9.992889582044297"><ele>347.0</ele><time>2026-04-25T08:42:35Z</time></trkpt><trkpt lat="45.788699209796114" lon="9.992679118377659"><ele>346.33333333333337</ele><time>2026-04-25T08:42:36Z</time></trkpt><trkpt lat="45.788763962531725" lon="9.992474106254233"><ele>345.6666666666667</ele><time>2026-04-25T08:42:37Z</time></trkpt><trkpt lat="45.78883696810441" lon="9.992270856764566"><ele>345.0</ele><time>2026-04-25T08:42:38Z</time></trkpt><trkpt lat="45.788912679430275" lon="9.992068732954865"><ele>345.0</ele><time>2026-04-25T08:42:39Z</time></trkpt><trkpt lat="45.78899459161035" lon="9.991863979419932"><ele>345.0</ele><time>2026-04-25T08:42:40Z</time></trkpt><trkpt lat="45.78907920264629" lon="9.991658819983584"><ele>345.0</ele><time>2026-04-25T08:42:41Z</time></trkpt><trkpt lat="45.78916497246979" lon="9.991451884786036"><ele>344.6666666666667</ele><time>2026-04-25T08:42:42Z</time></trkpt><trkpt lat="45.78924788764661" lon="9.991240703129664"><ele>344.33333333333337</ele><time>2026-04-25T08:42:43Z</time></trkpt><trkpt lat="45.789331314790246" lon="9.99102936034841"><ele>344.0</ele><time>2026-04-25T08:42:44Z</time></trkpt><trkpt lat="45.789417318653456" lon="9.990814572053425"><ele>344.0</ele><time>2026-04-25T08:42:45Z</time></trkpt><trkpt lat="45.789505972038604" lon="9.990598595008908"><ele>344.0</ele><time>2026-04-25T08:42:46Z</time></trkpt><trkpt lat="45.789596244807896" lon="9.990380947191298"><ele>344.0</ele><time>2026-04-25T08:42:47Z</time></trkpt><trkpt lat="45.78968700903303" lon="9.990159426389788"><ele>344.33333333333337</ele><time>2026-04-25T08:42:48Z</time></trkpt><trkpt lat="45.78978001329892" lon="9.989937264724203"><ele>344.6666666666667</ele><time>2026-04-25T08:42:49Z</time></trkpt><trkpt lat="45.78987743530944" lon="9.989714825144532"><ele>345.0</ele><time>2026-04-25T08:42:50Z</time></trkpt><trkpt lat="45.789974704011364" lon="9.989491134796571"><ele>345.0</ele><time>2026-04-25T08:42:51Z</time></trkpt><trkpt lat="45.790072408633" lon="9.989264949460223"><ele>345.0</ele><time>2026-04-25T08:42:52Z</time></trkpt><trkpt lat="45.7901629170132" lon="9.989032935112311"><ele>345.0</ele><time>2026-04-25T08:42:53Z</time></trkpt><trkpt lat="45.790237992565075" lon="9.988791138536781"><ele>346.0</ele><time>2026-04-25T08:42:54Z</time></trkpt><trkpt lat="45.79029237825095" lon="9.988534901365306"><ele>347.0</ele><time>2026-04-25T08:42:55Z</time></trkpt><trkpt lat="45.79032560909826" lon="9.988277869478797"><ele>348.0</ele><time>2026-04-25T08:42:56Z</time></trkpt><trkpt lat="45.79033859010257" lon="9.988006669426746"><ele>348.0</ele><time>2026-04-25T08:42:57Z</time></trkpt><trkpt lat="45.790331901699226" lon="9.987742842481644"><ele>348.0</ele><time>2026-04-25T08:42:58Z</time></trkpt><trkpt lat="45.79030926519268" lon="9.987478302023375"><ele>348.0</ele><time>2026-04-25T08:42:59Z</time></trkpt><trkpt lat="45.79027882447104" lon="9.987213888341381"><ele>348.3333333333333</ele><time>2026-04-25T08:43:00Z</time></trkpt><trkpt lat="45.79024496202349" lon="9.98694195862803"><ele>348.66666666666663</ele><time>2026-04-25T08:43:01Z</time></trkpt><trkpt lat="45.79021438951947" lon="9.98666717637403"><ele>349.0</ele><time>2026-04-25T08:43:02Z</time></trkpt><trkpt lat="45.79019401331411" lon="9.986391183110067"><ele>349.66666666666663</ele><time>2026-04-25T08:43:03Z</time></trkpt><trkpt lat="45.79018898493343" lon="9.986113255439026"><ele>350.3333333333333</ele><time>2026-04-25T08:43:04Z</time></trkpt><trkpt lat="45.79020872805493" lon="9.985836097828946"><ele>351.0</ele><time>2026-04-25T08:43:04.999Z</time></trkpt><trkpt lat="45.790247990071784" lon="9.985559618026763"><ele>352.0</ele><time>2026-04-25T08:43:05.999Z</time></trkpt><trkpt lat="45.79030502123774" lon="9.985290164353456"><ele>353.0</ele><time>2026-04-25T08:43:06.999Z</time></trkpt><trkpt lat="45.79037069822112" lon="9.985024678424683"><ele>354.0</ele><time>2026-04-25T08:43:07.999Z</time></trkpt><trkpt lat="45.790419388050445" lon="9.984751643166804"><ele>355.3333333333333</ele><time>2026-04-25T08:43:08.999Z</time></trkpt><trkpt lat="45.79043987514642" lon="9.984471186563576"><ele>356.66666666666663</ele><time>2026-04-25T08:43:09.999Z</time></trkpt><trkpt lat="45.790441497210885" lon="9.984190529045915"><ele>358.0</ele><time>2026-04-25T08:43:10.999Z</time></trkpt><trkpt lat="45.79042562427323" lon="9.983911286015275"><ele>358.0</ele><time>2026-04-25T08:43:11.999Z</time></trkpt><trkpt lat="45.79040441059253" lon="9.983636104004091"><ele>358.0</ele><time>2026-04-25T08:43:12.999Z</time></trkpt><trkpt lat="45.790377445792366" lon="9.983367938030133"><ele>358.0</ele><time>2026-04-25T08:43:13.999Z</time></trkpt><trkpt lat="45.790349493566325" lon="9.983108738650866"><ele>357.66666666666663</ele><time>2026-04-25T08:43:14.999Z</time></trkpt><trkpt lat="45.790326326268236" lon="9.982862660895606"><ele>357.3333333333333</ele><time>2026-04-25T08:43:15.999Z</time></trkpt><trkpt lat="45.790306369663384" lon="9.982630208143853"><ele>357.0</ele><time>2026-04-25T08:43:16.999Z</time></trkpt><trkpt lat="45.79028877275969" lon="9.982406907510933"><ele>357.0</ele><time>2026-04-25T08:43:17.999Z</time></trkpt><trkpt lat="45.79027660662359" lon="9.982200304616025"><ele>357.0</ele><time>2026-04-25T08:43:18.999Z</time></trkpt><trkpt lat="45.79026895932732" lon="9.982006502092366"><ele>357.0</ele><time>2026-04-25T08:43:19.999Z</time></trkpt><trkpt lat="45.790266042366994" lon="9.98182217833411"><ele>357.0</ele><time>2026-04-25T08:43:21Z</time></trkpt><trkpt lat="45.79027044877069" lon="9.981647730260606"><ele>356.20000000000005</ele><time>2026-04-25T08:43:22Z</time></trkpt><trkpt lat="45.79028221736178" lon="9.98148150436264"><ele>355.4</ele><time>2026-04-25T08:43:23Z</time></trkpt><trkpt lat="45.79030238140364" lon="9.98132264629168"><ele>354.6</ele><time>2026-04-25T08:43:24Z</time></trkpt><trkpt lat="45.79032415033274" lon="9.981171301672774"><ele>353.79999999999995</ele><time>2026-04-25T08:43:25Z</time></trkpt><trkpt lat="45.790344834689606" lon="9.981022598870078"><ele>353.0</ele><time>2026-04-25T08:43:26Z</time></trkpt><trkpt lat="45.79036575629707" lon="9.980868177429958"><ele>352.79999999999995</ele><time>2026-04-25T08:43:27Z</time></trkpt><trkpt lat="45.790386612069135" lon="9.980712685095474"><ele>352.6</ele><time>2026-04-25T08:43:28Z</time></trkpt><trkpt lat="45.79040650830215" lon="9.980557224297083"><ele>352.4</ele><time>2026-04-25T08:43:29Z</time></trkpt><trkpt lat="45.7904275589333" lon="9.980404690597323"><ele>352.20000000000005</ele><time>2026-04-25T08:43:30Z</time></trkpt><trkpt lat="45.79044767158844" lon="9.980260547537288"><ele>352.0</ele><time>2026-04-25T08:43:31Z</time></trkpt><trkpt lat="45.79046597520555" lon="9.980121747939126"><ele>352.0</ele><time>2026-04-25T08:43:32Z</time></trkpt><trkpt lat="45.79048313177512" lon="9.979982660113992"><ele>352.0</ele><time>2026-04-25T08:43:33Z</time></trkpt><trkpt lat="45.79049760424658" lon="9.979841341005134"><ele>352.0</ele><time>2026-04-25T08:43:34Z</time></trkpt><trkpt lat="45.79051218641172" lon="9.979694297091392"><ele>352.0</ele><time>2026-04-25T08:43:35Z</time></trkpt><trkpt lat="45.79052972851417" lon="9.979540542769898"><ele>352.0</ele><time>2026-04-25T08:43:36Z</time></trkpt><trkpt lat="45.790536655219405" lon="9.979400695035052"><ele>352.0</ele><time>2026-04-25T08:43:37Z</time></trkpt><trkpt lat="45.79055148713606" lon="9.979256257657141"><ele>352.0</ele><time>2026-04-25T08:43:38Z</time></trkpt><trkpt lat="45.79055668750223" lon="9.979108166404481"><ele>352.0</ele><time>2026-04-25T08:43:39Z</time></trkpt><trkpt lat="45.79056182485128" lon="9.978944474805267"><ele>352.0</ele><time>2026-04-25T08:43:40Z</time></trkpt><trkpt lat="45.790569846281514" lon="9.978779922481898"><ele>352.0</ele><time>2026-04-25T08:43:41Z</time></trkpt><trkpt lat="45.79057562024978" lon="9.97863700970989"><ele>351.6</ele><time>2026-04-25T08:43:42Z</time></trkpt><trkpt lat="45.79058114502537" lon="9.978496106000785"><ele>351.20000000000005</ele><time>2026-04-25T08:43:43Z</time></trkpt><trkpt lat="45.790582839528334" lon="9.978341777287582"><ele>350.8</ele><time>2026-04-25T08:43:44Z</time></trkpt><trkpt lat="45.79058391953672" lon="9.978202211543774"><ele>350.4</ele><time>2026-04-25T08:43:45Z</time></trkpt><trkpt lat="45.79058433762502" lon="9.97806306202328"><ele>350.0</ele><time>2026-04-25T08:43:46Z</time></trkpt><trkpt lat="45.790593895820244" lon="9.977903766417256"><ele>350.0</ele><time>2026-04-25T08:43:47Z</time></trkpt><trkpt lat="45.790597935935175" lon="9.977731881040343"><ele>350.0</ele><time>2026-04-25T08:43:48Z</time></trkpt><trkpt lat="45.79060493961025" lon="9.977546437858175"><ele>350.0</ele><time>2026-04-25T08:43:49Z</time></trkpt><trkpt lat="45.79060499423381" lon="9.977361904678782"><ele>350.0</ele><time>2026-04-25T08:43:50Z</time></trkpt><trkpt lat="45.79060913151963" lon="9.977174303987315"><ele>349.75</ele><time>2026-04-25T08:43:51Z</time></trkpt><trkpt lat="45.790610480384764" lon="9.976984419440384"><ele>349.5</ele><time>2026-04-25T08:43:52Z</time></trkpt><trkpt lat="45.79060736242379" lon="9.97678948052611"><ele>349.25</ele><time>2026-04-25T08:43:53Z</time></trkpt><trkpt lat="45.79060793269968" lon="9.976591782083808"><ele>349.0</ele><time>2026-04-25T08:43:54Z</time></trkpt><trkpt lat="45.79059964687724" lon="9.976383667782093"><ele>349.0</ele><time>2026-04-25T08:43:55Z</time></trkpt><trkpt lat="45.79059317428493" lon="9.97617532808017"><ele>349.0</ele><time>2026-04-25T08:43:56Z</time></trkpt><trkpt lat="45.790585034736466" lon="9.975971563580835"><ele>349.0</ele><time>2026-04-25T08:43:57Z</time></trkpt><trkpt lat="45.79057373635573" lon="9.975749714528844"><ele>349.0</ele><time>2026-04-25T08:43:58Z</time></trkpt><trkpt lat="45.790565243209684" lon="9.975523834502347"><ele>349.66666666666663</ele><time>2026-04-25T08:43:59Z</time></trkpt><trkpt lat="45.79055845239612" lon="9.975302441064166"><ele>350.3333333333333</ele><time>2026-04-25T08:44:00Z</time></trkpt><trkpt lat="45.79055440665109" lon="9.97507898723712"><ele>351.0</ele><time>2026-04-25T08:44:01Z</time></trkpt><trkpt lat="45.79055854273734" lon="9.974851578841648"><ele>352.0</ele><time>2026-04-25T08:44:02Z</time></trkpt><trkpt lat="45.79056361690475" lon="9.97462741927323"><ele>353.0</ele><time>2026-04-25T08:44:03Z</time></trkpt><trkpt lat="45.790572665554706" lon="9.97439270999302"><ele>354.0</ele><time>2026-04-25T08:44:04Z</time></trkpt><trkpt lat="45.79058104485224" lon="9.974158136831578"><ele>354.0</ele><time>2026-04-25T08:44:05Z</time></trkpt><trkpt lat="45.7905863296733" lon="9.973917547423936"><ele>354.0</ele><time>2026-04-25T08:44:06Z</time></trkpt><trkpt lat="45.7905885291845" lon="9.97367933136533"><ele>354.0</ele><time>2026-04-25T08:44:07Z</time></trkpt><trkpt lat="45.79058566047443" lon="9.973435059999144"><ele>351.0</ele><time>2026-04-25T08:44:08Z</time></trkpt><trkpt lat="45.79057873337098" lon="9.973189185447952"><ele>348.0</ele><time>2026-04-25T08:44:09Z</time></trkpt><trkpt lat="45.790567510604546" lon="9.972944033944426"><ele>345.0</ele><time>2026-04-25T08:44:10Z</time></trkpt><trkpt lat="45.79055657564025" lon="9.972696953769006"><ele>344.6666666666667</ele><time>2026-04-25T08:44:11Z</time></trkpt><trkpt lat="45.79054520438459" lon="9.97245364980604"><ele>344.33333333333337</ele><time>2026-04-25T08:44:12Z</time></trkpt><trkpt lat="45.79053442830698" lon="9.972218724212398"><ele>344.0</ele><time>2026-04-25T08:44:13Z</time></trkpt><trkpt lat="45.79052372993938" lon="9.971983623973797"><ele>344.0</ele><time>2026-04-25T08:44:14Z</time></trkpt><trkpt lat="45.7905122191648" lon="9.971748380310139"><ele>344.0</ele><time>2026-04-25T08:44:15Z</time></trkpt><trkpt lat="45.790500889065356" lon="9.971518416811694"><ele>344.0</ele><time>2026-04-25T08:44:16Z</time></trkpt><trkpt lat="45.790492835834215" lon="9.97128992712028"><ele>344.33333333333337</ele><time>2026-04-25T08:44:17Z</time></trkpt><trkpt lat="45.79049017524074" lon="9.97106058596168"><ele>344.6666666666667</ele><time>2026-04-25T08:44:18Z</time></trkpt><trkpt lat="45.79048984951708" lon="9.9708313031057"><ele>345.0</ele><time>2026-04-25T08:44:19Z</time></trkpt><trkpt lat="45.790490430311344" lon="9.970597642260357"><ele>345.3333333333333</ele><time>2026-04-25T08:44:20Z</time></trkpt><trkpt lat="45.790492683131454" lon="9.970360980117299"><ele>345.66666666666663</ele><time>2026-04-25T08:44:21Z</time></trkpt><trkpt lat="45.79049684756219" lon="9.97011219541581"><ele>346.0</ele><time>2026-04-25T08:44:22Z</time></trkpt><trkpt lat="45.790499629269725" lon="9.969869228764527"><ele>346.0</ele><time>2026-04-25T08:44:23Z</time></trkpt><trkpt lat="45.79050019509735" lon="9.969621991541853"><ele>346.0</ele><time>2026-04-25T08:44:24Z</time></trkpt><trkpt lat="45.79049026486203" lon="9.969375497149096"><ele>346.0</ele><time>2026-04-25T08:44:25Z</time></trkpt><trkpt lat="45.790501880687856" lon="9.969113957077537"><ele>346.0</ele><time>2026-04-25T08:44:26Z</time></trkpt><trkpt lat="45.79050748654071" lon="9.96885779786607"><ele>346.0</ele><time>2026-04-25T08:44:27Z</time></trkpt><trkpt lat="45.790511363447735" lon="9.96860087248181"><ele>346.0</ele><time>2026-04-25T08:44:28Z</time></trkpt><trkpt lat="45.79051663037979" lon="9.9683433768014"><ele>346.0</ele><time>2026-04-25T08:44:29Z</time></trkpt><trkpt lat="45.79051650513187" lon="9.968085936971903"><ele>346.0</ele><time>2026-04-25T08:44:30Z</time></trkpt><trkpt lat="45.790517987178134" lon="9.967831039358874"><ele>346.0</ele><time>2026-04-25T08:44:31Z</time></trkpt><trkpt lat="45.79052279471647" lon="9.967572847777461"><ele>345.66666666666663</ele><time>2026-04-25T08:44:32Z</time></trkpt><trkpt lat="45.79052709953759" lon="9.967313745864459"><ele>345.3333333333333</ele><time>2026-04-25T08:44:33Z</time></trkpt><trkpt lat="45.790534778828906" lon="9.96705422634799"><ele>345.0</ele><time>2026-04-25T08:44:34Z</time></trkpt><trkpt lat="45.79054398703636" lon="9.966791509550422"><ele>344.6666666666667</ele><time>2026-04-25T08:44:35Z</time></trkpt><trkpt lat="45.790552914358" lon="9.966529459004715"><ele>344.33333333333337</ele><time>2026-04-25T08:44:36Z</time></trkpt><trkpt lat="45.790559636472565" lon="9.96626483288857"><ele>344.0</ele><time>2026-04-25T08:44:37Z</time></trkpt><trkpt lat="45.79056412838893" lon="9.965998416356532"><ele>343.33333333333337</ele><time>2026-04-25T08:44:38Z</time></trkpt><trkpt lat="45.790564255699735" lon="9.96572761873984"><ele>342.6666666666667</ele><time>2026-04-25T08:44:39Z</time></trkpt><trkpt lat="45.79056142638638" lon="9.965453009074272"><ele>342.0</ele><time>2026-04-25T08:44:40Z</time></trkpt><trkpt lat="45.79055900906066" lon="9.96517871397641"><ele>342.0</ele><time>2026-04-25T08:44:41Z</time></trkpt><trkpt lat="45.790559796547875" lon="9.964900800279201"><ele>342.0</ele><time>2026-04-25T08:44:42Z</time></trkpt><trkpt lat="45.790561126334936" lon="9.964622217743237"><ele>342.0</ele><time>2026-04-25T08:44:43Z</time></trkpt><trkpt lat="45.79056249225808" lon="9.964342933703588"><ele>343.0</ele><time>2026-04-25T08:44:44Z</time></trkpt><trkpt lat="45.79056390164851" lon="9.964063212039015"><ele>344.0</ele><time>2026-04-25T08:44:45Z</time></trkpt><trkpt lat="45.790567474216544" lon="9.963781377122563"><ele>345.0</ele><time>2026-04-25T08:44:46Z</time></trkpt><trkpt lat="45.79056980408738" lon="9.963500663587258"><ele>345.0</ele><time>2026-04-25T08:44:47Z</time></trkpt><trkpt lat="45.7905793723031" lon="9.963221822178951"><ele>345.0</ele><time>2026-04-25T08:44:48Z</time></trkpt><trkpt lat="45.79059105126985" lon="9.962939481697969"><ele>345.0</ele><time>2026-04-25T08:44:49Z</time></trkpt><trkpt lat="45.790621147715584" lon="9.962661696251468"><ele>343.6666666666667</ele><time>2026-04-25T08:44:50Z</time></trkpt><trkpt lat="45.79066538792725" lon="9.962384711194158"><ele>342.33333333333337</ele><time>2026-04-25T08:44:51Z</time></trkpt><trkpt lat="45.79073239451022" lon="9.962117469869712"><ele>341.0</ele><time>2026-04-25T08:44:52Z</time></trkpt><trkpt lat="45.79080399703037" lon="9.961867456882068"><ele>340.0</ele><time>2026-04-25T08:44:53Z</time></trkpt><trkpt lat="45.790905101302805" lon="9.961620919408107"><ele>339.0</ele><time>2026-04-25T08:44:54Z</time></trkpt><trkpt lat="45.791009553617734" lon="9.961385935365216"><ele>338.0</ele><time>2026-04-25T08:44:55Z</time></trkpt><trkpt lat="45.79112139494394" lon="9.96116151099114"><ele>341.33333333333337</ele><time>2026-04-25T08:44:55.999Z</time></trkpt><trkpt lat="45.79123728025861" lon="9.960944636347135"><ele>344.6666666666667</ele><time>2026-04-25T08:44:56.999Z</time></trkpt><trkpt lat="45.79135202481515" lon="9.960721705750489"><ele>348.0</ele><time>2026-04-25T08:44:57.999Z</time></trkpt><trkpt lat="45.79146671905629" lon="9.960501863332647"><ele>348.0</ele><time>2026-04-25T08:44:58.999Z</time></trkpt><trkpt lat="45.791584073733404" lon="9.96027947408223"><ele>348.0</ele><time>2026-04-25T08:44:59.999Z</time></trkpt><trkpt lat="45.79168936877754" lon="9.960052073487098"><ele>348.0</ele><time>2026-04-25T08:45:00.999Z</time></trkpt><trkpt lat="45.79179234399288" lon="9.959816149474896"><ele>348.0</ele><time>2026-04-25T08:45:01.999Z</time></trkpt><trkpt lat="45.79187546854655" lon="9.959568166502343"><ele>348.0</ele><time>2026-04-25T08:45:02.999Z</time></trkpt><trkpt lat="45.7919436062344" lon="9.95930925264102"><ele>348.0</ele><time>2026-04-25T08:45:03.999Z</time></trkpt><trkpt lat="45.79199952712723" lon="9.959044661167793"><ele>348.0</ele><time>2026-04-25T08:45:04.999Z</time></trkpt><trkpt lat="45.79203949537955" lon="9.958776609293574"><ele>348.0</ele><time>2026-04-25T08:45:05.999Z</time></trkpt><trkpt lat="45.7920671798052" lon="9.958510052664101"><ele>348.0</ele><time>2026-04-25T08:45:06.999Z</time></trkpt><trkpt lat="45.79208696363054" lon="9.958250604120707"><ele>347.6666666666667</ele><time>2026-04-25T08:45:07.999Z</time></trkpt><trkpt lat="45.79210545992533" lon="9.957994509623706"><ele>347.33333333333337</ele><time>2026-04-25T08:45:08.999Z</time></trkpt><trkpt lat="45.79212332555319" lon="9.957747797582634"><ele>347.0</ele><time>2026-04-25T08:45:09.999Z</time></trkpt><trkpt lat="45.79213761729018" lon="9.957501683988156"><ele>347.0</ele><time>2026-04-25T08:45:10.999Z</time></trkpt><trkpt lat="45.79214684296517" lon="9.957257997665142"><ele>347.0</ele><time>2026-04-25T08:45:11.999Z</time></trkpt><trkpt lat="45.79214277210546" lon="9.95702667679449"><ele>347.0</ele><time>2026-04-25T08:45:12.999Z</time></trkpt><trkpt lat="45.79211177060221" lon="9.956811587881482"><ele>347.25</ele><time>2026-04-25T08:45:13.999Z</time></trkpt><trkpt lat="45.792066847605724" lon="9.956612087040098"><ele>347.5</ele><time>2026-04-25T08:45:14.999Z</time></trkpt><trkpt lat="45.7920066673789" lon="9.956419573641988"><ele>347.75</ele><time>2026-04-25T08:45:15.999Z</time></trkpt><trkpt lat="45.79193439602209" lon="9.956232871428993"><ele>348.0</ele><time>2026-04-25T08:45:16.999Z</time></trkpt><trkpt lat="45.79185643485087" lon="9.956039703388221"><ele>344.6666666666667</ele><time>2026-04-25T08:45:17.999Z</time></trkpt><trkpt lat="45.791774459909014" lon="9.95584497676828"><ele>341.33333333333337</ele><time>2026-04-25T08:45:18.999Z</time></trkpt><trkpt lat="45.791689712062" lon="9.955650747012651"><ele>338.0</ele><time>2026-04-25T08:45:19.999Z</time></trkpt><trkpt lat="45.79160268273504" lon="9.955454491454503"><ele>338.0</ele><time>2026-04-25T08:45:20.999Z</time></trkpt><trkpt lat="45.79153392875844" lon="9.955246033520465"><ele>338.0</ele><time>2026-04-25T08:45:21.999Z</time></trkpt><trkpt lat="45.791439747295726" lon="9.955065800978197"><ele>338.0</ele><time>2026-04-25T08:45:22.999Z</time></trkpt><trkpt lat="45.79137709399941" lon="9.954857713393999"><ele>339.0</ele><time>2026-04-25T08:45:23.999Z</time></trkpt><trkpt lat="45.791313169655446" lon="9.95465090736043"><ele>340.0</ele><time>2026-04-25T08:45:24.999Z</time></trkpt><trkpt lat="45.7912708904749" lon="9.954435153648525"><ele>341.0</ele><time>2026-04-25T08:45:25.999Z</time></trkpt><trkpt lat="45.79124205030658" lon="9.95421883000866"><ele>342.33333333333337</ele><time>2026-04-25T08:45:27Z</time></trkpt><trkpt lat="45.79123225799025" lon="9.953999176302093"><ele>343.6666666666667</ele><time>2026-04-25T08:45:28Z</time></trkpt><trkpt lat="45.79121296763344" lon="9.953782076113713"><ele>345.0</ele><time>2026-04-25T08:45:29Z</time></trkpt><trkpt lat="45.791211455557814" lon="9.95356301037073"><ele>346.0</ele><time>2026-04-25T08:45:30Z</time></trkpt><trkpt lat="45.79120842273918" lon="9.953345298250124"><ele>347.0</ele><time>2026-04-25T08:45:31Z</time></trkpt><trkpt lat="45.79120411062423" lon="9.953124546220483"><ele>348.0</ele><time>2026-04-25T08:45:32Z</time></trkpt><trkpt lat="45.791198300760335" lon="9.952905797232107"><ele>348.0</ele><time>2026-04-25T08:45:33Z</time></trkpt><trkpt lat="45.79119296851227" lon="9.952684756626823"><ele>348.0</ele><time>2026-04-25T08:45:34Z</time></trkpt><trkpt lat="45.79118330270172" lon="9.952466832075983"><ele>348.0</ele><time>2026-04-25T08:45:35Z</time></trkpt><trkpt lat="45.79115680819399" lon="9.95225907793447"><ele>348.5</ele><time>2026-04-25T08:45:36Z</time></trkpt><trkpt lat="45.791102763886066" lon="9.952062787591567"><ele>349.0</ele><time>2026-04-25T08:45:37Z</time></trkpt><trkpt lat="45.791024145919046" lon="9.951883639634477"><ele>349.5</ele><time>2026-04-25T08:45:38Z</time></trkpt><trkpt lat="45.790934467843314" lon="9.951714448695402"><ele>350.0</ele><time>2026-04-25T08:45:39Z</time></trkpt><trkpt lat="45.79083624671369" lon="9.951548568644434"><ele>347.0</ele><time>2026-04-25T08:45:40Z</time></trkpt><trkpt lat="45.79073560574213" lon="9.95138671528061"><ele>344.0</ele><time>2026-04-25T08:45:41Z</time></trkpt><trkpt lat="45.79063966152613" lon="9.951224748234392"><ele>341.0</ele><time>2026-04-25T08:45:42Z</time></trkpt><trkpt lat="45.79054324541996" lon="9.951062983584205"><ele>338.0</ele><time>2026-04-25T08:45:43Z</time></trkpt><trkpt lat="45.790447974477125" lon="9.950899826079556"><ele>339.0</ele><time>2026-04-25T08:45:44Z</time></trkpt><trkpt lat="45.790353176497455" lon="9.950740584415257"><ele>340.0</ele><time>2026-04-25T08:45:45Z</time></trkpt><trkpt lat="45.79026780856779" lon="9.950555273735198"><ele>341.0</ele><time>2026-04-25T08:45:46Z</time></trkpt><trkpt lat="45.79018786222059" lon="9.950364156168385"><ele>340.0</ele><time>2026-04-25T08:45:47Z</time></trkpt><trkpt lat="45.79011134939218" lon="9.950165389340182"><ele>339.0</ele><time>2026-04-25T08:45:48Z</time></trkpt><trkpt lat="45.790036482705126" lon="9.949962849518915"><ele>338.0</ele><time>2026-04-25T08:45:49Z</time></trkpt><trkpt lat="45.78996114507128" lon="9.949755716666761"><ele>338.0</ele><time>2026-04-25T08:45:50Z</time></trkpt><trkpt lat="45.78989008564148" lon="9.949545815393925"><ele>338.0</ele><time>2026-04-25T08:45:51Z</time></trkpt><trkpt lat="45.78981864427236" lon="9.949334099102265"><ele>338.0</ele><time>2026-04-25T08:45:52Z</time></trkpt><trkpt lat="45.78974630486587" lon="9.949124064511068"><ele>340.0</ele><time>2026-04-25T08:45:53Z</time></trkpt><trkpt lat="45.789673499841385" lon="9.948912373600283"><ele>342.0</ele><time>2026-04-25T08:45:54Z</time></trkpt><trkpt lat="45.789601524767534" lon="9.948699796879621"><ele>344.0</ele><time>2026-04-25T08:45:55Z</time></trkpt><trkpt lat="45.789529086985176" lon="9.948489377153805"><ele>345.33333333333337</ele><time>2026-04-25T08:45:56Z</time></trkpt><trkpt lat="45.78945502582439" lon="9.948280462523968"><ele>346.6666666666667</ele><time>2026-04-25T08:45:57Z</time></trkpt><trkpt lat="45.78938277354182" lon="9.948078972611517"><ele>348.0</ele><time>2026-04-25T08:45:58Z</time></trkpt><trkpt lat="45.789297460356316" lon="9.947887604685997"><ele>345.3333333333333</ele><time>2026-04-25T08:45:59Z</time></trkpt><trkpt lat="45.78919739588347" lon="9.94771484281915"><ele>342.66666666666663</ele><time>2026-04-25T08:46:00Z</time></trkpt><trkpt lat="45.789075529685284" lon="9.947562736349683"><ele>340.0</ele><time>2026-04-25T08:46:01Z</time></trkpt><trkpt lat="45.78893224902274" lon="9.947457930327683"><ele>340.0</ele><time>2026-04-25T08:46:02Z</time></trkpt><trkpt lat="45.78878904835752" lon="9.947388217671822"><ele>340.0</ele><time>2026-04-25T08:46:03Z</time></trkpt><trkpt lat="45.788655958416086" lon="9.947351303978559"><ele>340.0</ele><time>2026-04-25T08:46:04Z</time></trkpt><trkpt lat="45.788526294171284" lon="9.947309056506937"><ele>340.0</ele><time>2026-04-25T08:46:05Z</time></trkpt><trkpt lat="45.78838984584481" lon="9.947260093085275"><ele>338.75</ele><time>2026-04-25T08:46:06Z</time></trkpt><trkpt lat="45.788259639236976" lon="9.947195493853584"><ele>337.5</ele><time>2026-04-25T08:46:07Z</time></trkpt><trkpt lat="45.78813762637557" lon="9.947120686724897"><ele>336.25</ele><time>2026-04-25T08:46:08Z</time></trkpt><trkpt lat="45.788028024771684" lon="9.947032894237104"><ele>335.0</ele><time>2026-04-25T08:46:09Z</time></trkpt><trkpt lat="45.787909554306765" lon="9.946936242636694"><ele>335.0</ele><time>2026-04-25T08:46:10Z</time></trkpt><trkpt lat="45.7877916129867" lon="9.946808764692523"><ele>335.0</ele><time>2026-04-25T08:46:11Z</time></trkpt><trkpt lat="45.78766419226824" lon="9.946679604701131"><ele>335.0</ele><time>2026-04-25T08:46:12Z</time></trkpt><trkpt lat="45.78752957812825" lon="9.946542245154234"><ele>335.33333333333337</ele><time>2026-04-25T08:46:13Z</time></trkpt><trkpt lat="45.78738684081061" lon="9.946418546628665"><ele>335.6666666666667</ele><time>2026-04-25T08:46:14Z</time></trkpt><trkpt lat="45.787264929579464" lon="9.946281431188996"><ele>336.0</ele><time>2026-04-25T08:46:15Z</time></trkpt><trkpt lat="45.78711952190489" lon="9.946122548843398"><ele>336.0</ele><time>2026-04-25T08:46:16Z</time></trkpt><trkpt lat="45.78697779465136" lon="9.945977926899667"><ele>336.0</ele><time>2026-04-25T08:46:17Z</time></trkpt><trkpt lat="45.78684338139973" lon="9.945834651003304"><ele>336.0</ele><time>2026-04-25T08:46:18Z</time></trkpt><trkpt lat="45.786671424146995" lon="9.945665319098778"><ele>336.0</ele><time>2026-04-25T08:46:19Z</time></trkpt><trkpt lat="45.786534801475604" lon="9.945496661328225"><ele>336.0</ele><time>2026-04-25T08:46:20Z</time></trkpt><trkpt lat="45.786403294889915" lon="9.945322763847525"><ele>336.0</ele><time>2026-04-25T08:46:21Z</time></trkpt><trkpt lat="45.786275523335924" lon="9.9451454283902"><ele>336.3333333333333</ele><time>2026-04-25T08:46:22Z</time></trkpt><trkpt lat="45.78615035351481" lon="9.944958885767782"><ele>336.66666666666663</ele><time>2026-04-25T08:46:23Z</time></trkpt><trkpt lat="45.78604159582561" lon="9.94479656963715"><ele>337.0</ele><time>2026-04-25T08:46:24Z</time></trkpt><trkpt lat="45.78592577062073" lon="9.944610400198412"><ele>337.0</ele><time>2026-04-25T08:46:25Z</time></trkpt><trkpt lat="45.7858093123338" lon="9.94441987626621"><ele>337.0</ele><time>2026-04-25T08:46:26Z</time></trkpt><trkpt lat="45.78571713469532" lon="9.944212811076838"><ele>337.0</ele><time>2026-04-25T08:46:27Z</time></trkpt><trkpt lat="45.78567589652573" lon="9.94396217710689"><ele>337.66666666666663</ele><time>2026-04-25T08:46:28Z</time></trkpt><trkpt lat="45.78562692210002" lon="9.943711456504715"><ele>338.3333333333333</ele><time>2026-04-25T08:46:29Z</time></trkpt><trkpt lat="45.78557096804263" lon="9.943466148713885"><ele>339.0</ele><time>2026-04-25T08:46:30Z</time></trkpt><trkpt lat="45.78553606981915" lon="9.943215302483067"><ele>340.0</ele><time>2026-04-25T08:46:31Z</time></trkpt><trkpt lat="45.78550320813366" lon="9.942959117923994"><ele>341.0</ele><time>2026-04-25T08:46:32Z</time></trkpt><trkpt lat="45.78550556432535" lon="9.94269410019626"><ele>342.0</ele><time>2026-04-25T08:46:33Z</time></trkpt><trkpt lat="45.78552061261004" lon="9.942429226288457"><ele>342.3333333333333</ele><time>2026-04-25T08:46:34Z</time></trkpt><trkpt lat="45.78554565487274" lon="9.942158328999016"><ele>342.66666666666663</ele><time>2026-04-25T08:46:35Z</time></trkpt><trkpt lat="45.78555922593724" lon="9.941886645689438"><ele>343.0</ele><time>2026-04-25T08:46:36Z</time></trkpt><trkpt lat="45.785592300170684" lon="9.941621975288676"><ele>345.0</ele><time>2026-04-25T08:46:37Z</time></trkpt><trkpt lat="45.78559309711182" lon="9.941352827940886"><ele>347.0</ele><time>2026-04-25T08:46:38Z</time></trkpt><trkpt lat="45.78555343949755" lon="9.941091625769532"><ele>349.0</ele><time>2026-04-25T08:46:39Z</time></trkpt><trkpt lat="45.7854698801223" lon="9.940843118619384"><ele>346.0</ele><time>2026-04-25T08:46:40Z</time></trkpt><trkpt lat="45.78534994842477" lon="9.940618951439099"><ele>343.0</ele><time>2026-04-25T08:46:41Z</time></trkpt><trkpt lat="45.78521147695536" lon="9.940414009780046"><ele>340.0</ele><time>2026-04-25T08:46:42Z</time></trkpt><trkpt lat="45.78506487473429" lon="9.940218043376081"><ele>341.0</ele><time>2026-04-25T08:46:43Z</time></trkpt><trkpt lat="45.78491604878311" lon="9.9400232828145"><ele>342.0</ele><time>2026-04-25T08:46:44Z</time></trkpt><trkpt lat="45.78477789645812" lon="9.93981578551059"><ele>343.0</ele><time>2026-04-25T08:46:45Z</time></trkpt><trkpt lat="45.78463541945524" lon="9.939610741055196"><ele>343.0</ele><time>2026-04-25T08:46:46Z</time></trkpt><trkpt lat="45.78449698964613" lon="9.939415403709532"><ele>343.0</ele><time>2026-04-25T08:46:47Z</time></trkpt><trkpt lat="45.784361956794456" lon="9.93921779119491"><ele>343.0</ele><time>2026-04-25T08:46:48Z</time></trkpt><trkpt lat="45.78422134400046" lon="9.939029117011927"><ele>342.0</ele><time>2026-04-25T08:46:49Z</time></trkpt><trkpt lat="45.784078326139245" lon="9.938842772217637"><ele>341.0</ele><time>2026-04-25T08:46:50Z</time></trkpt><trkpt lat="45.783925403145915" lon="9.938669359729873"><ele>340.0</ele><time>2026-04-25T08:46:50.999Z</time></trkpt><trkpt lat="45.78376524695643" lon="9.938504362087501"><ele>339.66666666666663</ele><time>2026-04-25T08:46:51.999Z</time></trkpt><trkpt lat="45.78360983932242" lon="9.93832778323649"><ele>339.3333333333333</ele><time>2026-04-25T08:46:52.999Z</time></trkpt><trkpt lat="45.78345304624098" lon="9.93815351565739"><ele>339.0</ele><time>2026-04-25T08:46:53.999Z</time></trkpt><trkpt lat="45.78329323349558" lon="9.937986086630042"><ele>339.0</ele><time>2026-04-25T08:46:54.999Z</time></trkpt><trkpt lat="45.78312527306397" lon="9.937838603754352"><ele>339.0</ele><time>2026-04-25T08:46:55.999Z</time></trkpt><trkpt lat="45.78293791285621" lon="9.937720581206424"><ele>339.0</ele><time>2026-04-25T08:46:56.999Z</time></trkpt><trkpt lat="45.78274412843832" lon="9.937645782556592"><ele>339.3333333333333</ele><time>2026-04-25T08:46:57.999Z</time></trkpt><trkpt lat="45.782551065507846" lon="9.937559101062805"><ele>339.66666666666663</ele><time>2026-04-25T08:46:58.999Z</time></trkpt><trkpt lat="45.78236262955309" lon="9.93743527791396"><ele>340.0</ele><time>2026-04-25T08:46:59.999Z</time></trkpt><trkpt lat="45.782179188619104" lon="9.937272941431635"><ele>340.0</ele><time>2026-04-25T08:47:00.999Z</time></trkpt><trkpt lat="45.781997018263134" lon="9.93709551976561"><ele>340.0</ele><time>2026-04-25T08:47:01.999Z</time></trkpt><trkpt lat="45.781817320110484" lon="9.936902931054489"><ele>340.0</ele><time>2026-04-25T08:47:02.999Z</time></trkpt><trkpt lat="45.781641142592186" lon="9.93670020536936"><ele>339.66666666666663</ele><time>2026-04-25T08:47:03.999Z</time></trkpt><trkpt lat="45.781489592218115" lon="9.936468999646014"><ele>339.3333333333333</ele><time>2026-04-25T08:47:04.999Z</time></trkpt><trkpt lat="45.781324537903636" lon="9.936265632072272"><ele>339.0</ele><time>2026-04-25T08:47:05.999Z</time></trkpt><trkpt lat="45.78117686350973" lon="9.936046736284489"><ele>338.3333333333333</ele><time>2026-04-25T08:47:06.999Z</time></trkpt><trkpt lat="45.781028410044854" lon="9.935850208584904"><ele>337.66666666666663</ele><time>2026-04-25T08:47:07.999Z</time></trkpt><trkpt lat="45.78087672557102" lon="9.935671186467129"><ele>337.0</ele><time>2026-04-25T08:47:08.999Z</time></trkpt><trkpt lat="45.780705984066095" lon="9.935518254372736"><ele>337.0</ele><time>2026-04-25T08:47:09.999Z</time></trkpt><trkpt lat="45.78052236137798" lon="9.93539991952098"><ele>337.0</ele><time>2026-04-25T08:47:10.999Z</time></trkpt><trkpt lat="45.78032994500802" lon="9.935335632360657"><ele>337.0</ele><time>2026-04-25T08:47:11.999Z</time></trkpt><trkpt lat="45.780126109127124" lon="9.935339073041977"><ele>336.3333333333333</ele><time>2026-04-25T08:47:12.999Z</time></trkpt><trkpt lat="45.77992450852929" lon="9.93537964055391"><ele>335.6666666666667</ele><time>2026-04-25T08:47:13.999Z</time></trkpt><trkpt lat="45.77973006454389" lon="9.935445398128666"><ele>335.0</ele><time>2026-04-25T08:47:14.999Z</time></trkpt><trkpt lat="45.77954628255021" lon="9.93550071332819"><ele>335.0</ele><time>2026-04-25T08:47:15.999Z</time></trkpt><trkpt lat="45.77936075050831" lon="9.935553487662359"><ele>335.0</ele><time>2026-04-25T08:47:16.999Z</time></trkpt><trkpt lat="45.779179376043615" lon="9.935607646445892"><ele>335.0</ele><time>2026-04-25T08:47:17.999Z</time></trkpt><trkpt lat="45.779008657787" lon="9.935659381422052"><ele>336.33333333333337</ele><time>2026-04-25T08:47:18.999Z</time></trkpt><trkpt lat="45.77883741697845" lon="9.935708871182653"><ele>337.6666666666667</ele><time>2026-04-25T08:47:19.999Z</time></trkpt><trkpt lat="45.778670213753536" lon="9.935752872270196"><ele>339.0</ele><time>2026-04-25T08:47:20.999Z</time></trkpt><trkpt lat="45.7785042262357" lon="9.935800771667024"><ele>337.6666666666667</ele><time>2026-04-25T08:47:21.999Z</time></trkpt><trkpt lat="45.778341634887646" lon="9.9358445576843"><ele>336.33333333333337</ele><time>2026-04-25T08:47:22.999Z</time></trkpt><trkpt lat="45.7781842799495" lon="9.935894068393976"><ele>335.0</ele><time>2026-04-25T08:47:23.999Z</time></trkpt><trkpt lat="45.77803663962858" lon="9.935958469424277"><ele>335.0</ele><time>2026-04-25T08:47:24.999Z</time></trkpt><trkpt lat="45.777902053759725" lon="9.936030260470854"><ele>335.0</ele><time>2026-04-25T08:47:25.999Z</time></trkpt><trkpt lat="45.77778142428671" lon="9.936106691270114"><ele>335.0</ele><time>2026-04-25T08:47:26.999Z</time></trkpt><trkpt lat="45.777668828508446" lon="9.936183688937632"><ele>335.0</ele><time>2026-04-25T08:47:27.999Z</time></trkpt><trkpt lat="45.7775639826121" lon="9.936250471847407"><ele>335.2</ele><time>2026-04-25T08:47:28.999Z</time></trkpt><trkpt lat="45.777466153372664" lon="9.936318230782618"><ele>335.4</ele><time>2026-04-25T08:47:29.999Z</time></trkpt><trkpt lat="45.77737168607698" lon="9.936384062326015"><ele>335.6</ele><time>2026-04-25T08:47:30.999Z</time></trkpt><trkpt lat="45.777279241759246" lon="9.936434213547901"><ele>335.8</ele><time>2026-04-25T08:47:31.999Z</time></trkpt><trkpt lat="45.777187791925584" lon="9.936494800328449"><ele>336.0</ele><time>2026-04-25T08:47:33Z</time></trkpt><trkpt lat="45.777088274861796" lon="9.936551505328584"><ele>336.0</ele><time>2026-04-25T08:47:34Z</time></trkpt><trkpt lat="45.77698193407861" lon="9.93660809200504"><ele>336.0</ele><time>2026-04-25T08:47:35Z</time></trkpt><trkpt lat="45.776870764109255" lon="9.936657163021126"><ele>336.0</ele><time>2026-04-25T08:47:36Z</time></trkpt><trkpt lat="45.7767492247509" lon="9.936696378593378"><ele>336.0</ele><time>2026-04-25T08:47:37Z</time></trkpt><trkpt lat="45.77662633209871" lon="9.936721704582125"><ele>336.5</ele><time>2026-04-25T08:47:38Z</time></trkpt><trkpt lat="45.776503296026405" lon="9.936735489699714"><ele>337.0</ele><time>2026-04-25T08:47:39Z</time></trkpt><trkpt lat="45.77638266696846" lon="9.936738593694654"><ele>337.5</ele><time>2026-04-25T08:47:40Z</time></trkpt><trkpt lat="45.77626361131517" lon="9.936727725365545"><ele>338.0</ele><time>2026-04-25T08:47:41Z</time></trkpt><trkpt lat="45.77614808368755" lon="9.936709528515584"><ele>338.0</ele><time>2026-04-25T08:47:42Z</time></trkpt><trkpt lat="45.776027784886494" lon="9.936691648477277"><ele>338.0</ele><time>2026-04-25T08:47:43Z</time></trkpt><trkpt lat="45.775908703167914" lon="9.936671666519683"><ele>338.0</ele><time>2026-04-25T08:47:44Z</time></trkpt><trkpt lat="45.77577540026101" lon="9.936667915872775"><ele>338.0</ele><time>2026-04-25T08:47:45Z</time></trkpt><trkpt lat="45.77564162410307" lon="9.936645042947958"><ele>338.25</ele><time>2026-04-25T08:47:46Z</time></trkpt><trkpt lat="45.775515888901815" lon="9.936653403661092"><ele>338.5</ele><time>2026-04-25T08:47:47Z</time></trkpt><trkpt lat="45.77539970672972" lon="9.936692746940386"><ele>338.75</ele><time>2026-04-25T08:47:48Z</time></trkpt><trkpt lat="45.775274356847966" lon="9.936712494366224"><ele>339.0</ele><time>2026-04-25T08:47:49Z</time></trkpt><trkpt lat="45.77515897014369" lon="9.936735414591917"><ele>338.25</ele><time>2026-04-25T08:47:50Z</time></trkpt><trkpt lat="45.77504305306772" lon="9.936757630720347"><ele>337.5</ele><time>2026-04-25T08:47:51Z</time></trkpt><trkpt lat="45.77492889417634" lon="9.93678269778291"><ele>336.75</ele><time>2026-04-25T08:47:52Z</time></trkpt><trkpt lat="45.77481785413259" lon="9.936802675919518"><ele>336.0</ele><time>2026-04-25T08:47:53Z</time></trkpt><trkpt lat="45.77470417608216" lon="9.936818637667324"><ele>336.0</ele><time>2026-04-25T08:47:54Z</time></trkpt><trkpt lat="45.77458826708292" lon="9.936823061141302"><ele>336.0</ele><time>2026-04-25T08:47:55Z</time></trkpt><trkpt lat="45.77447836207101" lon="9.93680582045741"><ele>336.0</ele><time>2026-04-25T08:47:56Z</time></trkpt><trkpt lat="45.774366906990565" lon="9.93677028741485"><ele>336.0</ele><time>2026-04-25T08:47:57Z</time></trkpt><trkpt lat="45.77425335821708" lon="9.936726328108456"><ele>336.75</ele><time>2026-04-25T08:47:58Z</time></trkpt><trkpt lat="45.7741392035984" lon="9.936659567572534"><ele>337.5</ele><time>2026-04-25T08:47:59Z</time></trkpt><trkpt lat="45.774031562206346" lon="9.936575896720266"><ele>338.25</ele><time>2026-04-25T08:48:00Z</time></trkpt><trkpt lat="45.77392696745822" lon="9.936465598036452"><ele>339.0</ele><time>2026-04-25T08:48:01Z</time></trkpt><trkpt lat="45.77383406699446" lon="9.936336356137916"><ele>339.0</ele><time>2026-04-25T08:48:02Z</time></trkpt><trkpt lat="45.77374548289556" lon="9.936184752377578"><ele>339.0</ele><time>2026-04-25T08:48:03Z</time></trkpt><trkpt lat="45.77367697435201" lon="9.936016718537536"><ele>339.0</ele><time>2026-04-25T08:48:04Z</time></trkpt><trkpt lat="45.77361719395413" lon="9.935841462400433"><ele>339.0</ele><time>2026-04-25T08:48:05Z</time></trkpt><trkpt lat="45.77356688688357" lon="9.935659611166669"><ele>338.75</ele><time>2026-04-25T08:48:06Z</time></trkpt><trkpt lat="45.77352104521662" lon="9.935470071480431"><ele>338.5</ele><time>2026-04-25T08:48:07Z</time></trkpt><trkpt lat="45.773481220205454" lon="9.9352833288378"><ele>338.25</ele><time>2026-04-25T08:48:08Z</time></trkpt><trkpt lat="45.77343905597992" lon="9.935092411467444"><ele>338.0</ele><time>2026-04-25T08:48:09Z</time></trkpt><trkpt lat="45.77339570576775" lon="9.934911872302198"><ele>338.0</ele><time>2026-04-25T08:48:10Z</time></trkpt><trkpt lat="45.773351654922614" lon="9.934733125362394"><ele>338.0</ele><time>2026-04-25T08:48:11Z</time></trkpt><trkpt lat="45.77329647609863" lon="9.934571407453616"><ele>338.0</ele><time>2026-04-25T08:48:12Z</time></trkpt><trkpt lat="45.7732317266437" lon="9.934410669204368"><ele>338.0</ele><time>2026-04-25T08:48:13Z</time></trkpt><trkpt lat="45.773165624107484" lon="9.934257001211025"><ele>338.5</ele><time>2026-04-25T08:48:14Z</time></trkpt><trkpt lat="45.773094664711174" lon="9.934113972975727"><ele>339.0</ele><time>2026-04-25T08:48:15Z</time></trkpt><trkpt lat="45.77301676229562" lon="9.933984738140028"><ele>339.5</ele><time>2026-04-25T08:48:16Z</time></trkpt><trkpt lat="45.77293259206162" lon="9.93386023470704"><ele>340.0</ele><time>2026-04-25T08:48:17Z</time></trkpt><trkpt lat="45.772845800654366" lon="9.933748548937823"><ele>340.0</ele><time>2026-04-25T08:48:18Z</time></trkpt><trkpt lat="45.77275515970695" lon="9.933645244471316"><ele>340.0</ele><time>2026-04-25T08:48:19Z</time></trkpt><trkpt lat="45.77266156453792" lon="9.933551857246773"><ele>340.0</ele><time>2026-04-25T08:48:20Z</time></trkpt><trkpt lat="45.77256739434136" lon="9.933466022952885"><ele>340.0</ele><time>2026-04-25T08:48:21Z</time></trkpt><trkpt lat="45.77246249572305" lon="9.933391834227388"><ele>340.0</ele><time>2026-04-25T08:48:22Z</time></trkpt><trkpt lat="45.772353265957555" lon="9.933320731143139"><ele>340.0</ele><time>2026-04-25T08:48:23Z</time></trkpt><trkpt lat="45.77224528835865" lon="9.933234345983204"><ele>340.0</ele><time>2026-04-25T08:48:24Z</time></trkpt><trkpt lat="45.772112420000354" lon="9.933182958384021"><ele>340.0</ele><time>2026-04-25T08:48:25Z</time></trkpt><trkpt lat="45.771987841444826" lon="9.933086823477867"><ele>339.0</ele><time>2026-04-25T08:48:26Z</time></trkpt><trkpt lat="45.77185117033208" lon="9.933008788938954"><ele>338.0</ele><time>2026-04-25T08:48:27Z</time></trkpt><trkpt lat="45.77171085584941" lon="9.932928674555887"><ele>337.0</ele><time>2026-04-25T08:48:28Z</time></trkpt><trkpt lat="45.77156833570494" lon="9.932845116735445"><ele>337.0</ele><time>2026-04-25T08:48:29Z</time></trkpt><trkpt lat="45.771435229589436" lon="9.93276708530968"><ele>337.0</ele><time>2026-04-25T08:48:30Z</time></trkpt><trkpt lat="45.771310168570146" lon="9.93269415919786"><ele>337.0</ele><time>2026-04-25T08:48:31Z</time></trkpt><trkpt lat="45.77119625745255" lon="9.932628824556357"><ele>337.0</ele><time>2026-04-25T08:48:32Z</time></trkpt><trkpt lat="45.77108074584605" lon="9.932560753391096"><ele>336.75</ele><time>2026-04-25T08:48:33Z</time></trkpt><trkpt lat="45.7709586191862" lon="9.932507996750761"><ele>336.5</ele><time>2026-04-25T08:48:34Z</time></trkpt><trkpt lat="45.770846307772146" lon="9.932418957289682"><ele>336.25</ele><time>2026-04-25T08:48:35Z</time></trkpt><trkpt lat="45.77073294087486" lon="9.932317943146177"><ele>336.0</ele><time>2026-04-25T08:48:36Z</time></trkpt><trkpt lat="45.770628964419615" lon="9.932201029984176"><ele>336.0</ele><time>2026-04-25T08:48:37Z</time></trkpt><trkpt lat="45.770535434269526" lon="9.932077065123718"><ele>336.0</ele><time>2026-04-25T08:48:38Z</time></trkpt><trkpt lat="45.77044585090524" lon="9.931947912417423"><ele>336.0</ele><time>2026-04-25T08:48:39Z</time></trkpt><trkpt lat="45.7703643024778" lon="9.931822082280739"><ele>336.0</ele><time>2026-04-25T08:48:40Z</time></trkpt><trkpt lat="45.77029151843886" lon="9.931674845873056"><ele>335.5</ele><time>2026-04-25T08:48:41Z</time></trkpt><trkpt lat="45.77022849532038" lon="9.931523875776742"><ele>335.0</ele><time>2026-04-25T08:48:42Z</time></trkpt><trkpt lat="45.77016624215512" lon="9.931391054577853"><ele>334.5</ele><time>2026-04-25T08:48:43Z</time></trkpt><trkpt lat="45.770105108112816" lon="9.931229309623758"><ele>334.0</ele><time>2026-04-25T08:48:43.999Z</time></trkpt><trkpt lat="45.77004985285814" lon="9.931055825080602"><ele>335.0</ele><time>2026-04-25T08:48:44.999Z</time></trkpt><trkpt lat="45.76999916070908" lon="9.930884158227432"><ele>336.0</ele><time>2026-04-25T08:48:45.999Z</time></trkpt><trkpt lat="45.76994258216995" lon="9.930713613886992"><ele>337.0</ele><time>2026-04-25T08:48:46.999Z</time></trkpt><trkpt lat="45.76989466654101" lon="9.930546975562324"><ele>338.0</ele><time>2026-04-25T08:48:47.999Z</time></trkpt><trkpt lat="45.769861324417725" lon="9.930404756672443"><ele>338.0</ele><time>2026-04-25T08:48:48.999Z</time></trkpt><trkpt lat="45.76980598292402" lon="9.930260031960445"><ele>338.0</ele><time>2026-04-25T08:48:49.999Z</time></trkpt><trkpt lat="45.769761447016215" lon="9.93013267154566"><ele>338.0</ele><time>2026-04-25T08:48:50.999Z</time></trkpt><trkpt lat="45.76971803408761" lon="9.930004811842435"><ele>338.0</ele><time>2026-04-25T08:48:51.999Z</time></trkpt><trkpt lat="45.76967373832428" lon="9.929863588987693"><ele>338.0</ele><time>2026-04-25T08:48:52.999Z</time></trkpt><trkpt lat="45.769620666020565" lon="9.929729565462775"><ele>338.0</ele><time>2026-04-25T08:48:53.999Z</time></trkpt><trkpt lat="45.769555319645995" lon="9.929602938254448"><ele>338.0</ele><time>2026-04-25T08:48:54.999Z</time></trkpt><trkpt lat="45.76948297900024" lon="9.929489097537259"><ele>338.0</ele><time>2026-04-25T08:48:55.999Z</time></trkpt><trkpt lat="45.76941155800958" lon="9.929380962890006"><ele>338.0</ele><time>2026-04-25T08:48:56.999Z</time></trkpt><trkpt lat="45.76934075118496" lon="9.929268734644356"><ele>338.0</ele><time>2026-04-25T08:48:57.999Z</time></trkpt><trkpt lat="45.7692678294672" lon="9.929158030205183"><ele>338.0</ele><time>2026-04-25T08:48:58.999Z</time></trkpt><trkpt lat="45.76920135352954" lon="9.929053601238644"><ele>338.0</ele><time>2026-04-25T08:48:59.999Z</time></trkpt><trkpt lat="45.76913871254303" lon="9.928948078300005"><ele>338.0</ele><time>2026-04-25T08:49:00.999Z</time></trkpt><trkpt lat="45.769079627415614" lon="9.92884844997137"><ele>338.0</ele><time>2026-04-25T08:49:01.999Z</time></trkpt><trkpt lat="45.76901547922789" lon="9.928751720667107"><ele>338.0</ele><time>2026-04-25T08:49:02.999Z</time></trkpt><trkpt lat="45.76895407375932" lon="9.92865108445112"><ele>338.0</ele><time>2026-04-25T08:49:03.999Z</time></trkpt><trkpt lat="45.76889089587484" lon="9.92855255540081"><ele>338.0</ele><time>2026-04-25T08:49:04.999Z</time></trkpt><trkpt lat="45.768827862023606" lon="9.928452190659055"><ele>338.0</ele><time>2026-04-25T08:49:05.999Z</time></trkpt><trkpt lat="45.76875990655513" lon="9.928346915076661"><ele>338.0</ele><time>2026-04-25T08:49:06.999Z</time></trkpt><trkpt lat="45.76868871134387" lon="9.928239622300822"><ele>338.0</ele><time>2026-04-25T08:49:07.999Z</time></trkpt><trkpt lat="45.76861823931199" lon="9.928129372919466"><ele>337.4</ele><time>2026-04-25T08:49:08.999Z</time></trkpt><trkpt lat="45.76854593861007" lon="9.92802129865221"><ele>336.79999999999995</ele><time>2026-04-25T08:49:09.999Z</time></trkpt><trkpt lat="45.76846901441699" lon="9.92791470188635"><ele>336.2</ele><time>2026-04-25T08:49:10.999Z</time></trkpt><trkpt lat="45.76838737718977" lon="9.927809125240001"><ele>335.6</ele><time>2026-04-25T08:49:11.999Z</time></trkpt><trkpt lat="45.76830089322451" lon="9.927712823027623"><ele>335.0</ele><time>2026-04-25T08:49:12.999Z</time></trkpt><trkpt lat="45.76820845563949" lon="9.927620915871728"><ele>337.25</ele><time>2026-04-25T08:49:13.999Z</time></trkpt><trkpt lat="45.768113592180484" lon="9.927534755476005"><ele>339.5</ele><time>2026-04-25T08:49:14.999Z</time></trkpt><trkpt lat="45.76801131894163" lon="9.92745595171285"><ele>341.75</ele><time>2026-04-25T08:49:15.999Z</time></trkpt><trkpt lat="45.76790397694067" lon="9.927379941981673"><ele>344.0</ele><time>2026-04-25T08:49:16.999Z</time></trkpt><trkpt lat="45.76779845523696" lon="9.92728936247215"><ele>342.5</ele><time>2026-04-25T08:49:17.999Z</time></trkpt><trkpt lat="45.76768346699033" lon="9.927224435250439"><ele>341.0</ele><time>2026-04-25T08:49:18.999Z</time></trkpt><trkpt lat="45.76756871373462" lon="9.927159640749348"><ele>339.5</ele><time>2026-04-25T08:49:19.999Z</time></trkpt><trkpt lat="45.76745367202353" lon="9.927095164187122"><ele>338.0</ele><time>2026-04-25T08:49:20.999Z</time></trkpt><trkpt lat="45.767326265951986" lon="9.927046970024168"><ele>338.0</ele><time>2026-04-25T08:49:21.999Z</time></trkpt><trkpt lat="45.767204736071946" lon="9.926974096986592"><ele>338.0</ele><time>2026-04-25T08:49:22.999Z</time></trkpt><trkpt lat="45.76708050095854" lon="9.926893404640554"><ele>338.0</ele><time>2026-04-25T08:49:23.999Z</time></trkpt><trkpt lat="45.76695734451661" lon="9.926805130758563"><ele>338.0</ele><time>2026-04-25T08:49:24.999Z</time></trkpt><trkpt lat="45.7668361284202" lon="9.926713825280697"><ele>338.4</ele><time>2026-04-25T08:49:25.999Z</time></trkpt><trkpt lat="45.766748698086786" lon="9.92671026641232"><ele>338.79999999999995</ele><time>2026-04-25T08:49:26.999Z</time></trkpt><trkpt lat="45.76663854759614" lon="9.926652653702954"><ele>339.2</ele><time>2026-04-25T08:49:27.999Z</time></trkpt><trkpt lat="45.76653275880921" lon="9.926592935356597"><ele>339.6</ele><time>2026-04-25T08:49:28.999Z</time></trkpt><trkpt lat="45.76643456569825" lon="9.926539321250914"><ele>340.0</ele><time>2026-04-25T08:49:29.999Z</time></trkpt><trkpt lat="45.766339021365994" lon="9.926482742165467"><ele>340.0</ele><time>2026-04-25T08:49:30.999Z</time></trkpt><trkpt lat="45.7662354311234" lon="9.926413683768116"><ele>340.0</ele><time>2026-04-25T08:49:31.999Z</time></trkpt><trkpt lat="45.76614509412008" lon="9.926313769709724"><ele>340.0</ele><time>2026-04-25T08:49:32.999Z</time></trkpt><trkpt lat="45.7660552841658" lon="9.926223997789196"><ele>340.0</ele><time>2026-04-25T08:49:33.999Z</time></trkpt><trkpt lat="45.76597497075316" lon="9.926121950050605"><ele>340.0</ele><time>2026-04-25T08:49:34.999Z</time></trkpt><trkpt lat="45.76590683971128" lon="9.92600573470845"><ele>339.8</ele><time>2026-04-25T08:49:35.999Z</time></trkpt><trkpt lat="45.76584850215286" lon="9.925885787269374"><ele>339.6</ele><time>2026-04-25T08:49:36.999Z</time></trkpt><trkpt lat="45.765800735846604" lon="9.925759052403427"><ele>339.4</ele><time>2026-04-25T08:49:37.999Z</time></trkpt><trkpt lat="45.76575996816244" lon="9.925615174889744"><ele>339.2</ele><time>2026-04-25T08:49:39Z</time></trkpt><trkpt lat="45.76572094998775" lon="9.925468692878365"><ele>339.0</ele><time>2026-04-25T08:49:40Z</time></trkpt><trkpt lat="45.76568102373813" lon="9.925310520063109"><ele>339.0</ele><time>2026-04-25T08:49:41Z</time></trkpt><trkpt lat="45.76564319192722" lon="9.925154387186737"><ele>339.0</ele><time>2026-04-25T08:49:42Z</time></trkpt><trkpt lat="45.76558994494707" lon="9.925016349089459"><ele>339.0</ele><time>2026-04-25T08:49:43Z</time></trkpt><trkpt lat="45.76555436311647" lon="9.92486494453859"><ele>339.0</ele><time>2026-04-25T08:49:44Z</time></trkpt><trkpt lat="45.76549810937792" lon="9.924722984406442"><ele>339.6666666666667</ele><time>2026-04-25T08:49:45Z</time></trkpt><trkpt lat="45.76541204896964" lon="9.924577786037345"><ele>340.33333333333337</ele><time>2026-04-25T08:49:46Z</time></trkpt><trkpt lat="45.76530791755593" lon="9.924399775548835"><ele>341.0</ele><time>2026-04-25T08:49:47Z</time></trkpt><trkpt lat="45.7651790649588" lon="9.924228438345965"><ele>339.75</ele><time>2026-04-25T08:49:48Z</time></trkpt><trkpt lat="45.765049899509194" lon="9.924077875119979"><ele>338.5</ele><time>2026-04-25T08:49:49Z</time></trkpt><trkpt lat="45.764949673387186" lon="9.923940541041489"><ele>337.25</ele><time>2026-04-25T08:49:50Z</time></trkpt><trkpt lat="45.76486315645398" lon="9.923832980838524"><ele>336.0</ele><time>2026-04-25T08:49:51Z</time></trkpt><trkpt lat="45.76479268288451" lon="9.9237404037287"><ele>336.0</ele><time>2026-04-25T08:49:52Z</time></trkpt><trkpt lat="45.76472664745939" lon="9.92365039277145"><ele>336.0</ele><time>2026-04-25T08:49:53Z</time></trkpt><trkpt lat="45.764655244644125" lon="9.92355697195886"><ele>336.0</ele><time>2026-04-25T08:49:54Z</time></trkpt><trkpt lat="45.76457875904852" lon="9.923458043074456"><ele>336.0</ele><time>2026-04-25T08:49:55Z</time></trkpt><trkpt lat="45.76449948436877" lon="9.92335533655758"><ele>336.0</ele><time>2026-04-25T08:49:56Z</time></trkpt><trkpt lat="45.76441889293293" lon="9.923244649119008"><ele>336.6</ele><time>2026-04-25T08:49:57Z</time></trkpt><trkpt lat="45.764337823104874" lon="9.923137154853272"><ele>337.20000000000005</ele><time>2026-04-25T08:49:58Z</time></trkpt><trkpt lat="45.76425961762241" lon="9.923028784789185"><ele>337.79999999999995</ele><time>2026-04-25T08:49:59Z</time></trkpt><trkpt lat="45.76418104232477" lon="9.922923851100219"><ele>338.4</ele><time>2026-04-25T08:50:00Z</time></trkpt><trkpt lat="45.764103758100866" lon="9.922828246869178"><ele>339.0</ele><time>2026-04-25T08:50:01Z</time></trkpt><trkpt lat="45.76403081367837" lon="9.922724053230413"><ele>339.0</ele><time>2026-04-25T08:50:02Z</time></trkpt><trkpt lat="45.763957292899654" lon="9.922622405501176"><ele>339.0</ele><time>2026-04-25T08:50:03Z</time></trkpt><trkpt lat="45.76388357791224" lon="9.922531232456395"><ele>339.0</ele><time>2026-04-25T08:50:04Z</time></trkpt><trkpt lat="45.76381195262362" lon="9.922439789898645"><ele>339.0</ele><time>2026-04-25T08:50:05Z</time></trkpt><trkpt lat="45.7637365779293" lon="9.92234657330588"><ele>339.0</ele><time>2026-04-25T08:50:06Z</time></trkpt><trkpt lat="45.76365886050986" lon="9.92224598587799"><ele>339.0</ele><time>2026-04-25T08:50:07Z</time></trkpt><trkpt lat="45.76358079384472" lon="9.922135484357067"><ele>339.0</ele><time>2026-04-25T08:50:08Z</time></trkpt><trkpt lat="45.76350174303296" lon="9.922029476571605"><ele>339.0</ele><time>2026-04-25T08:50:09Z</time></trkpt><trkpt lat="45.76342665184454" lon="9.921931538132737"><ele>339.0</ele><time>2026-04-25T08:50:10Z</time></trkpt><trkpt lat="45.763357302250036" lon="9.921847458689614"><ele>339.0</ele><time>2026-04-25T08:50:11Z</time></trkpt><trkpt lat="45.76330494489944" lon="9.921745236276026"><ele>339.5</ele><time>2026-04-25T08:50:12Z</time></trkpt><trkpt lat="45.76323820481025" lon="9.921656616515742"><ele>340.0</ele><time>2026-04-25T08:50:13Z</time></trkpt><trkpt lat="45.76317164289512" lon="9.921568233372271"><ele>340.5</ele><time>2026-04-25T08:50:14Z</time></trkpt><trkpt lat="45.76311070083102" lon="9.921487312523498"><ele>341.0</ele><time>2026-04-25T08:50:15Z</time></trkpt><trkpt lat="45.76306023632319" lon="9.921420438218412"><ele>341.5</ele><time>2026-04-25T08:50:16Z</time></trkpt><trkpt lat="45.763011410537416" lon="9.921353428141336"><ele>342.0</ele><time>2026-04-25T08:50:17Z</time></trkpt><trkpt lat="45.762957745333836" lon="9.921279774902322"><ele>342.0</ele><time>2026-04-25T08:50:18Z</time></trkpt><trkpt lat="45.762888997570265" lon="9.921185422860091"><ele>342.0</ele><time>2026-04-25T08:50:19Z</time></trkpt><trkpt lat="45.76281251499446" lon="9.921079287355978"><ele>342.0</ele><time>2026-04-25T08:50:20Z</time></trkpt><trkpt lat="45.76274147669031" lon="9.92098132341436"><ele>342.0</ele><time>2026-04-25T08:50:21Z</time></trkpt><trkpt lat="45.76268033471494" lon="9.920888490866723"><ele>342.0</ele><time>2026-04-25T08:50:22Z</time></trkpt><trkpt lat="45.76261869300165" lon="9.920814157989692"><ele>342.20000000000005</ele><time>2026-04-25T08:50:23Z</time></trkpt><trkpt lat="45.762567177919024" lon="9.920727566221176"><ele>342.4</ele><time>2026-04-25T08:50:24Z</time></trkpt><trkpt lat="45.76251878758357" lon="9.92060114095531"><ele>342.6</ele><time>2026-04-25T08:50:25Z</time></trkpt><trkpt lat="45.76243403417547" lon="9.920466978494995"><ele>342.79999999999995</ele><time>2026-04-25T08:50:26Z</time></trkpt><trkpt lat="45.76235595597365" lon="9.920295342233135"><ele>343.0</ele><time>2026-04-25T08:50:27Z</time></trkpt><trkpt lat="45.76227333796324" lon="9.92011377876524"><ele>343.66666666666663</ele><time>2026-04-25T08:50:28Z</time></trkpt><trkpt lat="45.762189944741415" lon="9.919924022305203"><ele>344.3333333333333</ele><time>2026-04-25T08:50:29Z</time></trkpt><trkpt lat="45.76210104599352" lon="9.919737404766598"><ele>345.0</ele><time>2026-04-25T08:50:30Z</time></trkpt><trkpt lat="45.762006354532325" lon="9.919544789238971"><ele>345.0</ele><time>2026-04-25T08:50:31Z</time></trkpt><trkpt lat="45.761911689406574" lon="9.919349132260642"><ele>345.0</ele><time>2026-04-25T08:50:32Z</time></trkpt><trkpt lat="45.76180265554521" lon="9.919161332908468"><ele>345.0</ele><time>2026-04-25T08:50:33Z</time></trkpt><trkpt lat="45.76168469475813" lon="9.918986951960814"><ele>344.3333333333333</ele><time>2026-04-25T08:50:34Z</time></trkpt><trkpt lat="45.761554578491904" lon="9.918836439204762"><ele>343.66666666666663</ele><time>2026-04-25T08:50:35Z</time></trkpt><trkpt lat="45.76142331229417" lon="9.918708464651779"><ele>343.0</ele><time>2026-04-25T08:50:35.999Z</time></trkpt><trkpt lat="45.76129608845236" lon="9.918607074830321"><ele>343.0</ele><time>2026-04-25T08:50:36.999Z</time></trkpt><trkpt lat="45.76117470235217" lon="9.918499330311898"><ele>343.0</ele><time>2026-04-25T08:50:37.999Z</time></trkpt><trkpt lat="45.76106968097153" lon="9.918386547206174"><ele>343.0</ele><time>2026-04-25T08:50:38.999Z</time></trkpt><trkpt lat="45.76097312682831" lon="9.918276221728508"><ele>343.0</ele><time>2026-04-25T08:50:39.999Z</time></trkpt><trkpt lat="45.760855259669185" lon="9.918221600774102"><ele>342.66666666666663</ele><time>2026-04-25T08:50:40.999Z</time></trkpt><trkpt lat="45.76071852426185" lon="9.91823602072577"><ele>342.3333333333333</ele><time>2026-04-25T08:50:41.999Z</time></trkpt><trkpt lat="45.760567512962496" lon="9.918212833420846"><ele>342.0</ele><time>2026-04-25T08:50:42.999Z</time></trkpt><trkpt lat="45.76038997903978" lon="9.918113157542983"><ele>342.3333333333333</ele><time>2026-04-25T08:50:43.999Z</time></trkpt><trkpt lat="45.76019079405569" lon="9.917992617553288"><ele>342.66666666666663</ele><time>2026-04-25T08:50:44.999Z</time></trkpt><trkpt lat="45.7599815690929" lon="9.91787820691978"><ele>343.0</ele><time>2026-04-25T08:50:45.999Z</time></trkpt><trkpt lat="45.759797859120575" lon="9.917704841858747"><ele>342.3333333333333</ele><time>2026-04-25T08:50:46.999Z</time></trkpt><trkpt lat="45.759639226865964" lon="9.917501953204729"><ele>341.6666666666667</ele><time>2026-04-25T08:50:47.999Z</time></trkpt><trkpt lat="45.75951131407878" lon="9.917250657721162"><ele>341.0</ele><time>2026-04-25T08:50:48.999Z</time></trkpt><trkpt lat="45.75939776928317" lon="9.916971752161912"><ele>339.5</ele><time>2026-04-25T08:50:49.999Z</time></trkpt><trkpt lat="45.75927964169686" lon="9.916683984308195"><ele>338.0</ele><time>2026-04-25T08:50:50.999Z</time></trkpt><trkpt lat="45.759175582798626" lon="9.916369892489959"><ele>338.0</ele><time>2026-04-25T08:50:51.999Z</time></trkpt><trkpt lat="45.759051307401386" lon="9.916046237174399"><ele>338.0</ele><time>2026-04-25T08:50:52.999Z</time></trkpt><trkpt lat="45.75892223722474" lon="9.91570663461727"><ele>338.0</ele><time>2026-04-25T08:50:53.999Z</time></trkpt><trkpt lat="45.75878355126572" lon="9.915340759299358"><ele>338.0</ele><time>2026-04-25T08:50:54.999Z</time></trkpt><trkpt lat="45.758642045409886" lon="9.914979957253479"><ele>337.0</ele><time>2026-04-25T08:50:55.999Z</time></trkpt><trkpt lat="45.75850494701257" lon="9.9146345183628"><ele>336.0</ele><time>2026-04-25T08:50:56.999Z</time></trkpt><trkpt lat="45.758344367836074" lon="9.914317895022188"><ele>336.0</ele><time>2026-04-25T08:50:57.999Z</time></trkpt><trkpt lat="45.758171310776305" lon="9.914031111642048"><ele>336.0</ele><time>2026-04-25T08:50:58.999Z</time></trkpt><trkpt lat="45.75798305500116" lon="9.913736527757509"><ele>336.0</ele><time>2026-04-25T08:50:59.999Z</time></trkpt><trkpt lat="45.75778431902428" lon="9.91346715817081"><ele>336.0</ele><time>2026-04-25T08:51:00.999Z</time></trkpt><trkpt lat="45.75757280305754" lon="9.913230484364991"><ele>335.5</ele><time>2026-04-25T08:51:01.999Z</time></trkpt><trkpt lat="45.757353597322684" lon="9.913027899513166"><ele>335.0</ele><time>2026-04-25T08:51:02.999Z</time></trkpt><trkpt lat="45.75712532277131" lon="9.912855928588082"><ele>335.0</ele><time>2026-04-25T08:51:03.999Z</time></trkpt><trkpt lat="45.75689647429188" lon="9.9127093940611"><ele>335.0</ele><time>2026-04-25T08:51:04.999Z</time></trkpt><trkpt lat="45.756683075266714" lon="9.912594612361158"><ele>335.6666666666667</ele><time>2026-04-25T08:51:05.999Z</time></trkpt><trkpt lat="45.75648167189003" lon="9.912511006760948"><ele>336.3333333333333</ele><time>2026-04-25T08:51:06.999Z</time></trkpt><trkpt lat="45.75628957994268" lon="9.912436614358604"><ele>337.0</ele><time>2026-04-25T08:51:07.999Z</time></trkpt><trkpt lat="45.756105358154514" lon="9.912385380959833"><ele>337.0</ele><time>2026-04-25T08:51:08.999Z</time></trkpt><trkpt lat="45.75593171354203" lon="9.912330870430386"><ele>337.0</ele><time>2026-04-25T08:51:09.999Z</time></trkpt><trkpt lat="45.755767312936555" lon="9.912276584889975"><ele>337.0</ele><time>2026-04-25T08:51:10.999Z</time></trkpt><trkpt lat="45.75561675570858" lon="9.912223325924495"><ele>337.0</ele><time>2026-04-25T08:51:11.999Z</time></trkpt><trkpt lat="45.75547541359654" lon="9.912162983335914"><ele>337.0</ele><time>2026-04-25T08:51:12.999Z</time></trkpt><trkpt lat="45.75534988990085" lon="9.91210250298103"><ele>337.0</ele><time>2026-04-25T08:51:13.999Z</time></trkpt><trkpt lat="45.75523631381309" lon="9.912034309103806"><ele>337.0</ele><time>2026-04-25T08:51:14.999Z</time></trkpt><trkpt lat="45.755135579623" lon="9.911967164908829"><ele>336.8</ele><time>2026-04-25T08:51:15.999Z</time></trkpt><trkpt lat="45.75504112179011" lon="9.911901984145397"><ele>336.6</ele><time>2026-04-25T08:51:16.999Z</time></trkpt><trkpt lat="45.75494935924261" lon="9.911828441067478"><ele>336.40000000000003</ele><time>2026-04-25T08:51:17.999Z</time></trkpt><trkpt lat="45.75485370108104" lon="9.911746272994971"><ele>336.20000000000005</ele><time>2026-04-25T08:51:18.999Z</time></trkpt><trkpt lat="45.75475679329831" lon="9.911658030829729"><ele>336.0</ele><time>2026-04-25T08:51:19.999Z</time></trkpt><trkpt lat="45.754660369426276" lon="9.911561361383669"><ele>335.75</ele><time>2026-04-25T08:51:20.999Z</time></trkpt><trkpt lat="45.754562693112334" lon="9.911455238053366"><ele>335.5</ele><time>2026-04-25T08:51:21.999Z</time></trkpt><trkpt lat="45.75446699396775" lon="9.911350060988575"><ele>335.25</ele><time>2026-04-25T08:51:22.999Z</time></trkpt><trkpt lat="45.75437731290389" lon="9.911251179619954"><ele>335.0</ele><time>2026-04-25T08:51:23.999Z</time></trkpt><trkpt lat="45.75429258750437" lon="9.911153551044213"><ele>335.0</ele><time>2026-04-25T08:51:24.999Z</time></trkpt><trkpt lat="45.75420822857033" lon="9.911056572435399"><ele>335.0</ele><time>2026-04-25T08:51:25.999Z</time></trkpt><trkpt lat="45.75412148204461" lon="9.91095825663251"><ele>335.0</ele><time>2026-04-25T08:51:26.999Z</time></trkpt><trkpt lat="45.754035865806074" lon="9.910861978703888"><ele>335.0</ele><time>2026-04-25T08:51:27.999Z</time></trkpt><trkpt lat="45.75394852956446" lon="9.91076145390971"><ele>335.0</ele><time>2026-04-25T08:51:28.999Z</time></trkpt><trkpt lat="45.75385988375495" lon="9.910661166621702"><ele>335.0</ele><time>2026-04-25T08:51:29.999Z</time></trkpt><trkpt lat="45.75377177788813" lon="9.910559075874993"><ele>335.0</ele><time>2026-04-25T08:51:30.999Z</time></trkpt><trkpt lat="45.753686016776214" lon="9.91045913716601"><ele>335.0</ele><time>2026-04-25T08:51:31.999Z</time></trkpt><trkpt lat="45.753602746495055" lon="9.910367196125547"><ele>335.0</ele><time>2026-04-25T08:51:32.999Z</time></trkpt><trkpt lat="45.753523643810986" lon="9.910280338795069"><ele>335.0</ele><time>2026-04-25T08:51:33.999Z</time></trkpt><trkpt lat="45.75344697799865" lon="9.910195464271544"><ele>335.0</ele><time>2026-04-25T08:51:34.999Z</time></trkpt><trkpt lat="45.75337063272381" lon="9.910110026535971"><ele>335.0</ele><time>2026-04-25T08:51:35.999Z</time></trkpt><trkpt lat="45.753292555220646" lon="9.910022773495594"><ele>335.0</ele><time>2026-04-25T08:51:36.999Z</time></trkpt><trkpt lat="45.75321196671128" lon="9.909934599344869"><ele>335.0</ele><time>2026-04-25T08:51:37.999Z</time></trkpt><trkpt lat="45.75313236549327" lon="9.909852987074165"><ele>335.0</ele><time>2026-04-25T08:51:38.999Z</time></trkpt><trkpt lat="45.753053951206795" lon="9.909769500994893"><ele>335.0</ele><time>2026-04-25T08:51:39.999Z</time></trkpt><trkpt lat="45.75297619613173" lon="9.909691324103484"><ele>335.0</ele><time>2026-04-25T08:51:40.999Z</time></trkpt><trkpt lat="45.752892041060285" lon="9.909613994075562"><ele>335.0</ele><time>2026-04-25T08:51:41.999Z</time></trkpt><trkpt lat="45.752802814099965" lon="9.9095418239349"><ele>335.0</ele><time>2026-04-25T08:51:42.999Z</time></trkpt><trkpt lat="45.752706228686286" lon="9.909479051130296"><ele>335.0</ele><time>2026-04-25T08:51:43.999Z</time></trkpt><trkpt lat="45.752607857464945" lon="9.909424918305072"><ele>335.2</ele><time>2026-04-25T08:51:45Z</time></trkpt><trkpt lat="45.7525112324906" lon="9.909374855195999"><ele>335.4</ele><time>2026-04-25T08:51:46Z</time></trkpt><trkpt lat="45.752417528426335" lon="9.909332171815405"><ele>335.6</ele><time>2026-04-25T08:51:47Z</time></trkpt><trkpt lat="45.75232248013058" lon="9.909295146995422"><ele>335.8</ele><time>2026-04-25T08:51:48Z</time></trkpt><trkpt lat="45.7522322171335" lon="9.909260182897983"><ele>336.0</ele><time>2026-04-25T08:51:49Z</time></trkpt><trkpt lat="45.752138953087204" lon="9.909226048775377"><ele>336.0</ele><time>2026-04-25T08:51:50Z</time></trkpt><trkpt lat="45.7520475592875" lon="9.90919425952169"><ele>336.0</ele><time>2026-04-25T08:51:51Z</time></trkpt><trkpt lat="45.75195283993519" lon="9.909158765048304"><ele>336.0</ele><time>2026-04-25T08:51:52Z</time></trkpt><trkpt lat="45.751863374991984" lon="9.90912360849541"><ele>336.0</ele><time>2026-04-25T08:51:53Z</time></trkpt><trkpt lat="45.75177569629558" lon="9.909091499365086"><ele>336.0</ele><time>2026-04-25T08:51:54Z</time></trkpt><trkpt lat="45.751686306850644" lon="9.909058242378455"><ele>336.20000000000005</ele><time>2026-04-25T08:51:55Z</time></trkpt><trkpt lat="45.751598164056134" lon="9.909022411409719"><ele>336.40000000000003</ele><time>2026-04-25T08:51:56Z</time></trkpt><trkpt lat="45.75150210168517" lon="9.90898629516387"><ele>336.6</ele><time>2026-04-25T08:51:57Z</time></trkpt><trkpt lat="45.75140745727055" lon="9.90895248296336"><ele>336.8</ele><time>2026-04-25T08:51:58Z</time></trkpt><trkpt lat="45.7513159129617" lon="9.908921131178372"><ele>337.0</ele><time>2026-04-25T08:51:59Z</time></trkpt><trkpt lat="45.75123289175252" lon="9.908889282091742"><ele>337.0</ele><time>2026-04-25T08:52:00Z</time></trkpt><trkpt lat="45.75116558796859" lon="9.908841325457178"><ele>337.0</ele><time>2026-04-25T08:52:01Z</time></trkpt><trkpt lat="45.75105103225245" lon="9.908819489601484"><ele>337.0</ele><time>2026-04-25T08:52:03Z</time></trkpt><trkpt lat="45.75097872540141" lon="9.908786091656399"><ele>337.0</ele><time>2026-04-25T08:52:04Z</time></trkpt><trkpt lat="45.75090420228952" lon="9.908747734525985"><ele>337.0</ele><time>2026-04-25T08:52:05Z</time></trkpt><trkpt lat="45.75081994304156" lon="9.908715321079892"><ele>337.0</ele><time>2026-04-25T08:52:06Z</time></trkpt><trkpt lat="45.75072758021867" lon="9.908686554600026"><ele>337.20000000000005</ele><time>2026-04-25T08:52:07Z</time></trkpt><trkpt lat="45.75062891292396" lon="9.908657748669789"><ele>337.4</ele><time>2026-04-25T08:52:08Z</time></trkpt><trkpt lat="45.75052519437278" lon="9.908627335156957"><ele>337.6</ele><time>2026-04-25T08:52:09Z</time></trkpt><trkpt lat="45.75041587706506" lon="9.908589569802894"><ele>337.79999999999995</ele><time>2026-04-25T08:52:10Z</time></trkpt><trkpt lat="45.75030568061833" lon="9.908544407610297"><ele>338.0</ele><time>2026-04-25T08:52:11Z</time></trkpt><trkpt lat="45.75019923092149" lon="9.908502383065018"><ele>338.0</ele><time>2026-04-25T08:52:12Z</time></trkpt><trkpt lat="45.750090971524166" lon="9.908465669707928"><ele>338.0</ele><time>2026-04-25T08:52:13Z</time></trkpt><trkpt lat="45.7499838845551" lon="9.908428563788274"><ele>338.0</ele><time>2026-04-25T08:52:14Z</time></trkpt><trkpt lat="45.74987885805725" lon="9.908393248737552"><ele>338.0</ele><time>2026-04-25T08:52:15Z</time></trkpt><trkpt lat="45.74977490435693" lon="9.90835731816065"><ele>338.0</ele><time>2026-04-25T08:52:16Z</time></trkpt><trkpt lat="45.749678836535324" lon="9.908325610371602"><ele>338.1666666666667</ele><time>2026-04-25T08:52:17Z</time></trkpt><trkpt lat="45.74958915385227" lon="9.90829793704614"><ele>338.33333333333337</ele><time>2026-04-25T08:52:18Z</time></trkpt><trkpt lat="45.74950407971232" lon="9.90828690272216"><ele>338.5</ele><time>2026-04-25T08:52:19Z</time></trkpt><trkpt lat="45.74942895703806" lon="9.908273521338685"><ele>338.6666666666667</ele><time>2026-04-25T08:52:20Z</time></trkpt><trkpt lat="45.749362849007404" lon="9.908259714350253"><ele>338.8333333333333</ele><time>2026-04-25T08:52:21Z</time></trkpt><trkpt lat="45.74928826919319" lon="9.90824888184886"><ele>339.0</ele><time>2026-04-25T08:52:22Z</time></trkpt><trkpt lat="45.7492069654644" lon="9.90823413008442"><ele>338.6666666666667</ele><time>2026-04-25T08:52:23Z</time></trkpt><trkpt lat="45.749119330569215" lon="9.908219592651578"><ele>338.3333333333333</ele><time>2026-04-25T08:52:24Z</time></trkpt><trkpt lat="45.74902435909914" lon="9.908199608401874"><ele>338.0</ele><time>2026-04-25T08:52:25Z</time></trkpt><trkpt lat="45.74892855886375" lon="9.908185752374076"><ele>337.66666666666663</ele><time>2026-04-25T08:52:26Z</time></trkpt><trkpt lat="45.74884163877471" lon="9.908181184034802"><ele>337.3333333333333</ele><time>2026-04-25T08:52:27Z</time></trkpt><trkpt lat="45.74876167069165" lon="9.90818052113276"><ele>337.0</ele><time>2026-04-25T08:52:28Z</time></trkpt><trkpt lat="45.748681064995324" lon="9.908182398000392"><ele>337.0</ele><time>2026-04-25T08:52:29Z</time></trkpt><trkpt lat="45.748595362692235" lon="9.908182156501507"><ele>337.0</ele><time>2026-04-25T08:52:30Z</time></trkpt><trkpt lat="45.74850224326485" lon="9.908176549047687"><ele>337.0</ele><time>2026-04-25T08:52:31Z</time></trkpt><trkpt lat="45.74840478638057" lon="9.908169885785025"><ele>337.0</ele><time>2026-04-25T08:52:32Z</time></trkpt><trkpt lat="45.74830446816586" lon="9.908163459627964"><ele>337.0</ele><time>2026-04-25T08:52:33Z</time></trkpt><trkpt lat="45.748201243643706" lon="9.90815938086994"><ele>336.6</ele><time>2026-04-25T08:52:34Z</time></trkpt><trkpt lat="45.74809439267996" lon="9.908155506233367"><ele>336.20000000000005</ele><time>2026-04-25T08:52:35Z</time></trkpt><trkpt lat="45.747984021412975" lon="9.908149995600777"><ele>335.8</ele><time>2026-04-25T08:52:36Z</time></trkpt><trkpt lat="45.74787129786862" lon="9.908143916518698"><ele>335.4</ele><time>2026-04-25T08:52:37Z</time></trkpt><trkpt lat="45.74775710408011" lon="9.908139766620808"><ele>335.0</ele><time>2026-04-25T08:52:38Z</time></trkpt><trkpt lat="45.74764873861628" lon="9.90813608022934"><ele>334.6</ele><time>2026-04-25T08:52:38.999Z</time></trkpt><trkpt lat="45.74754526065278" lon="9.908141251580503"><ele>334.2</ele><time>2026-04-25T08:52:39.999Z</time></trkpt><trkpt lat="45.74744205325863" lon="9.908156796394213"><ele>333.79999999999995</ele><time>2026-04-25T08:52:40.999Z</time></trkpt><trkpt lat="45.747336071902744" lon="9.90817950471765"><ele>333.4</ele><time>2026-04-25T08:52:41.999Z</time></trkpt><trkpt lat="45.747227092414946" lon="9.908208377010627"><ele>333.0</ele><time>2026-04-25T08:52:42.999Z</time></trkpt><trkpt lat="45.74711508125711" lon="9.908244985589072"><ele>333.0</ele><time>2026-04-25T08:52:43.999Z</time></trkpt><trkpt lat="45.74699842627263" lon="9.908289255161671"><ele>333.0</ele><time>2026-04-25T08:52:44.999Z</time></trkpt><trkpt lat="45.74687911560052" lon="9.908340733855205"><ele>333.0</ele><time>2026-04-25T08:52:45.999Z</time></trkpt><trkpt lat="45.74675802095756" lon="9.908394007165677"><ele>333.0</ele><time>2026-04-25T08:52:46.999Z</time></trkpt><trkpt lat="45.746638589762895" lon="9.908449087141594"><ele>332.5</ele><time>2026-04-25T08:52:47.999Z</time></trkpt><trkpt lat="45.74651667080158" lon="9.908506042843984"><ele>332.0</ele><time>2026-04-25T08:52:48.999Z</time></trkpt><trkpt lat="45.746394156052666" lon="9.908567170637031"><ele>331.5</ele><time>2026-04-25T08:52:49.999Z</time></trkpt><trkpt lat="45.74626389749553" lon="9.908626440427765"><ele>331.0</ele><time>2026-04-25T08:52:50.999Z</time></trkpt><trkpt lat="45.746128543515965" lon="9.90868520603208"><ele>331.0</ele><time>2026-04-25T08:52:51.999Z</time></trkpt><trkpt lat="45.74599390817151" lon="9.908746832304686"><ele>331.0</ele><time>2026-04-25T08:52:52.999Z</time></trkpt><trkpt lat="45.745856628852934" lon="9.908811817079897"><ele>331.0</ele><time>2026-04-25T08:52:53.999Z</time></trkpt><trkpt lat="45.74571682005705" lon="9.908875938165416"><ele>331.0</ele><time>2026-04-25T08:52:54.999Z</time></trkpt><trkpt lat="45.745576449022" lon="9.908937263907468"><ele>331.0</ele><time>2026-04-25T08:52:55.999Z</time></trkpt><trkpt lat="45.74543504201028" lon="9.908989020362986"><ele>331.0</ele><time>2026-04-25T08:52:56.999Z</time></trkpt><trkpt lat="45.74529306848539" lon="9.909027652963472"><ele>331.0</ele><time>2026-04-25T08:52:57.999Z</time></trkpt><trkpt lat="45.74515039875436" lon="9.909055714990359"><ele>331.0</ele><time>2026-04-25T08:52:58.999Z</time></trkpt><trkpt lat="45.74500784079908" lon="9.909070790919005"><ele>330.75</ele><time>2026-04-25T08:52:59.999Z</time></trkpt><trkpt lat="45.74486662662085" lon="9.909075455984127"><ele>330.5</ele><time>2026-04-25T08:53:00.999Z</time></trkpt><trkpt lat="45.744724320247116" lon="9.909072121799252"><ele>330.25</ele><time>2026-04-25T08:53:01.999Z</time></trkpt><trkpt lat="45.74458193805601" lon="9.909061071424786"><ele>330.0</ele><time>2026-04-25T08:53:02.999Z</time></trkpt><trkpt lat="45.744437921368316" lon="9.90904132586943"><ele>329.25</ele><time>2026-04-25T08:53:03.999Z</time></trkpt><trkpt lat="45.744293306591125" lon="9.90901116382274"><ele>328.5</ele><time>2026-04-25T08:53:04.999Z</time></trkpt><trkpt lat="45.744148967850776" lon="9.908967494929168"><ele>327.75</ele><time>2026-04-25T08:53:05.999Z</time></trkpt><trkpt lat="45.74400578641699" lon="9.908918003324874"><ele>327.0</ele><time>2026-04-25T08:53:06.999Z</time></trkpt><trkpt lat="45.74386264498438" lon="9.908863932583932"><ele>327.0</ele><time>2026-04-25T08:53:07.999Z</time></trkpt><trkpt lat="45.743719180119825" lon="9.908813517961123"><ele>327.0</ele><time>2026-04-25T08:53:08.999Z</time></trkpt><trkpt lat="45.74357322566007" lon="9.90876023936348"><ele>327.0</ele><time>2026-04-25T08:53:09.999Z</time></trkpt><trkpt lat="45.74342788496448" lon="9.90870488329834"><ele>327.0</ele><time>2026-04-25T08:53:10.999Z</time></trkpt><trkpt lat="45.7432814023001" lon="9.908649294293141"><ele>327.0</ele><time>2026-04-25T08:53:11.999Z</time></trkpt><trkpt lat="45.743135451536894" lon="9.908598557667393"><ele>327.0</ele><time>2026-04-25T08:53:12.999Z</time></trkpt><trkpt lat="45.742986958314965" lon="9.908545999406883"><ele>327.0</ele><time>2026-04-25T08:53:13.999Z</time></trkpt><trkpt lat="45.742839599835804" lon="9.908491656809504"><ele>326.3333333333333</ele><time>2026-04-25T08:53:14.999Z</time></trkpt><trkpt lat="45.742693173727346" lon="9.908436626539718"><ele>325.66666666666663</ele><time>2026-04-25T08:53:15.999Z</time></trkpt><trkpt lat="45.74254578294867" lon="9.908380133623503"><ele>325.0</ele><time>2026-04-25T08:53:16.999Z</time></trkpt><trkpt lat="45.74239879843758" lon="9.908323727523532"><ele>325.0</ele><time>2026-04-25T08:53:17.999Z</time></trkpt><trkpt lat="45.74225341325759" lon="9.908268390777401"><ele>325.0</ele><time>2026-04-25T08:53:18.999Z</time></trkpt><trkpt lat="45.742108184702445" lon="9.90821625102464"><ele>325.0</ele><time>2026-04-25T08:53:19.999Z</time></trkpt><trkpt lat="45.741966255327384" lon="9.908164220437666"><ele>325.0</ele><time>2026-04-25T08:53:20.999Z</time></trkpt><trkpt lat="45.7418278002443" lon="9.90811347992708"><ele>324.75</ele><time>2026-04-25T08:53:21.999Z</time></trkpt><trkpt lat="45.74169059910222" lon="9.908062585511496"><ele>324.5</ele><time>2026-04-25T08:53:22.999Z</time></trkpt><trkpt lat="45.741553972898" lon="9.90800994615942"><ele>324.25</ele><time>2026-04-25T08:53:23.999Z</time></trkpt><trkpt lat="45.74141488156768" lon="9.907952371196272"><ele>324.0</ele><time>2026-04-25T08:53:24.999Z</time></trkpt><trkpt lat="45.74127640770081" lon="9.907891379616837"><ele>324.0</ele><time>2026-04-25T08:53:25.999Z</time></trkpt><trkpt lat="45.741140016098264" lon="9.90782096205211"><ele>324.0</ele><time>2026-04-25T08:53:26.999Z</time></trkpt><trkpt lat="45.74100660911034" lon="9.907745795957496"><ele>324.0</ele><time>2026-04-25T08:53:27.999Z</time></trkpt><trkpt lat="45.74087891747063" lon="9.90766662187548"><ele>324.0</ele><time>2026-04-25T08:53:28.999Z</time></trkpt><trkpt lat="45.74075871692398" lon="9.907592319911334"><ele>323.5</ele><time>2026-04-25T08:53:29.999Z</time></trkpt><trkpt lat="45.740644248889566" lon="9.907520600737557"><ele>323.0</ele><time>2026-04-25T08:53:30.999Z</time></trkpt><trkpt lat="45.74053710350723" lon="9.907460016640714"><ele>322.5</ele><time>2026-04-25T08:53:31.999Z</time></trkpt><trkpt lat="45.740433281027876" lon="9.907398994871999"><ele>322.0</ele><time>2026-04-25T08:53:32.999Z</time></trkpt><trkpt lat="45.740336369987524" lon="9.907338628526341"><ele>322.0</ele><time>2026-04-25T08:53:33.999Z</time></trkpt><trkpt lat="45.740245128396325" lon="9.907281732436799"><ele>322.0</ele><time>2026-04-25T08:53:34.999Z</time></trkpt><trkpt lat="45.74016017560679" lon="9.907227001865685"><ele>322.0</ele><time>2026-04-25T08:53:35.999Z</time></trkpt><trkpt lat="45.740083433648614" lon="9.907172618320576"><ele>322.0</ele><time>2026-04-25T08:53:36.999Z</time></trkpt><trkpt lat="45.74001992600354" lon="9.90710593054094"><ele>322.0</ele><time>2026-04-25T08:53:37.999Z</time></trkpt><trkpt lat="45.73996904792886" lon="9.90703033039034"><ele>322.0</ele><time>2026-04-25T08:53:38.999Z</time></trkpt><trkpt lat="45.73992513226262" lon="9.9069519349214"><ele>322.0</ele><time>2026-04-25T08:53:39.999Z</time></trkpt><trkpt lat="45.73987883748905" lon="9.906884820331559"><ele>322.0</ele><time>2026-04-25T08:53:40.999Z</time></trkpt><trkpt lat="45.739756643451265" lon="9.906839034113421"><ele>322.0</ele><time>2026-04-25T08:53:42.999Z</time></trkpt><trkpt lat="45.7396839136436" lon="9.906851869007749"><ele>322.0</ele><time>2026-04-25T08:53:43.999Z</time></trkpt><trkpt lat="45.73960126732917" lon="9.906855642056497"><ele>322.0</ele><time>2026-04-25T08:53:44.999Z</time></trkpt><trkpt lat="45.7395074995847" lon="9.906829622285226"><ele>322.0</ele><time>2026-04-25T08:53:45.999Z</time></trkpt><trkpt lat="45.739405915957526" lon="9.906780717030534"><ele>321.25</ele><time>2026-04-25T08:53:46.999Z</time></trkpt><trkpt lat="45.73929949630274" lon="9.906719274877663"><ele>320.5</ele><time>2026-04-25T08:53:47.999Z</time></trkpt><trkpt lat="45.739199843825595" lon="9.906665692801086"><ele>319.75</ele><time>2026-04-25T08:53:48.999Z</time></trkpt><trkpt lat="45.739084070930176" lon="9.906585384332175"><ele>319.0</ele><time>2026-04-25T08:53:49.999Z</time></trkpt><trkpt lat="45.738957850697076" lon="9.906510379972103"><ele>319.0</ele><time>2026-04-25T08:53:51Z</time></trkpt><trkpt lat="45.738826879092706" lon="9.906407678537398"><ele>319.0</ele><time>2026-04-25T08:53:52Z</time></trkpt><trkpt lat="45.73868120929058" lon="9.906316817436744"><ele>319.0</ele><time>2026-04-25T08:53:53Z</time></trkpt><trkpt lat="45.73851961288269" lon="9.90625784605663"><ele>319.25</ele><time>2026-04-25T08:53:54Z</time></trkpt><trkpt lat="45.73836282073617" lon="9.9061881222106"><ele>319.5</ele><time>2026-04-25T08:53:55Z</time></trkpt><trkpt lat="45.738221586341524" lon="9.90613568757092"><ele>319.75</ele><time>2026-04-25T08:53:56Z</time></trkpt><trkpt lat="45.7380894841615" lon="9.906114019522194"><ele>320.0</ele><time>2026-04-25T08:53:57Z</time></trkpt><trkpt lat="45.73796742224443" lon="9.906104513335517"><ele>320.0</ele><time>2026-04-25T08:53:58Z</time></trkpt><trkpt lat="45.73784822285" lon="9.906095709191337"><ele>320.0</ele><time>2026-04-25T08:53:59Z</time></trkpt><trkpt lat="45.73772579103429" lon="9.906084937589828"><ele>320.0</ele><time>2026-04-25T08:54:00Z</time></trkpt><trkpt lat="45.7376072347738" lon="9.9060705404779"><ele>320.0</ele><time>2026-04-25T08:54:01Z</time></trkpt><trkpt lat="45.737488311815156" lon="9.906060703261721"><ele>319.6</ele><time>2026-04-25T08:54:02Z</time></trkpt><trkpt lat="45.73737161245211" lon="9.906047338312952"><ele>319.2</ele><time>2026-04-25T08:54:03Z</time></trkpt><trkpt lat="45.737256605620374" lon="9.906041619827972"><ele>318.8</ele><time>2026-04-25T08:54:04Z</time></trkpt><trkpt lat="45.73714742468037" lon="9.906038725015932"><ele>318.4</ele><time>2026-04-25T08:54:05Z</time></trkpt><trkpt lat="45.73704567957226" lon="9.906034554723378"><ele>318.0</ele><time>2026-04-25T08:54:06Z</time></trkpt><trkpt lat="45.736946575825925" lon="9.906028245814893"><ele>318.2</ele><time>2026-04-25T08:54:07Z</time></trkpt><trkpt lat="45.73684934432139" lon="9.906021218334216"><ele>318.4</ele><time>2026-04-25T08:54:08Z</time></trkpt><trkpt lat="45.73674674334003" lon="9.906013103231482"><ele>318.59999999999997</ele><time>2026-04-25T08:54:09Z</time></trkpt><trkpt lat="45.736634868292434" lon="9.906003491631475"><ele>318.8</ele><time>2026-04-25T08:54:10Z</time></trkpt><trkpt lat="45.73651899426865" lon="9.90599110034556"><ele>319.0</ele><time>2026-04-25T08:54:11Z</time></trkpt><trkpt lat="45.73639439454508" lon="9.90598184550845"><ele>319.0</ele><time>2026-04-25T08:54:12Z</time></trkpt><trkpt lat="45.73626468827067" lon="9.905971558313587"><ele>319.0</ele><time>2026-04-25T08:54:13Z</time></trkpt><trkpt lat="45.73613456065367" lon="9.905958296600149"><ele>319.0</ele><time>2026-04-25T08:54:14Z</time></trkpt><trkpt lat="45.73600908691282" lon="9.90594784143292"><ele>319.0</ele><time>2026-04-25T08:54:15Z</time></trkpt><trkpt lat="45.73589087229224" lon="9.9059337161042"><ele>318.75</ele><time>2026-04-25T08:54:16Z</time></trkpt><trkpt lat="45.73576979508874" lon="9.905947271182162"><ele>318.5</ele><time>2026-04-25T08:54:17Z</time></trkpt><trkpt lat="45.73566199390556" lon="9.90597896316265"><ele>318.25</ele><time>2026-04-25T08:54:18Z</time></trkpt><trkpt lat="45.73555662240378" lon="9.906027740634165"><ele>318.0</ele><time>2026-04-25T08:54:19Z</time></trkpt><trkpt lat="45.73545402369982" lon="9.906088562207245"><ele>318.0</ele><time>2026-04-25T08:54:20Z</time></trkpt><trkpt lat="45.73535070727312" lon="9.90616561233894"><ele>318.0</ele><time>2026-04-25T08:54:21Z</time></trkpt><trkpt lat="45.735252242791304" lon="9.906257498451547"><ele>318.0</ele><time>2026-04-25T08:54:22Z</time></trkpt><trkpt lat="45.7351517321145" lon="9.906360932157314"><ele>318.0</ele><time>2026-04-25T08:54:23Z</time></trkpt><trkpt lat="45.735053259861324" lon="9.906466498056313"><ele>317.5</ele><time>2026-04-25T08:54:24Z</time></trkpt><trkpt lat="45.734956418099785" lon="9.906576587719742"><ele>317.0</ele><time>2026-04-25T08:54:25Z</time></trkpt><trkpt lat="45.73486136243852" lon="9.906683833585936"><ele>316.5</ele><time>2026-04-25T08:54:26Z</time></trkpt><trkpt lat="45.73477123193501" lon="9.906784154257949"><ele>316.0</ele><time>2026-04-25T08:54:27Z</time></trkpt><trkpt lat="45.7346740876288" lon="9.906883022063115"><ele>316.0</ele><time>2026-04-25T08:54:28Z</time></trkpt><trkpt lat="45.73457300174548" lon="9.906963250373954"><ele>316.0</ele><time>2026-04-25T08:54:29Z</time></trkpt><trkpt lat="45.7344657150962" lon="9.90703702519628"><ele>316.0</ele><time>2026-04-25T08:54:30Z</time></trkpt><trkpt lat="45.73435119857111" lon="9.907097207741664"><ele>316.0</ele><time>2026-04-25T08:54:31Z</time></trkpt><trkpt lat="45.73423588166213" lon="9.907143853052672"><ele>316.0</ele><time>2026-04-25T08:54:32Z</time></trkpt><trkpt lat="45.734115189527174" lon="9.907180195879336"><ele>316.0</ele><time>2026-04-25T08:54:33Z</time></trkpt><trkpt lat="45.73398961483801" lon="9.907202922816309"><ele>316.0</ele><time>2026-04-25T08:54:34Z</time></trkpt><trkpt lat="45.73385675525396" lon="9.907212703605872"><ele>316.0</ele><time>2026-04-25T08:54:35Z</time></trkpt><trkpt lat="45.73372094206212" lon="9.907209352206255"><ele>316.0</ele><time>2026-04-25T08:54:35.999Z</time></trkpt><trkpt lat="45.73358275058197" lon="9.907197107845063"><ele>316.0</ele><time>2026-04-25T08:54:36.999Z</time></trkpt><trkpt lat="45.7334450620483" lon="9.907183528275702"><ele>316.0</ele><time>2026-04-25T08:54:37.999Z</time></trkpt><trkpt lat="45.733303430230556" lon="9.907167668696513"><ele>316.0</ele><time>2026-04-25T08:54:38.999Z</time></trkpt><trkpt lat="45.733162255402874" lon="9.90715251773449"><ele>315.25</ele><time>2026-04-25T08:54:39.999Z</time></trkpt><trkpt lat="45.733019746968864" lon="9.907135305436674"><ele>314.5</ele><time>2026-04-25T08:54:40.999Z</time></trkpt><trkpt lat="45.73287637552437" lon="9.9071227513654"><ele>313.75</ele><time>2026-04-25T08:54:41.999Z</time></trkpt><trkpt lat="45.73273632781687" lon="9.907105572718503"><ele>313.0</ele><time>2026-04-25T08:54:42.999Z</time></trkpt><trkpt lat="45.73259713233723" lon="9.907091672016382"><ele>312.75</ele><time>2026-04-25T08:54:43.999Z</time></trkpt><trkpt lat="45.73245205288514" lon="9.907074152207224"><ele>312.5</ele><time>2026-04-25T08:54:44.999Z</time></trkpt><trkpt lat="45.73231131901137" lon="9.907060602325505"><ele>312.25</ele><time>2026-04-25T08:54:45.999Z</time></trkpt><trkpt lat="45.73216996311052" lon="9.9070415994011"><ele>312.0</ele><time>2026-04-25T08:54:46.999Z</time></trkpt><trkpt lat="45.73202633458906" lon="9.9070274023026"><ele>312.0</ele><time>2026-04-25T08:54:47.999Z</time></trkpt><trkpt lat="45.73188856226681" lon="9.907003546685084"><ele>312.0</ele><time>2026-04-25T08:54:48.999Z</time></trkpt><trkpt lat="45.73175027949673" lon="9.90698391202001"><ele>312.0</ele><time>2026-04-25T08:54:49.999Z</time></trkpt><trkpt lat="45.73161467277657" lon="9.906964342010866"><ele>312.0</ele><time>2026-04-25T08:54:50.999Z</time></trkpt><trkpt lat="45.73148296816605" lon="9.906938385722258"><ele>312.0</ele><time>2026-04-25T08:54:51.999Z</time></trkpt><trkpt lat="45.731350727869284" lon="9.906903887848461"><ele>312.0</ele><time>2026-04-25T08:54:52.999Z</time></trkpt><trkpt lat="45.731223289384616" lon="9.906857535204546"><ele>312.0</ele><time>2026-04-25T08:54:53.999Z</time></trkpt><trkpt lat="45.731101166216554" lon="9.906800062750927"><ele>312.0</ele><time>2026-04-25T08:54:54.999Z</time></trkpt><trkpt lat="45.73098395584057" lon="9.906732788398337"><ele>312.0</ele><time>2026-04-25T08:54:55.999Z</time></trkpt><trkpt lat="45.73086746852361" lon="9.906650308760039"><ele>312.0</ele><time>2026-04-25T08:54:56.999Z</time></trkpt><trkpt lat="45.73075417192423" lon="9.906551467838662"><ele>312.0</ele><time>2026-04-25T08:54:57.999Z</time></trkpt><trkpt lat="45.730647758921656" lon="9.906439587001117"><ele>312.0</ele><time>2026-04-25T08:54:58.999Z</time></trkpt><trkpt lat="45.73054759946479" lon="9.906313924373222"><ele>312.0</ele><time>2026-04-25T08:54:59.999Z</time></trkpt><trkpt lat="45.73044974355872" lon="9.906185725706582"><ele>312.0</ele><time>2026-04-25T08:55:00.999Z</time></trkpt><trkpt lat="45.730362394783924" lon="9.906040972224384"><ele>312.0</ele><time>2026-04-25T08:55:01.999Z</time></trkpt><trkpt lat="45.73026585896649" lon="9.905898574035682"><ele>312.0</ele><time>2026-04-25T08:55:02.999Z</time></trkpt><trkpt lat="45.73017386277082" lon="9.905742423885279"><ele>311.75</ele><time>2026-04-25T08:55:03.999Z</time></trkpt><trkpt lat="45.73007719086508" lon="9.90559222676996"><ele>311.5</ele><time>2026-04-25T08:55:04.999Z</time></trkpt><trkpt lat="45.72998901941765" lon="9.90543351298789"><ele>311.25</ele><time>2026-04-25T08:55:05.999Z</time></trkpt><trkpt lat="45.7299022522088" lon="9.905279294274942"><ele>311.0</ele><time>2026-04-25T08:55:06.999Z</time></trkpt><trkpt lat="45.72981172832484" lon="9.90513739322917"><ele>311.25</ele><time>2026-04-25T08:55:07.999Z</time></trkpt><trkpt lat="45.72971918804226" lon="9.904997267801363"><ele>311.5</ele><time>2026-04-25T08:55:08.999Z</time></trkpt><trkpt lat="45.72962716291937" lon="9.904852767282405"><ele>311.75</ele><time>2026-04-25T08:55:09.999Z</time></trkpt><trkpt lat="45.72953440387479" lon="9.904704613793195"><ele>312.0</ele><time>2026-04-25T08:55:10.999Z</time></trkpt><trkpt lat="45.72943720188821" lon="9.904552123347887"><ele>311.3333333333333</ele><time>2026-04-25T08:55:11.999Z</time></trkpt><trkpt lat="45.72932523098452" lon="9.904383231215258"><ele>310.66666666666663</ele><time>2026-04-25T08:55:12.999Z</time></trkpt><trkpt lat="45.72920817425516" lon="9.904199488201796"><ele>310.0</ele><time>2026-04-25T08:55:13.999Z</time></trkpt><trkpt lat="45.729084977195335" lon="9.904005925703771"><ele>312.0</ele><time>2026-04-25T08:55:14.999Z</time></trkpt><trkpt lat="45.728961771803654" lon="9.903811399454506"><ele>314.0</ele><time>2026-04-25T08:55:15.999Z</time></trkpt><trkpt lat="45.728842122659685" lon="9.903617102430289"><ele>316.0</ele><time>2026-04-25T08:55:16.999Z</time></trkpt><trkpt lat="45.72872171783109" lon="9.903420423584476"><ele>317.0</ele><time>2026-04-25T08:55:17.999Z</time></trkpt><trkpt lat="45.72860091540058" lon="9.903231322804018"><ele>318.0</ele><time>2026-04-25T08:55:18.999Z</time></trkpt><trkpt lat="45.72847146180176" lon="9.903060657211164"><ele>319.0</ele><time>2026-04-25T08:55:19.999Z</time></trkpt><trkpt lat="45.728329051032695" lon="9.902913167188416"><ele>319.0</ele><time>2026-04-25T08:55:20.999Z</time></trkpt><trkpt lat="45.72817796547148" lon="9.902786480234582"><ele>319.0</ele><time>2026-04-25T08:55:21.999Z</time></trkpt><trkpt lat="45.728029173338996" lon="9.902667434100339"><ele>319.0</ele><time>2026-04-25T08:55:22.999Z</time></trkpt><trkpt lat="45.7278863088566" lon="9.902552460441829"><ele>317.3333333333333</ele><time>2026-04-25T08:55:23.999Z</time></trkpt><trkpt lat="45.727748373772286" lon="9.902432923414471"><ele>315.6666666666667</ele><time>2026-04-25T08:55:24.999Z</time></trkpt><trkpt lat="45.72760998674273" lon="9.902308514842991"><ele>314.0</ele><time>2026-04-25T08:55:25.999Z</time></trkpt><trkpt lat="45.72747742369041" lon="9.902187167768565"><ele>314.0</ele><time>2026-04-25T08:55:26.999Z</time></trkpt><trkpt lat="45.7273478949847" lon="9.902069463128603"><ele>314.0</ele><time>2026-04-25T08:55:27.999Z</time></trkpt><trkpt lat="45.72721993928087" lon="9.901957937258333"><ele>314.0</ele><time>2026-04-25T08:55:28.999Z</time></trkpt><trkpt lat="45.7270906965794" lon="9.901846431966842"><ele>314.0</ele><time>2026-04-25T08:55:29.999Z</time></trkpt><trkpt lat="45.72695610146207" lon="9.901749904697892"><ele>314.0</ele><time>2026-04-25T08:55:30.999Z</time></trkpt><trkpt lat="45.72681480666128" lon="9.901677450351812"><ele>314.0</ele><time>2026-04-25T08:55:31.999Z</time></trkpt><trkpt lat="45.72666941843077" lon="9.901623813869717"><ele>314.25</ele><time>2026-04-25T08:55:32.999Z</time></trkpt><trkpt lat="45.72652427500282" lon="9.901576323511986"><ele>314.5</ele><time>2026-04-25T08:55:33.999Z</time></trkpt><trkpt lat="45.72638134157802" lon="9.901531688397121"><ele>314.75</ele><time>2026-04-25T08:55:34.999Z</time></trkpt><trkpt lat="45.726238553659044" lon="9.901486946390595"><ele>315.0</ele><time>2026-04-25T08:55:35.999Z</time></trkpt><trkpt lat="45.726099325676444" lon="9.901443456482438"><ele>313.5</ele><time>2026-04-25T08:55:36.999Z</time></trkpt><trkpt lat="45.7259639399477" lon="9.901395853787639"><ele>312.0</ele><time>2026-04-25T08:55:37.999Z</time></trkpt><trkpt lat="45.7258321827223" lon="9.901331654678366"><ele>310.5</ele><time>2026-04-25T08:55:38.999Z</time></trkpt><trkpt lat="45.725701365281324" lon="9.901246133058754"><ele>309.0</ele><time>2026-04-25T08:55:39.999Z</time></trkpt><trkpt lat="45.72557150917105" lon="9.901146638247921"><ele>309.0</ele><time>2026-04-25T08:55:40.999Z</time></trkpt><trkpt lat="45.72543918902082" lon="9.901037029113013"><ele>309.0</ele><time>2026-04-25T08:55:41.999Z</time></trkpt><trkpt lat="45.72529338483027" lon="9.9009179475937"><ele>309.0</ele><time>2026-04-25T08:55:42.999Z</time></trkpt><trkpt lat="45.72512620482223" lon="9.900775051787747"><ele>308.0</ele><time>2026-04-25T08:55:43.999Z</time></trkpt><trkpt lat="45.72495579293405" lon="9.900614247039373"><ele>307.0</ele><time>2026-04-25T08:55:44.999Z</time></trkpt><trkpt lat="45.72478968207425" lon="9.900459665325183"><ele>306.0</ele><time>2026-04-25T08:55:45.999Z</time></trkpt><trkpt lat="45.724624697796834" lon="9.900313681543933"><ele>306.0</ele><time>2026-04-25T08:55:46.999Z</time></trkpt><trkpt lat="45.72445725535063" lon="9.900171089826289"><ele>306.0</ele><time>2026-04-25T08:55:47.999Z</time></trkpt><trkpt lat="45.72428934196629" lon="9.900023884909027"><ele>306.0</ele><time>2026-04-25T08:55:48.999Z</time></trkpt><trkpt lat="45.72411252554803" lon="9.899873890033936"><ele>305.3333333333333</ele><time>2026-04-25T08:55:49.999Z</time></trkpt><trkpt lat="45.723937465360805" lon="9.899726032540062"><ele>304.66666666666663</ele><time>2026-04-25T08:55:50.999Z</time></trkpt><trkpt lat="45.72376293613415" lon="9.899583415397972"><ele>304.0</ele><time>2026-04-25T08:55:51.999Z</time></trkpt><trkpt lat="45.723588921855495" lon="9.899436282345208"><ele>303.66666666666663</ele><time>2026-04-25T08:55:52.999Z</time></trkpt><trkpt lat="45.72341273745631" lon="9.899288121699646"><ele>303.3333333333333</ele><time>2026-04-25T08:55:53.999Z</time></trkpt><trkpt lat="45.72323913859365" lon="9.899136005940784"><ele>303.0</ele><time>2026-04-25T08:55:54.999Z</time></trkpt><trkpt lat="45.72306739922287" lon="9.898986385681416"><ele>303.0</ele><time>2026-04-25T08:55:56Z</time></trkpt><trkpt lat="45.72289616197003" lon="9.898841020417798"><ele>303.0</ele><time>2026-04-25T08:55:57Z</time></trkpt><trkpt lat="45.72272082646925" lon="9.898691051225976"><ele>303.0</ele><time>2026-04-25T08:55:58Z</time></trkpt><trkpt lat="45.72255251393509" lon="9.898546244624146"><ele>302.6666666666667</ele><time>2026-04-25T08:55:59Z</time></trkpt><trkpt lat="45.72239078738884" lon="9.898396895391484"><ele>302.33333333333337</ele><time>2026-04-25T08:56:00Z</time></trkpt><trkpt lat="45.72223901355103" lon="9.89823218403564"><ele>302.0</ele><time>2026-04-25T08:56:01Z</time></trkpt><trkpt lat="45.72209448490794" lon="9.898057730051631"><ele>302.0</ele><time>2026-04-25T08:56:02Z</time></trkpt><trkpt lat="45.721961907066266" lon="9.897868528493046"><ele>302.0</ele><time>2026-04-25T08:56:03Z</time></trkpt><trkpt lat="45.721839629301904" lon="9.897660662078572"><ele>302.0</ele><time>2026-04-25T08:56:04Z</time></trkpt><trkpt lat="45.721727441915114" lon="9.897437480534911"><ele>302.0</ele><time>2026-04-25T08:56:05Z</time></trkpt><trkpt lat="45.721621477863735" lon="9.897200292679061"><ele>302.0</ele><time>2026-04-25T08:56:06Z</time></trkpt><trkpt lat="45.72152679091192" lon="9.896952667435968"><ele>302.0</ele><time>2026-04-25T08:56:07Z</time></trkpt><trkpt lat="45.721448126027035" lon="9.896692733856785"><ele>302.0</ele><time>2026-04-25T08:56:08Z</time></trkpt><trkpt lat="45.72138155789125" lon="9.89642359491988"><ele>302.0</ele><time>2026-04-25T08:56:09Z</time></trkpt><trkpt lat="45.72132764826739" lon="9.896149701155386"><ele>302.0</ele><time>2026-04-25T08:56:10Z</time></trkpt><trkpt lat="45.72128881863883" lon="9.895873054673244"><ele>302.0</ele><time>2026-04-25T08:56:11Z</time></trkpt><trkpt lat="45.721260738279696" lon="9.895607179138878"><ele>302.0</ele><time>2026-04-25T08:56:12Z</time></trkpt><trkpt lat="45.721232757569766" lon="9.89535561688483"><ele>302.0</ele><time>2026-04-25T08:56:13Z</time></trkpt><trkpt lat="45.721204808809944" lon="9.895118756599828"><ele>301.6666666666667</ele><time>2026-04-25T08:56:14Z</time></trkpt><trkpt lat="45.72117234128905" lon="9.894896638016629"><ele>301.3333333333333</ele><time>2026-04-25T08:56:15Z</time></trkpt><trkpt lat="45.72113440923108" lon="9.894682615325783"><ele>301.0</ele><time>2026-04-25T08:56:16Z</time></trkpt><trkpt lat="45.72108872184419" lon="9.894477253282913"><ele>301.0</ele><time>2026-04-25T08:56:17Z</time></trkpt><trkpt lat="45.72103785485882" lon="9.894284094790951"><ele>301.0</ele><time>2026-04-25T08:56:18Z</time></trkpt><trkpt lat="45.720985293907404" lon="9.894098508801"><ele>301.0</ele><time>2026-04-25T08:56:19Z</time></trkpt><trkpt lat="45.72092886744229" lon="9.893921527671116"><ele>301.0</ele><time>2026-04-25T08:56:20Z</time></trkpt><trkpt lat="45.720871714232814" lon="9.893758883740313"><ele>301.0</ele><time>2026-04-25T08:56:21Z</time></trkpt><trkpt lat="45.72081254752295" lon="9.893604635916"><ele>301.0</ele><time>2026-04-25T08:56:22Z</time></trkpt><trkpt lat="45.720754557719715" lon="9.89344370779841"><ele>301.0</ele><time>2026-04-25T08:56:23Z</time></trkpt><trkpt lat="45.72070295013505" lon="9.893278940018845"><ele>301.0</ele><time>2026-04-25T08:56:24Z</time></trkpt><trkpt lat="45.72065019232161" lon="9.893114795286849"><ele>301.0</ele><time>2026-04-25T08:56:25Z</time></trkpt><trkpt lat="45.72060633967186" lon="9.892950653473022"><ele>301.0</ele><time>2026-04-25T08:56:26Z</time></trkpt><trkpt lat="45.720571151703304" lon="9.892794622462407"><ele>301.0</ele><time>2026-04-25T08:56:27Z</time></trkpt><trkpt lat="45.72053569874116" lon="9.892648949599382"><ele>301.0</ele><time>2026-04-25T08:56:28Z</time></trkpt><trkpt lat="45.720501662265264" lon="9.892512036766332"><ele>301.0</ele><time>2026-04-25T08:56:29Z</time></trkpt><trkpt lat="45.720464218221586" lon="9.892371587370056"><ele>301.75</ele><time>2026-04-25T08:56:30Z</time></trkpt><trkpt lat="45.72041973880243" lon="9.892230222811182"><ele>302.5</ele><time>2026-04-25T08:56:31Z</time></trkpt><trkpt lat="45.720373456483095" lon="9.892082613906872"><ele>303.25</ele><time>2026-04-25T08:56:32Z</time></trkpt><trkpt lat="45.72032724042096" lon="9.891927132378417"><ele>304.0</ele><time>2026-04-25T08:56:33Z</time></trkpt><trkpt lat="45.72028123939435" lon="9.891759639966939"><ele>301.25</ele><time>2026-04-25T08:56:33.999Z</time></trkpt><trkpt lat="45.72023163339585" lon="9.891590224760538"><ele>298.5</ele><time>2026-04-25T08:56:34.999Z</time></trkpt><trkpt lat="45.720178668945756" lon="9.891416997963992"><ele>295.75</ele><time>2026-04-25T08:56:35.999Z</time></trkpt><trkpt lat="45.7201267198994" lon="9.891243960034505"><ele>293.0</ele><time>2026-04-25T08:56:36.999Z</time></trkpt><trkpt lat="45.72006984411305" lon="9.891074426159253"><ele>293.75</ele><time>2026-04-25T08:56:37.999Z</time></trkpt><trkpt lat="45.720002789369644" lon="9.89090903950221"><ele>294.5</ele><time>2026-04-25T08:56:38.999Z</time></trkpt><trkpt lat="45.71993050863283" lon="9.89075478841913"><ele>295.25</ele><time>2026-04-25T08:56:39.999Z</time></trkpt><trkpt lat="45.71985819860652" lon="9.890620929110556"><ele>296.0</ele><time>2026-04-25T08:56:40.999Z</time></trkpt><trkpt lat="45.71978932775168" lon="9.890496650096141"><ele>296.0</ele><time>2026-04-25T08:56:41.999Z</time></trkpt><trkpt lat="45.719720738074955" lon="9.89037925236288"><ele>296.0</ele><time>2026-04-25T08:56:42.999Z</time></trkpt><trkpt lat="45.7196507350763" lon="9.890266522768641"><ele>296.0</ele><time>2026-04-25T08:56:43.999Z</time></trkpt><trkpt lat="45.71957923822056" lon="9.89015301597757"><ele>296.0</ele><time>2026-04-25T08:56:44.999Z</time></trkpt><trkpt lat="45.719507292573226" lon="9.890042543625084"><ele>296.0</ele><time>2026-04-25T08:56:45.999Z</time></trkpt><trkpt lat="45.71943756948515" lon="9.889938083980375"><ele>295.33333333333337</ele><time>2026-04-25T08:56:46.999Z</time></trkpt><trkpt lat="45.71937069219682" lon="9.889840338943628"><ele>294.6666666666667</ele><time>2026-04-25T08:56:47.999Z</time></trkpt><trkpt lat="45.719305890637195" lon="9.889751989198535"><ele>294.0</ele><time>2026-04-25T08:56:48.999Z</time></trkpt><trkpt lat="45.71924362999846" lon="9.88966995341243"><ele>293.3333333333333</ele><time>2026-04-25T08:56:49.999Z</time></trkpt><trkpt lat="45.71917842198739" lon="9.889584520149844"><ele>292.66666666666663</ele><time>2026-04-25T08:56:50.999Z</time></trkpt><trkpt lat="45.719117274461944" lon="9.889506366481022"><ele>292.0</ele><time>2026-04-25T08:56:51.999Z</time></trkpt><trkpt lat="45.71906704353583" lon="9.889408087593031"><ele>292.0</ele><time>2026-04-25T08:56:52.999Z</time></trkpt><trkpt lat="45.719014769764904" lon="9.889301457684914"><ele>292.0</ele><time>2026-04-25T08:56:53.999Z</time></trkpt><trkpt lat="45.71894693793871" lon="9.889200882808844"><ele>292.0</ele><time>2026-04-25T08:56:54.999Z</time></trkpt><trkpt lat="45.71886850800739" lon="9.88911054629848"><ele>292.0</ele><time>2026-04-25T08:56:55.999Z</time></trkpt><trkpt lat="45.71878497234623" lon="9.889005938352433"><ele>292.0</ele><time>2026-04-25T08:56:56.999Z</time></trkpt><trkpt lat="45.71870771614568" lon="9.888889559882152"><ele>292.0</ele><time>2026-04-25T08:56:57.999Z</time></trkpt><trkpt lat="45.71863105903978" lon="9.888773609156981"><ele>292.0</ele><time>2026-04-25T08:56:58.999Z</time></trkpt><trkpt lat="45.71855151845213" lon="9.888652987558912"><ele>292.0</ele><time>2026-04-25T08:56:59.999Z</time></trkpt><trkpt lat="45.71847017111834" lon="9.88852871157889"><ele>292.0</ele><time>2026-04-25T08:57:00.999Z</time></trkpt><trkpt lat="45.71838625356557" lon="9.888403198076453"><ele>292.0</ele><time>2026-04-25T08:57:01.999Z</time></trkpt><trkpt lat="45.718298022418566" lon="9.888271162444228"><ele>292.0</ele><time>2026-04-25T08:57:02.999Z</time></trkpt><trkpt lat="45.71820889812481" lon="9.888137145196264"><ele>292.0</ele><time>2026-04-25T08:57:03.999Z</time></trkpt><trkpt lat="45.718118689963525" lon="9.88800009842501"><ele>292.0</ele><time>2026-04-25T08:57:04.999Z</time></trkpt><trkpt lat="45.718027278971384" lon="9.887866035746253"><ele>292.0</ele><time>2026-04-25T08:57:05.999Z</time></trkpt><trkpt lat="45.71793758968674" lon="9.887729352175413"><ele>292.0</ele><time>2026-04-25T08:57:06.999Z</time></trkpt><trkpt lat="45.71784643454095" lon="9.887586846384021"><ele>292.0</ele><time>2026-04-25T08:57:07.999Z</time></trkpt><trkpt lat="45.71775494335461" lon="9.887439811261709"><ele>292.0</ele><time>2026-04-25T08:57:08.999Z</time></trkpt><trkpt lat="45.71766161673643" lon="9.887292581299624"><ele>292.0</ele><time>2026-04-25T08:57:09.999Z</time></trkpt><trkpt lat="45.71756916056676" lon="9.887142989206168"><ele>292.0</ele><time>2026-04-25T08:57:10.999Z</time></trkpt><trkpt lat="45.71747784797771" lon="9.886994735535575"><ele>292.0</ele><time>2026-04-25T08:57:11.999Z</time></trkpt><trkpt lat="45.71738830891104" lon="9.886848719198557"><ele>292.0</ele><time>2026-04-25T08:57:12.999Z</time></trkpt><trkpt lat="45.71729877098319" lon="9.886702738075206"><ele>292.0</ele><time>2026-04-25T08:57:13.999Z</time></trkpt><trkpt lat="45.71720920041516" lon="9.88655937825824"><ele>292.0</ele><time>2026-04-25T08:57:14.999Z</time></trkpt><trkpt lat="45.71711927347773" lon="9.886419722934201"><ele>292.0</ele><time>2026-04-25T08:57:15.999Z</time></trkpt><trkpt lat="45.717031419593184" lon="9.88628298807229"><ele>292.0</ele><time>2026-04-25T08:57:16.999Z</time></trkpt><trkpt lat="45.716946350197496" lon="9.886143435678783"><ele>291.25</ele><time>2026-04-25T08:57:17.999Z</time></trkpt><trkpt lat="45.71686026952721" lon="9.886000957002297"><ele>290.5</ele><time>2026-04-25T08:57:18.999Z</time></trkpt><trkpt lat="45.716775424866356" lon="9.885855590415849"><ele>289.75</ele><time>2026-04-25T08:57:19.999Z</time></trkpt><trkpt lat="45.7166907871557" lon="9.885713774166083"><ele>289.0</ele><time>2026-04-25T08:57:20.999Z</time></trkpt><trkpt lat="45.71660656084665" lon="9.885575564352902"><ele>289.0</ele><time>2026-04-25T08:57:21.999Z</time></trkpt><trkpt lat="45.71652369891276" lon="9.885438960763599"><ele>289.0</ele><time>2026-04-25T08:57:22.999Z</time></trkpt><trkpt lat="45.71644176173736" lon="9.885306252131624"><ele>289.0</ele><time>2026-04-25T08:57:23.999Z</time></trkpt><trkpt lat="45.716359438364" lon="9.885173533876845"><ele>289.0</ele><time>2026-04-25T08:57:24.999Z</time></trkpt><trkpt lat="45.71627436944295" lon="9.885051539394773"><ele>289.5</ele><time>2026-04-25T08:57:25.999Z</time></trkpt><trkpt lat="45.71618490114994" lon="9.884889549782068"><ele>290.0</ele><time>2026-04-25T08:57:26.999Z</time></trkpt><trkpt lat="45.71609052815705" lon="9.884744027828777"><ele>290.5</ele><time>2026-04-25T08:57:27.999Z</time></trkpt><trkpt lat="45.71599670198958" lon="9.884593877745038"><ele>291.0</ele><time>2026-04-25T08:57:28.999Z</time></trkpt><trkpt lat="45.71590248088986" lon="9.884446137545442"><ele>290.0</ele><time>2026-04-25T08:57:29.999Z</time></trkpt><trkpt lat="45.71580750481952" lon="9.884294381516744"><ele>289.0</ele><time>2026-04-25T08:57:30.999Z</time></trkpt><trkpt lat="45.715712584517284" lon="9.884140621887452"><ele>288.0</ele><time>2026-04-25T08:57:31.999Z</time></trkpt><trkpt lat="45.71561373483277" lon="9.883986362835557"><ele>287.0</ele><time>2026-04-25T08:57:32.999Z</time></trkpt><trkpt lat="45.71551384989426" lon="9.883830393406422"><ele>287.0</ele><time>2026-04-25T08:57:33.999Z</time></trkpt><trkpt lat="45.715415847557544" lon="9.883672306511697"><ele>287.0</ele><time>2026-04-25T08:57:34.999Z</time></trkpt><trkpt lat="45.71531732321085" lon="9.883506041929113"><ele>287.0</ele><time>2026-04-25T08:57:35.999Z</time></trkpt><trkpt lat="45.71521441377964" lon="9.883339822197408"><ele>285.33333333333337</ele><time>2026-04-25T08:57:36.999Z</time></trkpt><trkpt lat="45.715113057994486" lon="9.883175712169749"><ele>283.6666666666667</ele><time>2026-04-25T08:57:37.999Z</time></trkpt><trkpt lat="45.71500855578009" lon="9.883015179595997"><ele>282.0</ele><time>2026-04-25T08:57:38.999Z</time></trkpt><trkpt lat="45.71490596426183" lon="9.882848849410177"><ele>282.0</ele><time>2026-04-25T08:57:39.999Z</time></trkpt><trkpt lat="45.714809203287615" lon="9.882694782586709"><ele>282.0</ele><time>2026-04-25T08:57:40.999Z</time></trkpt><trkpt lat="45.714713689832074" lon="9.88254438394815"><ele>282.0</ele><time>2026-04-25T08:57:41.999Z</time></trkpt><trkpt lat="45.714623445977296" lon="9.882393082599215"><ele>282.0</ele><time>2026-04-25T08:57:42.999Z</time></trkpt><trkpt lat="45.71453338060539" lon="9.882247011472245"><ele>282.0</ele><time>2026-04-25T08:57:43.999Z</time></trkpt><trkpt lat="45.71444477096597" lon="9.882099520348152"><ele>282.0</ele><time>2026-04-25T08:57:44.999Z</time></trkpt><trkpt lat="45.714356249384714" lon="9.881956005245122"><ele>282.0</ele><time>2026-04-25T08:57:45.999Z</time></trkpt><trkpt lat="45.714264007298056" lon="9.881806851393662"><ele>282.0</ele><time>2026-04-25T08:57:46.999Z</time></trkpt><trkpt lat="45.71417323838909" lon="9.88166141470308"><ele>282.0</ele><time>2026-04-25T08:57:47.999Z</time></trkpt><trkpt lat="45.71408240187265" lon="9.88151682502473"><ele>282.0</ele><time>2026-04-25T08:57:48.999Z</time></trkpt><trkpt lat="45.71399398986778" lon="9.881364959332476"><ele>282.0</ele><time>2026-04-25T08:57:49.999Z</time></trkpt><trkpt lat="45.71390500576088" lon="9.881215873626955"><ele>282.0</ele><time>2026-04-25T08:57:50.999Z</time></trkpt><trkpt lat="45.713813321750465" lon="9.881061245621398"><ele>282.0</ele><time>2026-04-25T08:57:51.999Z</time></trkpt><trkpt lat="45.71372557276116" lon="9.88090025747698"><ele>282.0</ele><time>2026-04-25T08:57:52.999Z</time></trkpt><trkpt lat="45.71363982006056" lon="9.88073485422243"><ele>282.0</ele><time>2026-04-25T08:57:53.999Z</time></trkpt><trkpt lat="45.71354996111413" lon="9.880569069578671"><ele>282.0</ele><time>2026-04-25T08:57:54.999Z</time></trkpt><trkpt lat="45.71346195584584" lon="9.880407259298433"><ele>282.0</ele><time>2026-04-25T08:57:55.999Z</time></trkpt><trkpt lat="45.71337080381277" lon="9.880241067989342"><ele>282.0</ele><time>2026-04-25T08:57:56.999Z</time></trkpt><trkpt lat="45.71327829561223" lon="9.88007712804625"><ele>282.0</ele><time>2026-04-25T08:57:57.999Z</time></trkpt><trkpt lat="45.71319001837736" lon="9.879908178769705"><ele>282.0</ele><time>2026-04-25T08:57:58.999Z</time></trkpt><trkpt lat="45.71310137045391" lon="9.879740214472134"><ele>282.0</ele><time>2026-04-25T08:57:59.999Z</time></trkpt><trkpt lat="45.713016200384544" lon="9.879573925167552"><ele>282.0</ele><time>2026-04-25T08:58:00.999Z</time></trkpt><trkpt lat="45.712920819237205" lon="9.879409810600276"><ele>282.0</ele><time>2026-04-25T08:58:02Z</time></trkpt><trkpt lat="45.712831674707054" lon="9.8792491138049"><ele>282.0</ele><time>2026-04-25T08:58:03Z</time></trkpt><trkpt lat="45.712744519840534" lon="9.879089530218664"><ele>281.5</ele><time>2026-04-25T08:58:04Z</time></trkpt><trkpt lat="45.712656169921175" lon="9.878930967125498"><ele>281.0</ele><time>2026-04-25T08:58:05Z</time></trkpt><trkpt lat="45.71256813643585" lon="9.878773920162466"><ele>280.5</ele><time>2026-04-25T08:58:06Z</time></trkpt><trkpt lat="45.71247919506011" lon="9.878613128322943"><ele>280.0</ele><time>2026-04-25T08:58:07Z</time></trkpt><trkpt lat="45.71239711111658" lon="9.878457819521804"><ele>280.25</ele><time>2026-04-25T08:58:08Z</time></trkpt><trkpt lat="45.71231256347592" lon="9.878298951412436"><ele>280.5</ele><time>2026-04-25T08:58:09Z</time></trkpt><trkpt lat="45.71223071269127" lon="9.878145204984135"><ele>280.75</ele><time>2026-04-25T08:58:10Z</time></trkpt><trkpt lat="45.712149803878575" lon="9.878004034215943"><ele>281.0</ele><time>2026-04-25T08:58:11Z</time></trkpt><trkpt lat="45.712068820535606" lon="9.877852633911212"><ele>281.0</ele><time>2026-04-25T08:58:12Z</time></trkpt><trkpt lat="45.711987987260436" lon="9.87770671530505"><ele>281.0</ele><time>2026-04-25T08:58:13Z</time></trkpt><trkpt lat="45.71190585856422" lon="9.877561624896282"><ele>281.0</ele><time>2026-04-25T08:58:14Z</time></trkpt><trkpt lat="45.71182523270768" lon="9.8774126375164"><ele>281.0</ele><time>2026-04-25T08:58:15Z</time></trkpt><trkpt lat="45.711740814327435" lon="9.877260621952795"><ele>280.0</ele><time>2026-04-25T08:58:16Z</time></trkpt><trkpt lat="45.711654568896094" lon="9.87710309351586"><ele>279.0</ele><time>2026-04-25T08:58:17Z</time></trkpt><trkpt lat="45.71156804271106" lon="9.876954098698931"><ele>278.0</ele><time>2026-04-25T08:58:18Z</time></trkpt><trkpt lat="45.71147704443769" lon="9.876807578472913"><ele>277.0</ele><time>2026-04-25T08:58:19Z</time></trkpt><trkpt lat="45.711371478950504" lon="9.876658054488196"><ele>277.0</ele><time>2026-04-25T08:58:20Z</time></trkpt><trkpt lat="45.71125190491421" lon="9.87649890079867"><ele>277.0</ele><time>2026-04-25T08:58:21Z</time></trkpt><trkpt lat="45.71113690741373" lon="9.876328251348593"><ele>277.0</ele><time>2026-04-25T08:58:22Z</time></trkpt><trkpt lat="45.71101573731923" lon="9.876173410925169"><ele>276.75</ele><time>2026-04-25T08:58:23Z</time></trkpt><trkpt lat="45.71089734135131" lon="9.876022909790146"><ele>276.5</ele><time>2026-04-25T08:58:24Z</time></trkpt><trkpt lat="45.710789085922634" lon="9.875890964620679"><ele>276.25</ele><time>2026-04-25T08:58:25Z</time></trkpt><trkpt lat="45.71067482363084" lon="9.875779439673794"><ele>276.0</ele><time>2026-04-25T08:58:26Z</time></trkpt><trkpt lat="45.71057870839223" lon="9.875657079824988"><ele>276.0</ele><time>2026-04-25T08:58:27Z</time></trkpt><trkpt lat="45.7104961454102" lon="9.875545460078149"><ele>276.0</ele><time>2026-04-25T08:58:27.999Z</time></trkpt><trkpt lat="45.71042462990355" lon="9.875447666704465"><ele>276.0</ele><time>2026-04-25T08:58:28.999Z</time></trkpt><trkpt lat="45.71035996031841" lon="9.875345292726216"><ele>276.0</ele><time>2026-04-25T08:58:29.999Z</time></trkpt><trkpt lat="45.710286798645846" lon="9.875238241554873"><ele>276.0</ele><time>2026-04-25T08:58:30.999Z</time></trkpt><trkpt lat="45.710211049464746" lon="9.875117435021924"><ele>275.75</ele><time>2026-04-25T08:58:31.999Z</time></trkpt><trkpt lat="45.710141802245246" lon="9.874965585901036"><ele>275.5</ele><time>2026-04-25T08:58:32.999Z</time></trkpt><trkpt lat="45.710055716061646" lon="9.874812493296863"><ele>275.25</ele><time>2026-04-25T08:58:33.999Z</time></trkpt><trkpt lat="45.70997482747417" lon="9.874668643852582"><ele>275.0</ele><time>2026-04-25T08:58:34.999Z</time></trkpt><trkpt lat="45.70988907896315" lon="9.874546462970779"><ele>275.0</ele><time>2026-04-25T08:58:35.999Z</time></trkpt><trkpt lat="45.709813277016806" lon="9.87440800883596"><ele>275.0</ele><time>2026-04-25T08:58:36.999Z</time></trkpt><trkpt lat="45.70973924730338" lon="9.874269742233189"><ele>275.0</ele><time>2026-04-25T08:58:37.999Z</time></trkpt><trkpt lat="45.70966331667387" lon="9.874134747275741"><ele>275.0</ele><time>2026-04-25T08:58:38.999Z</time></trkpt><trkpt lat="45.70958937776808" lon="9.87399370964612"><ele>275.0</ele><time>2026-04-25T08:58:39.999Z</time></trkpt><trkpt lat="45.70951250076316" lon="9.873853779385959"><ele>275.0</ele><time>2026-04-25T08:58:40.999Z</time></trkpt><trkpt lat="45.70943056379784" lon="9.873715452668659"><ele>275.0</ele><time>2026-04-25T08:58:41.999Z</time></trkpt><trkpt lat="45.70935137497507" lon="9.873570144036453"><ele>275.0</ele><time>2026-04-25T08:58:42.999Z</time></trkpt><trkpt lat="45.709272430698" lon="9.873419747559145"><ele>275.0</ele><time>2026-04-25T08:58:43.999Z</time></trkpt><trkpt lat="45.709194659242385" lon="9.87327039560671"><ele>275.0</ele><time>2026-04-25T08:58:44.999Z</time></trkpt><trkpt lat="45.70911816888725" lon="9.873123618433315"><ele>275.0</ele><time>2026-04-25T08:58:45.999Z</time></trkpt><trkpt lat="45.70904309532661" lon="9.872988141170712"><ele>275.0</ele><time>2026-04-25T08:58:46.999Z</time></trkpt><trkpt lat="45.7089694845917" lon="9.872854641112236"><ele>275.0</ele><time>2026-04-25T08:58:47.999Z</time></trkpt><trkpt lat="45.70889056498792" lon="9.872716984505432"><ele>275.0</ele><time>2026-04-25T08:58:48.999Z</time></trkpt><trkpt lat="45.70880622864657" lon="9.872581283513876"><ele>275.0</ele><time>2026-04-25T08:58:49.999Z</time></trkpt><trkpt lat="45.70871554325969" lon="9.872446860151943"><ele>275.0</ele><time>2026-04-25T08:58:50.999Z</time></trkpt><trkpt lat="45.70862230880898" lon="9.872322096364675"><ele>274.75</ele><time>2026-04-25T08:58:51.999Z</time></trkpt><trkpt lat="45.70852601320734" lon="9.872197589174142"><ele>274.5</ele><time>2026-04-25T08:58:52.999Z</time></trkpt><trkpt lat="45.708430560350656" lon="9.872079815641275"><ele>274.25</ele><time>2026-04-25T08:58:53.999Z</time></trkpt><trkpt lat="45.70833366049859" lon="9.87196076092829"><ele>274.0</ele><time>2026-04-25T08:58:54.999Z</time></trkpt><trkpt lat="45.708236346990525" lon="9.871845902089756"><ele>274.0</ele><time>2026-04-25T08:58:55.999Z</time></trkpt><trkpt lat="45.708141524087885" lon="9.871726955024844"><ele>274.0</ele><time>2026-04-25T08:58:56.999Z</time></trkpt><trkpt lat="45.70804983637875" lon="9.87160414542288"><ele>274.0</ele><time>2026-04-25T08:58:57.999Z</time></trkpt><trkpt lat="45.7079643151849" lon="9.871484943524152"><ele>274.0</ele><time>2026-04-25T08:58:58.999Z</time></trkpt><trkpt lat="45.70788130510017" lon="9.871361209534903"><ele>274.0</ele><time>2026-04-25T08:58:59.999Z</time></trkpt><trkpt lat="45.707802317167726" lon="9.871232801361453"><ele>274.0</ele><time>2026-04-25T08:59:00.999Z</time></trkpt><trkpt lat="45.70772984811286" lon="9.871098599419977"><ele>274.0</ele><time>2026-04-25T08:59:01.999Z</time></trkpt><trkpt lat="45.70765578592183" lon="9.870970401959514"><ele>274.0</ele><time>2026-04-25T08:59:02.999Z</time></trkpt><trkpt lat="45.707587801745774" lon="9.870824207234284"><ele>274.0</ele><time>2026-04-25T08:59:03.999Z</time></trkpt><trkpt lat="45.70751811347751" lon="9.870673829088489"><ele>274.0</ele><time>2026-04-25T08:59:04.999Z</time></trkpt><trkpt lat="45.70744879808214" lon="9.870520500711626"><ele>274.0</ele><time>2026-04-25T08:59:05.999Z</time></trkpt><trkpt lat="45.707385572472" lon="9.870352959956548"><ele>274.0</ele><time>2026-04-25T08:59:06.999Z</time></trkpt><trkpt lat="45.70732271484518" lon="9.87018156880635"><ele>273.75</ele><time>2026-04-25T08:59:07.999Z</time></trkpt><trkpt lat="45.70726484663125" lon="9.870008574976145"><ele>273.5</ele><time>2026-04-25T08:59:08.999Z</time></trkpt><trkpt lat="45.707214447620146" lon="9.869828606379091"><ele>273.25</ele><time>2026-04-25T08:59:09.999Z</time></trkpt><trkpt lat="45.70716823414194" lon="9.869648274702449"><ele>273.0</ele><time>2026-04-25T08:59:10.999Z</time></trkpt><trkpt lat="45.70713094766923" lon="9.869466301148979"><ele>273.5</ele><time>2026-04-25T08:59:11.999Z</time></trkpt><trkpt lat="45.70710826233801" lon="9.869275345990559"><ele>274.0</ele><time>2026-04-25T08:59:12.999Z</time></trkpt><trkpt lat="45.707054324090635" lon="9.869087187951314"><ele>274.5</ele><time>2026-04-25T08:59:13.999Z</time></trkpt><trkpt lat="45.70701557772569" lon="9.868878693192524"><ele>275.0</ele><time>2026-04-25T08:59:14.999Z</time></trkpt><trkpt lat="45.70697324939785" lon="9.86864728035975"><ele>275.33333333333337</ele><time>2026-04-25T08:59:15.999Z</time></trkpt><trkpt lat="45.70692932406219" lon="9.868412960139356"><ele>275.6666666666667</ele><time>2026-04-25T08:59:16.999Z</time></trkpt><trkpt lat="45.70688376433821" lon="9.868182700034806"><ele>276.0</ele><time>2026-04-25T08:59:17.999Z</time></trkpt><trkpt lat="45.70683893612748" lon="9.867945386279953"><ele>274.0</ele><time>2026-04-25T08:59:18.999Z</time></trkpt><trkpt lat="45.70678728075262" lon="9.86770732504552"><ele>272.0</ele><time>2026-04-25T08:59:19.999Z</time></trkpt><trkpt lat="45.70674261781319" lon="9.867464640475186"><ele>270.0</ele><time>2026-04-25T08:59:20.999Z</time></trkpt><trkpt lat="45.70669432540383" lon="9.867218414113358"><ele>270.0</ele><time>2026-04-25T08:59:21.999Z</time></trkpt><trkpt lat="45.706638890982184" lon="9.866969088460165"><ele>270.0</ele><time>2026-04-25T08:59:22.999Z</time></trkpt><trkpt lat="45.706601183698005" lon="9.866705211733997"><ele>270.0</ele><time>2026-04-25T08:59:23.999Z</time></trkpt><trkpt lat="45.70653571110932" lon="9.866445768495927"><ele>270.0</ele><time>2026-04-25T08:59:24.999Z</time></trkpt><trkpt lat="45.70649547945604" lon="9.866168703872518"><ele>270.0</ele><time>2026-04-25T08:59:25.999Z</time></trkpt><trkpt lat="45.706459822431185" lon="9.865882022134187"><ele>270.0</ele><time>2026-04-25T08:59:26.999Z</time></trkpt><trkpt lat="45.70642587648492" lon="9.865599882905762"><ele>270.3333333333333</ele><time>2026-04-25T08:59:27.999Z</time></trkpt><trkpt lat="45.706396770030935" lon="9.865312423358159"><ele>270.66666666666663</ele><time>2026-04-25T08:59:28.999Z</time></trkpt><trkpt lat="45.70636921988567" lon="9.865025921166158"><ele>271.0</ele><time>2026-04-25T08:59:29.999Z</time></trkpt><trkpt lat="45.70634069128278" lon="9.864747836484185"><ele>271.0</ele><time>2026-04-25T08:59:30.999Z</time></trkpt><trkpt lat="45.70631122037231" lon="9.864465487394508"><ele>271.0</ele><time>2026-04-25T08:59:31.999Z</time></trkpt><trkpt lat="45.7062834801233" lon="9.864189298274006"><ele>271.0</ele><time>2026-04-25T08:59:32.999Z</time></trkpt><trkpt lat="45.70625537949932" lon="9.863910382230605"><ele>270.66666666666663</ele><time>2026-04-25T08:59:33.999Z</time></trkpt><trkpt lat="45.70622464946017" lon="9.863621370031058"><ele>270.3333333333333</ele><time>2026-04-25T08:59:34.999Z</time></trkpt><trkpt lat="45.706192536446714" lon="9.863336225775841"><ele>270.0</ele><time>2026-04-25T08:59:35.999Z</time></trkpt><trkpt lat="45.70616110264913" lon="9.863049040480623"><ele>270.6666666666667</ele><time>2026-04-25T08:59:36.999Z</time></trkpt><trkpt lat="45.706128485282505" lon="9.862756037732542"><ele>271.33333333333337</ele><time>2026-04-25T08:59:37.999Z</time></trkpt><trkpt lat="45.70609660978202" lon="9.862462562520186"><ele>272.0</ele><time>2026-04-25T08:59:38.999Z</time></trkpt><trkpt lat="45.70606565199039" lon="9.862171012381259"><ele>269.6666666666667</ele><time>2026-04-25T08:59:39.999Z</time></trkpt><trkpt lat="45.70603372888564" lon="9.861878587992495"><ele>267.3333333333333</ele><time>2026-04-25T08:59:40.999Z</time></trkpt><trkpt lat="45.706001408277096" lon="9.861588309212404"><ele>265.0</ele><time>2026-04-25T08:59:41.999Z</time></trkpt><trkpt lat="45.70597119507185" lon="9.861299695177232"><ele>264.3333333333333</ele><time>2026-04-25T08:59:42.999Z</time></trkpt><trkpt lat="45.70593826167745" lon="9.861013112892993"><ele>263.6666666666667</ele><time>2026-04-25T08:59:43.999Z</time></trkpt><trkpt lat="45.705895862179446" lon="9.860731665972628"><ele>263.0</ele><time>2026-04-25T08:59:44.999Z</time></trkpt><trkpt lat="45.70582853958537" lon="9.860462406836364"><ele>263.0</ele><time>2026-04-25T08:59:45.999Z</time></trkpt><trkpt lat="45.705735953491384" lon="9.860198718789782"><ele>263.0</ele><time>2026-04-25T08:59:46.999Z</time></trkpt><trkpt lat="45.70563535749289" lon="9.859943388415264"><ele>263.0</ele><time>2026-04-25T08:59:47.999Z</time></trkpt><trkpt lat="45.70552742492983" lon="9.859689555885074"><ele>262.6666666666667</ele><time>2026-04-25T08:59:48.999Z</time></trkpt><trkpt lat="45.70541650289452" lon="9.859441415508728"><ele>262.3333333333333</ele><time>2026-04-25T08:59:49.999Z</time></trkpt><trkpt lat="45.70529268919598" lon="9.859211706734733"><ele>262.0</ele><time>2026-04-25T08:59:50.999Z</time></trkpt><trkpt lat="45.70514594305075" lon="9.85901683769058"><ele>262.0</ele><time>2026-04-25T08:59:51.999Z</time></trkpt><trkpt lat="45.70498455263278" lon="9.858860348252387"><ele>262.0</ele><time>2026-04-25T08:59:52.999Z</time></trkpt><trkpt lat="45.70480348899832" lon="9.858751567336993"><ele>262.0</ele><time>2026-04-25T08:59:53.999Z</time></trkpt><trkpt lat="45.70461900467031" lon="9.858676855111494"><ele>262.0</ele><time>2026-04-25T08:59:54.999Z</time></trkpt><trkpt lat="45.70443710092929" lon="9.858627002154233"><ele>262.0</ele><time>2026-04-25T08:59:55.999Z</time></trkpt><trkpt lat="45.704261198737754" lon="9.858574974026446"><ele>262.0</ele><time>2026-04-25T08:59:56.999Z</time></trkpt><trkpt lat="45.70408915961034" lon="9.85851493278883"><ele>262.0</ele><time>2026-04-25T08:59:57.999Z</time></trkpt><trkpt lat="45.70391376439206" lon="9.858448101184333"><ele>262.0</ele><time>2026-04-25T08:59:58.999Z</time></trkpt><trkpt lat="45.70374047739906" lon="9.858389777553493"><ele>262.0</ele><time>2026-04-25T08:59:59.999Z</time></trkpt><trkpt lat="45.703565745611" lon="9.858338894470826"><ele>263.3333333333333</ele><time>2026-04-25T09:00:00.999Z</time></trkpt><trkpt lat="45.703392307883725" lon="9.85832364088478"><ele>264.6666666666667</ele><time>2026-04-25T09:00:01.999Z</time></trkpt><trkpt lat="45.703230844158945" lon="9.858321351712794"><ele>266.0</ele><time>2026-04-25T09:00:02.999Z</time></trkpt><trkpt lat="45.703084178974514" lon="9.858317596477741"><ele>266.0</ele><time>2026-04-25T09:00:03.998Z</time></trkpt><trkpt lat="45.702955788194515" lon="9.858289532669017"><ele>266.0</ele><time>2026-04-25T09:00:04.998Z</time></trkpt><trkpt lat="45.70284600461182" lon="9.858270245666082"><ele>266.0</ele><time>2026-04-25T09:00:05.998Z</time></trkpt><trkpt lat="45.702756532277775" lon="9.85828610502149"><ele>266.0</ele><time>2026-04-25T09:00:06.999Z</time></trkpt><trkpt lat="45.7026851271767" lon="9.858355218639637"><ele>266.0</ele><time>2026-04-25T09:00:07.999Z</time></trkpt><trkpt lat="45.70264183964729" lon="9.8584709600141"><ele>265.0</ele><time>2026-04-25T09:00:08.999Z</time></trkpt><trkpt lat="45.70263510734667" lon="9.858597271594109"><ele>264.0</ele><time>2026-04-25T09:00:09.999Z</time></trkpt><trkpt lat="45.70264394002369" lon="9.858724180605856"><ele>263.0</ele><time>2026-04-25T09:00:10.999Z</time></trkpt><trkpt lat="45.70263406287677" lon="9.858840017522597"><ele>262.0</ele><time>2026-04-25T09:00:11.999Z</time></trkpt><trkpt lat="45.70260141239408" lon="9.858928814933877"><ele>261.0</ele><time>2026-04-25T09:00:12.999Z</time></trkpt><trkpt lat="45.70256019090412" lon="9.859005383772349"><ele>260.0</ele><time>2026-04-25T09:00:13.999Z</time></trkpt><trkpt lat="45.70250171486471" lon="9.859059868363607"><ele>260.0</ele><time>2026-04-25T09:00:14.999Z</time></trkpt><trkpt lat="45.702437158787895" lon="9.85909358382438"><ele>260.0</ele><time>2026-04-25T09:00:15.999Z</time></trkpt><trkpt lat="45.70236559802706" lon="9.859113604392324"><ele>260.0</ele><time>2026-04-25T09:00:16.999Z</time></trkpt><trkpt lat="45.70227853795658" lon="9.859126065792022"><ele>260.0</ele><time>2026-04-25T09:00:17.999Z</time></trkpt><trkpt lat="45.7021768209215" lon="9.859131880312814"><ele>260.0</ele><time>2026-04-25T09:00:18.999Z</time></trkpt><trkpt lat="45.70207009247112" lon="9.859136366923268"><ele>260.0</ele><time>2026-04-25T09:00:19.999Z</time></trkpt><trkpt lat="45.7019583856581" lon="9.859144634806125"><ele>259.6</ele><time>2026-04-25T09:00:20.999Z</time></trkpt><trkpt lat="45.70185491717319" lon="9.859149000427223"><ele>259.2</ele><time>2026-04-25T09:00:21.999Z</time></trkpt><trkpt lat="45.701751856048766" lon="9.859154967278453"><ele>258.8</ele><time>2026-04-25T09:00:22.999Z</time></trkpt><trkpt lat="45.701649092078995" lon="9.859160133335276"><ele>258.4</ele><time>2026-04-25T09:00:23.999Z</time></trkpt><trkpt lat="45.701549245060235" lon="9.859162494658435"><ele>258.0</ele><time>2026-04-25T09:00:24.999Z</time></trkpt><trkpt lat="45.701447713596295" lon="9.859167885352116"><ele>258.0</ele><time>2026-04-25T09:00:25.999Z</time></trkpt><trkpt lat="45.70134512743699" lon="9.859160381114117"><ele>258.0</ele><time>2026-04-25T09:00:26.999Z</time></trkpt><trkpt lat="45.70124192532589" lon="9.85913375663475"><ele>258.0</ele><time>2026-04-25T09:00:27.999Z</time></trkpt><trkpt lat="45.701140946006895" lon="9.859096908968343"><ele>258.0</ele><time>2026-04-25T09:00:28.999Z</time></trkpt><trkpt lat="45.701046396751956" lon="9.859052830359031"><ele>258.0</ele><time>2026-04-25T09:00:29.999Z</time></trkpt><trkpt lat="45.70095811246441" lon="9.859005512852576"><ele>258.0</ele><time>2026-04-25T09:00:30.999Z</time></trkpt><trkpt lat="45.700875883451175" lon="9.858950351871092"><ele>258.0</ele><time>2026-04-25T09:00:31.999Z</time></trkpt><trkpt lat="45.70079289150875" lon="9.858884024112733"><ele>258.0</ele><time>2026-04-25T09:00:32.999Z</time></trkpt><trkpt lat="45.700710314458554" lon="9.858808803874513"><ele>258.0</ele><time>2026-04-25T09:00:33.999Z</time></trkpt><trkpt lat="45.70062686823873" lon="9.858726469964116"><ele>258.0</ele><time>2026-04-25T09:00:34.999Z</time></trkpt><trkpt lat="45.70054518460926" lon="9.858633559273974"><ele>258.0</ele><time>2026-04-25T09:00:35.999Z</time></trkpt><trkpt lat="45.70045813512828" lon="9.858532053333755"><ele>258.0</ele><time>2026-04-25T09:00:36.999Z</time></trkpt><trkpt lat="45.70036819690828" lon="9.858423280580327"><ele>258.0</ele><time>2026-04-25T09:00:37.999Z</time></trkpt><trkpt lat="45.7002751162402" lon="9.858311959585835"><ele>258.0</ele><time>2026-04-25T09:00:38.999Z</time></trkpt><trkpt lat="45.70017911754715" lon="9.858199280017887"><ele>257.75</ele><time>2026-04-25T09:00:39.999Z</time></trkpt><trkpt lat="45.700084015323874" lon="9.85808716202133"><ele>257.5</ele><time>2026-04-25T09:00:40.999Z</time></trkpt><trkpt lat="45.69998771582925" lon="9.857974364827692"><ele>257.25</ele><time>2026-04-25T09:00:41.999Z</time></trkpt><trkpt lat="45.69989021638849" lon="9.857857938106664"><ele>257.0</ele><time>2026-04-25T09:00:42.999Z</time></trkpt><trkpt lat="45.69978640038511" lon="9.857738433436232"><ele>257.0</ele><time>2026-04-25T09:00:43.999Z</time></trkpt><trkpt lat="45.69967749236997" lon="9.857608744083613"><ele>257.0</ele><time>2026-04-25T09:00:44.999Z</time></trkpt><trkpt lat="45.699568156523306" lon="9.857477937663917"><ele>257.0</ele><time>2026-04-25T09:00:45.999Z</time></trkpt><trkpt lat="45.699460168300845" lon="9.85735023238971"><ele>257.0</ele><time>2026-04-25T09:00:46.999Z</time></trkpt><trkpt lat="45.699353656247865" lon="9.857222647096618"><ele>256.75</ele><time>2026-04-25T09:00:47.999Z</time></trkpt><trkpt lat="45.6992460295354" lon="9.857093581446211"><ele>256.5</ele><time>2026-04-25T09:00:48.999Z</time></trkpt><trkpt lat="45.69913754946659" lon="9.856965960129752"><ele>256.25</ele><time>2026-04-25T09:00:49.999Z</time></trkpt><trkpt lat="45.699027713714145" lon="9.856841072145274"><ele>256.0</ele><time>2026-04-25T09:00:50.999Z</time></trkpt><trkpt lat="45.69892084464316" lon="9.856712726943828"><ele>256.0</ele><time>2026-04-25T09:00:51.999Z</time></trkpt><trkpt lat="45.698818783946194" lon="9.856583417833956"><ele>256.0</ele><time>2026-04-25T09:00:52.999Z</time></trkpt><trkpt lat="45.698715954466074" lon="9.856453464355665"><ele>256.0</ele><time>2026-04-25T09:00:53.999Z</time></trkpt><trkpt lat="45.69860533898943" lon="9.856331357154264"><ele>256.0</ele><time>2026-04-25T09:00:54.999Z</time></trkpt><trkpt lat="45.69849102833747" lon="9.85620730225973"><ele>256.0</ele><time>2026-04-25T09:00:55.999Z</time></trkpt><trkpt lat="45.69838029854376" lon="9.856073007568604"><ele>256.0</ele><time>2026-04-25T09:00:56.999Z</time></trkpt><trkpt lat="45.69826780193458" lon="9.855941874098502"><ele>256.0</ele><time>2026-04-25T09:00:57.999Z</time></trkpt><trkpt lat="45.698155164005065" lon="9.855823109146737"><ele>256.0</ele><time>2026-04-25T09:00:58.999Z</time></trkpt><trkpt lat="45.69804049972783" lon="9.855708212456811"><ele>255.75</ele><time>2026-04-25T09:00:59.999Z</time></trkpt><trkpt lat="45.697926287585254" lon="9.855588422940377"><ele>255.5</ele><time>2026-04-25T09:01:00.999Z</time></trkpt><trkpt lat="45.69780950740875" lon="9.85547321685417"><ele>255.25</ele><time>2026-04-25T09:01:01.999Z</time></trkpt><trkpt lat="45.69769172367631" lon="9.855354209529223"><ele>255.0</ele><time>2026-04-25T09:01:02.999Z</time></trkpt><trkpt lat="45.69757260894209" lon="9.855233313136408"><ele>255.5</ele><time>2026-04-25T09:01:03.999Z</time></trkpt><trkpt lat="45.69745216933978" lon="9.855110520207225"><ele>256.0</ele><time>2026-04-25T09:01:04.999Z</time></trkpt><trkpt lat="45.6973295721444" lon="9.854986381092623"><ele>256.5</ele><time>2026-04-25T09:01:05.999Z</time></trkpt><trkpt lat="45.69720629423873" lon="9.85486220731345"><ele>257.0</ele><time>2026-04-25T09:01:06.999Z</time></trkpt><trkpt lat="45.69708372296081" lon="9.854742925656828"><ele>257.0</ele><time>2026-04-25T09:01:07.999Z</time></trkpt><trkpt lat="45.69696282700302" lon="9.85462326088254"><ele>257.0</ele><time>2026-04-25T09:01:08.999Z</time></trkpt><trkpt lat="45.69684069796306" lon="9.854496754019198"><ele>257.0</ele><time>2026-04-25T09:01:09.999Z</time></trkpt><trkpt lat="45.69671942193386" lon="9.854361263822447"><ele>257.0</ele><time>2026-04-25T09:01:10.999Z</time></trkpt><trkpt lat="45.69659818105523" lon="9.854219323663964"><ele>257.0</ele><time>2026-04-25T09:01:11.999Z</time></trkpt><trkpt lat="45.69648043896869" lon="9.854073197270608"><ele>257.0</ele><time>2026-04-25T09:01:12.999Z</time></trkpt><trkpt lat="45.69636807703564" lon="9.853925162903241"><ele>257.0</ele><time>2026-04-25T09:01:13.999Z</time></trkpt><trkpt lat="45.69626315859057" lon="9.853783835730269"><ele>257.0</ele><time>2026-04-25T09:01:14.999Z</time></trkpt><trkpt lat="45.69617204790124" lon="9.853661267455026"><ele>257.0</ele><time>2026-04-25T09:01:15.999Z</time></trkpt><trkpt lat="45.696087428377325" lon="9.853549292054737"><ele>257.0</ele><time>2026-04-25T09:01:16.999Z</time></trkpt><trkpt lat="45.69600790319538" lon="9.853443762812587"><ele>256.5</ele><time>2026-04-25T09:01:17.999Z</time></trkpt><trkpt lat="45.69593962873682" lon="9.853352862297685"><ele>256.0</ele><time>2026-04-25T09:01:18.999Z</time></trkpt><trkpt lat="45.69588128833078" lon="9.853275592296837"><ele>255.5</ele><time>2026-04-25T09:01:19.999Z</time></trkpt><trkpt lat="45.69582966784892" lon="9.853207814743888"><ele>255.0</ele><time>2026-04-25T09:01:20.999Z</time></trkpt><trkpt lat="45.69574139880889" lon="9.853094545787402"><ele>254.50000000000003</ele><time>2026-04-25T09:01:22.999Z</time></trkpt><trkpt lat="45.695683505732305" lon="9.853023119402724"><ele>254.0</ele><time>2026-04-25T09:01:24.999Z</time></trkpt><trkpt lat="45.69563700498822" lon="9.852958240530613"><ele>254.0</ele><time>2026-04-25T09:01:47.999Z</time></trkpt><trkpt lat="45.69558434771685" lon="9.852878622182093"><ele>253.99999999999997</ele><time>2026-04-25T09:01:48.999Z</time></trkpt><trkpt lat="45.69552098451571" lon="9.852783390677603"><ele>253.99999999999997</ele><time>2026-04-25T09:01:49.999Z</time></trkpt><trkpt lat="45.69544484010295" lon="9.852674873338156"><ele>254.0</ele><time>2026-04-25T09:01:50.999Z</time></trkpt><trkpt lat="45.69536040769854" lon="9.852558984900796"><ele>254.0</ele><time>2026-04-25T09:01:51.999Z</time></trkpt><trkpt lat="45.69526829722986" lon="9.852430667327484"><ele>253.75</ele><time>2026-04-25T09:01:52.999Z</time></trkpt><trkpt lat="45.69516873991694" lon="9.852301873705093"><ele>253.5</ele><time>2026-04-25T09:01:53.999Z</time></trkpt><trkpt lat="45.69506405077288" lon="9.852164627731439"><ele>253.25</ele><time>2026-04-25T09:01:54.999Z</time></trkpt><trkpt lat="45.69495878646319" lon="9.852026420862702"><ele>253.0</ele><time>2026-04-25T09:01:55.999Z</time></trkpt><trkpt lat="45.6948506731794" lon="9.851878554680164"><ele>253.0</ele><time>2026-04-25T09:01:56.999Z</time></trkpt><trkpt lat="45.694735242551495" lon="9.851733690076468"><ele>253.0</ele><time>2026-04-25T09:01:57.999Z</time></trkpt><trkpt lat="45.6946180313979" lon="9.851581262249084"><ele>253.0</ele><time>2026-04-25T09:01:58.999Z</time></trkpt><trkpt lat="45.69450019070606" lon="9.85142201992283"><ele>253.0</ele><time>2026-04-25T09:01:59.999Z</time></trkpt><trkpt lat="45.69438029085199" lon="9.851259414475473"><ele>253.0</ele><time>2026-04-25T09:02:00.999Z</time></trkpt><trkpt lat="45.69425932611603" lon="9.85109769425091"><ele>253.0</ele><time>2026-04-25T09:02:01.998Z</time></trkpt><trkpt lat="45.69413484419473" lon="9.850940933579944"><ele>253.0</ele><time>2026-04-25T09:02:02.998Z</time></trkpt><trkpt lat="45.6940077007957" lon="9.850782819382427"><ele>253.0</ele><time>2026-04-25T09:02:03.998Z</time></trkpt><trkpt lat="45.69388095591773" lon="9.850628942877515"><ele>253.0</ele><time>2026-04-25T09:02:04.998Z</time></trkpt><trkpt lat="45.69375368749634" lon="9.850482828857894"><ele>253.0</ele><time>2026-04-25T09:02:05.998Z</time></trkpt><trkpt lat="45.693625764320636" lon="9.85034139187473"><ele>253.0</ele><time>2026-04-25T09:02:06.998Z</time></trkpt><trkpt lat="45.69349681454678" lon="9.850208316169867"><ele>253.0</ele><time>2026-04-25T09:02:07.998Z</time></trkpt><trkpt lat="45.69336565288192" lon="9.850080660266528"><ele>252.66666666666666</ele><time>2026-04-25T09:02:08.998Z</time></trkpt><trkpt lat="45.693231608135605" lon="9.849961039659105"><ele>252.33333333333331</ele><time>2026-04-25T09:02:09.998Z</time></trkpt><trkpt lat="45.693091909949835" lon="9.849850426984542"><ele>252.0</ele><time>2026-04-25T09:02:10.998Z</time></trkpt><trkpt lat="45.69294954402258" lon="9.84975219903165"><ele>252.0</ele><time>2026-04-25T09:02:11.998Z</time></trkpt><trkpt lat="45.6928053381617" lon="9.849663672510179"><ele>252.0</ele><time>2026-04-25T09:02:12.999Z</time></trkpt><trkpt lat="45.692658359585565" lon="9.84958070482299"><ele>252.0</ele><time>2026-04-25T09:02:13.999Z</time></trkpt><trkpt lat="45.692513298229294" lon="9.849500791580924"><ele>252.25</ele><time>2026-04-25T09:02:14.999Z</time></trkpt><trkpt lat="45.692371037148185" lon="9.84942306924115"><ele>252.5</ele><time>2026-04-25T09:02:15.999Z</time></trkpt><trkpt lat="45.6922302897923" lon="9.849352330407719"><ele>252.75</ele><time>2026-04-25T09:02:16.999Z</time></trkpt><trkpt lat="45.69209107759327" lon="9.8492907468906"><ele>253.0</ele><time>2026-04-25T09:02:17.999Z</time></trkpt><trkpt lat="45.691956158029406" lon="9.849236188944925"><ele>252.5</ele><time>2026-04-25T09:02:18.999Z</time></trkpt><trkpt lat="45.69182016932819" lon="9.849186540217614"><ele>252.0</ele><time>2026-04-25T09:02:19.999Z</time></trkpt><trkpt lat="45.69169041234476" lon="9.849140748368152"><ele>251.5</ele><time>2026-04-25T09:02:20.999Z</time></trkpt><trkpt lat="45.69156767997587" lon="9.849095906783525"><ele>251.0</ele><time>2026-04-25T09:02:21.999Z</time></trkpt><trkpt lat="45.691450686235804" lon="9.849053079968199"><ele>251.0</ele><time>2026-04-25T09:02:22.999Z</time></trkpt><trkpt lat="45.69133620700139" lon="9.849012312851272"><ele>251.0</ele><time>2026-04-25T09:02:23.999Z</time></trkpt><trkpt lat="45.69122516039512" lon="9.848967898839565"><ele>251.0</ele><time>2026-04-25T09:02:24.999Z</time></trkpt><trkpt lat="45.69111186664805" lon="9.848927358304941"><ele>251.0</ele><time>2026-04-25T09:02:25.999Z</time></trkpt><trkpt lat="45.690995413320536" lon="9.848885819490878"><ele>250.5</ele><time>2026-04-25T09:02:26.999Z</time></trkpt><trkpt lat="45.69087995977754" lon="9.848843145202318"><ele>250.0</ele><time>2026-04-25T09:02:27.999Z</time></trkpt><trkpt lat="45.69076829367441" lon="9.848800224155923"><ele>249.5</ele><time>2026-04-25T09:02:28.999Z</time></trkpt><trkpt lat="45.690658374209356" lon="9.848758994677818"><ele>249.0</ele><time>2026-04-25T09:02:29.999Z</time></trkpt><trkpt lat="45.69054534606233" lon="9.848716350186635"><ele>249.0</ele><time>2026-04-25T09:02:30.999Z</time></trkpt><trkpt lat="45.69043052191519" lon="9.84866929695437"><ele>249.0</ele><time>2026-04-25T09:02:31.999Z</time></trkpt><trkpt lat="45.69031465811961" lon="9.84861191065398"><ele>249.0</ele><time>2026-04-25T09:02:32.999Z</time></trkpt><trkpt lat="45.69019725311096" lon="9.848538266028651"><ele>249.0</ele><time>2026-04-25T09:02:33.999Z</time></trkpt><trkpt lat="45.69007964925637" lon="9.848449407210115"><ele>248.75</ele><time>2026-04-25T09:02:34.999Z</time></trkpt><trkpt lat="45.689967633810326" lon="9.848337016766317"><ele>248.5</ele><time>2026-04-25T09:02:35.999Z</time></trkpt><trkpt lat="45.68986210743169" lon="9.84820707004973"><ele>248.25</ele><time>2026-04-25T09:02:36.999Z</time></trkpt><trkpt lat="45.68976589357573" lon="9.848055769629754"><ele>248.0</ele><time>2026-04-25T09:02:37.999Z</time></trkpt><trkpt lat="45.68967458854622" lon="9.847889496545994"><ele>248.0</ele><time>2026-04-25T09:02:38.999Z</time></trkpt><trkpt lat="45.689589510372954" lon="9.847710235926073"><ele>248.0</ele><time>2026-04-25T09:02:39.999Z</time></trkpt><trkpt lat="45.689500967453846" lon="9.847520053152273"><ele>248.0</ele><time>2026-04-25T09:02:40.999Z</time></trkpt><trkpt lat="45.68941321947449" lon="9.847323624319309"><ele>248.0</ele><time>2026-04-25T09:02:41.999Z</time></trkpt><trkpt lat="45.689322672385316" lon="9.847122570110876"><ele>248.0</ele><time>2026-04-25T09:02:42.999Z</time></trkpt><trkpt lat="45.68922987196353" lon="9.846915512532647"><ele>248.0</ele><time>2026-04-25T09:02:43.999Z</time></trkpt><trkpt lat="45.6891359743366" lon="9.84670390956676"><ele>248.33333333333334</ele><time>2026-04-25T09:02:44.999Z</time></trkpt><trkpt lat="45.68904192166101" lon="9.846491427399995"><ele>248.66666666666669</ele><time>2026-04-25T09:02:45.999Z</time></trkpt><trkpt lat="45.688945959652116" lon="9.846277226991704"><ele>249.0</ele><time>2026-04-25T09:02:46.999Z</time></trkpt><trkpt lat="45.68885013791363" lon="9.846062062474655"><ele>249.66666666666669</ele><time>2026-04-25T09:02:47.999Z</time></trkpt><trkpt lat="45.68875344277834" lon="9.845843502244923"><ele>250.33333333333334</ele><time>2026-04-25T09:02:48.999Z</time></trkpt><trkpt lat="45.68865733392564" lon="9.845623121614402"><ele>251.0</ele><time>2026-04-25T09:02:49.999Z</time></trkpt><trkpt lat="45.68856379923896" lon="9.84540390692105"><ele>250.0</ele><time>2026-04-25T09:02:50.999Z</time></trkpt><trkpt lat="45.68847015119094" lon="9.845183970753949"><ele>249.0</ele><time>2026-04-25T09:02:51.999Z</time></trkpt><trkpt lat="45.68837620180213" lon="9.844966285748608"><ele>248.0</ele><time>2026-04-25T09:02:52.999Z</time></trkpt><trkpt lat="45.68827716408739" lon="9.844748808451655"><ele>248.0</ele><time>2026-04-25T09:02:53.999Z</time></trkpt><trkpt lat="45.68816914789517" lon="9.844538837664501"><ele>248.0</ele><time>2026-04-25T09:02:54.999Z</time></trkpt><trkpt lat="45.68805536881151" lon="9.844336760919845"><ele>248.0</ele><time>2026-04-25T09:02:55.999Z</time></trkpt><trkpt lat="45.687937735953255" lon="9.844144731081766"><ele>248.0</ele><time>2026-04-25T09:02:56.999Z</time></trkpt><trkpt lat="45.68781676881431" lon="9.8439551778994"><ele>248.0</ele><time>2026-04-25T09:02:57.999Z</time></trkpt><trkpt lat="45.687694815133256" lon="9.843761993185204"><ele>248.0</ele><time>2026-04-25T09:02:58.999Z</time></trkpt><trkpt lat="45.687573022823315" lon="9.843564028731265"><ele>248.66666666666669</ele><time>2026-04-25T09:02:59.999Z</time></trkpt><trkpt lat="45.68745502411161" lon="9.843366864982986"><ele>249.33333333333331</ele><time>2026-04-25T09:03:00.999Z</time></trkpt><trkpt lat="45.68733623142558" lon="9.843169552710803"><ele>250.0</ele><time>2026-04-25T09:03:01.999Z</time></trkpt><trkpt lat="45.68721853142599" lon="9.842970210378589"><ele>250.0</ele><time>2026-04-25T09:03:02.999Z</time></trkpt><trkpt lat="45.68709914355317" lon="9.842774247190288"><ele>250.0</ele><time>2026-04-25T09:03:03.999Z</time></trkpt><trkpt lat="45.686980835485414" lon="9.842579457372132"><ele>250.0</ele><time>2026-04-25T09:03:04.999Z</time></trkpt><trkpt lat="45.68686457271934" lon="9.842385556668773"><ele>249.66666666666666</ele><time>2026-04-25T09:03:05.999Z</time></trkpt><trkpt lat="45.686748575328856" lon="9.842186609608397"><ele>249.33333333333331</ele><time>2026-04-25T09:03:06.999Z</time></trkpt><trkpt lat="45.686637715588255" lon="9.841981695484192"><ele>249.0</ele><time>2026-04-25T09:03:07.999Z</time></trkpt><trkpt lat="45.68653578915497" lon="9.841770877169012"><ele>250.33333333333331</ele><time>2026-04-25T09:03:08.999Z</time></trkpt><trkpt lat="45.68644020656158" lon="9.841552443688272"><ele>251.66666666666666</ele><time>2026-04-25T09:03:09.999Z</time></trkpt><trkpt lat="45.68634871603174" lon="9.841335498355994"><ele>253.0</ele><time>2026-04-25T09:03:10.999Z</time></trkpt><trkpt lat="45.686257070888566" lon="9.841117704344637"><ele>253.33333333333331</ele><time>2026-04-25T09:03:11.999Z</time></trkpt><trkpt lat="45.68616679588723" lon="9.840900136349797"><ele>253.66666666666669</ele><time>2026-04-25T09:03:12.999Z</time></trkpt><trkpt lat="45.68607969648029" lon="9.840681571849991"><ele>254.0</ele><time>2026-04-25T09:03:13.999Z</time></trkpt><trkpt lat="45.685997132321894" lon="9.84046001531444"><ele>253.33333333333334</ele><time>2026-04-25T09:03:14.999Z</time></trkpt><trkpt lat="45.68591290306337" lon="9.840239111081813"><ele>252.66666666666669</ele><time>2026-04-25T09:03:15.999Z</time></trkpt><trkpt lat="45.68582485908684" lon="9.840022456513177"><ele>252.0</ele><time>2026-04-25T09:03:16.999Z</time></trkpt><trkpt lat="45.68573588519608" lon="9.839805088707529"><ele>252.0</ele><time>2026-04-25T09:03:17.999Z</time></trkpt><trkpt lat="45.68565018156706" lon="9.839593571850072"><ele>252.0</ele><time>2026-04-25T09:03:18.999Z</time></trkpt><trkpt lat="45.6855697915274" lon="9.839396358584018"><ele>252.0</ele><time>2026-04-25T09:03:19.999Z</time></trkpt><trkpt lat="45.68549643505988" lon="9.839210754197527"><ele>252.0</ele><time>2026-04-25T09:03:20.999Z</time></trkpt><trkpt lat="45.68542782893246" lon="9.839038948517652"><ele>252.0</ele><time>2026-04-25T09:03:21.999Z</time></trkpt><trkpt lat="45.68536665475616" lon="9.838884090391543"><ele>252.0</ele><time>2026-04-25T09:03:22.999Z</time></trkpt><trkpt lat="45.68531060056953" lon="9.838740350140835"><ele>252.0</ele><time>2026-04-25T09:03:23.999Z</time></trkpt><trkpt lat="45.685261306503236" lon="9.838608120456287"><ele>251.39999999999998</ele><time>2026-04-25T09:03:24.999Z</time></trkpt><trkpt lat="45.68521972938633" lon="9.838492814089978"><ele>250.79999999999998</ele><time>2026-04-25T09:03:25.999Z</time></trkpt><trkpt lat="45.68514389486715" lon="9.838347630325709"><ele>250.2</ele><time>2026-04-25T09:03:27.999Z</time></trkpt><trkpt lat="45.685079269721214" lon="9.838222516873813"><ele>249.6</ele><time>2026-04-25T09:03:29.999Z</time></trkpt><trkpt lat="45.68502467143174" lon="9.838129122604613"><ele>249.0</ele><time>2026-04-25T09:03:31.999Z</time></trkpt><trkpt lat="45.684970146702746" lon="9.838050845309947"><ele>248.6</ele><time>2026-04-25T09:03:34.999Z</time></trkpt><trkpt lat="45.68490720680562" lon="9.837941344502232"><ele>248.2</ele><time>2026-04-25T09:03:51.999Z</time></trkpt><trkpt lat="45.68486101581807" lon="9.83785625790707"><ele>247.79999999999998</ele><time>2026-04-25T09:03:52.999Z</time></trkpt><trkpt lat="45.684809222990964" lon="9.837757547544594"><ele>247.39999999999998</ele><time>2026-04-25T09:03:53.999Z</time></trkpt><trkpt lat="45.68474782021346" lon="9.837658701546653"><ele>247.0</ele><time>2026-04-25T09:03:54.999Z</time></trkpt><trkpt lat="45.684677033249194" lon="9.837559267589015"><ele>247.0</ele><time>2026-04-25T09:03:55.999Z</time></trkpt><trkpt lat="45.684594254134424" lon="9.837458709391754"><ele>247.0</ele><time>2026-04-25T09:03:56.999Z</time></trkpt><trkpt lat="45.68450604326041" lon="9.837351566749442"><ele>247.0</ele><time>2026-04-25T09:03:57.999Z</time></trkpt><trkpt lat="45.684414964203846" lon="9.837240398736519"><ele>247.0</ele><time>2026-04-25T09:03:58.999Z</time></trkpt><trkpt lat="45.684324543557096" lon="9.837131216666002"><ele>247.25</ele><time>2026-04-25T09:03:59.999Z</time></trkpt><trkpt lat="45.68423196500743" lon="9.837017741831652"><ele>247.5</ele><time>2026-04-25T09:04:00.999Z</time></trkpt><trkpt lat="45.68413669034722" lon="9.836899602563943"><ele>247.75</ele><time>2026-04-25T09:04:01.999Z</time></trkpt><trkpt lat="45.68404258409265" lon="9.836783630043453"><ele>248.0</ele><time>2026-04-25T09:04:02.999Z</time></trkpt><trkpt lat="45.68394997504791" lon="9.836671110676267"><ele>248.25</ele><time>2026-04-25T09:04:03.999Z</time></trkpt><trkpt lat="45.68386334505882" lon="9.836571134587727"><ele>248.5</ele><time>2026-04-25T09:04:04.999Z</time></trkpt><trkpt lat="45.68377578947392" lon="9.836429377789338"><ele>248.75</ele><time>2026-04-25T09:04:05.998Z</time></trkpt><trkpt lat="45.683694858774565" lon="9.836321436414325"><ele>249.0</ele><time>2026-04-25T09:04:06.998Z</time></trkpt><trkpt lat="45.683605854113125" lon="9.836230163892989"><ele>248.5</ele><time>2026-04-25T09:04:07.998Z</time></trkpt><trkpt lat="45.68349773058032" lon="9.836189840498355"><ele>248.0</ele><time>2026-04-25T09:04:08.998Z</time></trkpt><trkpt lat="45.68338395572458" lon="9.836192897921226"><ele>247.5</ele><time>2026-04-25T09:04:09.998Z</time></trkpt><trkpt lat="45.683269015996245" lon="9.8362164285538"><ele>247.0</ele><time>2026-04-25T09:04:10.998Z</time></trkpt><trkpt lat="45.68315383717989" lon="9.836222039509163"><ele>247.0</ele><time>2026-04-25T09:04:11.998Z</time></trkpt><trkpt lat="45.683043523807086" lon="9.836176047636217"><ele>247.0</ele><time>2026-04-25T09:04:12.998Z</time></trkpt><trkpt lat="45.68294975598429" lon="9.83606752189233"><ele>247.0</ele><time>2026-04-25T09:04:13.998Z</time></trkpt><trkpt lat="45.68287348411609" lon="9.83592382031174"><ele>247.0</ele><time>2026-04-25T09:04:14.998Z</time></trkpt><trkpt lat="45.682829690193074" lon="9.835746141549027"><ele>248.0</ele><time>2026-04-25T09:04:15.998Z</time></trkpt><trkpt lat="45.682847015735646" lon="9.835542818653682"><ele>249.0</ele><time>2026-04-25T09:04:16.998Z</time></trkpt><trkpt lat="45.68284256490208" lon="9.835328057264134"><ele>250.0</ele><time>2026-04-25T09:04:17.999Z</time></trkpt><trkpt lat="45.68286051393668" lon="9.835109710144481"><ele>251.0</ele><time>2026-04-25T09:04:18.999Z</time></trkpt><trkpt lat="45.68287312061278" lon="9.834879647171915"><ele>251.66666666666669</ele><time>2026-04-25T09:04:19.999Z</time></trkpt><trkpt lat="45.682888888723106" lon="9.834635001608207"><ele>252.33333333333331</ele><time>2026-04-25T09:04:20.999Z</time></trkpt><trkpt lat="45.68291410850321" lon="9.834387651456245"><ele>253.0</ele><time>2026-04-25T09:04:21.999Z</time></trkpt><trkpt lat="45.68293746465628" lon="9.834128033150334"><ele>253.0</ele><time>2026-04-25T09:04:22.999Z</time></trkpt><trkpt lat="45.68297207737228" lon="9.83387148543356"><ele>253.0</ele><time>2026-04-25T09:04:23.999Z</time></trkpt><trkpt lat="45.68300080979649" lon="9.833596267067822"><ele>253.0</ele><time>2026-04-25T09:04:24.999Z</time></trkpt><trkpt lat="45.68303081941571" lon="9.83332205353606"><ele>253.33333333333331</ele><time>2026-04-25T09:04:25.999Z</time></trkpt><trkpt lat="45.68306198386173" lon="9.833039962995056"><ele>253.66666666666669</ele><time>2026-04-25T09:04:26.999Z</time></trkpt><trkpt lat="45.68309691340886" lon="9.832747819863233"><ele>254.0</ele><time>2026-04-25T09:04:27.999Z</time></trkpt><trkpt lat="45.68314381577798" lon="9.832455289316572"><ele>254.0</ele><time>2026-04-25T09:04:28.999Z</time></trkpt><trkpt lat="45.683180071477594" lon="9.832154642297558"><ele>254.0</ele><time>2026-04-25T09:04:29.999Z</time></trkpt><trkpt lat="45.683215531876414" lon="9.831846310841213"><ele>254.0</ele><time>2026-04-25T09:04:30.999Z</time></trkpt><trkpt lat="45.68325055332589" lon="9.83153795525803"><ele>253.33333333333334</ele><time>2026-04-25T09:04:31.999Z</time></trkpt><trkpt lat="45.683279464372674" lon="9.831257805643611"><ele>252.66666666666669</ele><time>2026-04-25T09:04:32.999Z</time></trkpt><trkpt lat="45.68330940916956" lon="9.830954794845233"><ele>252.0</ele><time>2026-04-25T09:04:33.999Z</time></trkpt><trkpt lat="45.68334273503085" lon="9.830627784482196"><ele>252.0</ele><time>2026-04-25T09:04:34.999Z</time></trkpt><trkpt lat="45.68337701052567" lon="9.830301340645917"><ele>252.0</ele><time>2026-04-25T09:04:36.072Z</time></trkpt><trkpt lat="45.683403007430286" lon="9.830017334742879"><ele>252.0</ele><time>2026-04-25T09:04:37.063Z</time></trkpt><trkpt lat="45.68344648856501" lon="9.829720914241848"><ele>252.0</ele><time>2026-04-25T09:04:38.061Z</time></trkpt><trkpt lat="45.68347489773999" lon="9.829441978012396"><ele>252.0</ele><time>2026-04-25T09:04:39.061Z</time></trkpt><trkpt lat="45.68350662340841" lon="9.82913392255993"><ele>252.0</ele><time>2026-04-25T09:04:40.059Z</time></trkpt><trkpt lat="45.6836433226873" lon="9.82835495117392"><ele>251.5</ele><time>2026-04-25T09:04:41.999Z</time></trkpt><trkpt lat="45.68367216743514" lon="9.828028536716868"><ele>251.0</ele><time>2026-04-25T09:04:42.999Z</time></trkpt><trkpt lat="45.68367535528258" lon="9.82767104982065"><ele>251.0</ele><time>2026-04-25T09:04:43.999Z</time></trkpt><trkpt lat="45.68367801205893" lon="9.827322207665404"><ele>251.0</ele><time>2026-04-25T09:04:44.999Z</time></trkpt><trkpt lat="45.68369214072909" lon="9.826984441569735"><ele>251.0</ele><time>2026-04-25T09:04:45.999Z</time></trkpt><trkpt lat="45.683710341887924" lon="9.82664922395662"><ele>251.0</ele><time>2026-04-25T09:04:46.999Z</time></trkpt><trkpt lat="45.68374219299539" lon="9.826344911723007"><ele>251.0</ele><time>2026-04-25T09:04:47.999Z</time></trkpt><trkpt lat="45.68375656119382" lon="9.825999063740348"><ele>251.0</ele><time>2026-04-25T09:04:48.999Z</time></trkpt><trkpt lat="45.68377132722882" lon="9.825658132289261"><ele>250.0</ele><time>2026-04-25T09:04:49.999Z</time></trkpt><trkpt lat="45.68378336762753" lon="9.825320364661643"><ele>249.0</ele><time>2026-04-25T09:04:50.999Z</time></trkpt><trkpt lat="45.683791925826945" lon="9.824976785214169"><ele>249.0</ele><time>2026-04-25T09:04:51.999Z</time></trkpt><trkpt lat="45.683799501123694" lon="9.824623761114353"><ele>249.0</ele><time>2026-04-25T09:04:52.999Z</time></trkpt><trkpt lat="45.683795780172524" lon="9.824281412960389"><ele>249.0</ele><time>2026-04-25T09:04:53.999Z</time></trkpt><trkpt lat="45.68379361187002" lon="9.823933006397711"><ele>249.0</ele><time>2026-04-25T09:04:54.999Z</time></trkpt><trkpt lat="45.68377831447052" lon="9.823595239927744"><ele>248.5</ele><time>2026-04-25T09:04:55.999Z</time></trkpt><trkpt lat="45.68375364420373" lon="9.823246532059173"><ele>248.0</ele><time>2026-04-25T09:04:56.999Z</time></trkpt><trkpt lat="45.68371414554257" lon="9.822914674765087"><ele>248.0</ele><time>2026-04-25T09:04:57.999Z</time></trkpt><trkpt lat="45.683667944866635" lon="9.82258080200774"><ele>248.0</ele><time>2026-04-25T09:04:58.999Z</time></trkpt><trkpt lat="45.68360661512739" lon="9.822254608447272"><ele>247.5</ele><time>2026-04-25T09:04:59.999Z</time></trkpt><trkpt lat="45.683543657273454" lon="9.821931530522372"><ele>247.0</ele><time>2026-04-25T09:05:00.999Z</time></trkpt><trkpt lat="45.68346759007676" lon="9.821606857770112"><ele>246.5</ele><time>2026-04-25T09:05:01.999Z</time></trkpt><trkpt lat="45.6833866947301" lon="9.821283068626345"><ele>246.0</ele><time>2026-04-25T09:05:02.999Z</time></trkpt><trkpt lat="45.683303585633695" lon="9.82095683327442"><ele>246.0</ele><time>2026-04-25T09:05:03.999Z</time></trkpt><trkpt lat="45.68321613454216" lon="9.82064210839844"><ele>246.0</ele><time>2026-04-25T09:05:04.999Z</time></trkpt><trkpt lat="45.68313097003655" lon="9.820325086421267"><ele>245.0</ele><time>2026-04-25T09:05:05.999Z</time></trkpt><trkpt lat="45.68304386059656" lon="9.820010471723409"><ele>244.0</ele><time>2026-04-25T09:05:06.999Z</time></trkpt><trkpt lat="45.682956653090216" lon="9.819698343389938"><ele>244.0</ele><time>2026-04-25T09:05:07.999Z</time></trkpt><trkpt lat="45.68286815002541" lon="9.819379093241396"><ele>244.0</ele><time>2026-04-25T09:05:08.999Z</time></trkpt><trkpt lat="45.682785729301955" lon="9.819073845460759"><ele>244.0</ele><time>2026-04-25T09:05:09.999Z</time></trkpt><trkpt lat="45.682704050648155" lon="9.81875867364434"><ele>244.0</ele><time>2026-04-25T09:05:10.999Z</time></trkpt><trkpt lat="45.68262456853308" lon="9.818448255285263"><ele>244.5</ele><time>2026-04-25T09:05:11.999Z</time></trkpt><trkpt lat="45.68254217796883" lon="9.818130986109898"><ele>245.0</ele><time>2026-04-25T09:05:12.999Z</time></trkpt><trkpt lat="45.68245778923784" lon="9.817809241856676"><ele>244.0</ele><time>2026-04-25T09:05:13.999Z</time></trkpt><trkpt lat="45.68237205730975" lon="9.817487991642013"><ele>243.0</ele><time>2026-04-25T09:05:14.999Z</time></trkpt><trkpt lat="45.68228512976149" lon="9.81716119394707"><ele>243.0</ele><time>2026-04-25T09:05:15.999Z</time></trkpt><trkpt lat="45.68219900545422" lon="9.816831182619694"><ele>243.0</ele><time>2026-04-25T09:05:16.999Z</time></trkpt><trkpt lat="45.68211315016217" lon="9.816499566093823"><ele>243.0</ele><time>2026-04-25T09:05:17.999Z</time></trkpt><trkpt lat="45.68202688551317" lon="9.816170139519558"><ele>243.0</ele><time>2026-04-25T09:05:18.999Z</time></trkpt><trkpt lat="45.68193708183544" lon="9.815840536271313"><ele>241.5</ele><time>2026-04-25T09:05:19.999Z</time></trkpt><trkpt lat="45.68184752507488" lon="9.815506684308765"><ele>240.0</ele><time>2026-04-25T09:05:20.999Z</time></trkpt><trkpt lat="45.68175693376118" lon="9.81516959893113"><ele>240.5</ele><time>2026-04-25T09:05:21.999Z</time></trkpt><trkpt lat="45.6816691976648" lon="9.814829152498076"><ele>241.0</ele><time>2026-04-25T09:05:22.999Z</time></trkpt><trkpt lat="45.68158130473866" lon="9.814492296912286"><ele>240.5</ele><time>2026-04-25T09:05:23.999Z</time></trkpt><trkpt lat="45.68149348949981" lon="9.814153701102903"><ele>240.0</ele><time>2026-04-25T09:05:24.999Z</time></trkpt><trkpt lat="45.68140564252562" lon="9.813819248048354"><ele>239.5</ele><time>2026-04-25T09:05:25.999Z</time></trkpt><trkpt lat="45.68131800591738" lon="9.81348479139783"><ele>239.0</ele><time>2026-04-25T09:05:26.999Z</time></trkpt><trkpt lat="45.68123012849105" lon="9.81314102654021"><ele>239.0</ele><time>2026-04-25T09:05:27.999Z</time></trkpt><trkpt lat="45.6811512741676" lon="9.81280603375455"><ele>239.0</ele><time>2026-04-25T09:05:28.999Z</time></trkpt><trkpt lat="45.681078252528266" lon="9.812457507330862"><ele>238.5</ele><time>2026-04-25T09:05:29.999Z</time></trkpt><trkpt lat="45.68101113214498" lon="9.812112238422417"><ele>238.0</ele><time>2026-04-25T09:05:30.999Z</time></trkpt><trkpt lat="45.680955768120434" lon="9.81176693189445"><ele>238.0</ele><time>2026-04-25T09:05:31.999Z</time></trkpt><trkpt lat="45.68090557778131" lon="9.8114181977524"><ele>238.0</ele><time>2026-04-25T09:05:32.999Z</time></trkpt><trkpt lat="45.680861768848736" lon="9.811078006645714"><ele>237.5</ele><time>2026-04-25T09:05:33.999Z</time></trkpt><trkpt lat="45.68082221573809" lon="9.810741321040084"><ele>237.0</ele><time>2026-04-25T09:05:34.999Z</time></trkpt><trkpt lat="45.68078808540886" lon="9.810404192283505"><ele>236.5</ele><time>2026-04-25T09:05:35.999Z</time></trkpt><trkpt lat="45.680760988910386" lon="9.81007242591007"><ele>236.0</ele><time>2026-04-25T09:05:36.999Z</time></trkpt><trkpt lat="45.68073790688612" lon="9.80973856716936"><ele>236.0</ele><time>2026-04-25T09:05:37.999Z</time></trkpt><trkpt lat="45.68071555024996" lon="9.809404478185277"><ele>236.0</ele><time>2026-04-25T09:05:38.999Z</time></trkpt><trkpt lat="45.68069717318778" lon="9.809072337494744"><ele>236.5</ele><time>2026-04-25T09:05:39.999Z</time></trkpt><trkpt lat="45.68067952389301" lon="9.808738282297227"><ele>237.0</ele><time>2026-04-25T09:05:40.999Z</time></trkpt><trkpt lat="45.68065915763894" lon="9.808404291828355"><ele>236.0</ele><time>2026-04-25T09:05:41.999Z</time></trkpt><trkpt lat="45.68064011651021" lon="9.808063158693813"><ele>235.0</ele><time>2026-04-25T09:05:42.999Z</time></trkpt><trkpt lat="45.68060947137227" lon="9.80773742625516"><ele>234.0</ele><time>2026-04-25T09:05:43.999Z</time></trkpt><trkpt lat="45.68058109477279" lon="9.807398505369438"><ele>233.0</ele><time>2026-04-25T09:05:44.999Z</time></trkpt><trkpt lat="45.680543376220925" lon="9.807068722670326"><ele>233.5</ele><time>2026-04-25T09:05:45.999Z</time></trkpt><trkpt lat="45.680501761936696" lon="9.806741645215025"><ele>234.0</ele><time>2026-04-25T09:05:46.999Z</time></trkpt><trkpt lat="45.68045127196432" lon="9.806416713647804"><ele>234.0</ele><time>2026-04-25T09:05:47.999Z</time></trkpt><trkpt lat="45.680397220216676" lon="9.80609468702946"><ele>234.0</ele><time>2026-04-25T09:05:48.999Z</time></trkpt><trkpt lat="45.68033890733132" lon="9.805773030296832"><ele>234.0</ele><time>2026-04-25T09:05:49.999Z</time></trkpt><trkpt lat="45.680273914567145" lon="9.805457821072716"><ele>234.0</ele><time>2026-04-25T09:05:50.999Z</time></trkpt><trkpt lat="45.680201459975365" lon="9.805147047837423"><ele>234.0</ele><time>2026-04-25T09:05:51.999Z</time></trkpt><trkpt lat="45.68012426135504" lon="9.804844208345676"><ele>234.0</ele><time>2026-04-25T09:05:52.999Z</time></trkpt><trkpt lat="45.68004501118161" lon="9.804533270672325"><ele>233.5</ele><time>2026-04-25T09:05:53.999Z</time></trkpt><trkpt lat="45.67996729910313" lon="9.804227586848583"><ele>233.0</ele><time>2026-04-25T09:05:54.999Z</time></trkpt><trkpt lat="45.67988966622345" lon="9.80391784618967"><ele>233.0</ele><time>2026-04-25T09:05:55.999Z</time></trkpt><trkpt lat="45.679808302720666" lon="9.803613518075386"><ele>233.0</ele><time>2026-04-25T09:05:56.999Z</time></trkpt><trkpt lat="45.67972849689408" lon="9.803301306302908"><ele>232.5</ele><time>2026-04-25T09:05:57.999Z</time></trkpt><trkpt lat="45.67964943052355" lon="9.802999108018629"><ele>232.0</ele><time>2026-04-25T09:05:58.999Z</time></trkpt><trkpt lat="45.679569460843744" lon="9.802690776817307"><ele>232.0</ele><time>2026-04-25T09:05:59.999Z</time></trkpt><trkpt lat="45.67948959732784" lon="9.802380594987124"><ele>232.0</ele><time>2026-04-25T09:06:00.999Z</time></trkpt><trkpt lat="45.67940919996487" lon="9.802072718293314"><ele>231.0</ele><time>2026-04-25T09:06:01.999Z</time></trkpt><trkpt lat="45.679330627596954" lon="9.801765911670842"><ele>230.0</ele><time>2026-04-25T09:06:02.999Z</time></trkpt><trkpt lat="45.67925037011648" lon="9.801456459030831"><ele>230.0</ele><time>2026-04-25T09:06:03.999Z</time></trkpt><trkpt lat="45.67916723586174" lon="9.80115176598586"><ele>230.0</ele><time>2026-04-25T09:06:05Z</time></trkpt><trkpt lat="45.679084860938104" lon="9.80084583297592"><ele>230.0</ele><time>2026-04-25T09:06:06Z</time></trkpt><trkpt lat="45.679005408471546" lon="9.800546438634237"><ele>230.0</ele><time>2026-04-25T09:06:07Z</time></trkpt><trkpt lat="45.678923533697805" lon="9.800242638808239"><ele>230.33333333333334</ele><time>2026-04-25T09:06:08Z</time></trkpt><trkpt lat="45.67884611047051" lon="9.7999401818368"><ele>230.66666666666669</ele><time>2026-04-25T09:06:09Z</time></trkpt><trkpt lat="45.67876944028588" lon="9.799643575464835"><ele>231.0</ele><time>2026-04-25T09:06:10Z</time></trkpt><trkpt lat="45.67869408719849" lon="9.799340066484346"><ele>231.0</ele><time>2026-04-25T09:06:11Z</time></trkpt><trkpt lat="45.6786181359827" lon="9.799043933976264"><ele>231.0</ele><time>2026-04-25T09:06:11.999Z</time></trkpt><trkpt lat="45.678541823473886" lon="9.798745199541413"><ele>231.0</ele><time>2026-04-25T09:06:12.999Z</time></trkpt><trkpt lat="45.67846612505736" lon="9.798449289431225"><ele>231.0</ele><time>2026-04-25T09:06:13.999Z</time></trkpt><trkpt lat="45.67839101193454" lon="9.79815596056266"><ele>231.0</ele><time>2026-04-25T09:06:14.999Z</time></trkpt><trkpt lat="45.67831358145829" lon="9.797862544168703"><ele>231.0</ele><time>2026-04-25T09:06:15.999Z</time></trkpt><trkpt lat="45.67823612040813" lon="9.797568269887767"><ele>231.33333333333331</ele><time>2026-04-25T09:06:16.999Z</time></trkpt><trkpt lat="45.678162958484016" lon="9.797272948529745"><ele>231.66666666666666</ele><time>2026-04-25T09:06:17.999Z</time></trkpt><trkpt lat="45.67811816237532" lon="9.796966920313526"><ele>232.0</ele><time>2026-04-25T09:06:18.999Z</time></trkpt><trkpt lat="45.67805374803669" lon="9.796663142722759"><ele>231.0</ele><time>2026-04-25T09:06:19.999Z</time></trkpt><trkpt lat="45.678016163819215" lon="9.796352887141447"><ele>230.0</ele><time>2026-04-25T09:06:20.999Z</time></trkpt><trkpt lat="45.6780086022449" lon="9.796035184973913"><ele>229.0</ele><time>2026-04-25T09:06:21.999Z</time></trkpt><trkpt lat="45.677998244293505" lon="9.795717686676376"><ele>229.0</ele><time>2026-04-25T09:06:23Z</time></trkpt><trkpt lat="45.677986005032366" lon="9.7953956535772"><ele>229.0</ele><time>2026-04-25T09:06:24Z</time></trkpt><trkpt lat="45.67800744671384" lon="9.795078646699547"><ele>229.0</ele><time>2026-04-25T09:06:25Z</time></trkpt><trkpt lat="45.67804657889659" lon="9.794756409422902"><ele>228.5</ele><time>2026-04-25T09:06:26Z</time></trkpt><trkpt lat="45.67809447132417" lon="9.794440435888715"><ele>228.0</ele><time>2026-04-25T09:06:27Z</time></trkpt><trkpt lat="45.67815259594545" lon="9.794121288720461"><ele>228.0</ele><time>2026-04-25T09:06:28Z</time></trkpt><trkpt lat="45.67820923541655" lon="9.79379884894382"><ele>228.0</ele><time>2026-04-25T09:06:29Z</time></trkpt><trkpt lat="45.67826342172962" lon="9.793476139681317"><ele>228.0</ele><time>2026-04-25T09:06:30Z</time></trkpt><trkpt lat="45.67831951080351" lon="9.793155040137647"><ele>228.0</ele><time>2026-04-25T09:06:31Z</time></trkpt><trkpt lat="45.67838145810763" lon="9.792834359338906"><ele>228.5</ele><time>2026-04-25T09:06:32Z</time></trkpt><trkpt lat="45.67844501748013" lon="9.79251685111006"><ele>229.0</ele><time>2026-04-25T09:06:33Z</time></trkpt><trkpt lat="45.67850885591059" lon="9.792195602645611"><ele>229.0</ele><time>2026-04-25T09:06:34Z</time></trkpt><trkpt lat="45.67856970786102" lon="9.791877312203962"><ele>229.0</ele><time>2026-04-25T09:06:35Z</time></trkpt><trkpt lat="45.6786282596003" lon="9.791556582415962"><ele>229.5</ele><time>2026-04-25T09:06:36Z</time></trkpt><trkpt lat="45.67868821723466" lon="9.791240021949767"><ele>230.0</ele><time>2026-04-25T09:06:37Z</time></trkpt><trkpt lat="45.67874798855547" lon="9.790924438620825"><ele>230.0</ele><time>2026-04-25T09:06:38Z</time></trkpt><trkpt lat="45.678806200129856" lon="9.790612491596443"><ele>230.0</ele><time>2026-04-25T09:06:39Z</time></trkpt><trkpt lat="45.67886185702168" lon="9.790299520102131"><ele>229.66666666666669</ele><time>2026-04-25T09:06:40Z</time></trkpt><trkpt lat="45.67891642979721" lon="9.789993073694227"><ele>229.33333333333331</ele><time>2026-04-25T09:06:41Z</time></trkpt><trkpt lat="45.67897298954959" lon="9.789690372075"><ele>229.0</ele><time>2026-04-25T09:06:42Z</time></trkpt><trkpt lat="45.6790324150342" lon="9.78939255148364"><ele>229.0</ele><time>2026-04-25T09:06:43Z</time></trkpt><trkpt lat="45.67909557296511" lon="9.789098643891496"><ele>229.0</ele><time>2026-04-25T09:06:44Z</time></trkpt><trkpt lat="45.67916650301124" lon="9.788811394539273"><ele>229.0</ele><time>2026-04-25T09:06:45Z</time></trkpt><trkpt lat="45.6792491592142" lon="9.788531582567687"><ele>228.66666666666666</ele><time>2026-04-25T09:06:46Z</time></trkpt><trkpt lat="45.679341274788925" lon="9.78825690853361"><ele>228.33333333333331</ele><time>2026-04-25T09:06:47Z</time></trkpt><trkpt lat="45.67944176124586" lon="9.78799014041905"><ele>228.0</ele><time>2026-04-25T09:06:48Z</time></trkpt><trkpt lat="45.67955034382617" lon="9.787729378792733"><ele>228.66666666666669</ele><time>2026-04-25T09:06:49Z</time></trkpt><trkpt lat="45.67967009497937" lon="9.787480149191945"><ele>229.33333333333334</ele><time>2026-04-25T09:06:50Z</time></trkpt><trkpt lat="45.67979850987421" lon="9.787240409351972"><ele>230.0</ele><time>2026-04-25T09:06:51Z</time></trkpt><trkpt lat="45.679933109855625" lon="9.787007663068374"><ele>229.66666666666669</ele><time>2026-04-25T09:06:52Z</time></trkpt><trkpt lat="45.68006593948154" lon="9.786775369165975"><ele>229.33333333333331</ele><time>2026-04-25T09:06:53Z</time></trkpt><trkpt lat="45.6801984725377" lon="9.786545003382384"><ele>229.0</ele><time>2026-04-25T09:06:54Z</time></trkpt><trkpt lat="45.68033172517106" lon="9.786314823142826"><ele>229.33333333333331</ele><time>2026-04-25T09:06:55Z</time></trkpt><trkpt lat="45.680461307384896" lon="9.786083337238056"><ele>229.66666666666669</ele><time>2026-04-25T09:06:56Z</time></trkpt><trkpt lat="45.68058400655384" lon="9.785841842559117"><ele>230.0</ele><time>2026-04-25T09:06:57Z</time></trkpt><trkpt lat="45.680693820476684" lon="9.785593768915849"><ele>230.0</ele><time>2026-04-25T09:06:58Z</time></trkpt><trkpt lat="45.68078410848009" lon="9.785326537582966"><ele>230.0</ele><time>2026-04-25T09:06:59Z</time></trkpt><trkpt lat="45.68086705619477" lon="9.785055654705136"><ele>230.0</ele><time>2026-04-25T09:07:00Z</time></trkpt><trkpt lat="45.680941250830905" lon="9.784780047827246"><ele>230.33333333333334</ele><time>2026-04-25T09:07:01Z</time></trkpt><trkpt lat="45.68100551536345" lon="9.78449455304811"><ele>230.66666666666669</ele><time>2026-04-25T09:07:02Z</time></trkpt><trkpt lat="45.681058726421135" lon="9.784204381610861"><ele>231.0</ele><time>2026-04-25T09:07:03Z</time></trkpt><trkpt lat="45.68109466229063" lon="9.783908406721611"><ele>232.0</ele><time>2026-04-25T09:07:04Z</time></trkpt><trkpt lat="45.681120523337924" lon="9.783604755668325"><ele>233.0</ele><time>2026-04-25T09:07:05Z</time></trkpt><trkpt lat="45.68112623291991" lon="9.783301318198886"><ele>234.0</ele><time>2026-04-25T09:07:06Z</time></trkpt><trkpt lat="45.681115924329895" lon="9.782993175499715"><ele>233.66666666666669</ele><time>2026-04-25T09:07:07Z</time></trkpt><trkpt lat="45.68109534258178" lon="9.7826883215004"><ele>233.33333333333334</ele><time>2026-04-25T09:07:08Z</time></trkpt><trkpt lat="45.68106151528154" lon="9.78238620311244"><ele>233.0</ele><time>2026-04-25T09:07:09Z</time></trkpt><trkpt lat="45.68101908587512" lon="9.782086260853921"><ele>233.0</ele><time>2026-04-25T09:07:10Z</time></trkpt><trkpt lat="45.68096056399131" lon="9.78179011062862"><ele>233.0</ele><time>2026-04-25T09:07:11Z</time></trkpt><trkpt lat="45.680887499778414" lon="9.781498135098134"><ele>233.0</ele><time>2026-04-25T09:07:12Z</time></trkpt><trkpt lat="45.68080224566811" lon="9.781206846396142"><ele>233.0</ele><time>2026-04-25T09:07:13Z</time></trkpt><trkpt lat="45.68070741430654" lon="9.780918428525982"><ele>233.0</ele><time>2026-04-25T09:07:14Z</time></trkpt><trkpt lat="45.68061031064451" lon="9.780628029741958"><ele>233.0</ele><time>2026-04-25T09:07:15Z</time></trkpt><trkpt lat="45.68051164828466" lon="9.780336921373825"><ele>234.0</ele><time>2026-04-25T09:07:16Z</time></trkpt><trkpt lat="45.68041286486264" lon="9.780046117461062"><ele>235.0</ele><time>2026-04-25T09:07:17Z</time></trkpt><trkpt lat="45.68031365188087" lon="9.77974640521519"><ele>234.0</ele><time>2026-04-25T09:07:18Z</time></trkpt><trkpt lat="45.68021660075061" lon="9.779449407672356"><ele>233.0</ele><time>2026-04-25T09:07:19Z</time></trkpt><trkpt lat="45.68012073579815" lon="9.77916309617316"><ele>233.0</ele><time>2026-04-25T09:07:20Z</time></trkpt><trkpt lat="45.680024042378975" lon="9.778877689578136"><ele>233.0</ele><time>2026-04-25T09:07:21Z</time></trkpt><trkpt lat="45.679930111789716" lon="9.778603034845137"><ele>233.0</ele><time>2026-04-25T09:07:22Z</time></trkpt><trkpt lat="45.679836221259" lon="9.77831745521415"><ele>233.0</ele><time>2026-04-25T09:07:23Z</time></trkpt><trkpt lat="45.67974858828159" lon="9.778042694078069"><ele>233.0</ele><time>2026-04-25T09:07:24Z</time></trkpt><trkpt lat="45.67967066482646" lon="9.777762626078088"><ele>233.0</ele><time>2026-04-25T09:07:25Z</time></trkpt><trkpt lat="45.679617006682356" lon="9.777471780515667"><ele>233.0</ele><time>2026-04-25T09:07:26Z</time></trkpt><trkpt lat="45.67956190451757" lon="9.7771879658311"><ele>233.0</ele><time>2026-04-25T09:07:27Z</time></trkpt><trkpt lat="45.679514460129575" lon="9.77690268626247"><ele>233.0</ele><time>2026-04-25T09:07:28Z</time></trkpt><trkpt lat="45.679476212625744" lon="9.77661911897756"><ele>233.33333333333334</ele><time>2026-04-25T09:07:29Z</time></trkpt><trkpt lat="45.67944896432194" lon="9.776329865067785"><ele>233.66666666666669</ele><time>2026-04-25T09:07:30Z</time></trkpt><trkpt lat="45.679427168997975" lon="9.77604016991642"><ele>234.0</ele><time>2026-04-25T09:07:31Z</time></trkpt><trkpt lat="45.679417685058354" lon="9.775749710369931"><ele>234.33333333333331</ele><time>2026-04-25T09:07:32Z</time></trkpt><trkpt lat="45.67941514427127" lon="9.775458336470127"><ele>234.66666666666666</ele><time>2026-04-25T09:07:33Z</time></trkpt><trkpt lat="45.67942379257176" lon="9.77517020331791"><ele>235.0</ele><time>2026-04-25T09:07:34Z</time></trkpt><trkpt lat="45.67944091552486" lon="9.77490056829912"><ele>235.0</ele><time>2026-04-25T09:07:35Z</time></trkpt><trkpt lat="45.679462301656116" lon="9.774642852940053"><ele>235.0</ele><time>2026-04-25T09:07:36Z</time></trkpt><trkpt lat="45.679492509365865" lon="9.774398732138797"><ele>235.0</ele><time>2026-04-25T09:07:37Z</time></trkpt><trkpt lat="45.67952605948925" lon="9.774172176148726"><ele>235.66666666666666</ele><time>2026-04-25T09:07:38Z</time></trkpt><trkpt lat="45.67956367117213" lon="9.773953288653164"><ele>236.33333333333331</ele><time>2026-04-25T09:07:39Z</time></trkpt><trkpt lat="45.679606724712436" lon="9.773728295739783"><ele>237.0</ele><time>2026-04-25T09:07:40Z</time></trkpt><trkpt lat="45.67965646311404" lon="9.773490969331492"><ele>237.0</ele><time>2026-04-25T09:07:41Z</time></trkpt><trkpt lat="45.6797061750069" lon="9.773254589183514"><ele>237.0</ele><time>2026-04-25T09:07:42Z</time></trkpt><trkpt lat="45.67974466748152" lon="9.773001180430612"><ele>237.0</ele><time>2026-04-25T09:07:43Z</time></trkpt><trkpt lat="45.6798018070365" lon="9.77275446583695"><ele>239.0</ele><time>2026-04-25T09:07:44Z</time></trkpt><trkpt lat="45.67986091860291" lon="9.772501937354106"><ele>241.0</ele><time>2026-04-25T09:07:45Z</time></trkpt><trkpt lat="45.67991380378647" lon="9.772244642146175"><ele>243.0</ele><time>2026-04-25T09:07:46Z</time></trkpt><trkpt lat="45.67996409600977" lon="9.771988949259406"><ele>245.33333333333331</ele><time>2026-04-25T09:07:47Z</time></trkpt><trkpt lat="45.680018161329684" lon="9.771729383882349"><ele>247.66666666666666</ele><time>2026-04-25T09:07:48Z</time></trkpt><trkpt lat="45.68007567796678" lon="9.77146910856098"><ele>250.0</ele><time>2026-04-25T09:07:49Z</time></trkpt><trkpt lat="45.68013246918294" lon="9.771216228988456"><ele>250.33333333333331</ele><time>2026-04-25T09:07:50Z</time></trkpt><trkpt lat="45.68018557545006" lon="9.770984042221647"><ele>250.66666666666669</ele><time>2026-04-25T09:07:51Z</time></trkpt><trkpt lat="45.68023311777702" lon="9.770762196377076"><ele>251.0</ele><time>2026-04-25T09:07:52Z</time></trkpt><trkpt lat="45.68027853664981" lon="9.770544288584619"><ele>247.66666666666669</ele><time>2026-04-25T09:07:53Z</time></trkpt><trkpt lat="45.68032655318719" lon="9.770329841847285"><ele>244.33333333333331</ele><time>2026-04-25T09:07:54Z</time></trkpt><trkpt lat="45.68037301640406" lon="9.770108902279823"><ele>241.0</ele><time>2026-04-25T09:07:55Z</time></trkpt><trkpt lat="45.68041843966358" lon="9.76988969600892"><ele>241.0</ele><time>2026-04-25T09:07:56Z</time></trkpt><trkpt lat="45.68046410172359" lon="9.769665976203594"><ele>241.0</ele><time>2026-04-25T09:07:57Z</time></trkpt><trkpt lat="45.680528975779694" lon="9.769445101847678"><ele>241.0</ele><time>2026-04-25T09:07:58Z</time></trkpt><trkpt lat="45.680578877750335" lon="9.769212678430387"><ele>242.66666666666666</ele><time>2026-04-25T09:07:59Z</time></trkpt><trkpt lat="45.68062992738033" lon="9.768974909554311"><ele>244.33333333333331</ele><time>2026-04-25T09:08:00Z</time></trkpt><trkpt lat="45.68068326018112" lon="9.768726337769936"><ele>246.0</ele><time>2026-04-25T09:08:01Z</time></trkpt><trkpt lat="45.68073751907966" lon="9.768473413458013"><ele>246.66666666666669</ele><time>2026-04-25T09:08:02Z</time></trkpt><trkpt lat="45.68079134301513" lon="9.768222516678973"><ele>247.33333333333334</ele><time>2026-04-25T09:08:03Z</time></trkpt><trkpt lat="45.68084676500463" lon="9.76796417070298"><ele>248.0</ele><time>2026-04-25T09:08:04Z</time></trkpt><trkpt lat="45.68090240162039" lon="9.767704824213293"><ele>249.66666666666669</ele><time>2026-04-25T09:08:05Z</time></trkpt><trkpt lat="45.68094222880102" lon="9.767438216027417"><ele>251.33333333333331</ele><time>2026-04-25T09:08:06Z</time></trkpt><trkpt lat="45.68099948302308" lon="9.767173842726558"><ele>253.0</ele><time>2026-04-25T09:08:07Z</time></trkpt><trkpt lat="45.681057667896944" lon="9.766907894843209"><ele>249.33333333333331</ele><time>2026-04-25T09:08:08Z</time></trkpt><trkpt lat="45.681118139001796" lon="9.76663728227367"><ele>245.66666666666669</ele><time>2026-04-25T09:08:09Z</time></trkpt><trkpt lat="45.681178009215934" lon="9.766369064537741"><ele>242.0</ele><time>2026-04-25T09:08:10Z</time></trkpt><trkpt lat="45.68123977083932" lon="9.766094336172996"><ele>242.33333333333334</ele><time>2026-04-25T09:08:11Z</time></trkpt><trkpt lat="45.68130022076169" lon="9.765815452468974"><ele>242.66666666666669</ele><time>2026-04-25T09:08:12Z</time></trkpt><trkpt lat="45.68135984341463" lon="9.765538768531895"><ele>243.0</ele><time>2026-04-25T09:08:13Z</time></trkpt><trkpt lat="45.681419408972225" lon="9.765259362035836"><ele>243.33333333333331</ele><time>2026-04-25T09:08:14Z</time></trkpt><trkpt lat="45.68147937053909" lon="9.764975811222616"><ele>243.66666666666666</ele><time>2026-04-25T09:08:15Z</time></trkpt><trkpt lat="45.681540660459696" lon="9.764698085164802"><ele>244.0</ele><time>2026-04-25T09:08:16Z</time></trkpt><trkpt lat="45.681599742924114" lon="9.764420217372319"><ele>244.0</ele><time>2026-04-25T09:08:16.999Z</time></trkpt><trkpt lat="45.68166207053461" lon="9.764145915526461"><ele>244.0</ele><time>2026-04-25T09:08:17.999Z</time></trkpt><trkpt lat="45.68172520819179" lon="9.763872422815824"><ele>244.0</ele><time>2026-04-25T09:08:18.999Z</time></trkpt><trkpt lat="45.68178629799635" lon="9.763597187836695"><ele>244.33333333333331</ele><time>2026-04-25T09:08:19.999Z</time></trkpt><trkpt lat="45.681847089668146" lon="9.763322097255402"><ele>244.66666666666669</ele><time>2026-04-25T09:08:20.999Z</time></trkpt><trkpt lat="45.68190768841693" lon="9.763045615475484"><ele>245.0</ele><time>2026-04-25T09:08:21.999Z</time></trkpt><trkpt lat="45.68196582576709" lon="9.762771855168701"><ele>244.66666666666669</ele><time>2026-04-25T09:08:22.999Z</time></trkpt><trkpt lat="45.68202379482472" lon="9.762497073420825"><ele>244.33333333333331</ele><time>2026-04-25T09:08:23.999Z</time></trkpt><trkpt lat="45.68207719281545" lon="9.762220138339206"><ele>244.0</ele><time>2026-04-25T09:08:24.999Z</time></trkpt><trkpt lat="45.682123368454405" lon="9.761943808611989"><ele>244.0</ele><time>2026-04-25T09:08:25.999Z</time></trkpt><trkpt lat="45.682159670275496" lon="9.761664092536442"><ele>244.0</ele><time>2026-04-25T09:08:26.999Z</time></trkpt><trkpt lat="45.68218479273217" lon="9.761381825635112"><ele>244.0</ele><time>2026-04-25T09:08:27.999Z</time></trkpt><trkpt lat="45.68220451003964" lon="9.761097177007102"><ele>243.66666666666666</ele><time>2026-04-25T09:08:29Z</time></trkpt><trkpt lat="45.682216494416465" lon="9.760813116662293"><ele>243.33333333333331</ele><time>2026-04-25T09:08:30Z</time></trkpt><trkpt lat="45.682218268100094" lon="9.760527200753355"><ele>243.0</ele><time>2026-04-25T09:08:31Z</time></trkpt><trkpt lat="45.68221245377972" lon="9.760241667800008"><ele>243.66666666666669</ele><time>2026-04-25T09:08:32Z</time></trkpt><trkpt lat="45.6821985558192" lon="9.759961603526694"><ele>244.33333333333334</ele><time>2026-04-25T09:08:33Z</time></trkpt><trkpt lat="45.682176185053166" lon="9.759682067048036"><ele>245.0</ele><time>2026-04-25T09:08:34Z</time></trkpt><trkpt lat="45.68214054529552" lon="9.759406085463521"><ele>244.66666666666669</ele><time>2026-04-25T09:08:35Z</time></trkpt><trkpt lat="45.68209246041746" lon="9.759136651139004"><ele>244.33333333333331</ele><time>2026-04-25T09:08:36Z</time></trkpt><trkpt lat="45.682043211693276" lon="9.758872123615253"><ele>244.0</ele><time>2026-04-25T09:08:37Z</time></trkpt><trkpt lat="45.68198864782153" lon="9.7586077134218"><ele>243.66666666666666</ele><time>2026-04-25T09:08:38Z</time></trkpt><trkpt lat="45.68193521472738" lon="9.758345631054672"><ele>243.33333333333331</ele><time>2026-04-25T09:08:39Z</time></trkpt><trkpt lat="45.68187883842241" lon="9.758081487622336"><ele>243.0</ele><time>2026-04-25T09:08:40Z</time></trkpt><trkpt lat="45.6818222013856" lon="9.757819558164979"><ele>244.0</ele><time>2026-04-25T09:08:41Z</time></trkpt><trkpt lat="45.68176333691143" lon="9.757550694092396"><ele>245.0</ele><time>2026-04-25T09:08:42Z</time></trkpt><trkpt lat="45.68172248268784" lon="9.757292423675688"><ele>246.0</ele><time>2026-04-25T09:08:43Z</time></trkpt><trkpt lat="45.68165619927189" lon="9.757030972213789"><ele>245.66666666666669</ele><time>2026-04-25T09:08:44Z</time></trkpt><trkpt lat="45.68160728614232" lon="9.756767644558888"><ele>245.33333333333334</ele><time>2026-04-25T09:08:45Z</time></trkpt><trkpt lat="45.681559767309665" lon="9.75650384323578"><ele>245.0</ele><time>2026-04-25T09:08:46Z</time></trkpt><trkpt lat="45.68151016565654" lon="9.75625125374201"><ele>245.33333333333334</ele><time>2026-04-25T09:08:47Z</time></trkpt><trkpt lat="45.681460548566506" lon="9.756004345508524"><ele>245.66666666666669</ele><time>2026-04-25T09:08:48Z</time></trkpt><trkpt lat="45.68140812706537" lon="9.755755551347072"><ele>246.0</ele><time>2026-04-25T09:08:49Z</time></trkpt><trkpt lat="45.6813529868669" lon="9.755500380863026"><ele>246.0</ele><time>2026-04-25T09:08:50Z</time></trkpt><trkpt lat="45.68129870111704" lon="9.75524044519791"><ele>246.0</ele><time>2026-04-25T09:08:51Z</time></trkpt><trkpt lat="45.68124219579988" lon="9.754973070215055"><ele>246.0</ele><time>2026-04-25T09:08:52Z</time></trkpt><trkpt lat="45.681186673611585" lon="9.754708599177066"><ele>245.33333333333331</ele><time>2026-04-25T09:08:53Z</time></trkpt><trkpt lat="45.68113040685254" lon="9.75444472370455"><ele>244.66666666666666</ele><time>2026-04-25T09:08:54Z</time></trkpt><trkpt lat="45.681074997200305" lon="9.75418356307833"><ele>244.0</ele><time>2026-04-25T09:08:55Z</time></trkpt><trkpt lat="45.681020065429664" lon="9.753923789433195"><ele>244.0</ele><time>2026-04-25T09:08:56Z</time></trkpt><trkpt lat="45.680964373455744" lon="9.753662208523268"><ele>244.0</ele><time>2026-04-25T09:08:57Z</time></trkpt><trkpt lat="45.68090845303318" lon="9.753402034494343"><ele>244.0</ele><time>2026-04-25T09:08:58Z</time></trkpt><trkpt lat="45.68085127937525" lon="9.75313363811438"><ele>244.0</ele><time>2026-04-25T09:08:59Z</time></trkpt><trkpt lat="45.68079287500287" lon="9.752858719799367"><ele>244.0</ele><time>2026-04-25T09:09:00Z</time></trkpt><trkpt lat="45.68073184613374" lon="9.752570713925573"><ele>244.0</ele><time>2026-04-25T09:09:01Z</time></trkpt><trkpt lat="45.680669662594255" lon="9.75227589796073"><ele>243.66666666666666</ele><time>2026-04-25T09:09:02Z</time></trkpt><trkpt lat="45.68060856296376" lon="9.751984652662712"><ele>243.33333333333331</ele><time>2026-04-25T09:09:03Z</time></trkpt><trkpt lat="45.68054622149355" lon="9.75168966708683"><ele>243.0</ele><time>2026-04-25T09:09:04Z</time></trkpt><trkpt lat="45.68048245206251" lon="9.75139874546895"><ele>243.66666666666669</ele><time>2026-04-25T09:09:05Z</time></trkpt><trkpt lat="45.680417941209036" lon="9.751107561417461"><ele>244.33333333333334</ele><time>2026-04-25T09:09:06Z</time></trkpt><trkpt lat="45.68034943971091" lon="9.7508242662596"><ele>245.0</ele><time>2026-04-25T09:09:07Z</time></trkpt><trkpt lat="45.680275332195535" lon="9.750541370881484"><ele>245.0</ele><time>2026-04-25T09:09:08Z</time></trkpt><trkpt lat="45.68019340067317" lon="9.750257965025307"><ele>245.0</ele><time>2026-04-25T09:09:09Z</time></trkpt><trkpt lat="45.68010089273589" lon="9.74997105847349"><ele>245.0</ele><time>2026-04-25T09:09:10Z</time></trkpt><trkpt lat="45.67999902488776" lon="9.749675524654448"><ele>245.0</ele><time>2026-04-25T09:09:11Z</time></trkpt><trkpt lat="45.67989463926423" lon="9.749385696689522"><ele>245.0</ele><time>2026-04-25T09:09:12Z</time></trkpt><trkpt lat="45.679778010677644" lon="9.749107569647009"><ele>245.0</ele><time>2026-04-25T09:09:13Z</time></trkpt><trkpt lat="45.679652904073365" lon="9.748848079157831"><ele>245.0</ele><time>2026-04-25T09:09:14Z</time></trkpt><trkpt lat="45.679510425327805" lon="9.74860158991071"><ele>245.0</ele><time>2026-04-25T09:09:15Z</time></trkpt><trkpt lat="45.6793720678262" lon="9.748353168002247"><ele>245.33333333333334</ele><time>2026-04-25T09:09:16Z</time></trkpt><trkpt lat="45.67922164268829" lon="9.748119213927609"><ele>245.66666666666669</ele><time>2026-04-25T09:09:17Z</time></trkpt><trkpt lat="45.679065617529304" lon="9.747900876342673"><ele>246.0</ele><time>2026-04-25T09:09:18Z</time></trkpt><trkpt lat="45.67890267468281" lon="9.747695038674866"><ele>246.0</ele><time>2026-04-25T09:09:19Z</time></trkpt><trkpt lat="45.678737827373276" lon="9.747505501603717"><ele>246.0</ele><time>2026-04-25T09:09:20Z</time></trkpt><trkpt lat="45.678566571459925" lon="9.747329630157738"><ele>246.0</ele><time>2026-04-25T09:09:21Z</time></trkpt><trkpt lat="45.678390492366994" lon="9.74716666988336"><ele>246.0</ele><time>2026-04-25T09:09:22Z</time></trkpt><trkpt lat="45.678209073287086" lon="9.747016211229209"><ele>246.0</ele><time>2026-04-25T09:09:23Z</time></trkpt><trkpt lat="45.67802670377872" lon="9.746874572528183"><ele>246.0</ele><time>2026-04-25T09:09:24Z</time></trkpt><trkpt lat="45.67783934028148" lon="9.746747959174886"><ele>245.66666666666669</ele><time>2026-04-25T09:09:25Z</time></trkpt><trkpt lat="45.6776440022253" lon="9.746630815305041"><ele>245.33333333333334</ele><time>2026-04-25T09:09:26Z</time></trkpt><trkpt lat="45.67744430264782" lon="9.746527687629058"><ele>245.0</ele><time>2026-04-25T09:09:27Z</time></trkpt><trkpt lat="45.67723950952572" lon="9.746434865097346"><ele>245.0</ele><time>2026-04-25T09:09:28Z</time></trkpt><trkpt lat="45.677030437717214" lon="9.74635540073908"><ele>245.0</ele><time>2026-04-25T09:09:29Z</time></trkpt><trkpt lat="45.67681631738057" lon="9.746285091855311"><ele>245.0</ele><time>2026-04-25T09:09:30Z</time></trkpt><trkpt lat="45.6765985680346" lon="9.746217339267252"><ele>245.0</ele><time>2026-04-25T09:09:31Z</time></trkpt><trkpt lat="45.6763695745951" lon="9.74614585358601"><ele>245.0</ele><time>2026-04-25T09:09:32Z</time></trkpt><trkpt lat="45.67612358314931" lon="9.746072640893487"><ele>243.5</ele><time>2026-04-25T09:09:33Z</time></trkpt><trkpt lat="45.67586915134972" lon="9.745992845082068"><ele>242.0</ele><time>2026-04-25T09:09:34Z</time></trkpt><trkpt lat="45.67561461034725" lon="9.745900619424392"><ele>242.0</ele><time>2026-04-25T09:09:35Z</time></trkpt><trkpt lat="45.675362423350116" lon="9.745789468291763"><ele>242.0</ele><time>2026-04-25T09:09:36Z</time></trkpt><trkpt lat="45.675117413810085" lon="9.745660959521745"><ele>241.5</ele><time>2026-04-25T09:09:37Z</time></trkpt><trkpt lat="45.67487930964297" lon="9.745504821211508"><ele>241.0</ele><time>2026-04-25T09:09:38Z</time></trkpt><trkpt lat="45.674644744028164" lon="9.745333501315965"><ele>241.5</ele><time>2026-04-25T09:09:39Z</time></trkpt><trkpt lat="45.674418333069866" lon="9.745137676042399"><ele>242.0</ele><time>2026-04-25T09:09:40Z</time></trkpt><trkpt lat="45.674197835463836" lon="9.74492853013623"><ele>242.0</ele><time>2026-04-25T09:09:41Z</time></trkpt><trkpt lat="45.67397993688571" lon="9.744708887436078"><ele>242.0</ele><time>2026-04-25T09:09:42Z</time></trkpt><trkpt lat="45.6737659787161" lon="9.74448243930348"><ele>241.0</ele><time>2026-04-25T09:09:43Z</time></trkpt><trkpt lat="45.6735519437141" lon="9.74425562191655"><ele>240.0</ele><time>2026-04-25T09:09:44Z</time></trkpt><trkpt lat="45.67333840071683" lon="9.744028575841353"><ele>240.0</ele><time>2026-04-25T09:09:45Z</time></trkpt><trkpt lat="45.67312497895123" lon="9.743806565588137"><ele>240.0</ele><time>2026-04-25T09:09:46Z</time></trkpt><trkpt lat="45.6729103823558" lon="9.743585984183973"><ele>239.5</ele><time>2026-04-25T09:09:47Z</time></trkpt><trkpt lat="45.672698321232794" lon="9.743372793601022"><ele>239.0</ele><time>2026-04-25T09:09:48Z</time></trkpt><trkpt lat="45.67248330194649" lon="9.743176640705952"><ele>239.0</ele><time>2026-04-25T09:09:49Z</time></trkpt><trkpt lat="45.6722662293298" lon="9.742993563636892"><ele>239.0</ele><time>2026-04-25T09:09:50Z</time></trkpt><trkpt lat="45.67204845233189" lon="9.742822512017437"><ele>238.5</ele><time>2026-04-25T09:09:51Z</time></trkpt><trkpt lat="45.67183167108732" lon="9.742672185717383"><ele>238.0</ele><time>2026-04-25T09:09:52Z</time></trkpt><trkpt lat="45.67161882664584" lon="9.742539272436522"><ele>238.0</ele><time>2026-04-25T09:09:53Z</time></trkpt><trkpt lat="45.67141519062478" lon="9.742415186802253"><ele>238.0</ele><time>2026-04-25T09:09:54Z</time></trkpt><trkpt lat="45.67122102528999" lon="9.742305787135859"><ele>238.0</ele><time>2026-04-25T09:09:55Z</time></trkpt><trkpt lat="45.671035382838504" lon="9.742196253754534"><ele>238.33333333333331</ele><time>2026-04-25T09:09:56Z</time></trkpt><trkpt lat="45.670852111953195" lon="9.742084259891797"><ele>238.66666666666669</ele><time>2026-04-25T09:09:57Z</time></trkpt><trkpt lat="45.670668981574565" lon="9.741971012310584"><ele>239.0</ele><time>2026-04-25T09:09:58Z</time></trkpt><trkpt lat="45.67048616189189" lon="9.741851271496023"><ele>239.0</ele><time>2026-04-25T09:09:59Z</time></trkpt><trkpt lat="45.670306241237796" lon="9.741734414867588"><ele>239.0</ele><time>2026-04-25T09:10:00Z</time></trkpt><trkpt lat="45.67012717140241" lon="9.741624540694735"><ele>239.0</ele><time>2026-04-25T09:10:01Z</time></trkpt><trkpt lat="45.669953611204726" lon="9.74151849396125"><ele>239.0</ele><time>2026-04-25T09:10:02Z</time></trkpt><trkpt lat="45.6697866087546" lon="9.741413972018128"><ele>239.0</ele><time>2026-04-25T09:10:03Z</time></trkpt><trkpt lat="45.6696254326522" lon="9.741315849752878"><ele>239.0</ele><time>2026-04-25T09:10:04Z</time></trkpt><trkpt lat="45.66947393227377" lon="9.741216163374348"><ele>238.66666666666669</ele><time>2026-04-25T09:10:05Z</time></trkpt><trkpt lat="45.66933272657578" lon="9.741105102197158"><ele>238.33333333333331</ele><time>2026-04-25T09:10:06Z</time></trkpt><trkpt lat="45.66920153440784" lon="9.74097546358489"><ele>238.0</ele><time>2026-04-25T09:10:07Z</time></trkpt><trkpt lat="45.66907752892812" lon="9.740826081051088"><ele>237.0</ele><time>2026-04-25T09:10:08Z</time></trkpt><trkpt lat="45.66895547263404" lon="9.740665729208919"><ele>236.0</ele><time>2026-04-25T09:10:09Z</time></trkpt><trkpt lat="45.66884371587197" lon="9.74049705101996"><ele>235.0</ele><time>2026-04-25T09:10:10Z</time></trkpt><trkpt lat="45.668747819424034" lon="9.740316850377035"><ele>234.0</ele><time>2026-04-25T09:10:11Z</time></trkpt><trkpt lat="45.6686644160246" lon="9.740134536861037"><ele>233.0</ele><time>2026-04-25T09:10:12Z</time></trkpt><trkpt lat="45.6685933918037" lon="9.739947894040569"><ele>232.0</ele><time>2026-04-25T09:10:13Z</time></trkpt><trkpt lat="45.66853375679463" lon="9.739755341497299"><ele>231.0</ele><time>2026-04-25T09:10:14Z</time></trkpt><trkpt lat="45.668486088652365" lon="9.739550527467385"><ele>231.0</ele><time>2026-04-25T09:10:15Z</time></trkpt><trkpt lat="45.66845482515627" lon="9.739335431537087"><ele>231.0</ele><time>2026-04-25T09:10:16Z</time></trkpt><trkpt lat="45.668440076191786" lon="9.73911499246097"><ele>231.0</ele><time>2026-04-25T09:10:17Z</time></trkpt><trkpt lat="45.66843931835039" lon="9.738892550965636"><ele>231.0</ele><time>2026-04-25T09:10:18Z</time></trkpt><trkpt lat="45.66844330754804" lon="9.738671161108316"><ele>231.0</ele><time>2026-04-25T09:10:19Z</time></trkpt><trkpt lat="45.66845855177142" lon="9.73845278417725"><ele>231.0</ele><time>2026-04-25T09:10:20Z</time></trkpt><trkpt lat="45.66848032819233" lon="9.738255240539846"><ele>231.0</ele><time>2026-04-25T09:10:21Z</time></trkpt><trkpt lat="45.66850097502537" lon="9.738056566709783"><ele>231.0</ele><time>2026-04-25T09:10:22Z</time></trkpt><trkpt lat="45.668521745431505" lon="9.737858537945588"><ele>231.0</ele><time>2026-04-25T09:10:23Z</time></trkpt><trkpt lat="45.668539541488435" lon="9.737667141225906"><ele>231.0</ele><time>2026-04-25T09:10:24Z</time></trkpt><trkpt lat="45.66855682500347" lon="9.73747692277037"><ele>231.0</ele><time>2026-04-25T09:10:24.999Z</time></trkpt><trkpt lat="45.668571805410245" lon="9.737285162146188"><ele>231.0</ele><time>2026-04-25T09:10:25.999Z</time></trkpt><trkpt lat="45.66857797789942" lon="9.737089714729125"><ele>231.0</ele><time>2026-04-25T09:10:26.999Z</time></trkpt><trkpt lat="45.66857426046806" lon="9.736887677348417"><ele>231.0</ele><time>2026-04-25T09:10:27.999Z</time></trkpt><trkpt lat="45.66856013911716" lon="9.736681803792896"><ele>231.0</ele><time>2026-04-25T09:10:28.999Z</time></trkpt><trkpt lat="45.66853710414037" lon="9.736475733614538"><ele>231.25</ele><time>2026-04-25T09:10:29.999Z</time></trkpt><trkpt lat="45.66850408049695" lon="9.736268229396678"><ele>231.5</ele><time>2026-04-25T09:10:30.999Z</time></trkpt><trkpt lat="45.66846349437421" lon="9.736061408155747"><ele>231.75</ele><time>2026-04-25T09:10:31.999Z</time></trkpt><trkpt lat="45.66841305996765" lon="9.73586454871389"><ele>232.0</ele><time>2026-04-25T09:10:32.999Z</time></trkpt><trkpt lat="45.668349123095844" lon="9.735667336256327"><ele>231.66666666666666</ele><time>2026-04-25T09:10:33.999Z</time></trkpt><trkpt lat="45.66827149831295" lon="9.73547934751013"><ele>231.33333333333331</ele><time>2026-04-25T09:10:35Z</time></trkpt><trkpt lat="45.66819082181927" lon="9.735290649392645"><ele>231.0</ele><time>2026-04-25T09:10:36Z</time></trkpt><trkpt lat="45.66810991642312" lon="9.73510313978407"><ele>231.0</ele><time>2026-04-25T09:10:37Z</time></trkpt><trkpt lat="45.66804157722542" lon="9.73491812129766"><ele>231.0</ele><time>2026-04-25T09:10:38Z</time></trkpt><trkpt lat="45.66804338740117" lon="9.734630295993194"><ele>231.0</ele><time>2026-04-25T09:10:39Z</time></trkpt><trkpt lat="45.66802088581666" lon="9.7344162332346"><ele>231.0</ele><time>2026-04-25T09:10:40Z</time></trkpt><trkpt lat="45.668007773545675" lon="9.734198755105776"><ele>231.0</ele><time>2026-04-25T09:10:41Z</time></trkpt><trkpt lat="45.668001236837235" lon="9.733976196174481"><ele>231.0</ele><time>2026-04-25T09:10:42Z</time></trkpt><trkpt lat="45.66800105123889" lon="9.733752021107678"><ele>231.33333333333331</ele><time>2026-04-25T09:10:43Z</time></trkpt><trkpt lat="45.66799779518682" lon="9.733529176706162"><ele>231.66666666666666</ele><time>2026-04-25T09:10:44Z</time></trkpt><trkpt lat="45.66800011617778" lon="9.733299487205482"><ele>232.0</ele><time>2026-04-25T09:10:45Z</time></trkpt><trkpt lat="45.66801054614985" lon="9.733066080816586"><ele>232.0</ele><time>2026-04-25T09:10:46Z</time></trkpt><trkpt lat="45.6680284517155" lon="9.732834680175534"><ele>232.0</ele><time>2026-04-25T09:10:47Z</time></trkpt><trkpt lat="45.66804514633578" lon="9.732600905176499"><ele>232.0</ele><time>2026-04-25T09:10:48Z</time></trkpt><trkpt lat="45.668064342837894" lon="9.732354355453063"><ele>232.0</ele><time>2026-04-25T09:10:49Z</time></trkpt><trkpt lat="45.66808127198644" lon="9.732098414145511"><ele>232.0</ele><time>2026-04-25T09:10:50Z</time></trkpt><trkpt lat="45.668105737769864" lon="9.731840495563276"><ele>232.0</ele><time>2026-04-25T09:10:51Z</time></trkpt><trkpt lat="45.66813556382986" lon="9.731576260255933"><ele>232.0</ele><time>2026-04-25T09:10:52Z</time></trkpt><trkpt lat="45.66817088798557" lon="9.731304536973843"><ele>232.0</ele><time>2026-04-25T09:10:53Z</time></trkpt><trkpt lat="45.668210772287985" lon="9.73103106004645"><ele>232.0</ele><time>2026-04-25T09:10:54Z</time></trkpt><trkpt lat="45.66825712538557" lon="9.730757667329875"><ele>232.33333333333331</ele><time>2026-04-25T09:10:55Z</time></trkpt><trkpt lat="45.66829884367792" lon="9.730496631011984"><ele>232.66666666666669</ele><time>2026-04-25T09:10:56Z</time></trkpt><trkpt lat="45.66834740283483" lon="9.730227631725505"><ele>233.0</ele><time>2026-04-25T09:10:57Z</time></trkpt><trkpt lat="45.66839869046544" lon="9.72996047476843"><ele>233.0</ele><time>2026-04-25T09:10:58Z</time></trkpt><trkpt lat="45.66846026932241" lon="9.729701043799055"><ele>233.0</ele><time>2026-04-25T09:10:59Z</time></trkpt><trkpt lat="45.668524794940446" lon="9.729437417499676"><ele>233.0</ele><time>2026-04-25T09:11:00Z</time></trkpt><trkpt lat="45.66859093488731" lon="9.729170241828232"><ele>231.66666666666669</ele><time>2026-04-25T09:11:01Z</time></trkpt><trkpt lat="45.66866372645727" lon="9.728914844906281"><ele>230.33333333333331</ele><time>2026-04-25T09:11:02Z</time></trkpt><trkpt lat="45.66874065016434" lon="9.728653390747487"><ele>229.0</ele><time>2026-04-25T09:11:03Z</time></trkpt><trkpt lat="45.66882177166637" lon="9.728392980960944"><ele>228.66666666666666</ele><time>2026-04-25T09:11:04Z</time></trkpt><trkpt lat="45.66890676093857" lon="9.72813441164278"><ele>228.33333333333331</ele><time>2026-04-25T09:11:05Z</time></trkpt><trkpt lat="45.66900020850938" lon="9.727879938875315"><ele>228.0</ele><time>2026-04-25T09:11:06Z</time></trkpt><trkpt lat="45.66909487372047" lon="9.727625580733749"><ele>229.0</ele><time>2026-04-25T09:11:07Z</time></trkpt><trkpt lat="45.66919466950398" lon="9.727363695723298"><ele>230.0</ele><time>2026-04-25T09:11:08Z</time></trkpt><trkpt lat="45.669298047090535" lon="9.727110526635542"><ele>231.0</ele><time>2026-04-25T09:11:09Z</time></trkpt><trkpt lat="45.66940402410613" lon="9.726857985523937"><ele>231.33333333333331</ele><time>2026-04-25T09:11:10Z</time></trkpt><trkpt lat="45.66951513389785" lon="9.726607247315927"><ele>231.66666666666666</ele><time>2026-04-25T09:11:11Z</time></trkpt><trkpt lat="45.66962322192195" lon="9.726350627694519"><ele>232.0</ele><time>2026-04-25T09:11:12Z</time></trkpt><trkpt lat="45.66973152782447" lon="9.72609083611964"><ele>232.33333333333331</ele><time>2026-04-25T09:11:13Z</time></trkpt><trkpt lat="45.6698386451612" lon="9.725836874556052"><ele>232.66666666666669</ele><time>2026-04-25T09:11:14Z</time></trkpt><trkpt lat="45.669948313758965" lon="9.72557969362258"><ele>233.0</ele><time>2026-04-25T09:11:15Z</time></trkpt><trkpt lat="45.670056838951886" lon="9.72532394763239"><ele>233.0</ele><time>2026-04-25T09:11:16Z</time></trkpt><trkpt lat="45.67017269136357" lon="9.725072660778364"><ele>233.0</ele><time>2026-04-25T09:11:17Z</time></trkpt><trkpt lat="45.67028545485547" lon="9.724817882981576"><ele>233.0</ele><time>2026-04-25T09:11:18Z</time></trkpt><trkpt lat="45.670388370144195" lon="9.724552828217554"><ele>232.33333333333334</ele><time>2026-04-25T09:11:19Z</time></trkpt><trkpt lat="45.6704908092857" lon="9.72430391149631"><ele>231.66666666666669</ele><time>2026-04-25T09:11:20Z</time></trkpt><trkpt lat="45.67059815252731" lon="9.724069623646507"><ele>231.0</ele><time>2026-04-25T09:11:21Z</time></trkpt><trkpt lat="45.670699870283" lon="9.723815499491888"><ele>231.66666666666669</ele><time>2026-04-25T09:11:22Z</time></trkpt><trkpt lat="45.6708013467018" lon="9.723538694602212"><ele>232.33333333333334</ele><time>2026-04-25T09:11:23Z</time></trkpt><trkpt lat="45.67090772516475" lon="9.723274460156214"><ele>233.0</ele><time>2026-04-25T09:11:24Z</time></trkpt><trkpt lat="45.671017028075916" lon="9.72302231771161"><ele>233.0</ele><time>2026-04-25T09:11:25Z</time></trkpt><trkpt lat="45.671125136628376" lon="9.722760199300318"><ele>233.0</ele><time>2026-04-25T09:11:26Z</time></trkpt><trkpt lat="45.67123718365287" lon="9.722493634433523"><ele>233.0</ele><time>2026-04-25T09:11:27Z</time></trkpt><trkpt lat="45.67134891877288" lon="9.72223030772885"><ele>233.33333333333334</ele><time>2026-04-25T09:11:28Z</time></trkpt><trkpt lat="45.6714624926056" lon="9.721970704527822"><ele>233.66666666666669</ele><time>2026-04-25T09:11:29Z</time></trkpt><trkpt lat="45.671577265412424" lon="9.72171052400734"><ele>234.0</ele><time>2026-04-25T09:11:30Z</time></trkpt><trkpt lat="45.6716892236431" lon="9.72144515465977"><ele>234.33333333333331</ele><time>2026-04-25T09:11:31Z</time></trkpt><trkpt lat="45.67179982293273" lon="9.721186227735485"><ele>234.66666666666666</ele><time>2026-04-25T09:11:32Z</time></trkpt><trkpt lat="45.671911421807664" lon="9.720926442677843"><ele>235.0</ele><time>2026-04-25T09:11:33Z</time></trkpt><trkpt lat="45.672021998810465" lon="9.720669624830498"><ele>235.33333333333331</ele><time>2026-04-25T09:11:34Z</time></trkpt><trkpt lat="45.672131527979516" lon="9.72040781899289"><ele>235.66666666666669</ele><time>2026-04-25T09:11:35Z</time></trkpt><trkpt lat="45.67224106879199" lon="9.720150185625318"><ele>236.0</ele><time>2026-04-25T09:11:36Z</time></trkpt><trkpt lat="45.67234870652813" lon="9.719888729171632"><ele>236.0</ele><time>2026-04-25T09:11:37Z</time></trkpt><trkpt lat="45.67245583274462" lon="9.719630677581623"><ele>236.0</ele><time>2026-04-25T09:11:38Z</time></trkpt><trkpt lat="45.672562607328366" lon="9.719375611699729"><ele>236.0</ele><time>2026-04-25T09:11:39Z</time></trkpt><trkpt lat="45.67266835652296" lon="9.719120966600277"><ele>236.0</ele><time>2026-04-25T09:11:40Z</time></trkpt><trkpt lat="45.67277330720479" lon="9.718866986113072"><ele>236.0</ele><time>2026-04-25T09:11:41Z</time></trkpt><trkpt lat="45.672878297532584" lon="9.718612262217407"><ele>236.0</ele><time>2026-04-25T09:11:42Z</time></trkpt><trkpt lat="45.67298110530089" lon="9.71835566764506"><ele>236.0</ele><time>2026-04-25T09:11:43Z</time></trkpt><trkpt lat="45.67308214830581" lon="9.718102831958984"><ele>236.0</ele><time>2026-04-25T09:11:44Z</time></trkpt><trkpt lat="45.67318187983416" lon="9.717847608264913"><ele>236.0</ele><time>2026-04-25T09:11:45Z</time></trkpt><trkpt lat="45.67328290511584" lon="9.717593317485267"><ele>236.0</ele><time>2026-04-25T09:11:46Z</time></trkpt><trkpt lat="45.67338361336764" lon="9.717340604124335"><ele>236.0</ele><time>2026-04-25T09:11:47Z</time></trkpt><trkpt lat="45.67348215044299" lon="9.717087958548634"><ele>236.0</ele><time>2026-04-25T09:11:48Z</time></trkpt><trkpt lat="45.673580743428076" lon="9.716835892019793"><ele>237.0</ele><time>2026-04-25T09:11:49Z</time></trkpt><trkpt lat="45.67367652194215" lon="9.716582000115187"><ele>238.0</ele><time>2026-04-25T09:11:50Z</time></trkpt><trkpt lat="45.67376938940558" lon="9.716323513839548"><ele>239.0</ele><time>2026-04-25T09:11:51Z</time></trkpt><trkpt lat="45.67385648037473" lon="9.716063155629366"><ele>239.0</ele><time>2026-04-25T09:11:52Z</time></trkpt><trkpt lat="45.67394871264614" lon="9.715800999902669"><ele>239.0</ele><time>2026-04-25T09:11:53Z</time></trkpt><trkpt lat="45.67404267728319" lon="9.715537824572506"><ele>239.0</ele><time>2026-04-25T09:11:54Z</time></trkpt><trkpt lat="45.67413459835129" lon="9.715278095799292"><ele>239.33333333333334</ele><time>2026-04-25T09:11:55Z</time></trkpt><trkpt lat="45.67422539297617" lon="9.715016624681128"><ele>239.66666666666669</ele><time>2026-04-25T09:11:56Z</time></trkpt><trkpt lat="45.674318705375775" lon="9.714755570038388"><ele>240.0</ele><time>2026-04-25T09:11:57Z</time></trkpt><trkpt lat="45.67441118055435" lon="9.714492769715752"><ele>240.33333333333331</ele><time>2026-04-25T09:11:58Z</time></trkpt><trkpt lat="45.674502312524154" lon="9.714227206203867"><ele>240.66666666666666</ele><time>2026-04-25T09:11:59Z</time></trkpt><trkpt lat="45.67459461312353" lon="9.713960350274666"><ele>241.0</ele><time>2026-04-25T09:12:00Z</time></trkpt><trkpt lat="45.674685667455" lon="9.713693001635075"><ele>241.0</ele><time>2026-04-25T09:12:01Z</time></trkpt><trkpt lat="45.674778346931134" lon="9.713426736326538"><ele>241.0</ele><time>2026-04-25T09:12:02Z</time></trkpt><trkpt lat="45.674869165121116" lon="9.713154976811676"><ele>241.0</ele><time>2026-04-25T09:12:03Z</time></trkpt><trkpt lat="45.67496235704522" lon="9.712883144516777"><ele>241.66666666666666</ele><time>2026-04-25T09:12:04Z</time></trkpt><trkpt lat="45.675052744582295" lon="9.712610761727033"><ele>242.33333333333331</ele><time>2026-04-25T09:12:05Z</time></trkpt><trkpt lat="45.67514709186187" lon="9.712338970247497"><ele>243.0</ele><time>2026-04-25T09:12:06Z</time></trkpt><trkpt lat="45.6752427317424" lon="9.712066087592587"><ele>244.66666666666669</ele><time>2026-04-25T09:12:07Z</time></trkpt><trkpt lat="45.67534260076127" lon="9.711793401393365"><ele>246.33333333333334</ele><time>2026-04-25T09:12:08Z</time></trkpt><trkpt lat="45.67544210603812" lon="9.711519806904592"><ele>248.0</ele><time>2026-04-25T09:12:09Z</time></trkpt><trkpt lat="45.675541625409984" lon="9.711246571971202"><ele>247.0</ele><time>2026-04-25T09:12:10Z</time></trkpt><trkpt lat="45.6756457320021" lon="9.71096608131491"><ele>246.0</ele><time>2026-04-25T09:12:11Z</time></trkpt><trkpt lat="45.67575135866365" lon="9.710694427650242"><ele>245.0</ele><time>2026-04-25T09:12:12Z</time></trkpt><trkpt lat="45.67586078552922" lon="9.71042278823043"><ele>245.0</ele><time>2026-04-25T09:12:13Z</time></trkpt><trkpt lat="45.675974118050235" lon="9.710157101320604"><ele>245.0</ele><time>2026-04-25T09:12:14Z</time></trkpt><trkpt lat="45.676091024749695" lon="9.709890048555552"><ele>245.0</ele><time>2026-04-25T09:12:15Z</time></trkpt><trkpt lat="45.676208800074534" lon="9.70962516323461"><ele>244.33333333333334</ele><time>2026-04-25T09:12:16Z</time></trkpt><trkpt lat="45.676325042236236" lon="9.709360391336423"><ele>243.66666666666669</ele><time>2026-04-25T09:12:17Z</time></trkpt><trkpt lat="45.676444150679096" lon="9.709096441648827"><ele>243.0</ele><time>2026-04-25T09:12:18Z</time></trkpt><trkpt lat="45.67656309193985" lon="9.708832891734067"><ele>243.33333333333331</ele><time>2026-04-25T09:12:19Z</time></trkpt><trkpt lat="45.676682829036245" lon="9.70857103874872"><ele>243.66666666666666</ele><time>2026-04-25T09:12:20Z</time></trkpt><trkpt lat="45.67680527274794" lon="9.70830759140519"><ele>244.0</ele><time>2026-04-25T09:12:21Z</time></trkpt><trkpt lat="45.676930550140455" lon="9.708047267672942"><ele>244.0</ele><time>2026-04-25T09:12:22Z</time></trkpt><trkpt lat="45.677057324563556" lon="9.707789569505772"><ele>244.0</ele><time>2026-04-25T09:12:22.999Z</time></trkpt><trkpt lat="45.677185145038486" lon="9.707532619447814"><ele>244.0</ele><time>2026-04-25T09:12:23.999Z</time></trkpt><trkpt lat="45.67731316295807" lon="9.70727671838118"><ele>244.0</ele><time>2026-04-25T09:12:24.999Z</time></trkpt><trkpt lat="45.67744245354261" lon="9.707019768748529"><ele>244.0</ele><time>2026-04-25T09:12:25.999Z</time></trkpt><trkpt lat="45.67757069093192" lon="9.706762833681333"><ele>244.0</ele><time>2026-04-25T09:12:26.999Z</time></trkpt><trkpt lat="45.67769871353593" lon="9.70650564039901"><ele>244.66666666666666</ele><time>2026-04-25T09:12:27.999Z</time></trkpt><trkpt lat="45.67782571081869" lon="9.706247198932044"><ele>245.33333333333331</ele><time>2026-04-25T09:12:28.999Z</time></trkpt><trkpt lat="45.67795590252758" lon="9.705993403522227"><ele>246.0</ele><time>2026-04-25T09:12:29.999Z</time></trkpt><trkpt lat="45.67808520041534" lon="9.70573699690791"><ele>246.0</ele><time>2026-04-25T09:12:30.999Z</time></trkpt><trkpt lat="45.67821343742799" lon="9.705481644476961"><ele>246.0</ele><time>2026-04-25T09:12:31.999Z</time></trkpt><trkpt lat="45.678343655496505" lon="9.70522243935543"><ele>246.0</ele><time>2026-04-25T09:12:32.999Z</time></trkpt><trkpt lat="45.678472058832746" lon="9.704969337822051"><ele>246.0</ele><time>2026-04-25T09:12:33.999Z</time></trkpt><trkpt lat="45.67860105933321" lon="9.704707399504601"><ele>246.0</ele><time>2026-04-25T09:12:34.999Z</time></trkpt><trkpt lat="45.6787265742273" lon="9.704451396456635"><ele>246.0</ele><time>2026-04-25T09:12:35.999Z</time></trkpt><trkpt lat="45.67884561688613" lon="9.704185898886012"><ele>246.66666666666669</ele><time>2026-04-25T09:12:36.999Z</time></trkpt><trkpt lat="45.67895690189832" lon="9.703915553009866"><ele>247.33333333333334</ele><time>2026-04-25T09:12:37.999Z</time></trkpt><trkpt lat="45.67905574210759" lon="9.703639169846422"><ele>248.0</ele><time>2026-04-25T09:12:38.999Z</time></trkpt><trkpt lat="45.67914750396857" lon="9.703355016251171"><ele>248.0</ele><time>2026-04-25T09:12:39.999Z</time></trkpt><trkpt lat="45.6792308828287" lon="9.703067097170466"><ele>248.0</ele><time>2026-04-25T09:12:41Z</time></trkpt><trkpt lat="45.67930375839604" lon="9.702771878979314"><ele>248.0</ele><time>2026-04-25T09:12:42Z</time></trkpt><trkpt lat="45.67936500475618" lon="9.702476351046151"><ele>248.0</ele><time>2026-04-25T09:12:43Z</time></trkpt><trkpt lat="45.67941619294284" lon="9.70218030426304"><ele>248.0</ele><time>2026-04-25T09:12:44Z</time></trkpt><trkpt lat="45.67945612849182" lon="9.701880423610735"><ele>248.0</ele><time>2026-04-25T09:12:45Z</time></trkpt><trkpt lat="45.67948894534494" lon="9.701579463139995"><ele>247.66666666666669</ele><time>2026-04-25T09:12:46Z</time></trkpt><trkpt lat="45.67951359804023" lon="9.70127757648264"><ele>247.33333333333331</ele><time>2026-04-25T09:12:47Z</time></trkpt><trkpt lat="45.67953285194778" lon="9.700977882274975"><ele>247.0</ele><time>2026-04-25T09:12:48Z</time></trkpt><trkpt lat="45.67954556394774" lon="9.70067863525974"><ele>247.0</ele><time>2026-04-25T09:12:49Z</time></trkpt><trkpt lat="45.679556430995234" lon="9.700373908565817"><ele>247.0</ele><time>2026-04-25T09:12:50Z</time></trkpt><trkpt lat="45.67956897106978" lon="9.700076670431574"><ele>247.0</ele><time>2026-04-25T09:12:51Z</time></trkpt><trkpt lat="45.679580259531626" lon="9.69977346702081"><ele>247.33333333333331</ele><time>2026-04-25T09:12:52Z</time></trkpt><trkpt lat="45.679590410211624" lon="9.699476671639665"><ele>247.66666666666669</ele><time>2026-04-25T09:12:53Z</time></trkpt><trkpt lat="45.67960045864296" lon="9.699177502433784"><ele>248.0</ele><time>2026-04-25T09:12:54Z</time></trkpt><trkpt lat="45.679609577129895" lon="9.698881833002346"><ele>248.33333333333334</ele><time>2026-04-25T09:12:55Z</time></trkpt><trkpt lat="45.67961625389695" lon="9.698582751419531"><ele>248.66666666666669</ele><time>2026-04-25T09:12:56Z</time></trkpt><trkpt lat="45.67962400116398" lon="9.698283378087002"><ele>249.0</ele><time>2026-04-25T09:12:57Z</time></trkpt><trkpt lat="45.679633455555425" lon="9.697992043347666"><ele>248.0</ele><time>2026-04-25T09:12:58Z</time></trkpt><trkpt lat="45.67964322289194" lon="9.697694306969138"><ele>247.0</ele><time>2026-04-25T09:12:59Z</time></trkpt><trkpt lat="45.679652675661906" lon="9.697398454924542"><ele>246.0</ele><time>2026-04-25T09:13:00Z</time></trkpt><trkpt lat="45.679661199864896" lon="9.6971034332692"><ele>245.33333333333331</ele><time>2026-04-25T09:13:01Z</time></trkpt><trkpt lat="45.67967212143198" lon="9.696806356231344"><ele>244.66666666666666</ele><time>2026-04-25T09:13:02Z</time></trkpt><trkpt lat="45.67968076024522" lon="9.696509850953843"><ele>244.0</ele><time>2026-04-25T09:13:03Z</time></trkpt><trkpt lat="45.679688143962814" lon="9.696212491013426"><ele>244.33333333333331</ele><time>2026-04-25T09:13:04Z</time></trkpt><trkpt lat="45.67969745677523" lon="9.695917742332487"><ele>244.66666666666669</ele><time>2026-04-25T09:13:05Z</time></trkpt><trkpt lat="45.67970610587986" lon="9.69561489168954"><ele>245.0</ele><time>2026-04-25T09:13:06Z</time></trkpt><trkpt lat="45.67971693056973" lon="9.695316986398414"><ele>245.0</ele><time>2026-04-25T09:13:07Z</time></trkpt><trkpt lat="45.67972895303615" lon="9.695018449984794"><ele>245.0</ele><time>2026-04-25T09:13:08Z</time></trkpt><trkpt lat="45.67973900907512" lon="9.694721509515611"><ele>245.0</ele><time>2026-04-25T09:13:09Z</time></trkpt><trkpt lat="45.67974686152215" lon="9.694419812968885"><ele>244.66666666666669</ele><time>2026-04-25T09:13:10Z</time></trkpt><trkpt lat="45.679752979381874" lon="9.694122385472566"><ele>244.33333333333331</ele><time>2026-04-25T09:13:11Z</time></trkpt><trkpt lat="45.679753579278604" lon="9.69381860731957"><ele>244.0</ele><time>2026-04-25T09:13:12Z</time></trkpt><trkpt lat="45.67974585821105" lon="9.693516688912117"><ele>244.0</ele><time>2026-04-25T09:13:13Z</time></trkpt><trkpt lat="45.679734928809054" lon="9.693215239540798"><ele>244.0</ele><time>2026-04-25T09:13:14Z</time></trkpt><trkpt lat="45.67971757334683" lon="9.692908117836268"><ele>244.0</ele><time>2026-04-25T09:13:15Z</time></trkpt><trkpt lat="45.679692710003195" lon="9.692606059459006"><ele>244.0</ele><time>2026-04-25T09:13:16Z</time></trkpt><trkpt lat="45.679661191745126" lon="9.69229849339401"><ele>244.0</ele><time>2026-04-25T09:13:17Z</time></trkpt><trkpt lat="45.67962358764908" lon="9.691994279283737"><ele>244.0</ele><time>2026-04-25T09:13:18Z</time></trkpt><trkpt lat="45.67957940499463" lon="9.691692271314702"><ele>244.0</ele><time>2026-04-25T09:13:19Z</time></trkpt><trkpt lat="45.679528441695616" lon="9.691393608301697"><ele>244.0</ele><time>2026-04-25T09:13:20Z</time></trkpt><trkpt lat="45.679469517900145" lon="9.691097513636866"><ele>244.0</ele><time>2026-04-25T09:13:21Z</time></trkpt><trkpt lat="45.679402661510395" lon="9.69080388906529"><ele>244.0</ele><time>2026-04-25T09:13:22Z</time></trkpt><trkpt lat="45.67933126545335" lon="9.690515626929216"><ele>244.0</ele><time>2026-04-25T09:13:23Z</time></trkpt><trkpt lat="45.67925289253165" lon="9.690227575125725"><ele>244.0</ele><time>2026-04-25T09:13:24Z</time></trkpt><trkpt lat="45.67917140568002" lon="9.689945145604288"><ele>244.0</ele><time>2026-04-25T09:13:25Z</time></trkpt><trkpt lat="45.679083878913026" lon="9.689668395685809"><ele>244.0</ele><time>2026-04-25T09:13:26Z</time></trkpt><trkpt lat="45.678989077208605" lon="9.68939613991825"><ele>244.0</ele><time>2026-04-25T09:13:27Z</time></trkpt><trkpt lat="45.67888617110031" lon="9.689130349835168"><ele>243.0</ele><time>2026-04-25T09:13:28Z</time></trkpt><trkpt lat="45.678776993504364" lon="9.688867086668695"><ele>242.0</ele><time>2026-04-25T09:13:29Z</time></trkpt><trkpt lat="45.6786638631641" lon="9.688609690543336"><ele>241.0</ele><time>2026-04-25T09:13:30Z</time></trkpt><trkpt lat="45.67854519245323" lon="9.68835452768639"><ele>240.66666666666666</ele><time>2026-04-25T09:13:31Z</time></trkpt><trkpt lat="45.67842187863605" lon="9.688104292267269"><ele>240.33333333333331</ele><time>2026-04-25T09:13:32Z</time></trkpt><trkpt lat="45.67829357173477" lon="9.687854311154565"><ele>240.0</ele><time>2026-04-25T09:13:33Z</time></trkpt><trkpt lat="45.67817045197181" lon="9.687606122908347"><ele>241.0</ele><time>2026-04-25T09:13:34Z</time></trkpt><trkpt lat="45.6780484623942" lon="9.687359678423789"><ele>242.0</ele><time>2026-04-25T09:13:35Z</time></trkpt><trkpt lat="45.67792742283917" lon="9.68711051054871"><ele>243.0</ele><time>2026-04-25T09:13:36Z</time></trkpt><trkpt lat="45.67780686694157" lon="9.686865373814234"><ele>242.66666666666669</ele><time>2026-04-25T09:13:37Z</time></trkpt><trkpt lat="45.67768567478025" lon="9.686622027227498"><ele>242.33333333333334</ele><time>2026-04-25T09:13:38Z</time></trkpt><trkpt lat="45.677562908324155" lon="9.686378157128964"><ele>242.0</ele><time>2026-04-25T09:13:39Z</time></trkpt><trkpt lat="45.677440559132656" lon="9.686132846009587"><ele>243.0</ele><time>2026-04-25T09:13:40Z</time></trkpt><trkpt lat="45.67731850678046" lon="9.685886797623885"><ele>244.0</ele><time>2026-04-25T09:13:41Z</time></trkpt><trkpt lat="45.677197884030775" lon="9.68564024943939"><ele>245.0</ele><time>2026-04-25T09:13:42Z</time></trkpt><trkpt lat="45.67707660763784" lon="9.68539291878327"><ele>244.66666666666669</ele><time>2026-04-25T09:13:43Z</time></trkpt><trkpt lat="45.6769532298512" lon="9.685146552934924"><ele>244.33333333333331</ele><time>2026-04-25T09:13:44Z</time></trkpt><trkpt lat="45.67682619394986" lon="9.684902623118424"><ele>244.0</ele><time>2026-04-25T09:13:45Z</time></trkpt><trkpt lat="45.676697926994485" lon="9.684660386892254"><ele>243.0</ele><time>2026-04-25T09:13:46Z</time></trkpt><trkpt lat="45.67657012475801" lon="9.684415793582575"><ele>242.0</ele><time>2026-04-25T09:13:47Z</time></trkpt><trkpt lat="45.67644298131918" lon="9.684169846891248"><ele>241.0</ele><time>2026-04-25T09:13:48Z</time></trkpt><trkpt lat="45.67631649080995" lon="9.683924867591472"><ele>241.0</ele><time>2026-04-25T09:13:49Z</time></trkpt><trkpt lat="45.676191215748936" lon="9.683678184836877"><ele>241.0</ele><time>2026-04-25T09:13:50Z</time></trkpt><trkpt lat="45.67606990784642" lon="9.68342727099564"><ele>241.0</ele><time>2026-04-25T09:13:51Z</time></trkpt><trkpt lat="45.675953340843094" lon="9.68316750565414"><ele>241.0</ele><time>2026-04-25T09:13:52Z</time></trkpt><trkpt lat="45.675842979166525" lon="9.6829017854416"><ele>241.0</ele><time>2026-04-25T09:13:53Z</time></trkpt><trkpt lat="45.67573866469288" lon="9.682628878638326"><ele>241.0</ele><time>2026-04-25T09:13:54Z</time></trkpt><trkpt lat="45.6756379279378" lon="9.682347028838656"><ele>241.0</ele><time>2026-04-25T09:13:55Z</time></trkpt><trkpt lat="45.67554338545294" lon="9.68205890584441"><ele>241.0</ele><time>2026-04-25T09:13:56Z</time></trkpt><trkpt lat="45.67545664513837" lon="9.681768734694531"><ele>241.0</ele><time>2026-04-25T09:13:57Z</time></trkpt><trkpt lat="45.67537817306024" lon="9.681470985344072"><ele>242.0</ele><time>2026-04-25T09:13:58Z</time></trkpt><trkpt lat="45.67530365722075" lon="9.681169609662625"><ele>243.0</ele><time>2026-04-25T09:13:59Z</time></trkpt><trkpt lat="45.67524185874583" lon="9.680857953502713"><ele>243.66666666666669</ele><time>2026-04-25T09:14:00Z</time></trkpt><trkpt lat="45.67519059984549" lon="9.68052734916993"><ele>244.33333333333334</ele><time>2026-04-25T09:14:01Z</time></trkpt><trkpt lat="45.67514313987905" lon="9.680239592328805"><ele>245.0</ele><time>2026-04-25T09:14:02Z</time></trkpt><trkpt lat="45.67509717281218" lon="9.679920040719852"><ele>243.66666666666669</ele><time>2026-04-25T09:14:03Z</time></trkpt><trkpt lat="45.67507057914056" lon="9.679601084204057"><ele>242.33333333333331</ele><time>2026-04-25T09:14:04Z</time></trkpt><trkpt lat="45.67505755182956" lon="9.67929009932343"><ele>241.0</ele><time>2026-04-25T09:14:05Z</time></trkpt><trkpt lat="45.67505335049662" lon="9.678978023033437"><ele>240.33333333333331</ele><time>2026-04-25T09:14:06Z</time></trkpt><trkpt lat="45.675059164995346" lon="9.678667923834057"><ele>239.66666666666669</ele><time>2026-04-25T09:14:07Z</time></trkpt><trkpt lat="45.67508088217652" lon="9.678352016867967"><ele>239.0</ele><time>2026-04-25T09:14:08Z</time></trkpt><trkpt lat="45.67511309015103" lon="9.67804134413141"><ele>238.33333333333334</ele><time>2026-04-25T09:14:09Z</time></trkpt><trkpt lat="45.675142030417014" lon="9.677736655969326"><ele>237.66666666666669</ele><time>2026-04-25T09:14:10Z</time></trkpt><trkpt lat="45.67517979955589" lon="9.67742175298952"><ele>237.0</ele><time>2026-04-25T09:14:11Z</time></trkpt><trkpt lat="45.67521167385411" lon="9.67710643763926"><ele>237.0</ele><time>2026-04-25T09:14:12Z</time></trkpt><trkpt lat="45.67525591211986" lon="9.67679263023911"><ele>237.0</ele><time>2026-04-25T09:14:13Z</time></trkpt><trkpt lat="45.675299429467465" lon="9.676486535831865"><ele>237.0</ele><time>2026-04-25T09:14:14Z</time></trkpt><trkpt lat="45.67533942857189" lon="9.676177433448537"><ele>237.0</ele><time>2026-04-25T09:14:15Z</time></trkpt><trkpt lat="45.67537833068253" lon="9.67587294320891"><ele>237.0</ele><time>2026-04-25T09:14:16Z</time></trkpt><trkpt lat="45.6754105704368" lon="9.675560331301812"><ele>237.0</ele><time>2026-04-25T09:14:17Z</time></trkpt><trkpt lat="45.675448517703856" lon="9.675245972105657"><ele>237.0</ele><time>2026-04-25T09:14:18Z</time></trkpt><trkpt lat="45.675487389951726" lon="9.674933730069963"><ele>237.0</ele><time>2026-04-25T09:14:19Z</time></trkpt><trkpt lat="45.6755237400207" lon="9.674614473812984"><ele>237.0</ele><time>2026-04-25T09:14:20Z</time></trkpt><trkpt lat="45.675555155112214" lon="9.67429902055413"><ele>237.0</ele><time>2026-04-25T09:14:21Z</time></trkpt><trkpt lat="45.675588443419656" lon="9.673983475656101"><ele>237.0</ele><time>2026-04-25T09:14:22Z</time></trkpt><trkpt lat="45.67562614671187" lon="9.67367909688445"><ele>237.0</ele><time>2026-04-25T09:14:22.999Z</time></trkpt><trkpt lat="45.67567139849053" lon="9.67336572787305"><ele>237.0</ele><time>2026-04-25T09:14:23.999Z</time></trkpt><trkpt lat="45.67569952554397" lon="9.673049108243463"><ele>237.0</ele><time>2026-04-25T09:14:24.999Z</time></trkpt><trkpt lat="45.6757319428142" lon="9.672739027433172"><ele>237.0</ele><time>2026-04-25T09:14:25.999Z</time></trkpt><trkpt lat="45.675766822224176" lon="9.672430107379125"><ele>237.0</ele><time>2026-04-25T09:14:26.999Z</time></trkpt><trkpt lat="45.67580132007456" lon="9.672121593398762"><ele>237.0</ele><time>2026-04-25T09:14:27.999Z</time></trkpt><trkpt lat="45.6758366893694" lon="9.671813531511727"><ele>237.0</ele><time>2026-04-25T09:14:28.999Z</time></trkpt><trkpt lat="45.675871750178146" lon="9.671505244058272"><ele>237.0</ele><time>2026-04-25T09:14:29.999Z</time></trkpt><trkpt lat="45.675906987636125" lon="9.671199219028072"><ele>237.0</ele><time>2026-04-25T09:14:30.999Z</time></trkpt><trkpt lat="45.67594093560731" lon="9.670891234382319"><ele>237.0</ele><time>2026-04-25T09:14:31.999Z</time></trkpt><trkpt lat="45.675973965808346" lon="9.670584551829574"><ele>238.0</ele><time>2026-04-25T09:14:32.999Z</time></trkpt><trkpt lat="45.676006477029375" lon="9.670280084610424"><ele>239.0</ele><time>2026-04-25T09:14:33.999Z</time></trkpt><trkpt lat="45.67604114959642" lon="9.669970930011782"><ele>240.0</ele><time>2026-04-25T09:14:34.999Z</time></trkpt><trkpt lat="45.676076897885125" lon="9.669666999402677"><ele>238.33333333333331</ele><time>2026-04-25T09:14:35.999Z</time></trkpt><trkpt lat="45.67611143051432" lon="9.669360775422692"><ele>236.66666666666666</ele><time>2026-04-25T09:14:36.999Z</time></trkpt><trkpt lat="45.67614845991739" lon="9.669057801032292"><ele>235.0</ele><time>2026-04-25T09:14:37.999Z</time></trkpt><trkpt lat="45.676182448029195" lon="9.668756435976615"><ele>234.66666666666666</ele><time>2026-04-25T09:14:38.999Z</time></trkpt><trkpt lat="45.676211798983616" lon="9.66845244734189"><ele>234.33333333333331</ele><time>2026-04-25T09:14:39.999Z</time></trkpt><trkpt lat="45.67623645115152" lon="9.668149214008466"><ele>234.0</ele><time>2026-04-25T09:14:40.999Z</time></trkpt><trkpt lat="45.67625720854894" lon="9.667840720751025"><ele>234.0</ele><time>2026-04-25T09:14:41.999Z</time></trkpt><trkpt lat="45.6762750242516" lon="9.667531194063766"><ele>234.0</ele><time>2026-04-25T09:14:42.999Z</time></trkpt><trkpt lat="45.6762897522733" lon="9.667218609310385"><ele>234.0</ele><time>2026-04-25T09:14:43.999Z</time></trkpt><trkpt lat="45.67629693633126" lon="9.66690493040445"><ele>234.0</ele><time>2026-04-25T09:14:44.999Z</time></trkpt><trkpt lat="45.67629669973917" lon="9.66658846095189"><ele>234.0</ele><time>2026-04-25T09:14:45.999Z</time></trkpt><trkpt lat="45.67628660460456" lon="9.666267909200005"><ele>234.0</ele><time>2026-04-25T09:14:47Z</time></trkpt><trkpt lat="45.676276913814405" lon="9.66594896143927"><ele>234.0</ele><time>2026-04-25T09:14:48Z</time></trkpt><trkpt lat="45.67626593145147" lon="9.665628323480092"><ele>234.0</ele><time>2026-04-25T09:14:49Z</time></trkpt><trkpt lat="45.676256229951896" lon="9.66530210984774"><ele>233.0</ele><time>2026-04-25T09:14:50Z</time></trkpt><trkpt lat="45.67624378724152" lon="9.6649760505863"><ele>232.0</ele><time>2026-04-25T09:14:51Z</time></trkpt><trkpt lat="45.67623006059377" lon="9.66465079967309"><ele>231.5</ele><time>2026-04-25T09:14:52Z</time></trkpt><trkpt lat="45.676217996394186" lon="9.664327705834367"><ele>231.0</ele><time>2026-04-25T09:14:53Z</time></trkpt><trkpt lat="45.676207950307116" lon="9.664001734841511"><ele>231.0</ele><time>2026-04-25T09:14:54Z</time></trkpt><trkpt lat="45.676195504872815" lon="9.663672623361068"><ele>231.0</ele><time>2026-04-25T09:14:55Z</time></trkpt><trkpt lat="45.67618633295525" lon="9.663348095368349"><ele>231.0</ele><time>2026-04-25T09:14:56Z</time></trkpt><trkpt lat="45.676177783505906" lon="9.663020529121923"><ele>231.0</ele><time>2026-04-25T09:14:57Z</time></trkpt><trkpt lat="45.67616872183821" lon="9.662693315690742"><ele>231.0</ele><time>2026-04-25T09:14:58Z</time></trkpt><trkpt lat="45.676156037115945" lon="9.66236438919757"><ele>231.0</ele><time>2026-04-25T09:14:59Z</time></trkpt><trkpt lat="45.676143403503715" lon="9.662036913470217"><ele>231.0</ele><time>2026-04-25T09:15:00Z</time></trkpt><trkpt lat="45.67612946002919" lon="9.661708488678203"><ele>231.0</ele><time>2026-04-25T09:15:01Z</time></trkpt><trkpt lat="45.67611574134488" lon="9.661378204853396"><ele>229.0</ele><time>2026-04-25T09:15:02Z</time></trkpt><trkpt lat="45.676101402605546" lon="9.661043302831661"><ele>227.0</ele><time>2026-04-25T09:15:03Z</time></trkpt><trkpt lat="45.67609408512354" lon="9.66072110890886"><ele>227.0</ele><time>2026-04-25T09:15:04Z</time></trkpt><trkpt lat="45.67608053276764" lon="9.6604001480655"><ele>227.0</ele><time>2026-04-25T09:15:05Z</time></trkpt><trkpt lat="45.6760688531655" lon="9.66008522787822"><ele>227.0</ele><time>2026-04-25T09:15:06Z</time></trkpt><trkpt lat="45.67605544428163" lon="9.6597753711995"><ele>227.0</ele><time>2026-04-25T09:15:07Z</time></trkpt><trkpt lat="45.676043088560355" lon="9.65946923956361"><ele>227.0</ele><time>2026-04-25T09:15:08Z</time></trkpt><trkpt lat="45.67603300063909" lon="9.65916505045945"><ele>227.0</ele><time>2026-04-25T09:15:09Z</time></trkpt><trkpt lat="45.676023805711324" lon="9.658861909883479"><ele>228.0</ele><time>2026-04-25T09:15:10Z</time></trkpt><trkpt lat="45.676013209050815" lon="9.658560685024487"><ele>229.0</ele><time>2026-04-25T09:15:11Z</time></trkpt><trkpt lat="45.67600240212209" lon="9.65825976143928"><ele>230.0</ele><time>2026-04-25T09:15:12Z</time></trkpt><trkpt lat="45.67598797151896" lon="9.657955784323493"><ele>228.66666666666669</ele><time>2026-04-25T09:15:13Z</time></trkpt><trkpt lat="45.67597494727171" lon="9.65765513547413"><ele>227.33333333333331</ele><time>2026-04-25T09:15:14Z</time></trkpt><trkpt lat="45.67596170556242" lon="9.657351935145408"><ele>226.0</ele><time>2026-04-25T09:15:15Z</time></trkpt><trkpt lat="45.67594964649965" lon="9.65704364476768"><ele>225.33333333333331</ele><time>2026-04-25T09:15:16Z</time></trkpt><trkpt lat="45.6759373590836" lon="9.656733582881913"><ele>224.66666666666669</ele><time>2026-04-25T09:15:17Z</time></trkpt><trkpt lat="45.675923480244116" lon="9.65641956264808"><ele>224.0</ele><time>2026-04-25T09:15:18Z</time></trkpt><trkpt lat="45.67590927047368" lon="9.656104824477788"><ele>224.0</ele><time>2026-04-25T09:15:19Z</time></trkpt><trkpt lat="45.675899000969785" lon="9.655791054567128"><ele>224.0</ele><time>2026-04-25T09:15:20Z</time></trkpt><trkpt lat="45.675889320394916" lon="9.655479207525609"><ele>224.0</ele><time>2026-04-25T09:15:21Z</time></trkpt><trkpt lat="45.67588026735888" lon="9.655165767433287"><ele>224.0</ele><time>2026-04-25T09:15:22Z</time></trkpt><trkpt lat="45.67587206414273" lon="9.65485397488805"><ele>224.0</ele><time>2026-04-25T09:15:23Z</time></trkpt><trkpt lat="45.675862068325046" lon="9.65453974999141"><ele>224.0</ele><time>2026-04-25T09:15:24Z</time></trkpt><trkpt lat="45.67585040746862" lon="9.65422400960994"><ele>224.0</ele><time>2026-04-25T09:15:25Z</time></trkpt><trkpt lat="45.67584011463082" lon="9.65390649227218"><ele>224.0</ele><time>2026-04-25T09:15:26Z</time></trkpt><trkpt lat="45.67582786360134" lon="9.653589621809207"><ele>224.0</ele><time>2026-04-25T09:15:27Z</time></trkpt><trkpt lat="45.675815557836245" lon="9.65327237317167"><ele>224.33333333333334</ele><time>2026-04-25T09:15:28Z</time></trkpt><trkpt lat="45.67580326943257" lon="9.652952889324157"><ele>224.66666666666669</ele><time>2026-04-25T09:15:29Z</time></trkpt><trkpt lat="45.6757923187013" lon="9.652633084365876"><ele>225.0</ele><time>2026-04-25T09:15:30Z</time></trkpt><trkpt lat="45.67578249440127" lon="9.652313783911298"><ele>224.33333333333331</ele><time>2026-04-25T09:15:31Z</time></trkpt><trkpt lat="45.67577297205166" lon="9.651994109938194"><ele>223.66666666666666</ele><time>2026-04-25T09:15:32Z</time></trkpt><trkpt lat="45.67576488891288" lon="9.651679396098826"><ele>223.0</ele><time>2026-04-25T09:15:33Z</time></trkpt><trkpt lat="45.67575333884566" lon="9.651362999124649"><ele>222.66666666666666</ele><time>2026-04-25T09:15:34Z</time></trkpt><trkpt lat="45.67574057951312" lon="9.651046539289462"><ele>222.33333333333331</ele><time>2026-04-25T09:15:35Z</time></trkpt><trkpt lat="45.675726452212665" lon="9.650732711199696"><ele>222.0</ele><time>2026-04-25T09:15:36Z</time></trkpt><trkpt lat="45.675713867629206" lon="9.650419292337704"><ele>223.0</ele><time>2026-04-25T09:15:37Z</time></trkpt><trkpt lat="45.67570415746278" lon="9.650107437768321"><ele>224.0</ele><time>2026-04-25T09:15:38Z</time></trkpt><trkpt lat="45.67569246665657" lon="9.64979667389718"><ele>225.0</ele><time>2026-04-25T09:15:39Z</time></trkpt><trkpt lat="45.67567963620572" lon="9.649488466741738"><ele>224.66666666666669</ele><time>2026-04-25T09:15:40Z</time></trkpt><trkpt lat="45.675667324203246" lon="9.649180091264991"><ele>224.33333333333334</ele><time>2026-04-25T09:15:41Z</time></trkpt><trkpt lat="45.67565690271178" lon="9.648874277833642"><ele>224.0</ele><time>2026-04-25T09:15:42Z</time></trkpt><trkpt lat="45.675648085554194" lon="9.648569915047597"><ele>224.0</ele><time>2026-04-25T09:15:43Z</time></trkpt><trkpt lat="45.67563645650347" lon="9.648264133389599"><ele>224.0</ele><time>2026-04-25T09:15:44Z</time></trkpt><trkpt lat="45.67562499610562" lon="9.64796273551036"><ele>224.0</ele><time>2026-04-25T09:15:45Z</time></trkpt><trkpt lat="45.675613371011835" lon="9.64765954578823"><ele>224.33333333333334</ele><time>2026-04-25T09:15:46Z</time></trkpt><trkpt lat="45.67560452851975" lon="9.647359421486161"><ele>224.66666666666669</ele><time>2026-04-25T09:15:47Z</time></trkpt><trkpt lat="45.675595784463745" lon="9.647060064639161"><ele>225.0</ele><time>2026-04-25T09:15:48Z</time></trkpt><trkpt lat="45.67558628153801" lon="9.646762718601114"><ele>225.0</ele><time>2026-04-25T09:15:49Z</time></trkpt><trkpt lat="45.67557730720145" lon="9.646459832089148"><ele>225.0</ele><time>2026-04-25T09:15:50Z</time></trkpt><trkpt lat="45.67557714592482" lon="9.646159729113254"><ele>225.0</ele><time>2026-04-25T09:15:51Z</time></trkpt><trkpt lat="45.67559231721924" lon="9.645857260887045"><ele>225.0</ele><time>2026-04-25T09:15:52Z</time></trkpt><trkpt lat="45.67562737646187" lon="9.645559465253616"><ele>225.0</ele><time>2026-04-25T09:15:53Z</time></trkpt><trkpt lat="45.67568421408088" lon="9.645265325859697"><ele>225.0</ele><time>2026-04-25T09:15:54Z</time></trkpt><trkpt lat="45.67576110533891" lon="9.644977004497854"><ele>225.33333333333331</ele><time>2026-04-25T09:15:55Z</time></trkpt><trkpt lat="45.67585284890203" lon="9.644694200692344"><ele>225.66666666666666</ele><time>2026-04-25T09:15:56Z</time></trkpt><trkpt lat="45.67595902909267" lon="9.644416675918645"><ele>226.0</ele><time>2026-04-25T09:15:57Z</time></trkpt><trkpt lat="45.67607906016813" lon="9.644149536515421"><ele>226.0</ele><time>2026-04-25T09:15:58Z</time></trkpt><trkpt lat="45.67620421792056" lon="9.643884535352512"><ele>226.0</ele><time>2026-04-25T09:15:59Z</time></trkpt><trkpt lat="45.67632910059141" lon="9.643614057377057"><ele>225.0</ele><time>2026-04-25T09:16:00Z</time></trkpt><trkpt lat="45.67645247825833" lon="9.643338555481874"><ele>224.0</ele><time>2026-04-25T09:16:01Z</time></trkpt><trkpt lat="45.67657439239938" lon="9.643059395492507"><ele>224.0</ele><time>2026-04-25T09:16:02Z</time></trkpt><trkpt lat="45.67669443746104" lon="9.64278836320226"><ele>224.0</ele><time>2026-04-25T09:16:03Z</time></trkpt><trkpt lat="45.67681592326051" lon="9.642513901355946"><ele>224.5</ele><time>2026-04-25T09:16:04Z</time></trkpt><trkpt lat="45.67694166367283" lon="9.64224005224117"><ele>225.0</ele><time>2026-04-25T09:16:05Z</time></trkpt><trkpt lat="45.6770695458146" lon="9.641964274987101"><ele>224.0</ele><time>2026-04-25T09:16:06Z</time></trkpt><trkpt lat="45.677198592281535" lon="9.641690271061762"><ele>223.0</ele><time>2026-04-25T09:16:07Z</time></trkpt><trkpt lat="45.67732669596975" lon="9.64141934006517"><ele>223.0</ele><time>2026-04-25T09:16:08Z</time></trkpt><trkpt lat="45.67745077538889" lon="9.641144235598489"><ele>223.0</ele><time>2026-04-25T09:16:09Z</time></trkpt><trkpt lat="45.67757311808301" lon="9.640870110706029"><ele>222.66666666666666</ele><time>2026-04-25T09:16:10Z</time></trkpt><trkpt lat="45.67769300682735" lon="9.640599040144595"><ele>222.33333333333331</ele><time>2026-04-25T09:16:11Z</time></trkpt><trkpt lat="45.67781589292255" lon="9.640331774764105"><ele>222.0</ele><time>2026-04-25T09:16:12Z</time></trkpt><trkpt lat="45.677939518628534" lon="9.640067897825991"><ele>221.66666666666669</ele><time>2026-04-25T09:16:13Z</time></trkpt><trkpt lat="45.67806680727921" lon="9.639806700835353"><ele>221.33333333333334</ele><time>2026-04-25T09:16:14Z</time></trkpt><trkpt lat="45.678199511622296" lon="9.63955518280002"><ele>221.0</ele><time>2026-04-25T09:16:15Z</time></trkpt><trkpt lat="45.67833981687815" lon="9.639311303563343"><ele>221.0</ele><time>2026-04-25T09:16:15.999Z</time></trkpt><trkpt lat="45.67848818233405" lon="9.639079181060268"><ele>221.0</ele><time>2026-04-25T09:16:16.999Z</time></trkpt><trkpt lat="45.678644222603424" lon="9.638860336960862"><ele>221.0</ele><time>2026-04-25T09:16:17.999Z</time></trkpt><trkpt lat="45.678809044401" lon="9.638653084792477"><ele>221.66666666666669</ele><time>2026-04-25T09:16:18.999Z</time></trkpt><trkpt lat="45.678978151939106" lon="9.63845819862538"><ele>222.33333333333331</ele><time>2026-04-25T09:16:19.999Z</time></trkpt><trkpt lat="45.679149133074255" lon="9.638266566371671"><ele>223.0</ele><time>2026-04-25T09:16:20.999Z</time></trkpt><trkpt lat="45.67932773500726" lon="9.638084024440555"><ele>223.0</ele><time>2026-04-25T09:16:21.999Z</time></trkpt><trkpt lat="45.67951132766353" lon="9.63791652261093"><ele>223.0</ele><time>2026-04-25T09:16:22.999Z</time></trkpt><trkpt lat="45.679699454390146" lon="9.637756582701197"><ele>223.0</ele><time>2026-04-25T09:16:23.999Z</time></trkpt><trkpt lat="45.67989041979561" lon="9.63759861869745"><ele>223.0</ele><time>2026-04-25T09:16:24.999Z</time></trkpt><trkpt lat="45.68007995195106" lon="9.637434954778287"><ele>223.0</ele><time>2026-04-25T09:16:25.999Z</time></trkpt><trkpt lat="45.68026920504779" lon="9.637267865472852"><ele>223.0</ele><time>2026-04-25T09:16:26.999Z</time></trkpt><trkpt lat="45.680458683613395" lon="9.637100229152333"><ele>223.0</ele><time>2026-04-25T09:16:27.999Z</time></trkpt><trkpt lat="45.68064991523117" lon="9.636929715056056"><ele>223.0</ele><time>2026-04-25T09:16:28.999Z</time></trkpt><trkpt lat="45.68083784254458" lon="9.636753919441288"><ele>223.0</ele><time>2026-04-25T09:16:29.999Z</time></trkpt><trkpt lat="45.68101649907623" lon="9.636557711972594"><ele>223.0</ele><time>2026-04-25T09:16:30.999Z</time></trkpt><trkpt lat="45.681184426561806" lon="9.636348247493554"><ele>223.0</ele><time>2026-04-25T09:16:31.999Z</time></trkpt><trkpt lat="45.6813454861872" lon="9.636126286690393"><ele>223.0</ele><time>2026-04-25T09:16:32.999Z</time></trkpt><trkpt lat="45.68149711644612" lon="9.635894339702917"><ele>223.0</ele><time>2026-04-25T09:16:33.999Z</time></trkpt><trkpt lat="45.68163784702406" lon="9.635649567553047"><ele>223.0</ele><time>2026-04-25T09:16:34.999Z</time></trkpt><trkpt lat="45.68176349825379" lon="9.635394887033295"><ele>222.33333333333331</ele><time>2026-04-25T09:16:35.999Z</time></trkpt><trkpt lat="45.68188148938457" lon="9.635132251766564"><ele>221.66666666666669</ele><time>2026-04-25T09:16:36.999Z</time></trkpt><trkpt lat="45.68198876663329" lon="9.634863453735282"><ele>221.0</ele><time>2026-04-25T09:16:37.999Z</time></trkpt><trkpt lat="45.68208552283492" lon="9.634590063341577"><ele>221.33333333333334</ele><time>2026-04-25T09:16:38.999Z</time></trkpt><trkpt lat="45.682172294030195" lon="9.634310383370746"><ele>221.66666666666669</ele><time>2026-04-25T09:16:39.999Z</time></trkpt><trkpt lat="45.68225101273693" lon="9.634025766684907"><ele>222.0</ele><time>2026-04-25T09:16:40.999Z</time></trkpt><trkpt lat="45.682324333837684" lon="9.633738319536073"><ele>222.0</ele><time>2026-04-25T09:16:41.999Z</time></trkpt><trkpt lat="45.68239163636095" lon="9.63344598566175"><ele>222.0</ele><time>2026-04-25T09:16:42.999Z</time></trkpt><trkpt lat="45.68245449061328" lon="9.63315105732831"><ele>222.0</ele><time>2026-04-25T09:16:43.999Z</time></trkpt><trkpt lat="45.682517389966186" lon="9.632856211614994"><ele>222.0</ele><time>2026-04-25T09:16:44.999Z</time></trkpt><trkpt lat="45.682578117785766" lon="9.632558218231008"><ele>222.0</ele><time>2026-04-25T09:16:45.999Z</time></trkpt><trkpt lat="45.68263496891129" lon="9.632256551036814"><ele>222.0</ele><time>2026-04-25T09:16:46.999Z</time></trkpt><trkpt lat="45.68268721913874" lon="9.631950862178774"><ele>223.0</ele><time>2026-04-25T09:16:47.999Z</time></trkpt><trkpt lat="45.68273404270756" lon="9.63164181547373"><ele>224.0</ele><time>2026-04-25T09:16:48.999Z</time></trkpt><trkpt lat="45.682777574769204" lon="9.631329709209583"><ele>225.0</ele><time>2026-04-25T09:16:49.999Z</time></trkpt><trkpt lat="45.68281522705978" lon="9.631018028107729"><ele>225.33333333333331</ele><time>2026-04-25T09:16:50.999Z</time></trkpt><trkpt lat="45.68284684583638" lon="9.630703952790254"><ele>225.66666666666666</ele><time>2026-04-25T09:16:52Z</time></trkpt><trkpt lat="45.68287528201015" lon="9.63038640305543"><ele>226.0</ele><time>2026-04-25T09:16:53Z</time></trkpt><trkpt lat="45.68289856255299" lon="9.630068276677822"><ele>226.0</ele><time>2026-04-25T09:16:54Z</time></trkpt><trkpt lat="45.682916857729644" lon="9.629742211760254"><ele>226.0</ele><time>2026-04-25T09:16:55Z</time></trkpt><trkpt lat="45.682924441067996" lon="9.629427870089016"><ele>226.0</ele><time>2026-04-25T09:16:56Z</time></trkpt><trkpt lat="45.68292963409537" lon="9.629111025217478"><ele>226.0</ele><time>2026-04-25T09:16:57Z</time></trkpt><trkpt lat="45.6829279764862" lon="9.628794978875856"><ele>226.0</ele><time>2026-04-25T09:16:58Z</time></trkpt><trkpt lat="45.682918171286204" lon="9.628480900895704"><ele>226.0</ele><time>2026-04-25T09:16:59Z</time></trkpt><trkpt lat="45.68290009699815" lon="9.628168883344225"><ele>225.66666666666666</ele><time>2026-04-25T09:17:00Z</time></trkpt><trkpt lat="45.68287393925796" lon="9.627860385311124"><ele>225.33333333333331</ele><time>2026-04-25T09:17:01Z</time></trkpt><trkpt lat="45.6828458938806" lon="9.627549198513067"><ele>225.0</ele><time>2026-04-25T09:17:02Z</time></trkpt><trkpt lat="45.68281597271852" lon="9.627239738458481"><ele>224.66666666666669</ele><time>2026-04-25T09:17:03Z</time></trkpt><trkpt lat="45.682782022914246" lon="9.626930092155504"><ele>224.33333333333334</ele><time>2026-04-25T09:17:04Z</time></trkpt><trkpt lat="45.6827465635569" lon="9.626619616622751"><ele>224.0</ele><time>2026-04-25T09:17:05Z</time></trkpt><trkpt lat="45.68271260288907" lon="9.626311181638153"><ele>224.33333333333334</ele><time>2026-04-25T09:17:06Z</time></trkpt><trkpt lat="45.68267983649874" lon="9.626001153572208"><ele>224.66666666666669</ele><time>2026-04-25T09:17:07Z</time></trkpt><trkpt lat="45.68264671958362" lon="9.625690095462227"><ele>225.0</ele><time>2026-04-25T09:17:08Z</time></trkpt><trkpt lat="45.68261324562147" lon="9.625377788400915"><ele>226.0</ele><time>2026-04-25T09:17:09Z</time></trkpt><trkpt lat="45.68257857983683" lon="9.625062947601787"><ele>227.0</ele><time>2026-04-25T09:17:10Z</time></trkpt><trkpt lat="45.68254296424318" lon="9.62474987339954"><ele>228.0</ele><time>2026-04-25T09:17:11Z</time></trkpt><trkpt lat="45.682509226807944" lon="9.624437239296242"><ele>228.0</ele><time>2026-04-25T09:17:12Z</time></trkpt><trkpt lat="45.68247667029157" lon="9.624123145615908"><ele>228.0</ele><time>2026-04-25T09:17:13Z</time></trkpt><trkpt lat="45.68244366422026" lon="9.623807375702572"><ele>228.0</ele><time>2026-04-25T09:17:14Z</time></trkpt><trkpt lat="45.68241070274856" lon="9.623496563385395"><ele>228.0</ele><time>2026-04-25T09:17:15Z</time></trkpt><trkpt lat="45.68237711714735" lon="9.623184420505874"><ele>228.0</ele><time>2026-04-25T09:17:16Z</time></trkpt><trkpt lat="45.6823436564744" lon="9.622871607161402"><ele>228.0</ele><time>2026-04-25T09:17:17Z</time></trkpt><trkpt lat="45.68231005205695" lon="9.622559076034877"><ele>228.0</ele><time>2026-04-25T09:17:18Z</time></trkpt><trkpt lat="45.682276462828554" lon="9.622248635039986"><ele>228.0</ele><time>2026-04-25T09:17:19Z</time></trkpt><trkpt lat="45.68224351313607" lon="9.621938451687827"><ele>228.0</ele><time>2026-04-25T09:17:20Z</time></trkpt><trkpt lat="45.68221256384896" lon="9.621630205725538"><ele>228.0</ele><time>2026-04-25T09:17:21Z</time></trkpt><trkpt lat="45.682185420221074" lon="9.621327048485044"><ele>228.0</ele><time>2026-04-25T09:17:22Z</time></trkpt><trkpt lat="45.68215989235906" lon="9.621022624426692"><ele>228.0</ele><time>2026-04-25T09:17:23Z</time></trkpt><trkpt lat="45.68212635160094" lon="9.620721174570924"><ele>228.0</ele><time>2026-04-25T09:17:24Z</time></trkpt><trkpt lat="45.68208829734799" lon="9.620420398590499"><ele>228.0</ele><time>2026-04-25T09:17:25Z</time></trkpt><trkpt lat="45.68204613223642" lon="9.62012711793303"><ele>228.0</ele><time>2026-04-25T09:17:26Z</time></trkpt><trkpt lat="45.681998130385274" lon="9.619832120197955"><ele>228.0</ele><time>2026-04-25T09:17:27Z</time></trkpt><trkpt lat="45.68194776142795" lon="9.619540051538126"><ele>228.0</ele><time>2026-04-25T09:17:28Z</time></trkpt><trkpt lat="45.68189288386902" lon="9.619245280165446"><ele>228.0</ele><time>2026-04-25T09:17:29Z</time></trkpt><trkpt lat="45.68183391006677" lon="9.618953425740239"><ele>228.66666666666669</ele><time>2026-04-25T09:17:30Z</time></trkpt><trkpt lat="45.68177138296308" lon="9.618659512301358"><ele>229.33333333333334</ele><time>2026-04-25T09:17:31Z</time></trkpt><trkpt lat="45.68170419427581" lon="9.618364510040768"><ele>230.0</ele><time>2026-04-25T09:17:32Z</time></trkpt><trkpt lat="45.68163413331365" lon="9.618067651606035"><ele>230.0</ele><time>2026-04-25T09:17:33Z</time></trkpt><trkpt lat="45.68156007868052" lon="9.617772830584945"><ele>230.0</ele><time>2026-04-25T09:17:34Z</time></trkpt><trkpt lat="45.68148130046371" lon="9.617474216199717"><ele>230.0</ele><time>2026-04-25T09:17:35Z</time></trkpt><trkpt lat="45.68139785401759" lon="9.617178567233749"><ele>230.33333333333334</ele><time>2026-04-25T09:17:36Z</time></trkpt><trkpt lat="45.681309545228714" lon="9.616882900138474"><ele>230.66666666666669</ele><time>2026-04-25T09:17:37Z</time></trkpt><trkpt lat="45.68121833041568" lon="9.61658931178821"><ele>231.0</ele><time>2026-04-25T09:17:38Z</time></trkpt><trkpt lat="45.6811245540302" lon="9.616309528221931"><ele>230.66666666666669</ele><time>2026-04-25T09:17:39Z</time></trkpt><trkpt lat="45.68102954594847" lon="9.616052987593067"><ele>230.33333333333334</ele><time>2026-04-25T09:17:40Z</time></trkpt><trkpt lat="45.680935091796506" lon="9.615842598934636"><ele>230.0</ele><time>2026-04-25T09:17:41Z</time></trkpt><trkpt lat="45.68084094792066" lon="9.615656827246736"><ele>230.5</ele><time>2026-04-25T09:17:42Z</time></trkpt><trkpt lat="45.680700790347444" lon="9.615143291820539"><ele>231.0</ele><time>2026-04-25T09:17:43Z</time></trkpt><trkpt lat="45.68059343987962" lon="9.614854606621622"><ele>231.0</ele><time>2026-04-25T09:17:44Z</time></trkpt><trkpt lat="45.68048108273489" lon="9.614568365869992"><ele>231.0</ele><time>2026-04-25T09:17:45Z</time></trkpt><trkpt lat="45.68036995475553" lon="9.614280791463273"><ele>229.5</ele><time>2026-04-25T09:17:46Z</time></trkpt><trkpt lat="45.680262663100834" lon="9.6139915764924"><ele>228.0</ele><time>2026-04-25T09:17:47Z</time></trkpt><trkpt lat="45.68015299185188" lon="9.613697466667961"><ele>228.5</ele><time>2026-04-25T09:17:48Z</time></trkpt><trkpt lat="45.68004244019481" lon="9.61341576079593"><ele>229.0</ele><time>2026-04-25T09:17:49Z</time></trkpt><trkpt lat="45.67993075416734" lon="9.613137716685156"><ele>229.0</ele><time>2026-04-25T09:17:50Z</time></trkpt><trkpt lat="45.67982106877629" lon="9.612849024619164"><ele>229.0</ele><time>2026-04-25T09:17:51Z</time></trkpt><trkpt lat="45.679718236382506" lon="9.612567966241286"><ele>228.66666666666666</ele><time>2026-04-25T09:17:52Z</time></trkpt><trkpt lat="45.67960830772843" lon="9.612289605052524"><ele>228.33333333333331</ele><time>2026-04-25T09:17:53Z</time></trkpt><trkpt lat="45.67949635301608" lon="9.61201439164898"><ele>228.0</ele><time>2026-04-25T09:17:54Z</time></trkpt><trkpt lat="45.679383620913484" lon="9.611744434474021"><ele>228.0</ele><time>2026-04-25T09:17:55Z</time></trkpt><trkpt lat="45.67926900700098" lon="9.611474031660919"><ele>228.0</ele><time>2026-04-25T09:17:56Z</time></trkpt><trkpt lat="45.67915974944833" lon="9.611199057687196"><ele>228.0</ele><time>2026-04-25T09:17:57Z</time></trkpt><trkpt lat="45.67904796123863" lon="9.610922733277466"><ele>228.0</ele><time>2026-04-25T09:17:58Z</time></trkpt><trkpt lat="45.67893999590222" lon="9.610652815866882"><ele>228.0</ele><time>2026-04-25T09:17:59Z</time></trkpt><trkpt lat="45.678837607226995" lon="9.61035895285551"><ele>228.0</ele><time>2026-04-25T09:18:00Z</time></trkpt><trkpt lat="45.67874989182701" lon="9.610066030533252"><ele>228.0</ele><time>2026-04-25T09:18:01Z</time></trkpt><trkpt lat="45.67866096608645" lon="9.609776119681971"><ele>228.0</ele><time>2026-04-25T09:18:02Z</time></trkpt><trkpt lat="45.67858350717888" lon="9.609480211482786"><ele>228.0</ele><time>2026-04-25T09:18:03Z</time></trkpt><trkpt lat="45.67850869291147" lon="9.60917523466951"><ele>228.0</ele><time>2026-04-25T09:18:04Z</time></trkpt><trkpt lat="45.67843816625413" lon="9.608866899664791"><ele>228.0</ele><time>2026-04-25T09:18:05Z</time></trkpt><trkpt lat="45.67836918505991" lon="9.608559235536147"><ele>228.0</ele><time>2026-04-25T09:18:06Z</time></trkpt><trkpt lat="45.67830663314894" lon="9.608254207305114"><ele>228.0</ele><time>2026-04-25T09:18:07Z</time></trkpt><trkpt lat="45.67824853550847" lon="9.60793303979906"><ele>228.0</ele><time>2026-04-25T09:18:08Z</time></trkpt><trkpt lat="45.67819835668263" lon="9.607615665849092"><ele>228.0</ele><time>2026-04-25T09:18:09Z</time></trkpt><trkpt lat="45.678152778844385" lon="9.60729535017183"><ele>228.0</ele><time>2026-04-25T09:18:10Z</time></trkpt><trkpt lat="45.67811693495624" lon="9.606977980144967"><ele>228.0</ele><time>2026-04-25T09:18:11Z</time></trkpt><trkpt lat="45.67808516407307" lon="9.606653807152696"><ele>228.0</ele><time>2026-04-25T09:18:12Z</time></trkpt><trkpt lat="45.678057496906064" lon="9.606325400943511"><ele>228.0</ele><time>2026-04-25T09:18:13Z</time></trkpt><trkpt lat="45.678038824042126" lon="9.605995001969564"><ele>227.5</ele><time>2026-04-25T09:18:14Z</time></trkpt><trkpt lat="45.67802919146931" lon="9.60566816832135"><ele>227.0</ele><time>2026-04-25T09:18:15Z</time></trkpt><trkpt lat="45.67801246618772" lon="9.605337688333828"><ele>227.0</ele><time>2026-04-25T09:18:16Z</time></trkpt><trkpt lat="45.67800283142313" lon="9.60500766782201"><ele>227.0</ele><time>2026-04-25T09:18:17Z</time></trkpt><trkpt lat="45.67799671896685" lon="9.604676564373884"><ele>226.5</ele><time>2026-04-25T09:18:18Z</time></trkpt><trkpt lat="45.677992507882585" lon="9.604347304021701"><ele>226.0</ele><time>2026-04-25T09:18:19Z</time></trkpt><trkpt lat="45.67798561768374" lon="9.604015923566532"><ele>226.0</ele><time>2026-04-25T09:18:19.999Z</time></trkpt><trkpt lat="45.67797485652292" lon="9.60368728271885"><ele>226.0</ele><time>2026-04-25T09:18:20.999Z</time></trkpt><trkpt lat="45.677962884675814" lon="9.603360225739529"><ele>227.0</ele><time>2026-04-25T09:18:21.999Z</time></trkpt><trkpt lat="45.677957389866876" lon="9.603031930388067"><ele>228.0</ele><time>2026-04-25T09:18:22.999Z</time></trkpt><trkpt lat="45.677951300396934" lon="9.602703951959237"><ele>228.0</ele><time>2026-04-25T09:18:23.999Z</time></trkpt><trkpt lat="45.67793910729886" lon="9.60237630795769"><ele>228.0</ele><time>2026-04-25T09:18:24.999Z</time></trkpt><trkpt lat="45.67792433454067" lon="9.602053889981338"><ele>227.66666666666669</ele><time>2026-04-25T09:18:25.999Z</time></trkpt><trkpt lat="45.67790842237226" lon="9.60174125705108"><ele>227.33333333333334</ele><time>2026-04-25T09:18:26.999Z</time></trkpt><trkpt lat="45.67788757173503" lon="9.601425972076534"><ele>227.0</ele><time>2026-04-25T09:18:27.999Z</time></trkpt><trkpt lat="45.67787051953989" lon="9.601113515420847"><ele>228.0</ele><time>2026-04-25T09:18:28.999Z</time></trkpt><trkpt lat="45.67785642246394" lon="9.600796979279414"><ele>229.0</ele><time>2026-04-25T09:18:29.999Z</time></trkpt><trkpt lat="45.6778401236737" lon="9.600469842804895"><ele>228.0</ele><time>2026-04-25T09:18:30.999Z</time></trkpt><trkpt lat="45.67783306355496" lon="9.600157312125653"><ele>227.0</ele><time>2026-04-25T09:18:31.999Z</time></trkpt><trkpt lat="45.677818386599284" lon="9.59985102489507"><ele>226.0</ele><time>2026-04-25T09:18:32.999Z</time></trkpt><trkpt lat="45.67780887196594" lon="9.599540244981684"><ele>226.33333333333331</ele><time>2026-04-25T09:18:33.999Z</time></trkpt><trkpt lat="45.67779831953722" lon="9.599230690118876"><ele>226.66666666666669</ele><time>2026-04-25T09:18:34.999Z</time></trkpt><trkpt lat="45.67778645140587" lon="9.598919918099174"><ele>227.0</ele><time>2026-04-25T09:18:35.999Z</time></trkpt><trkpt lat="45.677776769244716" lon="9.598617013960778"><ele>226.33333333333334</ele><time>2026-04-25T09:18:36.999Z</time></trkpt><trkpt lat="45.677765466362835" lon="9.598321024936736"><ele>225.66666666666669</ele><time>2026-04-25T09:18:37.999Z</time></trkpt><trkpt lat="45.6777571677753" lon="9.598032534542817"><ele>225.0</ele><time>2026-04-25T09:18:38.999Z</time></trkpt><trkpt lat="45.6777474379039" lon="9.59774109857949"><ele>224.0</ele><time>2026-04-25T09:18:39.999Z</time></trkpt><trkpt lat="45.67773753644625" lon="9.597446937631403"><ele>223.0</ele><time>2026-04-25T09:18:40.999Z</time></trkpt><trkpt lat="45.67772669420601" lon="9.597158127940626"><ele>222.0</ele><time>2026-04-25T09:18:41.999Z</time></trkpt><trkpt lat="45.67771893918091" lon="9.596871705841096"><ele>218.66666666666669</ele><time>2026-04-25T09:18:42.999Z</time></trkpt><trkpt lat="45.67770990701186" lon="9.596593104876362"><ele>215.33333333333334</ele><time>2026-04-25T09:18:43.999Z</time></trkpt><trkpt lat="45.67769782676477" lon="9.596318194825303"><ele>212.0</ele><time>2026-04-25T09:18:44.999Z</time></trkpt><trkpt lat="45.677682507156916" lon="9.596053266772449"><ele>210.33333333333334</ele><time>2026-04-25T09:18:45.999Z</time></trkpt><trkpt lat="45.677665010952346" lon="9.595800724715167"><ele>208.66666666666669</ele><time>2026-04-25T09:18:46.999Z</time></trkpt><trkpt lat="45.67764332899857" lon="9.59555089552383"><ele>207.0</ele><time>2026-04-25T09:18:47.999Z</time></trkpt><trkpt lat="45.67761716820539" lon="9.595292764127374"><ele>206.66666666666669</ele><time>2026-04-25T09:18:48.999Z</time></trkpt><trkpt lat="45.67758680724556" lon="9.595022024180105"><ele>206.33333333333334</ele><time>2026-04-25T09:18:49.999Z</time></trkpt><trkpt lat="45.67755217734811" lon="9.594747523811614"><ele>206.0</ele><time>2026-04-25T09:18:50.999Z</time></trkpt><trkpt lat="45.67751130286965" lon="9.594468561326298"><ele>205.66666666666669</ele><time>2026-04-25T09:18:51.999Z</time></trkpt><trkpt lat="45.677465894226906" lon="9.594187596408673"><ele>205.33333333333331</ele><time>2026-04-25T09:18:52.999Z</time></trkpt><trkpt lat="45.67741667528218" lon="9.593900675166767"><ele>205.0</ele><time>2026-04-25T09:18:53.999Z</time></trkpt><trkpt lat="45.677360197405626" lon="9.593611393949306"><ele>203.33333333333331</ele><time>2026-04-25T09:18:54.999Z</time></trkpt><trkpt lat="45.67729920998318" lon="9.593324907096065"><ele>201.66666666666669</ele><time>2026-04-25T09:18:55.999Z</time></trkpt><trkpt lat="45.6772330642337" lon="9.593039220044478"><ele>200.0</ele><time>2026-04-25T09:18:57Z</time></trkpt><trkpt lat="45.67716094253598" lon="9.592752069494743"><ele>199.0</ele><time>2026-04-25T09:18:58Z</time></trkpt><trkpt lat="45.67707906694416" lon="9.592471850421493"><ele>198.0</ele><time>2026-04-25T09:18:59Z</time></trkpt><trkpt lat="45.67699586614856" lon="9.592193630354396"><ele>197.0</ele><time>2026-04-25T09:19:00Z</time></trkpt><trkpt lat="45.6769115117741" lon="9.591920272135383"><ele>197.0</ele><time>2026-04-25T09:19:01Z</time></trkpt><trkpt lat="45.6768287574447" lon="9.591655794491945"><ele>197.0</ele><time>2026-04-25T09:19:02Z</time></trkpt><trkpt lat="45.67674510754785" lon="9.591392226439371"><ele>197.0</ele><time>2026-04-25T09:19:03Z</time></trkpt><trkpt lat="45.67666196464744" lon="9.591135477210118"><ele>197.33333333333334</ele><time>2026-04-25T09:19:04Z</time></trkpt><trkpt lat="45.67657992205905" lon="9.590885087087509"><ele>197.66666666666669</ele><time>2026-04-25T09:19:05Z</time></trkpt><trkpt lat="45.67650028767341" lon="9.590635602109321"><ele>198.0</ele><time>2026-04-25T09:19:06Z</time></trkpt><trkpt lat="45.676419589417044" lon="9.590388493944568"><ele>197.66666666666669</ele><time>2026-04-25T09:19:07Z</time></trkpt><trkpt lat="45.67633648244711" lon="9.590142652247467"><ele>197.33333333333334</ele><time>2026-04-25T09:19:08Z</time></trkpt><trkpt lat="45.676254532363366" lon="9.5898896770824"><ele>197.0</ele><time>2026-04-25T09:19:09Z</time></trkpt><trkpt lat="45.6761706244449" lon="9.589635228191991"><ele>196.0</ele><time>2026-04-25T09:19:10Z</time></trkpt><trkpt lat="45.676085850897245" lon="9.589374394341768"><ele>195.0</ele><time>2026-04-25T09:19:11Z</time></trkpt><trkpt lat="45.67599814110695" lon="9.58911319805068"><ele>194.0</ele><time>2026-04-25T09:19:12Z</time></trkpt><trkpt lat="45.675909853882345" lon="9.588852197789082"><ele>193.0</ele><time>2026-04-25T09:19:13Z</time></trkpt><trkpt lat="45.675820937511844" lon="9.588588009211037"><ele>192.0</ele><time>2026-04-25T09:19:14Z</time></trkpt><trkpt lat="45.67573367783339" lon="9.588324412153845"><ele>191.0</ele><time>2026-04-25T09:19:15Z</time></trkpt><trkpt lat="45.6756505217401" lon="9.58806832254435"><ele>190.33333333333331</ele><time>2026-04-25T09:19:16Z</time></trkpt><trkpt lat="45.675566768870645" lon="9.587812433697843"><ele>189.66666666666666</ele><time>2026-04-25T09:19:17Z</time></trkpt><trkpt lat="45.67548357407772" lon="9.587560302991163"><ele>189.0</ele><time>2026-04-25T09:19:18Z</time></trkpt><trkpt lat="45.6754014094184" lon="9.587311824754458"><ele>189.0</ele><time>2026-04-25T09:19:19Z</time></trkpt><trkpt lat="45.67531849686431" lon="9.587066753888887"><ele>189.0</ele><time>2026-04-25T09:19:20Z</time></trkpt><trkpt lat="45.67523764009656" lon="9.586820603333182"><ele>189.0</ele><time>2026-04-25T09:19:21Z</time></trkpt><trkpt lat="45.67515929134911" lon="9.586574653617257"><ele>188.66666666666666</ele><time>2026-04-25T09:19:22Z</time></trkpt><trkpt lat="45.67507880652501" lon="9.58632723631895"><ele>188.33333333333331</ele><time>2026-04-25T09:19:23Z</time></trkpt><trkpt lat="45.67499804072822" lon="9.586080434446588"><ele>188.0</ele><time>2026-04-25T09:19:24Z</time></trkpt><trkpt lat="45.67491536961704" lon="9.58582870652609"><ele>189.33333333333331</ele><time>2026-04-25T09:19:25Z</time></trkpt><trkpt lat="45.67483286900697" lon="9.585579821430729"><ele>190.66666666666666</ele><time>2026-04-25T09:19:26Z</time></trkpt><trkpt lat="45.67474915009189" lon="9.585328906390776"><ele>192.0</ele><time>2026-04-25T09:19:27Z</time></trkpt><trkpt lat="45.674667286858075" lon="9.585081842176486"><ele>192.0</ele><time>2026-04-25T09:19:28Z</time></trkpt><trkpt lat="45.67458919562059" lon="9.584834395714172"><ele>192.0</ele><time>2026-04-25T09:19:29Z</time></trkpt><trkpt lat="45.67451435633401" lon="9.584586916816372"><ele>192.0</ele><time>2026-04-25T09:19:30Z</time></trkpt><trkpt lat="45.6744425323813" lon="9.584337162354982"><ele>192.0</ele><time>2026-04-25T09:19:31Z</time></trkpt><trkpt lat="45.67437000529615" lon="9.58408893071793"><ele>192.0</ele><time>2026-04-25T09:19:32Z</time></trkpt><trkpt lat="45.67429633312449" lon="9.583840703589194"><ele>192.0</ele><time>2026-04-25T09:19:33Z</time></trkpt><trkpt lat="45.67421635308557" lon="9.583588419891361"><ele>193.0</ele><time>2026-04-25T09:19:34Z</time></trkpt><trkpt lat="45.67413099625992" lon="9.583330605444205"><ele>194.0</ele><time>2026-04-25T09:19:35Z</time></trkpt><trkpt lat="45.67404187801576" lon="9.58307562417297"><ele>195.0</ele><time>2026-04-25T09:19:36Z</time></trkpt><trkpt lat="45.673954169816994" lon="9.582816151459665"><ele>195.0</ele><time>2026-04-25T09:19:37Z</time></trkpt><trkpt lat="45.673865863192255" lon="9.582551597976446"><ele>195.0</ele><time>2026-04-25T09:19:38Z</time></trkpt><trkpt lat="45.673786157651165" lon="9.582281286868085"><ele>195.0</ele><time>2026-04-25T09:19:39Z</time></trkpt><trkpt lat="45.673708067459906" lon="9.582000492416206"><ele>194.66666666666669</ele><time>2026-04-25T09:19:40Z</time></trkpt><trkpt lat="45.67364118471096" lon="9.581712553811977"><ele>194.33333333333334</ele><time>2026-04-25T09:19:41Z</time></trkpt><trkpt lat="45.67358529215309" lon="9.581411123913933"><ele>194.0</ele><time>2026-04-25T09:19:42Z</time></trkpt><trkpt lat="45.673542850679226" lon="9.581100471789982"><ele>194.0</ele><time>2026-04-25T09:19:43Z</time></trkpt><trkpt lat="45.673509837930965" lon="9.580778211866683"><ele>194.0</ele><time>2026-04-25T09:19:44Z</time></trkpt><trkpt lat="45.67348757232205" lon="9.580453554177094"><ele>194.0</ele><time>2026-04-25T09:19:45Z</time></trkpt><trkpt lat="45.67348603419293" lon="9.580125176487138"><ele>194.0</ele><time>2026-04-25T09:19:46Z</time></trkpt><trkpt lat="45.67349422487959" lon="9.57980167368453"><ele>193.5</ele><time>2026-04-25T09:19:47Z</time></trkpt><trkpt lat="45.67351340277822" lon="9.579477404671733"><ele>193.0</ele><time>2026-04-25T09:19:48Z</time></trkpt><trkpt lat="45.67354363956145" lon="9.579138787256031"><ele>193.0</ele><time>2026-04-25T09:19:49Z</time></trkpt><trkpt lat="45.67359293930938" lon="9.578819056046868"><ele>193.0</ele><time>2026-04-25T09:19:50Z</time></trkpt><trkpt lat="45.67365514567637" lon="9.578502406622775"><ele>193.0</ele><time>2026-04-25T09:19:51Z</time></trkpt><trkpt lat="45.673731646132495" lon="9.578186951574503"><ele>193.0</ele><time>2026-04-25T09:19:52Z</time></trkpt><trkpt lat="45.67382261815923" lon="9.577884025661465"><ele>193.5</ele><time>2026-04-25T09:19:53Z</time></trkpt><trkpt lat="45.67392054584941" lon="9.57758710258527"><ele>194.0</ele><time>2026-04-25T09:19:54Z</time></trkpt><trkpt lat="45.67403227597688" lon="9.577297004690628"><ele>198.0</ele><time>2026-04-25T09:19:55Z</time></trkpt><trkpt lat="45.67415640613092" lon="9.577017970524693"><ele>202.0</ele><time>2026-04-25T09:19:56Z</time></trkpt><trkpt lat="45.67428917146813" lon="9.576749849770778"><ele>202.0</ele><time>2026-04-25T09:19:57Z</time></trkpt><trkpt lat="45.67443243204377" lon="9.576498862912871"><ele>202.0</ele><time>2026-04-25T09:19:58Z</time></trkpt><trkpt lat="45.67458724492601" lon="9.576252328483479"><ele>206.5</ele><time>2026-04-25T09:19:59Z</time></trkpt><trkpt lat="45.67474444196162" lon="9.576007859290765"><ele>211.0</ele><time>2026-04-25T09:20:00Z</time></trkpt><trkpt lat="45.67490681317222" lon="9.575756910890926"><ele>211.0</ele><time>2026-04-25T09:20:01Z</time></trkpt><trkpt lat="45.67509153420124" lon="9.575532241513907"><ele>211.0</ele><time>2026-04-25T09:20:02Z</time></trkpt><trkpt lat="45.675277350376334" lon="9.575348156301951"><ele>213.5</ele><time>2026-04-25T09:20:03Z</time></trkpt><trkpt lat="45.675474593444655" lon="9.575176058437473"><ele>216.0</ele><time>2026-04-25T09:20:04Z</time></trkpt><trkpt lat="45.675679224134356" lon="9.575020910353063"><ele>216.0</ele><time>2026-04-25T09:20:05Z</time></trkpt><trkpt lat="45.67588410501377" lon="9.574880887685573"><ele>216.0</ele><time>2026-04-25T09:20:06.061Z</time></trkpt><trkpt lat="45.67606023915035" lon="9.5747669077078"><ele>216.0</ele><time>2026-04-25T09:20:07.057Z</time></trkpt><trkpt lat="45.67624001637952" lon="9.57465356697526"><ele>217.0</ele><time>2026-04-25T09:20:08.058Z</time></trkpt><trkpt lat="45.67643354453384" lon="9.57453388244961"><ele>218.0</ele><time>2026-04-25T09:20:09.054Z</time></trkpt><trkpt lat="45.67657795611162" lon="9.574444081995237"><ele>219.0</ele><time>2026-04-25T09:20:10.032Z</time></trkpt><trkpt lat="45.67859925379238" lon="9.574084952573978"><ele>224.0</ele><time>2026-04-25T09:20:13.885Z</time></trkpt><trkpt lat="45.679393959868435" lon="9.573863941248531"><ele>225.0</ele><time>2026-04-25T09:20:14.885Z</time></trkpt><trkpt lat="45.68018658760802" lon="9.573640390209098"><ele>226.0</ele><time>2026-04-25T09:20:15.883Z</time></trkpt><trkpt lat="45.6809823201892" lon="9.573416741668069"><ele>226.0</ele><time>2026-04-25T09:20:16.884Z</time></trkpt><trkpt lat="45.68177735586094" lon="9.573195417699884"><ele>228.0</ele><time>2026-04-25T09:20:17.884Z</time></trkpt><trkpt lat="45.68256864769878" lon="9.57295053760189"><ele>226.0</ele><time>2026-04-25T09:20:18.885Z</time></trkpt><trkpt lat="45.68333939849456" lon="9.572613120446228"><ele>228.0</ele><time>2026-04-25T09:20:19.882Z</time></trkpt><trkpt lat="45.683626299812325" lon="9.572107592966566"><ele>228.5</ele><time>2026-04-25T09:20:41.999Z</time></trkpt><trkpt lat="45.683810226435526" lon="9.57194184362837"><ele>229.0</ele><time>2026-04-25T09:20:42.999Z</time></trkpt><trkpt lat="45.68406147687577" lon="9.57191456673784"><ele>229.0</ele><time>2026-04-25T09:20:43.999Z</time></trkpt><trkpt lat="45.68424015578757" lon="9.571695227892596"><ele>229.0</ele><time>2026-04-25T09:20:44.999Z</time></trkpt><trkpt lat="45.684398059614686" lon="9.571477403750672"><ele>229.0</ele><time>2026-04-25T09:20:45.999Z</time></trkpt><trkpt lat="45.68454734194541" lon="9.571248118070352"><ele>229.0</ele><time>2026-04-25T09:20:46.999Z</time></trkpt><trkpt lat="45.68469353436145" lon="9.571006901873346"><ele>229.0</ele><time>2026-04-25T09:20:47.999Z</time></trkpt><trkpt lat="45.684830986556115" lon="9.57075151904555"><ele>228.66666666666666</ele><time>2026-04-25T09:20:48.999Z</time></trkpt><trkpt lat="45.68495553076927" lon="9.570490091025787"><ele>228.33333333333331</ele><time>2026-04-25T09:20:49.999Z</time></trkpt><trkpt lat="45.68507086712989" lon="9.57021745937601"><ele>228.0</ele><time>2026-04-25T09:20:50.999Z</time></trkpt><trkpt lat="45.685176552994484" lon="9.569946561310449"><ele>228.33333333333331</ele><time>2026-04-25T09:20:51.999Z</time></trkpt><trkpt lat="45.68527652840701" lon="9.56966339251265"><ele>228.66666666666666</ele><time>2026-04-25T09:20:52.999Z</time></trkpt><trkpt lat="45.6853661003246" lon="9.569371077111962"><ele>229.0</ele><time>2026-04-25T09:20:53.999Z</time></trkpt><trkpt lat="45.685447248673384" lon="9.569080463056569"><ele>229.0</ele><time>2026-04-25T09:20:54.999Z</time></trkpt><trkpt lat="45.6855281725694" lon="9.568785848933372"><ele>229.0</ele><time>2026-04-25T09:20:55.999Z</time></trkpt><trkpt lat="45.68561168704735" lon="9.568491778862287"><ele>229.0</ele><time>2026-04-25T09:20:56.999Z</time></trkpt><trkpt lat="45.685687846561784" lon="9.568197480137973"><ele>229.0</ele><time>2026-04-25T09:20:57.999Z</time></trkpt><trkpt lat="45.68576257797701" lon="9.567900978318201"><ele>229.0</ele><time>2026-04-25T09:20:58.999Z</time></trkpt><trkpt lat="45.68583726884507" lon="9.567607192174261"><ele>229.0</ele><time>2026-04-25T09:20:59.999Z</time></trkpt><trkpt lat="45.68591162639152" lon="9.567312671091655"><ele>229.66666666666666</ele><time>2026-04-25T09:21:00.999Z</time></trkpt><trkpt lat="45.685979295941785" lon="9.567020011226274"><ele>230.33333333333331</ele><time>2026-04-25T09:21:01.999Z</time></trkpt><trkpt lat="45.6860539950599" lon="9.56671515641974"><ele>231.0</ele><time>2026-04-25T09:21:03Z</time></trkpt><trkpt lat="45.68616260010925" lon="9.566402526938717"><ele>230.33333333333331</ele><time>2026-04-25T09:21:04Z</time></trkpt><trkpt lat="45.6862549021598" lon="9.566084325064953"><ele>229.66666666666666</ele><time>2026-04-25T09:21:05Z</time></trkpt><trkpt lat="45.68631748907667" lon="9.565807490543637"><ele>229.0</ele><time>2026-04-25T09:21:06Z</time></trkpt><trkpt lat="45.68642167299688" lon="9.565490667173231"><ele>228.5</ele><time>2026-04-25T09:21:07Z</time></trkpt><trkpt lat="45.68651847321149" lon="9.565180519949518"><ele>228.0</ele><time>2026-04-25T09:21:08Z</time></trkpt><trkpt lat="45.68661982597549" lon="9.564861456192597"><ele>228.0</ele><time>2026-04-25T09:21:09Z</time></trkpt><trkpt lat="45.68666540578798" lon="9.564610200670604"><ele>228.0</ele><time>2026-04-25T09:21:10Z</time></trkpt><trkpt lat="45.68673879289608" lon="9.564318411070468"><ele>228.0</ele><time>2026-04-25T09:21:11Z</time></trkpt><trkpt lat="45.68682005336657" lon="9.564032538848481"><ele>228.33333333333331</ele><time>2026-04-25T09:21:12Z</time></trkpt><trkpt lat="45.68690142793328" lon="9.563736941825484"><ele>228.66666666666666</ele><time>2026-04-25T09:21:13Z</time></trkpt><trkpt lat="45.68697828237145" lon="9.563448547020363"><ele>229.0</ele><time>2026-04-25T09:21:14Z</time></trkpt><trkpt lat="45.68706108944323" lon="9.563157700262472"><ele>229.0</ele><time>2026-04-25T09:21:15Z</time></trkpt><trkpt lat="45.68713989764171" lon="9.56287234009913"><ele>229.0</ele><time>2026-04-25T09:21:16Z</time></trkpt><trkpt lat="45.6872176816579" lon="9.562587150060137"><ele>229.0</ele><time>2026-04-25T09:21:17Z</time></trkpt><trkpt lat="45.68729513650229" lon="9.562301062182147"><ele>229.0</ele><time>2026-04-25T09:21:18Z</time></trkpt><trkpt lat="45.687369079074884" lon="9.562022733817834"><ele>229.0</ele><time>2026-04-25T09:21:19Z</time></trkpt><trkpt lat="45.687446727181516" lon="9.561737550183278"><ele>229.0</ele><time>2026-04-25T09:21:20Z</time></trkpt><trkpt lat="45.68752852530749" lon="9.561454505090804"><ele>229.33333333333331</ele><time>2026-04-25T09:21:21Z</time></trkpt><trkpt lat="45.68760922726609" lon="9.561172119235925"><ele>229.66666666666669</ele><time>2026-04-25T09:21:22Z</time></trkpt><trkpt lat="45.68769320610453" lon="9.560889410537925"><ele>230.0</ele><time>2026-04-25T09:21:23Z</time></trkpt><trkpt lat="45.68778040051159" lon="9.56061257330844"><ele>231.0</ele><time>2026-04-25T09:21:24Z</time></trkpt><trkpt lat="45.68787760829944" lon="9.560338138808783"><ele>232.0</ele><time>2026-04-25T09:21:25Z</time></trkpt><trkpt lat="45.68797945438367" lon="9.560067794735286"><ele>233.0</ele><time>2026-04-25T09:21:26Z</time></trkpt><trkpt lat="45.688102635363165" lon="9.559806439154725"><ele>233.0</ele><time>2026-04-25T09:21:27Z</time></trkpt><trkpt lat="45.68823192135549" lon="9.55956144545269"><ele>233.0</ele><time>2026-04-25T09:21:28Z</time></trkpt><trkpt lat="45.68836827702434" lon="9.559326523387655"><ele>233.0</ele><time>2026-04-25T09:21:29Z</time></trkpt><trkpt lat="45.68851594619489" lon="9.559098549434951"><ele>233.33333333333334</ele><time>2026-04-25T09:21:30Z</time></trkpt><trkpt lat="45.688663547256766" lon="9.558879746983404"><ele>233.66666666666669</ele><time>2026-04-25T09:21:31Z</time></trkpt><trkpt lat="45.68880875959615" lon="9.558655945924356"><ele>234.0</ele><time>2026-04-25T09:21:32Z</time></trkpt><trkpt lat="45.68900066814144" lon="9.558504661938185"><ele>234.0</ele><time>2026-04-25T09:21:33Z</time></trkpt><trkpt lat="45.68916000831508" lon="9.558307879570057"><ele>234.0</ele><time>2026-04-25T09:21:34Z</time></trkpt><trkpt lat="45.689345811634496" lon="9.558148939975649"><ele>234.0</ele><time>2026-04-25T09:21:35Z</time></trkpt><trkpt lat="45.68953403577824" lon="9.558021437841223"><ele>234.33333333333331</ele><time>2026-04-25T09:21:36Z</time></trkpt><trkpt lat="45.68972288693666" lon="9.55789530523407"><ele>234.66666666666666</ele><time>2026-04-25T09:21:37Z</time></trkpt><trkpt lat="45.68991083638616" lon="9.557765713807159"><ele>235.0</ele><time>2026-04-25T09:21:38Z</time></trkpt><trkpt lat="45.69009920576319" lon="9.557633697011031"><ele>235.0</ele><time>2026-04-25T09:21:39Z</time></trkpt><trkpt lat="45.690382039448565" lon="9.557435527151586"><ele>235.0</ele><time>2026-04-25T09:21:40Z</time></trkpt><trkpt lat="45.69056763410557" lon="9.557310187423534"><ele>235.0</ele><time>2026-04-25T09:21:41Z</time></trkpt><trkpt lat="45.69075419691784" lon="9.5571816132089"><ele>235.0</ele><time>2026-04-25T09:21:42Z</time></trkpt><trkpt lat="45.6909289758674" lon="9.557068711517292"><ele>235.0</ele><time>2026-04-25T09:21:43Z</time></trkpt><trkpt lat="45.69110276674447" lon="9.556967734755988"><ele>235.33333333333331</ele><time>2026-04-25T09:21:44Z</time></trkpt><trkpt lat="45.69126459496391" lon="9.556850079167765"><ele>235.66666666666669</ele><time>2026-04-25T09:21:45Z</time></trkpt><trkpt lat="45.69142798816824" lon="9.556731677997437"><ele>236.0</ele><time>2026-04-25T09:21:46Z</time></trkpt><trkpt lat="45.691529633648685" lon="9.556698059079475"><ele>236.0</ele><time>2026-04-25T09:21:47Z</time></trkpt><trkpt lat="45.69167202136446" lon="9.556615532130255"><ele>236.0</ele><time>2026-04-25T09:21:48Z</time></trkpt><trkpt lat="45.691834906563166" lon="9.556523016597021"><ele>236.0</ele><time>2026-04-25T09:21:49Z</time></trkpt><trkpt lat="45.69200470056079" lon="9.556437920384457"><ele>236.33333333333334</ele><time>2026-04-25T09:21:50Z</time></trkpt><trkpt lat="45.692190749158456" lon="9.556382771348998"><ele>236.66666666666669</ele><time>2026-04-25T09:21:51Z</time></trkpt><trkpt lat="45.692363333056626" lon="9.55630970618365"><ele>237.0</ele><time>2026-04-25T09:21:52Z</time></trkpt><trkpt lat="45.692540548021" lon="9.556251705020703"><ele>237.0</ele><time>2026-04-25T09:21:53Z</time></trkpt><trkpt lat="45.69271853751435" lon="9.556208045121597"><ele>237.0</ele><time>2026-04-25T09:21:54Z</time></trkpt><trkpt lat="45.69289960127924" lon="9.556179863418432"><ele>237.0</ele><time>2026-04-25T09:21:55Z</time></trkpt><trkpt lat="45.69308324115594" lon="9.556163725524888"><ele>237.33333333333331</ele><time>2026-04-25T09:21:56Z</time></trkpt><trkpt lat="45.693267928170926" lon="9.556153116207499"><ele>237.66666666666666</ele><time>2026-04-25T09:21:57Z</time></trkpt><trkpt lat="45.69345744292186" lon="9.556152442082377"><ele>238.0</ele><time>2026-04-25T09:21:58Z</time></trkpt><trkpt lat="45.69364342449247" lon="9.556186889251054"><ele>238.66666666666666</ele><time>2026-04-25T09:21:59Z</time></trkpt><trkpt lat="45.693843167730776" lon="9.556212229245084"><ele>239.33333333333331</ele><time>2026-04-25T09:22:00Z</time></trkpt><trkpt lat="45.69403702491391" lon="9.55626243507741"><ele>240.0</ele><time>2026-04-25T09:22:01Z</time></trkpt><trkpt lat="45.694231588987314" lon="9.556324857742759"><ele>239.66666666666669</ele><time>2026-04-25T09:22:02Z</time></trkpt><trkpt lat="45.6944300139071" lon="9.556404548787732"><ele>239.33333333333334</ele><time>2026-04-25T09:22:03Z</time></trkpt><trkpt lat="45.6946347675381" lon="9.556490598717966"><ele>239.0</ele><time>2026-04-25T09:22:04Z</time></trkpt><trkpt lat="45.69481506492405" lon="9.556596459816749"><ele>239.0</ele><time>2026-04-25T09:22:05Z</time></trkpt><trkpt lat="45.6950055597376" lon="9.55672496362285"><ele>239.0</ele><time>2026-04-25T09:22:06Z</time></trkpt><trkpt lat="45.695189076893136" lon="9.556860877485187"><ele>239.0</ele><time>2026-04-25T09:22:07Z</time></trkpt><trkpt lat="45.695365486346084" lon="9.557017900988841"><ele>239.33333333333334</ele><time>2026-04-25T09:22:08Z</time></trkpt><trkpt lat="45.695539949677695" lon="9.557159475740704"><ele>239.66666666666669</ele><time>2026-04-25T09:22:09Z</time></trkpt><trkpt lat="45.69569444489185" lon="9.557345063381618"><ele>240.0</ele><time>2026-04-25T09:22:10Z</time></trkpt><trkpt lat="45.69585413868588" lon="9.557525514370203"><ele>240.0</ele><time>2026-04-25T09:22:11Z</time></trkpt><trkpt lat="45.69601150956284" lon="9.557714907537337"><ele>240.0</ele><time>2026-04-25T09:22:12Z</time></trkpt><trkpt lat="45.69617718273258" lon="9.557896409129993"><ele>240.0</ele><time>2026-04-25T09:22:13Z</time></trkpt><trkpt lat="45.696333807605015" lon="9.558099342808942"><ele>240.33333333333331</ele><time>2026-04-25T09:22:14Z</time></trkpt><trkpt lat="45.696498993432094" lon="9.558299618320154"><ele>240.66666666666666</ele><time>2026-04-25T09:22:15Z</time></trkpt><trkpt lat="45.69665937061123" lon="9.558534824149518"><ele>241.0</ele><time>2026-04-25T09:22:16Z</time></trkpt><trkpt lat="45.69683589770408" lon="9.558759971042884"><ele>240.5</ele><time>2026-04-25T09:22:17Z</time></trkpt><trkpt lat="45.697014055974236" lon="9.558980156218098"><ele>240.0</ele><time>2026-04-25T09:22:18Z</time></trkpt><trkpt lat="45.697202182031845" lon="9.559170839094346"><ele>240.0</ele><time>2026-04-25T09:22:19Z</time></trkpt><trkpt lat="45.69738615116107" lon="9.55937370443424"><ele>240.0</ele><time>2026-04-25T09:22:20Z</time></trkpt><trkpt lat="45.69757748449804" lon="9.55955442813663"><ele>240.5</ele><time>2026-04-25T09:22:21Z</time></trkpt><trkpt lat="45.697774329196974" lon="9.559718849589228"><ele>241.0</ele><time>2026-04-25T09:22:22Z</time></trkpt><trkpt lat="45.69797740422645" lon="9.559861065632635"><ele>241.0</ele><time>2026-04-25T09:22:23Z</time></trkpt><trkpt lat="45.69818291878047" lon="9.55997800482679"><ele>241.0</ele><time>2026-04-25T09:22:24Z</time></trkpt><trkpt lat="45.69839015566832" lon="9.56007499595347"><ele>241.0</ele><time>2026-04-25T09:22:25Z</time></trkpt><trkpt lat="45.6985941875463" lon="9.560159241289497"><ele>241.66666666666666</ele><time>2026-04-25T09:22:26Z</time></trkpt><trkpt lat="45.69879952561749" lon="9.560216458442843"><ele>242.33333333333331</ele><time>2026-04-25T09:22:26.999Z</time></trkpt><trkpt lat="45.6990053408534" lon="9.560259860201725"><ele>243.0</ele><time>2026-04-25T09:22:27.999Z</time></trkpt><trkpt lat="45.6992096046151" lon="9.56031508244105"><ele>243.33333333333331</ele><time>2026-04-25T09:22:28.999Z</time></trkpt><trkpt lat="45.69942053948063" lon="9.56031928587839"><ele>243.66666666666666</ele><time>2026-04-25T09:22:29.999Z</time></trkpt><trkpt lat="45.69963360430472" lon="9.560312922458767"><ele>244.0</ele><time>2026-04-25T09:22:30.999Z</time></trkpt><trkpt lat="45.69984638641295" lon="9.560272203148621"><ele>244.0</ele><time>2026-04-25T09:22:31.999Z</time></trkpt><trkpt lat="45.700059746334944" lon="9.560253695572758"><ele>244.0</ele><time>2026-04-25T09:22:32.999Z</time></trkpt><trkpt lat="45.70027289207693" lon="9.560208153847988"><ele>244.0</ele><time>2026-04-25T09:22:33.999Z</time></trkpt><trkpt lat="45.70048630262141" lon="9.560155634400754"><ele>243.66666666666666</ele><time>2026-04-25T09:22:34.999Z</time></trkpt><trkpt lat="45.70069945893027" lon="9.560105709782905"><ele>243.33333333333331</ele><time>2026-04-25T09:22:35.999Z</time></trkpt><trkpt lat="45.7009129606455" lon="9.560059046358687"><ele>243.0</ele><time>2026-04-25T09:22:36.999Z</time></trkpt><trkpt lat="45.701123701194035" lon="9.560009645024802"><ele>244.33333333333331</ele><time>2026-04-25T09:22:37.999Z</time></trkpt><trkpt lat="45.70133811179321" lon="9.55995644975478"><ele>245.66666666666666</ele><time>2026-04-25T09:22:38.999Z</time></trkpt><trkpt lat="45.701549342353125" lon="9.559902913433872"><ele>247.0</ele><time>2026-04-25T09:22:39.999Z</time></trkpt><trkpt lat="45.701761460300716" lon="9.559854364790779"><ele>247.33333333333331</ele><time>2026-04-25T09:22:40.999Z</time></trkpt><trkpt lat="45.7019733807272" lon="9.55980701620586"><ele>247.66666666666669</ele><time>2026-04-25T09:22:41.999Z</time></trkpt><trkpt lat="45.70218835705182" lon="9.559755190300217"><ele>248.0</ele><time>2026-04-25T09:22:42.999Z</time></trkpt><trkpt lat="45.702400547726086" lon="9.559704910428216"><ele>248.0</ele><time>2026-04-25T09:22:43.999Z</time></trkpt><trkpt lat="45.7026130174747" lon="9.559652175573923"><ele>248.0</ele><time>2026-04-25T09:22:44.999Z</time></trkpt><trkpt lat="45.702826848673496" lon="9.559601178655289"><ele>248.0</ele><time>2026-04-25T09:22:45.999Z</time></trkpt><trkpt lat="45.703039071100555" lon="9.559550520370088"><ele>248.0</ele><time>2026-04-25T09:22:46.999Z</time></trkpt><trkpt lat="45.70325319886425" lon="9.559499851217897"><ele>248.0</ele><time>2026-04-25T09:22:47.999Z</time></trkpt><trkpt lat="45.703464562468405" lon="9.55944631825765"><ele>248.0</ele><time>2026-04-25T09:22:48.999Z</time></trkpt><trkpt lat="45.70367934923548" lon="9.559393820844258"><ele>248.33333333333334</ele><time>2026-04-25T09:22:49.999Z</time></trkpt><trkpt lat="45.703914758054786" lon="9.55936115419707"><ele>248.66666666666669</ele><time>2026-04-25T09:22:50.999Z</time></trkpt><trkpt lat="45.70411547047563" lon="9.559304218531988"><ele>249.0</ele><time>2026-04-25T09:22:51.999Z</time></trkpt><trkpt lat="45.70432889570915" lon="9.559271640528294"><ele>249.33333333333331</ele><time>2026-04-25T09:22:52.999Z</time></trkpt><trkpt lat="45.70454504059434" lon="9.559257799037773"><ele>249.66666666666666</ele><time>2026-04-25T09:22:53.999Z</time></trkpt><trkpt lat="45.70476079846601" lon="9.559270378897217"><ele>250.0</ele><time>2026-04-25T09:22:54.999Z</time></trkpt><trkpt lat="45.70497510892979" lon="9.559304142055714"><ele>250.0</ele><time>2026-04-25T09:22:55.999Z</time></trkpt><trkpt lat="45.705185132895224" lon="9.5593658835844"><ele>250.0</ele><time>2026-04-25T09:22:56.999Z</time></trkpt><trkpt lat="45.705392282286745" lon="9.559452005229174"><ele>250.0</ele><time>2026-04-25T09:22:57.999Z</time></trkpt><trkpt lat="45.70559430132901" lon="9.559564095529701"><ele>250.0</ele><time>2026-04-25T09:22:58.999Z</time></trkpt><trkpt lat="45.705788958787316" lon="9.55970027343761"><ele>250.0</ele><time>2026-04-25T09:22:59.999Z</time></trkpt><trkpt lat="45.70597548769079" lon="9.559856495251417"><ele>250.0</ele><time>2026-04-25T09:23:00.999Z</time></trkpt><trkpt lat="45.706150615800865" lon="9.560040868499492"><ele>250.0</ele><time>2026-04-25T09:23:01.999Z</time></trkpt><trkpt lat="45.70631826790323" lon="9.560239355527157"><ele>250.0</ele><time>2026-04-25T09:23:02.999Z</time></trkpt><trkpt lat="45.706466790133604" lon="9.560464226224363"><ele>250.0</ele><time>2026-04-25T09:23:03.999Z</time></trkpt><trkpt lat="45.70661111742521" lon="9.56069650734981"><ele>250.33333333333331</ele><time>2026-04-25T09:23:04.999Z</time></trkpt><trkpt lat="45.70674249415054" lon="9.560939287801396"><ele>250.66666666666669</ele><time>2026-04-25T09:23:05.999Z</time></trkpt><trkpt lat="45.70686598803834" lon="9.561193457161778"><ele>251.0</ele><time>2026-04-25T09:23:06.999Z</time></trkpt><trkpt lat="45.70698440356194" lon="9.56144388509982"><ele>250.0</ele><time>2026-04-25T09:23:08Z</time></trkpt><trkpt lat="45.70710840228897" lon="9.561700150721103"><ele>249.0</ele><time>2026-04-25T09:23:09Z</time></trkpt><trkpt lat="45.707231742271325" lon="9.561953350486862"><ele>248.0</ele><time>2026-04-25T09:23:10Z</time></trkpt><trkpt lat="45.707338853982534" lon="9.562220735767166"><ele>248.0</ele><time>2026-04-25T09:23:11Z</time></trkpt><trkpt lat="45.70746447095911" lon="9.562476374236695"><ele>248.0</ele><time>2026-04-25T09:23:12Z</time></trkpt><trkpt lat="45.70759099127099" lon="9.562733402406488"><ele>248.0</ele><time>2026-04-25T09:23:13Z</time></trkpt><trkpt lat="45.707729332252484" lon="9.562988459348434"><ele>248.66666666666669</ele><time>2026-04-25T09:23:14Z</time></trkpt><trkpt lat="45.70785277110698" lon="9.563244259072887"><ele>249.33333333333331</ele><time>2026-04-25T09:23:15Z</time></trkpt><trkpt lat="45.70798572435458" lon="9.563503230655463"><ele>250.0</ele><time>2026-04-25T09:23:16Z</time></trkpt><trkpt lat="45.70812086143829" lon="9.563756626921274"><ele>250.0</ele><time>2026-04-25T09:23:17Z</time></trkpt><trkpt lat="45.70826428685924" lon="9.563998082122648"><ele>250.0</ele><time>2026-04-25T09:23:18Z</time></trkpt><trkpt lat="45.70841535018424" lon="9.564232205915927"><ele>250.0</ele><time>2026-04-25T09:23:19Z</time></trkpt><trkpt lat="45.70859393943454" lon="9.56444657069836"><ele>249.66666666666666</ele><time>2026-04-25T09:23:20Z</time></trkpt><trkpt lat="45.7087737274146" lon="9.564616490919793"><ele>249.33333333333331</ele><time>2026-04-25T09:23:21Z</time></trkpt><trkpt lat="45.708971163573274" lon="9.564772945058857"><ele>249.0</ele><time>2026-04-25T09:23:22Z</time></trkpt><trkpt lat="45.70917959784711" lon="9.564886802766422"><ele>249.0</ele><time>2026-04-25T09:23:23Z</time></trkpt><trkpt lat="45.70939709214381" lon="9.564965651001096"><ele>249.0</ele><time>2026-04-25T09:23:24Z</time></trkpt><trkpt lat="45.709618015993726" lon="9.564997219618943"><ele>249.0</ele><time>2026-04-25T09:23:25Z</time></trkpt><trkpt lat="45.70983807979056" lon="9.564974527678851"><ele>250.0</ele><time>2026-04-25T09:23:26Z</time></trkpt><trkpt lat="45.71005474132508" lon="9.56491307779001"><ele>251.0</ele><time>2026-04-25T09:23:27Z</time></trkpt><trkpt lat="45.71026666450307" lon="9.564822646372967"><ele>252.0</ele><time>2026-04-25T09:23:28Z</time></trkpt><trkpt lat="45.710475192182834" lon="9.564697538080159"><ele>252.33333333333331</ele><time>2026-04-25T09:23:29Z</time></trkpt><trkpt lat="45.71068348190776" lon="9.564558629081885"><ele>252.66666666666666</ele><time>2026-04-25T09:23:30Z</time></trkpt><trkpt lat="45.710852943095084" lon="9.564468008144189"><ele>253.0</ele><time>2026-04-25T09:23:31Z</time></trkpt><trkpt lat="45.710973641712506" lon="9.56422113291537"><ele>253.0</ele><time>2026-04-25T09:23:32Z</time></trkpt><trkpt lat="45.71110318975497" lon="9.563933403115582"><ele>253.0</ele><time>2026-04-25T09:23:33Z</time></trkpt><trkpt lat="45.71124859536665" lon="9.563746238658547"><ele>253.0</ele><time>2026-04-25T09:23:34Z</time></trkpt><trkpt lat="45.711392218997034" lon="9.563543758206512"><ele>253.0</ele><time>2026-04-25T09:23:35Z</time></trkpt><trkpt lat="45.7115400664056" lon="9.563339667374827"><ele>253.0</ele><time>2026-04-25T09:23:36Z</time></trkpt><trkpt lat="45.711685731486504" lon="9.563135680080906"><ele>253.0</ele><time>2026-04-25T09:23:37Z</time></trkpt><trkpt lat="45.71183302576899" lon="9.562941307511808"><ele>253.33333333333331</ele><time>2026-04-25T09:23:38Z</time></trkpt><trkpt lat="45.71197949372692" lon="9.562752621625288"><ele>253.66666666666669</ele><time>2026-04-25T09:23:39Z</time></trkpt><trkpt lat="45.71212389545354" lon="9.562578190966665"><ele>254.0</ele><time>2026-04-25T09:23:40Z</time></trkpt><trkpt lat="45.712262527174595" lon="9.562393715872421"><ele>254.0</ele><time>2026-04-25T09:23:41Z</time></trkpt><trkpt lat="45.71240521513493" lon="9.562215433446395"><ele>254.0</ele><time>2026-04-25T09:23:42Z</time></trkpt><trkpt lat="45.71255707904776" lon="9.562048543867716"><ele>254.0</ele><time>2026-04-25T09:23:43Z</time></trkpt><trkpt lat="45.71270492353985" lon="9.561881884384574"><ele>254.66666666666669</ele><time>2026-04-25T09:23:44Z</time></trkpt><trkpt lat="45.71284136450599" lon="9.561721813150617"><ele>255.33333333333331</ele><time>2026-04-25T09:23:45Z</time></trkpt><trkpt lat="45.71297631255603" lon="9.561564143969866"><ele>256.0</ele><time>2026-04-25T09:23:46Z</time></trkpt><trkpt lat="45.713095004865686" lon="9.561428363470133"><ele>256.0</ele><time>2026-04-25T09:23:47Z</time></trkpt><trkpt lat="45.71320692737604" lon="9.561298966899642"><ele>256.0</ele><time>2026-04-25T09:23:48Z</time></trkpt><trkpt lat="45.713312133959" lon="9.561174578689688"><ele>256.0</ele><time>2026-04-25T09:23:49Z</time></trkpt><trkpt lat="45.71340996433507" lon="9.561054578472605"><ele>256.0</ele><time>2026-04-25T09:23:50Z</time></trkpt><trkpt lat="45.71351304718461" lon="9.560938405624123"><ele>256.40000000000003</ele><time>2026-04-25T09:23:51Z</time></trkpt><trkpt lat="45.71360145825895" lon="9.560835216951624"><ele>256.8</ele><time>2026-04-25T09:23:52Z</time></trkpt><trkpt lat="45.71368504054471" lon="9.560761142873714"><ele>257.20000000000005</ele><time>2026-04-25T09:23:53Z</time></trkpt><trkpt lat="45.71377067943525" lon="9.560684652222188"><ele>257.6</ele><time>2026-04-25T09:23:54Z</time></trkpt><trkpt lat="45.71386230240018" lon="9.560601806961186"><ele>258.0</ele><time>2026-04-25T09:23:55Z</time></trkpt><trkpt lat="45.71395992148184" lon="9.560525249444376"><ele>258.0</ele><time>2026-04-25T09:23:56Z</time></trkpt><trkpt lat="45.71405687144701" lon="9.560469620783165"><ele>258.0</ele><time>2026-04-25T09:23:57Z</time></trkpt><trkpt lat="45.71414907874382" lon="9.560440780643233"><ele>258.0</ele><time>2026-04-25T09:23:58Z</time></trkpt><trkpt lat="45.71423796556117" lon="9.560433991420606"><ele>258.0</ele><time>2026-04-25T09:23:59Z</time></trkpt><trkpt lat="45.7143190698501" lon="9.560460824588375"><ele>258.0</ele><time>2026-04-25T09:24:00Z</time></trkpt><trkpt lat="45.714389510797595" lon="9.560502105419276"><ele>258.0</ele><time>2026-04-25T09:24:01Z</time></trkpt><trkpt lat="45.71445809637649" lon="9.560519721799633"><ele>258.2857142857143</ele><time>2026-04-25T09:24:02Z</time></trkpt><trkpt lat="45.71452392980932" lon="9.560504777918569"><ele>258.57142857142856</ele><time>2026-04-25T09:24:03Z</time></trkpt><trkpt lat="45.714580389539684" lon="9.560454692241953"><ele>258.8571428571429</ele><time>2026-04-25T09:24:04Z</time></trkpt><trkpt lat="45.7146230730163" lon="9.56036574819582"><ele>259.1428571428571</ele><time>2026-04-25T09:24:05Z</time></trkpt><trkpt lat="45.71463635306149" lon="9.56024345329377"><ele>259.42857142857144</ele><time>2026-04-25T09:24:06Z</time></trkpt><trkpt lat="45.71462748297663" lon="9.560131831840003"><ele>259.7142857142857</ele><time>2026-04-25T09:24:07Z</time></trkpt><trkpt lat="45.71460373242943" lon="9.560035953493239"><ele>260.0</ele><time>2026-04-25T09:24:08Z</time></trkpt><trkpt lat="45.71458724437881" lon="9.559933257898985"><ele>260.0</ele><time>2026-04-25T09:24:09Z</time></trkpt><trkpt lat="45.71460084831702" lon="9.559815192785248"><ele>260.0</ele><time>2026-04-25T09:24:10Z</time></trkpt><trkpt lat="45.714652437376024" lon="9.559694783322879"><ele>260.0</ele><time>2026-04-25T09:24:11Z</time></trkpt><trkpt lat="45.71472543752997" lon="9.559565977065848"><ele>260.0</ele><time>2026-04-25T09:24:12Z</time></trkpt><trkpt lat="45.714804819987" lon="9.559436063299042"><ele>260.0</ele><time>2026-04-25T09:24:13Z</time></trkpt><trkpt lat="45.71489601336139" lon="9.559308813087311"><ele>260.0</ele><time>2026-04-25T09:24:14Z</time></trkpt><trkpt lat="45.71499718464725" lon="9.5591822947236"><ele>260.0</ele><time>2026-04-25T09:24:15Z</time></trkpt><trkpt lat="45.71511010066703" lon="9.559053071356557"><ele>260.0</ele><time>2026-04-25T09:24:16Z</time></trkpt><trkpt lat="45.71522788146465" lon="9.558924057097453"><ele>260.0</ele><time>2026-04-25T09:24:17Z</time></trkpt><trkpt lat="45.715346667282965" lon="9.558783210513145"><ele>260.6666666666667</ele><time>2026-04-25T09:24:18Z</time></trkpt><trkpt lat="45.71546921157277" lon="9.558636237461778"><ele>261.3333333333333</ele><time>2026-04-25T09:24:19Z</time></trkpt><trkpt lat="45.71559242920659" lon="9.558490057609905"><ele>262.0</ele><time>2026-04-25T09:24:20Z</time></trkpt><trkpt lat="45.71571909109429" lon="9.558345859728334"><ele>262.0</ele><time>2026-04-25T09:24:21Z</time></trkpt><trkpt lat="45.7158461848727" lon="9.558198395031674"><ele>262.0</ele><time>2026-04-25T09:24:22Z</time></trkpt><trkpt lat="45.71597157264563" lon="9.558050076452432"><ele>262.0</ele><time>2026-04-25T09:24:23Z</time></trkpt><trkpt lat="45.716097400853464" lon="9.557898664801744"><ele>262.0</ele><time>2026-04-25T09:24:24Z</time></trkpt><trkpt lat="45.716225723335185" lon="9.557748464672711"><ele>262.0</ele><time>2026-04-25T09:24:25Z</time></trkpt><trkpt lat="45.71635402672544" lon="9.557599241209527"><ele>262.0</ele><time>2026-04-25T09:24:26Z</time></trkpt><trkpt lat="45.7164816615538" lon="9.557447786810634"><ele>262.0</ele><time>2026-04-25T09:24:27Z</time></trkpt><trkpt lat="45.716607148284794" lon="9.557302308438068"><ele>262.0</ele><time>2026-04-25T09:24:28Z</time></trkpt><trkpt lat="45.71672896341625" lon="9.557161955935484"><ele>262.0</ele><time>2026-04-25T09:24:29Z</time></trkpt><trkpt lat="45.71684447729695" lon="9.557033223970377"><ele>262.5</ele><time>2026-04-25T09:24:30Z</time></trkpt><trkpt lat="45.716955911631025" lon="9.556919728148467"><ele>263.0</ele><time>2026-04-25T09:24:31Z</time></trkpt><trkpt lat="45.717066716804375" lon="9.556823013742862"><ele>263.5</ele><time>2026-04-25T09:24:32Z</time></trkpt><trkpt lat="45.71718818002423" lon="9.556775067897615"><ele>264.0</ele><time>2026-04-25T09:24:32.999Z</time></trkpt><trkpt lat="45.71731353345204" lon="9.556713040146617"><ele>264.0</ele><time>2026-04-25T09:24:33.999Z</time></trkpt><trkpt lat="45.71744170230708" lon="9.556640458670492"><ele>264.0</ele><time>2026-04-25T09:24:34.999Z</time></trkpt><trkpt lat="45.717576342146444" lon="9.556592619720309"><ele>264.0</ele><time>2026-04-25T09:24:35.999Z</time></trkpt><trkpt lat="45.7177136681673" lon="9.556544492035352"><ele>264.0</ele><time>2026-04-25T09:24:36.999Z</time></trkpt><trkpt lat="45.71785398495686" lon="9.556497745987985"><ele>264.0</ele><time>2026-04-25T09:24:37.999Z</time></trkpt><trkpt lat="45.71799673136432" lon="9.55645079982537"><ele>264.0</ele><time>2026-04-25T09:24:38.999Z</time></trkpt><trkpt lat="45.718142791735886" lon="9.556400617203918"><ele>264.0</ele><time>2026-04-25T09:24:39.999Z</time></trkpt><trkpt lat="45.718287580781976" lon="9.556358667998717"><ele>264.0</ele><time>2026-04-25T09:24:40.999Z</time></trkpt><trkpt lat="45.71843560590385" lon="9.556317572094366"><ele>264.25</ele><time>2026-04-25T09:24:41.999Z</time></trkpt><trkpt lat="45.71857588347842" lon="9.556269478766119"><ele>264.5</ele><time>2026-04-25T09:24:42.999Z</time></trkpt><trkpt lat="45.718715030665564" lon="9.556220328884645"><ele>264.75</ele><time>2026-04-25T09:24:43.999Z</time></trkpt><trkpt lat="45.71884405794671" lon="9.556174784123733"><ele>265.0</ele><time>2026-04-25T09:24:44.999Z</time></trkpt><trkpt lat="45.71896711664163" lon="9.556124824287345"><ele>265.0</ele><time>2026-04-25T09:24:45.999Z</time></trkpt><trkpt lat="45.71908328227983" lon="9.556077026608675"><ele>265.0</ele><time>2026-04-25T09:24:46.999Z</time></trkpt><trkpt lat="45.719186715239516" lon="9.556031897648769"><ele>265.0</ele><time>2026-04-25T09:24:47.999Z</time></trkpt><trkpt lat="45.71928261539181" lon="9.555990425547021"><ele>265.0</ele><time>2026-04-25T09:24:48.999Z</time></trkpt><trkpt lat="45.71937298474621" lon="9.555967178052914"><ele>265.0</ele><time>2026-04-25T09:24:49.999Z</time></trkpt><trkpt lat="45.71946313959786" lon="9.555964901363268"><ele>265.4</ele><time>2026-04-25T09:24:50.999Z</time></trkpt><trkpt lat="45.7195566622625" lon="9.55596876363421"><ele>265.8</ele><time>2026-04-25T09:24:51.999Z</time></trkpt><trkpt lat="45.719650325341775" lon="9.555955163504779"><ele>266.2</ele><time>2026-04-25T09:24:52.999Z</time></trkpt><trkpt lat="45.719746563369775" lon="9.55589274991768"><ele>266.6</ele><time>2026-04-25T09:24:53.999Z</time></trkpt><trkpt lat="45.71986009812115" lon="9.555836416026093"><ele>267.0</ele><time>2026-04-25T09:24:54.999Z</time></trkpt><trkpt lat="45.7199898202158" lon="9.555810785310006"><ele>267.0</ele><time>2026-04-25T09:24:55.999Z</time></trkpt><trkpt lat="45.720126391059374" lon="9.555788592604264"><ele>267.0</ele><time>2026-04-25T09:24:56.999Z</time></trkpt><trkpt lat="45.720270793013455" lon="9.555760754582707"><ele>267.0</ele><time>2026-04-25T09:24:57.999Z</time></trkpt><trkpt lat="45.720419093312366" lon="9.555723404811356"><ele>267.0</ele><time>2026-04-25T09:24:58.999Z</time></trkpt><trkpt lat="45.72057062342836" lon="9.555673037406113"><ele>266.3333333333333</ele><time>2026-04-25T09:24:59.999Z</time></trkpt><trkpt lat="45.720719745419096" lon="9.555610183792552"><ele>265.66666666666663</ele><time>2026-04-25T09:25:00.999Z</time></trkpt><trkpt lat="45.72087236850372" lon="9.555551427081783"><ele>265.0</ele><time>2026-04-25T09:25:01.999Z</time></trkpt><trkpt lat="45.72102836503702" lon="9.555498393168953"><ele>266.0</ele><time>2026-04-25T09:25:02.999Z</time></trkpt><trkpt lat="45.72118503925905" lon="9.55544620156369"><ele>267.0</ele><time>2026-04-25T09:25:03.999Z</time></trkpt><trkpt lat="45.721344269771606" lon="9.55539341464853"><ele>268.0</ele><time>2026-04-25T09:25:04.999Z</time></trkpt><trkpt lat="45.72150623209471" lon="9.555339593097399"><ele>268.0</ele><time>2026-04-25T09:25:05.999Z</time></trkpt><trkpt lat="45.72166603599174" lon="9.555288151259479"><ele>268.0</ele><time>2026-04-25T09:25:06.999Z</time></trkpt><trkpt lat="45.72182709676405" lon="9.555232218293574"><ele>268.0</ele><time>2026-04-25T09:25:07.999Z</time></trkpt><trkpt lat="45.72198320517368" lon="9.555166052518294"><ele>268.0</ele><time>2026-04-25T09:25:08.999Z</time></trkpt><trkpt lat="45.72213570966097" lon="9.555082122172157"><ele>268.0</ele><time>2026-04-25T09:25:09.999Z</time></trkpt><trkpt lat="45.722281569897206" lon="9.554993419141317"><ele>268.0</ele><time>2026-04-25T09:25:10.999Z</time></trkpt><trkpt lat="45.72242398017443" lon="9.554897316087155"><ele>268.0</ele><time>2026-04-25T09:25:11.999Z</time></trkpt><trkpt lat="45.72255811194429" lon="9.554792479358682"><ele>268.0</ele><time>2026-04-25T09:25:12.999Z</time></trkpt><trkpt lat="45.72268452028254" lon="9.55467771667692"><ele>268.0</ele><time>2026-04-25T09:25:14Z</time></trkpt><trkpt lat="45.72280665207235" lon="9.554555739509954"><ele>268.3333333333333</ele><time>2026-04-25T09:25:15Z</time></trkpt><trkpt lat="45.722923255663986" lon="9.554424373063165"><ele>268.6666666666667</ele><time>2026-04-25T09:25:16Z</time></trkpt><trkpt lat="45.72303752606666" lon="9.554280401863583"><ele>269.0</ele><time>2026-04-25T09:25:17Z</time></trkpt><trkpt lat="45.72314883822781" lon="9.554129778284645"><ele>269.0</ele><time>2026-04-25T09:25:18Z</time></trkpt><trkpt lat="45.72325764547789" lon="9.55397559835387"><ele>269.0</ele><time>2026-04-25T09:25:19Z</time></trkpt><trkpt lat="45.72336936371733" lon="9.553819703810753"><ele>269.0</ele><time>2026-04-25T09:25:20Z</time></trkpt><trkpt lat="45.723480629480996" lon="9.55366680246645"><ele>269.0</ele><time>2026-04-25T09:25:21Z</time></trkpt><trkpt lat="45.72359058089123" lon="9.553518178424014"><ele>269.0</ele><time>2026-04-25T09:25:22Z</time></trkpt><trkpt lat="45.72369901411244" lon="9.553371512510116"><ele>269.0</ele><time>2026-04-25T09:25:23Z</time></trkpt><trkpt lat="45.72380335915013" lon="9.553229766877974"><ele>269.0</ele><time>2026-04-25T09:25:24Z</time></trkpt><trkpt lat="45.723902202114736" lon="9.553089394561315"><ele>269.0</ele><time>2026-04-25T09:25:25Z</time></trkpt><trkpt lat="45.7239945827061" lon="9.55295416316509"><ele>269.0</ele><time>2026-04-25T09:25:26Z</time></trkpt><trkpt lat="45.724079595930775" lon="9.552830540722193"><ele>269.0</ele><time>2026-04-25T09:25:27Z</time></trkpt><trkpt lat="45.72416713692721" lon="9.55270178816662"><ele>269.0</ele><time>2026-04-25T09:25:28Z</time></trkpt><trkpt lat="45.72425405377119" lon="9.552577486736114"><ele>269.0</ele><time>2026-04-25T09:25:29Z</time></trkpt><trkpt lat="45.72434147323275" lon="9.552460141194986"><ele>269.0</ele><time>2026-04-25T09:25:30Z</time></trkpt><trkpt lat="45.7244212610329" lon="9.552348604179775"><ele>269.0</ele><time>2026-04-25T09:25:31Z</time></trkpt><trkpt lat="45.724494512947764" lon="9.552248759237273"><ele>269.0</ele><time>2026-04-25T09:25:32Z</time></trkpt><trkpt lat="45.72456669455767" lon="9.552166861624665"><ele>269.0</ele><time>2026-04-25T09:25:33Z</time></trkpt><trkpt lat="45.724642199333026" lon="9.552106491505993"><ele>269.0</ele><time>2026-04-25T09:25:34Z</time></trkpt><trkpt lat="45.72472749406041" lon="9.55205727327514"><ele>269.0</ele><time>2026-04-25T09:25:35Z</time></trkpt><trkpt lat="45.72481588108932" lon="9.552017563411413"><ele>269.0</ele><time>2026-04-25T09:25:36Z</time></trkpt><trkpt lat="45.72490258978148" lon="9.551955309508113"><ele>269.0</ele><time>2026-04-25T09:25:37Z</time></trkpt><trkpt lat="45.72497632397836" lon="9.551849844420342"><ele>269.0</ele><time>2026-04-25T09:25:38Z</time></trkpt><trkpt lat="45.72502295990644" lon="9.551702265221437"><ele>269.25</ele><time>2026-04-25T09:25:39Z</time></trkpt><trkpt lat="45.72506565880411" lon="9.5515402736515"><ele>269.5</ele><time>2026-04-25T09:25:40Z</time></trkpt><trkpt lat="45.72513510089955" lon="9.551390876105863"><ele>269.75</ele><time>2026-04-25T09:25:41Z</time></trkpt><trkpt lat="45.72522293876851" lon="9.551250443420116"><ele>270.0</ele><time>2026-04-25T09:25:42Z</time></trkpt><trkpt lat="45.725316742981924" lon="9.551113635770264"><ele>270.0</ele><time>2026-04-25T09:25:43Z</time></trkpt><trkpt lat="45.72540825467057" lon="9.550972396609248"><ele>270.0</ele><time>2026-04-25T09:25:44Z</time></trkpt><trkpt lat="45.72550162372253" lon="9.550823967388686"><ele>270.0</ele><time>2026-04-25T09:25:45Z</time></trkpt><trkpt lat="45.725599585233944" lon="9.550673679852167"><ele>270.0</ele><time>2026-04-25T09:25:46Z</time></trkpt><trkpt lat="45.725704164622584" lon="9.550523243239123"><ele>270.0</ele><time>2026-04-25T09:25:47Z</time></trkpt><trkpt lat="45.72581109255273" lon="9.550377789302287"><ele>270.0</ele><time>2026-04-25T09:25:48Z</time></trkpt><trkpt lat="45.725919151269224" lon="9.550230989861499"><ele>270.0</ele><time>2026-04-25T09:25:49Z</time></trkpt><trkpt lat="45.72602835086121" lon="9.550073959515858"><ele>270.3333333333333</ele><time>2026-04-25T09:25:50Z</time></trkpt><trkpt lat="45.7261397093428" lon="9.549907304443424"><ele>270.66666666666663</ele><time>2026-04-25T09:25:51Z</time></trkpt><trkpt lat="45.72625553553864" lon="9.549732265801596"><ele>271.0</ele><time>2026-04-25T09:25:52Z</time></trkpt><trkpt lat="45.72637247830625" lon="9.54955777836493"><ele>271.3333333333333</ele><time>2026-04-25T09:25:53Z</time></trkpt><trkpt lat="45.72649100936028" lon="9.549370821311847"><ele>271.6666666666667</ele><time>2026-04-25T09:25:54Z</time></trkpt><trkpt lat="45.72659694413068" lon="9.549177937527556"><ele>272.0</ele><time>2026-04-25T09:25:55Z</time></trkpt><trkpt lat="45.72669614435118" lon="9.548969802287322"><ele>272.0</ele><time>2026-04-25T09:25:56Z</time></trkpt><trkpt lat="45.72678521277244" lon="9.548750879330894"><ele>272.0</ele><time>2026-04-25T09:25:57Z</time></trkpt><trkpt lat="45.72686529301917" lon="9.54852047291188"><ele>272.0</ele><time>2026-04-25T09:25:58Z</time></trkpt><trkpt lat="45.7269358629549" lon="9.54828132033907"><ele>273.0</ele><time>2026-04-25T09:25:59Z</time></trkpt><trkpt lat="45.72699378501264" lon="9.548028456719939"><ele>274.0</ele><time>2026-04-25T09:26:00Z</time></trkpt><trkpt lat="45.7270366015371" lon="9.547770274292542"><ele>275.0</ele><time>2026-04-25T09:26:01Z</time></trkpt><trkpt lat="45.72707353493842" lon="9.547504711117137"><ele>275.0</ele><time>2026-04-25T09:26:02Z</time></trkpt><trkpt lat="45.72710200073965" lon="9.547234179301066"><ele>275.0</ele><time>2026-04-25T09:26:03Z</time></trkpt><trkpt lat="45.72711851483919" lon="9.546966777580066"><ele>275.0</ele><time>2026-04-25T09:26:04Z</time></trkpt><trkpt lat="45.7271296775201" lon="9.546701405406198"><ele>274.6666666666667</ele><time>2026-04-25T09:26:05Z</time></trkpt><trkpt lat="45.727151659967404" lon="9.546438618148843"><ele>274.3333333333333</ele><time>2026-04-25T09:26:06Z</time></trkpt><trkpt lat="45.72717563339269" lon="9.546167254437481"><ele>274.0</ele><time>2026-04-25T09:26:07Z</time></trkpt><trkpt lat="45.72720224724469" lon="9.545897789207359"><ele>274.0</ele><time>2026-04-25T09:26:08Z</time></trkpt><trkpt lat="45.72722868378649" lon="9.545625331502102"><ele>274.0</ele><time>2026-04-25T09:26:09Z</time></trkpt><trkpt lat="45.72725288296606" lon="9.545349004403212"><ele>274.0</ele><time>2026-04-25T09:26:10Z</time></trkpt><trkpt lat="45.727277430945755" lon="9.545076352052844"><ele>273.66666666666663</ele><time>2026-04-25T09:26:11Z</time></trkpt><trkpt lat="45.727301696182174" lon="9.54480343103204"><ele>273.3333333333333</ele><time>2026-04-25T09:26:12Z</time></trkpt><trkpt lat="45.727324183871644" lon="9.544530359865815"><ele>273.0</ele><time>2026-04-25T09:26:13Z</time></trkpt><trkpt lat="45.72734601508116" lon="9.54425938651069"><ele>273.0</ele><time>2026-04-25T09:26:14Z</time></trkpt><trkpt lat="45.72737015692704" lon="9.54399009430531"><ele>273.0</ele><time>2026-04-25T09:26:15Z</time></trkpt><trkpt lat="45.727393966210265" lon="9.543722397663515"><ele>273.0</ele><time>2026-04-25T09:26:16Z</time></trkpt><trkpt lat="45.727411535495385" lon="9.54345610286337"><ele>273.0</ele><time>2026-04-25T09:26:17Z</time></trkpt><trkpt lat="45.72742301920958" lon="9.54318739028703"><ele>273.0</ele><time>2026-04-25T09:26:18Z</time></trkpt><trkpt lat="45.727432061743976" lon="9.542921867184223"><ele>273.0</ele><time>2026-04-25T09:26:19Z</time></trkpt><trkpt lat="45.72743951735591" lon="9.542655369432499"><ele>273.3333333333333</ele><time>2026-04-25T09:26:20Z</time></trkpt><trkpt lat="45.727445411069425" lon="9.542388510616352"><ele>273.66666666666663</ele><time>2026-04-25T09:26:21Z</time></trkpt><trkpt lat="45.72744855332414" lon="9.542121298689125"><ele>274.0</ele><time>2026-04-25T09:26:22Z</time></trkpt><trkpt lat="45.727446583312805" lon="9.541856398067699"><ele>274.3333333333333</ele><time>2026-04-25T09:26:23Z</time></trkpt><trkpt lat="45.72743893376234" lon="9.541588763923851"><ele>274.6666666666667</ele><time>2026-04-25T09:26:24Z</time></trkpt><trkpt lat="45.727428289362386" lon="9.541323281511206"><ele>275.0</ele><time>2026-04-25T09:26:25Z</time></trkpt><trkpt lat="45.72741700045107" lon="9.541066824263428"><ele>275.6666666666667</ele><time>2026-04-25T09:26:26Z</time></trkpt><trkpt lat="45.72740882276977" lon="9.54081688610256"><ele>276.3333333333333</ele><time>2026-04-25T09:26:26.999Z</time></trkpt><trkpt lat="45.72739911562324" lon="9.54056464474065"><ele>277.0</ele><time>2026-04-25T09:26:27.999Z</time></trkpt><trkpt lat="45.72738762665369" lon="9.540311093830532"><ele>277.0</ele><time>2026-04-25T09:26:28.999Z</time></trkpt><trkpt lat="45.727372749777295" lon="9.540057315841127"><ele>277.0</ele><time>2026-04-25T09:26:29.999Z</time></trkpt><trkpt lat="45.72735535321433" lon="9.539797908663523"><ele>277.0</ele><time>2026-04-25T09:26:30.999Z</time></trkpt><trkpt lat="45.72733754432164" lon="9.539539191887874"><ele>277.66666666666663</ele><time>2026-04-25T09:26:31.999Z</time></trkpt><trkpt lat="45.727319143829945" lon="9.539279821780488"><ele>278.3333333333333</ele><time>2026-04-25T09:26:32.999Z</time></trkpt><trkpt lat="45.72729989688895" lon="9.539019130389237"><ele>279.0</ele><time>2026-04-25T09:26:33.999Z</time></trkpt><trkpt lat="45.72728106801578" lon="9.538760842785235"><ele>279.0</ele><time>2026-04-25T09:26:34.999Z</time></trkpt><trkpt lat="45.727262202942576" lon="9.538502276338034"><ele>279.0</ele><time>2026-04-25T09:26:35.999Z</time></trkpt><trkpt lat="45.727243636554164" lon="9.538244390325508"><ele>279.0</ele><time>2026-04-25T09:26:36.999Z</time></trkpt><trkpt lat="45.72722578382074" lon="9.537988437319601"><ele>278.6666666666667</ele><time>2026-04-25T09:26:37.999Z</time></trkpt><trkpt lat="45.72720429320297" lon="9.537723051883253"><ele>278.33333333333337</ele><time>2026-04-25T09:26:38.999Z</time></trkpt><trkpt lat="45.727182456080314" lon="9.537452500462651"><ele>278.0</ele><time>2026-04-25T09:26:39.999Z</time></trkpt><trkpt lat="45.72716325857475" lon="9.537173786965296"><ele>278.6666666666667</ele><time>2026-04-25T09:26:40.999Z</time></trkpt><trkpt lat="45.72714425051435" lon="9.53688984413016"><ele>279.3333333333333</ele><time>2026-04-25T09:26:41.999Z</time></trkpt><trkpt lat="45.72712967576303" lon="9.53660046812539"><ele>280.0</ele><time>2026-04-25T09:26:42.999Z</time></trkpt><trkpt lat="45.727119012725" lon="9.536324129168566"><ele>280.0</ele><time>2026-04-25T09:26:43.999Z</time></trkpt><trkpt lat="45.72711031552285" lon="9.536059273149748"><ele>280.0</ele><time>2026-04-25T09:26:44.999Z</time></trkpt><trkpt lat="45.72712369419955" lon="9.535752302648511"><ele>280.0</ele><time>2026-04-25T09:26:45.999Z</time></trkpt><trkpt lat="45.727140118747585" lon="9.535466774678719"><ele>280.66666666666663</ele><time>2026-04-25T09:26:46.999Z</time></trkpt><trkpt lat="45.727170396925594" lon="9.535188105618"><ele>281.3333333333333</ele><time>2026-04-25T09:26:47.999Z</time></trkpt><trkpt lat="45.7272175092392" lon="9.534910638318648"><ele>282.0</ele><time>2026-04-25T09:26:48.999Z</time></trkpt><trkpt lat="45.72727905714971" lon="9.534642005805674"><ele>282.3333333333333</ele><time>2026-04-25T09:26:49.999Z</time></trkpt><trkpt lat="45.72735522627211" lon="9.534383500497725"><ele>282.66666666666663</ele><time>2026-04-25T09:26:50.999Z</time></trkpt><trkpt lat="45.727438504075906" lon="9.534122514082123"><ele>283.0</ele><time>2026-04-25T09:26:51.999Z</time></trkpt><trkpt lat="45.727533691969334" lon="9.533877432526083"><ele>282.66666666666663</ele><time>2026-04-25T09:26:52.999Z</time></trkpt><trkpt lat="45.72763451298975" lon="9.533633671279713"><ele>282.3333333333333</ele><time>2026-04-25T09:26:53.999Z</time></trkpt><trkpt lat="45.727731355518586" lon="9.533393856364707"><ele>282.0</ele><time>2026-04-25T09:26:54.999Z</time></trkpt><trkpt lat="45.7278304170305" lon="9.53314929848608"><ele>283.0</ele><time>2026-04-25T09:26:55.999Z</time></trkpt><trkpt lat="45.72793084106685" lon="9.53291333917797"><ele>284.0</ele><time>2026-04-25T09:26:56.999Z</time></trkpt><trkpt lat="45.7280295660176" lon="9.532677491913363"><ele>285.0</ele><time>2026-04-25T09:26:57.999Z</time></trkpt><trkpt lat="45.728124301757724" lon="9.532456780791273"><ele>285.0</ele><time>2026-04-25T09:26:58.999Z</time></trkpt><trkpt lat="45.72821515934504" lon="9.53223252366292"><ele>285.0</ele><time>2026-04-25T09:26:59.999Z</time></trkpt><trkpt lat="45.728301932342006" lon="9.53201440523331"><ele>285.0</ele><time>2026-04-25T09:27:00.999Z</time></trkpt><trkpt lat="45.728386769508894" lon="9.53180060529029"><ele>285.6666666666667</ele><time>2026-04-25T09:27:01.999Z</time></trkpt><trkpt lat="45.728477338953816" lon="9.531588500720977"><ele>286.33333333333337</ele><time>2026-04-25T09:27:02.999Z</time></trkpt><trkpt lat="45.728560355938356" lon="9.5313750698356"><ele>287.0</ele><time>2026-04-25T09:27:03.999Z</time></trkpt><trkpt lat="45.728650789445595" lon="9.531164920325514"><ele>287.6666666666667</ele><time>2026-04-25T09:27:04.999Z</time></trkpt><trkpt lat="45.728748438659714" lon="9.53094836072295"><ele>288.3333333333333</ele><time>2026-04-25T09:27:05.999Z</time></trkpt><trkpt lat="45.728844745227185" lon="9.530732173835547"><ele>289.0</ele><time>2026-04-25T09:27:06.999Z</time></trkpt><trkpt lat="45.72893953013249" lon="9.530510042556559"><ele>288.66666666666663</ele><time>2026-04-25T09:27:07.999Z</time></trkpt><trkpt lat="45.729031252294604" lon="9.530288586162378"><ele>288.3333333333333</ele><time>2026-04-25T09:27:08.999Z</time></trkpt><trkpt lat="45.72911824656359" lon="9.530066745034736"><ele>288.0</ele><time>2026-04-25T09:27:09.999Z</time></trkpt><trkpt lat="45.72919978817986" lon="9.529843766876821"><ele>288.0</ele><time>2026-04-25T09:27:10.999Z</time></trkpt><trkpt lat="45.72927432490484" lon="9.529619308758777"><ele>288.0</ele><time>2026-04-25T09:27:11.999Z</time></trkpt><trkpt lat="45.72934063679334" lon="9.529399163033617"><ele>288.0</ele><time>2026-04-25T09:27:12.999Z</time></trkpt><trkpt lat="45.72940071575656" lon="9.529175973073428"><ele>288.6666666666667</ele><time>2026-04-25T09:27:13.999Z</time></trkpt><trkpt lat="45.72945441714841" lon="9.528944256618765"><ele>289.33333333333337</ele><time>2026-04-25T09:27:14.999Z</time></trkpt><trkpt lat="45.72950550408067" lon="9.528702362168826"><ele>290.0</ele><time>2026-04-25T09:27:15.999Z</time></trkpt><trkpt lat="45.72955631738461" lon="9.528456412293513"><ele>290.0</ele><time>2026-04-25T09:27:16.999Z</time></trkpt><trkpt lat="45.72960737641297" lon="9.528204490281878"><ele>290.0</ele><time>2026-04-25T09:27:17.999Z</time></trkpt><trkpt lat="45.72966009109279" lon="9.527949015118947"><ele>290.0</ele><time>2026-04-25T09:27:19Z</time></trkpt><trkpt lat="45.729719085917296" lon="9.52769638229667"><ele>290.0</ele><time>2026-04-25T09:27:20Z</time></trkpt><trkpt lat="45.72977496320603" lon="9.527440478311597"><ele>290.0</ele><time>2026-04-25T09:27:21Z</time></trkpt><trkpt lat="45.72983389035341" lon="9.527180329486498"><ele>290.0</ele><time>2026-04-25T09:27:22Z</time></trkpt><trkpt lat="45.72989022809607" lon="9.526918894472189"><ele>290.0</ele><time>2026-04-25T09:27:23Z</time></trkpt><trkpt lat="45.72994594690136" lon="9.526655433261794"><ele>290.0</ele><time>2026-04-25T09:27:24Z</time></trkpt><trkpt lat="45.73000150891629" lon="9.5263876069134"><ele>290.0</ele><time>2026-04-25T09:27:25Z</time></trkpt><trkpt lat="45.730058983201275" lon="9.526124509998946"><ele>290.0</ele><time>2026-04-25T09:27:26Z</time></trkpt><trkpt lat="45.73011827449298" lon="9.525852252403128"><ele>290.0</ele><time>2026-04-25T09:27:27Z</time></trkpt><trkpt lat="45.730175294774" lon="9.525585143496764"><ele>290.0</ele><time>2026-04-25T09:27:28Z</time></trkpt><trkpt lat="45.73023335080194" lon="9.525315354883487"><ele>292.33333333333337</ele><time>2026-04-25T09:27:29Z</time></trkpt><trkpt lat="45.73028598801729" lon="9.525039775146263"><ele>294.6666666666667</ele><time>2026-04-25T09:27:30Z</time></trkpt><trkpt lat="45.730334149375615" lon="9.524765468016204"><ele>297.0</ele><time>2026-04-25T09:27:31Z</time></trkpt><trkpt lat="45.730368158328055" lon="9.524489446736425"><ele>297.0</ele><time>2026-04-25T09:27:32Z</time></trkpt><trkpt lat="45.73038859980656" lon="9.52420518128124"><ele>297.0</ele><time>2026-04-25T09:27:33Z</time></trkpt><trkpt lat="45.730394762353406" lon="9.523922358645878"><ele>297.0</ele><time>2026-04-25T09:27:34Z</time></trkpt><trkpt lat="45.730377182587475" lon="9.523638959159307"><ele>296.3333333333333</ele><time>2026-04-25T09:27:35Z</time></trkpt><trkpt lat="45.7303533517249" lon="9.52335789141258"><ele>295.66666666666663</ele><time>2026-04-25T09:27:36Z</time></trkpt><trkpt lat="45.730326264824434" lon="9.523078108448493"><ele>295.0</ele><time>2026-04-25T09:27:37Z</time></trkpt><trkpt lat="45.73030037084789" lon="9.522803733809601"><ele>295.0</ele><time>2026-04-25T09:27:38Z</time></trkpt><trkpt lat="45.73027479025648" lon="9.522525659068926"><ele>295.0</ele><time>2026-04-25T09:27:39Z</time></trkpt><trkpt lat="45.7302487315703" lon="9.522248796690302"><ele>295.0</ele><time>2026-04-25T09:27:40Z</time></trkpt><trkpt lat="45.73022748713906" lon="9.521966912887802"><ele>294.66666666666663</ele><time>2026-04-25T09:27:41Z</time></trkpt><trkpt lat="45.73020814936068" lon="9.521682780388717"><ele>294.3333333333333</ele><time>2026-04-25T09:27:42Z</time></trkpt><trkpt lat="45.73018883078284" lon="9.521402575500119"><ele>294.0</ele><time>2026-04-25T09:27:43Z</time></trkpt><trkpt lat="45.73017042398171" lon="9.521117883315494"><ele>293.6666666666667</ele><time>2026-04-25T09:27:44Z</time></trkpt><trkpt lat="45.73014955875068" lon="9.520837991861576"><ele>293.33333333333337</ele><time>2026-04-25T09:27:45Z</time></trkpt><trkpt lat="45.73012568616657" lon="9.520561057942343"><ele>293.0</ele><time>2026-04-25T09:27:46Z</time></trkpt><trkpt lat="45.730105718965866" lon="9.520288769508875"><ele>293.0</ele><time>2026-04-25T09:27:47Z</time></trkpt><trkpt lat="45.730085441177565" lon="9.520022774262834"><ele>293.0</ele><time>2026-04-25T09:27:48Z</time></trkpt><trkpt lat="45.73006514014379" lon="9.51976093686409"><ele>293.0</ele><time>2026-04-25T09:27:49Z</time></trkpt><trkpt lat="45.73004556372841" lon="9.519501449615584"><ele>293.33333333333337</ele><time>2026-04-25T09:27:50Z</time></trkpt><trkpt lat="45.73002663439287" lon="9.519247285951803"><ele>293.6666666666667</ele><time>2026-04-25T09:27:51Z</time></trkpt><trkpt lat="45.7300094222258" lon="9.519001961922763"><ele>294.0</ele><time>2026-04-25T09:27:52Z</time></trkpt><trkpt lat="45.72999605648904" lon="9.51876436568727"><ele>294.3333333333333</ele><time>2026-04-25T09:27:53Z</time></trkpt><trkpt lat="45.729986865848105" lon="9.518523451275964"><ele>294.66666666666663</ele><time>2026-04-25T09:27:54Z</time></trkpt><trkpt lat="45.72998646069116" lon="9.518279442827795"><ele>295.0</ele><time>2026-04-25T09:27:55Z</time></trkpt><trkpt lat="45.72999569328475" lon="9.518034873509432"><ele>295.0</ele><time>2026-04-25T09:27:56Z</time></trkpt><trkpt lat="45.73001392246755" lon="9.517789687365731"><ele>295.0</ele><time>2026-04-25T09:27:57Z</time></trkpt><trkpt lat="45.7300368814787" lon="9.51754337794288"><ele>295.0</ele><time>2026-04-25T09:27:58Z</time></trkpt><trkpt lat="45.73007194878647" lon="9.517301023161815"><ele>294.66666666666663</ele><time>2026-04-25T09:27:59Z</time></trkpt><trkpt lat="45.730112229616694" lon="9.51705523828455"><ele>294.3333333333333</ele><time>2026-04-25T09:28:00Z</time></trkpt><trkpt lat="45.730151381555224" lon="9.516810929965676"><ele>294.0</ele><time>2026-04-25T09:28:01Z</time></trkpt><trkpt lat="45.730186390854215" lon="9.516564165666786"><ele>294.0</ele><time>2026-04-25T09:28:02Z</time></trkpt><trkpt lat="45.73021901513215" lon="9.51632259232295"><ele>294.0</ele><time>2026-04-25T09:28:03Z</time></trkpt><trkpt lat="45.73025148966436" lon="9.516082451013826"><ele>294.0</ele><time>2026-04-25T09:28:04Z</time></trkpt><trkpt lat="45.73028502779373" lon="9.515848721912192"><ele>294.3333333333333</ele><time>2026-04-25T09:28:05Z</time></trkpt><trkpt lat="45.73031833073797" lon="9.515621557667256"><ele>294.66666666666663</ele><time>2026-04-25T09:28:06Z</time></trkpt><trkpt lat="45.730350940921895" lon="9.51540123729807"><ele>295.0</ele><time>2026-04-25T09:28:07Z</time></trkpt><trkpt lat="45.73037927072455" lon="9.515211504037786"><ele>295.0</ele><time>2026-04-25T09:28:08Z</time></trkpt><trkpt lat="45.73040736267977" lon="9.515034898221234"><ele>295.0</ele><time>2026-04-25T09:28:09Z</time></trkpt><trkpt lat="45.7304344641319" lon="9.514864077006806"><ele>295.0</ele><time>2026-04-25T09:28:10Z</time></trkpt><trkpt lat="45.73046116193294" lon="9.514689290634701"><ele>295.0</ele><time>2026-04-25T09:28:11Z</time></trkpt><trkpt lat="45.7304879600495" lon="9.514505901253107"><ele>295.0</ele><time>2026-04-25T09:28:12Z</time></trkpt><trkpt lat="45.73051640539839" lon="9.514313605190258"><ele>295.0</ele><time>2026-04-25T09:28:13Z</time></trkpt><trkpt lat="45.730546733510224" lon="9.514112032731736"><ele>295.0</ele><time>2026-04-25T09:28:14Z</time></trkpt><trkpt lat="45.73057767828572" lon="9.513902946986681"><ele>295.0</ele><time>2026-04-25T09:28:15Z</time></trkpt><trkpt lat="45.73060796597061" lon="9.513692941361276"><ele>294.66666666666663</ele><time>2026-04-25T09:28:16Z</time></trkpt><trkpt lat="45.73063721842772" lon="9.513481702145462"><ele>294.3333333333333</ele><time>2026-04-25T09:28:17Z</time></trkpt><trkpt lat="45.730671735094724" lon="9.513264387501895"><ele>294.0</ele><time>2026-04-25T09:28:18Z</time></trkpt><trkpt lat="45.730700500749954" lon="9.513044992258074"><ele>294.6666666666667</ele><time>2026-04-25T09:28:19Z</time></trkpt><trkpt lat="45.73073059020291" lon="9.512828192276714"><ele>295.33333333333337</ele><time>2026-04-25T09:28:20Z</time></trkpt><trkpt lat="45.730760750208006" lon="9.512615236624"><ele>296.0</ele><time>2026-04-25T09:28:21Z</time></trkpt><trkpt lat="45.7307904579167" lon="9.51241310947408"><ele>296.0</ele><time>2026-04-25T09:28:22Z</time></trkpt><trkpt lat="45.730818405326396" lon="9.512214570204419"><ele>296.0</ele><time>2026-04-25T09:28:23Z</time></trkpt><trkpt lat="45.73084377444714" lon="9.512024293999787"><ele>296.0</ele><time>2026-04-25T09:28:24Z</time></trkpt><trkpt lat="45.73087164546044" lon="9.511839815769784"><ele>296.0</ele><time>2026-04-25T09:28:25Z</time></trkpt><trkpt lat="45.730900187127226" lon="9.511651690927282"><ele>296.5</ele><time>2026-04-25T09:28:26Z</time></trkpt><trkpt lat="45.730928160142795" lon="9.511460293916887"><ele>297.0</ele><time>2026-04-25T09:28:27Z</time></trkpt><trkpt lat="45.730957809088935" lon="9.511263333637775"><ele>297.5</ele><time>2026-04-25T09:28:28Z</time></trkpt><trkpt lat="45.730985299281286" lon="9.511064319813602"><ele>298.0</ele><time>2026-04-25T09:28:28.999Z</time></trkpt><trkpt lat="45.731014975180905" lon="9.510864410902041"><ele>298.75</ele><time>2026-04-25T09:28:29.999Z</time></trkpt><trkpt lat="45.731045081477305" lon="9.510677018852538"><ele>299.5</ele><time>2026-04-25T09:28:30.999Z</time></trkpt><trkpt lat="45.731071875528734" lon="9.510486916044828"><ele>300.25</ele><time>2026-04-25T09:28:31.999Z</time></trkpt><trkpt lat="45.73109872819506" lon="9.510299838991344"><ele>301.0</ele><time>2026-04-25T09:28:32.999Z</time></trkpt><trkpt lat="45.731127565038605" lon="9.510119495394443"><ele>302.75</ele><time>2026-04-25T09:28:33.999Z</time></trkpt><trkpt lat="45.73115264230454" lon="9.50994853564763"><ele>304.5</ele><time>2026-04-25T09:28:34.999Z</time></trkpt><trkpt lat="45.73117415329207" lon="9.509787367728745"><ele>306.25</ele><time>2026-04-25T09:28:35.999Z</time></trkpt><trkpt lat="45.73119742118724" lon="9.509634948776126"><ele>308.0</ele><time>2026-04-25T09:28:36.999Z</time></trkpt><trkpt lat="45.731216759745756" lon="9.509482964153277"><ele>308.0</ele><time>2026-04-25T09:28:37.999Z</time></trkpt><trkpt lat="45.73123707540698" lon="9.509327965917565"><ele>308.0</ele><time>2026-04-25T09:28:38.999Z</time></trkpt><trkpt lat="45.73125395983131" lon="9.509205134556309"><ele>308.0</ele><time>2026-04-25T09:28:39.999Z</time></trkpt><trkpt lat="45.731267283195336" lon="9.509101119595293"><ele>308.0</ele><time>2026-04-25T09:28:40.999Z</time></trkpt><trkpt lat="45.7312803062244" lon="9.508997413305291"><ele>308.0</ele><time>2026-04-25T09:28:41.999Z</time></trkpt><trkpt lat="45.73129519857369" lon="9.508893793680858"><ele>308.0</ele><time>2026-04-25T09:28:42.999Z</time></trkpt><trkpt lat="45.73131522089913" lon="9.50877334694188"><ele>308.4</ele><time>2026-04-25T09:28:43.999Z</time></trkpt><trkpt lat="45.73133653223674" lon="9.508640323081128"><ele>308.8</ele><time>2026-04-25T09:28:44.999Z</time></trkpt><trkpt lat="45.73135834852099" lon="9.50848624510574"><ele>309.2</ele><time>2026-04-25T09:28:45.999Z</time></trkpt><trkpt lat="45.73138021613024" lon="9.508325905841316"><ele>309.6</ele><time>2026-04-25T09:28:46.999Z</time></trkpt><trkpt lat="45.731404109174164" lon="9.508165007722077"><ele>310.0</ele><time>2026-04-25T09:28:47.999Z</time></trkpt><trkpt lat="45.73143304359422" lon="9.507999228370533"><ele>311.25</ele><time>2026-04-25T09:28:48.999Z</time></trkpt><trkpt lat="45.731462000369746" lon="9.507833516849582"><ele>312.5</ele><time>2026-04-25T09:28:49.999Z</time></trkpt><trkpt lat="45.73148633807751" lon="9.507667066713825"><ele>313.75</ele><time>2026-04-25T09:28:50.999Z</time></trkpt><trkpt lat="45.73150813656071" lon="9.507504240337283"><ele>315.0</ele><time>2026-04-25T09:28:51.999Z</time></trkpt><trkpt lat="45.73153525180092" lon="9.507335947114678"><ele>315.0</ele><time>2026-04-25T09:28:52.999Z</time></trkpt><trkpt lat="45.73155972543949" lon="9.507154239692964"><ele>315.0</ele><time>2026-04-25T09:28:53.999Z</time></trkpt><trkpt lat="45.731582726352194" lon="9.50696085180712"><ele>315.0</ele><time>2026-04-25T09:28:54.999Z</time></trkpt><trkpt lat="45.73160593025822" lon="9.506752380279277"><ele>315.0</ele><time>2026-04-25T09:28:55.999Z</time></trkpt><trkpt lat="45.73162182006761" lon="9.506534439573116"><ele>315.6666666666667</ele><time>2026-04-25T09:28:56.999Z</time></trkpt><trkpt lat="45.73163054135841" lon="9.506310206061038"><ele>316.33333333333337</ele><time>2026-04-25T09:28:57.999Z</time></trkpt><trkpt lat="45.731634374174725" lon="9.506084780440414"><ele>317.0</ele><time>2026-04-25T09:28:58.999Z</time></trkpt><trkpt lat="45.731634562144116" lon="9.505857590792866"><ele>315.0</ele><time>2026-04-25T09:28:59.999Z</time></trkpt><trkpt lat="45.73163457037358" lon="9.505633569123216"><ele>313.0</ele><time>2026-04-25T09:29:00.999Z</time></trkpt><trkpt lat="45.731633246866465" lon="9.505404217023015"><ele>311.0</ele><time>2026-04-25T09:29:01.999Z</time></trkpt><trkpt lat="45.73162924860303" lon="9.505175740345916"><ele>310.33333333333337</ele><time>2026-04-25T09:29:02.999Z</time></trkpt><trkpt lat="45.73162776652559" lon="9.504946621524374"><ele>309.6666666666667</ele><time>2026-04-25T09:29:03.999Z</time></trkpt><trkpt lat="45.7316268333134" lon="9.504714561193861"><ele>309.0</ele><time>2026-04-25T09:29:04.999Z</time></trkpt><trkpt lat="45.73161972800773" lon="9.504485492446754"><ele>308.6666666666667</ele><time>2026-04-25T09:29:05.999Z</time></trkpt><trkpt lat="45.73160413997137" lon="9.504264760797515"><ele>308.33333333333337</ele><time>2026-04-25T09:29:06.999Z</time></trkpt><trkpt lat="45.7315847240211" lon="9.504053616609857"><ele>308.0</ele><time>2026-04-25T09:29:07.999Z</time></trkpt><trkpt lat="45.73155989866406" lon="9.503837974054274"><ele>307.33333333333337</ele><time>2026-04-25T09:29:08.999Z</time></trkpt><trkpt lat="45.73153459380451" lon="9.503611306322696"><ele>306.6666666666667</ele><time>2026-04-25T09:29:09.999Z</time></trkpt><trkpt lat="45.73151258716231" lon="9.503375444623163"><ele>306.0</ele><time>2026-04-25T09:29:10.999Z</time></trkpt><trkpt lat="45.73149257659389" lon="9.503148551840338"><ele>306.0</ele><time>2026-04-25T09:29:11.999Z</time></trkpt><trkpt lat="45.731472861702095" lon="9.502922874215876"><ele>306.0</ele><time>2026-04-25T09:29:12.999Z</time></trkpt><trkpt lat="45.731452834126436" lon="9.502697052265756"><ele>306.0</ele><time>2026-04-25T09:29:13.999Z</time></trkpt><trkpt lat="45.73143207227463" lon="9.502460473967943"><ele>306.0</ele><time>2026-04-25T09:29:14.999Z</time></trkpt><trkpt lat="45.731419666835826" lon="9.502208778531637"><ele>306.0</ele><time>2026-04-25T09:29:15.999Z</time></trkpt><trkpt lat="45.7314198218618" lon="9.501952503491665"><ele>306.0</ele><time>2026-04-25T09:29:16.999Z</time></trkpt><trkpt lat="45.73143664805322" lon="9.50170393057513"><ele>305.3333333333333</ele><time>2026-04-25T09:29:17.999Z</time></trkpt><trkpt lat="45.731463299441764" lon="9.501470770371336"><ele>304.66666666666663</ele><time>2026-04-25T09:29:18.999Z</time></trkpt><trkpt lat="45.7314982650084" lon="9.501236836938968"><ele>304.0</ele><time>2026-04-25T09:29:19.999Z</time></trkpt><trkpt lat="45.731536553106714" lon="9.500996116749562"><ele>303.66666666666663</ele><time>2026-04-25T09:29:20.999Z</time></trkpt><trkpt lat="45.731573598417064" lon="9.500752417470274"><ele>303.3333333333333</ele><time>2026-04-25T09:29:21.999Z</time></trkpt><trkpt lat="45.7316127488446" lon="9.500507736430379"><ele>303.0</ele><time>2026-04-25T09:29:22.999Z</time></trkpt><trkpt lat="45.73165181098162" lon="9.500258875810056"><ele>302.0</ele><time>2026-04-25T09:29:23.999Z</time></trkpt><trkpt lat="45.73169012342572" lon="9.500007758498212"><ele>301.0</ele><time>2026-04-25T09:29:25Z</time></trkpt><trkpt lat="45.73172849239805" lon="9.499755956699193"><ele>300.0</ele><time>2026-04-25T09:29:26Z</time></trkpt><trkpt lat="45.73176751957443" lon="9.49950842968464"><ele>298.3333333333333</ele><time>2026-04-25T09:29:27Z</time></trkpt><trkpt lat="45.731802454475805" lon="9.499268172582843"><ele>296.66666666666663</ele><time>2026-04-25T09:29:28Z</time></trkpt><trkpt lat="45.73183694470546" lon="9.499039396475007"><ele>295.0</ele><time>2026-04-25T09:29:29Z</time></trkpt><trkpt lat="45.73187321611306" lon="9.498821127317553"><ele>297.0</ele><time>2026-04-25T09:29:30Z</time></trkpt><trkpt lat="45.731906373141626" lon="9.498611656580092"><ele>299.0</ele><time>2026-04-25T09:29:31Z</time></trkpt><trkpt lat="45.73193724297875" lon="9.498410502615402"><ele>301.0</ele><time>2026-04-25T09:29:32Z</time></trkpt><trkpt lat="45.731967185523864" lon="9.498218068110324"><ele>303.0</ele><time>2026-04-25T09:29:33Z</time></trkpt><trkpt lat="45.73199927060263" lon="9.498017397629166"><ele>302.0</ele><time>2026-04-25T09:29:34Z</time></trkpt><trkpt lat="45.732034122218906" lon="9.49781069642794"><ele>301.0</ele><time>2026-04-25T09:29:35Z</time></trkpt><trkpt lat="45.73206868409474" lon="9.49759409202718"><ele>300.0</ele><time>2026-04-25T09:29:36Z</time></trkpt><trkpt lat="45.732103921514145" lon="9.497369996238591"><ele>300.0</ele><time>2026-04-25T09:29:37Z</time></trkpt><trkpt lat="45.73214124889136" lon="9.497140635446872"><ele>300.0</ele><time>2026-04-25T09:29:38Z</time></trkpt><trkpt lat="45.73217866075771" lon="9.49690582685983"><ele>300.0</ele><time>2026-04-25T09:29:39Z</time></trkpt><trkpt lat="45.73221574391361" lon="9.496664851290886"><ele>298.3333333333333</ele><time>2026-04-25T09:29:40Z</time></trkpt><trkpt lat="45.73225195244526" lon="9.496422277791142"><ele>296.66666666666663</ele><time>2026-04-25T09:29:41Z</time></trkpt><trkpt lat="45.73228968073915" lon="9.496176891644842"><ele>295.0</ele><time>2026-04-25T09:29:42Z</time></trkpt><trkpt lat="45.7323306872826" lon="9.495930615762495"><ele>292.66666666666663</ele><time>2026-04-25T09:29:43Z</time></trkpt><trkpt lat="45.7323732546776" lon="9.495687127995541"><ele>290.3333333333333</ele><time>2026-04-25T09:29:44Z</time></trkpt><trkpt lat="45.73241760203719" lon="9.49544827926658"><ele>288.0</ele><time>2026-04-25T09:29:45Z</time></trkpt><trkpt lat="45.73247209369091" lon="9.49521074071667"><ele>288.0</ele><time>2026-04-25T09:29:46Z</time></trkpt><trkpt lat="45.73252924943637" lon="9.494981560058964"><ele>288.0</ele><time>2026-04-25T09:29:47Z</time></trkpt><trkpt lat="45.73258846268032" lon="9.49476666977276"><ele>288.0</ele><time>2026-04-25T09:29:48Z</time></trkpt><trkpt lat="45.73264436490335" lon="9.49457772397796"><ele>288.4</ele><time>2026-04-25T09:29:49Z</time></trkpt><trkpt lat="45.73269167019723" lon="9.494413467152869"><ele>288.8</ele><time>2026-04-25T09:29:50Z</time></trkpt><trkpt lat="45.73273177011559" lon="9.494268124795278"><ele>289.2</ele><time>2026-04-25T09:29:51Z</time></trkpt><trkpt lat="45.73276710746018" lon="9.494140889472284"><ele>289.6</ele><time>2026-04-25T09:29:52Z</time></trkpt><trkpt lat="45.73279631403083" lon="9.494037061309637"><ele>290.0</ele><time>2026-04-25T09:29:53Z</time></trkpt><trkpt lat="45.73283014193443" lon="9.493886789446856"><ele>290.4</ele><time>2026-04-25T09:29:55Z</time></trkpt><trkpt lat="45.73290042298818" lon="9.493752827505764"><ele>290.8</ele><time>2026-04-25T09:29:57Z</time></trkpt><trkpt lat="45.73295519640921" lon="9.493682421361443"><ele>291.2</ele><time>2026-04-25T09:29:58Z</time></trkpt><trkpt lat="45.73299585942734" lon="9.493582593965435"><ele>291.6</ele><time>2026-04-25T09:29:59Z</time></trkpt><trkpt lat="45.733002950870855" lon="9.493449526248678"><ele>292.0</ele><time>2026-04-25T09:30:00Z</time></trkpt><trkpt lat="45.73301524440517" lon="9.493308216797889"><ele>292.0</ele><time>2026-04-25T09:30:01Z</time></trkpt><trkpt lat="45.73304757873399" lon="9.493155391618231"><ele>292.0</ele><time>2026-04-25T09:30:02Z</time></trkpt><trkpt lat="45.733089105868586" lon="9.49300089848257"><ele>292.0</ele><time>2026-04-25T09:30:03Z</time></trkpt><trkpt lat="45.73313531806772" lon="9.492831932420936"><ele>292.0</ele><time>2026-04-25T09:30:04Z</time></trkpt><trkpt lat="45.73318737039957" lon="9.492643117363722"><ele>290.3333333333333</ele><time>2026-04-25T09:30:05Z</time></trkpt><trkpt lat="45.73324023992937" lon="9.492442818680729"><ele>288.6666666666667</ele><time>2026-04-25T09:30:06Z</time></trkpt><trkpt lat="45.73329504201456" lon="9.492226737253755"><ele>287.0</ele><time>2026-04-25T09:30:07Z</time></trkpt><trkpt lat="45.73335605465631" lon="9.491996860141246"><ele>284.6666666666667</ele><time>2026-04-25T09:30:08Z</time></trkpt><trkpt lat="45.73343247994045" lon="9.491753101882486"><ele>282.3333333333333</ele><time>2026-04-25T09:30:09Z</time></trkpt><trkpt lat="45.73351285690013" lon="9.491497753954379"><ele>280.0</ele><time>2026-04-25T09:30:10Z</time></trkpt><trkpt lat="45.73359450549031" lon="9.491225777954"><ele>278.3333333333333</ele><time>2026-04-25T09:30:11Z</time></trkpt><trkpt lat="45.733654725769796" lon="9.491010488741578"><ele>276.6666666666667</ele><time>2026-04-25T09:30:12Z</time></trkpt><trkpt lat="45.733735351960085" lon="9.490737036413481"><ele>275.0</ele><time>2026-04-25T09:30:13Z</time></trkpt><trkpt lat="45.73381181052263" lon="9.490456503724575"><ele>274.0</ele><time>2026-04-25T09:30:14Z</time></trkpt><trkpt lat="45.733891018655314" lon="9.490169519226399"><ele>273.0</ele><time>2026-04-25T09:30:15Z</time></trkpt><trkpt lat="45.73396714582854" lon="9.489882124723193"><ele>272.0</ele><time>2026-04-25T09:30:16Z</time></trkpt><trkpt lat="45.73404682788052" lon="9.489591091570581"><ele>271.33333333333337</ele><time>2026-04-25T09:30:17Z</time></trkpt><trkpt lat="45.73412860672204" lon="9.489306824462505"><ele>270.6666666666667</ele><time>2026-04-25T09:30:18Z</time></trkpt><trkpt lat="45.734211518615425" lon="9.489021606170466"><ele>270.0</ele><time>2026-04-25T09:30:19Z</time></trkpt><trkpt lat="45.734293003911624" lon="9.488739647549822"><ele>268.6666666666667</ele><time>2026-04-25T09:30:20Z</time></trkpt><trkpt lat="45.73438362527972" lon="9.48846450597823"><ele>267.33333333333337</ele><time>2026-04-25T09:30:21Z</time></trkpt><trkpt lat="45.73448173048418" lon="9.488194998664223"><ele>266.0</ele><time>2026-04-25T09:30:22Z</time></trkpt><trkpt lat="45.73459725388406" lon="9.487947659502845"><ele>266.6666666666667</ele><time>2026-04-25T09:30:23Z</time></trkpt><trkpt lat="45.734727586551195" lon="9.487706995658556"><ele>267.3333333333333</ele><time>2026-04-25T09:30:24Z</time></trkpt><trkpt lat="45.734863658945436" lon="9.487482146124155"><ele>268.0</ele><time>2026-04-25T09:30:25Z</time></trkpt><trkpt lat="45.735007890591795" lon="9.48727507584611"><ele>268.3333333333333</ele><time>2026-04-25T09:30:26Z</time></trkpt><trkpt lat="45.73514628092208" lon="9.48708901388546"><ele>268.6666666666667</ele><time>2026-04-25T09:30:27Z</time></trkpt><trkpt lat="45.73528543711531" lon="9.486929420231712"><ele>269.0</ele><time>2026-04-25T09:30:28Z</time></trkpt><trkpt lat="45.73542823217546" lon="9.486789895499626"><ele>269.0</ele><time>2026-04-25T09:30:29Z</time></trkpt><trkpt lat="45.73556200122338" lon="9.486659090516818"><ele>269.0</ele><time>2026-04-25T09:30:29.999Z</time></trkpt><trkpt lat="45.735692976591906" lon="9.486532353012183"><ele>269.0</ele><time>2026-04-25T09:30:30.999Z</time></trkpt><trkpt lat="45.73583100647307" lon="9.486406440254008"><ele>269.0</ele><time>2026-04-25T09:30:31.999Z</time></trkpt><trkpt lat="45.73596264620117" lon="9.48627584506896"><ele>269.0</ele><time>2026-04-25T09:30:32.999Z</time></trkpt><trkpt lat="45.73608484877374" lon="9.486162530786949"><ele>269.0</ele><time>2026-04-25T09:30:33.999Z</time></trkpt><trkpt lat="45.736198723826575" lon="9.486069341658462"><ele>269.0</ele><time>2026-04-25T09:30:34.999Z</time></trkpt><trkpt lat="45.73629209109345" lon="9.485990784963512"><ele>268.4</ele><time>2026-04-25T09:30:35.999Z</time></trkpt><trkpt lat="45.73637814188814" lon="9.485920221310183"><ele>267.79999999999995</ele><time>2026-04-25T09:30:36.999Z</time></trkpt><trkpt lat="45.73646193906486" lon="9.485861597145234"><ele>267.20000000000005</ele><time>2026-04-25T09:30:37.999Z</time></trkpt><trkpt lat="45.73654689396541" lon="9.485815373505051"><ele>266.6</ele><time>2026-04-25T09:30:38.999Z</time></trkpt><trkpt lat="45.736631533881194" lon="9.485784801566716"><ele>266.0</ele><time>2026-04-25T09:30:39.999Z</time></trkpt><trkpt lat="45.736714769935816" lon="9.4857831344843"><ele>266.0</ele><time>2026-04-25T09:30:40.999Z</time></trkpt><trkpt lat="45.73680034314048" lon="9.48581105081548"><ele>266.0</ele><time>2026-04-25T09:30:41.999Z</time></trkpt><trkpt lat="45.73688279531131" lon="9.485866996935497"><ele>266.0</ele><time>2026-04-25T09:30:42.999Z</time></trkpt><trkpt lat="45.73705506521492" lon="9.485895757938444"><ele>266.0</ele><time>2026-04-25T09:30:44.999Z</time></trkpt><trkpt lat="45.73713914674442" lon="9.485834681966024"><ele>266.0</ele><time>2026-04-25T09:30:45.999Z</time></trkpt><trkpt lat="45.73722738033928" lon="9.485799834310745"><ele>265.40000000000003</ele><time>2026-04-25T09:30:46.999Z</time></trkpt><trkpt lat="45.73731829966905" lon="9.485810935030855"><ele>264.8</ele><time>2026-04-25T09:30:47.999Z</time></trkpt><trkpt lat="45.73739864995877" lon="9.485853450111602"><ele>264.20000000000005</ele><time>2026-04-25T09:30:48.999Z</time></trkpt><trkpt lat="45.73747459381159" lon="9.485920970192515"><ele>263.6</ele><time>2026-04-25T09:30:49.999Z</time></trkpt><trkpt lat="45.73752966966818" lon="9.486032809749645"><ele>263.0</ele><time>2026-04-25T09:30:50.999Z</time></trkpt><trkpt lat="45.737607829331665" lon="9.48612616958252"><ele>263.0</ele><time>2026-04-25T09:30:51.999Z</time></trkpt><trkpt lat="45.73766532502318" lon="9.486244428994667"><ele>263.0</ele><time>2026-04-25T09:30:52.999Z</time></trkpt><trkpt lat="45.73772249175622" lon="9.486349125884017"><ele>263.0</ele><time>2026-04-25T09:30:53.999Z</time></trkpt><trkpt lat="45.73777829894864" lon="9.48644302649153"><ele>263.0</ele><time>2026-04-25T09:30:54.999Z</time></trkpt><trkpt lat="45.73783654983695" lon="9.486526130753179"><ele>263.0</ele><time>2026-04-25T09:30:55.999Z</time></trkpt><trkpt lat="45.737907273258806" lon="9.486583759015742"><ele>263.0</ele><time>2026-04-25T09:30:56.999Z</time></trkpt><trkpt lat="45.73799036472435" lon="9.486607541025153"><ele>262.8</ele><time>2026-04-25T09:30:57.999Z</time></trkpt><trkpt lat="45.73808317031765" lon="9.486611813342268"><ele>262.6</ele><time>2026-04-25T09:30:58.999Z</time></trkpt><trkpt lat="45.73817839316882" lon="9.486571801515707"><ele>262.4</ele><time>2026-04-25T09:30:59.999Z</time></trkpt><trkpt lat="45.738271300245934" lon="9.486504950482502"><ele>262.2</ele><time>2026-04-25T09:31:00.999Z</time></trkpt><trkpt lat="45.73834961421487" lon="9.48639719154377"><ele>262.0</ele><time>2026-04-25T09:31:01.999Z</time></trkpt><trkpt lat="45.738406978331774" lon="9.48625904793089"><ele>261.25</ele><time>2026-04-25T09:31:02.999Z</time></trkpt><trkpt lat="45.738444817050926" lon="9.486088507038357"><ele>260.5</ele><time>2026-04-25T09:31:03.999Z</time></trkpt><trkpt lat="45.73846537673554" lon="9.485893820919848"><ele>259.75</ele><time>2026-04-25T09:31:04.999Z</time></trkpt><trkpt lat="45.7384822983183" lon="9.485688344369503"><ele>259.0</ele><time>2026-04-25T09:31:05.999Z</time></trkpt><trkpt lat="45.738508863575106" lon="9.485469422008725"><ele>258.66666666666663</ele><time>2026-04-25T09:31:06.999Z</time></trkpt><trkpt lat="45.738546742757535" lon="9.48523277591687"><ele>258.3333333333333</ele><time>2026-04-25T09:31:07.999Z</time></trkpt><trkpt lat="45.738642562363644" lon="9.48499782025307"><ele>258.0</ele><time>2026-04-25T09:31:08.999Z</time></trkpt><trkpt lat="45.73870542772135" lon="9.484734719540418"><ele>260.2</ele><time>2026-04-25T09:31:09.999Z</time></trkpt><trkpt lat="45.73877046545361" lon="9.484524873628045"><ele>262.4</ele><time>2026-04-25T09:31:10.999Z</time></trkpt><trkpt lat="45.73879168026892" lon="9.484423652675783"><ele>264.59999999999997</ele><time>2026-04-25T09:31:11.999Z</time></trkpt><trkpt lat="45.73879742340496" lon="9.484309258353086"><ele>266.8</ele><time>2026-04-25T09:31:51Z</time></trkpt><trkpt lat="45.73880129422091" lon="9.484216636542067"><ele>269.0</ele><time>2026-04-25T09:31:52Z</time></trkpt><trkpt lat="45.73880674068976" lon="9.484094837214126"><ele>269.0</ele><time>2026-04-25T09:31:53Z</time></trkpt><trkpt lat="45.738815094221025" lon="9.483946044224368"><ele>269.0</ele><time>2026-04-25T09:31:54Z</time></trkpt><trkpt lat="45.73883361430859" lon="9.483785579941514"><ele>269.0</ele><time>2026-04-25T09:31:55Z</time></trkpt><trkpt lat="45.73885620783755" lon="9.483601621081176"><ele>269.0</ele><time>2026-04-25T09:31:56Z</time></trkpt><trkpt lat="45.73889203096988" lon="9.483413315616925"><ele>267.25</ele><time>2026-04-25T09:31:57Z</time></trkpt><trkpt lat="45.73893349251267" lon="9.483222420834462"><ele>265.5</ele><time>2026-04-25T09:31:58Z</time></trkpt><trkpt lat="45.738968582049495" lon="9.483012413824342"><ele>263.75</ele><time>2026-04-25T09:31:59Z</time></trkpt><trkpt lat="45.739040473425305" lon="9.482821614424932"><ele>262.0</ele><time>2026-04-25T09:32:00Z</time></trkpt><trkpt lat="45.73913325163369" lon="9.482643063935086"><ele>261.75</ele><time>2026-04-25T09:32:01Z</time></trkpt><trkpt lat="45.73923312741547" lon="9.482508036473456"><ele>261.5</ele><time>2026-04-25T09:32:02Z</time></trkpt><trkpt lat="45.739358072286" lon="9.482398844511911"><ele>261.25</ele><time>2026-04-25T09:32:03Z</time></trkpt><trkpt lat="45.73948122478917" lon="9.482265808048433"><ele>261.0</ele><time>2026-04-25T09:32:04Z</time></trkpt><trkpt lat="45.739607431102385" lon="9.4821328630668"><ele>260.6666666666667</ele><time>2026-04-25T09:32:05Z</time></trkpt><trkpt lat="45.739701108397085" lon="9.481953118596063"><ele>260.33333333333337</ele><time>2026-04-25T09:32:06Z</time></trkpt><trkpt lat="45.73976152542799" lon="9.481744932213626"><ele>260.0</ele><time>2026-04-25T09:32:07Z</time></trkpt><trkpt lat="45.7398140623539" lon="9.481542101142264"><ele>260.0</ele><time>2026-04-25T09:32:08Z</time></trkpt><trkpt lat="45.739868910453" lon="9.481357099369292"><ele>260.0</ele><time>2026-04-25T09:32:09Z</time></trkpt><trkpt lat="45.73992551763636" lon="9.481190882121222"><ele>260.0</ele><time>2026-04-25T09:32:10Z</time></trkpt><trkpt lat="45.73996461708155" lon="9.481036283691207"><ele>260.0</ele><time>2026-04-25T09:32:11Z</time></trkpt><trkpt lat="45.73995526187552" lon="9.48088430591079"><ele>260.2</ele><time>2026-04-25T09:32:12Z</time></trkpt><trkpt lat="45.73990693407461" lon="9.48075507190065"><ele>260.4</ele><time>2026-04-25T09:32:13Z</time></trkpt><trkpt lat="45.73982009319089" lon="9.480671061668255"><ele>260.6</ele><time>2026-04-25T09:32:14Z</time></trkpt><trkpt lat="45.73972459044085" lon="9.480637922505318"><ele>260.8</ele><time>2026-04-25T09:32:15Z</time></trkpt><trkpt lat="45.739630525921235" lon="9.48065722850046"><ele>261.0</ele><time>2026-04-25T09:32:16Z</time></trkpt><trkpt lat="45.7395454446536" lon="9.480705196788001"><ele>261.0</ele><time>2026-04-25T09:32:17Z</time></trkpt><trkpt lat="45.73946917693828" lon="9.480769521919505"><ele>261.0</ele><time>2026-04-25T09:32:18Z</time></trkpt><trkpt lat="45.73939473034533" lon="9.480845371808195"><ele>261.0</ele><time>2026-04-25T09:32:19Z</time></trkpt><trkpt lat="45.73932273442989" lon="9.480924574314944"><ele>261.0</ele><time>2026-04-25T09:32:20Z</time></trkpt><trkpt lat="45.73925982233889" lon="9.481012425294923"><ele>261.0</ele><time>2026-04-25T09:32:21Z</time></trkpt><trkpt lat="45.739196551179276" lon="9.481094005076173"><ele>261.0</ele><time>2026-04-25T09:32:22Z</time></trkpt><trkpt lat="45.73912940689721" lon="9.48116428064518"><ele>261.1666666666667</ele><time>2026-04-25T09:32:23Z</time></trkpt><trkpt lat="45.73907231691291" lon="9.481223217722036"><ele>261.3333333333333</ele><time>2026-04-25T09:32:23.999Z</time></trkpt><trkpt lat="45.738948981172726" lon="9.48125555928723"><ele>261.5</ele><time>2026-04-25T09:32:25.999Z</time></trkpt><trkpt lat="45.73887986178983" lon="9.481221650185638"><ele>261.66666666666663</ele><time>2026-04-25T09:32:26.999Z</time></trkpt><trkpt lat="45.738827928234905" lon="9.481137426365391"><ele>261.8333333333333</ele><time>2026-04-25T09:32:27.999Z</time></trkpt><trkpt lat="45.738821035313556" lon="9.481020856294633"><ele>262.0</ele><time>2026-04-25T09:32:28.999Z</time></trkpt><trkpt lat="45.7388554896453" lon="9.480914797595567"><ele>262.0</ele><time>2026-04-25T09:32:29.999Z</time></trkpt><trkpt lat="45.738915431487754" lon="9.480813244558203"><ele>262.0</ele><time>2026-04-25T09:32:30.999Z</time></trkpt><trkpt lat="45.7389864007202" lon="9.480713206249412"><ele>262.0</ele><time>2026-04-25T09:32:31.999Z</time></trkpt><trkpt lat="45.73906152870711" lon="9.480609762438151"><ele>262.0</ele><time>2026-04-25T09:32:32.999Z</time></trkpt><trkpt lat="45.7391350259965" lon="9.480515513373916"><ele>262.0</ele><time>2026-04-25T09:32:33.999Z</time></trkpt><trkpt lat="45.739205952711664" lon="9.480418528010501"><ele>262.6</ele><time>2026-04-25T09:32:34.999Z</time></trkpt><trkpt lat="45.73927501528677" lon="9.480316284995205"><ele>263.2</ele><time>2026-04-25T09:32:35.999Z</time></trkpt><trkpt lat="45.73933768962258" lon="9.48021649716809"><ele>263.8</ele><time>2026-04-25T09:32:36.999Z</time></trkpt><trkpt lat="45.73939082878603" lon="9.480104548859908"><ele>264.4</ele><time>2026-04-25T09:32:37.999Z</time></trkpt><trkpt lat="45.7394326756479" lon="9.479973586061357"><ele>265.0</ele><time>2026-04-25T09:32:38.999Z</time></trkpt><trkpt lat="45.739464121894805" lon="9.47982245130774"><ele>265.6</ele><time>2026-04-25T09:32:39.999Z</time></trkpt><trkpt lat="45.73948545838437" lon="9.47966135766529"><ele>266.2</ele><time>2026-04-25T09:32:40.999Z</time></trkpt><trkpt lat="45.73950371412331" lon="9.47952008612102"><ele>266.8</ele><time>2026-04-25T09:32:41.999Z</time></trkpt><trkpt lat="45.73952476722447" lon="9.479388151771271"><ele>267.4</ele><time>2026-04-25T09:32:42.999Z</time></trkpt><trkpt lat="45.73954654800931" lon="9.47925273321851"><ele>268.0</ele><time>2026-04-25T09:32:43.999Z</time></trkpt><trkpt lat="45.739571010363825" lon="9.479106152083476"><ele>268.0</ele><time>2026-04-25T09:32:44.999Z</time></trkpt><trkpt lat="45.73959475451643" lon="9.478948334125414"><ele>268.0</ele><time>2026-04-25T09:32:45.999Z</time></trkpt><trkpt lat="45.739619624909786" lon="9.478783851036626"><ele>268.0</ele><time>2026-04-25T09:32:46.999Z</time></trkpt><trkpt lat="45.73963963737833" lon="9.47861290342882"><ele>268.0</ele><time>2026-04-25T09:32:47.999Z</time></trkpt><trkpt lat="45.73966007068863" lon="9.478437930847841"><ele>268.0</ele><time>2026-04-25T09:32:48.999Z</time></trkpt><trkpt lat="45.73968476949328" lon="9.478264581600031"><ele>268.0</ele><time>2026-04-25T09:32:49.999Z</time></trkpt><trkpt lat="45.73971004812044" lon="9.478091565493427"><ele>268.0</ele><time>2026-04-25T09:32:50.999Z</time></trkpt><trkpt lat="45.739736315702835" lon="9.477911174110094"><ele>268.0</ele><time>2026-04-25T09:32:51.999Z</time></trkpt><trkpt lat="45.739764369905174" lon="9.47772585194993"><ele>268.0</ele><time>2026-04-25T09:32:52.999Z</time></trkpt><trkpt lat="45.739811763236624" lon="9.477546919718181"><ele>268.0</ele><time>2026-04-25T09:32:53.999Z</time></trkpt><trkpt lat="45.739823306039526" lon="9.477363054052677"><ele>268.0</ele><time>2026-04-25T09:32:54.999Z</time></trkpt><trkpt lat="45.73985483524645" lon="9.477180104438354"><ele>268.0</ele><time>2026-04-25T09:32:55.999Z</time></trkpt><trkpt lat="45.73988262992277" lon="9.476999851434716"><ele>267.6</ele><time>2026-04-25T09:32:56.999Z</time></trkpt><trkpt lat="45.739912247586375" lon="9.47682474091851"><ele>267.20000000000005</ele><time>2026-04-25T09:32:57.999Z</time></trkpt><trkpt lat="45.739933048449366" lon="9.476664881015209"><ele>266.8</ele><time>2026-04-25T09:32:58.999Z</time></trkpt><trkpt lat="45.739958918018445" lon="9.476514333883411"><ele>266.40000000000003</ele><time>2026-04-25T09:32:59.999Z</time></trkpt><trkpt lat="45.73997956877906" lon="9.476381452871212"><ele>266.0</ele><time>2026-04-25T09:33:00.999Z</time></trkpt><trkpt lat="45.73999874488337" lon="9.476255802234748"><ele>265.8</ele><time>2026-04-25T09:33:01.999Z</time></trkpt><trkpt lat="45.74002014886246" lon="9.476122875803993"><ele>265.6</ele><time>2026-04-25T09:33:02.999Z</time></trkpt><trkpt lat="45.74003844035489" lon="9.47598506841417"><ele>265.4</ele><time>2026-04-25T09:33:03.999Z</time></trkpt><trkpt lat="45.740060665148405" lon="9.475846208032179"><ele>265.2</ele><time>2026-04-25T09:33:04.999Z</time></trkpt><trkpt lat="45.74007978604293" lon="9.4757072724576"><ele>265.0</ele><time>2026-04-25T09:33:05.999Z</time></trkpt><trkpt lat="45.740099126068735" lon="9.475575917007756"><ele>265.0</ele><time>2026-04-25T09:33:06.999Z</time></trkpt><trkpt lat="45.74011938242292" lon="9.475459464633747"><ele>265.0</ele><time>2026-04-25T09:33:07.999Z</time></trkpt><trkpt lat="45.74013830080096" lon="9.475347055166768"><ele>265.0</ele><time>2026-04-25T09:33:08.999Z</time></trkpt><trkpt lat="45.740150959807764" lon="9.47524797359014"><ele>265.0</ele><time>2026-04-25T09:33:09.999Z</time></trkpt><trkpt lat="45.74018602600402" lon="9.475089843271926"><ele>265.0</ele><time>2026-04-25T09:33:11.999Z</time></trkpt><trkpt lat="45.740249416377516" lon="9.47506274915351"><ele>265.0</ele><time>2026-04-25T09:33:14.999Z</time></trkpt><trkpt lat="45.74032683237145" lon="9.47509260493062"><ele>265.0</ele><time>2026-04-25T09:33:15.999Z</time></trkpt><trkpt lat="45.74042946742318" lon="9.475162465074185"><ele>265.0</ele><time>2026-04-25T09:33:16.999Z</time></trkpt><trkpt lat="45.74054518173074" lon="9.475238007243107"><ele>265.0</ele><time>2026-04-25T09:33:17.999Z</time></trkpt><trkpt lat="45.740675480619" lon="9.47529618713859"><ele>265.0</ele><time>2026-04-25T09:33:18.999Z</time></trkpt><trkpt lat="45.7408110092429" lon="9.475378134836717"><ele>265.25</ele><time>2026-04-25T09:33:19.999Z</time></trkpt><trkpt lat="45.74094426272095" lon="9.47546089474119"><ele>265.5</ele><time>2026-04-25T09:33:20.999Z</time></trkpt><trkpt lat="45.74107270808067" lon="9.475540997668425"><ele>265.75</ele><time>2026-04-25T09:33:21.999Z</time></trkpt><trkpt lat="45.74119871889446" lon="9.475620536255413"><ele>266.0</ele><time>2026-04-25T09:33:22.999Z</time></trkpt><trkpt lat="45.74132503600045" lon="9.47570148903232"><ele>266.2</ele><time>2026-04-25T09:33:23.999Z</time></trkpt><trkpt lat="45.74144282013013" lon="9.475773548469242"><ele>266.40000000000003</ele><time>2026-04-25T09:33:24.999Z</time></trkpt><trkpt lat="45.74155559889433" lon="9.47582447852651"><ele>266.6</ele><time>2026-04-25T09:33:25.999Z</time></trkpt><trkpt lat="45.74165902963479" lon="9.475844415905941"><ele>266.8</ele><time>2026-04-25T09:33:26.999Z</time></trkpt><trkpt lat="45.741748644630725" lon="9.475825200759875"><ele>267.0</ele><time>2026-04-25T09:33:27.999Z</time></trkpt><trkpt lat="45.741822461110516" lon="9.475750691966637"><ele>267.0</ele><time>2026-04-25T09:33:28.999Z</time></trkpt><trkpt lat="45.741880969088356" lon="9.47561096221783"><ele>267.0</ele><time>2026-04-25T09:33:29.999Z</time></trkpt><trkpt lat="45.74197614497399" lon="9.475488162464847"><ele>267.0</ele><time>2026-04-25T09:33:30.999Z</time></trkpt><trkpt lat="45.742061525515794" lon="9.475341775080794"><ele>267.0</ele><time>2026-04-25T09:33:31.999Z</time></trkpt><trkpt lat="45.74216937308058" lon="9.47518248911813"><ele>267.6666666666667</ele><time>2026-04-25T09:33:32.999Z</time></trkpt><trkpt lat="45.742277757153076" lon="9.475026913433371"><ele>268.33333333333337</ele><time>2026-04-25T09:33:33.999Z</time></trkpt><trkpt lat="45.74239563830726" lon="9.474879085074253"><ele>269.0</ele><time>2026-04-25T09:33:34.999Z</time></trkpt><trkpt lat="45.742513919356924" lon="9.474733992545197"><ele>268.5</ele><time>2026-04-25T09:33:36Z</time></trkpt><trkpt lat="45.74263166290192" lon="9.474592303864798"><ele>268.0</ele><time>2026-04-25T09:33:37Z</time></trkpt><trkpt lat="45.74274616924516" lon="9.474465073483525"><ele>267.5</ele><time>2026-04-25T09:33:38Z</time></trkpt><trkpt lat="45.74285855804132" lon="9.47435581963192"><ele>267.0</ele><time>2026-04-25T09:33:39Z</time></trkpt><trkpt lat="45.742949593075124" lon="9.474256083399139"><ele>268.25</ele><time>2026-04-25T09:33:40Z</time></trkpt><trkpt lat="45.74300530718535" lon="9.474119707649736"><ele>269.5</ele><time>2026-04-25T09:33:41Z</time></trkpt><trkpt lat="45.74301988789685" lon="9.473940280670895"><ele>270.75</ele><time>2026-04-25T09:33:42Z</time></trkpt><trkpt lat="45.743013960389604" lon="9.473754447666296"><ele>272.0</ele><time>2026-04-25T09:33:43Z</time></trkpt><trkpt lat="45.743003137891584" lon="9.473558461393377"><ele>272.33333333333337</ele><time>2026-04-25T09:33:44Z</time></trkpt><trkpt lat="45.74302728153608" lon="9.473356522993635"><ele>272.6666666666667</ele><time>2026-04-25T09:33:45Z</time></trkpt><trkpt lat="45.74308064188559" lon="9.473154922702966"><ele>273.0</ele><time>2026-04-25T09:33:46Z</time></trkpt><trkpt lat="45.74315285960219" lon="9.472940274820141"><ele>273.3333333333333</ele><time>2026-04-25T09:33:47Z</time></trkpt><trkpt lat="45.7432380387072" lon="9.472712246379883"><ele>273.66666666666663</ele><time>2026-04-25T09:33:48Z</time></trkpt><trkpt lat="45.74332578449377" lon="9.472485505210148"><ele>274.0</ele><time>2026-04-25T09:33:49Z</time></trkpt><trkpt lat="45.74339974008407" lon="9.472280309028879"><ele>272.0</ele><time>2026-04-25T09:33:50Z</time></trkpt><trkpt lat="45.74345299510673" lon="9.472051785812788"><ele>270.0</ele><time>2026-04-25T09:33:51Z</time></trkpt><trkpt lat="45.74348503185714" lon="9.471820529782324"><ele>268.0</ele><time>2026-04-25T09:33:52Z</time></trkpt><trkpt lat="45.74350261713876" lon="9.471603069735218"><ele>268.0</ele><time>2026-04-25T09:33:53Z</time></trkpt><trkpt lat="45.74350067330864" lon="9.471399679592837"><ele>268.0</ele><time>2026-04-25T09:33:54Z</time></trkpt><trkpt lat="45.74347646178009" lon="9.471194040444564"><ele>268.0</ele><time>2026-04-25T09:33:55Z</time></trkpt><trkpt lat="45.743456275847954" lon="9.470967683138973"><ele>268.0</ele><time>2026-04-25T09:33:56Z</time></trkpt><trkpt lat="45.74346757733486" lon="9.470755636930171"><ele>267.8</ele><time>2026-04-25T09:33:57Z</time></trkpt><trkpt lat="45.74346643972912" lon="9.47056384854619"><ele>267.6</ele><time>2026-04-25T09:33:58Z</time></trkpt><trkpt lat="45.743468840941894" lon="9.470393571494869"><ele>267.4</ele><time>2026-04-25T09:33:59Z</time></trkpt><trkpt lat="45.74346243341801" lon="9.470250152967608"><ele>267.2</ele><time>2026-04-25T09:34:00Z</time></trkpt><trkpt lat="45.74342273521127" lon="9.470138217841596"><ele>267.0</ele><time>2026-04-25T09:34:01Z</time></trkpt><trkpt lat="45.74335839814342" lon="9.470048342901409"><ele>267.0</ele><time>2026-04-25T09:34:02Z</time></trkpt><trkpt lat="45.74326405222735" lon="9.469973454069734"><ele>267.0</ele><time>2026-04-25T09:34:03Z</time></trkpt><trkpt lat="45.74314998578633" lon="9.469911110288741"><ele>267.0</ele><time>2026-04-25T09:34:04Z</time></trkpt><trkpt lat="45.74303233404636" lon="9.469859807713455"><ele>267.0</ele><time>2026-04-25T09:34:05Z</time></trkpt><trkpt lat="45.742938960304855" lon="9.469799902960158"><ele>267.0</ele><time>2026-04-25T09:34:06Z</time></trkpt><trkpt lat="45.74288181026827" lon="9.469741528328015"><ele>267.0</ele><time>2026-04-25T09:34:07Z</time></trkpt><trkpt lat="45.74285131189684" lon="9.469611807009265"><ele>267.0</ele><time>2026-04-25T09:34:09Z</time></trkpt><trkpt lat="45.74287388695789" lon="9.469463769292625"><ele>267.0</ele><time>2026-04-25T09:34:11Z</time></trkpt><trkpt lat="45.74295163470571" lon="9.469378657775463"><ele>267.0</ele><time>2026-04-25T09:34:12Z</time></trkpt><trkpt lat="45.74304717945166" lon="9.469312855278533"><ele>266.0</ele><time>2026-04-25T09:34:13Z</time></trkpt><trkpt lat="45.74314909044961" lon="9.469250451718716"><ele>265.0</ele><time>2026-04-25T09:34:14Z</time></trkpt><trkpt lat="45.74326121380497" lon="9.46916867744251"><ele>264.0</ele><time>2026-04-25T09:34:15Z</time></trkpt><trkpt lat="45.74338720328616" lon="9.469058810984277"><ele>263.0</ele><time>2026-04-25T09:34:16Z</time></trkpt><trkpt lat="45.74353230380109" lon="9.468967625618674"><ele>262.33333333333337</ele><time>2026-04-25T09:34:17Z</time></trkpt><trkpt lat="45.74369243860202" lon="9.468905068683373"><ele>261.6666666666667</ele><time>2026-04-25T09:34:18Z</time></trkpt><trkpt lat="45.74387169908841" lon="9.468866639947999"><ele>261.0</ele><time>2026-04-25T09:34:19Z</time></trkpt><trkpt lat="45.74402737592581" lon="9.468873171873707"><ele>261.0</ele><time>2026-04-25T09:34:19.999Z</time></trkpt><trkpt lat="45.74420729210872" lon="9.46895308392612"><ele>261.0</ele><time>2026-04-25T09:34:20.999Z</time></trkpt><trkpt lat="45.74438499996924" lon="9.469058791251541"><ele>261.0</ele><time>2026-04-25T09:34:21.999Z</time></trkpt><trkpt lat="45.74457217792669" lon="9.469169327767432"><ele>259.3333333333333</ele><time>2026-04-25T09:34:22.999Z</time></trkpt><trkpt lat="45.744771459080894" lon="9.469264234484697"><ele>257.66666666666663</ele><time>2026-04-25T09:34:23.999Z</time></trkpt><trkpt lat="45.74496641207872" lon="9.469387543449171"><ele>256.0</ele><time>2026-04-25T09:34:24.999Z</time></trkpt><trkpt lat="45.745161765214455" lon="9.469503357486126"><ele>256.3333333333333</ele><time>2026-04-25T09:34:25.999Z</time></trkpt><trkpt lat="45.745360869710126" lon="9.469619360649187"><ele>256.6666666666667</ele><time>2026-04-25T09:34:26.999Z</time></trkpt><trkpt lat="45.74556153039163" lon="9.469738033671174"><ele>257.0</ele><time>2026-04-25T09:34:27.999Z</time></trkpt><trkpt lat="45.74576233711346" lon="9.469855703391406"><ele>257.0</ele><time>2026-04-25T09:34:28.999Z</time></trkpt><trkpt lat="45.74596161059269" lon="9.469973104488373"><ele>257.0</ele><time>2026-04-25T09:34:29.999Z</time></trkpt><trkpt lat="45.74616389192918" lon="9.470080655457714"><ele>257.0</ele><time>2026-04-25T09:34:30.999Z</time></trkpt><trkpt lat="45.746363108767916" lon="9.470153739549136"><ele>255.66666666666669</ele><time>2026-04-25T09:34:31.999Z</time></trkpt><trkpt lat="45.746574946459994" lon="9.470181160820545"><ele>254.33333333333331</ele><time>2026-04-25T09:34:32.999Z</time></trkpt><trkpt lat="45.74679075860415" lon="9.4701679533634"><ele>253.0</ele><time>2026-04-25T09:34:33.999Z</time></trkpt><trkpt lat="45.747005376135846" lon="9.470107180619063"><ele>253.0</ele><time>2026-04-25T09:34:34.999Z</time></trkpt><trkpt lat="45.747216446258875" lon="9.470025850253405"><ele>253.0</ele><time>2026-04-25T09:34:35.999Z</time></trkpt><trkpt lat="45.74743188004334" lon="9.469933371479268"><ele>253.0</ele><time>2026-04-25T09:34:36.999Z</time></trkpt><trkpt lat="45.74764754943048" lon="9.469828337076946"><ele>251.0</ele><time>2026-04-25T09:34:37.999Z</time></trkpt><trkpt lat="45.74786095226346" lon="9.469711343379888"><ele>249.0</ele><time>2026-04-25T09:34:38.999Z</time></trkpt><trkpt lat="45.74807055268867" lon="9.469586282875344"><ele>249.0</ele><time>2026-04-25T09:34:39.999Z</time></trkpt><trkpt lat="45.74826871656505" lon="9.469438724847384"><ele>249.0</ele><time>2026-04-25T09:34:40.999Z</time></trkpt><trkpt lat="45.74845008264393" lon="9.469269197071362"><ele>249.0</ele><time>2026-04-25T09:34:41.999Z</time></trkpt><trkpt lat="45.74859424691727" lon="9.469039541876013"><ele>248.33333333333331</ele><time>2026-04-25T09:34:42.999Z</time></trkpt><trkpt lat="45.748733245415025" lon="9.46880510752828"><ele>247.66666666666666</ele><time>2026-04-25T09:34:43.999Z</time></trkpt><trkpt lat="45.748847948122034" lon="9.468548481560475"><ele>247.0</ele><time>2026-04-25T09:34:44.999Z</time></trkpt><trkpt lat="45.74893342811446" lon="9.468271859508086"><ele>247.0</ele><time>2026-04-25T09:34:45.999Z</time></trkpt><trkpt lat="45.74899641970937" lon="9.467988940073527"><ele>247.0</ele><time>2026-04-25T09:34:46.999Z</time></trkpt><trkpt lat="45.74904118492437" lon="9.467710215349955"><ele>247.0</ele><time>2026-04-25T09:34:47.999Z</time></trkpt><trkpt lat="45.749083389909465" lon="9.467452006634531"><ele>246.33333333333331</ele><time>2026-04-25T09:34:48.999Z</time></trkpt><trkpt lat="45.74912648976031" lon="9.467205943822961"><ele>245.66666666666669</ele><time>2026-04-25T09:34:49.999Z</time></trkpt><trkpt lat="45.749168798245734" lon="9.466976446577323"><ele>245.0</ele><time>2026-04-25T09:34:50.999Z</time></trkpt><trkpt lat="45.74921325229444" lon="9.46676433664887"><ele>244.25</ele><time>2026-04-25T09:34:51.999Z</time></trkpt><trkpt lat="45.74927036386886" lon="9.46659000388773"><ele>243.5</ele><time>2026-04-25T09:34:52.999Z</time></trkpt><trkpt lat="45.749350720958255" lon="9.466439736675248"><ele>242.75</ele><time>2026-04-25T09:34:53.999Z</time></trkpt><trkpt lat="45.7494471147088" lon="9.466315512988988"><ele>242.0</ele><time>2026-04-25T09:34:54.999Z</time></trkpt><trkpt lat="45.74957191462633" lon="9.466216072448411"><ele>241.0</ele><time>2026-04-25T09:34:55.999Z</time></trkpt><trkpt lat="45.74970138466157" lon="9.466094491042135"><ele>240.0</ele><time>2026-04-25T09:34:56.999Z</time></trkpt><trkpt lat="45.74984256096159" lon="9.465963357993088"><ele>239.0</ele><time>2026-04-25T09:34:57.999Z</time></trkpt><trkpt lat="45.749993373114314" lon="9.465823274208972"><ele>239.0</ele><time>2026-04-25T09:34:58.999Z</time></trkpt><trkpt lat="45.750157350728145" lon="9.465668693982762"><ele>239.0</ele><time>2026-04-25T09:34:59.999Z</time></trkpt><trkpt lat="45.750322295773074" lon="9.465478389069904"><ele>239.0</ele><time>2026-04-25T09:35:00.999Z</time></trkpt><trkpt lat="45.75050390921384" lon="9.465307862379237"><ele>238.33333333333334</ele><time>2026-04-25T09:35:01.999Z</time></trkpt><trkpt lat="45.75068158496789" lon="9.465118312167565"><ele>237.66666666666669</ele><time>2026-04-25T09:35:02.999Z</time></trkpt><trkpt lat="45.75086448840375" lon="9.464927676067365"><ele>237.0</ele><time>2026-04-25T09:35:03.999Z</time></trkpt><trkpt lat="45.75104839938081" lon="9.464733250841453"><ele>243.5</ele><time>2026-04-25T09:35:04.999Z</time></trkpt><trkpt lat="45.75121873194371" lon="9.464503121290589"><ele>250.0</ele><time>2026-04-25T09:35:05.999Z</time></trkpt><trkpt lat="45.75136025166947" lon="9.464235993787735"><ele>250.0</ele><time>2026-04-25T09:35:06.999Z</time></trkpt><trkpt lat="45.7514751574603" lon="9.463930150165744"><ele>250.0</ele><time>2026-04-25T09:35:07.999Z</time></trkpt><trkpt lat="45.75157935324396" lon="9.463604815813003"><ele>243.0</ele><time>2026-04-25T09:35:08.999Z</time></trkpt><trkpt lat="45.75170146333234" lon="9.463284466250428"><ele>236.0</ele><time>2026-04-25T09:35:09.999Z</time></trkpt><trkpt lat="45.75184675710147" lon="9.462978263878556"><ele>242.5</ele><time>2026-04-25T09:35:10.999Z</time></trkpt><trkpt lat="45.752004718212135" lon="9.46267981784515"><ele>249.0</ele><time>2026-04-25T09:35:11.999Z</time></trkpt><trkpt lat="45.75215823339268" lon="9.462374746186871"><ele>242.0</ele><time>2026-04-25T09:35:12.999Z</time></trkpt><trkpt lat="45.75230708050728" lon="9.46206381818731"><ele>235.0</ele><time>2026-04-25T09:35:13.999Z</time></trkpt><trkpt lat="45.752454396060806" lon="9.461756255212366"><ele>235.0</ele><time>2026-04-25T09:35:14.999Z</time></trkpt><trkpt lat="45.75259317557405" lon="9.461448442797415"><ele>235.0</ele><time>2026-04-25T09:35:15.999Z</time></trkpt><trkpt lat="45.752717114725826" lon="9.461134363150101"><ele>245.5</ele><time>2026-04-25T09:35:16.999Z</time></trkpt><trkpt lat="45.75283785931842" lon="9.460821630373921"><ele>256.0</ele><time>2026-04-25T09:35:17.999Z</time></trkpt><trkpt lat="45.75296960419142" lon="9.46052487342261"><ele>245.0</ele><time>2026-04-25T09:35:18.999Z</time></trkpt><trkpt lat="45.753129445667014" lon="9.460253771530269"><ele>234.0</ele><time>2026-04-25T09:35:19.999Z</time></trkpt><trkpt lat="45.753307409120836" lon="9.459990778786667"><ele>234.0</ele><time>2026-04-25T09:35:20.999Z</time></trkpt><trkpt lat="45.75347909804909" lon="9.459720304029027"><ele>234.0</ele><time>2026-04-25T09:35:21.999Z</time></trkpt><trkpt lat="45.75364221717761" lon="9.459439298078541"><ele>236.0</ele><time>2026-04-25T09:35:22.999Z</time></trkpt><trkpt lat="45.7538037749804" lon="9.459151732830017"><ele>238.0</ele><time>2026-04-25T09:35:23.999Z</time></trkpt><trkpt lat="45.75396614844226" lon="9.458869013558289"><ele>229.5</ele><time>2026-04-25T09:35:24.999Z</time></trkpt><trkpt lat="45.75412726743679" lon="9.458585158019108"><ele>221.0</ele><time>2026-04-25T09:35:25.999Z</time></trkpt><trkpt lat="45.75428960183602" lon="9.458306603039635"><ele>222.5</ele><time>2026-04-25T09:35:26.999Z</time></trkpt><trkpt lat="45.75445953651443" lon="9.45803967023684"><ele>224.0</ele><time>2026-04-25T09:35:27.999Z</time></trkpt><trkpt lat="45.754644456438974" lon="9.457794664838996"><ele>224.0</ele><time>2026-04-25T09:35:28.999Z</time></trkpt><trkpt lat="45.754825001994945" lon="9.457557639517864"><ele>224.0</ele><time>2026-04-25T09:35:29.999Z</time></trkpt><trkpt lat="45.7549763591534" lon="9.457312744465652"><ele>225.0</ele><time>2026-04-25T09:35:30.999Z</time></trkpt><trkpt lat="45.75510983949583" lon="9.457063917550983"><ele>226.0</ele><time>2026-04-25T09:35:31.999Z</time></trkpt><trkpt lat="45.75523765056384" lon="9.456831566508795"><ele>227.0</ele><time>2026-04-25T09:35:32.999Z</time></trkpt><trkpt lat="45.75537538568806" lon="9.45663393800005"><ele>227.0</ele><time>2026-04-25T09:35:33.999Z</time></trkpt><trkpt lat="45.755536772882984" lon="9.456486695229597"><ele>227.0</ele><time>2026-04-25T09:35:34.999Z</time></trkpt><trkpt lat="45.75571666996341" lon="9.45637669002615"><ele>227.0</ele><time>2026-04-25T09:35:35.999Z</time></trkpt><trkpt lat="45.75590414998724" lon="9.456268860871369"><ele>224.66666666666669</ele><time>2026-04-25T09:35:36.999Z</time></trkpt><trkpt lat="45.75608504307238" lon="9.456136572081899"><ele>222.33333333333331</ele><time>2026-04-25T09:35:37.999Z</time></trkpt><trkpt lat="45.756256392134894" lon="9.455983134251223"><ele>220.0</ele><time>2026-04-25T09:35:38.999Z</time></trkpt><trkpt lat="45.75640660668584" lon="9.455786936538"><ele>220.0</ele><time>2026-04-25T09:35:39.999Z</time></trkpt><trkpt lat="45.75654022194418" lon="9.45555922200734"><ele>220.0</ele><time>2026-04-25T09:35:40.999Z</time></trkpt><trkpt lat="45.756662315103576" lon="9.455329878123095"><ele>220.0</ele><time>2026-04-25T09:35:42Z</time></trkpt><trkpt lat="45.75676936051593" lon="9.45512328845967"><ele>219.0</ele><time>2026-04-25T09:35:43Z</time></trkpt><trkpt lat="45.756859154930325" lon="9.454946286612785"><ele>218.0</ele><time>2026-04-25T09:35:44Z</time></trkpt><trkpt lat="45.75692976435328" lon="9.454791594189889"><ele>217.0</ele><time>2026-04-25T09:35:45Z</time></trkpt><trkpt lat="45.7569909542337" lon="9.454637977794608"><ele>216.0</ele><time>2026-04-25T09:35:46Z</time></trkpt><trkpt lat="45.75706403311003" lon="9.454461475000935"><ele>216.0</ele><time>2026-04-25T09:35:47Z</time></trkpt><trkpt lat="45.757158059437266" lon="9.454279465251307"><ele>216.0</ele><time>2026-04-25T09:35:48Z</time></trkpt><trkpt lat="45.75729441741879" lon="9.454130939166308"><ele>216.0</ele><time>2026-04-25T09:35:49Z</time></trkpt><trkpt lat="45.75742881313747" lon="9.453931686099853"><ele>214.33333333333331</ele><time>2026-04-25T09:35:50Z</time></trkpt><trkpt lat="45.7575839779797" lon="9.453757965323662"><ele>212.66666666666666</ele><time>2026-04-25T09:35:51Z</time></trkpt><trkpt lat="45.75775777854684" lon="9.453638373384566"><ele>211.0</ele><time>2026-04-25T09:35:52Z</time></trkpt><trkpt lat="45.75792916352015" lon="9.453493107686807"><ele>211.0</ele><time>2026-04-25T09:35:53Z</time></trkpt><trkpt lat="45.75811349855462" lon="9.453372322723613"><ele>211.0</ele><time>2026-04-25T09:35:54Z</time></trkpt><trkpt lat="45.75829736963404" lon="9.453239880725528"><ele>211.0</ele><time>2026-04-25T09:35:55Z</time></trkpt><trkpt lat="45.75847882141388" lon="9.453105964706173"><ele>210.33333333333331</ele><time>2026-04-25T09:35:56Z</time></trkpt><trkpt lat="45.758663443620925" lon="9.452975785769187"><ele>209.66666666666669</ele><time>2026-04-25T09:35:57Z</time></trkpt><trkpt lat="45.75885280742669" lon="9.452847388292575"><ele>209.0</ele><time>2026-04-25T09:35:58Z</time></trkpt><trkpt lat="45.7590376832612" lon="9.452701132394257"><ele>209.0</ele><time>2026-04-25T09:35:59Z</time></trkpt><trkpt lat="45.75921569991751" lon="9.4525311291451"><ele>209.0</ele><time>2026-04-25T09:36:00Z</time></trkpt><trkpt lat="45.75938343429819" lon="9.45234147515364"><ele>209.0</ele><time>2026-04-25T09:36:01Z</time></trkpt><trkpt lat="45.759544487096456" lon="9.452132416628482"><ele>208.66666666666669</ele><time>2026-04-25T09:36:02Z</time></trkpt><trkpt lat="45.7597050218602" lon="9.451923484040364"><ele>208.33333333333331</ele><time>2026-04-25T09:36:03Z</time></trkpt><trkpt lat="45.759865811084765" lon="9.451717913965943"><ele>208.0</ele><time>2026-04-25T09:36:04Z</time></trkpt><trkpt lat="45.760026701322495" lon="9.451512821521606"><ele>208.0</ele><time>2026-04-25T09:36:05Z</time></trkpt><trkpt lat="45.76018605578386" lon="9.451307551634113"><ele>208.0</ele><time>2026-04-25T09:36:06Z</time></trkpt><trkpt lat="45.76034622580891" lon="9.451102398275475"><ele>208.0</ele><time>2026-04-25T09:36:07Z</time></trkpt><trkpt lat="45.76050577051194" lon="9.450901128495238"><ele>206.0</ele><time>2026-04-25T09:36:08Z</time></trkpt><trkpt lat="45.76066535086962" lon="9.45069972537473"><ele>204.0</ele><time>2026-04-25T09:36:09Z</time></trkpt><trkpt lat="45.76082419133471" lon="9.450500311104088"><ele>202.0</ele><time>2026-04-25T09:36:10Z</time></trkpt><trkpt lat="45.7609804824871" lon="9.450302624768907"><ele>203.0</ele><time>2026-04-25T09:36:11Z</time></trkpt><trkpt lat="45.761136024279615" lon="9.45010321218505"><ele>204.0</ele><time>2026-04-25T09:36:12Z</time></trkpt><trkpt lat="45.761287643439616" lon="9.449911440780703"><ele>205.0</ele><time>2026-04-25T09:36:13Z</time></trkpt><trkpt lat="45.76143732899645" lon="9.449721276456152"><ele>205.33333333333331</ele><time>2026-04-25T09:36:14Z</time></trkpt><trkpt lat="45.76158357243941" lon="9.44953697975482"><ele>205.66666666666669</ele><time>2026-04-25T09:36:15Z</time></trkpt><trkpt lat="45.76173028183809" lon="9.449350231006619"><ele>206.0</ele><time>2026-04-25T09:36:16Z</time></trkpt><trkpt lat="45.7618742236931" lon="9.449163096860277"><ele>205.66666666666669</ele><time>2026-04-25T09:36:17Z</time></trkpt><trkpt lat="45.7620191150718" lon="9.448984614316274"><ele>205.33333333333331</ele><time>2026-04-25T09:36:18Z</time></trkpt><trkpt lat="45.762159961665176" lon="9.448801896928119"><ele>205.0</ele><time>2026-04-25T09:36:19Z</time></trkpt><trkpt lat="45.76230406489376" lon="9.448619183237485"><ele>205.0</ele><time>2026-04-25T09:36:20Z</time></trkpt><trkpt lat="45.76245162562879" lon="9.448435085991912"><ele>205.0</ele><time>2026-04-25T09:36:21Z</time></trkpt><trkpt lat="45.76260405010762" lon="9.44825035521906"><ele>205.0</ele><time>2026-04-25T09:36:22Z</time></trkpt><trkpt lat="45.7627579690355" lon="9.448067734294312"><ele>205.33333333333331</ele><time>2026-04-25T09:36:22.999Z</time></trkpt><trkpt lat="45.76292163740162" lon="9.447881434824124"><ele>205.66666666666669</ele><time>2026-04-25T09:36:23.999Z</time></trkpt><trkpt lat="45.76309529636827" lon="9.447713717084126"><ele>206.0</ele><time>2026-04-25T09:36:24.999Z</time></trkpt><trkpt lat="45.763279890946215" lon="9.447569532877454"><ele>206.0</ele><time>2026-04-25T09:36:25.999Z</time></trkpt><trkpt lat="45.76347318498456" lon="9.447443106533864"><ele>206.0</ele><time>2026-04-25T09:36:26.999Z</time></trkpt><trkpt lat="45.763670867212944" lon="9.447314499478166"><ele>206.0</ele><time>2026-04-25T09:36:27.999Z</time></trkpt><trkpt lat="45.76386652543222" lon="9.447176823484925"><ele>204.66666666666669</ele><time>2026-04-25T09:36:28.999Z</time></trkpt><trkpt lat="45.764060109191895" lon="9.447035752543645"><ele>203.33333333333331</ele><time>2026-04-25T09:36:29.999Z</time></trkpt><trkpt lat="45.76425465036571" lon="9.446890018634942"><ele>202.0</ele><time>2026-04-25T09:36:30.999Z</time></trkpt><trkpt lat="45.76444424624959" lon="9.446742956728905"><ele>201.33333333333331</ele><time>2026-04-25T09:36:31.999Z</time></trkpt><trkpt lat="45.76463698756592" lon="9.446596075484948"><ele>200.66666666666669</ele><time>2026-04-25T09:36:32.999Z</time></trkpt><trkpt lat="45.76484389754218" lon="9.446481095906345"><ele>200.0</ele><time>2026-04-25T09:36:33.999Z</time></trkpt><trkpt lat="45.765047202077845" lon="9.446334758857876"><ele>200.5</ele><time>2026-04-25T09:36:34.999Z</time></trkpt><trkpt lat="45.76525671576309" lon="9.446185682924275"><ele>201.0</ele><time>2026-04-25T09:36:35.999Z</time></trkpt><trkpt lat="45.765451890366386" lon="9.44602440980104"><ele>201.0</ele><time>2026-04-25T09:36:36.999Z</time></trkpt><trkpt lat="45.76566286954923" lon="9.44589781062019"><ele>201.0</ele><time>2026-04-25T09:36:37.999Z</time></trkpt><trkpt lat="45.765876687086624" lon="9.445779413583603"><ele>202.0</ele><time>2026-04-25T09:36:38.999Z</time></trkpt><trkpt lat="45.76609440352881" lon="9.445677659205435"><ele>203.0</ele><time>2026-04-25T09:36:39.999Z</time></trkpt><trkpt lat="45.76631636984096" lon="9.445586375895958"><ele>203.0</ele><time>2026-04-25T09:36:40.999Z</time></trkpt><trkpt lat="45.766539678651796" lon="9.445493052976406"><ele>203.0</ele><time>2026-04-25T09:36:41.999Z</time></trkpt><trkpt lat="45.76676166125453" lon="9.445394385496336"><ele>200.5</ele><time>2026-04-25T09:36:42.999Z</time></trkpt><trkpt lat="45.76698291425412" lon="9.44529315541614"><ele>198.0</ele><time>2026-04-25T09:36:43.999Z</time></trkpt><trkpt lat="45.76720531176635" lon="9.445192346638454"><ele>198.0</ele><time>2026-04-25T09:36:44.999Z</time></trkpt><trkpt lat="45.767429609078164" lon="9.44509441841493"><ele>198.0</ele><time>2026-04-25T09:36:45.999Z</time></trkpt><trkpt lat="45.76765453181896" lon="9.444995315398751"><ele>200.5</ele><time>2026-04-25T09:36:46.999Z</time></trkpt><trkpt lat="45.76787937120264" lon="9.444899089906952"><ele>203.0</ele><time>2026-04-25T09:36:47.999Z</time></trkpt><trkpt lat="45.76810498894682" lon="9.44480369144213"><ele>203.0</ele><time>2026-04-25T09:36:48.999Z</time></trkpt><trkpt lat="45.768332380690005" lon="9.444701123403853"><ele>203.0</ele><time>2026-04-25T09:36:49.999Z</time></trkpt><trkpt lat="45.7685613947379" lon="9.444595837007808"><ele>198.0</ele><time>2026-04-25T09:36:50.999Z</time></trkpt><trkpt lat="45.76879180156506" lon="9.444496026110986"><ele>193.0</ele><time>2026-04-25T09:36:51.999Z</time></trkpt><trkpt lat="45.76902406118082" lon="9.444398854816733"><ele>193.0</ele><time>2026-04-25T09:36:52.999Z</time></trkpt><trkpt lat="45.76925593537799" lon="9.444295079925926"><ele>193.0</ele><time>2026-04-25T09:36:53.999Z</time></trkpt><trkpt lat="45.76948633881205" lon="9.444193079119085"><ele>195.5</ele><time>2026-04-25T09:36:54.999Z</time></trkpt><trkpt lat="45.769716747157695" lon="9.444086975550391"><ele>198.0</ele><time>2026-04-25T09:36:55.999Z</time></trkpt><trkpt lat="45.76994743761665" lon="9.443986812965283"><ele>198.0</ele><time>2026-04-25T09:36:56.999Z</time></trkpt><trkpt lat="45.77017831231093" lon="9.443888164085664"><ele>198.0</ele><time>2026-04-25T09:36:57.999Z</time></trkpt><trkpt lat="45.770408333465426" lon="9.443785916874244"><ele>197.5</ele><time>2026-04-25T09:36:58.999Z</time></trkpt><trkpt lat="45.77063682713415" lon="9.443680786597229"><ele>197.0</ele><time>2026-04-25T09:36:59.999Z</time></trkpt><trkpt lat="45.77086431174903" lon="9.443578461163034"><ele>198.0</ele><time>2026-04-25T09:37:00.999Z</time></trkpt><trkpt lat="45.771093764877165" lon="9.443481994976038"><ele>199.0</ele><time>2026-04-25T09:37:01.999Z</time></trkpt><trkpt lat="45.771319117838246" lon="9.443386559610744"><ele>199.0</ele><time>2026-04-25T09:37:02.999Z</time></trkpt><trkpt lat="45.77154529668833" lon="9.443313801252113"><ele>199.0</ele><time>2026-04-25T09:37:03.999Z</time></trkpt><trkpt lat="45.77177162021762" lon="9.44328003819376"><ele>200.33333333333331</ele><time>2026-04-25T09:37:04.999Z</time></trkpt><trkpt lat="45.77199851528064" lon="9.443284159363538"><ele>201.66666666666669</ele><time>2026-04-25T09:37:05.999Z</time></trkpt><trkpt lat="45.772215933722" lon="9.443305933271528"><ele>203.0</ele><time>2026-04-25T09:37:06.999Z</time></trkpt><trkpt lat="45.77240867299751" lon="9.443317374062897"><ele>203.0</ele><time>2026-04-25T09:37:07.999Z</time></trkpt><trkpt lat="45.77259068229652" lon="9.443318903540742"><ele>203.0</ele><time>2026-04-25T09:37:08.999Z</time></trkpt><trkpt lat="45.772779806449556" lon="9.443322148317256"><ele>203.0</ele><time>2026-04-25T09:37:09.999Z</time></trkpt><trkpt lat="45.77297232550738" lon="9.443331336119673"><ele>202.0</ele><time>2026-04-25T09:37:10.999Z</time></trkpt><trkpt lat="45.773358062763194" lon="9.443425377817087"><ele>201.0</ele><time>2026-04-25T09:37:11.999Z</time></trkpt><trkpt lat="45.77358818294211" lon="9.44344737745156"><ele>201.0</ele><time>2026-04-25T09:37:12.999Z</time></trkpt><trkpt lat="45.77381830282469" lon="9.443472039523366"><ele>201.0</ele><time>2026-04-25T09:37:13.999Z</time></trkpt><trkpt lat="45.774054489805884" lon="9.44348739193815"><ele>201.0</ele><time>2026-04-25T09:37:14.999Z</time></trkpt><trkpt lat="45.77428563615824" lon="9.443484541587981"><ele>201.0</ele><time>2026-04-25T09:37:15.999Z</time></trkpt><trkpt lat="45.774520525212615" lon="9.443457446196735"><ele>203.0</ele><time>2026-04-25T09:37:16.999Z</time></trkpt><trkpt lat="45.77475187874103" lon="9.443411650177522"><ele>205.0</ele><time>2026-04-25T09:37:17.999Z</time></trkpt><trkpt lat="45.77498116406118" lon="9.443351516700584"><ele>206.5</ele><time>2026-04-25T09:37:18.999Z</time></trkpt><trkpt lat="45.77520890581182" lon="9.443287253631254"><ele>208.0</ele><time>2026-04-25T09:37:19.999Z</time></trkpt><trkpt lat="45.77544065487875" lon="9.443227643844873"><ele>208.0</ele><time>2026-04-25T09:37:20.999Z</time></trkpt><trkpt lat="45.77566529635469" lon="9.443171027327951"><ele>208.0</ele><time>2026-04-25T09:37:21.999Z</time></trkpt><trkpt lat="45.77588726378403" lon="9.443106245298866"><ele>210.0</ele><time>2026-04-25T09:37:22.999Z</time></trkpt><trkpt lat="45.776106775517526" lon="9.443034290902357"><ele>212.0</ele><time>2026-04-25T09:37:23.999Z</time></trkpt><trkpt lat="45.77632058713013" lon="9.44292129944804"><ele>208.66666666666669</ele><time>2026-04-25T09:37:24.999Z</time></trkpt><trkpt lat="45.77652058528085" lon="9.442771360920192"><ele>205.33333333333331</ele><time>2026-04-25T09:37:25.999Z</time></trkpt><trkpt lat="45.77671440648021" lon="9.442611913009634"><ele>202.0</ele><time>2026-04-25T09:37:26.999Z</time></trkpt><trkpt lat="45.77691556718627" lon="9.442466944673304"><ele>202.0</ele><time>2026-04-25T09:37:27.999Z</time></trkpt><trkpt lat="45.777116059081635" lon="9.442323068920112"><ele>202.0</ele><time>2026-04-25T09:37:28.999Z</time></trkpt><trkpt lat="45.77731329858955" lon="9.442181307787338"><ele>202.0</ele><time>2026-04-25T09:37:29.999Z</time></trkpt><trkpt lat="45.77751546395183" lon="9.442033829298458"><ele>201.0</ele><time>2026-04-25T09:37:30.999Z</time></trkpt><trkpt lat="45.77771401946138" lon="9.441889423199504"><ele>200.0</ele><time>2026-04-25T09:37:31.999Z</time></trkpt><trkpt lat="45.77791821605059" lon="9.441750108677406"><ele>199.0</ele><time>2026-04-25T09:37:32.999Z</time></trkpt><trkpt lat="45.77813294847748" lon="9.441655948401044"><ele>199.0</ele><time>2026-04-25T09:37:33.999Z</time></trkpt><trkpt lat="45.77835377710078" lon="9.441589773255782"><ele>199.0</ele><time>2026-04-25T09:37:34.999Z</time></trkpt><trkpt lat="45.7785722419136" lon="9.441557364222648"><ele>199.0</ele><time>2026-04-25T09:37:35.999Z</time></trkpt><trkpt lat="45.77878729649414" lon="9.441540418050133"><ele>200.66666666666666</ele><time>2026-04-25T09:37:36.999Z</time></trkpt><trkpt lat="45.77900339164451" lon="9.44150751548602"><ele>202.33333333333331</ele><time>2026-04-25T09:37:37.999Z</time></trkpt><trkpt lat="45.779215665195544" lon="9.441475082365516"><ele>204.0</ele><time>2026-04-25T09:37:38.999Z</time></trkpt><trkpt lat="45.77942815571238" lon="9.441450680511503"><ele>204.66666666666669</ele><time>2026-04-25T09:37:39.999Z</time></trkpt><trkpt lat="45.77963923018595" lon="9.441443880995214"><ele>205.33333333333334</ele><time>2026-04-25T09:37:40.999Z</time></trkpt><trkpt lat="45.779849604182324" lon="9.441445523159372"><ele>206.0</ele><time>2026-04-25T09:37:41.999Z</time></trkpt><trkpt lat="45.78005989582896" lon="9.441445429949578"><ele>206.33333333333334</ele><time>2026-04-25T09:37:42.999Z</time></trkpt><trkpt lat="45.78026978503569" lon="9.441442089105989"><ele>206.66666666666669</ele><time>2026-04-25T09:37:43.999Z</time></trkpt><trkpt lat="45.78047758450557" lon="9.441435860487598"><ele>207.0</ele><time>2026-04-25T09:37:44.999Z</time></trkpt><trkpt lat="45.780683797312136" lon="9.441429257534402"><ele>207.0</ele><time>2026-04-25T09:37:45.999Z</time></trkpt><trkpt lat="45.78088686666796" lon="9.441423177671915"><ele>207.0</ele><time>2026-04-25T09:37:46.999Z</time></trkpt><trkpt lat="45.78108874372575" lon="9.441421417020953"><ele>207.0</ele><time>2026-04-25T09:37:48Z</time></trkpt><trkpt lat="45.78128853561857" lon="9.441420252032959"><ele>206.66666666666669</ele><time>2026-04-25T09:37:49Z</time></trkpt><trkpt lat="45.7814809872823" lon="9.441421143495637"><ele>206.33333333333334</ele><time>2026-04-25T09:37:50Z</time></trkpt><trkpt lat="45.7816611621324" lon="9.441419358361006"><ele>206.0</ele><time>2026-04-25T09:37:51Z</time></trkpt><trkpt lat="45.78183528924678" lon="9.441415535186904"><ele>205.66666666666669</ele><time>2026-04-25T09:37:52Z</time></trkpt><trkpt lat="45.78200207359659" lon="9.441408866765222"><ele>205.33333333333331</ele><time>2026-04-25T09:37:53Z</time></trkpt><trkpt lat="45.782169790517464" lon="9.44140409481756"><ele>205.0</ele><time>2026-04-25T09:37:54Z</time></trkpt><trkpt lat="45.78233445499767" lon="9.441412071225278"><ele>205.0</ele><time>2026-04-25T09:37:55Z</time></trkpt><trkpt lat="45.7824918321797" lon="9.441429108700152"><ele>205.0</ele><time>2026-04-25T09:37:56Z</time></trkpt><trkpt lat="45.78264204933982" lon="9.44144390796929"><ele>205.0</ele><time>2026-04-25T09:37:57Z</time></trkpt><trkpt lat="45.78278515347494" lon="9.441441835998186"><ele>204.75</ele><time>2026-04-25T09:37:58Z</time></trkpt><trkpt lat="45.782919404311244" lon="9.441424069996746"><ele>204.5</ele><time>2026-04-25T09:37:59Z</time></trkpt><trkpt lat="45.7830395823688" lon="9.441405955579507"><ele>204.25</ele><time>2026-04-25T09:38:00Z</time></trkpt><trkpt lat="45.78314909320891" lon="9.441397478583799"><ele>204.0</ele><time>2026-04-25T09:38:01Z</time></trkpt><trkpt lat="45.783247017545115" lon="9.441391612584457"><ele>204.0</ele><time>2026-04-25T09:38:02Z</time></trkpt><trkpt lat="45.783339357994414" lon="9.441387149056265"><ele>204.0</ele><time>2026-04-25T09:38:03Z</time></trkpt><trkpt lat="45.78342165763055" lon="9.441380793443642"><ele>204.0</ele><time>2026-04-25T09:38:04Z</time></trkpt><trkpt lat="45.7835018707063" lon="9.44137377695973"><ele>204.0</ele><time>2026-04-25T09:38:05Z</time></trkpt><trkpt lat="45.783579520113584" lon="9.441359510654372"><ele>204.0</ele><time>2026-04-25T09:38:06Z</time></trkpt><trkpt lat="45.783655164703646" lon="9.44133247182757"><ele>204.0</ele><time>2026-04-25T09:38:07Z</time></trkpt><trkpt lat="45.78373349696436" lon="9.441308438235513"><ele>204.0</ele><time>2026-04-25T09:38:08Z</time></trkpt><trkpt lat="45.783813237076146" lon="9.441304856583027"><ele>204.0</ele><time>2026-04-25T09:38:09Z</time></trkpt><trkpt lat="45.7838967718056" lon="9.441324347467546"><ele>204.0</ele><time>2026-04-25T09:38:10Z</time></trkpt><trkpt lat="45.78398113738262" lon="9.441336286245525"><ele>204.0</ele><time>2026-04-25T09:38:11Z</time></trkpt><trkpt lat="45.78405659322667" lon="9.441279017223446"><ele>204.0</ele><time>2026-04-25T09:38:12Z</time></trkpt><trkpt lat="45.784099526841715" lon="9.441175117636114"><ele>204.0</ele><time>2026-04-25T09:38:13Z</time></trkpt><trkpt lat="45.784084327286344" lon="9.441033942182802"><ele>204.25</ele><time>2026-04-25T09:38:14Z</time></trkpt><trkpt lat="45.78403301469362" lon="9.44088521554122"><ele>204.5</ele><time>2026-04-25T09:38:15Z</time></trkpt><trkpt lat="45.78399096722928" lon="9.440711937140646"><ele>204.75</ele><time>2026-04-25T09:38:16Z</time></trkpt><trkpt lat="45.78398304360841" lon="9.440517910269058"><ele>205.0</ele><time>2026-04-25T09:38:17Z</time></trkpt><trkpt lat="45.783988898830586" lon="9.440314955555115"><ele>205.0</ele><time>2026-04-25T09:38:18Z</time></trkpt><trkpt lat="45.78399143096934" lon="9.440106269796901"><ele>205.0</ele><time>2026-04-25T09:38:19Z</time></trkpt><trkpt lat="45.78398707631727" lon="9.439886352627106"><ele>205.0</ele><time>2026-04-25T09:38:20Z</time></trkpt><trkpt lat="45.78398327722277" lon="9.439658081194063"><ele>203.33333333333331</ele><time>2026-04-25T09:38:21Z</time></trkpt><trkpt lat="45.78397873943393" lon="9.439421688815274"><ele>201.66666666666669</ele><time>2026-04-25T09:38:22Z</time></trkpt><trkpt lat="45.78397680197406" lon="9.439170858327707"><ele>200.0</ele><time>2026-04-25T09:38:23Z</time></trkpt><trkpt lat="45.78397502352467" lon="9.438916562272462"><ele>198.33333333333334</ele><time>2026-04-25T09:38:24Z</time></trkpt><trkpt lat="45.7839761670508" lon="9.438663290491517"><ele>196.66666666666669</ele><time>2026-04-25T09:38:25Z</time></trkpt><trkpt lat="45.78397498830814" lon="9.438402009355837"><ele>195.0</ele><time>2026-04-25T09:38:26Z</time></trkpt><trkpt lat="45.78397402899075" lon="9.438138805642899"><ele>196.0</ele><time>2026-04-25T09:38:26.999Z</time></trkpt><trkpt lat="45.78397574134016" lon="9.437869059996949"><ele>197.0</ele><time>2026-04-25T09:38:27.999Z</time></trkpt><trkpt lat="45.78397925696071" lon="9.437592278218068"><ele>198.0</ele><time>2026-04-25T09:38:28.999Z</time></trkpt><trkpt lat="45.78398139447782" lon="9.4373122703022"><ele>198.33333333333331</ele><time>2026-04-25T09:38:29.999Z</time></trkpt><trkpt lat="45.78398275356197" lon="9.437028861964235"><ele>198.66666666666666</ele><time>2026-04-25T09:38:30.999Z</time></trkpt><trkpt lat="45.783984393443966" lon="9.43674249459698"><ele>199.0</ele><time>2026-04-25T09:38:31.999Z</time></trkpt><trkpt lat="45.78398373794537" lon="9.43645820260769"><ele>198.66666666666666</ele><time>2026-04-25T09:38:32.999Z</time></trkpt><trkpt lat="45.78398749715075" lon="9.436164072554053"><ele>198.33333333333331</ele><time>2026-04-25T09:38:33.999Z</time></trkpt><trkpt lat="45.78398528992741" lon="9.435875722231158"><ele>198.0</ele><time>2026-04-25T09:38:34.999Z</time></trkpt><trkpt lat="45.78398267172562" lon="9.435584907404586"><ele>197.33333333333331</ele><time>2026-04-25T09:38:35.999Z</time></trkpt><trkpt lat="45.783978251403184" lon="9.435295410306413"><ele>196.66666666666666</ele><time>2026-04-25T09:38:36.999Z</time></trkpt><trkpt lat="45.78397649888231" lon="9.435006236439872"><ele>196.0</ele><time>2026-04-25T09:38:37.999Z</time></trkpt><trkpt lat="45.78397425335474" lon="9.434716746422389"><ele>196.66666666666666</ele><time>2026-04-25T09:38:38.999Z</time></trkpt><trkpt lat="45.783972968268486" lon="9.434426812852609"><ele>197.33333333333331</ele><time>2026-04-25T09:38:39.999Z</time></trkpt><trkpt lat="45.7839722227798" lon="9.434138173714327"><ele>198.0</ele><time>2026-04-25T09:38:40.999Z</time></trkpt><trkpt lat="45.78397298912946" lon="9.433853805003357"><ele>197.33333333333331</ele><time>2026-04-25T09:38:41.999Z</time></trkpt><trkpt lat="45.783974401180664" lon="9.433562211726251"><ele>196.66666666666666</ele><time>2026-04-25T09:38:42.999Z</time></trkpt><trkpt lat="45.78396861716294" lon="9.43327297379283"><ele>196.0</ele><time>2026-04-25T09:38:43.999Z</time></trkpt><trkpt lat="45.7839366945212" lon="9.432981728036665"><ele>196.66666666666666</ele><time>2026-04-25T09:38:44.999Z</time></trkpt><trkpt lat="45.78388619341873" lon="9.432707587127991"><ele>197.33333333333331</ele><time>2026-04-25T09:38:45.999Z</time></trkpt><trkpt lat="45.783815573501336" lon="9.432433838396978"><ele>198.0</ele><time>2026-04-25T09:38:46.999Z</time></trkpt><trkpt lat="45.783725152842756" lon="9.432170885350875"><ele>199.66666666666669</ele><time>2026-04-25T09:38:47.999Z</time></trkpt><trkpt lat="45.783618970143955" lon="9.431920692824836"><ele>201.33333333333334</ele><time>2026-04-25T09:38:48.999Z</time></trkpt><trkpt lat="45.78349276917849" lon="9.431693892844125"><ele>203.0</ele><time>2026-04-25T09:38:49.999Z</time></trkpt><trkpt lat="45.783356653688735" lon="9.431484876747593"><ele>204.66666666666669</ele><time>2026-04-25T09:38:50.999Z</time></trkpt><trkpt lat="45.7832032285411" lon="9.431291178503677"><ele>206.33333333333331</ele><time>2026-04-25T09:38:51.999Z</time></trkpt><trkpt lat="45.78304664807925" lon="9.431124702306828"><ele>208.0</ele><time>2026-04-25T09:38:52.999Z</time></trkpt><trkpt lat="45.782889691714814" lon="9.430979669073366"><ele>208.0</ele><time>2026-04-25T09:38:53.999Z</time></trkpt><trkpt lat="45.78273161303237" lon="9.430860648588238"><ele>208.0</ele><time>2026-04-25T09:38:54.999Z</time></trkpt><trkpt lat="45.78257760266026" lon="9.430762850654187"><ele>208.0</ele><time>2026-04-25T09:38:55.999Z</time></trkpt><trkpt lat="45.78243941413312" lon="9.430678191368417"><ele>208.0</ele><time>2026-04-25T09:38:56.999Z</time></trkpt><trkpt lat="45.782317907418765" lon="9.430591405630436"><ele>208.0</ele><time>2026-04-25T09:38:57.999Z</time></trkpt><trkpt lat="45.78222335786725" lon="9.430480304725785"><ele>208.0</ele><time>2026-04-25T09:38:58.999Z</time></trkpt><trkpt lat="45.78213185532886" lon="9.430375490846695"><ele>208.0</ele><time>2026-04-25T09:38:59.999Z</time></trkpt><trkpt lat="45.7820122530362" lon="9.430321149824815"><ele>208.0</ele><time>2026-04-25T09:39:00.999Z</time></trkpt><trkpt lat="45.78186686291552" lon="9.430335941852203"><ele>208.0</ele><time>2026-04-25T09:39:01.999Z</time></trkpt><trkpt lat="45.78170831946052" lon="9.43033342971485"><ele>208.0</ele><time>2026-04-25T09:39:02.999Z</time></trkpt><trkpt lat="45.78154725958457" lon="9.430282569926067"><ele>208.0</ele><time>2026-04-25T09:39:03.999Z</time></trkpt><trkpt lat="45.78138287649018" lon="9.430213085157138"><ele>208.0</ele><time>2026-04-25T09:39:04.999Z</time></trkpt><trkpt lat="45.781213239578285" lon="9.430143110664837"><ele>208.0</ele><time>2026-04-25T09:39:05.999Z</time></trkpt><trkpt lat="45.78104035756711" lon="9.430076189451254"><ele>206.66666666666666</ele><time>2026-04-25T09:39:06.999Z</time></trkpt><trkpt lat="45.78086714103926" lon="9.430006855210825"><ele>205.33333333333331</ele><time>2026-04-25T09:39:07.999Z</time></trkpt><trkpt lat="45.780693282357916" lon="9.42993649803384"><ele>204.0</ele><time>2026-04-25T09:39:08.999Z</time></trkpt><trkpt lat="45.78051714763593" lon="9.429869366517417"><ele>204.0</ele><time>2026-04-25T09:39:09.999Z</time></trkpt><trkpt lat="45.78033698872866" lon="9.429800015534736"><ele>204.0</ele><time>2026-04-25T09:39:10.999Z</time></trkpt><trkpt lat="45.78015344870585" lon="9.429733914062679"><ele>204.0</ele><time>2026-04-25T09:39:11.999Z</time></trkpt><trkpt lat="45.77996954423803" lon="9.42966375025592"><ele>205.0</ele><time>2026-04-25T09:39:12.999Z</time></trkpt><trkpt lat="45.77978493216335" lon="9.429586975811834"><ele>206.0</ele><time>2026-04-25T09:39:13.999Z</time></trkpt><trkpt lat="45.77959913307612" lon="9.429510200968705"><ele>207.0</ele><time>2026-04-25T09:39:14.999Z</time></trkpt><trkpt lat="45.77941329785765" lon="9.4294373336913"><ele>207.33333333333331</ele><time>2026-04-25T09:39:15.999Z</time></trkpt><trkpt lat="45.779223418710906" lon="9.429366325953383"><ele>207.66666666666666</ele><time>2026-04-25T09:39:16.999Z</time></trkpt><trkpt lat="45.77903619064372" lon="9.429294449609216"><ele>208.0</ele><time>2026-04-25T09:39:17.999Z</time></trkpt><trkpt lat="45.77885148706075" lon="9.429224644005997"><ele>208.0</ele><time>2026-04-25T09:39:18.999Z</time></trkpt><trkpt lat="45.77867259995135" lon="9.429154398274868"><ele>208.0</ele><time>2026-04-25T09:39:19.999Z</time></trkpt><trkpt lat="45.77849450538103" lon="9.429086145156102"><ele>208.0</ele><time>2026-04-25T09:39:20.999Z</time></trkpt><trkpt lat="45.77832401564936" lon="9.429018865209619"><ele>208.0</ele><time>2026-04-25T09:39:21.999Z</time></trkpt><trkpt lat="45.77815901662319" lon="9.428953430710836"><ele>208.0</ele><time>2026-04-25T09:39:22.999Z</time></trkpt><trkpt lat="45.77799992922071" lon="9.428892129390587"><ele>208.0</ele><time>2026-04-25T09:39:23.999Z</time></trkpt><trkpt lat="45.77785041905257" lon="9.428836518592394"><ele>208.0</ele><time>2026-04-25T09:39:24.999Z</time></trkpt><trkpt lat="45.777706220396915" lon="9.428784947950794"><ele>208.0</ele><time>2026-04-25T09:39:25.999Z</time></trkpt><trkpt lat="45.77757004498512" lon="9.42873528055402"><ele>208.0</ele><time>2026-04-25T09:39:26.999Z</time></trkpt><trkpt lat="45.777445957575246" lon="9.42869076399907"><ele>208.0</ele><time>2026-04-25T09:39:27.999Z</time></trkpt><trkpt lat="45.77734491467901" lon="9.428642969705319"><ele>207.8</ele><time>2026-04-25T09:39:28.999Z</time></trkpt><trkpt lat="45.77725940415308" lon="9.428574992764077"><ele>207.60000000000002</ele><time>2026-04-25T09:39:29.999Z</time></trkpt><trkpt lat="45.77719302496286" lon="9.42848031139852"><ele>207.39999999999998</ele><time>2026-04-25T09:39:30.999Z</time></trkpt><trkpt lat="45.77711589519812" lon="9.428398520593415"><ele>207.2</ele><time>2026-04-25T09:39:31.999Z</time></trkpt><trkpt lat="45.777057270717854" lon="9.428314536096561"><ele>207.0</ele><time>2026-04-25T09:39:32.999Z</time></trkpt><trkpt lat="45.77719131438208" lon="9.428044292483094"><ele>207.0</ele><time>2026-04-25T09:39:33.999Z</time></trkpt><trkpt lat="45.77721046475403" lon="9.427862596771721"><ele>207.0</ele><time>2026-04-25T09:39:34.999Z</time></trkpt><trkpt lat="45.777258306743256" lon="9.427677929027405"><ele>207.0</ele><time>2026-04-25T09:39:35.999Z</time></trkpt><trkpt lat="45.777296251514024" lon="9.427484203215888"><ele>207.0</ele><time>2026-04-25T09:39:36.999Z</time></trkpt><trkpt lat="45.77733066111146" lon="9.427292170738287"><ele>207.2</ele><time>2026-04-25T09:39:37.999Z</time></trkpt><trkpt lat="45.77736105599771" lon="9.427113437214459"><ele>207.39999999999998</ele><time>2026-04-25T09:39:38.999Z</time></trkpt><trkpt lat="45.77738989352483" lon="9.426942969543619"><ele>207.60000000000002</ele><time>2026-04-25T09:39:39.999Z</time></trkpt><trkpt lat="45.77741492034547" lon="9.426801025854617"><ele>207.8</ele><time>2026-04-25T09:39:40.999Z</time></trkpt><trkpt lat="45.77743517958603" lon="9.426675469592737"><ele>208.0</ele><time>2026-04-25T09:39:41.999Z</time></trkpt><trkpt lat="45.777461598808166" lon="9.426578606023302"><ele>208.0</ele><time>2026-04-25T09:39:42.999Z</time></trkpt><trkpt lat="45.77757457709066" lon="9.42657907408659"><ele>208.0</ele><time>2026-04-25T09:39:44.999Z</time></trkpt><trkpt lat="45.77766334140139" lon="9.426599746578182"><ele>208.0</ele><time>2026-04-25T09:39:45.999Z</time></trkpt><trkpt lat="45.777764987131484" lon="9.426622474543844"><ele>208.0</ele><time>2026-04-25T09:39:46.999Z</time></trkpt><trkpt lat="45.77787058478878" lon="9.426646873780898"><ele>208.0</ele><time>2026-04-25T09:39:47.999Z</time></trkpt><trkpt lat="45.77798110137838" lon="9.426672604438496"><ele>208.25</ele><time>2026-04-25T09:39:48.999Z</time></trkpt><trkpt lat="45.778100334177346" lon="9.426700364425185"><ele>208.5</ele><time>2026-04-25T09:39:49.999Z</time></trkpt><trkpt lat="45.77823328815625" lon="9.426713444646724"><ele>208.75</ele><time>2026-04-25T09:39:50.999Z</time></trkpt><trkpt lat="45.77836415048657" lon="9.426741187000502"><ele>209.0</ele><time>2026-04-25T09:39:51.999Z</time></trkpt><trkpt lat="45.77849378751226" lon="9.426770124096404"><ele>209.39999999999998</ele><time>2026-04-25T09:39:52.999Z</time></trkpt><trkpt lat="45.77861925157391" lon="9.426794481628317"><ele>209.8</ele><time>2026-04-25T09:39:54Z</time></trkpt><trkpt lat="45.77873503576628" lon="9.42681840817045"><ele>210.2</ele><time>2026-04-25T09:39:55Z</time></trkpt><trkpt lat="45.77882726271631" lon="9.426843133461032"><ele>210.60000000000002</ele><time>2026-04-25T09:39:56Z</time></trkpt><trkpt lat="45.77890190375169" lon="9.426850443339056"><ele>211.0</ele><time>2026-04-25T09:39:57Z</time></trkpt><trkpt lat="45.7789975628485" lon="9.426882316764585"><ele>211.0</ele><time>2026-04-25T09:39:59Z</time></trkpt><trkpt lat="45.779029705099205" lon="9.426648567882312"><ele>211.0</ele><time>2026-04-25T09:40:00Z</time></trkpt><trkpt lat="45.77903784617329" lon="9.42650660628577"><ele>211.0</ele><time>2026-04-25T09:40:01Z</time></trkpt><trkpt lat="45.77905756509688" lon="9.426345538936289"><ele>211.0</ele><time>2026-04-25T09:40:02Z</time></trkpt><trkpt lat="45.77910117258314" lon="9.426193626134376"><ele>212.0</ele><time>2026-04-25T09:40:03Z</time></trkpt><trkpt lat="45.77916495258391" lon="9.426059585152458"><ele>213.0</ele><time>2026-04-25T09:40:04Z</time></trkpt><trkpt lat="45.77924375531376" lon="9.425933491612387"><ele>214.0</ele><time>2026-04-25T09:40:05Z</time></trkpt><trkpt lat="45.77932273905498" lon="9.425822297940087"><ele>215.0</ele><time>2026-04-25T09:40:06Z</time></trkpt><trkpt lat="45.77941058006417" lon="9.425713769436337"><ele>215.25</ele><time>2026-04-25T09:40:07Z</time></trkpt><trkpt lat="45.77951146006069" lon="9.425655486864606"><ele>215.5</ele><time>2026-04-25T09:40:08Z</time></trkpt><trkpt lat="45.77961781130134" lon="9.425663709985292"><ele>215.75</ele><time>2026-04-25T09:40:09Z</time></trkpt><trkpt lat="45.77973966269681" lon="9.42568971584955"><ele>216.0</ele><time>2026-04-25T09:40:10Z</time></trkpt><trkpt lat="45.77985943228296" lon="9.425708247434356"><ele>216.0</ele><time>2026-04-25T09:40:11Z</time></trkpt><trkpt lat="45.77996185457285" lon="9.425720202877004"><ele>216.00000000000003</ele><time>2026-04-25T09:40:12Z</time></trkpt><trkpt lat="45.780047405503986" lon="9.425732901058975"><ele>216.00000000000003</ele><time>2026-04-25T09:40:13Z</time></trkpt><trkpt lat="45.78014428298027" lon="9.425745814534373"><ele>216.0</ele><time>2026-04-25T09:40:15Z</time></trkpt><trkpt lat="45.78020966768591" lon="9.425770755290564"><ele>216.0</ele><time>2026-04-25T09:40:17Z</time></trkpt><trkpt lat="45.780247477539156" lon="9.425530622178483"><ele>216.4</ele><time>2026-04-25T09:40:18Z</time></trkpt><trkpt lat="45.780271007096786" lon="9.42538105215701"><ele>216.8</ele><time>2026-04-25T09:40:19Z</time></trkpt><trkpt lat="45.780301265105834" lon="9.425241261831639"><ele>217.20000000000002</ele><time>2026-04-25T09:40:20Z</time></trkpt><trkpt lat="45.78032367535511" lon="9.4251157350057"><ele>217.60000000000002</ele><time>2026-04-25T09:40:21Z</time></trkpt><trkpt lat="45.78035056291126" lon="9.42497543502044"><ele>218.0</ele><time>2026-04-25T09:40:22Z</time></trkpt><trkpt lat="45.7803453071138" lon="9.424850027302647"><ele>218.00000000000003</ele><time>2026-04-25T09:40:23Z</time></trkpt><trkpt lat="45.7803410286188" lon="9.424747208704352"><ele>218.0</ele><time>2026-04-25T09:40:24Z</time></trkpt><trkpt lat="45.78035531918311" lon="9.424657004838608"><ele>218.0</ele><time>2026-04-25T09:40:26Z</time></trkpt><trkpt lat="45.78045040274221" lon="9.424582062072531"><ele>218.0</ele><time>2026-04-25T09:40:30Z</time></trkpt><trkpt lat="45.78051589253277" lon="9.42455548393096"><ele>218.00000000000003</ele><time>2026-04-25T09:40:31Z</time></trkpt><trkpt lat="45.7805986273146" lon="9.42455428672095"><ele>218.0</ele><time>2026-04-25T09:40:31.999Z</time></trkpt><trkpt lat="45.78068827068257" lon="9.42453025745902"><ele>218.4</ele><time>2026-04-25T09:40:32.999Z</time></trkpt><trkpt lat="45.78078697032153" lon="9.424461687052203"><ele>218.8</ele><time>2026-04-25T09:40:33.999Z</time></trkpt><trkpt lat="45.78088824918642" lon="9.424435808030347"><ele>219.2</ele><time>2026-04-25T09:40:34.999Z</time></trkpt><trkpt lat="45.780985250575014" lon="9.424420313362518"><ele>219.6</ele><time>2026-04-25T09:40:35.999Z</time></trkpt><trkpt lat="45.78107572777311" lon="9.424396232692857"><ele>220.0</ele><time>2026-04-25T09:40:36.999Z</time></trkpt><trkpt lat="45.78116695927999" lon="9.424378247418367"><ele>219.99999999999997</ele><time>2026-04-25T09:40:37.999Z</time></trkpt><trkpt lat="45.781256670215654" lon="9.424361240875744"><ele>220.0</ele><time>2026-04-25T09:40:38.999Z</time></trkpt><trkpt lat="45.781342512320194" lon="9.42434364480288"><ele>220.0</ele><time>2026-04-25T09:40:39.999Z</time></trkpt><trkpt lat="45.78142600025228" lon="9.424326605348334"><ele>220.0</ele><time>2026-04-25T09:40:40.999Z</time></trkpt><trkpt lat="45.781506853911615" lon="9.424304945011336"><ele>219.99999999999997</ele><time>2026-04-25T09:40:41.999Z</time></trkpt><trkpt lat="45.78158214120684" lon="9.424293497222239"><ele>220.0</ele><time>2026-04-25T09:40:42.999Z</time></trkpt><trkpt lat="45.78164562551249" lon="9.4242716494144"><ele>219.99999999999997</ele><time>2026-04-25T09:40:43.999Z</time></trkpt><trkpt lat="45.78174155479543" lon="9.424251281322725"><ele>220.0</ele><time>2026-04-25T09:40:45.999Z</time></trkpt><trkpt lat="45.781837437782166" lon="9.424239936329142"><ele>220.0</ele><time>2026-04-25T09:40:47.999Z</time></trkpt><trkpt lat="45.78191275173586" lon="9.424257916846488"><ele>220.0</ele><time>2026-04-25T09:40:48.999Z</time></trkpt><trkpt lat="45.78198773088736" lon="9.424255860645575"><ele>219.99999999999997</ele><time>2026-04-25T09:40:49.999Z</time></trkpt><trkpt lat="45.78207284430691" lon="9.42421604868548"><ele>220.0</ele><time>2026-04-25T09:40:50.999Z</time></trkpt><trkpt lat="45.78216197235688" lon="9.424165801609762"><ele>220.6</ele><time>2026-04-25T09:40:51.999Z</time></trkpt><trkpt lat="45.782254046610575" lon="9.424132684756248"><ele>221.2</ele><time>2026-04-25T09:40:52.999Z</time></trkpt><trkpt lat="45.782352810161946" lon="9.424102144023523"><ele>221.8</ele><time>2026-04-25T09:40:53.999Z</time></trkpt><trkpt lat="45.782459329842766" lon="9.424076160627207"><ele>222.4</ele><time>2026-04-25T09:40:54.999Z</time></trkpt><trkpt lat="45.78256780703113" lon="9.424047890911599"><ele>223.0</ele><time>2026-04-25T09:40:55.999Z</time></trkpt><trkpt lat="45.7826796224191" lon="9.424016490480662"><ele>223.0</ele><time>2026-04-25T09:40:56.999Z</time></trkpt><trkpt lat="45.78279344755332" lon="9.423979476409396"><ele>223.0</ele><time>2026-04-25T09:40:57.999Z</time></trkpt><trkpt lat="45.78290819453859" lon="9.423940778314863"><ele>223.0</ele><time>2026-04-25T09:40:58.999Z</time></trkpt><trkpt lat="45.783023332894935" lon="9.423904351500704"><ele>223.0</ele><time>2026-04-25T09:40:59.999Z</time></trkpt><trkpt lat="45.78313446081852" lon="9.423873684607887"><ele>223.0</ele><time>2026-04-25T09:41:00.999Z</time></trkpt><trkpt lat="45.783239109060226" lon="9.423837221447755"><ele>223.0</ele><time>2026-04-25T09:41:01.999Z</time></trkpt><trkpt lat="45.78334377819427" lon="9.423800113072298"><ele>223.0</ele><time>2026-04-25T09:41:02.999Z</time></trkpt><trkpt lat="45.78344355345691" lon="9.423760267765548"><ele>223.0</ele><time>2026-04-25T09:41:03.999Z</time></trkpt><trkpt lat="45.78353931146619" lon="9.423719612565066"><ele>223.0</ele><time>2026-04-25T09:41:04.999Z</time></trkpt><trkpt lat="45.78363353737081" lon="9.423677413536838"><ele>222.4</ele><time>2026-04-25T09:41:05.999Z</time></trkpt><trkpt lat="45.783720569384045" lon="9.423630319298946"><ele>221.8</ele><time>2026-04-25T09:41:06.999Z</time></trkpt><trkpt lat="45.78379029609134" lon="9.42358802432204"><ele>221.2</ele><time>2026-04-25T09:41:07.999Z</time></trkpt><trkpt lat="45.78390802671745" lon="9.423514374720856"><ele>220.6</ele><time>2026-04-25T09:41:09.999Z</time></trkpt><trkpt lat="45.78397656150776" lon="9.423466710833537"><ele>220.0</ele><time>2026-04-25T09:41:10.999Z</time></trkpt><trkpt lat="45.784048755287216" lon="9.42342074181872"><ele>219.99999999999997</ele><time>2026-04-25T09:41:11.999Z</time></trkpt><trkpt lat="45.784117940198854" lon="9.42336921326986"><ele>220.0</ele><time>2026-04-25T09:41:12.999Z</time></trkpt><trkpt lat="45.78417976205704" lon="9.42331359903557"><ele>220.0</ele><time>2026-04-25T09:41:13.999Z</time></trkpt><trkpt lat="45.784252745115076" lon="9.423277654560547"><ele>220.0</ele><time>2026-04-25T09:41:14.999Z</time></trkpt><trkpt lat="45.784325517713555" lon="9.42322078850152"><ele>219.99999999999997</ele><time>2026-04-25T09:41:15.999Z</time></trkpt><trkpt lat="45.78438852986811" lon="9.423143473569352"><ele>220.0</ele><time>2026-04-25T09:41:16.999Z</time></trkpt><trkpt lat="45.784456767107244" lon="9.423086033692815"><ele>219.8</ele><time>2026-04-25T09:41:17.999Z</time></trkpt><trkpt lat="45.7845298956071" lon="9.423021012374821"><ele>219.6</ele><time>2026-04-25T09:41:18.999Z</time></trkpt><trkpt lat="45.78461356166501" lon="9.42295323575669"><ele>219.39999999999998</ele><time>2026-04-25T09:41:19.999Z</time></trkpt><trkpt lat="45.784699733482796" lon="9.422883998475003"><ele>219.2</ele><time>2026-04-25T09:41:20.999Z</time></trkpt><trkpt lat="45.78478724095633" lon="9.422809826550044"><ele>219.0</ele><time>2026-04-25T09:41:21.999Z</time></trkpt><trkpt lat="45.78488058073148" lon="9.422734886634506"><ele>219.39999999999998</ele><time>2026-04-25T09:41:22.999Z</time></trkpt><trkpt lat="45.784977267132184" lon="9.42266017752825"><ele>219.79999999999998</ele><time>2026-04-25T09:41:23.999Z</time></trkpt><trkpt lat="45.78507122675657" lon="9.422584369907543"><ele>220.20000000000002</ele><time>2026-04-25T09:41:24.999Z</time></trkpt><trkpt lat="45.78516180264409" lon="9.422505577334519"><ele>220.60000000000002</ele><time>2026-04-25T09:41:25.999Z</time></trkpt><trkpt lat="45.78525647896187" lon="9.422436899195674"><ele>221.0</ele><time>2026-04-25T09:41:26.999Z</time></trkpt><trkpt lat="45.78535053335934" lon="9.42236083415292"><ele>220.4</ele><time>2026-04-25T09:41:27.999Z</time></trkpt><trkpt lat="45.78544752804803" lon="9.422283826241909"><ele>219.8</ele><time>2026-04-25T09:41:28.999Z</time></trkpt><trkpt lat="45.78554488225681" lon="9.422200858919686"><ele>219.20000000000002</ele><time>2026-04-25T09:41:29.999Z</time></trkpt><trkpt lat="45.78564136035577" lon="9.422120910541283"><ele>218.60000000000002</ele><time>2026-04-25T09:41:30.999Z</time></trkpt><trkpt lat="45.785738616275125" lon="9.422036153969689"><ele>218.0</ele><time>2026-04-25T09:41:31.999Z</time></trkpt><trkpt lat="45.7858339333153" lon="9.4219643010829"><ele>218.0</ele><time>2026-04-25T09:41:32.999Z</time></trkpt><trkpt lat="45.7859339874067" lon="9.421881247046942"><ele>218.0</ele><time>2026-04-25T09:41:33.999Z</time></trkpt><trkpt lat="45.786035591375374" lon="9.42179968511197"><ele>218.0</ele><time>2026-04-25T09:41:34.999Z</time></trkpt><trkpt lat="45.78614070999782" lon="9.421712255710123"><ele>218.0</ele><time>2026-04-25T09:41:35.999Z</time></trkpt><trkpt lat="45.786248727901125" lon="9.42161825625056"><ele>217.75</ele><time>2026-04-25T09:41:36.999Z</time></trkpt><trkpt lat="45.78636348900281" lon="9.4215236396303"><ele>217.5</ele><time>2026-04-25T09:41:37.999Z</time></trkpt><trkpt lat="45.786480671627935" lon="9.421426189573157"><ele>217.25</ele><time>2026-04-25T09:41:38.999Z</time></trkpt><trkpt lat="45.78660460125172" lon="9.42132518485503"><ele>217.0</ele><time>2026-04-25T09:41:39.999Z</time></trkpt><trkpt lat="45.786733011897965" lon="9.42122229539484"><ele>216.0</ele><time>2026-04-25T09:41:40.999Z</time></trkpt><trkpt lat="45.78685993839688" lon="9.421116036934341"><ele>215.0</ele><time>2026-04-25T09:41:41.999Z</time></trkpt><trkpt lat="45.786987243329506" lon="9.421006980011622"><ele>214.0</ele><time>2026-04-25T09:41:42.999Z</time></trkpt><trkpt lat="45.787122814684984" lon="9.420892796834456"><ele>214.0</ele><time>2026-04-25T09:41:43.999Z</time></trkpt><trkpt lat="45.78726311017772" lon="9.420777803775028"><ele>214.0</ele><time>2026-04-25T09:41:44.999Z</time></trkpt><trkpt lat="45.78740408714456" lon="9.42065911378198"><ele>214.0</ele><time>2026-04-25T09:41:45.999Z</time></trkpt><trkpt lat="45.78754918088271" lon="9.420540562908206"><ele>214.0</ele><time>2026-04-25T09:41:46.999Z</time></trkpt><trkpt lat="45.78769348419685" lon="9.420425935926614"><ele>214.0</ele><time>2026-04-25T09:41:47.999Z</time></trkpt><trkpt lat="45.78783986458421" lon="9.420313301791383"><ele>214.0</ele><time>2026-04-25T09:41:48.999Z</time></trkpt><trkpt lat="45.78798702027521" lon="9.42019810504571"><ele>214.0</ele><time>2026-04-25T09:41:49.999Z</time></trkpt><trkpt lat="45.78813054093786" lon="9.420078535242725"><ele>214.0</ele><time>2026-04-25T09:41:50.999Z</time></trkpt><trkpt lat="45.78827954103906" lon="9.419956364973098"><ele>214.0</ele><time>2026-04-25T09:41:51.999Z</time></trkpt><trkpt lat="45.788419310812984" lon="9.419821496856812"><ele>213.33333333333331</ele><time>2026-04-25T09:41:52.999Z</time></trkpt><trkpt lat="45.788556446853484" lon="9.419684130090532"><ele>212.66666666666669</ele><time>2026-04-25T09:41:53.999Z</time></trkpt><trkpt lat="45.7886886580753" lon="9.419546545303568"><ele>212.0</ele><time>2026-04-25T09:41:54.999Z</time></trkpt><trkpt lat="45.78881384067689" lon="9.419409506440989"><ele>212.0</ele><time>2026-04-25T09:41:55.999Z</time></trkpt><trkpt lat="45.78892692332033" lon="9.41927839150233"><ele>212.0</ele><time>2026-04-25T09:41:56.999Z</time></trkpt><trkpt lat="45.789028970884694" lon="9.41915455894567"><ele>212.0</ele><time>2026-04-25T09:41:57.999Z</time></trkpt><trkpt lat="45.78912233331531" lon="9.419041794136986"><ele>212.0</ele><time>2026-04-25T09:41:58.999Z</time></trkpt><trkpt lat="45.789207389903744" lon="9.41893836756954"><ele>212.0</ele><time>2026-04-25T09:42:00Z</time></trkpt><trkpt lat="45.789291528538655" lon="9.41885109804622"><ele>212.0</ele><time>2026-04-25T09:42:01Z</time></trkpt><trkpt lat="45.78937495504735" lon="9.41878863021133"><ele>212.0</ele><time>2026-04-25T09:42:02Z</time></trkpt><trkpt lat="45.789460663793015" lon="9.418744852210342"><ele>212.0</ele><time>2026-04-25T09:42:03Z</time></trkpt><trkpt lat="45.789542529608894" lon="9.418729335805976"><ele>212.0</ele><time>2026-04-25T09:42:04Z</time></trkpt><trkpt lat="45.789613668315255" lon="9.41868069370247"><ele>211.6</ele><time>2026-04-25T09:42:05Z</time></trkpt><trkpt lat="45.78966862358091" lon="9.418580555759137"><ele>211.2</ele><time>2026-04-25T09:42:06Z</time></trkpt><trkpt lat="45.789700022912754" lon="9.418445556934191"><ele>210.8</ele><time>2026-04-25T09:42:07Z</time></trkpt><trkpt lat="45.78971787225938" lon="9.41830015654832"><ele>210.4</ele><time>2026-04-25T09:42:08Z</time></trkpt><trkpt lat="45.789743962020076" lon="9.41816446805862"><ele>210.0</ele><time>2026-04-25T09:42:09Z</time></trkpt><trkpt lat="45.78979452744625" lon="9.418037119886916"><ele>210.5</ele><time>2026-04-25T09:42:10Z</time></trkpt><trkpt lat="45.789865189576275" lon="9.417907920883572"><ele>211.0</ele><time>2026-04-25T09:42:11Z</time></trkpt><trkpt lat="45.78994350513974" lon="9.417776095564987"><ele>211.5</ele><time>2026-04-25T09:42:12Z</time></trkpt><trkpt lat="45.79002320613737" lon="9.417639009007912"><ele>212.0</ele><time>2026-04-25T09:42:13Z</time></trkpt><trkpt lat="45.79010297636784" lon="9.417500761121929"><ele>211.25</ele><time>2026-04-25T09:42:14Z</time></trkpt><trkpt lat="45.79018293016574" lon="9.417362658060048"><ele>210.5</ele><time>2026-04-25T09:42:15Z</time></trkpt><trkpt lat="45.790262241703644" lon="9.417224495953926"><ele>209.75</ele><time>2026-04-25T09:42:16Z</time></trkpt><trkpt lat="45.7903409330169" lon="9.417089649624089"><ele>209.0</ele><time>2026-04-25T09:42:17Z</time></trkpt><trkpt lat="45.79042265618216" lon="9.416950613243479"><ele>209.0</ele><time>2026-04-25T09:42:18Z</time></trkpt><trkpt lat="45.79050538373043" lon="9.416804772815725"><ele>209.0</ele><time>2026-04-25T09:42:19Z</time></trkpt><trkpt lat="45.790588590197565" lon="9.416651777290094"><ele>209.0</ele><time>2026-04-25T09:42:20Z</time></trkpt><trkpt lat="45.7906714751131" lon="9.41649312918179"><ele>209.0</ele><time>2026-04-25T09:42:21Z</time></trkpt><trkpt lat="45.79075728284844" lon="9.416332107003182"><ele>209.25</ele><time>2026-04-25T09:42:22Z</time></trkpt><trkpt lat="45.79084702536334" lon="9.416171568042165"><ele>209.5</ele><time>2026-04-25T09:42:23Z</time></trkpt><trkpt lat="45.7909366924994" lon="9.4160041950546"><ele>209.75</ele><time>2026-04-25T09:42:24Z</time></trkpt><trkpt lat="45.79103015181627" lon="9.415835135508548"><ele>210.0</ele><time>2026-04-25T09:42:25Z</time></trkpt><trkpt lat="45.79113088356914" lon="9.415660773515803"><ele>209.66666666666669</ele><time>2026-04-25T09:42:26Z</time></trkpt><trkpt lat="45.79124266635039" lon="9.415474604313815"><ele>209.33333333333334</ele><time>2026-04-25T09:42:27Z</time></trkpt><trkpt lat="45.79135782276208" lon="9.41528979268413"><ele>209.0</ele><time>2026-04-25T09:42:28Z</time></trkpt><trkpt lat="45.7914769484755" lon="9.415107227851951"><ele>209.0</ele><time>2026-04-25T09:42:29Z</time></trkpt><trkpt lat="45.79159735802708" lon="9.414928220723612"><ele>209.0</ele><time>2026-04-25T09:42:30Z</time></trkpt><trkpt lat="45.791717970033574" lon="9.41475112963761"><ele>209.0</ele><time>2026-04-25T09:42:30.999Z</time></trkpt><trkpt lat="45.791841127457865" lon="9.414574491917026"><ele>208.66666666666669</ele><time>2026-04-25T09:42:31.999Z</time></trkpt><trkpt lat="45.79196581974258" lon="9.414409069531313"><ele>208.33333333333331</ele><time>2026-04-25T09:42:32.999Z</time></trkpt><trkpt lat="45.79209374154776" lon="9.414259877640072"><ele>208.0</ele><time>2026-04-25T09:42:33.999Z</time></trkpt><trkpt lat="45.79222316374306" lon="9.414126818482751"><ele>208.0</ele><time>2026-04-25T09:42:34.999Z</time></trkpt><trkpt lat="45.7923528792346" lon="9.414003880330924"><ele>208.0</ele><time>2026-04-25T09:42:35.999Z</time></trkpt><trkpt lat="45.79247878990461" lon="9.413893160421491"><ele>208.0</ele><time>2026-04-25T09:42:36.999Z</time></trkpt><trkpt lat="45.79259258922121" lon="9.413794449587172"><ele>208.0</ele><time>2026-04-25T09:42:37.999Z</time></trkpt><trkpt lat="45.79269501483541" lon="9.41369926250598"><ele>208.60000000000002</ele><time>2026-04-25T09:42:38.999Z</time></trkpt><trkpt lat="45.79278798396481" lon="9.413616226767235"><ele>209.20000000000002</ele><time>2026-04-25T09:42:39.999Z</time></trkpt><trkpt lat="45.79287367072744" lon="9.413544223541997"><ele>209.8</ele><time>2026-04-25T09:42:40.999Z</time></trkpt><trkpt lat="45.79296161918475" lon="9.41348602480099"><ele>210.4</ele><time>2026-04-25T09:42:41.999Z</time></trkpt><trkpt lat="45.793054986861584" lon="9.413447293471512"><ele>211.0</ele><time>2026-04-25T09:42:42.999Z</time></trkpt><trkpt lat="45.79315872646357" lon="9.413413624345894"><ele>211.0</ele><time>2026-04-25T09:42:43.999Z</time></trkpt><trkpt lat="45.793265758307996" lon="9.413368099477129"><ele>211.0</ele><time>2026-04-25T09:42:44.999Z</time></trkpt><trkpt lat="45.79337752339745" lon="9.413308584706343"><ele>211.0</ele><time>2026-04-25T09:42:45.999Z</time></trkpt><trkpt lat="45.79348916647445" lon="9.413249734246047"><ele>211.0</ele><time>2026-04-25T09:42:46.999Z</time></trkpt><trkpt lat="45.79360247722657" lon="9.4131936738671"><ele>210.75</ele><time>2026-04-25T09:42:47.999Z</time></trkpt><trkpt lat="45.79371618677054" lon="9.413139695745631"><ele>210.5</ele><time>2026-04-25T09:42:48.999Z</time></trkpt><trkpt lat="45.79382917692337" lon="9.413084087385027"><ele>210.25</ele><time>2026-04-25T09:42:49.999Z</time></trkpt><trkpt lat="45.793941951523074" lon="9.41302654039871"><ele>210.0</ele><time>2026-04-25T09:42:50.999Z</time></trkpt><trkpt lat="45.794053656681484" lon="9.412967256560872"><ele>210.6</ele><time>2026-04-25T09:42:51.999Z</time></trkpt><trkpt lat="45.79416083295752" lon="9.412903216271337"><ele>211.2</ele><time>2026-04-25T09:42:52.999Z</time></trkpt><trkpt lat="45.79425759087667" lon="9.412838355302378"><ele>211.8</ele><time>2026-04-25T09:42:53.999Z</time></trkpt><trkpt lat="45.79435804718658" lon="9.412780387828874"><ele>212.4</ele><time>2026-04-25T09:42:54.999Z</time></trkpt><trkpt lat="45.7944623778451" lon="9.412726891180492"><ele>213.0</ele><time>2026-04-25T09:42:55.999Z</time></trkpt><trkpt lat="45.794571265136696" lon="9.412681713519119"><ele>213.2</ele><time>2026-04-25T09:42:56.999Z</time></trkpt><trkpt lat="45.794679659630894" lon="9.412639682825093"><ele>213.4</ele><time>2026-04-25T09:42:57.999Z</time></trkpt><trkpt lat="45.79478586138807" lon="9.4125990221564"><ele>213.59999999999997</ele><time>2026-04-25T09:42:58.999Z</time></trkpt><trkpt lat="45.794881624931875" lon="9.412560832708268"><ele>213.79999999999998</ele><time>2026-04-25T09:42:59.999Z</time></trkpt><trkpt lat="45.79497141218901" lon="9.412526551944072"><ele>214.0</ele><time>2026-04-25T09:43:00.999Z</time></trkpt><trkpt lat="45.79504368326912" lon="9.412501813427456"><ele>213.99999999999997</ele><time>2026-04-25T09:43:01.999Z</time></trkpt><trkpt lat="45.795105991921524" lon="9.412525467057115"><ele>214.0</ele><time>2026-04-25T09:43:02.999Z</time></trkpt><trkpt lat="45.79518099185612" lon="9.412672985955195"><ele>214.0</ele><time>2026-04-25T09:43:04.999Z</time></trkpt><trkpt lat="45.795185595988734" lon="9.412774363926077"><ele>214.0</ele><time>2026-04-25T09:43:05.999Z</time></trkpt><trkpt lat="45.79519748178854" lon="9.412872792198545"><ele>213.99999999999997</ele><time>2026-04-25T09:43:06.999Z</time></trkpt><trkpt lat="45.79522781860469" lon="9.412975355814046"><ele>214.0</ele><time>2026-04-25T09:43:07.999Z</time></trkpt><trkpt lat="45.79526600894478" lon="9.413076245343113"><ele>213.83333333333331</ele><time>2026-04-25T09:43:08.999Z</time></trkpt><trkpt lat="45.795310070982744" lon="9.413178960130292"><ele>213.66666666666666</ele><time>2026-04-25T09:43:09.999Z</time></trkpt><trkpt lat="45.79535075346025" lon="9.413288345403496"><ele>213.5</ele><time>2026-04-25T09:43:10.999Z</time></trkpt><trkpt lat="45.79538291724055" lon="9.413397395399462"><ele>213.33333333333331</ele><time>2026-04-25T09:43:11.999Z</time></trkpt><trkpt lat="45.795410264778184" lon="9.413498023534952"><ele>213.16666666666666</ele><time>2026-04-25T09:43:12.999Z</time></trkpt><trkpt lat="45.79543951914857" lon="9.413590538905268"><ele>213.0</ele><time>2026-04-25T09:43:13.999Z</time></trkpt><trkpt lat="45.795489821489895" lon="9.413737433755054"><ele>212.83333333333334</ele><time>2026-04-25T09:43:15.999Z</time></trkpt><trkpt lat="45.795500812603606" lon="9.413847166945898"><ele>212.66666666666669</ele><time>2026-04-25T09:43:17.999Z</time></trkpt><trkpt lat="45.79538111321536" lon="9.413877570646415"><ele>212.5</ele><time>2026-04-25T09:43:19.999Z</time></trkpt><trkpt lat="45.79531272914964" lon="9.413929675892694"><ele>212.33333333333334</ele><time>2026-04-25T09:43:21.999Z</time></trkpt><trkpt lat="45.79523706656321" lon="9.413940654402838"><ele>212.16666666666669</ele><time>2026-04-25T09:43:23.999Z</time></trkpt><trkpt lat="45.79515359553142" lon="9.413977209683855"><ele>212.0</ele><time>2026-04-25T09:43:25.999Z</time></trkpt><trkpt lat="45.79506042947216" lon="9.414018010807368"><ele>211.0</ele><time>2026-04-25T09:43:27.999Z</time></trkpt><trkpt lat="45.79495531072674" lon="9.41407422421448"><ele>210.0</ele><time>2026-04-25T09:43:29.999Z</time></trkpt><trkpt lat="45.79486519262222" lon="9.41417839584137"><ele>209.0</ele><time>2026-04-25T09:43:31.999Z</time></trkpt><trkpt lat="45.79477144107993" lon="9.414228971428848"><ele>208.0</ele><time>2026-04-25T09:43:33.999Z</time></trkpt><trkpt lat="45.79488317892844" lon="9.41386204208358"><ele>208.0</ele><time>2026-04-25T09:43:38.999Z</time></trkpt><trkpt lat="45.79485422448527" lon="9.413768809303848"><ele>212.0</ele><time>2026-04-25T09:43:41.999Z</time></trkpt><trkpt lat="45.794806510655874" lon="9.413633946206938"><ele>212.0</ele><time>2026-04-25T09:43:43.999Z</time></trkpt><trkpt lat="45.7947633097244" lon="9.413513566886495"><ele>212.0</ele><time>2026-04-25T09:43:45.999Z</time></trkpt></trkseg></trk></gpx>